<?xml version="1.0" encoding="UTF-8"?>
<gpx version="1.1" creator="https://www.youtrack.es" xsi:schemaLocation="http://www.topografix.com/GPX/1/1 http://www.topografix.com/GPX/1/1/gpx.xsd http://www.garmin.com/xmlschemas/GpxExtensions/v3 http://www.garmin.com/xmlschemas/GpxExtensionsv3.xsd http://www.garmin.com/xmlschemas/TrackPointExtension/v1 http://www.garmin.com/xmlschemas/TrackPointExtensionv1.xsd" xmlns:gpxtpx="http://www.garmin.com/xmlschemas/TrackPointExtension/v1" xmlns:gpxx="http://www.garmin.com/xmlschemas/GpxExtensions/v3" xmlns:xsi="http://www.w3.org/2001/XMLSchema-instance">
  <metadata>
    <link href="https://www.youtrack.es">
      <text>YouTrack.es</text>
    </link>
    <time>2026-05-08T08:34:16Z</time>
  </metadata>
  <trk>
    <src>https://www.youtrack.es</src>
    <link href="https://www.youtrack.es/ruta/21845-sta--eugenia-san-lorenzo-del-escorial-sta--eugenia">
      <text>YouTrack.es</text>
    </link>
    <trkseg>
      <trkpt lat="40.3841080" lon="-3.6098070">
        <ele>649.5</ele>
        <time>2021-05-08T04:59:43Z</time>
      </trkpt>
      <trkpt lat="40.3841080" lon="-3.6098070">
        <ele>649.5</ele>
        <time>2021-05-08T04:59:44Z</time>
      </trkpt>
      <trkpt lat="40.3841080" lon="-3.6098070">
        <ele>649.5</ele>
        <time>2021-05-08T04:59:45Z</time>
      </trkpt>
      <trkpt lat="40.3841080" lon="-3.6098070">
        <ele>649.5</ele>
        <time>2021-05-08T04:59:46Z</time>
      </trkpt>
      <trkpt lat="40.3841080" lon="-3.6098070">
        <ele>649.5</ele>
        <time>2021-05-08T04:59:47Z</time>
      </trkpt>
      <trkpt lat="40.3841080" lon="-3.6098070">
        <ele>649.5</ele>
        <time>2021-05-08T04:59:49Z</time>
      </trkpt>
      <trkpt lat="40.3841080" lon="-3.6098070">
        <ele>649.5</ele>
        <time>2021-05-08T04:59:51Z</time>
      </trkpt>
      <trkpt lat="40.3841080" lon="-3.6098070">
        <ele>649.5</ele>
        <time>2021-05-08T04:59:52Z</time>
      </trkpt>
      <trkpt lat="40.3841080" lon="-3.6098070">
        <ele>649.5</ele>
        <time>2021-05-08T04:59:54Z</time>
      </trkpt>
      <trkpt lat="40.3840800" lon="-3.6098000">
        <ele>649.4</ele>
        <time>2021-05-08T05:00:06Z</time>
      </trkpt>
      <trkpt lat="40.3840780" lon="-3.6097990">
        <ele>649.4</ele>
        <time>2021-05-08T05:00:08Z</time>
      </trkpt>
      <trkpt lat="40.3840800" lon="-3.6097990">
        <ele>649.4</ele>
        <time>2021-05-08T05:00:10Z</time>
      </trkpt>
      <trkpt lat="40.3840800" lon="-3.6097990">
        <ele>649.4</ele>
        <time>2021-05-08T05:00:11Z</time>
      </trkpt>
      <trkpt lat="40.3840800" lon="-3.6097990">
        <ele>649.4</ele>
        <time>2021-05-08T05:00:13Z</time>
      </trkpt>
      <trkpt lat="40.3840800" lon="-3.6097990">
        <ele>649.4</ele>
        <time>2021-05-08T05:00:14Z</time>
      </trkpt>
      <trkpt lat="40.3840800" lon="-3.6097990">
        <ele>649.4</ele>
        <time>2021-05-08T05:00:16Z</time>
      </trkpt>
      <trkpt lat="40.3840800" lon="-3.6097990">
        <ele>649.4</ele>
        <time>2021-05-08T05:00:17Z</time>
      </trkpt>
      <trkpt lat="40.3840810" lon="-3.6098010">
        <ele>649.4</ele>
        <time>2021-05-08T05:00:19Z</time>
      </trkpt>
      <trkpt lat="40.3840850" lon="-3.6098090">
        <ele>649.4</ele>
        <time>2021-05-08T05:00:20Z</time>
      </trkpt>
      <trkpt lat="40.3840850" lon="-3.6098440">
        <ele>649.3</ele>
        <time>2021-05-08T05:00:22Z</time>
      </trkpt>
      <trkpt lat="40.3840820" lon="-3.6098660">
        <ele>649.3</ele>
        <time>2021-05-08T05:00:23Z</time>
      </trkpt>
      <trkpt lat="40.3840820" lon="-3.6098670">
        <ele>649.3</ele>
        <time>2021-05-08T05:00:24Z</time>
      </trkpt>
      <trkpt lat="40.3840670" lon="-3.6098830">
        <ele>649.2</ele>
        <time>2021-05-08T05:00:26Z</time>
      </trkpt>
      <trkpt lat="40.3840410" lon="-3.6099350">
        <ele>649.1</ele>
        <time>2021-05-08T05:00:27Z</time>
      </trkpt>
      <trkpt lat="40.3839960" lon="-3.6100090">
        <ele>648.9</ele>
        <time>2021-05-08T05:00:28Z</time>
      </trkpt>
      <trkpt lat="40.3839620" lon="-3.6100650">
        <ele>648.7</ele>
        <time>2021-05-08T05:00:30Z</time>
      </trkpt>
      <trkpt lat="40.3839150" lon="-3.6101480">
        <ele>648.5</ele>
        <time>2021-05-08T05:00:31Z</time>
      </trkpt>
      <trkpt lat="40.3838920" lon="-3.6102210">
        <ele>648.4</ele>
        <time>2021-05-08T05:00:32Z</time>
      </trkpt>
      <trkpt lat="40.3838880" lon="-3.6102960">
        <ele>648.2</ele>
        <time>2021-05-08T05:00:34Z</time>
      </trkpt>
      <trkpt lat="40.3839080" lon="-3.6103460">
        <ele>648.1</ele>
        <time>2021-05-08T05:00:35Z</time>
      </trkpt>
      <trkpt lat="40.3838920" lon="-3.6103990">
        <ele>648.0</ele>
        <time>2021-05-08T05:00:37Z</time>
      </trkpt>
      <trkpt lat="40.3838580" lon="-3.6104430">
        <ele>647.9</ele>
        <time>2021-05-08T05:00:38Z</time>
      </trkpt>
      <trkpt lat="40.3838170" lon="-3.6104900">
        <ele>647.7</ele>
        <time>2021-05-08T05:00:39Z</time>
      </trkpt>
      <trkpt lat="40.3837530" lon="-3.6105870">
        <ele>647.5</ele>
        <time>2021-05-08T05:00:41Z</time>
      </trkpt>
      <trkpt lat="40.3836920" lon="-3.6107000">
        <ele>647.2</ele>
        <time>2021-05-08T05:00:43Z</time>
      </trkpt>
      <trkpt lat="40.3836600" lon="-3.6107600">
        <ele>647.1</ele>
        <time>2021-05-08T05:00:44Z</time>
      </trkpt>
      <trkpt lat="40.3835860" lon="-3.6108690">
        <ele>646.8</ele>
        <time>2021-05-08T05:00:46Z</time>
      </trkpt>
      <trkpt lat="40.3835460" lon="-3.6109210">
        <ele>646.6</ele>
        <time>2021-05-08T05:00:47Z</time>
      </trkpt>
      <trkpt lat="40.3834690" lon="-3.6110290">
        <ele>646.3</ele>
        <time>2021-05-08T05:00:49Z</time>
      </trkpt>
      <trkpt lat="40.3834310" lon="-3.6110970">
        <ele>646.2</ele>
        <time>2021-05-08T05:00:50Z</time>
      </trkpt>
      <trkpt lat="40.3833430" lon="-3.6112070">
        <ele>646.0</ele>
        <time>2021-05-08T05:00:52Z</time>
      </trkpt>
      <trkpt lat="40.3832980" lon="-3.6112700">
        <ele>645.9</ele>
        <time>2021-05-08T05:00:53Z</time>
      </trkpt>
      <trkpt lat="40.3832210" lon="-3.6113970">
        <ele>645.8</ele>
        <time>2021-05-08T05:00:55Z</time>
      </trkpt>
      <trkpt lat="40.3831930" lon="-3.6114500">
        <ele>645.8</ele>
        <time>2021-05-08T05:00:56Z</time>
      </trkpt>
      <trkpt lat="40.3831920" lon="-3.6115330">
        <ele>645.6</ele>
        <time>2021-05-08T05:00:58Z</time>
      </trkpt>
      <trkpt lat="40.3832260" lon="-3.6116620">
        <ele>645.7</ele>
        <time>2021-05-08T05:01:00Z</time>
      </trkpt>
      <trkpt lat="40.3832620" lon="-3.6117340">
        <ele>645.7</ele>
        <time>2021-05-08T05:01:01Z</time>
      </trkpt>
      <trkpt lat="40.3833210" lon="-3.6118320">
        <ele>645.7</ele>
        <time>2021-05-08T05:01:03Z</time>
      </trkpt>
      <trkpt lat="40.3833520" lon="-3.6118800">
        <ele>645.8</ele>
        <time>2021-05-08T05:01:04Z</time>
      </trkpt>
      <trkpt lat="40.3834110" lon="-3.6119790">
        <ele>645.8</ele>
        <time>2021-05-08T05:01:06Z</time>
      </trkpt>
      <trkpt lat="40.3834680" lon="-3.6120880">
        <ele>645.9</ele>
        <time>2021-05-08T05:01:08Z</time>
      </trkpt>
      <trkpt lat="40.3834970" lon="-3.6121460">
        <ele>645.9</ele>
        <time>2021-05-08T05:01:09Z</time>
      </trkpt>
      <trkpt lat="40.3835580" lon="-3.6122560">
        <ele>645.9</ele>
        <time>2021-05-08T05:01:11Z</time>
      </trkpt>
      <trkpt lat="40.3836230" lon="-3.6123620">
        <ele>646.0</ele>
        <time>2021-05-08T05:01:13Z</time>
      </trkpt>
      <trkpt lat="40.3836580" lon="-3.6124170">
        <ele>646.0</ele>
        <time>2021-05-08T05:01:14Z</time>
      </trkpt>
      <trkpt lat="40.3837250" lon="-3.6125160">
        <ele>646.1</ele>
        <time>2021-05-08T05:01:16Z</time>
      </trkpt>
      <trkpt lat="40.3837600" lon="-3.6125600">
        <ele>646.2</ele>
        <time>2021-05-08T05:01:17Z</time>
      </trkpt>
      <trkpt lat="40.3838330" lon="-3.6126490">
        <ele>646.3</ele>
        <time>2021-05-08T05:01:19Z</time>
      </trkpt>
      <trkpt lat="40.3839110" lon="-3.6127440">
        <ele>646.4</ele>
        <time>2021-05-08T05:01:21Z</time>
      </trkpt>
      <trkpt lat="40.3839890" lon="-3.6128300">
        <ele>646.4</ele>
        <time>2021-05-08T05:01:23Z</time>
      </trkpt>
      <trkpt lat="40.3840310" lon="-3.6128710">
        <ele>646.5</ele>
        <time>2021-05-08T05:01:24Z</time>
      </trkpt>
      <trkpt lat="40.3841130" lon="-3.6129400">
        <ele>646.5</ele>
        <time>2021-05-08T05:01:26Z</time>
      </trkpt>
      <trkpt lat="40.3841610" lon="-3.6129670">
        <ele>646.6</ele>
        <time>2021-05-08T05:01:27Z</time>
      </trkpt>
      <trkpt lat="40.3842540" lon="-3.6129950">
        <ele>646.7</ele>
        <time>2021-05-08T05:01:29Z</time>
      </trkpt>
      <trkpt lat="40.3843380" lon="-3.6130420">
        <ele>646.8</ele>
        <time>2021-05-08T05:01:31Z</time>
      </trkpt>
      <trkpt lat="40.3843630" lon="-3.6131000">
        <ele>646.8</ele>
        <time>2021-05-08T05:01:32Z</time>
      </trkpt>
      <trkpt lat="40.3843570" lon="-3.6132550">
        <ele>646.7</ele>
        <time>2021-05-08T05:01:34Z</time>
      </trkpt>
      <trkpt lat="40.3843180" lon="-3.6134060">
        <ele>646.4</ele>
        <time>2021-05-08T05:01:36Z</time>
      </trkpt>
      <trkpt lat="40.3843030" lon="-3.6134850">
        <ele>646.4</ele>
        <time>2021-05-08T05:01:37Z</time>
      </trkpt>
      <trkpt lat="40.3842990" lon="-3.6135650">
        <ele>646.2</ele>
        <time>2021-05-08T05:01:38Z</time>
      </trkpt>
      <trkpt lat="40.3843040" lon="-3.6136500">
        <ele>646.0</ele>
        <time>2021-05-08T05:01:39Z</time>
      </trkpt>
      <trkpt lat="40.3843210" lon="-3.6138180">
        <ele>645.5</ele>
        <time>2021-05-08T05:01:41Z</time>
      </trkpt>
      <trkpt lat="40.3843240" lon="-3.6139050">
        <ele>645.3</ele>
        <time>2021-05-08T05:01:42Z</time>
      </trkpt>
      <trkpt lat="40.3843180" lon="-3.6140020">
        <ele>645.0</ele>
        <time>2021-05-08T05:01:43Z</time>
      </trkpt>
      <trkpt lat="40.3842760" lon="-3.6141850">
        <ele>644.4</ele>
        <time>2021-05-08T05:01:45Z</time>
      </trkpt>
      <trkpt lat="40.3842490" lon="-3.6142780">
        <ele>644.1</ele>
        <time>2021-05-08T05:01:46Z</time>
      </trkpt>
      <trkpt lat="40.3842260" lon="-3.6143720">
        <ele>643.8</ele>
        <time>2021-05-08T05:01:47Z</time>
      </trkpt>
      <trkpt lat="40.3841800" lon="-3.6145660">
        <ele>643.2</ele>
        <time>2021-05-08T05:01:49Z</time>
      </trkpt>
      <trkpt lat="40.3841390" lon="-3.6147580">
        <ele>642.6</ele>
        <time>2021-05-08T05:01:51Z</time>
      </trkpt>
      <trkpt lat="40.3840930" lon="-3.6149600">
        <ele>642.1</ele>
        <time>2021-05-08T05:01:53Z</time>
      </trkpt>
      <trkpt lat="40.3840490" lon="-3.6151660">
        <ele>641.5</ele>
        <time>2021-05-08T05:01:55Z</time>
      </trkpt>
      <trkpt lat="40.3840000" lon="-3.6153760">
        <ele>641.1</ele>
        <time>2021-05-08T05:01:57Z</time>
      </trkpt>
      <trkpt lat="40.3839520" lon="-3.6155840">
        <ele>640.7</ele>
        <time>2021-05-08T05:01:59Z</time>
      </trkpt>
      <trkpt lat="40.3839090" lon="-3.6157860">
        <ele>640.6</ele>
        <time>2021-05-08T05:02:01Z</time>
      </trkpt>
      <trkpt lat="40.3838730" lon="-3.6159650">
        <ele>640.4</ele>
        <time>2021-05-08T05:02:03Z</time>
      </trkpt>
      <trkpt lat="40.3838570" lon="-3.6160610">
        <ele>640.3</ele>
        <time>2021-05-08T05:02:04Z</time>
      </trkpt>
      <trkpt lat="40.3838200" lon="-3.6162450">
        <ele>640.2</ele>
        <time>2021-05-08T05:02:06Z</time>
      </trkpt>
      <trkpt lat="40.3837970" lon="-3.6163370">
        <ele>640.1</ele>
        <time>2021-05-08T05:02:07Z</time>
      </trkpt>
      <trkpt lat="40.3837700" lon="-3.6164310">
        <ele>640.0</ele>
        <time>2021-05-08T05:02:08Z</time>
      </trkpt>
      <trkpt lat="40.3837200" lon="-3.6166110">
        <ele>639.9</ele>
        <time>2021-05-08T05:02:10Z</time>
      </trkpt>
      <trkpt lat="40.3837010" lon="-3.6167040">
        <ele>639.8</ele>
        <time>2021-05-08T05:02:11Z</time>
      </trkpt>
      <trkpt lat="40.3836590" lon="-3.6168900">
        <ele>639.6</ele>
        <time>2021-05-08T05:02:13Z</time>
      </trkpt>
      <trkpt lat="40.3836380" lon="-3.6169780">
        <ele>639.5</ele>
        <time>2021-05-08T05:02:14Z</time>
      </trkpt>
      <trkpt lat="40.3835990" lon="-3.6171490">
        <ele>639.3</ele>
        <time>2021-05-08T05:02:16Z</time>
      </trkpt>
      <trkpt lat="40.3835550" lon="-3.6173260">
        <ele>639.1</ele>
        <time>2021-05-08T05:02:18Z</time>
      </trkpt>
      <trkpt lat="40.3835330" lon="-3.6174200">
        <ele>639.0</ele>
        <time>2021-05-08T05:02:19Z</time>
      </trkpt>
      <trkpt lat="40.3834960" lon="-3.6176090">
        <ele>638.7</ele>
        <time>2021-05-08T05:02:21Z</time>
      </trkpt>
      <trkpt lat="40.3834550" lon="-3.6178020">
        <ele>638.4</ele>
        <time>2021-05-08T05:02:23Z</time>
      </trkpt>
      <trkpt lat="40.3834340" lon="-3.6179030">
        <ele>638.2</ele>
        <time>2021-05-08T05:02:24Z</time>
      </trkpt>
      <trkpt lat="40.3833890" lon="-3.6181070">
        <ele>637.8</ele>
        <time>2021-05-08T05:02:26Z</time>
      </trkpt>
      <trkpt lat="40.3833650" lon="-3.6182090">
        <ele>637.7</ele>
        <time>2021-05-08T05:02:27Z</time>
      </trkpt>
      <trkpt lat="40.3833210" lon="-3.6184130">
        <ele>637.4</ele>
        <time>2021-05-08T05:02:29Z</time>
      </trkpt>
      <trkpt lat="40.3833000" lon="-3.6185170">
        <ele>637.2</ele>
        <time>2021-05-08T05:02:30Z</time>
      </trkpt>
      <trkpt lat="40.3832550" lon="-3.6187250">
        <ele>636.9</ele>
        <time>2021-05-08T05:02:32Z</time>
      </trkpt>
      <trkpt lat="40.3832340" lon="-3.6188290">
        <ele>636.8</ele>
        <time>2021-05-08T05:02:33Z</time>
      </trkpt>
      <trkpt lat="40.3832090" lon="-3.6189390">
        <ele>636.7</ele>
        <time>2021-05-08T05:02:34Z</time>
      </trkpt>
      <trkpt lat="40.3831580" lon="-3.6191490">
        <ele>636.6</ele>
        <time>2021-05-08T05:02:36Z</time>
      </trkpt>
      <trkpt lat="40.3831340" lon="-3.6192510">
        <ele>636.6</ele>
        <time>2021-05-08T05:02:37Z</time>
      </trkpt>
      <trkpt lat="40.3830890" lon="-3.6194480">
        <ele>636.6</ele>
        <time>2021-05-08T05:02:39Z</time>
      </trkpt>
      <trkpt lat="40.3830450" lon="-3.6196360">
        <ele>636.7</ele>
        <time>2021-05-08T05:02:41Z</time>
      </trkpt>
      <trkpt lat="40.3830190" lon="-3.6197240">
        <ele>636.7</ele>
        <time>2021-05-08T05:02:42Z</time>
      </trkpt>
      <trkpt lat="40.3829910" lon="-3.6198320">
        <ele>636.7</ele>
        <time>2021-05-08T05:02:44Z</time>
      </trkpt>
      <trkpt lat="40.3829530" lon="-3.6199770">
        <ele>636.7</ele>
        <time>2021-05-08T05:02:45Z</time>
      </trkpt>
      <trkpt lat="40.3829060" lon="-3.6201470">
        <ele>636.7</ele>
        <time>2021-05-08T05:02:47Z</time>
      </trkpt>
      <trkpt lat="40.3828630" lon="-3.6203090">
        <ele>636.6</ele>
        <time>2021-05-08T05:02:49Z</time>
      </trkpt>
      <trkpt lat="40.3828420" lon="-3.6203920">
        <ele>636.6</ele>
        <time>2021-05-08T05:02:50Z</time>
      </trkpt>
      <trkpt lat="40.3828160" lon="-3.6205660">
        <ele>636.6</ele>
        <time>2021-05-08T05:02:52Z</time>
      </trkpt>
      <trkpt lat="40.3828010" lon="-3.6206540">
        <ele>636.6</ele>
        <time>2021-05-08T05:02:53Z</time>
      </trkpt>
      <trkpt lat="40.3827660" lon="-3.6208220">
        <ele>636.7</ele>
        <time>2021-05-08T05:02:55Z</time>
      </trkpt>
      <trkpt lat="40.3827460" lon="-3.6209030">
        <ele>636.7</ele>
        <time>2021-05-08T05:02:56Z</time>
      </trkpt>
      <trkpt lat="40.3827050" lon="-3.6210620">
        <ele>636.8</ele>
        <time>2021-05-08T05:02:58Z</time>
      </trkpt>
      <trkpt lat="40.3826690" lon="-3.6212200">
        <ele>636.8</ele>
        <time>2021-05-08T05:03:00Z</time>
      </trkpt>
      <trkpt lat="40.3826510" lon="-3.6212960">
        <ele>636.7</ele>
        <time>2021-05-08T05:03:01Z</time>
      </trkpt>
      <trkpt lat="40.3826150" lon="-3.6214460">
        <ele>636.7</ele>
        <time>2021-05-08T05:03:03Z</time>
      </trkpt>
      <trkpt lat="40.3825980" lon="-3.6215090">
        <ele>636.7</ele>
        <time>2021-05-08T05:03:04Z</time>
      </trkpt>
      <trkpt lat="40.3825580" lon="-3.6216710">
        <ele>636.7</ele>
        <time>2021-05-08T05:03:06Z</time>
      </trkpt>
      <trkpt lat="40.3825220" lon="-3.6218310">
        <ele>636.6</ele>
        <time>2021-05-08T05:03:08Z</time>
      </trkpt>
      <trkpt lat="40.3824900" lon="-3.6219920">
        <ele>636.6</ele>
        <time>2021-05-08T05:03:10Z</time>
      </trkpt>
      <trkpt lat="40.3824750" lon="-3.6220670">
        <ele>636.6</ele>
        <time>2021-05-08T05:03:11Z</time>
      </trkpt>
      <trkpt lat="40.3824400" lon="-3.6222170">
        <ele>636.4</ele>
        <time>2021-05-08T05:03:13Z</time>
      </trkpt>
      <trkpt lat="40.3824250" lon="-3.6223030">
        <ele>636.2</ele>
        <time>2021-05-08T05:03:14Z</time>
      </trkpt>
      <trkpt lat="40.3823930" lon="-3.6224850">
        <ele>635.4</ele>
        <time>2021-05-08T05:03:16Z</time>
      </trkpt>
      <trkpt lat="40.3823650" lon="-3.6225900">
        <ele>634.8</ele>
        <time>2021-05-08T05:03:17Z</time>
      </trkpt>
      <trkpt lat="40.3823400" lon="-3.6226950">
        <ele>634.2</ele>
        <time>2021-05-08T05:03:18Z</time>
      </trkpt>
      <trkpt lat="40.3823170" lon="-3.6228010">
        <ele>633.7</ele>
        <time>2021-05-08T05:03:19Z</time>
      </trkpt>
      <trkpt lat="40.3822680" lon="-3.6230200">
        <ele>632.9</ele>
        <time>2021-05-08T05:03:21Z</time>
      </trkpt>
      <trkpt lat="40.3822060" lon="-3.6232360">
        <ele>632.6</ele>
        <time>2021-05-08T05:03:23Z</time>
      </trkpt>
      <trkpt lat="40.3821610" lon="-3.6233370">
        <ele>632.4</ele>
        <time>2021-05-08T05:03:24Z</time>
      </trkpt>
      <trkpt lat="40.3820410" lon="-3.6235090">
        <ele>632.3</ele>
        <time>2021-05-08T05:03:26Z</time>
      </trkpt>
      <trkpt lat="40.3819730" lon="-3.6235950">
        <ele>632.2</ele>
        <time>2021-05-08T05:03:27Z</time>
      </trkpt>
      <trkpt lat="40.3818610" lon="-3.6237510">
        <ele>632.0</ele>
        <time>2021-05-08T05:03:29Z</time>
      </trkpt>
      <trkpt lat="40.3817450" lon="-3.6239210">
        <ele>632.0</ele>
        <time>2021-05-08T05:03:31Z</time>
      </trkpt>
      <trkpt lat="40.3817050" lon="-3.6240090">
        <ele>632.0</ele>
        <time>2021-05-08T05:03:32Z</time>
      </trkpt>
      <trkpt lat="40.3817050" lon="-3.6242310">
        <ele>632.1</ele>
        <time>2021-05-08T05:03:34Z</time>
      </trkpt>
      <trkpt lat="40.3817090" lon="-3.6243350">
        <ele>632.4</ele>
        <time>2021-05-08T05:03:35Z</time>
      </trkpt>
      <trkpt lat="40.3816880" lon="-3.6244170">
        <ele>632.6</ele>
        <time>2021-05-08T05:03:36Z</time>
      </trkpt>
      <trkpt lat="40.3815610" lon="-3.6244690">
        <ele>633.0</ele>
        <time>2021-05-08T05:03:38Z</time>
      </trkpt>
      <trkpt lat="40.3814840" lon="-3.6244790">
        <ele>633.0</ele>
        <time>2021-05-08T05:03:39Z</time>
      </trkpt>
      <trkpt lat="40.3814130" lon="-3.6245110">
        <ele>633.0</ele>
        <time>2021-05-08T05:03:40Z</time>
      </trkpt>
      <trkpt lat="40.3813020" lon="-3.6246350">
        <ele>633.1</ele>
        <time>2021-05-08T05:03:42Z</time>
      </trkpt>
      <trkpt lat="40.3812240" lon="-3.6247780">
        <ele>633.3</ele>
        <time>2021-05-08T05:03:44Z</time>
      </trkpt>
      <trkpt lat="40.3811890" lon="-3.6248500">
        <ele>633.4</ele>
        <time>2021-05-08T05:03:45Z</time>
      </trkpt>
      <trkpt lat="40.3811630" lon="-3.6249060">
        <ele>633.5</ele>
        <time>2021-05-08T05:03:46Z</time>
      </trkpt>
      <trkpt lat="40.3810940" lon="-3.6250190">
        <ele>633.8</ele>
        <time>2021-05-08T05:03:48Z</time>
      </trkpt>
      <trkpt lat="40.3810630" lon="-3.6250630">
        <ele>633.9</ele>
        <time>2021-05-08T05:03:49Z</time>
      </trkpt>
      <trkpt lat="40.3810130" lon="-3.6251670">
        <ele>634.2</ele>
        <time>2021-05-08T05:03:51Z</time>
      </trkpt>
      <trkpt lat="40.3809950" lon="-3.6252910">
        <ele>634.4</ele>
        <time>2021-05-08T05:03:53Z</time>
      </trkpt>
      <trkpt lat="40.3809920" lon="-3.6253600">
        <ele>634.6</ele>
        <time>2021-05-08T05:03:54Z</time>
      </trkpt>
      <trkpt lat="40.3809540" lon="-3.6254870">
        <ele>634.9</ele>
        <time>2021-05-08T05:03:56Z</time>
      </trkpt>
      <trkpt lat="40.3808850" lon="-3.6256130">
        <ele>635.2</ele>
        <time>2021-05-08T05:03:58Z</time>
      </trkpt>
      <trkpt lat="40.3807980" lon="-3.6257290">
        <ele>635.6</ele>
        <time>2021-05-08T05:04:00Z</time>
      </trkpt>
      <trkpt lat="40.3807030" lon="-3.6258200">
        <ele>635.9</ele>
        <time>2021-05-08T05:04:02Z</time>
      </trkpt>
      <trkpt lat="40.3806650" lon="-3.6258680">
        <ele>636.0</ele>
        <time>2021-05-08T05:04:03Z</time>
      </trkpt>
      <trkpt lat="40.3806320" lon="-3.6259130">
        <ele>636.1</ele>
        <time>2021-05-08T05:04:04Z</time>
      </trkpt>
      <trkpt lat="40.3805780" lon="-3.6259730">
        <ele>636.2</ele>
        <time>2021-05-08T05:04:06Z</time>
      </trkpt>
      <trkpt lat="40.3805180" lon="-3.6260440">
        <ele>636.3</ele>
        <time>2021-05-08T05:04:07Z</time>
      </trkpt>
      <trkpt lat="40.3804810" lon="-3.6260970">
        <ele>636.3</ele>
        <time>2021-05-08T05:04:08Z</time>
      </trkpt>
      <trkpt lat="40.3804410" lon="-3.6261470">
        <ele>636.4</ele>
        <time>2021-05-08T05:04:09Z</time>
      </trkpt>
      <trkpt lat="40.3804010" lon="-3.6261940">
        <ele>636.4</ele>
        <time>2021-05-08T05:04:10Z</time>
      </trkpt>
      <trkpt lat="40.3803260" lon="-3.6262920">
        <ele>636.5</ele>
        <time>2021-05-08T05:04:12Z</time>
      </trkpt>
      <trkpt lat="40.3802580" lon="-3.6263930">
        <ele>636.6</ele>
        <time>2021-05-08T05:04:14Z</time>
      </trkpt>
      <trkpt lat="40.3801790" lon="-3.6264820">
        <ele>636.6</ele>
        <time>2021-05-08T05:04:16Z</time>
      </trkpt>
      <trkpt lat="40.3800930" lon="-3.6265750">
        <ele>636.6</ele>
        <time>2021-05-08T05:04:18Z</time>
      </trkpt>
      <trkpt lat="40.3800140" lon="-3.6266710">
        <ele>636.5</ele>
        <time>2021-05-08T05:04:20Z</time>
      </trkpt>
      <trkpt lat="40.3799770" lon="-3.6267190">
        <ele>636.4</ele>
        <time>2021-05-08T05:04:21Z</time>
      </trkpt>
      <trkpt lat="40.3799370" lon="-3.6267670">
        <ele>636.4</ele>
        <time>2021-05-08T05:04:22Z</time>
      </trkpt>
      <trkpt lat="40.3798960" lon="-3.6268160">
        <ele>636.2</ele>
        <time>2021-05-08T05:04:23Z</time>
      </trkpt>
      <trkpt lat="40.3798530" lon="-3.6268680">
        <ele>636.1</ele>
        <time>2021-05-08T05:04:24Z</time>
      </trkpt>
      <trkpt lat="40.3798100" lon="-3.6269210">
        <ele>636.0</ele>
        <time>2021-05-08T05:04:25Z</time>
      </trkpt>
      <trkpt lat="40.3797260" lon="-3.6270280">
        <ele>635.8</ele>
        <time>2021-05-08T05:04:27Z</time>
      </trkpt>
      <trkpt lat="40.3796800" lon="-3.6270870">
        <ele>635.6</ele>
        <time>2021-05-08T05:04:28Z</time>
      </trkpt>
      <trkpt lat="40.3795920" lon="-3.6272100">
        <ele>635.3</ele>
        <time>2021-05-08T05:04:30Z</time>
      </trkpt>
      <trkpt lat="40.3794900" lon="-3.6273290">
        <ele>635.0</ele>
        <time>2021-05-08T05:04:32Z</time>
      </trkpt>
      <trkpt lat="40.3793880" lon="-3.6274550">
        <ele>634.6</ele>
        <time>2021-05-08T05:04:34Z</time>
      </trkpt>
      <trkpt lat="40.3793370" lon="-3.6275270">
        <ele>634.4</ele>
        <time>2021-05-08T05:04:35Z</time>
      </trkpt>
      <trkpt lat="40.3792840" lon="-3.6275980">
        <ele>634.3</ele>
        <time>2021-05-08T05:04:36Z</time>
      </trkpt>
      <trkpt lat="40.3791720" lon="-3.6277410">
        <ele>633.9</ele>
        <time>2021-05-08T05:04:38Z</time>
      </trkpt>
      <trkpt lat="40.3790580" lon="-3.6278790">
        <ele>633.5</ele>
        <time>2021-05-08T05:04:40Z</time>
      </trkpt>
      <trkpt lat="40.3789360" lon="-3.6280150">
        <ele>632.9</ele>
        <time>2021-05-08T05:04:42Z</time>
      </trkpt>
      <trkpt lat="40.3788150" lon="-3.6281380">
        <ele>632.4</ele>
        <time>2021-05-08T05:04:44Z</time>
      </trkpt>
      <trkpt lat="40.3787620" lon="-3.6282100">
        <ele>632.1</ele>
        <time>2021-05-08T05:04:45Z</time>
      </trkpt>
      <trkpt lat="40.3787210" lon="-3.6282730">
        <ele>632.0</ele>
        <time>2021-05-08T05:04:46Z</time>
      </trkpt>
      <trkpt lat="40.3786150" lon="-3.6284180">
        <ele>631.6</ele>
        <time>2021-05-08T05:04:48Z</time>
      </trkpt>
      <trkpt lat="40.3785610" lon="-3.6284840">
        <ele>631.5</ele>
        <time>2021-05-08T05:04:49Z</time>
      </trkpt>
      <trkpt lat="40.3784500" lon="-3.6286260">
        <ele>631.0</ele>
        <time>2021-05-08T05:04:51Z</time>
      </trkpt>
      <trkpt lat="40.3783400" lon="-3.6287590">
        <ele>630.6</ele>
        <time>2021-05-08T05:04:53Z</time>
      </trkpt>
      <trkpt lat="40.3782860" lon="-3.6288210">
        <ele>630.4</ele>
        <time>2021-05-08T05:04:54Z</time>
      </trkpt>
      <trkpt lat="40.3781780" lon="-3.6289470">
        <ele>630.1</ele>
        <time>2021-05-08T05:04:56Z</time>
      </trkpt>
      <trkpt lat="40.3780700" lon="-3.6290760">
        <ele>629.8</ele>
        <time>2021-05-08T05:04:58Z</time>
      </trkpt>
      <trkpt lat="40.3779590" lon="-3.6292080">
        <ele>629.5</ele>
        <time>2021-05-08T05:05:00Z</time>
      </trkpt>
      <trkpt lat="40.3779040" lon="-3.6292750">
        <ele>629.4</ele>
        <time>2021-05-08T05:05:01Z</time>
      </trkpt>
      <trkpt lat="40.3777970" lon="-3.6294020">
        <ele>629.1</ele>
        <time>2021-05-08T05:05:03Z</time>
      </trkpt>
      <trkpt lat="40.3776960" lon="-3.6295320">
        <ele>629.0</ele>
        <time>2021-05-08T05:05:05Z</time>
      </trkpt>
      <trkpt lat="40.3775920" lon="-3.6296600">
        <ele>628.8</ele>
        <time>2021-05-08T05:05:07Z</time>
      </trkpt>
      <trkpt lat="40.3775440" lon="-3.6297150">
        <ele>628.7</ele>
        <time>2021-05-08T05:05:08Z</time>
      </trkpt>
      <trkpt lat="40.3774490" lon="-3.6298310">
        <ele>628.5</ele>
        <time>2021-05-08T05:05:10Z</time>
      </trkpt>
      <trkpt lat="40.3774030" lon="-3.6298890">
        <ele>628.4</ele>
        <time>2021-05-08T05:05:11Z</time>
      </trkpt>
      <trkpt lat="40.3773180" lon="-3.6300020">
        <ele>628.3</ele>
        <time>2021-05-08T05:05:13Z</time>
      </trkpt>
      <trkpt lat="40.3772790" lon="-3.6300560">
        <ele>628.2</ele>
        <time>2021-05-08T05:05:14Z</time>
      </trkpt>
      <trkpt lat="40.3772110" lon="-3.6301740">
        <ele>628.2</ele>
        <time>2021-05-08T05:05:16Z</time>
      </trkpt>
      <trkpt lat="40.3771620" lon="-3.6303300">
        <ele>628.2</ele>
        <time>2021-05-08T05:05:18Z</time>
      </trkpt>
      <trkpt lat="40.3771370" lon="-3.6304100">
        <ele>628.2</ele>
        <time>2021-05-08T05:05:19Z</time>
      </trkpt>
      <trkpt lat="40.3771060" lon="-3.6304840">
        <ele>628.1</ele>
        <time>2021-05-08T05:05:20Z</time>
      </trkpt>
      <trkpt lat="40.3770040" lon="-3.6305850">
        <ele>627.7</ele>
        <time>2021-05-08T05:05:22Z</time>
      </trkpt>
      <trkpt lat="40.3768660" lon="-3.6306320">
        <ele>627.3</ele>
        <time>2021-05-08T05:05:24Z</time>
      </trkpt>
      <trkpt lat="40.3767950" lon="-3.6306460">
        <ele>627.2</ele>
        <time>2021-05-08T05:05:25Z</time>
      </trkpt>
      <trkpt lat="40.3767300" lon="-3.6306690">
        <ele>627.0</ele>
        <time>2021-05-08T05:05:26Z</time>
      </trkpt>
      <trkpt lat="40.3766190" lon="-3.6307760">
        <ele>626.7</ele>
        <time>2021-05-08T05:05:28Z</time>
      </trkpt>
      <trkpt lat="40.3765280" lon="-3.6309230">
        <ele>626.4</ele>
        <time>2021-05-08T05:05:30Z</time>
      </trkpt>
      <trkpt lat="40.3764300" lon="-3.6310680">
        <ele>626.1</ele>
        <time>2021-05-08T05:05:32Z</time>
      </trkpt>
      <trkpt lat="40.3763810" lon="-3.6311430">
        <ele>626.0</ele>
        <time>2021-05-08T05:05:33Z</time>
      </trkpt>
      <trkpt lat="40.3763290" lon="-3.6312150">
        <ele>625.8</ele>
        <time>2021-05-08T05:05:34Z</time>
      </trkpt>
      <trkpt lat="40.3762270" lon="-3.6313560">
        <ele>625.5</ele>
        <time>2021-05-08T05:05:36Z</time>
      </trkpt>
      <trkpt lat="40.3761240" lon="-3.6315030">
        <ele>625.2</ele>
        <time>2021-05-08T05:05:38Z</time>
      </trkpt>
      <trkpt lat="40.3760740" lon="-3.6315770">
        <ele>625.0</ele>
        <time>2021-05-08T05:05:39Z</time>
      </trkpt>
      <trkpt lat="40.3759780" lon="-3.6317310">
        <ele>624.7</ele>
        <time>2021-05-08T05:05:41Z</time>
      </trkpt>
      <trkpt lat="40.3759260" lon="-3.6318090">
        <ele>624.6</ele>
        <time>2021-05-08T05:05:42Z</time>
      </trkpt>
      <trkpt lat="40.3758200" lon="-3.6319630">
        <ele>624.2</ele>
        <time>2021-05-08T05:05:44Z</time>
      </trkpt>
      <trkpt lat="40.3757680" lon="-3.6320390">
        <ele>624.1</ele>
        <time>2021-05-08T05:05:45Z</time>
      </trkpt>
      <trkpt lat="40.3756690" lon="-3.6321970">
        <ele>623.7</ele>
        <time>2021-05-08T05:05:47Z</time>
      </trkpt>
      <trkpt lat="40.3756190" lon="-3.6322820">
        <ele>623.5</ele>
        <time>2021-05-08T05:05:48Z</time>
      </trkpt>
      <trkpt lat="40.3755250" lon="-3.6324600">
        <ele>623.2</ele>
        <time>2021-05-08T05:05:50Z</time>
      </trkpt>
      <trkpt lat="40.3754760" lon="-3.6325540">
        <ele>623.1</ele>
        <time>2021-05-08T05:05:51Z</time>
      </trkpt>
      <trkpt lat="40.3754300" lon="-3.6326460">
        <ele>622.9</ele>
        <time>2021-05-08T05:05:52Z</time>
      </trkpt>
      <trkpt lat="40.3753450" lon="-3.6328330">
        <ele>622.6</ele>
        <time>2021-05-08T05:05:54Z</time>
      </trkpt>
      <trkpt lat="40.3752620" lon="-3.6330180">
        <ele>622.4</ele>
        <time>2021-05-08T05:05:56Z</time>
      </trkpt>
      <trkpt lat="40.3751780" lon="-3.6332050">
        <ele>622.1</ele>
        <time>2021-05-08T05:05:58Z</time>
      </trkpt>
      <trkpt lat="40.3751390" lon="-3.6333020">
        <ele>622.0</ele>
        <time>2021-05-08T05:05:59Z</time>
      </trkpt>
      <trkpt lat="40.3751000" lon="-3.6333990">
        <ele>621.9</ele>
        <time>2021-05-08T05:06:00Z</time>
      </trkpt>
      <trkpt lat="40.3750230" lon="-3.6335900">
        <ele>621.7</ele>
        <time>2021-05-08T05:06:02Z</time>
      </trkpt>
      <trkpt lat="40.3749480" lon="-3.6337760">
        <ele>621.5</ele>
        <time>2021-05-08T05:06:04Z</time>
      </trkpt>
      <trkpt lat="40.3749080" lon="-3.6338680">
        <ele>621.4</ele>
        <time>2021-05-08T05:06:05Z</time>
      </trkpt>
      <trkpt lat="40.3748690" lon="-3.6339610">
        <ele>621.2</ele>
        <time>2021-05-08T05:06:06Z</time>
      </trkpt>
      <trkpt lat="40.3748290" lon="-3.6340570">
        <ele>621.1</ele>
        <time>2021-05-08T05:06:07Z</time>
      </trkpt>
      <trkpt lat="40.3747850" lon="-3.6341630">
        <ele>621.0</ele>
        <time>2021-05-08T05:06:09Z</time>
      </trkpt>
      <trkpt lat="40.3747100" lon="-3.6343490">
        <ele>620.8</ele>
        <time>2021-05-08T05:06:10Z</time>
      </trkpt>
      <trkpt lat="40.3746280" lon="-3.6345480">
        <ele>620.5</ele>
        <time>2021-05-08T05:06:12Z</time>
      </trkpt>
      <trkpt lat="40.3745870" lon="-3.6346450">
        <ele>620.3</ele>
        <time>2021-05-08T05:06:13Z</time>
      </trkpt>
      <trkpt lat="40.3745030" lon="-3.6348400">
        <ele>620.1</ele>
        <time>2021-05-08T05:06:15Z</time>
      </trkpt>
      <trkpt lat="40.3744230" lon="-3.6350310">
        <ele>619.9</ele>
        <time>2021-05-08T05:06:17Z</time>
      </trkpt>
      <trkpt lat="40.3743360" lon="-3.6352200">
        <ele>619.6</ele>
        <time>2021-05-08T05:06:19Z</time>
      </trkpt>
      <trkpt lat="40.3742950" lon="-3.6353140">
        <ele>619.5</ele>
        <time>2021-05-08T05:06:20Z</time>
      </trkpt>
      <trkpt lat="40.3742160" lon="-3.6354950">
        <ele>619.3</ele>
        <time>2021-05-08T05:06:22Z</time>
      </trkpt>
      <trkpt lat="40.3741770" lon="-3.6355850">
        <ele>619.2</ele>
        <time>2021-05-08T05:06:23Z</time>
      </trkpt>
      <trkpt lat="40.3740990" lon="-3.6357570">
        <ele>619.0</ele>
        <time>2021-05-08T05:06:25Z</time>
      </trkpt>
      <trkpt lat="40.3740260" lon="-3.6359310">
        <ele>618.8</ele>
        <time>2021-05-08T05:06:27Z</time>
      </trkpt>
      <trkpt lat="40.3739860" lon="-3.6360200">
        <ele>618.7</ele>
        <time>2021-05-08T05:06:28Z</time>
      </trkpt>
      <trkpt lat="40.3739160" lon="-3.6361870">
        <ele>618.5</ele>
        <time>2021-05-08T05:06:30Z</time>
      </trkpt>
      <trkpt lat="40.3738790" lon="-3.6362720">
        <ele>618.4</ele>
        <time>2021-05-08T05:06:31Z</time>
      </trkpt>
      <trkpt lat="40.3738090" lon="-3.6364420">
        <ele>618.2</ele>
        <time>2021-05-08T05:06:33Z</time>
      </trkpt>
      <trkpt lat="40.3737370" lon="-3.6366100">
        <ele>618.0</ele>
        <time>2021-05-08T05:06:35Z</time>
      </trkpt>
      <trkpt lat="40.3736620" lon="-3.6367750">
        <ele>617.8</ele>
        <time>2021-05-08T05:06:37Z</time>
      </trkpt>
      <trkpt lat="40.3735930" lon="-3.6369390">
        <ele>617.5</ele>
        <time>2021-05-08T05:06:39Z</time>
      </trkpt>
      <trkpt lat="40.3735240" lon="-3.6371050">
        <ele>617.3</ele>
        <time>2021-05-08T05:06:41Z</time>
      </trkpt>
      <trkpt lat="40.3734960" lon="-3.6371810">
        <ele>617.2</ele>
        <time>2021-05-08T05:06:42Z</time>
      </trkpt>
      <trkpt lat="40.3734570" lon="-3.6372810">
        <ele>617.1</ele>
        <time>2021-05-08T05:06:44Z</time>
      </trkpt>
      <trkpt lat="40.3734490" lon="-3.6373680">
        <ele>617.0</ele>
        <time>2021-05-08T05:06:46Z</time>
      </trkpt>
      <trkpt lat="40.3734510" lon="-3.6374360">
        <ele>616.9</ele>
        <time>2021-05-08T05:06:47Z</time>
      </trkpt>
      <trkpt lat="40.3734400" lon="-3.6375760">
        <ele>617.2</ele>
        <time>2021-05-08T05:06:49Z</time>
      </trkpt>
      <trkpt lat="40.3733700" lon="-3.6376870">
        <ele>617.3</ele>
        <time>2021-05-08T05:06:51Z</time>
      </trkpt>
      <trkpt lat="40.3733110" lon="-3.6377410">
        <ele>617.4</ele>
        <time>2021-05-08T05:06:52Z</time>
      </trkpt>
      <trkpt lat="40.3732220" lon="-3.6378390">
        <ele>617.4</ele>
        <time>2021-05-08T05:06:54Z</time>
      </trkpt>
      <trkpt lat="40.3731850" lon="-3.6379090">
        <ele>617.4</ele>
        <time>2021-05-08T05:06:55Z</time>
      </trkpt>
      <trkpt lat="40.3731280" lon="-3.6380660">
        <ele>617.2</ele>
        <time>2021-05-08T05:06:57Z</time>
      </trkpt>
      <trkpt lat="40.3730980" lon="-3.6381430">
        <ele>617.1</ele>
        <time>2021-05-08T05:06:58Z</time>
      </trkpt>
      <trkpt lat="40.3730700" lon="-3.6382280">
        <ele>617.0</ele>
        <time>2021-05-08T05:06:59Z</time>
      </trkpt>
      <trkpt lat="40.3730050" lon="-3.6383840">
        <ele>616.8</ele>
        <time>2021-05-08T05:07:01Z</time>
      </trkpt>
      <trkpt lat="40.3729360" lon="-3.6385460">
        <ele>616.6</ele>
        <time>2021-05-08T05:07:03Z</time>
      </trkpt>
      <trkpt lat="40.3728620" lon="-3.6387080">
        <ele>616.3</ele>
        <time>2021-05-08T05:07:05Z</time>
      </trkpt>
      <trkpt lat="40.3727920" lon="-3.6388760">
        <ele>616.1</ele>
        <time>2021-05-08T05:07:07Z</time>
      </trkpt>
      <trkpt lat="40.3727310" lon="-3.6390450">
        <ele>615.8</ele>
        <time>2021-05-08T05:07:09Z</time>
      </trkpt>
      <trkpt lat="40.3726980" lon="-3.6391310">
        <ele>615.7</ele>
        <time>2021-05-08T05:07:10Z</time>
      </trkpt>
      <trkpt lat="40.3726290" lon="-3.6392970">
        <ele>615.5</ele>
        <time>2021-05-08T05:07:12Z</time>
      </trkpt>
      <trkpt lat="40.3725940" lon="-3.6393750">
        <ele>615.4</ele>
        <time>2021-05-08T05:07:13Z</time>
      </trkpt>
      <trkpt lat="40.3725230" lon="-3.6395460">
        <ele>615.3</ele>
        <time>2021-05-08T05:07:15Z</time>
      </trkpt>
      <trkpt lat="40.3724570" lon="-3.6397120">
        <ele>615.3</ele>
        <time>2021-05-08T05:07:17Z</time>
      </trkpt>
      <trkpt lat="40.3723930" lon="-3.6398730">
        <ele>615.3</ele>
        <time>2021-05-08T05:07:19Z</time>
      </trkpt>
      <trkpt lat="40.3723610" lon="-3.6399520">
        <ele>615.3</ele>
        <time>2021-05-08T05:07:20Z</time>
      </trkpt>
      <trkpt lat="40.3722940" lon="-3.6401070">
        <ele>615.4</ele>
        <time>2021-05-08T05:07:22Z</time>
      </trkpt>
      <trkpt lat="40.3722600" lon="-3.6401840">
        <ele>615.4</ele>
        <time>2021-05-08T05:07:23Z</time>
      </trkpt>
      <trkpt lat="40.3721940" lon="-3.6403410">
        <ele>615.3</ele>
        <time>2021-05-08T05:07:25Z</time>
      </trkpt>
      <trkpt lat="40.3721620" lon="-3.6404210">
        <ele>615.3</ele>
        <time>2021-05-08T05:07:26Z</time>
      </trkpt>
      <trkpt lat="40.3721310" lon="-3.6405030">
        <ele>615.3</ele>
        <time>2021-05-08T05:07:27Z</time>
      </trkpt>
      <trkpt lat="40.3720670" lon="-3.6406620">
        <ele>615.2</ele>
        <time>2021-05-08T05:07:29Z</time>
      </trkpt>
      <trkpt lat="40.3719970" lon="-3.6408130">
        <ele>615.2</ele>
        <time>2021-05-08T05:07:31Z</time>
      </trkpt>
      <trkpt lat="40.3719630" lon="-3.6408900">
        <ele>615.2</ele>
        <time>2021-05-08T05:07:32Z</time>
      </trkpt>
      <trkpt lat="40.3719000" lon="-3.6410490">
        <ele>615.3</ele>
        <time>2021-05-08T05:07:34Z</time>
      </trkpt>
      <trkpt lat="40.3718700" lon="-3.6411350">
        <ele>615.3</ele>
        <time>2021-05-08T05:07:35Z</time>
      </trkpt>
      <trkpt lat="40.3718390" lon="-3.6412150">
        <ele>615.4</ele>
        <time>2021-05-08T05:07:36Z</time>
      </trkpt>
      <trkpt lat="40.3717750" lon="-3.6413620">
        <ele>615.4</ele>
        <time>2021-05-08T05:07:38Z</time>
      </trkpt>
      <trkpt lat="40.3717440" lon="-3.6414380">
        <ele>615.4</ele>
        <time>2021-05-08T05:07:39Z</time>
      </trkpt>
      <trkpt lat="40.3716770" lon="-3.6415880">
        <ele>615.5</ele>
        <time>2021-05-08T05:07:41Z</time>
      </trkpt>
      <trkpt lat="40.3716420" lon="-3.6416670">
        <ele>615.5</ele>
        <time>2021-05-08T05:07:42Z</time>
      </trkpt>
      <trkpt lat="40.3716060" lon="-3.6417510">
        <ele>615.5</ele>
        <time>2021-05-08T05:07:43Z</time>
      </trkpt>
      <trkpt lat="40.3715370" lon="-3.6419120">
        <ele>615.4</ele>
        <time>2021-05-08T05:07:45Z</time>
      </trkpt>
      <trkpt lat="40.3715040" lon="-3.6419920">
        <ele>615.4</ele>
        <time>2021-05-08T05:07:46Z</time>
      </trkpt>
      <trkpt lat="40.3714690" lon="-3.6420730">
        <ele>615.3</ele>
        <time>2021-05-08T05:07:47Z</time>
      </trkpt>
      <trkpt lat="40.3714010" lon="-3.6422280">
        <ele>615.2</ele>
        <time>2021-05-08T05:07:49Z</time>
      </trkpt>
      <trkpt lat="40.3713650" lon="-3.6423060">
        <ele>615.2</ele>
        <time>2021-05-08T05:07:50Z</time>
      </trkpt>
      <trkpt lat="40.3713300" lon="-3.6423850">
        <ele>615.2</ele>
        <time>2021-05-08T05:07:51Z</time>
      </trkpt>
      <trkpt lat="40.3712600" lon="-3.6425450">
        <ele>615.1</ele>
        <time>2021-05-08T05:07:53Z</time>
      </trkpt>
      <trkpt lat="40.3712130" lon="-3.6426540">
        <ele>615.1</ele>
        <time>2021-05-08T05:07:55Z</time>
      </trkpt>
      <trkpt lat="40.3711550" lon="-3.6427880">
        <ele>615.1</ele>
        <time>2021-05-08T05:07:56Z</time>
      </trkpt>
      <trkpt lat="40.3711160" lon="-3.6428740">
        <ele>615.0</ele>
        <time>2021-05-08T05:07:57Z</time>
      </trkpt>
      <trkpt lat="40.3710480" lon="-3.6430300">
        <ele>615.0</ele>
        <time>2021-05-08T05:07:59Z</time>
      </trkpt>
      <trkpt lat="40.3710170" lon="-3.6431050">
        <ele>615.0</ele>
        <time>2021-05-08T05:08:00Z</time>
      </trkpt>
      <trkpt lat="40.3709860" lon="-3.6431750">
        <ele>615.0</ele>
        <time>2021-05-08T05:08:01Z</time>
      </trkpt>
      <trkpt lat="40.3709240" lon="-3.6433210">
        <ele>615.0</ele>
        <time>2021-05-08T05:08:03Z</time>
      </trkpt>
      <trkpt lat="40.3708910" lon="-3.6433930">
        <ele>615.0</ele>
        <time>2021-05-08T05:08:04Z</time>
      </trkpt>
      <trkpt lat="40.3708250" lon="-3.6435360">
        <ele>615.0</ele>
        <time>2021-05-08T05:08:06Z</time>
      </trkpt>
      <trkpt lat="40.3707920" lon="-3.6436060">
        <ele>615.0</ele>
        <time>2021-05-08T05:08:07Z</time>
      </trkpt>
      <trkpt lat="40.3707610" lon="-3.6436780">
        <ele>615.0</ele>
        <time>2021-05-08T05:08:08Z</time>
      </trkpt>
      <trkpt lat="40.3706960" lon="-3.6438300">
        <ele>614.9</ele>
        <time>2021-05-08T05:08:10Z</time>
      </trkpt>
      <trkpt lat="40.3706620" lon="-3.6439050">
        <ele>614.9</ele>
        <time>2021-05-08T05:08:11Z</time>
      </trkpt>
      <trkpt lat="40.3706000" lon="-3.6440520">
        <ele>614.9</ele>
        <time>2021-05-08T05:08:13Z</time>
      </trkpt>
      <trkpt lat="40.3705610" lon="-3.6441630">
        <ele>614.9</ele>
        <time>2021-05-08T05:08:15Z</time>
      </trkpt>
      <trkpt lat="40.3705140" lon="-3.6442900">
        <ele>614.9</ele>
        <time>2021-05-08T05:08:16Z</time>
      </trkpt>
      <trkpt lat="40.3704820" lon="-3.6443700">
        <ele>614.9</ele>
        <time>2021-05-08T05:08:17Z</time>
      </trkpt>
      <trkpt lat="40.3704180" lon="-3.6445180">
        <ele>614.8</ele>
        <time>2021-05-08T05:08:19Z</time>
      </trkpt>
      <trkpt lat="40.3703510" lon="-3.6446640">
        <ele>614.8</ele>
        <time>2021-05-08T05:08:21Z</time>
      </trkpt>
      <trkpt lat="40.3702870" lon="-3.6448130">
        <ele>614.8</ele>
        <time>2021-05-08T05:08:23Z</time>
      </trkpt>
      <trkpt lat="40.3702540" lon="-3.6448860">
        <ele>614.8</ele>
        <time>2021-05-08T05:08:24Z</time>
      </trkpt>
      <trkpt lat="40.3701820" lon="-3.6450230">
        <ele>614.8</ele>
        <time>2021-05-08T05:08:26Z</time>
      </trkpt>
      <trkpt lat="40.3701280" lon="-3.6451730">
        <ele>614.7</ele>
        <time>2021-05-08T05:08:28Z</time>
      </trkpt>
      <trkpt lat="40.3701360" lon="-3.6453390">
        <ele>614.6</ele>
        <time>2021-05-08T05:08:30Z</time>
      </trkpt>
      <trkpt lat="40.3701670" lon="-3.6455030">
        <ele>614.7</ele>
        <time>2021-05-08T05:08:32Z</time>
      </trkpt>
      <trkpt lat="40.3701670" lon="-3.6456600">
        <ele>614.9</ele>
        <time>2021-05-08T05:08:34Z</time>
      </trkpt>
      <trkpt lat="40.3701480" lon="-3.6457210">
        <ele>614.9</ele>
        <time>2021-05-08T05:08:35Z</time>
      </trkpt>
      <trkpt lat="40.3701120" lon="-3.6457890">
        <ele>614.9</ele>
        <time>2021-05-08T05:08:36Z</time>
      </trkpt>
      <trkpt lat="40.3700660" lon="-3.6458460">
        <ele>614.9</ele>
        <time>2021-05-08T05:08:37Z</time>
      </trkpt>
      <trkpt lat="40.3700200" lon="-3.6458920">
        <ele>614.9</ele>
        <time>2021-05-08T05:08:38Z</time>
      </trkpt>
      <trkpt lat="40.3699200" lon="-3.6459660">
        <ele>614.9</ele>
        <time>2021-05-08T05:08:40Z</time>
      </trkpt>
      <trkpt lat="40.3698340" lon="-3.6460510">
        <ele>615.1</ele>
        <time>2021-05-08T05:08:42Z</time>
      </trkpt>
      <trkpt lat="40.3698070" lon="-3.6461020">
        <ele>615.2</ele>
        <time>2021-05-08T05:08:43Z</time>
      </trkpt>
      <trkpt lat="40.3697910" lon="-3.6461630">
        <ele>615.2</ele>
        <time>2021-05-08T05:08:44Z</time>
      </trkpt>
      <trkpt lat="40.3697730" lon="-3.6463050">
        <ele>615.4</ele>
        <time>2021-05-08T05:08:46Z</time>
      </trkpt>
      <trkpt lat="40.3697500" lon="-3.6464380">
        <ele>615.6</ele>
        <time>2021-05-08T05:08:48Z</time>
      </trkpt>
      <trkpt lat="40.3697330" lon="-3.6465650">
        <ele>615.8</ele>
        <time>2021-05-08T05:08:50Z</time>
      </trkpt>
      <trkpt lat="40.3697240" lon="-3.6466970">
        <ele>616.0</ele>
        <time>2021-05-08T05:08:52Z</time>
      </trkpt>
      <trkpt lat="40.3697170" lon="-3.6467630">
        <ele>616.2</ele>
        <time>2021-05-08T05:08:53Z</time>
      </trkpt>
      <trkpt lat="40.3697050" lon="-3.6468540">
        <ele>616.3</ele>
        <time>2021-05-08T05:08:55Z</time>
      </trkpt>
      <trkpt lat="40.3696930" lon="-3.6469680">
        <ele>616.5</ele>
        <time>2021-05-08T05:08:56Z</time>
      </trkpt>
      <trkpt lat="40.3696790" lon="-3.6471110">
        <ele>616.8</ele>
        <time>2021-05-08T05:08:58Z</time>
      </trkpt>
      <trkpt lat="40.3696720" lon="-3.6471790">
        <ele>616.9</ele>
        <time>2021-05-08T05:08:59Z</time>
      </trkpt>
      <trkpt lat="40.3696660" lon="-3.6472480">
        <ele>617.0</ele>
        <time>2021-05-08T05:09:00Z</time>
      </trkpt>
      <trkpt lat="40.3696480" lon="-3.6473830">
        <ele>617.3</ele>
        <time>2021-05-08T05:09:02Z</time>
      </trkpt>
      <trkpt lat="40.3696360" lon="-3.6475220">
        <ele>617.6</ele>
        <time>2021-05-08T05:09:04Z</time>
      </trkpt>
      <trkpt lat="40.3696270" lon="-3.6476590">
        <ele>617.8</ele>
        <time>2021-05-08T05:09:06Z</time>
      </trkpt>
      <trkpt lat="40.3696200" lon="-3.6477250">
        <ele>617.9</ele>
        <time>2021-05-08T05:09:07Z</time>
      </trkpt>
      <trkpt lat="40.3696060" lon="-3.6478610">
        <ele>618.1</ele>
        <time>2021-05-08T05:09:09Z</time>
      </trkpt>
      <trkpt lat="40.3695940" lon="-3.6480010">
        <ele>618.3</ele>
        <time>2021-05-08T05:09:11Z</time>
      </trkpt>
      <trkpt lat="40.3695810" lon="-3.6481410">
        <ele>618.5</ele>
        <time>2021-05-08T05:09:13Z</time>
      </trkpt>
      <trkpt lat="40.3695730" lon="-3.6482100">
        <ele>618.6</ele>
        <time>2021-05-08T05:09:14Z</time>
      </trkpt>
      <trkpt lat="40.3695550" lon="-3.6483500">
        <ele>618.7</ele>
        <time>2021-05-08T05:09:16Z</time>
      </trkpt>
      <trkpt lat="40.3695450" lon="-3.6484990">
        <ele>618.8</ele>
        <time>2021-05-08T05:09:18Z</time>
      </trkpt>
      <trkpt lat="40.3695290" lon="-3.6486410">
        <ele>618.9</ele>
        <time>2021-05-08T05:09:20Z</time>
      </trkpt>
      <trkpt lat="40.3695090" lon="-3.6487820">
        <ele>619.0</ele>
        <time>2021-05-08T05:09:22Z</time>
      </trkpt>
      <trkpt lat="40.3694990" lon="-3.6488540">
        <ele>619.0</ele>
        <time>2021-05-08T05:09:23Z</time>
      </trkpt>
      <trkpt lat="40.3694890" lon="-3.6489260">
        <ele>619.1</ele>
        <time>2021-05-08T05:09:24Z</time>
      </trkpt>
      <trkpt lat="40.3694780" lon="-3.6489970">
        <ele>619.1</ele>
        <time>2021-05-08T05:09:25Z</time>
      </trkpt>
      <trkpt lat="40.3694550" lon="-3.6491460">
        <ele>619.1</ele>
        <time>2021-05-08T05:09:27Z</time>
      </trkpt>
      <trkpt lat="40.3694280" lon="-3.6492950">
        <ele>619.1</ele>
        <time>2021-05-08T05:09:29Z</time>
      </trkpt>
      <trkpt lat="40.3693960" lon="-3.6494450">
        <ele>619.0</ele>
        <time>2021-05-08T05:09:31Z</time>
      </trkpt>
      <trkpt lat="40.3693630" lon="-3.6495920">
        <ele>618.9</ele>
        <time>2021-05-08T05:09:33Z</time>
      </trkpt>
      <trkpt lat="40.3693430" lon="-3.6496670">
        <ele>618.8</ele>
        <time>2021-05-08T05:09:34Z</time>
      </trkpt>
      <trkpt lat="40.3693250" lon="-3.6497340">
        <ele>618.8</ele>
        <time>2021-05-08T05:09:35Z</time>
      </trkpt>
      <trkpt lat="40.3693020" lon="-3.6498190">
        <ele>618.7</ele>
        <time>2021-05-08T05:09:36Z</time>
      </trkpt>
      <trkpt lat="40.3692520" lon="-3.6499860">
        <ele>618.6</ele>
        <time>2021-05-08T05:09:38Z</time>
      </trkpt>
      <trkpt lat="40.3691950" lon="-3.6501520">
        <ele>618.5</ele>
        <time>2021-05-08T05:09:40Z</time>
      </trkpt>
      <trkpt lat="40.3691650" lon="-3.6502380">
        <ele>618.4</ele>
        <time>2021-05-08T05:09:41Z</time>
      </trkpt>
      <trkpt lat="40.3690960" lon="-3.6503930">
        <ele>618.1</ele>
        <time>2021-05-08T05:09:43Z</time>
      </trkpt>
      <trkpt lat="40.3690620" lon="-3.6504650">
        <ele>618.0</ele>
        <time>2021-05-08T05:09:44Z</time>
      </trkpt>
      <trkpt lat="40.3689910" lon="-3.6506180">
        <ele>617.7</ele>
        <time>2021-05-08T05:09:46Z</time>
      </trkpt>
      <trkpt lat="40.3689170" lon="-3.6507790">
        <ele>617.4</ele>
        <time>2021-05-08T05:09:48Z</time>
      </trkpt>
      <trkpt lat="40.3688320" lon="-3.6509510">
        <ele>617.1</ele>
        <time>2021-05-08T05:09:50Z</time>
      </trkpt>
      <trkpt lat="40.3687890" lon="-3.6510410">
        <ele>616.9</ele>
        <time>2021-05-08T05:09:51Z</time>
      </trkpt>
      <trkpt lat="40.3686940" lon="-3.6512130">
        <ele>616.5</ele>
        <time>2021-05-08T05:09:53Z</time>
      </trkpt>
      <trkpt lat="40.3686400" lon="-3.6512990">
        <ele>616.4</ele>
        <time>2021-05-08T05:09:54Z</time>
      </trkpt>
      <trkpt lat="40.3685310" lon="-3.6514740">
        <ele>615.9</ele>
        <time>2021-05-08T05:09:56Z</time>
      </trkpt>
      <trkpt lat="40.3684160" lon="-3.6516490">
        <ele>615.5</ele>
        <time>2021-05-08T05:09:58Z</time>
      </trkpt>
      <trkpt lat="40.3683190" lon="-3.6518210">
        <ele>615.0</ele>
        <time>2021-05-08T05:10:00Z</time>
      </trkpt>
      <trkpt lat="40.3682730" lon="-3.6519090">
        <ele>614.8</ele>
        <time>2021-05-08T05:10:01Z</time>
      </trkpt>
      <trkpt lat="40.3681750" lon="-3.6520880">
        <ele>614.4</ele>
        <time>2021-05-08T05:10:03Z</time>
      </trkpt>
      <trkpt lat="40.3681250" lon="-3.6521770">
        <ele>614.3</ele>
        <time>2021-05-08T05:10:04Z</time>
      </trkpt>
      <trkpt lat="40.3680760" lon="-3.6522690">
        <ele>614.1</ele>
        <time>2021-05-08T05:10:05Z</time>
      </trkpt>
      <trkpt lat="40.3679820" lon="-3.6524500">
        <ele>613.8</ele>
        <time>2021-05-08T05:10:07Z</time>
      </trkpt>
      <trkpt lat="40.3678920" lon="-3.6526290">
        <ele>613.7</ele>
        <time>2021-05-08T05:10:09Z</time>
      </trkpt>
      <trkpt lat="40.3678090" lon="-3.6528120">
        <ele>613.4</ele>
        <time>2021-05-08T05:10:11Z</time>
      </trkpt>
      <trkpt lat="40.3677310" lon="-3.6530000">
        <ele>613.2</ele>
        <time>2021-05-08T05:10:13Z</time>
      </trkpt>
      <trkpt lat="40.3677000" lon="-3.6530940">
        <ele>613.1</ele>
        <time>2021-05-08T05:10:14Z</time>
      </trkpt>
      <trkpt lat="40.3676380" lon="-3.6532810">
        <ele>612.9</ele>
        <time>2021-05-08T05:10:16Z</time>
      </trkpt>
      <trkpt lat="40.3676060" lon="-3.6533780">
        <ele>612.8</ele>
        <time>2021-05-08T05:10:17Z</time>
      </trkpt>
      <trkpt lat="40.3675380" lon="-3.6535700">
        <ele>612.6</ele>
        <time>2021-05-08T05:10:19Z</time>
      </trkpt>
      <trkpt lat="40.3675050" lon="-3.6536680">
        <ele>612.5</ele>
        <time>2021-05-08T05:10:20Z</time>
      </trkpt>
      <trkpt lat="40.3674420" lon="-3.6538660">
        <ele>612.2</ele>
        <time>2021-05-08T05:10:22Z</time>
      </trkpt>
      <trkpt lat="40.3674120" lon="-3.6539650">
        <ele>612.0</ele>
        <time>2021-05-08T05:10:23Z</time>
      </trkpt>
      <trkpt lat="40.3673570" lon="-3.6541690">
        <ele>611.6</ele>
        <time>2021-05-08T05:10:25Z</time>
      </trkpt>
      <trkpt lat="40.3673030" lon="-3.6543700">
        <ele>611.1</ele>
        <time>2021-05-08T05:10:27Z</time>
      </trkpt>
      <trkpt lat="40.3672640" lon="-3.6545740">
        <ele>610.7</ele>
        <time>2021-05-08T05:10:29Z</time>
      </trkpt>
      <trkpt lat="40.3672430" lon="-3.6547160">
        <ele>610.5</ele>
        <time>2021-05-08T05:10:31Z</time>
      </trkpt>
      <trkpt lat="40.3672450" lon="-3.6547360">
        <ele>610.4</ele>
        <time>2021-05-08T05:10:32Z</time>
      </trkpt>
      <trkpt lat="40.3672580" lon="-3.6548000">
        <ele>610.3</ele>
        <time>2021-05-08T05:10:34Z</time>
      </trkpt>
      <trkpt lat="40.3672820" lon="-3.6549290">
        <ele>610.0</ele>
        <time>2021-05-08T05:10:36Z</time>
      </trkpt>
      <trkpt lat="40.3672890" lon="-3.6550010">
        <ele>609.9</ele>
        <time>2021-05-08T05:10:37Z</time>
      </trkpt>
      <trkpt lat="40.3672920" lon="-3.6551300">
        <ele>609.7</ele>
        <time>2021-05-08T05:10:39Z</time>
      </trkpt>
      <trkpt lat="40.3672560" lon="-3.6552730">
        <ele>609.5</ele>
        <time>2021-05-08T05:10:41Z</time>
      </trkpt>
      <trkpt lat="40.3672110" lon="-3.6553370">
        <ele>609.4</ele>
        <time>2021-05-08T05:10:42Z</time>
      </trkpt>
      <trkpt lat="40.3671090" lon="-3.6554810">
        <ele>609.1</ele>
        <time>2021-05-08T05:10:44Z</time>
      </trkpt>
      <trkpt lat="40.3670590" lon="-3.6556500">
        <ele>608.7</ele>
        <time>2021-05-08T05:10:46Z</time>
      </trkpt>
      <trkpt lat="40.3670510" lon="-3.6557470">
        <ele>608.5</ele>
        <time>2021-05-08T05:10:47Z</time>
      </trkpt>
      <trkpt lat="40.3670400" lon="-3.6559270">
        <ele>608.2</ele>
        <time>2021-05-08T05:10:49Z</time>
      </trkpt>
      <trkpt lat="40.3670330" lon="-3.6560250">
        <ele>608.1</ele>
        <time>2021-05-08T05:10:50Z</time>
      </trkpt>
      <trkpt lat="40.3670290" lon="-3.6562240">
        <ele>607.7</ele>
        <time>2021-05-08T05:10:52Z</time>
      </trkpt>
      <trkpt lat="40.3670330" lon="-3.6563210">
        <ele>607.5</ele>
        <time>2021-05-08T05:10:53Z</time>
      </trkpt>
      <trkpt lat="40.3670460" lon="-3.6565140">
        <ele>607.0</ele>
        <time>2021-05-08T05:10:55Z</time>
      </trkpt>
      <trkpt lat="40.3670530" lon="-3.6567040">
        <ele>606.5</ele>
        <time>2021-05-08T05:10:57Z</time>
      </trkpt>
      <trkpt lat="40.3670550" lon="-3.6567920">
        <ele>606.3</ele>
        <time>2021-05-08T05:10:58Z</time>
      </trkpt>
      <trkpt lat="40.3670640" lon="-3.6569670">
        <ele>605.9</ele>
        <time>2021-05-08T05:11:00Z</time>
      </trkpt>
      <trkpt lat="40.3670740" lon="-3.6571480">
        <ele>605.6</ele>
        <time>2021-05-08T05:11:02Z</time>
      </trkpt>
      <trkpt lat="40.3670790" lon="-3.6572400">
        <ele>605.5</ele>
        <time>2021-05-08T05:11:03Z</time>
      </trkpt>
      <trkpt lat="40.3670950" lon="-3.6574350">
        <ele>605.2</ele>
        <time>2021-05-08T05:11:05Z</time>
      </trkpt>
      <trkpt lat="40.3671160" lon="-3.6576360">
        <ele>604.9</ele>
        <time>2021-05-08T05:11:07Z</time>
      </trkpt>
      <trkpt lat="40.3671270" lon="-3.6577390">
        <ele>604.8</ele>
        <time>2021-05-08T05:11:08Z</time>
      </trkpt>
      <trkpt lat="40.3671510" lon="-3.6579550">
        <ele>604.5</ele>
        <time>2021-05-08T05:11:10Z</time>
      </trkpt>
      <trkpt lat="40.3671840" lon="-3.6581850">
        <ele>604.3</ele>
        <time>2021-05-08T05:11:12Z</time>
      </trkpt>
      <trkpt lat="40.3671990" lon="-3.6583050">
        <ele>604.2</ele>
        <time>2021-05-08T05:11:13Z</time>
      </trkpt>
      <trkpt lat="40.3672280" lon="-3.6585450">
        <ele>603.9</ele>
        <time>2021-05-08T05:11:15Z</time>
      </trkpt>
      <trkpt lat="40.3672560" lon="-3.6587890">
        <ele>603.7</ele>
        <time>2021-05-08T05:11:17Z</time>
      </trkpt>
      <trkpt lat="40.3672850" lon="-3.6590300">
        <ele>603.5</ele>
        <time>2021-05-08T05:11:19Z</time>
      </trkpt>
      <trkpt lat="40.3673090" lon="-3.6592730">
        <ele>603.4</ele>
        <time>2021-05-08T05:11:21Z</time>
      </trkpt>
      <trkpt lat="40.3673330" lon="-3.6595020">
        <ele>603.1</ele>
        <time>2021-05-08T05:11:23Z</time>
      </trkpt>
      <trkpt lat="40.3673620" lon="-3.6597120">
        <ele>602.8</ele>
        <time>2021-05-08T05:11:25Z</time>
      </trkpt>
      <trkpt lat="40.3673890" lon="-3.6599320">
        <ele>602.2</ele>
        <time>2021-05-08T05:11:27Z</time>
      </trkpt>
      <trkpt lat="40.3674000" lon="-3.6600480">
        <ele>602.0</ele>
        <time>2021-05-08T05:11:28Z</time>
      </trkpt>
      <trkpt lat="40.3674170" lon="-3.6601840">
        <ele>601.8</ele>
        <time>2021-05-08T05:11:29Z</time>
      </trkpt>
      <trkpt lat="40.3674430" lon="-3.6604000">
        <ele>601.6</ele>
        <time>2021-05-08T05:11:31Z</time>
      </trkpt>
      <trkpt lat="40.3674670" lon="-3.6606470">
        <ele>601.5</ele>
        <time>2021-05-08T05:11:33Z</time>
      </trkpt>
      <trkpt lat="40.3674810" lon="-3.6607680">
        <ele>601.4</ele>
        <time>2021-05-08T05:11:34Z</time>
      </trkpt>
      <trkpt lat="40.3675020" lon="-3.6609910">
        <ele>601.2</ele>
        <time>2021-05-08T05:11:36Z</time>
      </trkpt>
      <trkpt lat="40.3675230" lon="-3.6612160">
        <ele>600.9</ele>
        <time>2021-05-08T05:11:38Z</time>
      </trkpt>
      <trkpt lat="40.3675360" lon="-3.6613230">
        <ele>600.7</ele>
        <time>2021-05-08T05:11:39Z</time>
      </trkpt>
      <trkpt lat="40.3675620" lon="-3.6615460">
        <ele>600.4</ele>
        <time>2021-05-08T05:11:41Z</time>
      </trkpt>
      <trkpt lat="40.3675870" lon="-3.6617680">
        <ele>600.1</ele>
        <time>2021-05-08T05:11:43Z</time>
      </trkpt>
      <trkpt lat="40.3676150" lon="-3.6619990">
        <ele>599.8</ele>
        <time>2021-05-08T05:11:45Z</time>
      </trkpt>
      <trkpt lat="40.3676440" lon="-3.6622280">
        <ele>599.5</ele>
        <time>2021-05-08T05:11:47Z</time>
      </trkpt>
      <trkpt lat="40.3676600" lon="-3.6623470">
        <ele>599.3</ele>
        <time>2021-05-08T05:11:48Z</time>
      </trkpt>
      <trkpt lat="40.3676910" lon="-3.6625820">
        <ele>599.1</ele>
        <time>2021-05-08T05:11:50Z</time>
      </trkpt>
      <trkpt lat="40.3677240" lon="-3.6628110">
        <ele>598.9</ele>
        <time>2021-05-08T05:11:52Z</time>
      </trkpt>
      <trkpt lat="40.3677660" lon="-3.6630310">
        <ele>598.7</ele>
        <time>2021-05-08T05:11:54Z</time>
      </trkpt>
      <trkpt lat="40.3678560" lon="-3.6632160">
        <ele>598.6</ele>
        <time>2021-05-08T05:11:56Z</time>
      </trkpt>
      <trkpt lat="40.3679200" lon="-3.6632870">
        <ele>598.7</ele>
        <time>2021-05-08T05:11:57Z</time>
      </trkpt>
      <trkpt lat="40.3680260" lon="-3.6634390">
        <ele>598.7</ele>
        <time>2021-05-08T05:11:59Z</time>
      </trkpt>
      <trkpt lat="40.3680220" lon="-3.6636370">
        <ele>598.6</ele>
        <time>2021-05-08T05:12:01Z</time>
      </trkpt>
      <trkpt lat="40.3679890" lon="-3.6637340">
        <ele>598.4</ele>
        <time>2021-05-08T05:12:02Z</time>
      </trkpt>
      <trkpt lat="40.3679360" lon="-3.6638200">
        <ele>598.2</ele>
        <time>2021-05-08T05:12:03Z</time>
      </trkpt>
      <trkpt lat="40.3678870" lon="-3.6639070">
        <ele>598.0</ele>
        <time>2021-05-08T05:12:04Z</time>
      </trkpt>
      <trkpt lat="40.3678530" lon="-3.6640980">
        <ele>597.4</ele>
        <time>2021-05-08T05:12:06Z</time>
      </trkpt>
      <trkpt lat="40.3678580" lon="-3.6642040">
        <ele>597.3</ele>
        <time>2021-05-08T05:12:07Z</time>
      </trkpt>
      <trkpt lat="40.3678870" lon="-3.6644370">
        <ele>596.8</ele>
        <time>2021-05-08T05:12:09Z</time>
      </trkpt>
      <trkpt lat="40.3678960" lon="-3.6646320">
        <ele>596.5</ele>
        <time>2021-05-08T05:12:11Z</time>
      </trkpt>
      <trkpt lat="40.3679050" lon="-3.6648320">
        <ele>596.1</ele>
        <time>2021-05-08T05:12:13Z</time>
      </trkpt>
      <trkpt lat="40.3679070" lon="-3.6649390">
        <ele>596.0</ele>
        <time>2021-05-08T05:12:14Z</time>
      </trkpt>
      <trkpt lat="40.3679100" lon="-3.6650440">
        <ele>595.8</ele>
        <time>2021-05-08T05:12:15Z</time>
      </trkpt>
      <trkpt lat="40.3679090" lon="-3.6651540">
        <ele>595.6</ele>
        <time>2021-05-08T05:12:16Z</time>
      </trkpt>
      <trkpt lat="40.3679000" lon="-3.6653820">
        <ele>595.2</ele>
        <time>2021-05-08T05:12:18Z</time>
      </trkpt>
      <trkpt lat="40.3678900" lon="-3.6654950">
        <ele>595.0</ele>
        <time>2021-05-08T05:12:19Z</time>
      </trkpt>
      <trkpt lat="40.3678660" lon="-3.6657180">
        <ele>594.7</ele>
        <time>2021-05-08T05:12:21Z</time>
      </trkpt>
      <trkpt lat="40.3678560" lon="-3.6659290">
        <ele>594.4</ele>
        <time>2021-05-08T05:12:23Z</time>
      </trkpt>
      <trkpt lat="40.3678450" lon="-3.6661360">
        <ele>594.1</ele>
        <time>2021-05-08T05:12:25Z</time>
      </trkpt>
      <trkpt lat="40.3678380" lon="-3.6662380">
        <ele>594.0</ele>
        <time>2021-05-08T05:12:26Z</time>
      </trkpt>
      <trkpt lat="40.3678310" lon="-3.6663440">
        <ele>593.8</ele>
        <time>2021-05-08T05:12:27Z</time>
      </trkpt>
      <trkpt lat="40.3678130" lon="-3.6665570">
        <ele>593.5</ele>
        <time>2021-05-08T05:12:29Z</time>
      </trkpt>
      <trkpt lat="40.3678070" lon="-3.6666670">
        <ele>593.3</ele>
        <time>2021-05-08T05:12:30Z</time>
      </trkpt>
      <trkpt lat="40.3677990" lon="-3.6668860">
        <ele>593.0</ele>
        <time>2021-05-08T05:12:32Z</time>
      </trkpt>
      <trkpt lat="40.3677930" lon="-3.6669970">
        <ele>592.8</ele>
        <time>2021-05-08T05:12:33Z</time>
      </trkpt>
      <trkpt lat="40.3677870" lon="-3.6671040">
        <ele>592.7</ele>
        <time>2021-05-08T05:12:34Z</time>
      </trkpt>
      <trkpt lat="40.3677690" lon="-3.6673220">
        <ele>592.3</ele>
        <time>2021-05-08T05:12:36Z</time>
      </trkpt>
      <trkpt lat="40.3677620" lon="-3.6674300">
        <ele>592.1</ele>
        <time>2021-05-08T05:12:37Z</time>
      </trkpt>
      <trkpt lat="40.3677500" lon="-3.6676520">
        <ele>591.8</ele>
        <time>2021-05-08T05:12:39Z</time>
      </trkpt>
      <trkpt lat="40.3677320" lon="-3.6678680">
        <ele>591.4</ele>
        <time>2021-05-08T05:12:41Z</time>
      </trkpt>
      <trkpt lat="40.3677370" lon="-3.6680300">
        <ele>591.1</ele>
        <time>2021-05-08T05:12:43Z</time>
      </trkpt>
      <trkpt lat="40.3677690" lon="-3.6680690">
        <ele>590.4</ele>
        <time>2021-05-08T05:12:44Z</time>
      </trkpt>
      <trkpt lat="40.3678750" lon="-3.6681380">
        <ele>590.1</ele>
        <time>2021-05-08T05:12:46Z</time>
      </trkpt>
      <trkpt lat="40.3679820" lon="-3.6682080">
        <ele>589.8</ele>
        <time>2021-05-08T05:12:48Z</time>
      </trkpt>
      <trkpt lat="40.3680430" lon="-3.6682640">
        <ele>589.5</ele>
        <time>2021-05-08T05:12:49Z</time>
      </trkpt>
      <trkpt lat="40.3680580" lon="-3.6684290">
        <ele>589.0</ele>
        <time>2021-05-08T05:12:51Z</time>
      </trkpt>
      <trkpt lat="40.3680440" lon="-3.6685190">
        <ele>588.7</ele>
        <time>2021-05-08T05:12:52Z</time>
      </trkpt>
      <trkpt lat="40.3680130" lon="-3.6687120">
        <ele>588.1</ele>
        <time>2021-05-08T05:12:54Z</time>
      </trkpt>
      <trkpt lat="40.3679920" lon="-3.6689120">
        <ele>587.5</ele>
        <time>2021-05-08T05:12:56Z</time>
      </trkpt>
      <trkpt lat="40.3679610" lon="-3.6691220">
        <ele>586.9</ele>
        <time>2021-05-08T05:12:58Z</time>
      </trkpt>
      <trkpt lat="40.3678700" lon="-3.6693130">
        <ele>586.4</ele>
        <time>2021-05-08T05:13:00Z</time>
      </trkpt>
      <trkpt lat="40.3678050" lon="-3.6695010">
        <ele>585.8</ele>
        <time>2021-05-08T05:13:02Z</time>
      </trkpt>
      <trkpt lat="40.3678380" lon="-3.6697380">
        <ele>585.2</ele>
        <time>2021-05-08T05:13:04Z</time>
      </trkpt>
      <trkpt lat="40.3678120" lon="-3.6699660">
        <ele>584.7</ele>
        <time>2021-05-08T05:13:06Z</time>
      </trkpt>
      <trkpt lat="40.3677180" lon="-3.6701750">
        <ele>584.3</ele>
        <time>2021-05-08T05:13:08Z</time>
      </trkpt>
      <trkpt lat="40.3676590" lon="-3.6702840">
        <ele>584.1</ele>
        <time>2021-05-08T05:13:09Z</time>
      </trkpt>
      <trkpt lat="40.3675970" lon="-3.6704850">
        <ele>583.7</ele>
        <time>2021-05-08T05:13:11Z</time>
      </trkpt>
      <trkpt lat="40.3675860" lon="-3.6707300">
        <ele>583.4</ele>
        <time>2021-05-08T05:13:13Z</time>
      </trkpt>
      <trkpt lat="40.3676070" lon="-3.6709570">
        <ele>583.1</ele>
        <time>2021-05-08T05:13:15Z</time>
      </trkpt>
      <trkpt lat="40.3676160" lon="-3.6711780">
        <ele>582.9</ele>
        <time>2021-05-08T05:13:17Z</time>
      </trkpt>
      <trkpt lat="40.3675860" lon="-3.6713800">
        <ele>582.8</ele>
        <time>2021-05-08T05:13:19Z</time>
      </trkpt>
      <trkpt lat="40.3675220" lon="-3.6715720">
        <ele>582.7</ele>
        <time>2021-05-08T05:13:21Z</time>
      </trkpt>
      <trkpt lat="40.3674870" lon="-3.6716630">
        <ele>582.7</ele>
        <time>2021-05-08T05:13:22Z</time>
      </trkpt>
      <trkpt lat="40.3674190" lon="-3.6718410">
        <ele>582.6</ele>
        <time>2021-05-08T05:13:24Z</time>
      </trkpt>
      <trkpt lat="40.3673840" lon="-3.6719290">
        <ele>582.5</ele>
        <time>2021-05-08T05:13:25Z</time>
      </trkpt>
      <trkpt lat="40.3673050" lon="-3.6720950">
        <ele>582.4</ele>
        <time>2021-05-08T05:13:27Z</time>
      </trkpt>
      <trkpt lat="40.3672080" lon="-3.6722670">
        <ele>582.3</ele>
        <time>2021-05-08T05:13:29Z</time>
      </trkpt>
      <trkpt lat="40.3671680" lon="-3.6723300">
        <ele>582.3</ele>
        <time>2021-05-08T05:13:30Z</time>
      </trkpt>
      <trkpt lat="40.3671300" lon="-3.6724020">
        <ele>582.2</ele>
        <time>2021-05-08T05:13:31Z</time>
      </trkpt>
      <trkpt lat="40.3670750" lon="-3.6725790">
        <ele>582.2</ele>
        <time>2021-05-08T05:13:33Z</time>
      </trkpt>
      <trkpt lat="40.3670510" lon="-3.6726740">
        <ele>582.2</ele>
        <time>2021-05-08T05:13:34Z</time>
      </trkpt>
      <trkpt lat="40.3670000" lon="-3.6728680">
        <ele>582.2</ele>
        <time>2021-05-08T05:13:36Z</time>
      </trkpt>
      <trkpt lat="40.3669400" lon="-3.6730520">
        <ele>582.4</ele>
        <time>2021-05-08T05:13:38Z</time>
      </trkpt>
      <trkpt lat="40.3669110" lon="-3.6731430">
        <ele>582.5</ele>
        <time>2021-05-08T05:13:39Z</time>
      </trkpt>
      <trkpt lat="40.3668540" lon="-3.6733160">
        <ele>582.9</ele>
        <time>2021-05-08T05:13:41Z</time>
      </trkpt>
      <trkpt lat="40.3667960" lon="-3.6734760">
        <ele>583.3</ele>
        <time>2021-05-08T05:13:43Z</time>
      </trkpt>
      <trkpt lat="40.3667950" lon="-3.6735530">
        <ele>583.4</ele>
        <time>2021-05-08T05:13:44Z</time>
      </trkpt>
      <trkpt lat="40.3668700" lon="-3.6736430">
        <ele>583.4</ele>
        <time>2021-05-08T05:13:46Z</time>
      </trkpt>
      <trkpt lat="40.3669780" lon="-3.6737180">
        <ele>583.2</ele>
        <time>2021-05-08T05:13:48Z</time>
      </trkpt>
      <trkpt lat="40.3670870" lon="-3.6738100">
        <ele>582.9</ele>
        <time>2021-05-08T05:13:50Z</time>
      </trkpt>
      <trkpt lat="40.3671980" lon="-3.6738850">
        <ele>582.6</ele>
        <time>2021-05-08T05:13:52Z</time>
      </trkpt>
      <trkpt lat="40.3673060" lon="-3.6739760">
        <ele>582.3</ele>
        <time>2021-05-08T05:13:54Z</time>
      </trkpt>
      <trkpt lat="40.3674170" lon="-3.6740790">
        <ele>582.1</ele>
        <time>2021-05-08T05:13:56Z</time>
      </trkpt>
      <trkpt lat="40.3674740" lon="-3.6741320">
        <ele>582.0</ele>
        <time>2021-05-08T05:13:57Z</time>
      </trkpt>
      <trkpt lat="40.3675350" lon="-3.6741820">
        <ele>581.9</ele>
        <time>2021-05-08T05:13:58Z</time>
      </trkpt>
      <trkpt lat="40.3676560" lon="-3.6742850">
        <ele>581.7</ele>
        <time>2021-05-08T05:14:00Z</time>
      </trkpt>
      <trkpt lat="40.3677710" lon="-3.6743830">
        <ele>581.4</ele>
        <time>2021-05-08T05:14:02Z</time>
      </trkpt>
      <trkpt lat="40.3678850" lon="-3.6744830">
        <ele>581.1</ele>
        <time>2021-05-08T05:14:04Z</time>
      </trkpt>
      <trkpt lat="40.3679390" lon="-3.6745370">
        <ele>581.0</ele>
        <time>2021-05-08T05:14:05Z</time>
      </trkpt>
      <trkpt lat="40.3679960" lon="-3.6745920">
        <ele>580.9</ele>
        <time>2021-05-08T05:14:06Z</time>
      </trkpt>
      <trkpt lat="40.3681100" lon="-3.6747200">
        <ele>580.6</ele>
        <time>2021-05-08T05:14:08Z</time>
      </trkpt>
      <trkpt lat="40.3681690" lon="-3.6747870">
        <ele>580.4</ele>
        <time>2021-05-08T05:14:09Z</time>
      </trkpt>
      <trkpt lat="40.3682280" lon="-3.6748560">
        <ele>580.1</ele>
        <time>2021-05-08T05:14:10Z</time>
      </trkpt>
      <trkpt lat="40.3682860" lon="-3.6749250">
        <ele>580.0</ele>
        <time>2021-05-08T05:14:11Z</time>
      </trkpt>
      <trkpt lat="40.3683950" lon="-3.6750550">
        <ele>579.6</ele>
        <time>2021-05-08T05:14:13Z</time>
      </trkpt>
      <trkpt lat="40.3685090" lon="-3.6751850">
        <ele>579.3</ele>
        <time>2021-05-08T05:14:15Z</time>
      </trkpt>
      <trkpt lat="40.3685670" lon="-3.6752520">
        <ele>579.1</ele>
        <time>2021-05-08T05:14:16Z</time>
      </trkpt>
      <trkpt lat="40.3686830" lon="-3.6753820">
        <ele>578.8</ele>
        <time>2021-05-08T05:14:18Z</time>
      </trkpt>
      <trkpt lat="40.3687930" lon="-3.6755190">
        <ele>578.4</ele>
        <time>2021-05-08T05:14:20Z</time>
      </trkpt>
      <trkpt lat="40.3688520" lon="-3.6755950">
        <ele>578.2</ele>
        <time>2021-05-08T05:14:21Z</time>
      </trkpt>
      <trkpt lat="40.3689050" lon="-3.6756690">
        <ele>578.0</ele>
        <time>2021-05-08T05:14:22Z</time>
      </trkpt>
      <trkpt lat="40.3689590" lon="-3.6757430">
        <ele>577.8</ele>
        <time>2021-05-08T05:14:23Z</time>
      </trkpt>
      <trkpt lat="40.3690400" lon="-3.6759050">
        <ele>577.5</ele>
        <time>2021-05-08T05:14:25Z</time>
      </trkpt>
      <trkpt lat="40.3690980" lon="-3.6760880">
        <ele>577.2</ele>
        <time>2021-05-08T05:14:27Z</time>
      </trkpt>
      <trkpt lat="40.3691460" lon="-3.6761650">
        <ele>577.0</ele>
        <time>2021-05-08T05:14:28Z</time>
      </trkpt>
      <trkpt lat="40.3691960" lon="-3.6762360">
        <ele>576.8</ele>
        <time>2021-05-08T05:14:29Z</time>
      </trkpt>
      <trkpt lat="40.3692870" lon="-3.6763890">
        <ele>576.5</ele>
        <time>2021-05-08T05:14:31Z</time>
      </trkpt>
      <trkpt lat="40.3693640" lon="-3.6765760">
        <ele>576.2</ele>
        <time>2021-05-08T05:14:33Z</time>
      </trkpt>
      <trkpt lat="40.3694070" lon="-3.6767450">
        <ele>576.0</ele>
        <time>2021-05-08T05:14:35Z</time>
      </trkpt>
      <trkpt lat="40.3694230" lon="-3.6768430">
        <ele>575.9</ele>
        <time>2021-05-08T05:14:36Z</time>
      </trkpt>
      <trkpt lat="40.3694290" lon="-3.6770470">
        <ele>575.6</ele>
        <time>2021-05-08T05:14:38Z</time>
      </trkpt>
      <trkpt lat="40.3694300" lon="-3.6772230">
        <ele>575.2</ele>
        <time>2021-05-08T05:14:40Z</time>
      </trkpt>
      <trkpt lat="40.3694230" lon="-3.6773540">
        <ele>574.8</ele>
        <time>2021-05-08T05:14:42Z</time>
      </trkpt>
      <trkpt lat="40.3693990" lon="-3.6774180">
        <ele>574.7</ele>
        <time>2021-05-08T05:14:43Z</time>
      </trkpt>
      <trkpt lat="40.3693500" lon="-3.6775550">
        <ele>574.4</ele>
        <time>2021-05-08T05:14:45Z</time>
      </trkpt>
      <trkpt lat="40.3693170" lon="-3.6777040">
        <ele>574.1</ele>
        <time>2021-05-08T05:14:47Z</time>
      </trkpt>
      <trkpt lat="40.3692980" lon="-3.6780510">
        <ele>573.7</ele>
        <time>2021-05-08T05:14:51Z</time>
      </trkpt>
      <trkpt lat="40.3692930" lon="-3.6781050">
        <ele>573.6</ele>
        <time>2021-05-08T05:14:52Z</time>
      </trkpt>
      <trkpt lat="40.3692690" lon="-3.6781690">
        <ele>573.6</ele>
        <time>2021-05-08T05:14:53Z</time>
      </trkpt>
      <trkpt lat="40.3692250" lon="-3.6782640">
        <ele>573.5</ele>
        <time>2021-05-08T05:14:55Z</time>
      </trkpt>
      <trkpt lat="40.3692190" lon="-3.6784400">
        <ele>573.3</ele>
        <time>2021-05-08T05:14:57Z</time>
      </trkpt>
      <trkpt lat="40.3692250" lon="-3.6785990">
        <ele>573.1</ele>
        <time>2021-05-08T05:14:59Z</time>
      </trkpt>
      <trkpt lat="40.3692100" lon="-3.6787830">
        <ele>572.9</ele>
        <time>2021-05-08T05:15:01Z</time>
      </trkpt>
      <trkpt lat="40.3691880" lon="-3.6788580">
        <ele>572.7</ele>
        <time>2021-05-08T05:15:02Z</time>
      </trkpt>
      <trkpt lat="40.3691670" lon="-3.6789990">
        <ele>572.4</ele>
        <time>2021-05-08T05:15:04Z</time>
      </trkpt>
      <trkpt lat="40.3692170" lon="-3.6792050">
        <ele>572.2</ele>
        <time>2021-05-08T05:15:06Z</time>
      </trkpt>
      <trkpt lat="40.3692550" lon="-3.6793060">
        <ele>572.1</ele>
        <time>2021-05-08T05:15:07Z</time>
      </trkpt>
      <trkpt lat="40.3693030" lon="-3.6793920">
        <ele>572.0</ele>
        <time>2021-05-08T05:15:08Z</time>
      </trkpt>
      <trkpt lat="40.3693610" lon="-3.6794550">
        <ele>571.9</ele>
        <time>2021-05-08T05:15:09Z</time>
      </trkpt>
      <trkpt lat="40.3694840" lon="-3.6795420">
        <ele>571.8</ele>
        <time>2021-05-08T05:15:11Z</time>
      </trkpt>
      <trkpt lat="40.3695430" lon="-3.6795780">
        <ele>571.8</ele>
        <time>2021-05-08T05:15:12Z</time>
      </trkpt>
      <trkpt lat="40.3696700" lon="-3.6796500">
        <ele>571.8</ele>
        <time>2021-05-08T05:15:14Z</time>
      </trkpt>
      <trkpt lat="40.3697220" lon="-3.6796770">
        <ele>571.7</ele>
        <time>2021-05-08T05:15:15Z</time>
      </trkpt>
      <trkpt lat="40.3698460" lon="-3.6797370">
        <ele>571.7</ele>
        <time>2021-05-08T05:15:17Z</time>
      </trkpt>
      <trkpt lat="40.3699080" lon="-3.6797680">
        <ele>571.7</ele>
        <time>2021-05-08T05:15:18Z</time>
      </trkpt>
      <trkpt lat="40.3700330" lon="-3.6798260">
        <ele>571.7</ele>
        <time>2021-05-08T05:15:20Z</time>
      </trkpt>
      <trkpt lat="40.3701600" lon="-3.6798780">
        <ele>571.7</ele>
        <time>2021-05-08T05:15:22Z</time>
      </trkpt>
      <trkpt lat="40.3702240" lon="-3.6799030">
        <ele>571.8</ele>
        <time>2021-05-08T05:15:23Z</time>
      </trkpt>
      <trkpt lat="40.3702870" lon="-3.6799300">
        <ele>571.8</ele>
        <time>2021-05-08T05:15:24Z</time>
      </trkpt>
      <trkpt lat="40.3704120" lon="-3.6799800">
        <ele>571.8</ele>
        <time>2021-05-08T05:15:26Z</time>
      </trkpt>
      <trkpt lat="40.3705310" lon="-3.6800270">
        <ele>571.9</ele>
        <time>2021-05-08T05:15:28Z</time>
      </trkpt>
      <trkpt lat="40.3706530" lon="-3.6800770">
        <ele>572.0</ele>
        <time>2021-05-08T05:15:30Z</time>
      </trkpt>
      <trkpt lat="40.3707750" lon="-3.6801240">
        <ele>572.1</ele>
        <time>2021-05-08T05:15:32Z</time>
      </trkpt>
      <trkpt lat="40.3708340" lon="-3.6801510">
        <ele>572.2</ele>
        <time>2021-05-08T05:15:33Z</time>
      </trkpt>
      <trkpt lat="40.3708960" lon="-3.6801840">
        <ele>572.3</ele>
        <time>2021-05-08T05:15:34Z</time>
      </trkpt>
      <trkpt lat="40.3709920" lon="-3.6802320">
        <ele>572.4</ele>
        <time>2021-05-08T05:15:36Z</time>
      </trkpt>
      <trkpt lat="40.3710300" lon="-3.6803120">
        <ele>572.5</ele>
        <time>2021-05-08T05:15:38Z</time>
      </trkpt>
      <trkpt lat="40.3710270" lon="-3.6803880">
        <ele>572.6</ele>
        <time>2021-05-08T05:15:39Z</time>
      </trkpt>
      <trkpt lat="40.3710070" lon="-3.6804870">
        <ele>572.6</ele>
        <time>2021-05-08T05:15:41Z</time>
      </trkpt>
      <trkpt lat="40.3709940" lon="-3.6805980">
        <ele>572.5</ele>
        <time>2021-05-08T05:15:43Z</time>
      </trkpt>
      <trkpt lat="40.3710190" lon="-3.6806730">
        <ele>572.5</ele>
        <time>2021-05-08T05:15:45Z</time>
      </trkpt>
      <trkpt lat="40.3711270" lon="-3.6807080">
        <ele>572.4</ele>
        <time>2021-05-08T05:15:47Z</time>
      </trkpt>
      <trkpt lat="40.3711690" lon="-3.6807190">
        <ele>572.3</ele>
        <time>2021-05-08T05:15:48Z</time>
      </trkpt>
      <trkpt lat="40.3712600" lon="-3.6807490">
        <ele>572.2</ele>
        <time>2021-05-08T05:15:50Z</time>
      </trkpt>
      <trkpt lat="40.3713110" lon="-3.6807660">
        <ele>572.2</ele>
        <time>2021-05-08T05:15:51Z</time>
      </trkpt>
      <trkpt lat="40.3713630" lon="-3.6807820">
        <ele>572.2</ele>
        <time>2021-05-08T05:15:52Z</time>
      </trkpt>
      <trkpt lat="40.3714590" lon="-3.6808190">
        <ele>572.2</ele>
        <time>2021-05-08T05:15:54Z</time>
      </trkpt>
      <trkpt lat="40.3715620" lon="-3.6808570">
        <ele>572.2</ele>
        <time>2021-05-08T05:15:56Z</time>
      </trkpt>
      <trkpt lat="40.3716630" lon="-3.6808980">
        <ele>572.2</ele>
        <time>2021-05-08T05:15:58Z</time>
      </trkpt>
      <trkpt lat="40.3717660" lon="-3.6809350">
        <ele>572.2</ele>
        <time>2021-05-08T05:16:00Z</time>
      </trkpt>
      <trkpt lat="40.3718750" lon="-3.6809730">
        <ele>572.2</ele>
        <time>2021-05-08T05:16:02Z</time>
      </trkpt>
      <trkpt lat="40.3719780" lon="-3.6810130">
        <ele>572.2</ele>
        <time>2021-05-08T05:16:04Z</time>
      </trkpt>
      <trkpt lat="40.3720890" lon="-3.6810540">
        <ele>572.2</ele>
        <time>2021-05-08T05:16:06Z</time>
      </trkpt>
      <trkpt lat="40.3721460" lon="-3.6810750">
        <ele>572.2</ele>
        <time>2021-05-08T05:16:07Z</time>
      </trkpt>
      <trkpt lat="40.3722030" lon="-3.6810940">
        <ele>572.2</ele>
        <time>2021-05-08T05:16:08Z</time>
      </trkpt>
      <trkpt lat="40.3723120" lon="-3.6811290">
        <ele>572.3</ele>
        <time>2021-05-08T05:16:10Z</time>
      </trkpt>
      <trkpt lat="40.3724180" lon="-3.6811690">
        <ele>572.4</ele>
        <time>2021-05-08T05:16:12Z</time>
      </trkpt>
      <trkpt lat="40.3724720" lon="-3.6811910">
        <ele>572.5</ele>
        <time>2021-05-08T05:16:13Z</time>
      </trkpt>
      <trkpt lat="40.3725440" lon="-3.6812270">
        <ele>572.6</ele>
        <time>2021-05-08T05:16:15Z</time>
      </trkpt>
      <trkpt lat="40.3726210" lon="-3.6812640">
        <ele>572.6</ele>
        <time>2021-05-08T05:16:16Z</time>
      </trkpt>
      <trkpt lat="40.3727140" lon="-3.6813280">
        <ele>572.7</ele>
        <time>2021-05-08T05:16:18Z</time>
      </trkpt>
      <trkpt lat="40.3727610" lon="-3.6813650">
        <ele>572.8</ele>
        <time>2021-05-08T05:16:19Z</time>
      </trkpt>
      <trkpt lat="40.3728040" lon="-3.6814030">
        <ele>572.8</ele>
        <time>2021-05-08T05:16:20Z</time>
      </trkpt>
      <trkpt lat="40.3728880" lon="-3.6814880">
        <ele>572.9</ele>
        <time>2021-05-08T05:16:22Z</time>
      </trkpt>
      <trkpt lat="40.3729750" lon="-3.6815920">
        <ele>572.9</ele>
        <time>2021-05-08T05:16:24Z</time>
      </trkpt>
      <trkpt lat="40.3730190" lon="-3.6816440">
        <ele>572.9</ele>
        <time>2021-05-08T05:16:25Z</time>
      </trkpt>
      <trkpt lat="40.3730620" lon="-3.6816960">
        <ele>572.9</ele>
        <time>2021-05-08T05:16:26Z</time>
      </trkpt>
      <trkpt lat="40.3731510" lon="-3.6817950">
        <ele>572.9</ele>
        <time>2021-05-08T05:16:28Z</time>
      </trkpt>
      <trkpt lat="40.3731950" lon="-3.6818400">
        <ele>572.9</ele>
        <time>2021-05-08T05:16:29Z</time>
      </trkpt>
      <trkpt lat="40.3732410" lon="-3.6818820">
        <ele>572.9</ele>
        <time>2021-05-08T05:16:30Z</time>
      </trkpt>
      <trkpt lat="40.3733360" lon="-3.6819630">
        <ele>572.9</ele>
        <time>2021-05-08T05:16:32Z</time>
      </trkpt>
      <trkpt lat="40.3733830" lon="-3.6820040">
        <ele>572.9</ele>
        <time>2021-05-08T05:16:33Z</time>
      </trkpt>
      <trkpt lat="40.3734780" lon="-3.6820990">
        <ele>573.0</ele>
        <time>2021-05-08T05:16:35Z</time>
      </trkpt>
      <trkpt lat="40.3735510" lon="-3.6822260">
        <ele>573.1</ele>
        <time>2021-05-08T05:16:37Z</time>
      </trkpt>
      <trkpt lat="40.3736180" lon="-3.6823670">
        <ele>573.2</ele>
        <time>2021-05-08T05:16:39Z</time>
      </trkpt>
      <trkpt lat="40.3736720" lon="-3.6824960">
        <ele>573.3</ele>
        <time>2021-05-08T05:16:41Z</time>
      </trkpt>
      <trkpt lat="40.3737000" lon="-3.6825650">
        <ele>573.3</ele>
        <time>2021-05-08T05:16:42Z</time>
      </trkpt>
      <trkpt lat="40.3737330" lon="-3.6826270">
        <ele>573.3</ele>
        <time>2021-05-08T05:16:43Z</time>
      </trkpt>
      <trkpt lat="40.3738210" lon="-3.6827000">
        <ele>573.3</ele>
        <time>2021-05-08T05:16:45Z</time>
      </trkpt>
      <trkpt lat="40.3738960" lon="-3.6827640">
        <ele>573.2</ele>
        <time>2021-05-08T05:16:47Z</time>
      </trkpt>
      <trkpt lat="40.3739520" lon="-3.6828560">
        <ele>573.1</ele>
        <time>2021-05-08T05:16:49Z</time>
      </trkpt>
      <trkpt lat="40.3740160" lon="-3.6829560">
        <ele>573.1</ele>
        <time>2021-05-08T05:16:51Z</time>
      </trkpt>
      <trkpt lat="40.3741020" lon="-3.6830300">
        <ele>573.1</ele>
        <time>2021-05-08T05:16:53Z</time>
      </trkpt>
      <trkpt lat="40.3741970" lon="-3.6830890">
        <ele>573.1</ele>
        <time>2021-05-08T05:16:55Z</time>
      </trkpt>
      <trkpt lat="40.3742800" lon="-3.6831830">
        <ele>573.1</ele>
        <time>2021-05-08T05:16:57Z</time>
      </trkpt>
      <trkpt lat="40.3743090" lon="-3.6832510">
        <ele>573.1</ele>
        <time>2021-05-08T05:16:58Z</time>
      </trkpt>
      <trkpt lat="40.3743210" lon="-3.6833940">
        <ele>573.0</ele>
        <time>2021-05-08T05:17:00Z</time>
      </trkpt>
      <trkpt lat="40.3742720" lon="-3.6835110">
        <ele>572.9</ele>
        <time>2021-05-08T05:17:02Z</time>
      </trkpt>
      <trkpt lat="40.3741800" lon="-3.6836060">
        <ele>572.8</ele>
        <time>2021-05-08T05:17:04Z</time>
      </trkpt>
      <trkpt lat="40.3741380" lon="-3.6836540">
        <ele>572.8</ele>
        <time>2021-05-08T05:17:05Z</time>
      </trkpt>
      <trkpt lat="40.3740860" lon="-3.6837670">
        <ele>572.6</ele>
        <time>2021-05-08T05:17:07Z</time>
      </trkpt>
      <trkpt lat="40.3740850" lon="-3.6838300">
        <ele>572.5</ele>
        <time>2021-05-08T05:17:08Z</time>
      </trkpt>
      <trkpt lat="40.3740760" lon="-3.6839560">
        <ele>572.4</ele>
        <time>2021-05-08T05:17:10Z</time>
      </trkpt>
      <trkpt lat="40.3740640" lon="-3.6840250">
        <ele>572.3</ele>
        <time>2021-05-08T05:17:11Z</time>
      </trkpt>
      <trkpt lat="40.3740580" lon="-3.6841720">
        <ele>572.1</ele>
        <time>2021-05-08T05:17:13Z</time>
      </trkpt>
      <trkpt lat="40.3740550" lon="-3.6842550">
        <ele>572.1</ele>
        <time>2021-05-08T05:17:15Z</time>
      </trkpt>
      <trkpt lat="40.3740540" lon="-3.6844100">
        <ele>572.0</ele>
        <time>2021-05-08T05:17:16Z</time>
      </trkpt>
      <trkpt lat="40.3740520" lon="-3.6845550">
        <ele>571.9</ele>
        <time>2021-05-08T05:17:18Z</time>
      </trkpt>
      <trkpt lat="40.3740470" lon="-3.6846210">
        <ele>571.8</ele>
        <time>2021-05-08T05:17:19Z</time>
      </trkpt>
      <trkpt lat="40.3740360" lon="-3.6847590">
        <ele>571.8</ele>
        <time>2021-05-08T05:17:21Z</time>
      </trkpt>
      <trkpt lat="40.3740260" lon="-3.6848240">
        <ele>571.7</ele>
        <time>2021-05-08T05:17:22Z</time>
      </trkpt>
      <trkpt lat="40.3740160" lon="-3.6849590">
        <ele>571.6</ele>
        <time>2021-05-08T05:17:24Z</time>
      </trkpt>
      <trkpt lat="40.3740150" lon="-3.6850210">
        <ele>571.6</ele>
        <time>2021-05-08T05:17:25Z</time>
      </trkpt>
      <trkpt lat="40.3740100" lon="-3.6851540">
        <ele>571.5</ele>
        <time>2021-05-08T05:17:27Z</time>
      </trkpt>
      <trkpt lat="40.3740120" lon="-3.6852940">
        <ele>571.4</ele>
        <time>2021-05-08T05:17:29Z</time>
      </trkpt>
      <trkpt lat="40.3740090" lon="-3.6853640">
        <ele>571.3</ele>
        <time>2021-05-08T05:17:30Z</time>
      </trkpt>
      <trkpt lat="40.3740060" lon="-3.6854950">
        <ele>571.2</ele>
        <time>2021-05-08T05:17:32Z</time>
      </trkpt>
      <trkpt lat="40.3739970" lon="-3.6856130">
        <ele>571.1</ele>
        <time>2021-05-08T05:17:34Z</time>
      </trkpt>
      <trkpt lat="40.3739820" lon="-3.6857520">
        <ele>571.0</ele>
        <time>2021-05-08T05:17:36Z</time>
      </trkpt>
      <trkpt lat="40.3739650" lon="-3.6858920">
        <ele>570.9</ele>
        <time>2021-05-08T05:17:38Z</time>
      </trkpt>
      <trkpt lat="40.3739580" lon="-3.6859650">
        <ele>570.8</ele>
        <time>2021-05-08T05:17:39Z</time>
      </trkpt>
      <trkpt lat="40.3739420" lon="-3.6861080">
        <ele>570.7</ele>
        <time>2021-05-08T05:17:41Z</time>
      </trkpt>
      <trkpt lat="40.3739380" lon="-3.6861720">
        <ele>570.6</ele>
        <time>2021-05-08T05:17:42Z</time>
      </trkpt>
      <trkpt lat="40.3739180" lon="-3.6862820">
        <ele>570.5</ele>
        <time>2021-05-08T05:17:44Z</time>
      </trkpt>
      <trkpt lat="40.3738780" lon="-3.6863970">
        <ele>570.4</ele>
        <time>2021-05-08T05:17:46Z</time>
      </trkpt>
      <trkpt lat="40.3738620" lon="-3.6864550">
        <ele>570.6</ele>
        <time>2021-05-08T05:17:47Z</time>
      </trkpt>
      <trkpt lat="40.3738880" lon="-3.6865730">
        <ele>570.5</ele>
        <time>2021-05-08T05:17:49Z</time>
      </trkpt>
      <trkpt lat="40.3739250" lon="-3.6866200">
        <ele>570.6</ele>
        <time>2021-05-08T05:17:50Z</time>
      </trkpt>
      <trkpt lat="40.3739600" lon="-3.6867450">
        <ele>570.6</ele>
        <time>2021-05-08T05:17:52Z</time>
      </trkpt>
      <trkpt lat="40.3739590" lon="-3.6868570">
        <ele>570.7</ele>
        <time>2021-05-08T05:17:54Z</time>
      </trkpt>
      <trkpt lat="40.3739550" lon="-3.6869270">
        <ele>570.8</ele>
        <time>2021-05-08T05:17:55Z</time>
      </trkpt>
      <trkpt lat="40.3739420" lon="-3.6870750">
        <ele>570.9</ele>
        <time>2021-05-08T05:17:57Z</time>
      </trkpt>
      <trkpt lat="40.3739280" lon="-3.6872230">
        <ele>571.0</ele>
        <time>2021-05-08T05:17:59Z</time>
      </trkpt>
      <trkpt lat="40.3739240" lon="-3.6872970">
        <ele>571.0</ele>
        <time>2021-05-08T05:18:00Z</time>
      </trkpt>
      <trkpt lat="40.3739190" lon="-3.6874470">
        <ele>571.0</ele>
        <time>2021-05-08T05:18:02Z</time>
      </trkpt>
      <trkpt lat="40.3739090" lon="-3.6875220">
        <ele>570.9</ele>
        <time>2021-05-08T05:18:03Z</time>
      </trkpt>
      <trkpt lat="40.3738860" lon="-3.6876870">
        <ele>571.1</ele>
        <time>2021-05-08T05:18:05Z</time>
      </trkpt>
      <trkpt lat="40.3738830" lon="-3.6878490">
        <ele>571.6</ele>
        <time>2021-05-08T05:18:07Z</time>
      </trkpt>
      <trkpt lat="40.3738850" lon="-3.6879210">
        <ele>571.9</ele>
        <time>2021-05-08T05:18:08Z</time>
      </trkpt>
      <trkpt lat="40.3738820" lon="-3.6880480">
        <ele>572.4</ele>
        <time>2021-05-08T05:18:10Z</time>
      </trkpt>
      <trkpt lat="40.3738850" lon="-3.6881110">
        <ele>572.7</ele>
        <time>2021-05-08T05:18:12Z</time>
      </trkpt>
      <trkpt lat="40.3738850" lon="-3.6882110">
        <ele>573.2</ele>
        <time>2021-05-08T05:18:13Z</time>
      </trkpt>
      <trkpt lat="40.3738750" lon="-3.6883220">
        <ele>573.8</ele>
        <time>2021-05-08T05:18:15Z</time>
      </trkpt>
      <trkpt lat="40.3738630" lon="-3.6883900">
        <ele>574.2</ele>
        <time>2021-05-08T05:18:17Z</time>
      </trkpt>
      <trkpt lat="40.3738570" lon="-3.6884330">
        <ele>574.4</ele>
        <time>2021-05-08T05:18:18Z</time>
      </trkpt>
      <trkpt lat="40.3738500" lon="-3.6885030">
        <ele>574.8</ele>
        <time>2021-05-08T05:18:19Z</time>
      </trkpt>
      <trkpt lat="40.3738460" lon="-3.6885710">
        <ele>575.1</ele>
        <time>2021-05-08T05:18:21Z</time>
      </trkpt>
      <trkpt lat="40.3738450" lon="-3.6886150">
        <ele>575.3</ele>
        <time>2021-05-08T05:18:22Z</time>
      </trkpt>
      <trkpt lat="40.3738450" lon="-3.6887010">
        <ele>575.7</ele>
        <time>2021-05-08T05:18:24Z</time>
      </trkpt>
      <trkpt lat="40.3738530" lon="-3.6887560">
        <ele>575.9</ele>
        <time>2021-05-08T05:18:25Z</time>
      </trkpt>
      <trkpt lat="40.3738710" lon="-3.6887950">
        <ele>575.9</ele>
        <time>2021-05-08T05:18:26Z</time>
      </trkpt>
      <trkpt lat="40.3739240" lon="-3.6888180">
        <ele>575.9</ele>
        <time>2021-05-08T05:18:27Z</time>
      </trkpt>
      <trkpt lat="40.3739940" lon="-3.6888370">
        <ele>575.9</ele>
        <time>2021-05-08T05:18:29Z</time>
      </trkpt>
      <trkpt lat="40.3740580" lon="-3.6888510">
        <ele>575.8</ele>
        <time>2021-05-08T05:18:30Z</time>
      </trkpt>
      <trkpt lat="40.3741570" lon="-3.6888720">
        <ele>575.8</ele>
        <time>2021-05-08T05:18:32Z</time>
      </trkpt>
      <trkpt lat="40.3742230" lon="-3.6888880">
        <ele>575.9</ele>
        <time>2021-05-08T05:18:34Z</time>
      </trkpt>
      <trkpt lat="40.3742980" lon="-3.6889040">
        <ele>576.0</ele>
        <time>2021-05-08T05:18:35Z</time>
      </trkpt>
      <trkpt lat="40.3743890" lon="-3.6889230">
        <ele>576.1</ele>
        <time>2021-05-08T05:18:37Z</time>
      </trkpt>
      <trkpt lat="40.3744350" lon="-3.6889290">
        <ele>576.1</ele>
        <time>2021-05-08T05:18:38Z</time>
      </trkpt>
      <trkpt lat="40.3744790" lon="-3.6889370">
        <ele>576.2</ele>
        <time>2021-05-08T05:18:39Z</time>
      </trkpt>
      <trkpt lat="40.3745670" lon="-3.6889500">
        <ele>576.3</ele>
        <time>2021-05-08T05:18:41Z</time>
      </trkpt>
      <trkpt lat="40.3746580" lon="-3.6889760">
        <ele>576.4</ele>
        <time>2021-05-08T05:18:43Z</time>
      </trkpt>
      <trkpt lat="40.3747060" lon="-3.6889890">
        <ele>576.4</ele>
        <time>2021-05-08T05:18:44Z</time>
      </trkpt>
      <trkpt lat="40.3748020" lon="-3.6890100">
        <ele>576.5</ele>
        <time>2021-05-08T05:18:46Z</time>
      </trkpt>
      <trkpt lat="40.3748970" lon="-3.6890300">
        <ele>576.5</ele>
        <time>2021-05-08T05:18:48Z</time>
      </trkpt>
      <trkpt lat="40.3749430" lon="-3.6890400">
        <ele>576.6</ele>
        <time>2021-05-08T05:18:49Z</time>
      </trkpt>
      <trkpt lat="40.3750330" lon="-3.6890530">
        <ele>576.6</ele>
        <time>2021-05-08T05:18:51Z</time>
      </trkpt>
      <trkpt lat="40.3751240" lon="-3.6890620">
        <ele>576.6</ele>
        <time>2021-05-08T05:18:53Z</time>
      </trkpt>
      <trkpt lat="40.3752270" lon="-3.6890800">
        <ele>576.6</ele>
        <time>2021-05-08T05:18:55Z</time>
      </trkpt>
      <trkpt lat="40.3752750" lon="-3.6890900">
        <ele>576.7</ele>
        <time>2021-05-08T05:18:56Z</time>
      </trkpt>
      <trkpt lat="40.3753760" lon="-3.6891140">
        <ele>576.7</ele>
        <time>2021-05-08T05:18:58Z</time>
      </trkpt>
      <trkpt lat="40.3754240" lon="-3.6891250">
        <ele>576.7</ele>
        <time>2021-05-08T05:18:59Z</time>
      </trkpt>
      <trkpt lat="40.3755250" lon="-3.6891500">
        <ele>576.7</ele>
        <time>2021-05-08T05:19:01Z</time>
      </trkpt>
      <trkpt lat="40.3756370" lon="-3.6891740">
        <ele>576.7</ele>
        <time>2021-05-08T05:19:03Z</time>
      </trkpt>
      <trkpt lat="40.3757510" lon="-3.6892010">
        <ele>576.8</ele>
        <time>2021-05-08T05:19:05Z</time>
      </trkpt>
      <trkpt lat="40.3758680" lon="-3.6892320">
        <ele>576.8</ele>
        <time>2021-05-08T05:19:07Z</time>
      </trkpt>
      <trkpt lat="40.3759810" lon="-3.6892550">
        <ele>576.9</ele>
        <time>2021-05-08T05:19:09Z</time>
      </trkpt>
      <trkpt lat="40.3761010" lon="-3.6892760">
        <ele>576.9</ele>
        <time>2021-05-08T05:19:11Z</time>
      </trkpt>
      <trkpt lat="40.3762040" lon="-3.6892970">
        <ele>576.9</ele>
        <time>2021-05-08T05:19:13Z</time>
      </trkpt>
      <trkpt lat="40.3762590" lon="-3.6893100">
        <ele>576.9</ele>
        <time>2021-05-08T05:19:14Z</time>
      </trkpt>
      <trkpt lat="40.3763160" lon="-3.6893240">
        <ele>576.9</ele>
        <time>2021-05-08T05:19:15Z</time>
      </trkpt>
      <trkpt lat="40.3764230" lon="-3.6893490">
        <ele>576.8</ele>
        <time>2021-05-08T05:19:17Z</time>
      </trkpt>
      <trkpt lat="40.3764780" lon="-3.6893630">
        <ele>576.8</ele>
        <time>2021-05-08T05:19:18Z</time>
      </trkpt>
      <trkpt lat="40.3765860" lon="-3.6893810">
        <ele>576.8</ele>
        <time>2021-05-08T05:19:20Z</time>
      </trkpt>
      <trkpt lat="40.3766420" lon="-3.6893900">
        <ele>576.8</ele>
        <time>2021-05-08T05:19:21Z</time>
      </trkpt>
      <trkpt lat="40.3767480" lon="-3.6894130">
        <ele>576.8</ele>
        <time>2021-05-08T05:19:23Z</time>
      </trkpt>
      <trkpt lat="40.3767990" lon="-3.6894320">
        <ele>576.8</ele>
        <time>2021-05-08T05:19:24Z</time>
      </trkpt>
      <trkpt lat="40.3769030" lon="-3.6894720">
        <ele>576.8</ele>
        <time>2021-05-08T05:19:26Z</time>
      </trkpt>
      <trkpt lat="40.3769560" lon="-3.6894910">
        <ele>576.9</ele>
        <time>2021-05-08T05:19:27Z</time>
      </trkpt>
      <trkpt lat="40.3770070" lon="-3.6895060">
        <ele>576.9</ele>
        <time>2021-05-08T05:19:28Z</time>
      </trkpt>
      <trkpt lat="40.3770570" lon="-3.6895200">
        <ele>576.9</ele>
        <time>2021-05-08T05:19:29Z</time>
      </trkpt>
      <trkpt lat="40.3771620" lon="-3.6895520">
        <ele>576.9</ele>
        <time>2021-05-08T05:19:31Z</time>
      </trkpt>
      <trkpt lat="40.3772150" lon="-3.6895700">
        <ele>576.9</ele>
        <time>2021-05-08T05:19:32Z</time>
      </trkpt>
      <trkpt lat="40.3773210" lon="-3.6896040">
        <ele>576.9</ele>
        <time>2021-05-08T05:19:34Z</time>
      </trkpt>
      <trkpt lat="40.3774240" lon="-3.6896390">
        <ele>576.9</ele>
        <time>2021-05-08T05:19:36Z</time>
      </trkpt>
      <trkpt lat="40.3774740" lon="-3.6896550">
        <ele>576.9</ele>
        <time>2021-05-08T05:19:37Z</time>
      </trkpt>
      <trkpt lat="40.3775230" lon="-3.6896680">
        <ele>576.9</ele>
        <time>2021-05-08T05:19:38Z</time>
      </trkpt>
      <trkpt lat="40.3776180" lon="-3.6897030">
        <ele>576.9</ele>
        <time>2021-05-08T05:19:40Z</time>
      </trkpt>
      <trkpt lat="40.3776960" lon="-3.6897480">
        <ele>576.9</ele>
        <time>2021-05-08T05:19:42Z</time>
      </trkpt>
      <trkpt lat="40.3777100" lon="-3.6897890">
        <ele>576.9</ele>
        <time>2021-05-08T05:19:43Z</time>
      </trkpt>
      <trkpt lat="40.3777160" lon="-3.6898540">
        <ele>576.7</ele>
        <time>2021-05-08T05:19:45Z</time>
      </trkpt>
      <trkpt lat="40.3777190" lon="-3.6898500">
        <ele>576.7</ele>
        <time>2021-05-08T05:19:47Z</time>
      </trkpt>
      <trkpt lat="40.3777210" lon="-3.6898680">
        <ele>576.7</ele>
        <time>2021-05-08T05:19:48Z</time>
      </trkpt>
      <trkpt lat="40.3777220" lon="-3.6899000">
        <ele>576.6</ele>
        <time>2021-05-08T05:19:49Z</time>
      </trkpt>
      <trkpt lat="40.3777160" lon="-3.6899540">
        <ele>576.5</ele>
        <time>2021-05-08T05:19:51Z</time>
      </trkpt>
      <trkpt lat="40.3777250" lon="-3.6900160">
        <ele>576.3</ele>
        <time>2021-05-08T05:19:52Z</time>
      </trkpt>
      <trkpt lat="40.3777280" lon="-3.6901940">
        <ele>576.0</ele>
        <time>2021-05-08T05:19:54Z</time>
      </trkpt>
      <trkpt lat="40.3777270" lon="-3.6903680">
        <ele>576.1</ele>
        <time>2021-05-08T05:19:56Z</time>
      </trkpt>
      <trkpt lat="40.3777240" lon="-3.6904390">
        <ele>576.2</ele>
        <time>2021-05-08T05:19:57Z</time>
      </trkpt>
      <trkpt lat="40.3777190" lon="-3.6905630">
        <ele>576.2</ele>
        <time>2021-05-08T05:19:59Z</time>
      </trkpt>
      <trkpt lat="40.3777060" lon="-3.6906190">
        <ele>576.3</ele>
        <time>2021-05-08T05:20:00Z</time>
      </trkpt>
      <trkpt lat="40.3776250" lon="-3.6907230">
        <ele>576.4</ele>
        <time>2021-05-08T05:20:02Z</time>
      </trkpt>
      <trkpt lat="40.3775090" lon="-3.6907970">
        <ele>576.5</ele>
        <time>2021-05-08T05:20:04Z</time>
      </trkpt>
      <trkpt lat="40.3773930" lon="-3.6908660">
        <ele>576.7</ele>
        <time>2021-05-08T05:20:06Z</time>
      </trkpt>
      <trkpt lat="40.3772830" lon="-3.6909280">
        <ele>576.8</ele>
        <time>2021-05-08T05:20:08Z</time>
      </trkpt>
      <trkpt lat="40.3771850" lon="-3.6909960">
        <ele>576.9</ele>
        <time>2021-05-08T05:20:10Z</time>
      </trkpt>
      <trkpt lat="40.3771360" lon="-3.6910310">
        <ele>577.0</ele>
        <time>2021-05-08T05:20:11Z</time>
      </trkpt>
      <trkpt lat="40.3770360" lon="-3.6911050">
        <ele>577.1</ele>
        <time>2021-05-08T05:20:13Z</time>
      </trkpt>
      <trkpt lat="40.3769830" lon="-3.6911430">
        <ele>577.2</ele>
        <time>2021-05-08T05:20:14Z</time>
      </trkpt>
      <trkpt lat="40.3769350" lon="-3.6911750">
        <ele>577.2</ele>
        <time>2021-05-08T05:20:15Z</time>
      </trkpt>
      <trkpt lat="40.3768740" lon="-3.6912050">
        <ele>577.3</ele>
        <time>2021-05-08T05:20:16Z</time>
      </trkpt>
      <trkpt lat="40.3767560" lon="-3.6912820">
        <ele>577.5</ele>
        <time>2021-05-08T05:20:18Z</time>
      </trkpt>
      <trkpt lat="40.3766420" lon="-3.6913580">
        <ele>577.6</ele>
        <time>2021-05-08T05:20:20Z</time>
      </trkpt>
      <trkpt lat="40.3765930" lon="-3.6913950">
        <ele>577.7</ele>
        <time>2021-05-08T05:20:21Z</time>
      </trkpt>
      <trkpt lat="40.3765450" lon="-3.6914330">
        <ele>577.8</ele>
        <time>2021-05-08T05:20:22Z</time>
      </trkpt>
      <trkpt lat="40.3764550" lon="-3.6915070">
        <ele>577.9</ele>
        <time>2021-05-08T05:20:24Z</time>
      </trkpt>
      <trkpt lat="40.3763590" lon="-3.6915800">
        <ele>578.0</ele>
        <time>2021-05-08T05:20:26Z</time>
      </trkpt>
      <trkpt lat="40.3763090" lon="-3.6916160">
        <ele>578.1</ele>
        <time>2021-05-08T05:20:27Z</time>
      </trkpt>
      <trkpt lat="40.3762590" lon="-3.6916500">
        <ele>578.1</ele>
        <time>2021-05-08T05:20:28Z</time>
      </trkpt>
      <trkpt lat="40.3762100" lon="-3.6916830">
        <ele>578.2</ele>
        <time>2021-05-08T05:20:29Z</time>
      </trkpt>
      <trkpt lat="40.3761590" lon="-3.6917150">
        <ele>578.3</ele>
        <time>2021-05-08T05:20:30Z</time>
      </trkpt>
      <trkpt lat="40.3760610" lon="-3.6917760">
        <ele>578.4</ele>
        <time>2021-05-08T05:20:32Z</time>
      </trkpt>
      <trkpt lat="40.3759670" lon="-3.6918360">
        <ele>578.6</ele>
        <time>2021-05-08T05:20:34Z</time>
      </trkpt>
      <trkpt lat="40.3759260" lon="-3.6918640">
        <ele>578.7</ele>
        <time>2021-05-08T05:20:35Z</time>
      </trkpt>
      <trkpt lat="40.3758320" lon="-3.6919230">
        <ele>578.9</ele>
        <time>2021-05-08T05:20:37Z</time>
      </trkpt>
      <trkpt lat="40.3757850" lon="-3.6919520">
        <ele>578.9</ele>
        <time>2021-05-08T05:20:38Z</time>
      </trkpt>
      <trkpt lat="40.3757230" lon="-3.6920040">
        <ele>579.1</ele>
        <time>2021-05-08T05:20:40Z</time>
      </trkpt>
      <trkpt lat="40.3756860" lon="-3.6920930">
        <ele>579.2</ele>
        <time>2021-05-08T05:20:42Z</time>
      </trkpt>
      <trkpt lat="40.3756920" lon="-3.6922310">
        <ele>579.3</ele>
        <time>2021-05-08T05:20:44Z</time>
      </trkpt>
      <trkpt lat="40.3757170" lon="-3.6922940">
        <ele>579.4</ele>
        <time>2021-05-08T05:20:45Z</time>
      </trkpt>
      <trkpt lat="40.3757770" lon="-3.6924160">
        <ele>579.6</ele>
        <time>2021-05-08T05:20:47Z</time>
      </trkpt>
      <trkpt lat="40.3757980" lon="-3.6924770">
        <ele>579.6</ele>
        <time>2021-05-08T05:20:48Z</time>
      </trkpt>
      <trkpt lat="40.3758190" lon="-3.6925520">
        <ele>579.7</ele>
        <time>2021-05-08T05:20:49Z</time>
      </trkpt>
      <trkpt lat="40.3758310" lon="-3.6925630">
        <ele>579.7</ele>
        <time>2021-05-08T05:20:51Z</time>
      </trkpt>
      <trkpt lat="40.3758270" lon="-3.6925890">
        <ele>579.7</ele>
        <time>2021-05-08T05:20:52Z</time>
      </trkpt>
      <trkpt lat="40.3758300" lon="-3.6926390">
        <ele>579.8</ele>
        <time>2021-05-08T05:20:53Z</time>
      </trkpt>
      <trkpt lat="40.3758300" lon="-3.6926600">
        <ele>579.8</ele>
        <time>2021-05-08T05:20:54Z</time>
      </trkpt>
      <trkpt lat="40.3758420" lon="-3.6927440">
        <ele>579.9</ele>
        <time>2021-05-08T05:20:56Z</time>
      </trkpt>
      <trkpt lat="40.3758750" lon="-3.6928140">
        <ele>580.1</ele>
        <time>2021-05-08T05:20:57Z</time>
      </trkpt>
      <trkpt lat="40.3758970" lon="-3.6928690">
        <ele>580.2</ele>
        <time>2021-05-08T05:20:59Z</time>
      </trkpt>
      <trkpt lat="40.3759110" lon="-3.6929140">
        <ele>580.3</ele>
        <time>2021-05-08T05:21:00Z</time>
      </trkpt>
      <trkpt lat="40.3759370" lon="-3.6930120">
        <ele>580.5</ele>
        <time>2021-05-08T05:21:02Z</time>
      </trkpt>
      <trkpt lat="40.3759480" lon="-3.6930600">
        <ele>580.6</ele>
        <time>2021-05-08T05:21:03Z</time>
      </trkpt>
      <trkpt lat="40.3759640" lon="-3.6931580">
        <ele>580.8</ele>
        <time>2021-05-08T05:21:05Z</time>
      </trkpt>
      <trkpt lat="40.3759930" lon="-3.6932610">
        <ele>581.1</ele>
        <time>2021-05-08T05:21:07Z</time>
      </trkpt>
      <trkpt lat="40.3760330" lon="-3.6933590">
        <ele>581.6</ele>
        <time>2021-05-08T05:21:09Z</time>
      </trkpt>
      <trkpt lat="40.3760520" lon="-3.6933960">
        <ele>581.8</ele>
        <time>2021-05-08T05:21:10Z</time>
      </trkpt>
      <trkpt lat="40.3760630" lon="-3.6934270">
        <ele>581.9</ele>
        <time>2021-05-08T05:21:11Z</time>
      </trkpt>
      <trkpt lat="40.3760830" lon="-3.6934820">
        <ele>582.2</ele>
        <time>2021-05-08T05:21:13Z</time>
      </trkpt>
      <trkpt lat="40.3760940" lon="-3.6935080">
        <ele>582.4</ele>
        <time>2021-05-08T05:21:14Z</time>
      </trkpt>
      <trkpt lat="40.3761070" lon="-3.6935740">
        <ele>582.7</ele>
        <time>2021-05-08T05:21:16Z</time>
      </trkpt>
      <trkpt lat="40.3761110" lon="-3.6936150">
        <ele>582.9</ele>
        <time>2021-05-08T05:21:17Z</time>
      </trkpt>
      <trkpt lat="40.3761150" lon="-3.6936510">
        <ele>583.1</ele>
        <time>2021-05-08T05:21:18Z</time>
      </trkpt>
      <trkpt lat="40.3761170" lon="-3.6936940">
        <ele>583.3</ele>
        <time>2021-05-08T05:21:19Z</time>
      </trkpt>
      <trkpt lat="40.3761110" lon="-3.6937560">
        <ele>583.6</ele>
        <time>2021-05-08T05:21:20Z</time>
      </trkpt>
      <trkpt lat="40.3760890" lon="-3.6938410">
        <ele>583.9</ele>
        <time>2021-05-08T05:21:22Z</time>
      </trkpt>
      <trkpt lat="40.3760490" lon="-3.6939180">
        <ele>584.3</ele>
        <time>2021-05-08T05:21:24Z</time>
      </trkpt>
      <trkpt lat="40.3760230" lon="-3.6939550">
        <ele>584.5</ele>
        <time>2021-05-08T05:21:25Z</time>
      </trkpt>
      <trkpt lat="40.3759600" lon="-3.6940200">
        <ele>584.9</ele>
        <time>2021-05-08T05:21:27Z</time>
      </trkpt>
      <trkpt lat="40.3758900" lon="-3.6940670">
        <ele>585.2</ele>
        <time>2021-05-08T05:21:29Z</time>
      </trkpt>
      <trkpt lat="40.3758540" lon="-3.6940860">
        <ele>585.4</ele>
        <time>2021-05-08T05:21:30Z</time>
      </trkpt>
      <trkpt lat="40.3757900" lon="-3.6941230">
        <ele>585.7</ele>
        <time>2021-05-08T05:21:32Z</time>
      </trkpt>
      <trkpt lat="40.3757180" lon="-3.6941510">
        <ele>585.9</ele>
        <time>2021-05-08T05:21:34Z</time>
      </trkpt>
      <trkpt lat="40.3756660" lon="-3.6941680">
        <ele>586.1</ele>
        <time>2021-05-08T05:21:35Z</time>
      </trkpt>
      <trkpt lat="40.3756330" lon="-3.6941820">
        <ele>586.3</ele>
        <time>2021-05-08T05:21:36Z</time>
      </trkpt>
      <trkpt lat="40.3756000" lon="-3.6941930">
        <ele>586.4</ele>
        <time>2021-05-08T05:21:37Z</time>
      </trkpt>
      <trkpt lat="40.3755670" lon="-3.6942070">
        <ele>586.5</ele>
        <time>2021-05-08T05:21:38Z</time>
      </trkpt>
      <trkpt lat="40.3755180" lon="-3.6942430">
        <ele>586.7</ele>
        <time>2021-05-08T05:21:39Z</time>
      </trkpt>
      <trkpt lat="40.3754890" lon="-3.6943170">
        <ele>586.9</ele>
        <time>2021-05-08T05:21:41Z</time>
      </trkpt>
      <trkpt lat="40.3754820" lon="-3.6943760">
        <ele>587.0</ele>
        <time>2021-05-08T05:21:42Z</time>
      </trkpt>
      <trkpt lat="40.3754730" lon="-3.6944470">
        <ele>587.2</ele>
        <time>2021-05-08T05:21:44Z</time>
      </trkpt>
      <trkpt lat="40.3754570" lon="-3.6945270">
        <ele>587.3</ele>
        <time>2021-05-08T05:21:46Z</time>
      </trkpt>
      <trkpt lat="40.3754240" lon="-3.6945920">
        <ele>587.5</ele>
        <time>2021-05-08T05:21:48Z</time>
      </trkpt>
      <trkpt lat="40.3754180" lon="-3.6946330">
        <ele>587.6</ele>
        <time>2021-05-08T05:21:49Z</time>
      </trkpt>
      <trkpt lat="40.3754160" lon="-3.6947070">
        <ele>587.7</ele>
        <time>2021-05-08T05:21:50Z</time>
      </trkpt>
      <trkpt lat="40.3754090" lon="-3.6947920">
        <ele>587.7</ele>
        <time>2021-05-08T05:21:52Z</time>
      </trkpt>
      <trkpt lat="40.3754000" lon="-3.6948910">
        <ele>587.8</ele>
        <time>2021-05-08T05:21:54Z</time>
      </trkpt>
      <trkpt lat="40.3753960" lon="-3.6949460">
        <ele>587.8</ele>
        <time>2021-05-08T05:21:55Z</time>
      </trkpt>
      <trkpt lat="40.3753930" lon="-3.6950080">
        <ele>587.8</ele>
        <time>2021-05-08T05:21:56Z</time>
      </trkpt>
      <trkpt lat="40.3753900" lon="-3.6950700">
        <ele>587.9</ele>
        <time>2021-05-08T05:21:57Z</time>
      </trkpt>
      <trkpt lat="40.3753650" lon="-3.6951620">
        <ele>588.0</ele>
        <time>2021-05-08T05:21:59Z</time>
      </trkpt>
      <trkpt lat="40.3753380" lon="-3.6952470">
        <ele>588.1</ele>
        <time>2021-05-08T05:22:01Z</time>
      </trkpt>
      <trkpt lat="40.3753260" lon="-3.6953040">
        <ele>588.1</ele>
        <time>2021-05-08T05:22:02Z</time>
      </trkpt>
      <trkpt lat="40.3753010" lon="-3.6953520">
        <ele>588.1</ele>
        <time>2021-05-08T05:22:03Z</time>
      </trkpt>
      <trkpt lat="40.3752300" lon="-3.6954140">
        <ele>588.2</ele>
        <time>2021-05-08T05:22:05Z</time>
      </trkpt>
      <trkpt lat="40.3751330" lon="-3.6954160">
        <ele>588.2</ele>
        <time>2021-05-08T05:22:07Z</time>
      </trkpt>
      <trkpt lat="40.3750190" lon="-3.6954170">
        <ele>588.2</ele>
        <time>2021-05-08T05:22:09Z</time>
      </trkpt>
      <trkpt lat="40.3749810" lon="-3.6954420">
        <ele>588.2</ele>
        <time>2021-05-08T05:22:10Z</time>
      </trkpt>
      <trkpt lat="40.3749460" lon="-3.6954940">
        <ele>588.2</ele>
        <time>2021-05-08T05:22:11Z</time>
      </trkpt>
      <trkpt lat="40.3749020" lon="-3.6955180">
        <ele>588.3</ele>
        <time>2021-05-08T05:22:12Z</time>
      </trkpt>
      <trkpt lat="40.3748490" lon="-3.6955190">
        <ele>588.3</ele>
        <time>2021-05-08T05:22:13Z</time>
      </trkpt>
      <trkpt lat="40.3747940" lon="-3.6955070">
        <ele>588.3</ele>
        <time>2021-05-08T05:22:14Z</time>
      </trkpt>
      <trkpt lat="40.3747080" lon="-3.6954980">
        <ele>588.4</ele>
        <time>2021-05-08T05:22:16Z</time>
      </trkpt>
      <trkpt lat="40.3746130" lon="-3.6954780">
        <ele>588.5</ele>
        <time>2021-05-08T05:22:18Z</time>
      </trkpt>
      <trkpt lat="40.3745210" lon="-3.6954660">
        <ele>588.7</ele>
        <time>2021-05-08T05:22:20Z</time>
      </trkpt>
      <trkpt lat="40.3744790" lon="-3.6954590">
        <ele>588.8</ele>
        <time>2021-05-08T05:22:21Z</time>
      </trkpt>
      <trkpt lat="40.3744340" lon="-3.6954530">
        <ele>588.8</ele>
        <time>2021-05-08T05:22:22Z</time>
      </trkpt>
      <trkpt lat="40.3743880" lon="-3.6954450">
        <ele>588.9</ele>
        <time>2021-05-08T05:22:23Z</time>
      </trkpt>
      <trkpt lat="40.3742930" lon="-3.6954320">
        <ele>589.1</ele>
        <time>2021-05-08T05:22:25Z</time>
      </trkpt>
      <trkpt lat="40.3742470" lon="-3.6954250">
        <ele>589.2</ele>
        <time>2021-05-08T05:22:26Z</time>
      </trkpt>
      <trkpt lat="40.3741510" lon="-3.6954160">
        <ele>589.3</ele>
        <time>2021-05-08T05:22:28Z</time>
      </trkpt>
      <trkpt lat="40.3741060" lon="-3.6954200">
        <ele>589.4</ele>
        <time>2021-05-08T05:22:29Z</time>
      </trkpt>
      <trkpt lat="40.3740210" lon="-3.6954380">
        <ele>589.6</ele>
        <time>2021-05-08T05:22:31Z</time>
      </trkpt>
      <trkpt lat="40.3739760" lon="-3.6954580">
        <ele>589.7</ele>
        <time>2021-05-08T05:22:32Z</time>
      </trkpt>
      <trkpt lat="40.3739260" lon="-3.6954860">
        <ele>589.8</ele>
        <time>2021-05-08T05:22:33Z</time>
      </trkpt>
      <trkpt lat="40.3738330" lon="-3.6955560">
        <ele>590.0</ele>
        <time>2021-05-08T05:22:35Z</time>
      </trkpt>
      <trkpt lat="40.3737930" lon="-3.6955960">
        <ele>590.1</ele>
        <time>2021-05-08T05:22:36Z</time>
      </trkpt>
      <trkpt lat="40.3737120" lon="-3.6956660">
        <ele>590.3</ele>
        <time>2021-05-08T05:22:38Z</time>
      </trkpt>
      <trkpt lat="40.3736740" lon="-3.6957040">
        <ele>590.4</ele>
        <time>2021-05-08T05:22:39Z</time>
      </trkpt>
      <trkpt lat="40.3736330" lon="-3.6957430">
        <ele>590.5</ele>
        <time>2021-05-08T05:22:40Z</time>
      </trkpt>
      <trkpt lat="40.3735570" lon="-3.6958100">
        <ele>590.7</ele>
        <time>2021-05-08T05:22:42Z</time>
      </trkpt>
      <trkpt lat="40.3735210" lon="-3.6958480">
        <ele>590.7</ele>
        <time>2021-05-08T05:22:43Z</time>
      </trkpt>
      <trkpt lat="40.3734800" lon="-3.6959490">
        <ele>590.9</ele>
        <time>2021-05-08T05:22:45Z</time>
      </trkpt>
      <trkpt lat="40.3734650" lon="-3.6960720">
        <ele>591.0</ele>
        <time>2021-05-08T05:22:47Z</time>
      </trkpt>
      <trkpt lat="40.3734500" lon="-3.6961250">
        <ele>591.1</ele>
        <time>2021-05-08T05:22:48Z</time>
      </trkpt>
      <trkpt lat="40.3733680" lon="-3.6961850">
        <ele>591.2</ele>
        <time>2021-05-08T05:22:50Z</time>
      </trkpt>
      <trkpt lat="40.3732700" lon="-3.6962170">
        <ele>591.3</ele>
        <time>2021-05-08T05:22:52Z</time>
      </trkpt>
      <trkpt lat="40.3731680" lon="-3.6962620">
        <ele>591.5</ele>
        <time>2021-05-08T05:22:54Z</time>
      </trkpt>
      <trkpt lat="40.3730720" lon="-3.6963250">
        <ele>591.7</ele>
        <time>2021-05-08T05:22:56Z</time>
      </trkpt>
      <trkpt lat="40.3730130" lon="-3.6964210">
        <ele>591.8</ele>
        <time>2021-05-08T05:22:58Z</time>
      </trkpt>
      <trkpt lat="40.3730100" lon="-3.6965360">
        <ele>592.0</ele>
        <time>2021-05-08T05:23:00Z</time>
      </trkpt>
      <trkpt lat="40.3730210" lon="-3.6966280">
        <ele>592.2</ele>
        <time>2021-05-08T05:23:02Z</time>
      </trkpt>
      <trkpt lat="40.3730340" lon="-3.6967260">
        <ele>592.4</ele>
        <time>2021-05-08T05:23:03Z</time>
      </trkpt>
      <trkpt lat="40.3730410" lon="-3.6968450">
        <ele>592.6</ele>
        <time>2021-05-08T05:23:05Z</time>
      </trkpt>
      <trkpt lat="40.3730440" lon="-3.6969060">
        <ele>592.7</ele>
        <time>2021-05-08T05:23:06Z</time>
      </trkpt>
      <trkpt lat="40.3730520" lon="-3.6970290">
        <ele>592.9</ele>
        <time>2021-05-08T05:23:08Z</time>
      </trkpt>
      <trkpt lat="40.3730540" lon="-3.6970970">
        <ele>593.0</ele>
        <time>2021-05-08T05:23:09Z</time>
      </trkpt>
      <trkpt lat="40.3730560" lon="-3.6972340">
        <ele>593.3</ele>
        <time>2021-05-08T05:23:11Z</time>
      </trkpt>
      <trkpt lat="40.3730590" lon="-3.6973650">
        <ele>593.5</ele>
        <time>2021-05-08T05:23:13Z</time>
      </trkpt>
      <trkpt lat="40.3730610" lon="-3.6974890">
        <ele>593.7</ele>
        <time>2021-05-08T05:23:15Z</time>
      </trkpt>
      <trkpt lat="40.3730630" lon="-3.6975520">
        <ele>593.8</ele>
        <time>2021-05-08T05:23:16Z</time>
      </trkpt>
      <trkpt lat="40.3730710" lon="-3.6976780">
        <ele>594.0</ele>
        <time>2021-05-08T05:23:18Z</time>
      </trkpt>
      <trkpt lat="40.3730740" lon="-3.6977390">
        <ele>594.1</ele>
        <time>2021-05-08T05:23:19Z</time>
      </trkpt>
      <trkpt lat="40.3730760" lon="-3.6978640">
        <ele>594.3</ele>
        <time>2021-05-08T05:23:21Z</time>
      </trkpt>
      <trkpt lat="40.3730800" lon="-3.6979230">
        <ele>594.3</ele>
        <time>2021-05-08T05:23:22Z</time>
      </trkpt>
      <trkpt lat="40.3730850" lon="-3.6979810">
        <ele>594.3</ele>
        <time>2021-05-08T05:23:23Z</time>
      </trkpt>
      <trkpt lat="40.3730930" lon="-3.6980360">
        <ele>594.3</ele>
        <time>2021-05-08T05:23:24Z</time>
      </trkpt>
      <trkpt lat="40.3731260" lon="-3.6981460">
        <ele>594.2</ele>
        <time>2021-05-08T05:23:26Z</time>
      </trkpt>
      <trkpt lat="40.3731590" lon="-3.6982130">
        <ele>594.1</ele>
        <time>2021-05-08T05:23:27Z</time>
      </trkpt>
      <trkpt lat="40.3731930" lon="-3.6982740">
        <ele>594.1</ele>
        <time>2021-05-08T05:23:28Z</time>
      </trkpt>
      <trkpt lat="40.3732580" lon="-3.6983960">
        <ele>593.9</ele>
        <time>2021-05-08T05:23:30Z</time>
      </trkpt>
      <trkpt lat="40.3732830" lon="-3.6984690">
        <ele>593.7</ele>
        <time>2021-05-08T05:23:31Z</time>
      </trkpt>
      <trkpt lat="40.3733190" lon="-3.6986130">
        <ele>593.5</ele>
        <time>2021-05-08T05:23:33Z</time>
      </trkpt>
      <trkpt lat="40.3733410" lon="-3.6987670">
        <ele>593.3</ele>
        <time>2021-05-08T05:23:35Z</time>
      </trkpt>
      <trkpt lat="40.3733470" lon="-3.6988450">
        <ele>593.2</ele>
        <time>2021-05-08T05:23:36Z</time>
      </trkpt>
      <trkpt lat="40.3733460" lon="-3.6989230">
        <ele>593.1</ele>
        <time>2021-05-08T05:23:37Z</time>
      </trkpt>
      <trkpt lat="40.3733170" lon="-3.6990720">
        <ele>592.8</ele>
        <time>2021-05-08T05:23:39Z</time>
      </trkpt>
      <trkpt lat="40.3732810" lon="-3.6992360">
        <ele>592.4</ele>
        <time>2021-05-08T05:23:41Z</time>
      </trkpt>
      <trkpt lat="40.3732720" lon="-3.6993270">
        <ele>592.2</ele>
        <time>2021-05-08T05:23:42Z</time>
      </trkpt>
      <trkpt lat="40.3732640" lon="-3.6995110">
        <ele>592.0</ele>
        <time>2021-05-08T05:23:44Z</time>
      </trkpt>
      <trkpt lat="40.3732620" lon="-3.6996110">
        <ele>591.8</ele>
        <time>2021-05-08T05:23:45Z</time>
      </trkpt>
      <trkpt lat="40.3732610" lon="-3.6997110">
        <ele>591.7</ele>
        <time>2021-05-08T05:23:46Z</time>
      </trkpt>
      <trkpt lat="40.3732620" lon="-3.6998070">
        <ele>591.7</ele>
        <time>2021-05-08T05:23:47Z</time>
      </trkpt>
      <trkpt lat="40.3732630" lon="-3.6998990">
        <ele>591.6</ele>
        <time>2021-05-08T05:23:48Z</time>
      </trkpt>
      <trkpt lat="40.3732580" lon="-3.7000720">
        <ele>591.4</ele>
        <time>2021-05-08T05:23:50Z</time>
      </trkpt>
      <trkpt lat="40.3732550" lon="-3.7001620">
        <ele>591.4</ele>
        <time>2021-05-08T05:23:51Z</time>
      </trkpt>
      <trkpt lat="40.3732510" lon="-3.7003410">
        <ele>591.2</ele>
        <time>2021-05-08T05:23:53Z</time>
      </trkpt>
      <trkpt lat="40.3732440" lon="-3.7005120">
        <ele>591.1</ele>
        <time>2021-05-08T05:23:55Z</time>
      </trkpt>
      <trkpt lat="40.3732330" lon="-3.7006780">
        <ele>591.0</ele>
        <time>2021-05-08T05:23:57Z</time>
      </trkpt>
      <trkpt lat="40.3732440" lon="-3.7007570">
        <ele>591.0</ele>
        <time>2021-05-08T05:23:58Z</time>
      </trkpt>
      <trkpt lat="40.3732750" lon="-3.7008240">
        <ele>590.9</ele>
        <time>2021-05-08T05:23:59Z</time>
      </trkpt>
      <trkpt lat="40.3733020" lon="-3.7009740">
        <ele>590.8</ele>
        <time>2021-05-08T05:24:01Z</time>
      </trkpt>
      <trkpt lat="40.3732770" lon="-3.7010470">
        <ele>590.7</ele>
        <time>2021-05-08T05:24:02Z</time>
      </trkpt>
      <trkpt lat="40.3732150" lon="-3.7011760">
        <ele>590.5</ele>
        <time>2021-05-08T05:24:04Z</time>
      </trkpt>
      <trkpt lat="40.3732100" lon="-3.7012530">
        <ele>590.5</ele>
        <time>2021-05-08T05:24:05Z</time>
      </trkpt>
      <trkpt lat="40.3732200" lon="-3.7014140">
        <ele>590.4</ele>
        <time>2021-05-08T05:24:07Z</time>
      </trkpt>
      <trkpt lat="40.3732520" lon="-3.7015550">
        <ele>590.4</ele>
        <time>2021-05-08T05:24:09Z</time>
      </trkpt>
      <trkpt lat="40.3732660" lon="-3.7016290">
        <ele>590.5</ele>
        <time>2021-05-08T05:24:10Z</time>
      </trkpt>
      <trkpt lat="40.3732780" lon="-3.7016990">
        <ele>590.5</ele>
        <time>2021-05-08T05:24:11Z</time>
      </trkpt>
      <trkpt lat="40.3732870" lon="-3.7017710">
        <ele>590.5</ele>
        <time>2021-05-08T05:24:12Z</time>
      </trkpt>
      <trkpt lat="40.3732930" lon="-3.7018540">
        <ele>590.6</ele>
        <time>2021-05-08T05:24:13Z</time>
      </trkpt>
      <trkpt lat="40.3733030" lon="-3.7020230">
        <ele>590.7</ele>
        <time>2021-05-08T05:24:15Z</time>
      </trkpt>
      <trkpt lat="40.3733080" lon="-3.7021040">
        <ele>590.8</ele>
        <time>2021-05-08T05:24:16Z</time>
      </trkpt>
      <trkpt lat="40.3733210" lon="-3.7022480">
        <ele>590.8</ele>
        <time>2021-05-08T05:24:18Z</time>
      </trkpt>
      <trkpt lat="40.3733270" lon="-3.7023880">
        <ele>591.0</ele>
        <time>2021-05-08T05:24:20Z</time>
      </trkpt>
      <trkpt lat="40.3733200" lon="-3.7024550">
        <ele>591.0</ele>
        <time>2021-05-08T05:24:21Z</time>
      </trkpt>
      <trkpt lat="40.3733160" lon="-3.7025790">
        <ele>591.2</ele>
        <time>2021-05-08T05:24:23Z</time>
      </trkpt>
      <trkpt lat="40.3733150" lon="-3.7026040">
        <ele>591.2</ele>
        <time>2021-05-08T05:24:24Z</time>
      </trkpt>
      <trkpt lat="40.3733270" lon="-3.7026610">
        <ele>591.3</ele>
        <time>2021-05-08T05:24:26Z</time>
      </trkpt>
      <trkpt lat="40.3733360" lon="-3.7027000">
        <ele>591.2</ele>
        <time>2021-05-08T05:24:27Z</time>
      </trkpt>
      <trkpt lat="40.3733380" lon="-3.7027360">
        <ele>591.2</ele>
        <time>2021-05-08T05:24:28Z</time>
      </trkpt>
      <trkpt lat="40.3733310" lon="-3.7027460">
        <ele>591.2</ele>
        <time>2021-05-08T05:24:29Z</time>
      </trkpt>
      <trkpt lat="40.3733170" lon="-3.7027440">
        <ele>591.2</ele>
        <time>2021-05-08T05:24:30Z</time>
      </trkpt>
      <trkpt lat="40.3732730" lon="-3.7028080">
        <ele>591.3</ele>
        <time>2021-05-08T05:24:32Z</time>
      </trkpt>
      <trkpt lat="40.3732310" lon="-3.7028310">
        <ele>591.3</ele>
        <time>2021-05-08T05:24:33Z</time>
      </trkpt>
      <trkpt lat="40.3731700" lon="-3.7028550">
        <ele>591.3</ele>
        <time>2021-05-08T05:24:34Z</time>
      </trkpt>
      <trkpt lat="40.3731090" lon="-3.7028750">
        <ele>591.3</ele>
        <time>2021-05-08T05:24:36Z</time>
      </trkpt>
      <trkpt lat="40.3730400" lon="-3.7029030">
        <ele>591.4</ele>
        <time>2021-05-08T05:24:37Z</time>
      </trkpt>
      <trkpt lat="40.3729830" lon="-3.7029200">
        <ele>591.5</ele>
        <time>2021-05-08T05:24:38Z</time>
      </trkpt>
      <trkpt lat="40.3728710" lon="-3.7029540">
        <ele>591.6</ele>
        <time>2021-05-08T05:24:40Z</time>
      </trkpt>
      <trkpt lat="40.3727660" lon="-3.7029840">
        <ele>591.7</ele>
        <time>2021-05-08T05:24:42Z</time>
      </trkpt>
      <trkpt lat="40.3727170" lon="-3.7030000">
        <ele>591.8</ele>
        <time>2021-05-08T05:24:43Z</time>
      </trkpt>
      <trkpt lat="40.3726220" lon="-3.7030330">
        <ele>591.9</ele>
        <time>2021-05-08T05:24:45Z</time>
      </trkpt>
      <trkpt lat="40.3725310" lon="-3.7030670">
        <ele>591.9</ele>
        <time>2021-05-08T05:24:47Z</time>
      </trkpt>
      <trkpt lat="40.3724830" lon="-3.7030830">
        <ele>592.0</ele>
        <time>2021-05-08T05:24:48Z</time>
      </trkpt>
      <trkpt lat="40.3724370" lon="-3.7031040">
        <ele>592.0</ele>
        <time>2021-05-08T05:24:49Z</time>
      </trkpt>
      <trkpt lat="40.3723390" lon="-3.7031410">
        <ele>592.1</ele>
        <time>2021-05-08T05:24:51Z</time>
      </trkpt>
      <trkpt lat="40.3722910" lon="-3.7031600">
        <ele>592.2</ele>
        <time>2021-05-08T05:24:52Z</time>
      </trkpt>
      <trkpt lat="40.3722400" lon="-3.7031810">
        <ele>592.3</ele>
        <time>2021-05-08T05:24:53Z</time>
      </trkpt>
      <trkpt lat="40.3721370" lon="-3.7032130">
        <ele>592.4</ele>
        <time>2021-05-08T05:24:55Z</time>
      </trkpt>
      <trkpt lat="40.3720410" lon="-3.7032450">
        <ele>592.6</ele>
        <time>2021-05-08T05:24:57Z</time>
      </trkpt>
      <trkpt lat="40.3719940" lon="-3.7032650">
        <ele>592.7</ele>
        <time>2021-05-08T05:24:58Z</time>
      </trkpt>
      <trkpt lat="40.3719540" lon="-3.7032850">
        <ele>592.8</ele>
        <time>2021-05-08T05:24:59Z</time>
      </trkpt>
      <trkpt lat="40.3718670" lon="-3.7033320">
        <ele>593.0</ele>
        <time>2021-05-08T05:25:01Z</time>
      </trkpt>
      <trkpt lat="40.3717800" lon="-3.7033780">
        <ele>593.3</ele>
        <time>2021-05-08T05:25:03Z</time>
      </trkpt>
      <trkpt lat="40.3717350" lon="-3.7034040">
        <ele>593.4</ele>
        <time>2021-05-08T05:25:04Z</time>
      </trkpt>
      <trkpt lat="40.3716520" lon="-3.7034730">
        <ele>593.6</ele>
        <time>2021-05-08T05:25:06Z</time>
      </trkpt>
      <trkpt lat="40.3716010" lon="-3.7035480">
        <ele>593.8</ele>
        <time>2021-05-08T05:25:08Z</time>
      </trkpt>
      <trkpt lat="40.3715680" lon="-3.7036030">
        <ele>593.9</ele>
        <time>2021-05-08T05:25:09Z</time>
      </trkpt>
      <trkpt lat="40.3715420" lon="-3.7036530">
        <ele>594.0</ele>
        <time>2021-05-08T05:25:10Z</time>
      </trkpt>
      <trkpt lat="40.3715300" lon="-3.7036830">
        <ele>594.0</ele>
        <time>2021-05-08T05:25:11Z</time>
      </trkpt>
      <trkpt lat="40.3714890" lon="-3.7037980">
        <ele>594.2</ele>
        <time>2021-05-08T05:25:13Z</time>
      </trkpt>
      <trkpt lat="40.3714480" lon="-3.7039190">
        <ele>594.3</ele>
        <time>2021-05-08T05:25:15Z</time>
      </trkpt>
      <trkpt lat="40.3714110" lon="-3.7040320">
        <ele>594.4</ele>
        <time>2021-05-08T05:25:17Z</time>
      </trkpt>
      <trkpt lat="40.3714140" lon="-3.7041520">
        <ele>594.5</ele>
        <time>2021-05-08T05:25:19Z</time>
      </trkpt>
      <trkpt lat="40.3714380" lon="-3.7042400">
        <ele>594.6</ele>
        <time>2021-05-08T05:25:21Z</time>
      </trkpt>
      <trkpt lat="40.3715110" lon="-3.7043110">
        <ele>594.6</ele>
        <time>2021-05-08T05:25:22Z</time>
      </trkpt>
      <trkpt lat="40.3715550" lon="-3.7043510">
        <ele>594.6</ele>
        <time>2021-05-08T05:25:23Z</time>
      </trkpt>
      <trkpt lat="40.3716340" lon="-3.7044540">
        <ele>594.6</ele>
        <time>2021-05-08T05:25:25Z</time>
      </trkpt>
      <trkpt lat="40.3716990" lon="-3.7045810">
        <ele>594.5</ele>
        <time>2021-05-08T05:25:27Z</time>
      </trkpt>
      <trkpt lat="40.3717070" lon="-3.7047330">
        <ele>594.5</ele>
        <time>2021-05-08T05:25:29Z</time>
      </trkpt>
      <trkpt lat="40.3716490" lon="-3.7048880">
        <ele>594.5</ele>
        <time>2021-05-08T05:25:31Z</time>
      </trkpt>
      <trkpt lat="40.3716060" lon="-3.7049430">
        <ele>594.6</ele>
        <time>2021-05-08T05:25:32Z</time>
      </trkpt>
      <trkpt lat="40.3715630" lon="-3.7049870">
        <ele>594.7</ele>
        <time>2021-05-08T05:25:33Z</time>
      </trkpt>
      <trkpt lat="40.3715030" lon="-3.7050190">
        <ele>594.9</ele>
        <time>2021-05-08T05:25:35Z</time>
      </trkpt>
      <trkpt lat="40.3714840" lon="-3.7050150">
        <ele>594.9</ele>
        <time>2021-05-08T05:25:37Z</time>
      </trkpt>
      <trkpt lat="40.3714900" lon="-3.7050080">
        <ele>595.0</ele>
        <time>2021-05-08T05:25:38Z</time>
      </trkpt>
      <trkpt lat="40.3714930" lon="-3.7050070">
        <ele>595.0</ele>
        <time>2021-05-08T05:25:39Z</time>
      </trkpt>
      <trkpt lat="40.3714950" lon="-3.7050070">
        <ele>595.0</ele>
        <time>2021-05-08T05:25:40Z</time>
      </trkpt>
      <trkpt lat="40.3714950" lon="-3.7050080">
        <ele>595.0</ele>
        <time>2021-05-08T05:25:42Z</time>
      </trkpt>
      <trkpt lat="40.3714960" lon="-3.7050060">
        <ele>595.0</ele>
        <time>2021-05-08T05:25:44Z</time>
      </trkpt>
      <trkpt lat="40.3714960" lon="-3.7050050">
        <ele>595.0</ele>
        <time>2021-05-08T05:25:45Z</time>
      </trkpt>
      <trkpt lat="40.3714970" lon="-3.7050050">
        <ele>595.0</ele>
        <time>2021-05-08T05:25:47Z</time>
      </trkpt>
      <trkpt lat="40.3714970" lon="-3.7050060">
        <ele>595.0</ele>
        <time>2021-05-08T05:25:48Z</time>
      </trkpt>
      <trkpt lat="40.3714740" lon="-3.7050190">
        <ele>595.0</ele>
        <time>2021-05-08T05:26:03Z</time>
      </trkpt>
      <trkpt lat="40.3714490" lon="-3.7050320">
        <ele>595.1</ele>
        <time>2021-05-08T05:26:04Z</time>
      </trkpt>
      <trkpt lat="40.3714240" lon="-3.7050480">
        <ele>595.1</ele>
        <time>2021-05-08T05:26:05Z</time>
      </trkpt>
      <trkpt lat="40.3713810" lon="-3.7050730">
        <ele>595.2</ele>
        <time>2021-05-08T05:26:07Z</time>
      </trkpt>
      <trkpt lat="40.3713370" lon="-3.7050930">
        <ele>595.2</ele>
        <time>2021-05-08T05:26:08Z</time>
      </trkpt>
      <trkpt lat="40.3713160" lon="-3.7051010">
        <ele>595.2</ele>
        <time>2021-05-08T05:26:09Z</time>
      </trkpt>
      <trkpt lat="40.3712860" lon="-3.7051250">
        <ele>595.2</ele>
        <time>2021-05-08T05:26:11Z</time>
      </trkpt>
      <trkpt lat="40.3712680" lon="-3.7051610">
        <ele>595.3</ele>
        <time>2021-05-08T05:26:12Z</time>
      </trkpt>
      <trkpt lat="40.3712900" lon="-3.7052590">
        <ele>595.2</ele>
        <time>2021-05-08T05:26:14Z</time>
      </trkpt>
      <trkpt lat="40.3713180" lon="-3.7053430">
        <ele>595.2</ele>
        <time>2021-05-08T05:26:15Z</time>
      </trkpt>
      <trkpt lat="40.3713370" lon="-3.7054190">
        <ele>595.1</ele>
        <time>2021-05-08T05:26:17Z</time>
      </trkpt>
      <trkpt lat="40.3713640" lon="-3.7055290">
        <ele>595.1</ele>
        <time>2021-05-08T05:26:19Z</time>
      </trkpt>
      <trkpt lat="40.3713940" lon="-3.7056000">
        <ele>595.1</ele>
        <time>2021-05-08T05:26:20Z</time>
      </trkpt>
      <trkpt lat="40.3714360" lon="-3.7057190">
        <ele>595.1</ele>
        <time>2021-05-08T05:26:22Z</time>
      </trkpt>
      <trkpt lat="40.3714530" lon="-3.7057820">
        <ele>595.1</ele>
        <time>2021-05-08T05:26:23Z</time>
      </trkpt>
      <trkpt lat="40.3714880" lon="-3.7058970">
        <ele>595.0</ele>
        <time>2021-05-08T05:26:25Z</time>
      </trkpt>
      <trkpt lat="40.3715070" lon="-3.7059520">
        <ele>595.0</ele>
        <time>2021-05-08T05:26:26Z</time>
      </trkpt>
      <trkpt lat="40.3715450" lon="-3.7060750">
        <ele>595.0</ele>
        <time>2021-05-08T05:26:28Z</time>
      </trkpt>
      <trkpt lat="40.3715870" lon="-3.7062060">
        <ele>595.0</ele>
        <time>2021-05-08T05:26:30Z</time>
      </trkpt>
      <trkpt lat="40.3716040" lon="-3.7062720">
        <ele>595.0</ele>
        <time>2021-05-08T05:26:31Z</time>
      </trkpt>
      <trkpt lat="40.3716410" lon="-3.7064020">
        <ele>595.0</ele>
        <time>2021-05-08T05:26:33Z</time>
      </trkpt>
      <trkpt lat="40.3716510" lon="-3.7064690">
        <ele>595.0</ele>
        <time>2021-05-08T05:26:34Z</time>
      </trkpt>
      <trkpt lat="40.3716610" lon="-3.7065390">
        <ele>595.0</ele>
        <time>2021-05-08T05:26:35Z</time>
      </trkpt>
      <trkpt lat="40.3717010" lon="-3.7066810">
        <ele>595.0</ele>
        <time>2021-05-08T05:26:37Z</time>
      </trkpt>
      <trkpt lat="40.3717420" lon="-3.7068270">
        <ele>595.0</ele>
        <time>2021-05-08T05:26:39Z</time>
      </trkpt>
      <trkpt lat="40.3717820" lon="-3.7069770">
        <ele>595.0</ele>
        <time>2021-05-08T05:26:41Z</time>
      </trkpt>
      <trkpt lat="40.3718170" lon="-3.7071330">
        <ele>595.1</ele>
        <time>2021-05-08T05:26:43Z</time>
      </trkpt>
      <trkpt lat="40.3718580" lon="-3.7072830">
        <ele>595.1</ele>
        <time>2021-05-08T05:26:45Z</time>
      </trkpt>
      <trkpt lat="40.3718800" lon="-3.7073570">
        <ele>595.1</ele>
        <time>2021-05-08T05:26:46Z</time>
      </trkpt>
      <trkpt lat="40.3719250" lon="-3.7075040">
        <ele>595.0</ele>
        <time>2021-05-08T05:26:48Z</time>
      </trkpt>
      <trkpt lat="40.3719680" lon="-3.7076650">
        <ele>595.0</ele>
        <time>2021-05-08T05:26:50Z</time>
      </trkpt>
      <trkpt lat="40.3719890" lon="-3.7077490">
        <ele>595.0</ele>
        <time>2021-05-08T05:26:51Z</time>
      </trkpt>
      <trkpt lat="40.3720070" lon="-3.7078270">
        <ele>595.0</ele>
        <time>2021-05-08T05:26:52Z</time>
      </trkpt>
      <trkpt lat="40.3720450" lon="-3.7080040">
        <ele>594.9</ele>
        <time>2021-05-08T05:26:54Z</time>
      </trkpt>
      <trkpt lat="40.3720890" lon="-3.7081660">
        <ele>594.9</ele>
        <time>2021-05-08T05:26:56Z</time>
      </trkpt>
      <trkpt lat="40.3721310" lon="-3.7083170">
        <ele>594.9</ele>
        <time>2021-05-08T05:26:58Z</time>
      </trkpt>
      <trkpt lat="40.3721530" lon="-3.7083960">
        <ele>594.9</ele>
        <time>2021-05-08T05:26:59Z</time>
      </trkpt>
      <trkpt lat="40.3721770" lon="-3.7084730">
        <ele>594.9</ele>
        <time>2021-05-08T05:27:00Z</time>
      </trkpt>
      <trkpt lat="40.3722230" lon="-3.7086290">
        <ele>594.9</ele>
        <time>2021-05-08T05:27:02Z</time>
      </trkpt>
      <trkpt lat="40.3722680" lon="-3.7087860">
        <ele>594.9</ele>
        <time>2021-05-08T05:27:04Z</time>
      </trkpt>
      <trkpt lat="40.3723130" lon="-3.7089410">
        <ele>594.9</ele>
        <time>2021-05-08T05:27:06Z</time>
      </trkpt>
      <trkpt lat="40.3723330" lon="-3.7090170">
        <ele>594.9</ele>
        <time>2021-05-08T05:27:07Z</time>
      </trkpt>
      <trkpt lat="40.3723540" lon="-3.7090940">
        <ele>594.9</ele>
        <time>2021-05-08T05:27:08Z</time>
      </trkpt>
      <trkpt lat="40.3723770" lon="-3.7091730">
        <ele>594.8</ele>
        <time>2021-05-08T05:27:09Z</time>
      </trkpt>
      <trkpt lat="40.3724200" lon="-3.7093350">
        <ele>594.8</ele>
        <time>2021-05-08T05:27:11Z</time>
      </trkpt>
      <trkpt lat="40.3724680" lon="-3.7095000">
        <ele>594.8</ele>
        <time>2021-05-08T05:27:13Z</time>
      </trkpt>
      <trkpt lat="40.3725140" lon="-3.7096630">
        <ele>594.8</ele>
        <time>2021-05-08T05:27:15Z</time>
      </trkpt>
      <trkpt lat="40.3725370" lon="-3.7097470">
        <ele>594.8</ele>
        <time>2021-05-08T05:27:16Z</time>
      </trkpt>
      <trkpt lat="40.3725860" lon="-3.7099120">
        <ele>594.8</ele>
        <time>2021-05-08T05:27:18Z</time>
      </trkpt>
      <trkpt lat="40.3726120" lon="-3.7099940">
        <ele>594.8</ele>
        <time>2021-05-08T05:27:19Z</time>
      </trkpt>
      <trkpt lat="40.3726580" lon="-3.7101590">
        <ele>594.8</ele>
        <time>2021-05-08T05:27:21Z</time>
      </trkpt>
      <trkpt lat="40.3726970" lon="-3.7103220">
        <ele>594.8</ele>
        <time>2021-05-08T05:27:23Z</time>
      </trkpt>
      <trkpt lat="40.3727300" lon="-3.7104730">
        <ele>594.8</ele>
        <time>2021-05-08T05:27:25Z</time>
      </trkpt>
      <trkpt lat="40.3727440" lon="-3.7105450">
        <ele>594.8</ele>
        <time>2021-05-08T05:27:26Z</time>
      </trkpt>
      <trkpt lat="40.3727570" lon="-3.7106190">
        <ele>594.8</ele>
        <time>2021-05-08T05:27:27Z</time>
      </trkpt>
      <trkpt lat="40.3727690" lon="-3.7106920">
        <ele>594.7</ele>
        <time>2021-05-08T05:27:28Z</time>
      </trkpt>
      <trkpt lat="40.3728020" lon="-3.7108250">
        <ele>594.7</ele>
        <time>2021-05-08T05:27:30Z</time>
      </trkpt>
      <trkpt lat="40.3728830" lon="-3.7109500">
        <ele>594.7</ele>
        <time>2021-05-08T05:27:32Z</time>
      </trkpt>
      <trkpt lat="40.3729210" lon="-3.7110150">
        <ele>594.7</ele>
        <time>2021-05-08T05:27:33Z</time>
      </trkpt>
      <trkpt lat="40.3729650" lon="-3.7111740">
        <ele>594.7</ele>
        <time>2021-05-08T05:27:35Z</time>
      </trkpt>
      <trkpt lat="40.3729840" lon="-3.7112550">
        <ele>594.7</ele>
        <time>2021-05-08T05:27:36Z</time>
      </trkpt>
      <trkpt lat="40.3730220" lon="-3.7114170">
        <ele>594.8</ele>
        <time>2021-05-08T05:27:38Z</time>
      </trkpt>
      <trkpt lat="40.3730650" lon="-3.7115690">
        <ele>594.8</ele>
        <time>2021-05-08T05:27:40Z</time>
      </trkpt>
      <trkpt lat="40.3730830" lon="-3.7116410">
        <ele>594.9</ele>
        <time>2021-05-08T05:27:41Z</time>
      </trkpt>
      <trkpt lat="40.3731190" lon="-3.7117930">
        <ele>595.1</ele>
        <time>2021-05-08T05:27:43Z</time>
      </trkpt>
      <trkpt lat="40.3731310" lon="-3.7118650">
        <ele>595.2</ele>
        <time>2021-05-08T05:27:44Z</time>
      </trkpt>
      <trkpt lat="40.3731300" lon="-3.7119330">
        <ele>595.3</ele>
        <time>2021-05-08T05:27:45Z</time>
      </trkpt>
      <trkpt lat="40.3730510" lon="-3.7120250">
        <ele>595.6</ele>
        <time>2021-05-08T05:27:47Z</time>
      </trkpt>
      <trkpt lat="40.3730110" lon="-3.7120750">
        <ele>595.7</ele>
        <time>2021-05-08T05:27:48Z</time>
      </trkpt>
      <trkpt lat="40.3729750" lon="-3.7121760">
        <ele>595.9</ele>
        <time>2021-05-08T05:27:50Z</time>
      </trkpt>
      <trkpt lat="40.3729580" lon="-3.7122200">
        <ele>595.9</ele>
        <time>2021-05-08T05:27:51Z</time>
      </trkpt>
      <trkpt lat="40.3729450" lon="-3.7122690">
        <ele>596.0</ele>
        <time>2021-05-08T05:27:52Z</time>
      </trkpt>
      <trkpt lat="40.3729430" lon="-3.7123450">
        <ele>596.0</ele>
        <time>2021-05-08T05:27:53Z</time>
      </trkpt>
      <trkpt lat="40.3729450" lon="-3.7124650">
        <ele>596.0</ele>
        <time>2021-05-08T05:27:55Z</time>
      </trkpt>
      <trkpt lat="40.3729520" lon="-3.7125320">
        <ele>596.0</ele>
        <time>2021-05-08T05:27:56Z</time>
      </trkpt>
      <trkpt lat="40.3729690" lon="-3.7125950">
        <ele>595.9</ele>
        <time>2021-05-08T05:27:57Z</time>
      </trkpt>
      <trkpt lat="40.3730540" lon="-3.7126770">
        <ele>595.8</ele>
        <time>2021-05-08T05:27:59Z</time>
      </trkpt>
      <trkpt lat="40.3731760" lon="-3.7127230">
        <ele>595.8</ele>
        <time>2021-05-08T05:28:01Z</time>
      </trkpt>
      <trkpt lat="40.3732710" lon="-3.7128180">
        <ele>595.8</ele>
        <time>2021-05-08T05:28:03Z</time>
      </trkpt>
      <trkpt lat="40.3733330" lon="-3.7129530">
        <ele>595.8</ele>
        <time>2021-05-08T05:28:05Z</time>
      </trkpt>
      <trkpt lat="40.3733720" lon="-3.7131100">
        <ele>595.8</ele>
        <time>2021-05-08T05:28:07Z</time>
      </trkpt>
      <trkpt lat="40.3733920" lon="-3.7131900">
        <ele>595.9</ele>
        <time>2021-05-08T05:28:08Z</time>
      </trkpt>
      <trkpt lat="40.3734350" lon="-3.7133450">
        <ele>596.0</ele>
        <time>2021-05-08T05:28:10Z</time>
      </trkpt>
      <trkpt lat="40.3734650" lon="-3.7135030">
        <ele>596.2</ele>
        <time>2021-05-08T05:28:12Z</time>
      </trkpt>
      <trkpt lat="40.3734760" lon="-3.7135810">
        <ele>596.3</ele>
        <time>2021-05-08T05:28:13Z</time>
      </trkpt>
      <trkpt lat="40.3734830" lon="-3.7136580">
        <ele>596.5</ele>
        <time>2021-05-08T05:28:14Z</time>
      </trkpt>
      <trkpt lat="40.3734930" lon="-3.7138230">
        <ele>596.7</ele>
        <time>2021-05-08T05:28:16Z</time>
      </trkpt>
      <trkpt lat="40.3734940" lon="-3.7139040">
        <ele>596.8</ele>
        <time>2021-05-08T05:28:17Z</time>
      </trkpt>
      <trkpt lat="40.3734950" lon="-3.7139840">
        <ele>597.0</ele>
        <time>2021-05-08T05:28:18Z</time>
      </trkpt>
      <trkpt lat="40.3734970" lon="-3.7141390">
        <ele>597.2</ele>
        <time>2021-05-08T05:28:20Z</time>
      </trkpt>
      <trkpt lat="40.3735000" lon="-3.7142960">
        <ele>597.3</ele>
        <time>2021-05-08T05:28:22Z</time>
      </trkpt>
      <trkpt lat="40.3734990" lon="-3.7143720">
        <ele>597.4</ele>
        <time>2021-05-08T05:28:23Z</time>
      </trkpt>
      <trkpt lat="40.3734980" lon="-3.7144440">
        <ele>597.5</ele>
        <time>2021-05-08T05:28:24Z</time>
      </trkpt>
      <trkpt lat="40.3735010" lon="-3.7145920">
        <ele>597.7</ele>
        <time>2021-05-08T05:28:26Z</time>
      </trkpt>
      <trkpt lat="40.3735050" lon="-3.7146630">
        <ele>597.8</ele>
        <time>2021-05-08T05:28:27Z</time>
      </trkpt>
      <trkpt lat="40.3735060" lon="-3.7147320">
        <ele>597.9</ele>
        <time>2021-05-08T05:28:28Z</time>
      </trkpt>
      <trkpt lat="40.3735070" lon="-3.7148720">
        <ele>598.2</ele>
        <time>2021-05-08T05:28:30Z</time>
      </trkpt>
      <trkpt lat="40.3735050" lon="-3.7150110">
        <ele>598.4</ele>
        <time>2021-05-08T05:28:32Z</time>
      </trkpt>
      <trkpt lat="40.3735030" lon="-3.7151460">
        <ele>598.5</ele>
        <time>2021-05-08T05:28:34Z</time>
      </trkpt>
      <trkpt lat="40.3735000" lon="-3.7152100">
        <ele>598.6</ele>
        <time>2021-05-08T05:28:35Z</time>
      </trkpt>
      <trkpt lat="40.3735000" lon="-3.7153310">
        <ele>598.7</ele>
        <time>2021-05-08T05:28:37Z</time>
      </trkpt>
      <trkpt lat="40.3735010" lon="-3.7153880">
        <ele>598.7</ele>
        <time>2021-05-08T05:28:38Z</time>
      </trkpt>
      <trkpt lat="40.3734970" lon="-3.7155310">
        <ele>598.7</ele>
        <time>2021-05-08T05:28:40Z</time>
      </trkpt>
      <trkpt lat="40.3734890" lon="-3.7157010">
        <ele>598.9</ele>
        <time>2021-05-08T05:28:42Z</time>
      </trkpt>
      <trkpt lat="40.3734860" lon="-3.7157700">
        <ele>599.1</ele>
        <time>2021-05-08T05:28:43Z</time>
      </trkpt>
      <trkpt lat="40.3734770" lon="-3.7158770">
        <ele>599.3</ele>
        <time>2021-05-08T05:28:45Z</time>
      </trkpt>
      <trkpt lat="40.3734720" lon="-3.7159580">
        <ele>599.5</ele>
        <time>2021-05-08T05:28:47Z</time>
      </trkpt>
      <trkpt lat="40.3734690" lon="-3.7160850">
        <ele>599.6</ele>
        <time>2021-05-08T05:28:49Z</time>
      </trkpt>
      <trkpt lat="40.3734510" lon="-3.7161090">
        <ele>599.6</ele>
        <time>2021-05-08T05:28:50Z</time>
      </trkpt>
      <trkpt lat="40.3734460" lon="-3.7162080">
        <ele>599.7</ele>
        <time>2021-05-08T05:28:52Z</time>
      </trkpt>
      <trkpt lat="40.3734510" lon="-3.7162960">
        <ele>599.7</ele>
        <time>2021-05-08T05:28:53Z</time>
      </trkpt>
      <trkpt lat="40.3734570" lon="-3.7164130">
        <ele>599.8</ele>
        <time>2021-05-08T05:28:55Z</time>
      </trkpt>
      <trkpt lat="40.3734680" lon="-3.7164890">
        <ele>599.9</ele>
        <time>2021-05-08T05:28:56Z</time>
      </trkpt>
      <trkpt lat="40.3734670" lon="-3.7165550">
        <ele>599.9</ele>
        <time>2021-05-08T05:28:57Z</time>
      </trkpt>
      <trkpt lat="40.3734700" lon="-3.7166230">
        <ele>599.9</ele>
        <time>2021-05-08T05:28:58Z</time>
      </trkpt>
      <trkpt lat="40.3734680" lon="-3.7167580">
        <ele>600.0</ele>
        <time>2021-05-08T05:29:00Z</time>
      </trkpt>
      <trkpt lat="40.3734660" lon="-3.7168230">
        <ele>600.1</ele>
        <time>2021-05-08T05:29:01Z</time>
      </trkpt>
      <trkpt lat="40.3734650" lon="-3.7168860">
        <ele>600.1</ele>
        <time>2021-05-08T05:29:02Z</time>
      </trkpt>
      <trkpt lat="40.3734650" lon="-3.7169530">
        <ele>600.2</ele>
        <time>2021-05-08T05:29:03Z</time>
      </trkpt>
      <trkpt lat="40.3734670" lon="-3.7170840">
        <ele>600.2</ele>
        <time>2021-05-08T05:29:05Z</time>
      </trkpt>
      <trkpt lat="40.3734690" lon="-3.7171460">
        <ele>600.2</ele>
        <time>2021-05-08T05:29:06Z</time>
      </trkpt>
      <trkpt lat="40.3734700" lon="-3.7172120">
        <ele>600.2</ele>
        <time>2021-05-08T05:29:07Z</time>
      </trkpt>
      <trkpt lat="40.3734700" lon="-3.7172780">
        <ele>600.2</ele>
        <time>2021-05-08T05:29:08Z</time>
      </trkpt>
      <trkpt lat="40.3734690" lon="-3.7174170">
        <ele>600.1</ele>
        <time>2021-05-08T05:29:10Z</time>
      </trkpt>
      <trkpt lat="40.3734670" lon="-3.7174880">
        <ele>600.0</ele>
        <time>2021-05-08T05:29:11Z</time>
      </trkpt>
      <trkpt lat="40.3734640" lon="-3.7176490">
        <ele>599.8</ele>
        <time>2021-05-08T05:29:13Z</time>
      </trkpt>
      <trkpt lat="40.3734630" lon="-3.7177490">
        <ele>600.0</ele>
        <time>2021-05-08T05:29:14Z</time>
      </trkpt>
      <trkpt lat="40.3734650" lon="-3.7179050">
        <ele>600.1</ele>
        <time>2021-05-08T05:29:16Z</time>
      </trkpt>
      <trkpt lat="40.3734660" lon="-3.7180240">
        <ele>600.2</ele>
        <time>2021-05-08T05:29:18Z</time>
      </trkpt>
      <trkpt lat="40.3734650" lon="-3.7180860">
        <ele>600.3</ele>
        <time>2021-05-08T05:29:19Z</time>
      </trkpt>
      <trkpt lat="40.3734600" lon="-3.7182300">
        <ele>600.4</ele>
        <time>2021-05-08T05:29:21Z</time>
      </trkpt>
      <trkpt lat="40.3734610" lon="-3.7182990">
        <ele>600.5</ele>
        <time>2021-05-08T05:29:22Z</time>
      </trkpt>
      <trkpt lat="40.3734600" lon="-3.7183640">
        <ele>600.5</ele>
        <time>2021-05-08T05:29:23Z</time>
      </trkpt>
      <trkpt lat="40.3734530" lon="-3.7184920">
        <ele>600.6</ele>
        <time>2021-05-08T05:29:25Z</time>
      </trkpt>
      <trkpt lat="40.3734480" lon="-3.7185570">
        <ele>600.7</ele>
        <time>2021-05-08T05:29:26Z</time>
      </trkpt>
      <trkpt lat="40.3734420" lon="-3.7186890">
        <ele>600.8</ele>
        <time>2021-05-08T05:29:28Z</time>
      </trkpt>
      <trkpt lat="40.3734330" lon="-3.7188160">
        <ele>600.9</ele>
        <time>2021-05-08T05:29:30Z</time>
      </trkpt>
      <trkpt lat="40.3734250" lon="-3.7188770">
        <ele>600.9</ele>
        <time>2021-05-08T05:29:31Z</time>
      </trkpt>
      <trkpt lat="40.3734210" lon="-3.7189450">
        <ele>600.9</ele>
        <time>2021-05-08T05:29:32Z</time>
      </trkpt>
      <trkpt lat="40.3734150" lon="-3.7190660">
        <ele>601.0</ele>
        <time>2021-05-08T05:29:34Z</time>
      </trkpt>
      <trkpt lat="40.3734080" lon="-3.7191940">
        <ele>601.1</ele>
        <time>2021-05-08T05:29:36Z</time>
      </trkpt>
      <trkpt lat="40.3734160" lon="-3.7193400">
        <ele>601.1</ele>
        <time>2021-05-08T05:29:38Z</time>
      </trkpt>
      <trkpt lat="40.3734190" lon="-3.7194060">
        <ele>601.1</ele>
        <time>2021-05-08T05:29:39Z</time>
      </trkpt>
      <trkpt lat="40.3734210" lon="-3.7194710">
        <ele>601.2</ele>
        <time>2021-05-08T05:29:41Z</time>
      </trkpt>
      <trkpt lat="40.3734200" lon="-3.7194800">
        <ele>601.2</ele>
        <time>2021-05-08T05:29:42Z</time>
      </trkpt>
      <trkpt lat="40.3734200" lon="-3.7194680">
        <ele>601.2</ele>
        <time>2021-05-08T05:29:44Z</time>
      </trkpt>
      <trkpt lat="40.3734200" lon="-3.7194670">
        <ele>601.2</ele>
        <time>2021-05-08T05:29:45Z</time>
      </trkpt>
      <trkpt lat="40.3734200" lon="-3.7194660">
        <ele>601.2</ele>
        <time>2021-05-08T05:29:46Z</time>
      </trkpt>
      <trkpt lat="40.3734190" lon="-3.7194660">
        <ele>601.2</ele>
        <time>2021-05-08T05:29:47Z</time>
      </trkpt>
      <trkpt lat="40.3734200" lon="-3.7194650">
        <ele>601.2</ele>
        <time>2021-05-08T05:29:49Z</time>
      </trkpt>
      <trkpt lat="40.3734210" lon="-3.7194660">
        <ele>601.2</ele>
        <time>2021-05-08T05:29:51Z</time>
      </trkpt>
      <trkpt lat="40.3734220" lon="-3.7194650">
        <ele>601.2</ele>
        <time>2021-05-08T05:29:52Z</time>
      </trkpt>
      <trkpt lat="40.3734490" lon="-3.7195130">
        <ele>601.2</ele>
        <time>2021-05-08T05:30:14Z</time>
      </trkpt>
      <trkpt lat="40.3734450" lon="-3.7195520">
        <ele>601.2</ele>
        <time>2021-05-08T05:30:15Z</time>
      </trkpt>
      <trkpt lat="40.3734360" lon="-3.7196070">
        <ele>601.3</ele>
        <time>2021-05-08T05:30:17Z</time>
      </trkpt>
      <trkpt lat="40.3734310" lon="-3.7196710">
        <ele>601.3</ele>
        <time>2021-05-08T05:30:18Z</time>
      </trkpt>
      <trkpt lat="40.3734270" lon="-3.7197000">
        <ele>601.3</ele>
        <time>2021-05-08T05:30:19Z</time>
      </trkpt>
      <trkpt lat="40.3734250" lon="-3.7197590">
        <ele>601.4</ele>
        <time>2021-05-08T05:30:21Z</time>
      </trkpt>
      <trkpt lat="40.3734170" lon="-3.7198240">
        <ele>601.4</ele>
        <time>2021-05-08T05:30:22Z</time>
      </trkpt>
      <trkpt lat="40.3734060" lon="-3.7198820">
        <ele>601.4</ele>
        <time>2021-05-08T05:30:24Z</time>
      </trkpt>
      <trkpt lat="40.3734090" lon="-3.7199420">
        <ele>601.4</ele>
        <time>2021-05-08T05:30:25Z</time>
      </trkpt>
      <trkpt lat="40.3734590" lon="-3.7201280">
        <ele>601.4</ele>
        <time>2021-05-08T05:30:27Z</time>
      </trkpt>
      <trkpt lat="40.3734870" lon="-3.7202000">
        <ele>601.4</ele>
        <time>2021-05-08T05:30:28Z</time>
      </trkpt>
      <trkpt lat="40.3735240" lon="-3.7202450">
        <ele>601.4</ele>
        <time>2021-05-08T05:30:29Z</time>
      </trkpt>
      <trkpt lat="40.3735530" lon="-3.7202860">
        <ele>601.4</ele>
        <time>2021-05-08T05:30:30Z</time>
      </trkpt>
      <trkpt lat="40.3735670" lon="-3.7203750">
        <ele>601.4</ele>
        <time>2021-05-08T05:30:32Z</time>
      </trkpt>
      <trkpt lat="40.3735660" lon="-3.7204010">
        <ele>601.4</ele>
        <time>2021-05-08T05:30:33Z</time>
      </trkpt>
      <trkpt lat="40.3735570" lon="-3.7205140">
        <ele>601.4</ele>
        <time>2021-05-08T05:30:35Z</time>
      </trkpt>
      <trkpt lat="40.3735550" lon="-3.7205670">
        <ele>601.4</ele>
        <time>2021-05-08T05:30:36Z</time>
      </trkpt>
      <trkpt lat="40.3735560" lon="-3.7206260">
        <ele>601.4</ele>
        <time>2021-05-08T05:30:37Z</time>
      </trkpt>
      <trkpt lat="40.3735570" lon="-3.7207330">
        <ele>601.4</ele>
        <time>2021-05-08T05:30:39Z</time>
      </trkpt>
      <trkpt lat="40.3735520" lon="-3.7208320">
        <ele>601.5</ele>
        <time>2021-05-08T05:30:40Z</time>
      </trkpt>
      <trkpt lat="40.3735440" lon="-3.7208940">
        <ele>601.5</ele>
        <time>2021-05-08T05:30:41Z</time>
      </trkpt>
      <trkpt lat="40.3735360" lon="-3.7209480">
        <ele>601.5</ele>
        <time>2021-05-08T05:30:42Z</time>
      </trkpt>
      <trkpt lat="40.3735340" lon="-3.7210200">
        <ele>601.6</ele>
        <time>2021-05-08T05:30:44Z</time>
      </trkpt>
      <trkpt lat="40.3735520" lon="-3.7210480">
        <ele>601.6</ele>
        <time>2021-05-08T05:30:45Z</time>
      </trkpt>
      <trkpt lat="40.3735490" lon="-3.7211050">
        <ele>601.7</ele>
        <time>2021-05-08T05:30:46Z</time>
      </trkpt>
      <trkpt lat="40.3735290" lon="-3.7212760">
        <ele>601.8</ele>
        <time>2021-05-08T05:30:48Z</time>
      </trkpt>
      <trkpt lat="40.3735240" lon="-3.7213610">
        <ele>601.8</ele>
        <time>2021-05-08T05:30:50Z</time>
      </trkpt>
      <trkpt lat="40.3735190" lon="-3.7214230">
        <ele>601.9</ele>
        <time>2021-05-08T05:30:51Z</time>
      </trkpt>
      <trkpt lat="40.3735110" lon="-3.7215450">
        <ele>601.9</ele>
        <time>2021-05-08T05:30:53Z</time>
      </trkpt>
      <trkpt lat="40.3735070" lon="-3.7216190">
        <ele>602.0</ele>
        <time>2021-05-08T05:30:54Z</time>
      </trkpt>
      <trkpt lat="40.3735130" lon="-3.7217550">
        <ele>602.1</ele>
        <time>2021-05-08T05:30:56Z</time>
      </trkpt>
      <trkpt lat="40.3735200" lon="-3.7218260">
        <ele>602.1</ele>
        <time>2021-05-08T05:30:57Z</time>
      </trkpt>
      <trkpt lat="40.3735050" lon="-3.7219650">
        <ele>602.2</ele>
        <time>2021-05-08T05:30:59Z</time>
      </trkpt>
      <trkpt lat="40.3734890" lon="-3.7220910">
        <ele>602.3</ele>
        <time>2021-05-08T05:31:01Z</time>
      </trkpt>
      <trkpt lat="40.3734800" lon="-3.7222270">
        <ele>602.3</ele>
        <time>2021-05-08T05:31:03Z</time>
      </trkpt>
      <trkpt lat="40.3734700" lon="-3.7223630">
        <ele>602.4</ele>
        <time>2021-05-08T05:31:05Z</time>
      </trkpt>
      <trkpt lat="40.3734640" lon="-3.7224330">
        <ele>602.4</ele>
        <time>2021-05-08T05:31:06Z</time>
      </trkpt>
      <trkpt lat="40.3734570" lon="-3.7225020">
        <ele>602.4</ele>
        <time>2021-05-08T05:31:07Z</time>
      </trkpt>
      <trkpt lat="40.3734440" lon="-3.7226380">
        <ele>602.5</ele>
        <time>2021-05-08T05:31:09Z</time>
      </trkpt>
      <trkpt lat="40.3734350" lon="-3.7227030">
        <ele>602.5</ele>
        <time>2021-05-08T05:31:10Z</time>
      </trkpt>
      <trkpt lat="40.3734250" lon="-3.7228250">
        <ele>602.6</ele>
        <time>2021-05-08T05:31:12Z</time>
      </trkpt>
      <trkpt lat="40.3734240" lon="-3.7228930">
        <ele>602.6</ele>
        <time>2021-05-08T05:31:13Z</time>
      </trkpt>
      <trkpt lat="40.3734240" lon="-3.7229610">
        <ele>602.7</ele>
        <time>2021-05-08T05:31:14Z</time>
      </trkpt>
      <trkpt lat="40.3734200" lon="-3.7231010">
        <ele>602.7</ele>
        <time>2021-05-08T05:31:16Z</time>
      </trkpt>
      <trkpt lat="40.3734170" lon="-3.7232330">
        <ele>602.8</ele>
        <time>2021-05-08T05:31:18Z</time>
      </trkpt>
      <trkpt lat="40.3734120" lon="-3.7233010">
        <ele>602.8</ele>
        <time>2021-05-08T05:31:19Z</time>
      </trkpt>
      <trkpt lat="40.3734030" lon="-3.7234410">
        <ele>602.9</ele>
        <time>2021-05-08T05:31:21Z</time>
      </trkpt>
      <trkpt lat="40.3733980" lon="-3.7235150">
        <ele>603.0</ele>
        <time>2021-05-08T05:31:22Z</time>
      </trkpt>
      <trkpt lat="40.3733950" lon="-3.7235930">
        <ele>603.1</ele>
        <time>2021-05-08T05:31:23Z</time>
      </trkpt>
      <trkpt lat="40.3733900" lon="-3.7237470">
        <ele>603.2</ele>
        <time>2021-05-08T05:31:25Z</time>
      </trkpt>
      <trkpt lat="40.3733820" lon="-3.7238960">
        <ele>603.4</ele>
        <time>2021-05-08T05:31:27Z</time>
      </trkpt>
      <trkpt lat="40.3733760" lon="-3.7239660">
        <ele>603.5</ele>
        <time>2021-05-08T05:31:28Z</time>
      </trkpt>
      <trkpt lat="40.3733650" lon="-3.7241270">
        <ele>603.8</ele>
        <time>2021-05-08T05:31:30Z</time>
      </trkpt>
      <trkpt lat="40.3733510" lon="-3.7242730">
        <ele>604.0</ele>
        <time>2021-05-08T05:31:32Z</time>
      </trkpt>
      <trkpt lat="40.3733400" lon="-3.7244170">
        <ele>604.3</ele>
        <time>2021-05-08T05:31:34Z</time>
      </trkpt>
      <trkpt lat="40.3733370" lon="-3.7244880">
        <ele>604.4</ele>
        <time>2021-05-08T05:31:35Z</time>
      </trkpt>
      <trkpt lat="40.3733370" lon="-3.7246370">
        <ele>604.7</ele>
        <time>2021-05-08T05:31:37Z</time>
      </trkpt>
      <trkpt lat="40.3733260" lon="-3.7247820">
        <ele>605.0</ele>
        <time>2021-05-08T05:31:39Z</time>
      </trkpt>
      <trkpt lat="40.3733190" lon="-3.7248530">
        <ele>605.2</ele>
        <time>2021-05-08T05:31:40Z</time>
      </trkpt>
      <trkpt lat="40.3733120" lon="-3.7249160">
        <ele>605.3</ele>
        <time>2021-05-08T05:31:41Z</time>
      </trkpt>
      <trkpt lat="40.3733270" lon="-3.7250330">
        <ele>605.6</ele>
        <time>2021-05-08T05:31:43Z</time>
      </trkpt>
      <trkpt lat="40.3733460" lon="-3.7250950">
        <ele>605.7</ele>
        <time>2021-05-08T05:31:44Z</time>
      </trkpt>
      <trkpt lat="40.3733550" lon="-3.7252290">
        <ele>605.8</ele>
        <time>2021-05-08T05:31:46Z</time>
      </trkpt>
      <trkpt lat="40.3733460" lon="-3.7253130">
        <ele>605.9</ele>
        <time>2021-05-08T05:31:47Z</time>
      </trkpt>
      <trkpt lat="40.3733390" lon="-3.7254470">
        <ele>606.1</ele>
        <time>2021-05-08T05:31:49Z</time>
      </trkpt>
      <trkpt lat="40.3733330" lon="-3.7255870">
        <ele>606.3</ele>
        <time>2021-05-08T05:31:51Z</time>
      </trkpt>
      <trkpt lat="40.3733290" lon="-3.7256550">
        <ele>606.4</ele>
        <time>2021-05-08T05:31:52Z</time>
      </trkpt>
      <trkpt lat="40.3733240" lon="-3.7257860">
        <ele>606.5</ele>
        <time>2021-05-08T05:31:54Z</time>
      </trkpt>
      <trkpt lat="40.3733170" lon="-3.7259150">
        <ele>606.7</ele>
        <time>2021-05-08T05:31:56Z</time>
      </trkpt>
      <trkpt lat="40.3733080" lon="-3.7260570">
        <ele>606.8</ele>
        <time>2021-05-08T05:31:58Z</time>
      </trkpt>
      <trkpt lat="40.3732610" lon="-3.7261620">
        <ele>606.9</ele>
        <time>2021-05-08T05:32:00Z</time>
      </trkpt>
      <trkpt lat="40.3732390" lon="-3.7261880">
        <ele>607.0</ele>
        <time>2021-05-08T05:32:01Z</time>
      </trkpt>
      <trkpt lat="40.3732110" lon="-3.7262730">
        <ele>607.1</ele>
        <time>2021-05-08T05:32:03Z</time>
      </trkpt>
      <trkpt lat="40.3732040" lon="-3.7263350">
        <ele>607.3</ele>
        <time>2021-05-08T05:32:04Z</time>
      </trkpt>
      <trkpt lat="40.3732000" lon="-3.7264750">
        <ele>607.4</ele>
        <time>2021-05-08T05:32:06Z</time>
      </trkpt>
      <trkpt lat="40.3731970" lon="-3.7265430">
        <ele>607.4</ele>
        <time>2021-05-08T05:32:07Z</time>
      </trkpt>
      <trkpt lat="40.3731900" lon="-3.7266640">
        <ele>607.6</ele>
        <time>2021-05-08T05:32:09Z</time>
      </trkpt>
      <trkpt lat="40.3731880" lon="-3.7267300">
        <ele>607.6</ele>
        <time>2021-05-08T05:32:10Z</time>
      </trkpt>
      <trkpt lat="40.3731890" lon="-3.7268490">
        <ele>607.8</ele>
        <time>2021-05-08T05:32:12Z</time>
      </trkpt>
      <trkpt lat="40.3731860" lon="-3.7269700">
        <ele>607.9</ele>
        <time>2021-05-08T05:32:14Z</time>
      </trkpt>
      <trkpt lat="40.3731870" lon="-3.7270340">
        <ele>608.0</ele>
        <time>2021-05-08T05:32:15Z</time>
      </trkpt>
      <trkpt lat="40.3731840" lon="-3.7271580">
        <ele>608.3</ele>
        <time>2021-05-08T05:32:17Z</time>
      </trkpt>
      <trkpt lat="40.3731810" lon="-3.7272570">
        <ele>608.5</ele>
        <time>2021-05-08T05:32:19Z</time>
      </trkpt>
      <trkpt lat="40.3731780" lon="-3.7273240">
        <ele>608.7</ele>
        <time>2021-05-08T05:32:20Z</time>
      </trkpt>
      <trkpt lat="40.3731710" lon="-3.7274370">
        <ele>609.0</ele>
        <time>2021-05-08T05:32:22Z</time>
      </trkpt>
      <trkpt lat="40.3731640" lon="-3.7274790">
        <ele>609.1</ele>
        <time>2021-05-08T05:32:24Z</time>
      </trkpt>
      <trkpt lat="40.3731580" lon="-3.7276100">
        <ele>609.4</ele>
        <time>2021-05-08T05:32:26Z</time>
      </trkpt>
      <trkpt lat="40.3731550" lon="-3.7277050">
        <ele>609.6</ele>
        <time>2021-05-08T05:32:27Z</time>
      </trkpt>
      <trkpt lat="40.3731540" lon="-3.7278480">
        <ele>610.0</ele>
        <time>2021-05-08T05:32:29Z</time>
      </trkpt>
      <trkpt lat="40.3731480" lon="-3.7279210">
        <ele>610.2</ele>
        <time>2021-05-08T05:32:31Z</time>
      </trkpt>
      <trkpt lat="40.3731480" lon="-3.7279840">
        <ele>610.4</ele>
        <time>2021-05-08T05:32:32Z</time>
      </trkpt>
      <trkpt lat="40.3731510" lon="-3.7280280">
        <ele>610.5</ele>
        <time>2021-05-08T05:32:33Z</time>
      </trkpt>
      <trkpt lat="40.3731520" lon="-3.7281260">
        <ele>610.8</ele>
        <time>2021-05-08T05:32:35Z</time>
      </trkpt>
      <trkpt lat="40.3731540" lon="-3.7281740">
        <ele>610.9</ele>
        <time>2021-05-08T05:32:36Z</time>
      </trkpt>
      <trkpt lat="40.3731560" lon="-3.7282720">
        <ele>611.1</ele>
        <time>2021-05-08T05:32:38Z</time>
      </trkpt>
      <trkpt lat="40.3731580" lon="-3.7283250">
        <ele>611.2</ele>
        <time>2021-05-08T05:32:39Z</time>
      </trkpt>
      <trkpt lat="40.3731610" lon="-3.7283730">
        <ele>611.4</ele>
        <time>2021-05-08T05:32:40Z</time>
      </trkpt>
      <trkpt lat="40.3731610" lon="-3.7284220">
        <ele>611.5</ele>
        <time>2021-05-08T05:32:41Z</time>
      </trkpt>
      <trkpt lat="40.3731540" lon="-3.7285190">
        <ele>611.7</ele>
        <time>2021-05-08T05:32:43Z</time>
      </trkpt>
      <trkpt lat="40.3731460" lon="-3.7285680">
        <ele>611.8</ele>
        <time>2021-05-08T05:32:44Z</time>
      </trkpt>
      <trkpt lat="40.3731420" lon="-3.7286550">
        <ele>611.9</ele>
        <time>2021-05-08T05:32:46Z</time>
      </trkpt>
      <trkpt lat="40.3731370" lon="-3.7287080">
        <ele>612.0</ele>
        <time>2021-05-08T05:32:47Z</time>
      </trkpt>
      <trkpt lat="40.3731290" lon="-3.7287840">
        <ele>612.1</ele>
        <time>2021-05-08T05:32:49Z</time>
      </trkpt>
      <trkpt lat="40.3731270" lon="-3.7288470">
        <ele>612.2</ele>
        <time>2021-05-08T05:32:51Z</time>
      </trkpt>
      <trkpt lat="40.3731250" lon="-3.7288810">
        <ele>612.2</ele>
        <time>2021-05-08T05:32:52Z</time>
      </trkpt>
      <trkpt lat="40.3731220" lon="-3.7289720">
        <ele>612.4</ele>
        <time>2021-05-08T05:32:54Z</time>
      </trkpt>
      <trkpt lat="40.3731210" lon="-3.7290610">
        <ele>612.4</ele>
        <time>2021-05-08T05:32:56Z</time>
      </trkpt>
      <trkpt lat="40.3731190" lon="-3.7292020">
        <ele>612.6</ele>
        <time>2021-05-08T05:32:58Z</time>
      </trkpt>
      <trkpt lat="40.3731220" lon="-3.7292720">
        <ele>612.7</ele>
        <time>2021-05-08T05:32:59Z</time>
      </trkpt>
      <trkpt lat="40.3731260" lon="-3.7293410">
        <ele>612.7</ele>
        <time>2021-05-08T05:33:00Z</time>
      </trkpt>
      <trkpt lat="40.3731340" lon="-3.7294690">
        <ele>612.8</ele>
        <time>2021-05-08T05:33:02Z</time>
      </trkpt>
      <trkpt lat="40.3731420" lon="-3.7296040">
        <ele>612.9</ele>
        <time>2021-05-08T05:33:04Z</time>
      </trkpt>
      <trkpt lat="40.3731510" lon="-3.7297300">
        <ele>612.9</ele>
        <time>2021-05-08T05:33:06Z</time>
      </trkpt>
      <trkpt lat="40.3731540" lon="-3.7297980">
        <ele>612.9</ele>
        <time>2021-05-08T05:33:07Z</time>
      </trkpt>
      <trkpt lat="40.3731630" lon="-3.7299390">
        <ele>612.9</ele>
        <time>2021-05-08T05:33:09Z</time>
      </trkpt>
      <trkpt lat="40.3731720" lon="-3.7300880">
        <ele>613.0</ele>
        <time>2021-05-08T05:33:11Z</time>
      </trkpt>
      <trkpt lat="40.3731800" lon="-3.7301600">
        <ele>613.0</ele>
        <time>2021-05-08T05:33:12Z</time>
      </trkpt>
      <trkpt lat="40.3731950" lon="-3.7302860">
        <ele>613.1</ele>
        <time>2021-05-08T05:33:14Z</time>
      </trkpt>
      <trkpt lat="40.3732090" lon="-3.7304100">
        <ele>613.1</ele>
        <time>2021-05-08T05:33:16Z</time>
      </trkpt>
      <trkpt lat="40.3732140" lon="-3.7304740">
        <ele>613.2</ele>
        <time>2021-05-08T05:33:17Z</time>
      </trkpt>
      <trkpt lat="40.3732180" lon="-3.7305360">
        <ele>613.2</ele>
        <time>2021-05-08T05:33:18Z</time>
      </trkpt>
      <trkpt lat="40.3732230" lon="-3.7306060">
        <ele>613.3</ele>
        <time>2021-05-08T05:33:19Z</time>
      </trkpt>
      <trkpt lat="40.3732280" lon="-3.7306730">
        <ele>613.4</ele>
        <time>2021-05-08T05:33:20Z</time>
      </trkpt>
      <trkpt lat="40.3732370" lon="-3.7308000">
        <ele>613.5</ele>
        <time>2021-05-08T05:33:22Z</time>
      </trkpt>
      <trkpt lat="40.3732420" lon="-3.7308590">
        <ele>613.6</ele>
        <time>2021-05-08T05:33:23Z</time>
      </trkpt>
      <trkpt lat="40.3732490" lon="-3.7309260">
        <ele>613.6</ele>
        <time>2021-05-08T05:33:24Z</time>
      </trkpt>
      <trkpt lat="40.3732600" lon="-3.7310560">
        <ele>613.8</ele>
        <time>2021-05-08T05:33:26Z</time>
      </trkpt>
      <trkpt lat="40.3732630" lon="-3.7311180">
        <ele>613.8</ele>
        <time>2021-05-08T05:33:27Z</time>
      </trkpt>
      <trkpt lat="40.3732700" lon="-3.7312570">
        <ele>613.9</ele>
        <time>2021-05-08T05:33:29Z</time>
      </trkpt>
      <trkpt lat="40.3732850" lon="-3.7313990">
        <ele>614.1</ele>
        <time>2021-05-08T05:33:31Z</time>
      </trkpt>
      <trkpt lat="40.3733100" lon="-3.7315450">
        <ele>614.2</ele>
        <time>2021-05-08T05:33:33Z</time>
      </trkpt>
      <trkpt lat="40.3733290" lon="-3.7316800">
        <ele>614.4</ele>
        <time>2021-05-08T05:33:35Z</time>
      </trkpt>
      <trkpt lat="40.3733390" lon="-3.7317490">
        <ele>614.5</ele>
        <time>2021-05-08T05:33:36Z</time>
      </trkpt>
      <trkpt lat="40.3733460" lon="-3.7318130">
        <ele>614.6</ele>
        <time>2021-05-08T05:33:37Z</time>
      </trkpt>
      <trkpt lat="40.3733510" lon="-3.7318790">
        <ele>614.6</ele>
        <time>2021-05-08T05:33:38Z</time>
      </trkpt>
      <trkpt lat="40.3733640" lon="-3.7320140">
        <ele>614.8</ele>
        <time>2021-05-08T05:33:40Z</time>
      </trkpt>
      <trkpt lat="40.3733770" lon="-3.7321540">
        <ele>614.9</ele>
        <time>2021-05-08T05:33:42Z</time>
      </trkpt>
      <trkpt lat="40.3733900" lon="-3.7322920">
        <ele>615.1</ele>
        <time>2021-05-08T05:33:44Z</time>
      </trkpt>
      <trkpt lat="40.3734020" lon="-3.7324350">
        <ele>615.2</ele>
        <time>2021-05-08T05:33:46Z</time>
      </trkpt>
      <trkpt lat="40.3734040" lon="-3.7325030">
        <ele>615.3</ele>
        <time>2021-05-08T05:33:47Z</time>
      </trkpt>
      <trkpt lat="40.3734110" lon="-3.7326400">
        <ele>615.5</ele>
        <time>2021-05-08T05:33:49Z</time>
      </trkpt>
      <trkpt lat="40.3734130" lon="-3.7327130">
        <ele>615.6</ele>
        <time>2021-05-08T05:33:50Z</time>
      </trkpt>
      <trkpt lat="40.3734160" lon="-3.7327810">
        <ele>615.6</ele>
        <time>2021-05-08T05:33:51Z</time>
      </trkpt>
      <trkpt lat="40.3734200" lon="-3.7329130">
        <ele>615.8</ele>
        <time>2021-05-08T05:33:53Z</time>
      </trkpt>
      <trkpt lat="40.3734170" lon="-3.7330370">
        <ele>615.9</ele>
        <time>2021-05-08T05:33:55Z</time>
      </trkpt>
      <trkpt lat="40.3734070" lon="-3.7331670">
        <ele>616.0</ele>
        <time>2021-05-08T05:33:57Z</time>
      </trkpt>
      <trkpt lat="40.3734010" lon="-3.7332310">
        <ele>616.0</ele>
        <time>2021-05-08T05:33:58Z</time>
      </trkpt>
      <trkpt lat="40.3733810" lon="-3.7333610">
        <ele>616.1</ele>
        <time>2021-05-08T05:34:00Z</time>
      </trkpt>
      <trkpt lat="40.3733680" lon="-3.7334270">
        <ele>616.1</ele>
        <time>2021-05-08T05:34:01Z</time>
      </trkpt>
      <trkpt lat="40.3733540" lon="-3.7335050">
        <ele>616.2</ele>
        <time>2021-05-08T05:34:02Z</time>
      </trkpt>
      <trkpt lat="40.3733310" lon="-3.7336250">
        <ele>616.2</ele>
        <time>2021-05-08T05:34:04Z</time>
      </trkpt>
      <trkpt lat="40.3732980" lon="-3.7337580">
        <ele>616.3</ele>
        <time>2021-05-08T05:34:06Z</time>
      </trkpt>
      <trkpt lat="40.3732810" lon="-3.7338220">
        <ele>616.4</ele>
        <time>2021-05-08T05:34:07Z</time>
      </trkpt>
      <trkpt lat="40.3732540" lon="-3.7339390">
        <ele>616.4</ele>
        <time>2021-05-08T05:34:09Z</time>
      </trkpt>
      <trkpt lat="40.3732450" lon="-3.7339980">
        <ele>616.5</ele>
        <time>2021-05-08T05:34:10Z</time>
      </trkpt>
      <trkpt lat="40.3732380" lon="-3.7340560">
        <ele>616.5</ele>
        <time>2021-05-08T05:34:11Z</time>
      </trkpt>
      <trkpt lat="40.3732330" lon="-3.7341150">
        <ele>616.5</ele>
        <time>2021-05-08T05:34:12Z</time>
      </trkpt>
      <trkpt lat="40.3732280" lon="-3.7342400">
        <ele>616.6</ele>
        <time>2021-05-08T05:34:14Z</time>
      </trkpt>
      <trkpt lat="40.3732240" lon="-3.7343180">
        <ele>616.6</ele>
        <time>2021-05-08T05:34:16Z</time>
      </trkpt>
      <trkpt lat="40.3732480" lon="-3.7344040">
        <ele>616.7</ele>
        <time>2021-05-08T05:34:18Z</time>
      </trkpt>
      <trkpt lat="40.3733010" lon="-3.7344510">
        <ele>616.8</ele>
        <time>2021-05-08T05:34:20Z</time>
      </trkpt>
      <trkpt lat="40.3733180" lon="-3.7344740">
        <ele>616.8</ele>
        <time>2021-05-08T05:34:22Z</time>
      </trkpt>
      <trkpt lat="40.3733230" lon="-3.7344760">
        <ele>616.8</ele>
        <time>2021-05-08T05:34:24Z</time>
      </trkpt>
      <trkpt lat="40.3733280" lon="-3.7344780">
        <ele>616.8</ele>
        <time>2021-05-08T05:34:25Z</time>
      </trkpt>
      <trkpt lat="40.3733330" lon="-3.7344810">
        <ele>616.9</ele>
        <time>2021-05-08T05:34:26Z</time>
      </trkpt>
      <trkpt lat="40.3733380" lon="-3.7344830">
        <ele>616.9</ele>
        <time>2021-05-08T05:34:27Z</time>
      </trkpt>
      <trkpt lat="40.3733430" lon="-3.7344850">
        <ele>616.9</ele>
        <time>2021-05-08T05:34:28Z</time>
      </trkpt>
      <trkpt lat="40.3733830" lon="-3.7345270">
        <ele>617.0</ele>
        <time>2021-05-08T05:34:30Z</time>
      </trkpt>
      <trkpt lat="40.3734170" lon="-3.7345460">
        <ele>617.0</ele>
        <time>2021-05-08T05:34:31Z</time>
      </trkpt>
      <trkpt lat="40.3735000" lon="-3.7345550">
        <ele>617.2</ele>
        <time>2021-05-08T05:34:33Z</time>
      </trkpt>
      <trkpt lat="40.3735390" lon="-3.7345640">
        <ele>617.3</ele>
        <time>2021-05-08T05:34:34Z</time>
      </trkpt>
      <trkpt lat="40.3735760" lon="-3.7345860">
        <ele>617.4</ele>
        <time>2021-05-08T05:34:35Z</time>
      </trkpt>
      <trkpt lat="40.3736100" lon="-3.7346500">
        <ele>617.6</ele>
        <time>2021-05-08T05:34:36Z</time>
      </trkpt>
      <trkpt lat="40.3736190" lon="-3.7347290">
        <ele>617.7</ele>
        <time>2021-05-08T05:34:38Z</time>
      </trkpt>
      <trkpt lat="40.3736140" lon="-3.7347900">
        <ele>617.8</ele>
        <time>2021-05-08T05:34:39Z</time>
      </trkpt>
      <trkpt lat="40.3736120" lon="-3.7348440">
        <ele>617.9</ele>
        <time>2021-05-08T05:34:40Z</time>
      </trkpt>
      <trkpt lat="40.3736090" lon="-3.7349490">
        <ele>618.0</ele>
        <time>2021-05-08T05:34:42Z</time>
      </trkpt>
      <trkpt lat="40.3736150" lon="-3.7350550">
        <ele>618.1</ele>
        <time>2021-05-08T05:34:44Z</time>
      </trkpt>
      <trkpt lat="40.3736230" lon="-3.7351400">
        <ele>618.2</ele>
        <time>2021-05-08T05:34:45Z</time>
      </trkpt>
      <trkpt lat="40.3736260" lon="-3.7352210">
        <ele>618.3</ele>
        <time>2021-05-08T05:34:47Z</time>
      </trkpt>
      <trkpt lat="40.3736320" lon="-3.7353180">
        <ele>618.5</ele>
        <time>2021-05-08T05:34:49Z</time>
      </trkpt>
      <trkpt lat="40.3736460" lon="-3.7353890">
        <ele>618.6</ele>
        <time>2021-05-08T05:34:50Z</time>
      </trkpt>
      <trkpt lat="40.3736600" lon="-3.7354460">
        <ele>618.7</ele>
        <time>2021-05-08T05:34:51Z</time>
      </trkpt>
      <trkpt lat="40.3736860" lon="-3.7355650">
        <ele>618.9</ele>
        <time>2021-05-08T05:34:53Z</time>
      </trkpt>
      <trkpt lat="40.3736970" lon="-3.7356720">
        <ele>619.0</ele>
        <time>2021-05-08T05:34:54Z</time>
      </trkpt>
      <trkpt lat="40.3737090" lon="-3.7357570">
        <ele>619.1</ele>
        <time>2021-05-08T05:34:56Z</time>
      </trkpt>
      <trkpt lat="40.3737160" lon="-3.7358160">
        <ele>619.2</ele>
        <time>2021-05-08T05:34:57Z</time>
      </trkpt>
      <trkpt lat="40.3737150" lon="-3.7359130">
        <ele>619.3</ele>
        <time>2021-05-08T05:34:58Z</time>
      </trkpt>
      <trkpt lat="40.3737120" lon="-3.7359720">
        <ele>619.4</ele>
        <time>2021-05-08T05:34:59Z</time>
      </trkpt>
      <trkpt lat="40.3737060" lon="-3.7360350">
        <ele>619.5</ele>
        <time>2021-05-08T05:35:00Z</time>
      </trkpt>
      <trkpt lat="40.3736960" lon="-3.7361130">
        <ele>619.6</ele>
        <time>2021-05-08T05:35:02Z</time>
      </trkpt>
      <trkpt lat="40.3736840" lon="-3.7361700">
        <ele>619.7</ele>
        <time>2021-05-08T05:35:03Z</time>
      </trkpt>
      <trkpt lat="40.3736720" lon="-3.7362230">
        <ele>619.8</ele>
        <time>2021-05-08T05:35:04Z</time>
      </trkpt>
      <trkpt lat="40.3736550" lon="-3.7363530">
        <ele>620.0</ele>
        <time>2021-05-08T05:35:06Z</time>
      </trkpt>
      <trkpt lat="40.3736570" lon="-3.7364100">
        <ele>620.1</ele>
        <time>2021-05-08T05:35:07Z</time>
      </trkpt>
      <trkpt lat="40.3736620" lon="-3.7365100">
        <ele>620.3</ele>
        <time>2021-05-08T05:35:08Z</time>
      </trkpt>
      <trkpt lat="40.3736750" lon="-3.7365890">
        <ele>620.4</ele>
        <time>2021-05-08T05:35:10Z</time>
      </trkpt>
      <trkpt lat="40.3736820" lon="-3.7366520">
        <ele>620.6</ele>
        <time>2021-05-08T05:35:11Z</time>
      </trkpt>
      <trkpt lat="40.3736870" lon="-3.7367080">
        <ele>620.7</ele>
        <time>2021-05-08T05:35:12Z</time>
      </trkpt>
      <trkpt lat="40.3736820" lon="-3.7367830">
        <ele>620.9</ele>
        <time>2021-05-08T05:35:13Z</time>
      </trkpt>
      <trkpt lat="40.3736630" lon="-3.7368780">
        <ele>621.2</ele>
        <time>2021-05-08T05:35:15Z</time>
      </trkpt>
      <trkpt lat="40.3736490" lon="-3.7369270">
        <ele>621.3</ele>
        <time>2021-05-08T05:35:16Z</time>
      </trkpt>
      <trkpt lat="40.3736220" lon="-3.7370110">
        <ele>621.5</ele>
        <time>2021-05-08T05:35:18Z</time>
      </trkpt>
      <trkpt lat="40.3736020" lon="-3.7370690">
        <ele>621.7</ele>
        <time>2021-05-08T05:35:19Z</time>
      </trkpt>
      <trkpt lat="40.3735660" lon="-3.7371480">
        <ele>621.8</ele>
        <time>2021-05-08T05:35:20Z</time>
      </trkpt>
      <trkpt lat="40.3735240" lon="-3.7372120">
        <ele>622.0</ele>
        <time>2021-05-08T05:35:22Z</time>
      </trkpt>
      <trkpt lat="40.3734680" lon="-3.7372920">
        <ele>622.2</ele>
        <time>2021-05-08T05:35:24Z</time>
      </trkpt>
      <trkpt lat="40.3734250" lon="-3.7373980">
        <ele>622.5</ele>
        <time>2021-05-08T05:35:26Z</time>
      </trkpt>
      <trkpt lat="40.3734090" lon="-3.7374530">
        <ele>622.7</ele>
        <time>2021-05-08T05:35:27Z</time>
      </trkpt>
      <trkpt lat="40.3733950" lon="-3.7375110">
        <ele>622.8</ele>
        <time>2021-05-08T05:35:28Z</time>
      </trkpt>
      <trkpt lat="40.3733840" lon="-3.7376000">
        <ele>623.0</ele>
        <time>2021-05-08T05:35:30Z</time>
      </trkpt>
      <trkpt lat="40.3733930" lon="-3.7376610">
        <ele>623.1</ele>
        <time>2021-05-08T05:35:31Z</time>
      </trkpt>
      <trkpt lat="40.3734030" lon="-3.7377150">
        <ele>623.3</ele>
        <time>2021-05-08T05:35:32Z</time>
      </trkpt>
      <trkpt lat="40.3734160" lon="-3.7377660">
        <ele>623.4</ele>
        <time>2021-05-08T05:35:33Z</time>
      </trkpt>
      <trkpt lat="40.3734620" lon="-3.7378550">
        <ele>623.6</ele>
        <time>2021-05-08T05:35:35Z</time>
      </trkpt>
      <trkpt lat="40.3735070" lon="-3.7378890">
        <ele>623.8</ele>
        <time>2021-05-08T05:35:36Z</time>
      </trkpt>
      <trkpt lat="40.3735530" lon="-3.7379240">
        <ele>623.9</ele>
        <time>2021-05-08T05:35:37Z</time>
      </trkpt>
      <trkpt lat="40.3736130" lon="-3.7380350">
        <ele>624.3</ele>
        <time>2021-05-08T05:35:39Z</time>
      </trkpt>
      <trkpt lat="40.3736130" lon="-3.7380780">
        <ele>624.4</ele>
        <time>2021-05-08T05:35:40Z</time>
      </trkpt>
      <trkpt lat="40.3736090" lon="-3.7381300">
        <ele>624.5</ele>
        <time>2021-05-08T05:35:41Z</time>
      </trkpt>
      <trkpt lat="40.3736090" lon="-3.7382400">
        <ele>624.8</ele>
        <time>2021-05-08T05:35:43Z</time>
      </trkpt>
      <trkpt lat="40.3736060" lon="-3.7383180">
        <ele>625.1</ele>
        <time>2021-05-08T05:35:44Z</time>
      </trkpt>
      <trkpt lat="40.3736080" lon="-3.7383960">
        <ele>625.4</ele>
        <time>2021-05-08T05:35:45Z</time>
      </trkpt>
      <trkpt lat="40.3736090" lon="-3.7384710">
        <ele>625.7</ele>
        <time>2021-05-08T05:35:47Z</time>
      </trkpt>
      <trkpt lat="40.3736060" lon="-3.7385300">
        <ele>625.9</ele>
        <time>2021-05-08T05:35:48Z</time>
      </trkpt>
      <trkpt lat="40.3736020" lon="-3.7385730">
        <ele>626.0</ele>
        <time>2021-05-08T05:35:49Z</time>
      </trkpt>
      <trkpt lat="40.3735960" lon="-3.7386130">
        <ele>626.1</ele>
        <time>2021-05-08T05:35:51Z</time>
      </trkpt>
      <trkpt lat="40.3735950" lon="-3.7386580">
        <ele>626.2</ele>
        <time>2021-05-08T05:35:53Z</time>
      </trkpt>
      <trkpt lat="40.3735900" lon="-3.7386970">
        <ele>626.3</ele>
        <time>2021-05-08T05:35:54Z</time>
      </trkpt>
      <trkpt lat="40.3735850" lon="-3.7387430">
        <ele>626.5</ele>
        <time>2021-05-08T05:35:55Z</time>
      </trkpt>
      <trkpt lat="40.3735830" lon="-3.7388210">
        <ele>626.8</ele>
        <time>2021-05-08T05:35:57Z</time>
      </trkpt>
      <trkpt lat="40.3735850" lon="-3.7388770">
        <ele>627.0</ele>
        <time>2021-05-08T05:35:58Z</time>
      </trkpt>
      <trkpt lat="40.3735850" lon="-3.7389630">
        <ele>627.3</ele>
        <time>2021-05-08T05:36:00Z</time>
      </trkpt>
      <trkpt lat="40.3735840" lon="-3.7390010">
        <ele>627.4</ele>
        <time>2021-05-08T05:36:01Z</time>
      </trkpt>
      <trkpt lat="40.3735770" lon="-3.7390730">
        <ele>627.7</ele>
        <time>2021-05-08T05:36:03Z</time>
      </trkpt>
      <trkpt lat="40.3735890" lon="-3.7391450">
        <ele>627.9</ele>
        <time>2021-05-08T05:36:05Z</time>
      </trkpt>
      <trkpt lat="40.3735950" lon="-3.7391860">
        <ele>628.1</ele>
        <time>2021-05-08T05:36:06Z</time>
      </trkpt>
      <trkpt lat="40.3735970" lon="-3.7392190">
        <ele>628.2</ele>
        <time>2021-05-08T05:36:07Z</time>
      </trkpt>
      <trkpt lat="40.3735960" lon="-3.7392860">
        <ele>628.5</ele>
        <time>2021-05-08T05:36:09Z</time>
      </trkpt>
      <trkpt lat="40.3735970" lon="-3.7393340">
        <ele>628.7</ele>
        <time>2021-05-08T05:36:10Z</time>
      </trkpt>
      <trkpt lat="40.3736070" lon="-3.7393970">
        <ele>629.0</ele>
        <time>2021-05-08T05:36:12Z</time>
      </trkpt>
      <trkpt lat="40.3736030" lon="-3.7394660">
        <ele>629.3</ele>
        <time>2021-05-08T05:36:14Z</time>
      </trkpt>
      <trkpt lat="40.3736010" lon="-3.7395080">
        <ele>629.5</ele>
        <time>2021-05-08T05:36:15Z</time>
      </trkpt>
      <trkpt lat="40.3736030" lon="-3.7395590">
        <ele>629.7</ele>
        <time>2021-05-08T05:36:16Z</time>
      </trkpt>
      <trkpt lat="40.3736040" lon="-3.7395770">
        <ele>629.8</ele>
        <time>2021-05-08T05:36:17Z</time>
      </trkpt>
      <trkpt lat="40.3736030" lon="-3.7396410">
        <ele>630.1</ele>
        <time>2021-05-08T05:36:19Z</time>
      </trkpt>
      <trkpt lat="40.3735990" lon="-3.7396870">
        <ele>630.4</ele>
        <time>2021-05-08T05:36:20Z</time>
      </trkpt>
      <trkpt lat="40.3735830" lon="-3.7397780">
        <ele>630.8</ele>
        <time>2021-05-08T05:36:22Z</time>
      </trkpt>
      <trkpt lat="40.3735690" lon="-3.7398390">
        <ele>631.2</ele>
        <time>2021-05-08T05:36:23Z</time>
      </trkpt>
      <trkpt lat="40.3735510" lon="-3.7399180">
        <ele>631.6</ele>
        <time>2021-05-08T05:36:25Z</time>
      </trkpt>
      <trkpt lat="40.3735420" lon="-3.7399620">
        <ele>631.9</ele>
        <time>2021-05-08T05:36:26Z</time>
      </trkpt>
      <trkpt lat="40.3735370" lon="-3.7400100">
        <ele>632.1</ele>
        <time>2021-05-08T05:36:27Z</time>
      </trkpt>
      <trkpt lat="40.3735360" lon="-3.7400900">
        <ele>632.6</ele>
        <time>2021-05-08T05:36:29Z</time>
      </trkpt>
      <trkpt lat="40.3735310" lon="-3.7401320">
        <ele>632.8</ele>
        <time>2021-05-08T05:36:30Z</time>
      </trkpt>
      <trkpt lat="40.3735240" lon="-3.7401770">
        <ele>633.1</ele>
        <time>2021-05-08T05:36:31Z</time>
      </trkpt>
      <trkpt lat="40.3735060" lon="-3.7402460">
        <ele>633.5</ele>
        <time>2021-05-08T05:36:33Z</time>
      </trkpt>
      <trkpt lat="40.3734950" lon="-3.7402920">
        <ele>633.8</ele>
        <time>2021-05-08T05:36:34Z</time>
      </trkpt>
      <trkpt lat="40.3734800" lon="-3.7403530">
        <ele>634.2</ele>
        <time>2021-05-08T05:36:36Z</time>
      </trkpt>
      <trkpt lat="40.3734610" lon="-3.7404160">
        <ele>634.6</ele>
        <time>2021-05-08T05:36:38Z</time>
      </trkpt>
      <trkpt lat="40.3734550" lon="-3.7404620">
        <ele>634.9</ele>
        <time>2021-05-08T05:36:39Z</time>
      </trkpt>
      <trkpt lat="40.3734510" lon="-3.7404990">
        <ele>635.1</ele>
        <time>2021-05-08T05:36:40Z</time>
      </trkpt>
      <trkpt lat="40.3734460" lon="-3.7405420">
        <ele>635.3</ele>
        <time>2021-05-08T05:36:41Z</time>
      </trkpt>
      <trkpt lat="40.3734310" lon="-3.7406050">
        <ele>635.7</ele>
        <time>2021-05-08T05:36:43Z</time>
      </trkpt>
      <trkpt lat="40.3734230" lon="-3.7406420">
        <ele>636.0</ele>
        <time>2021-05-08T05:36:44Z</time>
      </trkpt>
      <trkpt lat="40.3734090" lon="-3.7407050">
        <ele>636.4</ele>
        <time>2021-05-08T05:36:46Z</time>
      </trkpt>
      <trkpt lat="40.3734020" lon="-3.7407510">
        <ele>636.7</ele>
        <time>2021-05-08T05:36:47Z</time>
      </trkpt>
      <trkpt lat="40.3734000" lon="-3.7407660">
        <ele>636.8</ele>
        <time>2021-05-08T05:36:48Z</time>
      </trkpt>
      <trkpt lat="40.3733980" lon="-3.7407970">
        <ele>637.0</ele>
        <time>2021-05-08T05:36:49Z</time>
      </trkpt>
      <trkpt lat="40.3733850" lon="-3.7408480">
        <ele>637.4</ele>
        <time>2021-05-08T05:36:51Z</time>
      </trkpt>
      <trkpt lat="40.3733650" lon="-3.7409000">
        <ele>637.8</ele>
        <time>2021-05-08T05:36:53Z</time>
      </trkpt>
      <trkpt lat="40.3733540" lon="-3.7409440">
        <ele>638.1</ele>
        <time>2021-05-08T05:36:55Z</time>
      </trkpt>
      <trkpt lat="40.3733480" lon="-3.7409790">
        <ele>638.3</ele>
        <time>2021-05-08T05:36:56Z</time>
      </trkpt>
      <trkpt lat="40.3733380" lon="-3.7410340">
        <ele>638.7</ele>
        <time>2021-05-08T05:36:58Z</time>
      </trkpt>
      <trkpt lat="40.3733300" lon="-3.7410810">
        <ele>639.1</ele>
        <time>2021-05-08T05:37:00Z</time>
      </trkpt>
      <trkpt lat="40.3733170" lon="-3.7411330">
        <ele>639.4</ele>
        <time>2021-05-08T05:37:02Z</time>
      </trkpt>
      <trkpt lat="40.3733050" lon="-3.7411830">
        <ele>639.7</ele>
        <time>2021-05-08T05:37:04Z</time>
      </trkpt>
      <trkpt lat="40.3732950" lon="-3.7412330">
        <ele>640.0</ele>
        <time>2021-05-08T05:37:06Z</time>
      </trkpt>
      <trkpt lat="40.3732670" lon="-3.7413090">
        <ele>640.5</ele>
        <time>2021-05-08T05:37:08Z</time>
      </trkpt>
      <trkpt lat="40.3732550" lon="-3.7413640">
        <ele>640.8</ele>
        <time>2021-05-08T05:37:10Z</time>
      </trkpt>
      <trkpt lat="40.3732490" lon="-3.7413900">
        <ele>641.0</ele>
        <time>2021-05-08T05:37:11Z</time>
      </trkpt>
      <trkpt lat="40.3732330" lon="-3.7414490">
        <ele>641.3</ele>
        <time>2021-05-08T05:37:13Z</time>
      </trkpt>
      <trkpt lat="40.3732210" lon="-3.7414880">
        <ele>641.6</ele>
        <time>2021-05-08T05:37:14Z</time>
      </trkpt>
      <trkpt lat="40.3732120" lon="-3.7415250">
        <ele>641.8</ele>
        <time>2021-05-08T05:37:15Z</time>
      </trkpt>
      <trkpt lat="40.3731920" lon="-3.7415950">
        <ele>642.2</ele>
        <time>2021-05-08T05:37:17Z</time>
      </trkpt>
      <trkpt lat="40.3731800" lon="-3.7416310">
        <ele>642.4</ele>
        <time>2021-05-08T05:37:18Z</time>
      </trkpt>
      <trkpt lat="40.3731580" lon="-3.7416940">
        <ele>642.8</ele>
        <time>2021-05-08T05:37:20Z</time>
      </trkpt>
      <trkpt lat="40.3731490" lon="-3.7417440">
        <ele>643.0</ele>
        <time>2021-05-08T05:37:21Z</time>
      </trkpt>
      <trkpt lat="40.3731440" lon="-3.7417630">
        <ele>643.1</ele>
        <time>2021-05-08T05:37:22Z</time>
      </trkpt>
      <trkpt lat="40.3731370" lon="-3.7418060">
        <ele>643.3</ele>
        <time>2021-05-08T05:37:23Z</time>
      </trkpt>
      <trkpt lat="40.3731320" lon="-3.7418620">
        <ele>643.6</ele>
        <time>2021-05-08T05:37:25Z</time>
      </trkpt>
      <trkpt lat="40.3731290" lon="-3.7419070">
        <ele>643.8</ele>
        <time>2021-05-08T05:37:26Z</time>
      </trkpt>
      <trkpt lat="40.3731260" lon="-3.7419470">
        <ele>644.0</ele>
        <time>2021-05-08T05:37:27Z</time>
      </trkpt>
      <trkpt lat="40.3731250" lon="-3.7420130">
        <ele>644.0</ele>
        <time>2021-05-08T05:37:28Z</time>
      </trkpt>
      <trkpt lat="40.3731210" lon="-3.7420860">
        <ele>644.2</ele>
        <time>2021-05-08T05:37:30Z</time>
      </trkpt>
      <trkpt lat="40.3731150" lon="-3.7421420">
        <ele>644.4</ele>
        <time>2021-05-08T05:37:31Z</time>
      </trkpt>
      <trkpt lat="40.3731070" lon="-3.7422160">
        <ele>644.7</ele>
        <time>2021-05-08T05:37:33Z</time>
      </trkpt>
      <trkpt lat="40.3731070" lon="-3.7422580">
        <ele>644.9</ele>
        <time>2021-05-08T05:37:34Z</time>
      </trkpt>
      <trkpt lat="40.3731070" lon="-3.7422970">
        <ele>645.1</ele>
        <time>2021-05-08T05:37:36Z</time>
      </trkpt>
      <trkpt lat="40.3731080" lon="-3.7423500">
        <ele>645.3</ele>
        <time>2021-05-08T05:37:37Z</time>
      </trkpt>
      <trkpt lat="40.3731060" lon="-3.7423890">
        <ele>645.4</ele>
        <time>2021-05-08T05:37:38Z</time>
      </trkpt>
      <trkpt lat="40.3731040" lon="-3.7424660">
        <ele>645.7</ele>
        <time>2021-05-08T05:37:40Z</time>
      </trkpt>
      <trkpt lat="40.3731080" lon="-3.7425130">
        <ele>645.9</ele>
        <time>2021-05-08T05:37:42Z</time>
      </trkpt>
      <trkpt lat="40.3731190" lon="-3.7425650">
        <ele>646.2</ele>
        <time>2021-05-08T05:37:44Z</time>
      </trkpt>
      <trkpt lat="40.3731210" lon="-3.7426020">
        <ele>646.3</ele>
        <time>2021-05-08T05:37:45Z</time>
      </trkpt>
      <trkpt lat="40.3731240" lon="-3.7426730">
        <ele>646.6</ele>
        <time>2021-05-08T05:37:47Z</time>
      </trkpt>
      <trkpt lat="40.3731210" lon="-3.7427290">
        <ele>646.8</ele>
        <time>2021-05-08T05:37:49Z</time>
      </trkpt>
      <trkpt lat="40.3731190" lon="-3.7427710">
        <ele>647.0</ele>
        <time>2021-05-08T05:37:50Z</time>
      </trkpt>
      <trkpt lat="40.3731210" lon="-3.7428030">
        <ele>647.1</ele>
        <time>2021-05-08T05:37:51Z</time>
      </trkpt>
      <trkpt lat="40.3731240" lon="-3.7428650">
        <ele>647.3</ele>
        <time>2021-05-08T05:37:53Z</time>
      </trkpt>
      <trkpt lat="40.3731230" lon="-3.7429300">
        <ele>647.6</ele>
        <time>2021-05-08T05:37:55Z</time>
      </trkpt>
      <trkpt lat="40.3731310" lon="-3.7429940">
        <ele>647.8</ele>
        <time>2021-05-08T05:37:57Z</time>
      </trkpt>
      <trkpt lat="40.3731340" lon="-3.7430540">
        <ele>648.0</ele>
        <time>2021-05-08T05:37:58Z</time>
      </trkpt>
      <trkpt lat="40.3731330" lon="-3.7431130">
        <ele>648.2</ele>
        <time>2021-05-08T05:37:59Z</time>
      </trkpt>
      <trkpt lat="40.3731320" lon="-3.7432000">
        <ele>648.5</ele>
        <time>2021-05-08T05:38:01Z</time>
      </trkpt>
      <trkpt lat="40.3731330" lon="-3.7432820">
        <ele>648.8</ele>
        <time>2021-05-08T05:38:03Z</time>
      </trkpt>
      <trkpt lat="40.3731390" lon="-3.7433380">
        <ele>649.0</ele>
        <time>2021-05-08T05:38:05Z</time>
      </trkpt>
      <trkpt lat="40.3731450" lon="-3.7434000">
        <ele>649.2</ele>
        <time>2021-05-08T05:38:06Z</time>
      </trkpt>
      <trkpt lat="40.3731530" lon="-3.7434800">
        <ele>649.4</ele>
        <time>2021-05-08T05:38:08Z</time>
      </trkpt>
      <trkpt lat="40.3731590" lon="-3.7435190">
        <ele>649.5</ele>
        <time>2021-05-08T05:38:09Z</time>
      </trkpt>
      <trkpt lat="40.3731700" lon="-3.7436000">
        <ele>649.7</ele>
        <time>2021-05-08T05:38:11Z</time>
      </trkpt>
      <trkpt lat="40.3731830" lon="-3.7436830">
        <ele>649.9</ele>
        <time>2021-05-08T05:38:13Z</time>
      </trkpt>
      <trkpt lat="40.3731980" lon="-3.7437500">
        <ele>650.0</ele>
        <time>2021-05-08T05:38:15Z</time>
      </trkpt>
      <trkpt lat="40.3732120" lon="-3.7437910">
        <ele>650.0</ele>
        <time>2021-05-08T05:38:16Z</time>
      </trkpt>
      <trkpt lat="40.3732530" lon="-3.7438740">
        <ele>650.1</ele>
        <time>2021-05-08T05:38:18Z</time>
      </trkpt>
      <trkpt lat="40.3732790" lon="-3.7439190">
        <ele>650.1</ele>
        <time>2021-05-08T05:38:19Z</time>
      </trkpt>
      <trkpt lat="40.3733070" lon="-3.7439690">
        <ele>650.2</ele>
        <time>2021-05-08T05:38:20Z</time>
      </trkpt>
      <trkpt lat="40.3733310" lon="-3.7440150">
        <ele>650.2</ele>
        <time>2021-05-08T05:38:21Z</time>
      </trkpt>
      <trkpt lat="40.3733870" lon="-3.7441270">
        <ele>650.3</ele>
        <time>2021-05-08T05:38:23Z</time>
      </trkpt>
      <trkpt lat="40.3734140" lon="-3.7441870">
        <ele>650.3</ele>
        <time>2021-05-08T05:38:24Z</time>
      </trkpt>
      <trkpt lat="40.3734460" lon="-3.7442590">
        <ele>650.4</ele>
        <time>2021-05-08T05:38:26Z</time>
      </trkpt>
      <trkpt lat="40.3734620" lon="-3.7443070">
        <ele>650.5</ele>
        <time>2021-05-08T05:38:27Z</time>
      </trkpt>
      <trkpt lat="40.3734940" lon="-3.7444150">
        <ele>650.6</ele>
        <time>2021-05-08T05:38:29Z</time>
      </trkpt>
      <trkpt lat="40.3735080" lon="-3.7444630">
        <ele>650.7</ele>
        <time>2021-05-08T05:38:30Z</time>
      </trkpt>
      <trkpt lat="40.3735300" lon="-3.7445630">
        <ele>650.7</ele>
        <time>2021-05-08T05:38:32Z</time>
      </trkpt>
      <trkpt lat="40.3735550" lon="-3.7446430">
        <ele>650.7</ele>
        <time>2021-05-08T05:38:34Z</time>
      </trkpt>
      <trkpt lat="40.3735800" lon="-3.7446900">
        <ele>650.7</ele>
        <time>2021-05-08T05:38:35Z</time>
      </trkpt>
      <trkpt lat="40.3735980" lon="-3.7447520">
        <ele>650.7</ele>
        <time>2021-05-08T05:38:36Z</time>
      </trkpt>
      <trkpt lat="40.3736330" lon="-3.7448300">
        <ele>650.7</ele>
        <time>2021-05-08T05:38:38Z</time>
      </trkpt>
      <trkpt lat="40.3736660" lon="-3.7449010">
        <ele>650.7</ele>
        <time>2021-05-08T05:38:39Z</time>
      </trkpt>
      <trkpt lat="40.3737140" lon="-3.7449760">
        <ele>650.6</ele>
        <time>2021-05-08T05:38:41Z</time>
      </trkpt>
      <trkpt lat="40.3737480" lon="-3.7450260">
        <ele>650.6</ele>
        <time>2021-05-08T05:38:42Z</time>
      </trkpt>
      <trkpt lat="40.3737830" lon="-3.7450750">
        <ele>650.6</ele>
        <time>2021-05-08T05:38:43Z</time>
      </trkpt>
      <trkpt lat="40.3738190" lon="-3.7451260">
        <ele>650.6</ele>
        <time>2021-05-08T05:38:44Z</time>
      </trkpt>
      <trkpt lat="40.3738890" lon="-3.7452370">
        <ele>650.6</ele>
        <time>2021-05-08T05:38:46Z</time>
      </trkpt>
      <trkpt lat="40.3739210" lon="-3.7452830">
        <ele>650.6</ele>
        <time>2021-05-08T05:38:47Z</time>
      </trkpt>
      <trkpt lat="40.3740010" lon="-3.7453910">
        <ele>650.7</ele>
        <time>2021-05-08T05:38:49Z</time>
      </trkpt>
      <trkpt lat="40.3740380" lon="-3.7454390">
        <ele>650.7</ele>
        <time>2021-05-08T05:38:50Z</time>
      </trkpt>
      <trkpt lat="40.3741090" lon="-3.7455360">
        <ele>650.9</ele>
        <time>2021-05-08T05:38:52Z</time>
      </trkpt>
      <trkpt lat="40.3741640" lon="-3.7456550">
        <ele>651.2</ele>
        <time>2021-05-08T05:38:54Z</time>
      </trkpt>
      <trkpt lat="40.3741770" lon="-3.7456960">
        <ele>651.2</ele>
        <time>2021-05-08T05:38:55Z</time>
      </trkpt>
      <trkpt lat="40.3742260" lon="-3.7458080">
        <ele>651.5</ele>
        <time>2021-05-08T05:38:57Z</time>
      </trkpt>
      <trkpt lat="40.3742970" lon="-3.7458950">
        <ele>651.7</ele>
        <time>2021-05-08T05:38:59Z</time>
      </trkpt>
      <trkpt lat="40.3743370" lon="-3.7459810">
        <ele>651.9</ele>
        <time>2021-05-08T05:39:01Z</time>
      </trkpt>
      <trkpt lat="40.3744030" lon="-3.7460600">
        <ele>652.1</ele>
        <time>2021-05-08T05:39:03Z</time>
      </trkpt>
      <trkpt lat="40.3744340" lon="-3.7461050">
        <ele>652.2</ele>
        <time>2021-05-08T05:39:04Z</time>
      </trkpt>
      <trkpt lat="40.3744930" lon="-3.7461830">
        <ele>652.3</ele>
        <time>2021-05-08T05:39:06Z</time>
      </trkpt>
      <trkpt lat="40.3745260" lon="-3.7462280">
        <ele>652.3</ele>
        <time>2021-05-08T05:39:07Z</time>
      </trkpt>
      <trkpt lat="40.3745780" lon="-3.7463020">
        <ele>652.3</ele>
        <time>2021-05-08T05:39:09Z</time>
      </trkpt>
      <trkpt lat="40.3746150" lon="-3.7463580">
        <ele>652.4</ele>
        <time>2021-05-08T05:39:10Z</time>
      </trkpt>
      <trkpt lat="40.3746680" lon="-3.7464440">
        <ele>652.4</ele>
        <time>2021-05-08T05:39:12Z</time>
      </trkpt>
      <trkpt lat="40.3747130" lon="-3.7465200">
        <ele>652.3</ele>
        <time>2021-05-08T05:39:14Z</time>
      </trkpt>
      <trkpt lat="40.3747380" lon="-3.7465940">
        <ele>652.3</ele>
        <time>2021-05-08T05:39:15Z</time>
      </trkpt>
      <trkpt lat="40.3747690" lon="-3.7466950">
        <ele>652.2</ele>
        <time>2021-05-08T05:39:17Z</time>
      </trkpt>
      <trkpt lat="40.3748070" lon="-3.7467800">
        <ele>652.1</ele>
        <time>2021-05-08T05:39:19Z</time>
      </trkpt>
      <trkpt lat="40.3748230" lon="-3.7468330">
        <ele>652.4</ele>
        <time>2021-05-08T05:39:20Z</time>
      </trkpt>
      <trkpt lat="40.3748280" lon="-3.7469240">
        <ele>652.8</ele>
        <time>2021-05-08T05:39:21Z</time>
      </trkpt>
      <trkpt lat="40.3747960" lon="-3.7469820">
        <ele>653.2</ele>
        <time>2021-05-08T05:39:23Z</time>
      </trkpt>
      <trkpt lat="40.3747570" lon="-3.7470210">
        <ele>653.4</ele>
        <time>2021-05-08T05:39:24Z</time>
      </trkpt>
      <trkpt lat="40.3747160" lon="-3.7470550">
        <ele>653.5</ele>
        <time>2021-05-08T05:39:26Z</time>
      </trkpt>
      <trkpt lat="40.3746870" lon="-3.7470780">
        <ele>653.6</ele>
        <time>2021-05-08T05:39:27Z</time>
      </trkpt>
      <trkpt lat="40.3746590" lon="-3.7471030">
        <ele>653.9</ele>
        <time>2021-05-08T05:39:28Z</time>
      </trkpt>
      <trkpt lat="40.3746380" lon="-3.7471310">
        <ele>654.2</ele>
        <time>2021-05-08T05:39:29Z</time>
      </trkpt>
      <trkpt lat="40.3746210" lon="-3.7471690">
        <ele>654.5</ele>
        <time>2021-05-08T05:39:30Z</time>
      </trkpt>
      <trkpt lat="40.3746180" lon="-3.7472170">
        <ele>654.8</ele>
        <time>2021-05-08T05:39:32Z</time>
      </trkpt>
      <trkpt lat="40.3746180" lon="-3.7472660">
        <ele>655.2</ele>
        <time>2021-05-08T05:39:33Z</time>
      </trkpt>
      <trkpt lat="40.3746080" lon="-3.7473020">
        <ele>655.5</ele>
        <time>2021-05-08T05:39:34Z</time>
      </trkpt>
      <trkpt lat="40.3745940" lon="-3.7473330">
        <ele>655.8</ele>
        <time>2021-05-08T05:39:35Z</time>
      </trkpt>
      <trkpt lat="40.3745780" lon="-3.7473830">
        <ele>656.3</ele>
        <time>2021-05-08T05:39:37Z</time>
      </trkpt>
      <trkpt lat="40.3745600" lon="-3.7474260">
        <ele>656.7</ele>
        <time>2021-05-08T05:39:38Z</time>
      </trkpt>
      <trkpt lat="40.3745520" lon="-3.7474410">
        <ele>656.9</ele>
        <time>2021-05-08T05:39:39Z</time>
      </trkpt>
      <trkpt lat="40.3745360" lon="-3.7474730">
        <ele>657.2</ele>
        <time>2021-05-08T05:39:40Z</time>
      </trkpt>
      <trkpt lat="40.3745130" lon="-3.7475170">
        <ele>657.7</ele>
        <time>2021-05-08T05:39:42Z</time>
      </trkpt>
      <trkpt lat="40.3744980" lon="-3.7475510">
        <ele>658.0</ele>
        <time>2021-05-08T05:39:43Z</time>
      </trkpt>
      <trkpt lat="40.3744790" lon="-3.7475890">
        <ele>658.4</ele>
        <time>2021-05-08T05:39:44Z</time>
      </trkpt>
      <trkpt lat="40.3744480" lon="-3.7476360">
        <ele>658.8</ele>
        <time>2021-05-08T05:39:46Z</time>
      </trkpt>
      <trkpt lat="40.3744390" lon="-3.7476520">
        <ele>659.0</ele>
        <time>2021-05-08T05:39:47Z</time>
      </trkpt>
      <trkpt lat="40.3744300" lon="-3.7476670">
        <ele>659.1</ele>
        <time>2021-05-08T05:39:48Z</time>
      </trkpt>
      <trkpt lat="40.3744070" lon="-3.7477110">
        <ele>659.5</ele>
        <time>2021-05-08T05:39:49Z</time>
      </trkpt>
      <trkpt lat="40.3743940" lon="-3.7477430">
        <ele>659.8</ele>
        <time>2021-05-08T05:39:50Z</time>
      </trkpt>
      <trkpt lat="40.3743800" lon="-3.7477810">
        <ele>660.1</ele>
        <time>2021-05-08T05:39:52Z</time>
      </trkpt>
      <trkpt lat="40.3743610" lon="-3.7478400">
        <ele>660.5</ele>
        <time>2021-05-08T05:39:54Z</time>
      </trkpt>
      <trkpt lat="40.3743460" lon="-3.7478770">
        <ele>660.8</ele>
        <time>2021-05-08T05:39:55Z</time>
      </trkpt>
      <trkpt lat="40.3743340" lon="-3.7479120">
        <ele>661.0</ele>
        <time>2021-05-08T05:39:56Z</time>
      </trkpt>
      <trkpt lat="40.3743170" lon="-3.7479610">
        <ele>661.4</ele>
        <time>2021-05-08T05:39:57Z</time>
      </trkpt>
      <trkpt lat="40.3742970" lon="-3.7480010">
        <ele>661.7</ele>
        <time>2021-05-08T05:39:59Z</time>
      </trkpt>
      <trkpt lat="40.3742660" lon="-3.7480480">
        <ele>662.1</ele>
        <time>2021-05-08T05:40:00Z</time>
      </trkpt>
      <trkpt lat="40.3742460" lon="-3.7480930">
        <ele>662.4</ele>
        <time>2021-05-08T05:40:02Z</time>
      </trkpt>
      <trkpt lat="40.3742170" lon="-3.7481550">
        <ele>662.9</ele>
        <time>2021-05-08T05:40:04Z</time>
      </trkpt>
      <trkpt lat="40.3741900" lon="-3.7482030">
        <ele>663.2</ele>
        <time>2021-05-08T05:40:06Z</time>
      </trkpt>
      <trkpt lat="40.3741670" lon="-3.7482530">
        <ele>663.6</ele>
        <time>2021-05-08T05:40:07Z</time>
      </trkpt>
      <trkpt lat="40.3741560" lon="-3.7482750">
        <ele>663.7</ele>
        <time>2021-05-08T05:40:08Z</time>
      </trkpt>
      <trkpt lat="40.3741380" lon="-3.7483100">
        <ele>664.0</ele>
        <time>2021-05-08T05:40:10Z</time>
      </trkpt>
      <trkpt lat="40.3741140" lon="-3.7483500">
        <ele>664.3</ele>
        <time>2021-05-08T05:40:11Z</time>
      </trkpt>
      <trkpt lat="40.3740920" lon="-3.7483910">
        <ele>664.6</ele>
        <time>2021-05-08T05:40:13Z</time>
      </trkpt>
      <trkpt lat="40.3740730" lon="-3.7484260">
        <ele>664.9</ele>
        <time>2021-05-08T05:40:14Z</time>
      </trkpt>
      <trkpt lat="40.3740510" lon="-3.7484690">
        <ele>665.2</ele>
        <time>2021-05-08T05:40:15Z</time>
      </trkpt>
      <trkpt lat="40.3740430" lon="-3.7484830">
        <ele>665.3</ele>
        <time>2021-05-08T05:40:16Z</time>
      </trkpt>
      <trkpt lat="40.3740260" lon="-3.7485140">
        <ele>665.5</ele>
        <time>2021-05-08T05:40:17Z</time>
      </trkpt>
      <trkpt lat="40.3739950" lon="-3.7485650">
        <ele>665.8</ele>
        <time>2021-05-08T05:40:19Z</time>
      </trkpt>
      <trkpt lat="40.3739770" lon="-3.7486040">
        <ele>666.1</ele>
        <time>2021-05-08T05:40:20Z</time>
      </trkpt>
      <trkpt lat="40.3739540" lon="-3.7486520">
        <ele>666.3</ele>
        <time>2021-05-08T05:40:21Z</time>
      </trkpt>
      <trkpt lat="40.3739370" lon="-3.7486860">
        <ele>666.5</ele>
        <time>2021-05-08T05:40:22Z</time>
      </trkpt>
      <trkpt lat="40.3739130" lon="-3.7487310">
        <ele>666.8</ele>
        <time>2021-05-08T05:40:24Z</time>
      </trkpt>
      <trkpt lat="40.3738960" lon="-3.7487650">
        <ele>666.9</ele>
        <time>2021-05-08T05:40:25Z</time>
      </trkpt>
      <trkpt lat="40.3738770" lon="-3.7488020">
        <ele>667.1</ele>
        <time>2021-05-08T05:40:26Z</time>
      </trkpt>
      <trkpt lat="40.3738570" lon="-3.7488430">
        <ele>667.1</ele>
        <time>2021-05-08T05:40:27Z</time>
      </trkpt>
      <trkpt lat="40.3738330" lon="-3.7488930">
        <ele>667.6</ele>
        <time>2021-05-08T05:40:29Z</time>
      </trkpt>
      <trkpt lat="40.3738240" lon="-3.7489560">
        <ele>668.3</ele>
        <time>2021-05-08T05:40:31Z</time>
      </trkpt>
      <trkpt lat="40.3738190" lon="-3.7489970">
        <ele>668.6</ele>
        <time>2021-05-08T05:40:32Z</time>
      </trkpt>
      <trkpt lat="40.3738110" lon="-3.7490650">
        <ele>669.2</ele>
        <time>2021-05-08T05:40:34Z</time>
      </trkpt>
      <trkpt lat="40.3738140" lon="-3.7491160">
        <ele>669.4</ele>
        <time>2021-05-08T05:40:35Z</time>
      </trkpt>
      <trkpt lat="40.3738110" lon="-3.7491540">
        <ele>669.4</ele>
        <time>2021-05-08T05:40:36Z</time>
      </trkpt>
      <trkpt lat="40.3738080" lon="-3.7492020">
        <ele>669.3</ele>
        <time>2021-05-08T05:40:37Z</time>
      </trkpt>
      <trkpt lat="40.3738080" lon="-3.7492520">
        <ele>669.2</ele>
        <time>2021-05-08T05:40:38Z</time>
      </trkpt>
      <trkpt lat="40.3738140" lon="-3.7493040">
        <ele>669.0</ele>
        <time>2021-05-08T05:40:40Z</time>
      </trkpt>
      <trkpt lat="40.3738250" lon="-3.7493780">
        <ele>669.2</ele>
        <time>2021-05-08T05:40:42Z</time>
      </trkpt>
      <trkpt lat="40.3738560" lon="-3.7494310">
        <ele>669.3</ele>
        <time>2021-05-08T05:40:43Z</time>
      </trkpt>
      <trkpt lat="40.3738910" lon="-3.7494780">
        <ele>669.4</ele>
        <time>2021-05-08T05:40:45Z</time>
      </trkpt>
      <trkpt lat="40.3739180" lon="-3.7495180">
        <ele>669.5</ele>
        <time>2021-05-08T05:40:46Z</time>
      </trkpt>
      <trkpt lat="40.3739520" lon="-3.7495680">
        <ele>669.6</ele>
        <time>2021-05-08T05:40:47Z</time>
      </trkpt>
      <trkpt lat="40.3739860" lon="-3.7496190">
        <ele>669.7</ele>
        <time>2021-05-08T05:40:49Z</time>
      </trkpt>
      <trkpt lat="40.3740110" lon="-3.7496550">
        <ele>669.7</ele>
        <time>2021-05-08T05:40:50Z</time>
      </trkpt>
      <trkpt lat="40.3740440" lon="-3.7496930">
        <ele>669.7</ele>
        <time>2021-05-08T05:40:51Z</time>
      </trkpt>
      <trkpt lat="40.3740870" lon="-3.7497320">
        <ele>669.6</ele>
        <time>2021-05-08T05:40:52Z</time>
      </trkpt>
      <trkpt lat="40.3741080" lon="-3.7497520">
        <ele>669.6</ele>
        <time>2021-05-08T05:40:53Z</time>
      </trkpt>
      <trkpt lat="40.3741470" lon="-3.7497950">
        <ele>669.6</ele>
        <time>2021-05-08T05:40:55Z</time>
      </trkpt>
      <trkpt lat="40.3741800" lon="-3.7498490">
        <ele>669.7</ele>
        <time>2021-05-08T05:40:56Z</time>
      </trkpt>
      <trkpt lat="40.3741850" lon="-3.7499670">
        <ele>669.7</ele>
        <time>2021-05-08T05:40:58Z</time>
      </trkpt>
      <trkpt lat="40.3741780" lon="-3.7500300">
        <ele>669.7</ele>
        <time>2021-05-08T05:40:59Z</time>
      </trkpt>
      <trkpt lat="40.3741500" lon="-3.7501740">
        <ele>669.4</ele>
        <time>2021-05-08T05:41:01Z</time>
      </trkpt>
      <trkpt lat="40.3741470" lon="-3.7502410">
        <ele>669.2</ele>
        <time>2021-05-08T05:41:02Z</time>
      </trkpt>
      <trkpt lat="40.3741400" lon="-3.7503150">
        <ele>668.9</ele>
        <time>2021-05-08T05:41:03Z</time>
      </trkpt>
      <trkpt lat="40.3741270" lon="-3.7503870">
        <ele>668.7</ele>
        <time>2021-05-08T05:41:04Z</time>
      </trkpt>
      <trkpt lat="40.3740980" lon="-3.7504590">
        <ele>668.3</ele>
        <time>2021-05-08T05:41:05Z</time>
      </trkpt>
      <trkpt lat="40.3739940" lon="-3.7506070">
        <ele>667.4</ele>
        <time>2021-05-08T05:41:07Z</time>
      </trkpt>
      <trkpt lat="40.3738930" lon="-3.7507350">
        <ele>666.4</ele>
        <time>2021-05-08T05:41:09Z</time>
      </trkpt>
      <trkpt lat="40.3738160" lon="-3.7508460">
        <ele>665.5</ele>
        <time>2021-05-08T05:41:11Z</time>
      </trkpt>
      <trkpt lat="40.3737900" lon="-3.7508940">
        <ele>665.2</ele>
        <time>2021-05-08T05:41:12Z</time>
      </trkpt>
      <trkpt lat="40.3737870" lon="-3.7510040">
        <ele>664.5</ele>
        <time>2021-05-08T05:41:14Z</time>
      </trkpt>
      <trkpt lat="40.3738110" lon="-3.7510480">
        <ele>664.2</ele>
        <time>2021-05-08T05:41:15Z</time>
      </trkpt>
      <trkpt lat="40.3738180" lon="-3.7510660">
        <ele>664.0</ele>
        <time>2021-05-08T05:41:16Z</time>
      </trkpt>
      <trkpt lat="40.3738330" lon="-3.7510990">
        <ele>663.8</ele>
        <time>2021-05-08T05:41:17Z</time>
      </trkpt>
      <trkpt lat="40.3738370" lon="-3.7511130">
        <ele>663.8</ele>
        <time>2021-05-08T05:41:18Z</time>
      </trkpt>
      <trkpt lat="40.3738390" lon="-3.7511550">
        <ele>663.6</ele>
        <time>2021-05-08T05:41:20Z</time>
      </trkpt>
      <trkpt lat="40.3738290" lon="-3.7511460">
        <ele>663.5</ele>
        <time>2021-05-08T05:41:21Z</time>
      </trkpt>
      <trkpt lat="40.3738260" lon="-3.7511920">
        <ele>663.3</ele>
        <time>2021-05-08T05:41:22Z</time>
      </trkpt>
      <trkpt lat="40.3738160" lon="-3.7512670">
        <ele>663.0</ele>
        <time>2021-05-08T05:41:24Z</time>
      </trkpt>
      <trkpt lat="40.3737980" lon="-3.7513220">
        <ele>663.0</ele>
        <time>2021-05-08T05:41:25Z</time>
      </trkpt>
      <trkpt lat="40.3737330" lon="-3.7514090">
        <ele>663.2</ele>
        <time>2021-05-08T05:41:27Z</time>
      </trkpt>
      <trkpt lat="40.3736940" lon="-3.7514450">
        <ele>663.4</ele>
        <time>2021-05-08T05:41:28Z</time>
      </trkpt>
      <trkpt lat="40.3736220" lon="-3.7515070">
        <ele>663.9</ele>
        <time>2021-05-08T05:41:30Z</time>
      </trkpt>
      <trkpt lat="40.3735620" lon="-3.7515520">
        <ele>664.3</ele>
        <time>2021-05-08T05:41:31Z</time>
      </trkpt>
      <trkpt lat="40.3735070" lon="-3.7515830">
        <ele>664.5</ele>
        <time>2021-05-08T05:41:33Z</time>
      </trkpt>
      <trkpt lat="40.3734810" lon="-3.7516150">
        <ele>664.6</ele>
        <time>2021-05-08T05:41:34Z</time>
      </trkpt>
      <trkpt lat="40.3734340" lon="-3.7516730">
        <ele>664.8</ele>
        <time>2021-05-08T05:41:35Z</time>
      </trkpt>
      <trkpt lat="40.3733700" lon="-3.7517470">
        <ele>665.0</ele>
        <time>2021-05-08T05:41:37Z</time>
      </trkpt>
      <trkpt lat="40.3733320" lon="-3.7517940">
        <ele>665.3</ele>
        <time>2021-05-08T05:41:38Z</time>
      </trkpt>
      <trkpt lat="40.3733010" lon="-3.7518350">
        <ele>665.4</ele>
        <time>2021-05-08T05:41:39Z</time>
      </trkpt>
      <trkpt lat="40.3732720" lon="-3.7518770">
        <ele>665.6</ele>
        <time>2021-05-08T05:41:40Z</time>
      </trkpt>
      <trkpt lat="40.3732410" lon="-3.7519200">
        <ele>665.8</ele>
        <time>2021-05-08T05:41:41Z</time>
      </trkpt>
      <trkpt lat="40.3731970" lon="-3.7519790">
        <ele>666.1</ele>
        <time>2021-05-08T05:41:43Z</time>
      </trkpt>
      <trkpt lat="40.3731680" lon="-3.7520270">
        <ele>666.4</ele>
        <time>2021-05-08T05:41:44Z</time>
      </trkpt>
      <trkpt lat="40.3731260" lon="-3.7521070">
        <ele>666.8</ele>
        <time>2021-05-08T05:41:46Z</time>
      </trkpt>
      <trkpt lat="40.3730790" lon="-3.7521760">
        <ele>667.1</ele>
        <time>2021-05-08T05:41:48Z</time>
      </trkpt>
      <trkpt lat="40.3730340" lon="-3.7522470">
        <ele>667.6</ele>
        <time>2021-05-08T05:41:50Z</time>
      </trkpt>
      <trkpt lat="40.3730030" lon="-3.7523040">
        <ele>667.9</ele>
        <time>2021-05-08T05:41:51Z</time>
      </trkpt>
      <trkpt lat="40.3729740" lon="-3.7523500">
        <ele>668.1</ele>
        <time>2021-05-08T05:41:53Z</time>
      </trkpt>
      <trkpt lat="40.3729480" lon="-3.7523870">
        <ele>668.3</ele>
        <time>2021-05-08T05:41:54Z</time>
      </trkpt>
      <trkpt lat="40.3729120" lon="-3.7524350">
        <ele>668.6</ele>
        <time>2021-05-08T05:41:55Z</time>
      </trkpt>
      <trkpt lat="40.3728740" lon="-3.7524840">
        <ele>668.9</ele>
        <time>2021-05-08T05:41:57Z</time>
      </trkpt>
      <trkpt lat="40.3728470" lon="-3.7525210">
        <ele>669.2</ele>
        <time>2021-05-08T05:41:58Z</time>
      </trkpt>
      <trkpt lat="40.3727960" lon="-3.7525970">
        <ele>669.6</ele>
        <time>2021-05-08T05:42:00Z</time>
      </trkpt>
      <trkpt lat="40.3727700" lon="-3.7526360">
        <ele>669.8</ele>
        <time>2021-05-08T05:42:01Z</time>
      </trkpt>
      <trkpt lat="40.3727280" lon="-3.7527000">
        <ele>670.0</ele>
        <time>2021-05-08T05:42:02Z</time>
      </trkpt>
      <trkpt lat="40.3727010" lon="-3.7527480">
        <ele>670.2</ele>
        <time>2021-05-08T05:42:03Z</time>
      </trkpt>
      <trkpt lat="40.3726700" lon="-3.7527970">
        <ele>670.3</ele>
        <time>2021-05-08T05:42:05Z</time>
      </trkpt>
      <trkpt lat="40.3726440" lon="-3.7528420">
        <ele>670.5</ele>
        <time>2021-05-08T05:42:06Z</time>
      </trkpt>
      <trkpt lat="40.3726170" lon="-3.7528910">
        <ele>670.6</ele>
        <time>2021-05-08T05:42:07Z</time>
      </trkpt>
      <trkpt lat="40.3725620" lon="-3.7529760">
        <ele>671.0</ele>
        <time>2021-05-08T05:42:09Z</time>
      </trkpt>
      <trkpt lat="40.3725140" lon="-3.7530510">
        <ele>671.3</ele>
        <time>2021-05-08T05:42:11Z</time>
      </trkpt>
      <trkpt lat="40.3724850" lon="-3.7531110">
        <ele>671.5</ele>
        <time>2021-05-08T05:42:12Z</time>
      </trkpt>
      <trkpt lat="40.3724530" lon="-3.7531690">
        <ele>671.8</ele>
        <time>2021-05-08T05:42:14Z</time>
      </trkpt>
      <trkpt lat="40.3724320" lon="-3.7532170">
        <ele>672.0</ele>
        <time>2021-05-08T05:42:15Z</time>
      </trkpt>
      <trkpt lat="40.3724070" lon="-3.7532650">
        <ele>672.2</ele>
        <time>2021-05-08T05:42:16Z</time>
      </trkpt>
      <trkpt lat="40.3723820" lon="-3.7533100">
        <ele>672.4</ele>
        <time>2021-05-08T05:42:18Z</time>
      </trkpt>
      <trkpt lat="40.3723530" lon="-3.7533790">
        <ele>672.7</ele>
        <time>2021-05-08T05:42:20Z</time>
      </trkpt>
      <trkpt lat="40.3723190" lon="-3.7534280">
        <ele>672.9</ele>
        <time>2021-05-08T05:42:22Z</time>
      </trkpt>
      <trkpt lat="40.3723000" lon="-3.7534590">
        <ele>673.1</ele>
        <time>2021-05-08T05:42:23Z</time>
      </trkpt>
      <trkpt lat="40.3722820" lon="-3.7534910">
        <ele>673.2</ele>
        <time>2021-05-08T05:42:24Z</time>
      </trkpt>
      <trkpt lat="40.3722710" lon="-3.7535210">
        <ele>673.4</ele>
        <time>2021-05-08T05:42:25Z</time>
      </trkpt>
      <trkpt lat="40.3722400" lon="-3.7535830">
        <ele>673.6</ele>
        <time>2021-05-08T05:42:27Z</time>
      </trkpt>
      <trkpt lat="40.3722210" lon="-3.7536200">
        <ele>673.8</ele>
        <time>2021-05-08T05:42:28Z</time>
      </trkpt>
      <trkpt lat="40.3722000" lon="-3.7536730">
        <ele>674.0</ele>
        <time>2021-05-08T05:42:30Z</time>
      </trkpt>
      <trkpt lat="40.3721730" lon="-3.7537400">
        <ele>674.2</ele>
        <time>2021-05-08T05:42:32Z</time>
      </trkpt>
      <trkpt lat="40.3721460" lon="-3.7538050">
        <ele>674.4</ele>
        <time>2021-05-08T05:42:34Z</time>
      </trkpt>
      <trkpt lat="40.3721340" lon="-3.7538370">
        <ele>674.5</ele>
        <time>2021-05-08T05:42:35Z</time>
      </trkpt>
      <trkpt lat="40.3721180" lon="-3.7538760">
        <ele>674.7</ele>
        <time>2021-05-08T05:42:36Z</time>
      </trkpt>
      <trkpt lat="40.3721040" lon="-3.7539070">
        <ele>674.8</ele>
        <time>2021-05-08T05:42:37Z</time>
      </trkpt>
      <trkpt lat="40.3720800" lon="-3.7539550">
        <ele>674.9</ele>
        <time>2021-05-08T05:42:39Z</time>
      </trkpt>
      <trkpt lat="40.3720690" lon="-3.7539910">
        <ele>675.0</ele>
        <time>2021-05-08T05:42:40Z</time>
      </trkpt>
      <trkpt lat="40.3720590" lon="-3.7540400">
        <ele>675.2</ele>
        <time>2021-05-08T05:42:42Z</time>
      </trkpt>
      <trkpt lat="40.3720680" lon="-3.7540300">
        <ele>675.2</ele>
        <time>2021-05-08T05:42:44Z</time>
      </trkpt>
      <trkpt lat="40.3720700" lon="-3.7540230">
        <ele>675.2</ele>
        <time>2021-05-08T05:42:45Z</time>
      </trkpt>
      <trkpt lat="40.3720710" lon="-3.7540190">
        <ele>675.2</ele>
        <time>2021-05-08T05:42:47Z</time>
      </trkpt>
      <trkpt lat="40.3720710" lon="-3.7540180">
        <ele>675.2</ele>
        <time>2021-05-08T05:42:48Z</time>
      </trkpt>
      <trkpt lat="40.3720720" lon="-3.7540170">
        <ele>675.2</ele>
        <time>2021-05-08T05:42:49Z</time>
      </trkpt>
      <trkpt lat="40.3720740" lon="-3.7540220">
        <ele>675.3</ele>
        <time>2021-05-08T05:42:51Z</time>
      </trkpt>
      <trkpt lat="40.3720740" lon="-3.7540240">
        <ele>675.3</ele>
        <time>2021-05-08T05:42:52Z</time>
      </trkpt>
      <trkpt lat="40.3720660" lon="-3.7541040">
        <ele>675.5</ele>
        <time>2021-05-08T05:42:55Z</time>
      </trkpt>
      <trkpt lat="40.3720570" lon="-3.7541560">
        <ele>675.6</ele>
        <time>2021-05-08T05:42:57Z</time>
      </trkpt>
      <trkpt lat="40.3720380" lon="-3.7542000">
        <ele>675.8</ele>
        <time>2021-05-08T05:42:58Z</time>
      </trkpt>
      <trkpt lat="40.3720190" lon="-3.7542430">
        <ele>675.9</ele>
        <time>2021-05-08T05:43:00Z</time>
      </trkpt>
      <trkpt lat="40.3719990" lon="-3.7542960">
        <ele>676.0</ele>
        <time>2021-05-08T05:43:01Z</time>
      </trkpt>
      <trkpt lat="40.3719870" lon="-3.7543400">
        <ele>676.1</ele>
        <time>2021-05-08T05:43:03Z</time>
      </trkpt>
      <trkpt lat="40.3719730" lon="-3.7543810">
        <ele>676.2</ele>
        <time>2021-05-08T05:43:04Z</time>
      </trkpt>
      <trkpt lat="40.3719620" lon="-3.7544200">
        <ele>676.3</ele>
        <time>2021-05-08T05:43:05Z</time>
      </trkpt>
      <trkpt lat="40.3719430" lon="-3.7544990">
        <ele>676.4</ele>
        <time>2021-05-08T05:43:07Z</time>
      </trkpt>
      <trkpt lat="40.3719320" lon="-3.7545500">
        <ele>676.5</ele>
        <time>2021-05-08T05:43:08Z</time>
      </trkpt>
      <trkpt lat="40.3719230" lon="-3.7545990">
        <ele>676.6</ele>
        <time>2021-05-08T05:43:09Z</time>
      </trkpt>
      <trkpt lat="40.3719090" lon="-3.7546730">
        <ele>676.7</ele>
        <time>2021-05-08T05:43:10Z</time>
      </trkpt>
      <trkpt lat="40.3718960" lon="-3.7547450">
        <ele>676.9</ele>
        <time>2021-05-08T05:43:12Z</time>
      </trkpt>
      <trkpt lat="40.3718770" lon="-3.7548310">
        <ele>677.0</ele>
        <time>2021-05-08T05:43:14Z</time>
      </trkpt>
      <trkpt lat="40.3718650" lon="-3.7549290">
        <ele>677.1</ele>
        <time>2021-05-08T05:43:16Z</time>
      </trkpt>
      <trkpt lat="40.3718610" lon="-3.7549790">
        <ele>677.1</ele>
        <time>2021-05-08T05:43:17Z</time>
      </trkpt>
      <trkpt lat="40.3718590" lon="-3.7550740">
        <ele>677.2</ele>
        <time>2021-05-08T05:43:19Z</time>
      </trkpt>
      <trkpt lat="40.3718590" lon="-3.7551790">
        <ele>677.3</ele>
        <time>2021-05-08T05:43:21Z</time>
      </trkpt>
      <trkpt lat="40.3718580" lon="-3.7552340">
        <ele>677.4</ele>
        <time>2021-05-08T05:43:22Z</time>
      </trkpt>
      <trkpt lat="40.3718580" lon="-3.7553120">
        <ele>677.5</ele>
        <time>2021-05-08T05:43:23Z</time>
      </trkpt>
      <trkpt lat="40.3718580" lon="-3.7553830">
        <ele>677.5</ele>
        <time>2021-05-08T05:43:24Z</time>
      </trkpt>
      <trkpt lat="40.3718550" lon="-3.7554440">
        <ele>677.6</ele>
        <time>2021-05-08T05:43:26Z</time>
      </trkpt>
      <trkpt lat="40.3718510" lon="-3.7555240">
        <ele>677.7</ele>
        <time>2021-05-08T05:43:27Z</time>
      </trkpt>
      <trkpt lat="40.3718490" lon="-3.7555800">
        <ele>677.7</ele>
        <time>2021-05-08T05:43:28Z</time>
      </trkpt>
      <trkpt lat="40.3718490" lon="-3.7556380">
        <ele>677.8</ele>
        <time>2021-05-08T05:43:29Z</time>
      </trkpt>
      <trkpt lat="40.3718580" lon="-3.7557190">
        <ele>677.9</ele>
        <time>2021-05-08T05:43:30Z</time>
      </trkpt>
      <trkpt lat="40.3718450" lon="-3.7558270">
        <ele>678.0</ele>
        <time>2021-05-08T05:43:32Z</time>
      </trkpt>
      <trkpt lat="40.3718400" lon="-3.7559530">
        <ele>678.1</ele>
        <time>2021-05-08T05:43:34Z</time>
      </trkpt>
      <trkpt lat="40.3718360" lon="-3.7560730">
        <ele>678.2</ele>
        <time>2021-05-08T05:43:36Z</time>
      </trkpt>
      <trkpt lat="40.3718410" lon="-3.7561360">
        <ele>678.2</ele>
        <time>2021-05-08T05:43:37Z</time>
      </trkpt>
      <trkpt lat="40.3718510" lon="-3.7561980">
        <ele>678.3</ele>
        <time>2021-05-08T05:43:38Z</time>
      </trkpt>
      <trkpt lat="40.3718700" lon="-3.7563140">
        <ele>678.3</ele>
        <time>2021-05-08T05:43:40Z</time>
      </trkpt>
      <trkpt lat="40.3718830" lon="-3.7564360">
        <ele>678.4</ele>
        <time>2021-05-08T05:43:42Z</time>
      </trkpt>
      <trkpt lat="40.3718940" lon="-3.7564990">
        <ele>678.5</ele>
        <time>2021-05-08T05:43:43Z</time>
      </trkpt>
      <trkpt lat="40.3719030" lon="-3.7565620">
        <ele>678.5</ele>
        <time>2021-05-08T05:43:44Z</time>
      </trkpt>
      <trkpt lat="40.3719190" lon="-3.7566910">
        <ele>678.6</ele>
        <time>2021-05-08T05:43:46Z</time>
      </trkpt>
      <trkpt lat="40.3719250" lon="-3.7567630">
        <ele>678.6</ele>
        <time>2021-05-08T05:43:47Z</time>
      </trkpt>
      <trkpt lat="40.3719350" lon="-3.7568290">
        <ele>678.7</ele>
        <time>2021-05-08T05:43:48Z</time>
      </trkpt>
      <trkpt lat="40.3719450" lon="-3.7568930">
        <ele>678.7</ele>
        <time>2021-05-08T05:43:49Z</time>
      </trkpt>
      <trkpt lat="40.3719530" lon="-3.7570170">
        <ele>678.8</ele>
        <time>2021-05-08T05:43:51Z</time>
      </trkpt>
      <trkpt lat="40.3719570" lon="-3.7570820">
        <ele>678.8</ele>
        <time>2021-05-08T05:43:52Z</time>
      </trkpt>
      <trkpt lat="40.3719630" lon="-3.7571460">
        <ele>678.8</ele>
        <time>2021-05-08T05:43:53Z</time>
      </trkpt>
      <trkpt lat="40.3719750" lon="-3.7572720">
        <ele>678.9</ele>
        <time>2021-05-08T05:43:55Z</time>
      </trkpt>
      <trkpt lat="40.3719830" lon="-3.7573320">
        <ele>679.0</ele>
        <time>2021-05-08T05:43:56Z</time>
      </trkpt>
      <trkpt lat="40.3719940" lon="-3.7574580">
        <ele>679.1</ele>
        <time>2021-05-08T05:43:58Z</time>
      </trkpt>
      <trkpt lat="40.3720110" lon="-3.7575930">
        <ele>679.1</ele>
        <time>2021-05-08T05:44:00Z</time>
      </trkpt>
      <trkpt lat="40.3720310" lon="-3.7577150">
        <ele>679.2</ele>
        <time>2021-05-08T05:44:02Z</time>
      </trkpt>
      <trkpt lat="40.3720500" lon="-3.7578360">
        <ele>679.3</ele>
        <time>2021-05-08T05:44:04Z</time>
      </trkpt>
      <trkpt lat="40.3720570" lon="-3.7579000">
        <ele>679.3</ele>
        <time>2021-05-08T05:44:05Z</time>
      </trkpt>
      <trkpt lat="40.3720710" lon="-3.7580330">
        <ele>679.4</ele>
        <time>2021-05-08T05:44:07Z</time>
      </trkpt>
      <trkpt lat="40.3720740" lon="-3.7581000">
        <ele>679.4</ele>
        <time>2021-05-08T05:44:08Z</time>
      </trkpt>
      <trkpt lat="40.3720800" lon="-3.7581750">
        <ele>679.5</ele>
        <time>2021-05-08T05:44:09Z</time>
      </trkpt>
      <trkpt lat="40.3720930" lon="-3.7582860">
        <ele>679.6</ele>
        <time>2021-05-08T05:44:11Z</time>
      </trkpt>
      <trkpt lat="40.3721000" lon="-3.7583460">
        <ele>679.6</ele>
        <time>2021-05-08T05:44:12Z</time>
      </trkpt>
      <trkpt lat="40.3721070" lon="-3.7584070">
        <ele>679.6</ele>
        <time>2021-05-08T05:44:13Z</time>
      </trkpt>
      <trkpt lat="40.3721210" lon="-3.7585350">
        <ele>679.7</ele>
        <time>2021-05-08T05:44:15Z</time>
      </trkpt>
      <trkpt lat="40.3721340" lon="-3.7586570">
        <ele>679.7</ele>
        <time>2021-05-08T05:44:17Z</time>
      </trkpt>
      <trkpt lat="40.3721450" lon="-3.7587230">
        <ele>679.7</ele>
        <time>2021-05-08T05:44:18Z</time>
      </trkpt>
      <trkpt lat="40.3721550" lon="-3.7587890">
        <ele>679.7</ele>
        <time>2021-05-08T05:44:19Z</time>
      </trkpt>
      <trkpt lat="40.3721750" lon="-3.7589090">
        <ele>679.7</ele>
        <time>2021-05-08T05:44:21Z</time>
      </trkpt>
      <trkpt lat="40.3721840" lon="-3.7589730">
        <ele>679.7</ele>
        <time>2021-05-08T05:44:22Z</time>
      </trkpt>
      <trkpt lat="40.3721910" lon="-3.7590370">
        <ele>679.6</ele>
        <time>2021-05-08T05:44:23Z</time>
      </trkpt>
      <trkpt lat="40.3721990" lon="-3.7591010">
        <ele>679.6</ele>
        <time>2021-05-08T05:44:24Z</time>
      </trkpt>
      <trkpt lat="40.3722180" lon="-3.7592260">
        <ele>679.6</ele>
        <time>2021-05-08T05:44:26Z</time>
      </trkpt>
      <trkpt lat="40.3722280" lon="-3.7592840">
        <ele>679.5</ele>
        <time>2021-05-08T05:44:27Z</time>
      </trkpt>
      <trkpt lat="40.3722500" lon="-3.7594000">
        <ele>679.5</ele>
        <time>2021-05-08T05:44:29Z</time>
      </trkpt>
      <trkpt lat="40.3722650" lon="-3.7595350">
        <ele>679.4</ele>
        <time>2021-05-08T05:44:31Z</time>
      </trkpt>
      <trkpt lat="40.3722720" lon="-3.7596090">
        <ele>679.4</ele>
        <time>2021-05-08T05:44:32Z</time>
      </trkpt>
      <trkpt lat="40.3722870" lon="-3.7597460">
        <ele>679.3</ele>
        <time>2021-05-08T05:44:34Z</time>
      </trkpt>
      <trkpt lat="40.3722960" lon="-3.7598180">
        <ele>679.2</ele>
        <time>2021-05-08T05:44:35Z</time>
      </trkpt>
      <trkpt lat="40.3723070" lon="-3.7598880">
        <ele>679.2</ele>
        <time>2021-05-08T05:44:36Z</time>
      </trkpt>
      <trkpt lat="40.3723220" lon="-3.7600400">
        <ele>679.0</ele>
        <time>2021-05-08T05:44:38Z</time>
      </trkpt>
      <trkpt lat="40.3723390" lon="-3.7601900">
        <ele>678.9</ele>
        <time>2021-05-08T05:44:40Z</time>
      </trkpt>
      <trkpt lat="40.3723580" lon="-3.7603290">
        <ele>678.8</ele>
        <time>2021-05-08T05:44:42Z</time>
      </trkpt>
      <trkpt lat="40.3723690" lon="-3.7604030">
        <ele>678.7</ele>
        <time>2021-05-08T05:44:43Z</time>
      </trkpt>
      <trkpt lat="40.3723920" lon="-3.7605470">
        <ele>678.6</ele>
        <time>2021-05-08T05:44:45Z</time>
      </trkpt>
      <trkpt lat="40.3724100" lon="-3.7606840">
        <ele>678.5</ele>
        <time>2021-05-08T05:44:47Z</time>
      </trkpt>
      <trkpt lat="40.3724170" lon="-3.7607420">
        <ele>678.5</ele>
        <time>2021-05-08T05:44:48Z</time>
      </trkpt>
      <trkpt lat="40.3724300" lon="-3.7608180">
        <ele>678.4</ele>
        <time>2021-05-08T05:44:50Z</time>
      </trkpt>
      <trkpt lat="40.3724470" lon="-3.7609130">
        <ele>678.3</ele>
        <time>2021-05-08T05:44:52Z</time>
      </trkpt>
      <trkpt lat="40.3724540" lon="-3.7609570">
        <ele>678.3</ele>
        <time>2021-05-08T05:44:53Z</time>
      </trkpt>
      <trkpt lat="40.3724630" lon="-3.7610400">
        <ele>678.2</ele>
        <time>2021-05-08T05:44:54Z</time>
      </trkpt>
      <trkpt lat="40.3724760" lon="-3.7611680">
        <ele>678.0</ele>
        <time>2021-05-08T05:44:56Z</time>
      </trkpt>
      <trkpt lat="40.3724890" lon="-3.7613130">
        <ele>677.9</ele>
        <time>2021-05-08T05:44:58Z</time>
      </trkpt>
      <trkpt lat="40.3725060" lon="-3.7614570">
        <ele>677.7</ele>
        <time>2021-05-08T05:45:00Z</time>
      </trkpt>
      <trkpt lat="40.3725310" lon="-3.7615960">
        <ele>677.6</ele>
        <time>2021-05-08T05:45:02Z</time>
      </trkpt>
      <trkpt lat="40.3725600" lon="-3.7617430">
        <ele>677.4</ele>
        <time>2021-05-08T05:45:04Z</time>
      </trkpt>
      <trkpt lat="40.3725720" lon="-3.7618200">
        <ele>677.3</ele>
        <time>2021-05-08T05:45:05Z</time>
      </trkpt>
      <trkpt lat="40.3725820" lon="-3.7618940">
        <ele>677.3</ele>
        <time>2021-05-08T05:45:06Z</time>
      </trkpt>
      <trkpt lat="40.3725980" lon="-3.7620330">
        <ele>677.2</ele>
        <time>2021-05-08T05:45:08Z</time>
      </trkpt>
      <trkpt lat="40.3726080" lon="-3.7621090">
        <ele>677.2</ele>
        <time>2021-05-08T05:45:09Z</time>
      </trkpt>
      <trkpt lat="40.3726180" lon="-3.7621870">
        <ele>677.2</ele>
        <time>2021-05-08T05:45:10Z</time>
      </trkpt>
      <trkpt lat="40.3726290" lon="-3.7622630">
        <ele>677.1</ele>
        <time>2021-05-08T05:45:11Z</time>
      </trkpt>
      <trkpt lat="40.3726430" lon="-3.7623400">
        <ele>677.0</ele>
        <time>2021-05-08T05:45:12Z</time>
      </trkpt>
      <trkpt lat="40.3726690" lon="-3.7624620">
        <ele>676.8</ele>
        <time>2021-05-08T05:45:14Z</time>
      </trkpt>
      <trkpt lat="40.3726840" lon="-3.7625170">
        <ele>676.9</ele>
        <time>2021-05-08T05:45:15Z</time>
      </trkpt>
      <trkpt lat="40.3727140" lon="-3.7626260">
        <ele>677.0</ele>
        <time>2021-05-08T05:45:17Z</time>
      </trkpt>
      <trkpt lat="40.3727350" lon="-3.7627460">
        <ele>677.2</ele>
        <time>2021-05-08T05:45:19Z</time>
      </trkpt>
      <trkpt lat="40.3727520" lon="-3.7628710">
        <ele>677.4</ele>
        <time>2021-05-08T05:45:21Z</time>
      </trkpt>
      <trkpt lat="40.3727660" lon="-3.7629620">
        <ele>677.6</ele>
        <time>2021-05-08T05:45:23Z</time>
      </trkpt>
      <trkpt lat="40.3727730" lon="-3.7630240">
        <ele>677.7</ele>
        <time>2021-05-08T05:45:24Z</time>
      </trkpt>
      <trkpt lat="40.3727950" lon="-3.7631580">
        <ele>677.9</ele>
        <time>2021-05-08T05:45:26Z</time>
      </trkpt>
      <trkpt lat="40.3728060" lon="-3.7632120">
        <ele>678.0</ele>
        <time>2021-05-08T05:45:27Z</time>
      </trkpt>
      <trkpt lat="40.3728100" lon="-3.7632350">
        <ele>678.1</ele>
        <time>2021-05-08T05:45:28Z</time>
      </trkpt>
      <trkpt lat="40.3728210" lon="-3.7633280">
        <ele>678.2</ele>
        <time>2021-05-08T05:45:30Z</time>
      </trkpt>
      <trkpt lat="40.3728270" lon="-3.7633900">
        <ele>678.3</ele>
        <time>2021-05-08T05:45:31Z</time>
      </trkpt>
      <trkpt lat="40.3728310" lon="-3.7634510">
        <ele>678.5</ele>
        <time>2021-05-08T05:45:33Z</time>
      </trkpt>
      <trkpt lat="40.3728370" lon="-3.7635020">
        <ele>678.6</ele>
        <time>2021-05-08T05:45:34Z</time>
      </trkpt>
      <trkpt lat="40.3728450" lon="-3.7635840">
        <ele>678.7</ele>
        <time>2021-05-08T05:45:36Z</time>
      </trkpt>
      <trkpt lat="40.3728520" lon="-3.7636300">
        <ele>678.8</ele>
        <time>2021-05-08T05:45:37Z</time>
      </trkpt>
      <trkpt lat="40.3728640" lon="-3.7637010">
        <ele>678.9</ele>
        <time>2021-05-08T05:45:39Z</time>
      </trkpt>
      <trkpt lat="40.3728620" lon="-3.7637580">
        <ele>679.0</ele>
        <time>2021-05-08T05:45:40Z</time>
      </trkpt>
      <trkpt lat="40.3728800" lon="-3.7638450">
        <ele>679.2</ele>
        <time>2021-05-08T05:45:42Z</time>
      </trkpt>
      <trkpt lat="40.3728930" lon="-3.7639280">
        <ele>679.4</ele>
        <time>2021-05-08T05:45:44Z</time>
      </trkpt>
      <trkpt lat="40.3729010" lon="-3.7639780">
        <ele>679.5</ele>
        <time>2021-05-08T05:45:45Z</time>
      </trkpt>
      <trkpt lat="40.3729110" lon="-3.7640320">
        <ele>679.6</ele>
        <time>2021-05-08T05:45:46Z</time>
      </trkpt>
      <trkpt lat="40.3729210" lon="-3.7640860">
        <ele>679.7</ele>
        <time>2021-05-08T05:45:47Z</time>
      </trkpt>
      <trkpt lat="40.3729290" lon="-3.7641450">
        <ele>679.8</ele>
        <time>2021-05-08T05:45:48Z</time>
      </trkpt>
      <trkpt lat="40.3729360" lon="-3.7642090">
        <ele>680.0</ele>
        <time>2021-05-08T05:45:50Z</time>
      </trkpt>
      <trkpt lat="40.3729470" lon="-3.7642930">
        <ele>680.2</ele>
        <time>2021-05-08T05:45:52Z</time>
      </trkpt>
      <trkpt lat="40.3729650" lon="-3.7643440">
        <ele>680.2</ele>
        <time>2021-05-08T05:45:53Z</time>
      </trkpt>
      <trkpt lat="40.3729790" lon="-3.7644010">
        <ele>680.2</ele>
        <time>2021-05-08T05:45:54Z</time>
      </trkpt>
      <trkpt lat="40.3729910" lon="-3.7644600">
        <ele>680.3</ele>
        <time>2021-05-08T05:45:55Z</time>
      </trkpt>
      <trkpt lat="40.3730050" lon="-3.7645290">
        <ele>680.3</ele>
        <time>2021-05-08T05:45:57Z</time>
      </trkpt>
      <trkpt lat="40.3730190" lon="-3.7645980">
        <ele>680.4</ele>
        <time>2021-05-08T05:45:58Z</time>
      </trkpt>
      <trkpt lat="40.3730290" lon="-3.7646580">
        <ele>680.4</ele>
        <time>2021-05-08T05:45:59Z</time>
      </trkpt>
      <trkpt lat="40.3730480" lon="-3.7647460">
        <ele>680.5</ele>
        <time>2021-05-08T05:46:00Z</time>
      </trkpt>
      <trkpt lat="40.3730610" lon="-3.7648110">
        <ele>680.6</ele>
        <time>2021-05-08T05:46:02Z</time>
      </trkpt>
      <trkpt lat="40.3730730" lon="-3.7648730">
        <ele>680.6</ele>
        <time>2021-05-08T05:46:03Z</time>
      </trkpt>
      <trkpt lat="40.3730810" lon="-3.7649310">
        <ele>680.7</ele>
        <time>2021-05-08T05:46:04Z</time>
      </trkpt>
      <trkpt lat="40.3730940" lon="-3.7650620">
        <ele>680.8</ele>
        <time>2021-05-08T05:46:06Z</time>
      </trkpt>
      <trkpt lat="40.3730990" lon="-3.7651170">
        <ele>680.9</ele>
        <time>2021-05-08T05:46:07Z</time>
      </trkpt>
      <trkpt lat="40.3731140" lon="-3.7652290">
        <ele>681.1</ele>
        <time>2021-05-08T05:46:09Z</time>
      </trkpt>
      <trkpt lat="40.3731400" lon="-3.7653570">
        <ele>681.4</ele>
        <time>2021-05-08T05:46:11Z</time>
      </trkpt>
      <trkpt lat="40.3731550" lon="-3.7654190">
        <ele>681.5</ele>
        <time>2021-05-08T05:46:12Z</time>
      </trkpt>
      <trkpt lat="40.3731710" lon="-3.7654790">
        <ele>681.6</ele>
        <time>2021-05-08T05:46:13Z</time>
      </trkpt>
      <trkpt lat="40.3731980" lon="-3.7656040">
        <ele>681.6</ele>
        <time>2021-05-08T05:46:15Z</time>
      </trkpt>
      <trkpt lat="40.3732060" lon="-3.7656600">
        <ele>681.6</ele>
        <time>2021-05-08T05:46:16Z</time>
      </trkpt>
      <trkpt lat="40.3732140" lon="-3.7657310">
        <ele>681.6</ele>
        <time>2021-05-08T05:46:17Z</time>
      </trkpt>
      <trkpt lat="40.3732250" lon="-3.7658620">
        <ele>681.8</ele>
        <time>2021-05-08T05:46:19Z</time>
      </trkpt>
      <trkpt lat="40.3732410" lon="-3.7660040">
        <ele>682.1</ele>
        <time>2021-05-08T05:46:21Z</time>
      </trkpt>
      <trkpt lat="40.3732590" lon="-3.7661310">
        <ele>682.2</ele>
        <time>2021-05-08T05:46:23Z</time>
      </trkpt>
      <trkpt lat="40.3732690" lon="-3.7661940">
        <ele>682.3</ele>
        <time>2021-05-08T05:46:24Z</time>
      </trkpt>
      <trkpt lat="40.3732800" lon="-3.7662610">
        <ele>682.4</ele>
        <time>2021-05-08T05:46:25Z</time>
      </trkpt>
      <trkpt lat="40.3732980" lon="-3.7663810">
        <ele>682.5</ele>
        <time>2021-05-08T05:46:27Z</time>
      </trkpt>
      <trkpt lat="40.3733140" lon="-3.7665160">
        <ele>682.8</ele>
        <time>2021-05-08T05:46:29Z</time>
      </trkpt>
      <trkpt lat="40.3733220" lon="-3.7665790">
        <ele>682.9</ele>
        <time>2021-05-08T05:46:30Z</time>
      </trkpt>
      <trkpt lat="40.3733440" lon="-3.7667030">
        <ele>683.0</ele>
        <time>2021-05-08T05:46:32Z</time>
      </trkpt>
      <trkpt lat="40.3733600" lon="-3.7667630">
        <ele>683.1</ele>
        <time>2021-05-08T05:46:33Z</time>
      </trkpt>
      <trkpt lat="40.3733870" lon="-3.7668880">
        <ele>683.2</ele>
        <time>2021-05-08T05:46:35Z</time>
      </trkpt>
      <trkpt lat="40.3733980" lon="-3.7669520">
        <ele>683.3</ele>
        <time>2021-05-08T05:46:36Z</time>
      </trkpt>
      <trkpt lat="40.3734070" lon="-3.7670150">
        <ele>683.4</ele>
        <time>2021-05-08T05:46:37Z</time>
      </trkpt>
      <trkpt lat="40.3734310" lon="-3.7671390">
        <ele>683.5</ele>
        <time>2021-05-08T05:46:39Z</time>
      </trkpt>
      <trkpt lat="40.3734410" lon="-3.7672040">
        <ele>683.5</ele>
        <time>2021-05-08T05:46:40Z</time>
      </trkpt>
      <trkpt lat="40.3734590" lon="-3.7673370">
        <ele>683.7</ele>
        <time>2021-05-08T05:46:42Z</time>
      </trkpt>
      <trkpt lat="40.3734670" lon="-3.7674010">
        <ele>683.7</ele>
        <time>2021-05-08T05:46:43Z</time>
      </trkpt>
      <trkpt lat="40.3734860" lon="-3.7675300">
        <ele>683.8</ele>
        <time>2021-05-08T05:46:45Z</time>
      </trkpt>
      <trkpt lat="40.3734960" lon="-3.7675860">
        <ele>683.9</ele>
        <time>2021-05-08T05:46:46Z</time>
      </trkpt>
      <trkpt lat="40.3735160" lon="-3.7677150">
        <ele>683.9</ele>
        <time>2021-05-08T05:46:48Z</time>
      </trkpt>
      <trkpt lat="40.3735240" lon="-3.7677870">
        <ele>683.9</ele>
        <time>2021-05-08T05:46:49Z</time>
      </trkpt>
      <trkpt lat="40.3735370" lon="-3.7679280">
        <ele>683.8</ele>
        <time>2021-05-08T05:46:51Z</time>
      </trkpt>
      <trkpt lat="40.3735480" lon="-3.7679960">
        <ele>683.8</ele>
        <time>2021-05-08T05:46:52Z</time>
      </trkpt>
      <trkpt lat="40.3735630" lon="-3.7681250">
        <ele>683.7</ele>
        <time>2021-05-08T05:46:54Z</time>
      </trkpt>
      <trkpt lat="40.3735790" lon="-3.7682350">
        <ele>683.7</ele>
        <time>2021-05-08T05:46:56Z</time>
      </trkpt>
      <trkpt lat="40.3736040" lon="-3.7683520">
        <ele>683.7</ele>
        <time>2021-05-08T05:46:58Z</time>
      </trkpt>
      <trkpt lat="40.3736190" lon="-3.7684830">
        <ele>683.7</ele>
        <time>2021-05-08T05:47:00Z</time>
      </trkpt>
      <trkpt lat="40.3736380" lon="-3.7686280">
        <ele>683.7</ele>
        <time>2021-05-08T05:47:02Z</time>
      </trkpt>
      <trkpt lat="40.3736560" lon="-3.7687770">
        <ele>683.6</ele>
        <time>2021-05-08T05:47:04Z</time>
      </trkpt>
      <trkpt lat="40.3736670" lon="-3.7688510">
        <ele>683.6</ele>
        <time>2021-05-08T05:47:05Z</time>
      </trkpt>
      <trkpt lat="40.3736870" lon="-3.7689860">
        <ele>683.6</ele>
        <time>2021-05-08T05:47:07Z</time>
      </trkpt>
      <trkpt lat="40.3736940" lon="-3.7690550">
        <ele>683.5</ele>
        <time>2021-05-08T05:47:08Z</time>
      </trkpt>
      <trkpt lat="40.3737110" lon="-3.7691880">
        <ele>683.5</ele>
        <time>2021-05-08T05:47:10Z</time>
      </trkpt>
      <trkpt lat="40.3737410" lon="-3.7693230">
        <ele>683.4</ele>
        <time>2021-05-08T05:47:12Z</time>
      </trkpt>
      <trkpt lat="40.3737740" lon="-3.7694650">
        <ele>683.3</ele>
        <time>2021-05-08T05:47:14Z</time>
      </trkpt>
      <trkpt lat="40.3737900" lon="-3.7695340">
        <ele>683.2</ele>
        <time>2021-05-08T05:47:15Z</time>
      </trkpt>
      <trkpt lat="40.3738010" lon="-3.7696020">
        <ele>683.2</ele>
        <time>2021-05-08T05:47:16Z</time>
      </trkpt>
      <trkpt lat="40.3738290" lon="-3.7697320">
        <ele>683.0</ele>
        <time>2021-05-08T05:47:18Z</time>
      </trkpt>
      <trkpt lat="40.3738470" lon="-3.7698700">
        <ele>682.9</ele>
        <time>2021-05-08T05:47:20Z</time>
      </trkpt>
      <trkpt lat="40.3738720" lon="-3.7700040">
        <ele>682.8</ele>
        <time>2021-05-08T05:47:22Z</time>
      </trkpt>
      <trkpt lat="40.3738850" lon="-3.7700670">
        <ele>682.7</ele>
        <time>2021-05-08T05:47:23Z</time>
      </trkpt>
      <trkpt lat="40.3738980" lon="-3.7701350">
        <ele>682.6</ele>
        <time>2021-05-08T05:47:24Z</time>
      </trkpt>
      <trkpt lat="40.3739090" lon="-3.7702030">
        <ele>682.6</ele>
        <time>2021-05-08T05:47:25Z</time>
      </trkpt>
      <trkpt lat="40.3739270" lon="-3.7703000">
        <ele>682.5</ele>
        <time>2021-05-08T05:47:27Z</time>
      </trkpt>
      <trkpt lat="40.3739410" lon="-3.7703890">
        <ele>682.5</ele>
        <time>2021-05-08T05:47:28Z</time>
      </trkpt>
      <trkpt lat="40.3739470" lon="-3.7704510">
        <ele>682.4</ele>
        <time>2021-05-08T05:47:30Z</time>
      </trkpt>
      <trkpt lat="40.3739530" lon="-3.7705020">
        <ele>682.3</ele>
        <time>2021-05-08T05:47:32Z</time>
      </trkpt>
      <trkpt lat="40.3739630" lon="-3.7705460">
        <ele>682.2</ele>
        <time>2021-05-08T05:47:33Z</time>
      </trkpt>
      <trkpt lat="40.3739700" lon="-3.7705910">
        <ele>682.2</ele>
        <time>2021-05-08T05:47:34Z</time>
      </trkpt>
      <trkpt lat="40.3739670" lon="-3.7706940">
        <ele>681.9</ele>
        <time>2021-05-08T05:47:35Z</time>
      </trkpt>
      <trkpt lat="40.3739860" lon="-3.7707850">
        <ele>681.8</ele>
        <time>2021-05-08T05:47:37Z</time>
      </trkpt>
      <trkpt lat="40.3740090" lon="-3.7709480">
        <ele>681.5</ele>
        <time>2021-05-08T05:47:39Z</time>
      </trkpt>
      <trkpt lat="40.3740270" lon="-3.7710960">
        <ele>681.3</ele>
        <time>2021-05-08T05:47:41Z</time>
      </trkpt>
      <trkpt lat="40.3740470" lon="-3.7712580">
        <ele>681.0</ele>
        <time>2021-05-08T05:47:43Z</time>
      </trkpt>
      <trkpt lat="40.3740740" lon="-3.7714170">
        <ele>680.7</ele>
        <time>2021-05-08T05:47:45Z</time>
      </trkpt>
      <trkpt lat="40.3740880" lon="-3.7715050">
        <ele>680.7</ele>
        <time>2021-05-08T05:47:46Z</time>
      </trkpt>
      <trkpt lat="40.3741200" lon="-3.7716750">
        <ele>680.5</ele>
        <time>2021-05-08T05:47:48Z</time>
      </trkpt>
      <trkpt lat="40.3741460" lon="-3.7718490">
        <ele>680.4</ele>
        <time>2021-05-08T05:47:50Z</time>
      </trkpt>
      <trkpt lat="40.3741750" lon="-3.7720180">
        <ele>680.4</ele>
        <time>2021-05-08T05:47:52Z</time>
      </trkpt>
      <trkpt lat="40.3741860" lon="-3.7721040">
        <ele>680.4</ele>
        <time>2021-05-08T05:47:53Z</time>
      </trkpt>
      <trkpt lat="40.3742040" lon="-3.7722620">
        <ele>680.4</ele>
        <time>2021-05-08T05:47:55Z</time>
      </trkpt>
      <trkpt lat="40.3742250" lon="-3.7724190">
        <ele>680.4</ele>
        <time>2021-05-08T05:47:57Z</time>
      </trkpt>
      <trkpt lat="40.3742460" lon="-3.7725810">
        <ele>680.4</ele>
        <time>2021-05-08T05:47:59Z</time>
      </trkpt>
      <trkpt lat="40.3742710" lon="-3.7727390">
        <ele>680.3</ele>
        <time>2021-05-08T05:48:01Z</time>
      </trkpt>
      <trkpt lat="40.3742870" lon="-3.7728160">
        <ele>680.2</ele>
        <time>2021-05-08T05:48:02Z</time>
      </trkpt>
      <trkpt lat="40.3743050" lon="-3.7728990">
        <ele>680.1</ele>
        <time>2021-05-08T05:48:03Z</time>
      </trkpt>
      <trkpt lat="40.3743380" lon="-3.7730660">
        <ele>679.9</ele>
        <time>2021-05-08T05:48:05Z</time>
      </trkpt>
      <trkpt lat="40.3743520" lon="-3.7731570">
        <ele>679.8</ele>
        <time>2021-05-08T05:48:06Z</time>
      </trkpt>
      <trkpt lat="40.3743720" lon="-3.7733330">
        <ele>679.8</ele>
        <time>2021-05-08T05:48:08Z</time>
      </trkpt>
      <trkpt lat="40.3743840" lon="-3.7734120">
        <ele>680.0</ele>
        <time>2021-05-08T05:48:09Z</time>
      </trkpt>
      <trkpt lat="40.3744140" lon="-3.7735710">
        <ele>680.0</ele>
        <time>2021-05-08T05:48:11Z</time>
      </trkpt>
      <trkpt lat="40.3744260" lon="-3.7736560">
        <ele>680.0</ele>
        <time>2021-05-08T05:48:12Z</time>
      </trkpt>
      <trkpt lat="40.3744470" lon="-3.7738220">
        <ele>680.0</ele>
        <time>2021-05-08T05:48:14Z</time>
      </trkpt>
      <trkpt lat="40.3744770" lon="-3.7739810">
        <ele>680.2</ele>
        <time>2021-05-08T05:48:16Z</time>
      </trkpt>
      <trkpt lat="40.3745040" lon="-3.7741380">
        <ele>680.4</ele>
        <time>2021-05-08T05:48:18Z</time>
      </trkpt>
      <trkpt lat="40.3745250" lon="-3.7742940">
        <ele>680.6</ele>
        <time>2021-05-08T05:48:20Z</time>
      </trkpt>
      <trkpt lat="40.3745490" lon="-3.7744450">
        <ele>680.8</ele>
        <time>2021-05-08T05:48:22Z</time>
      </trkpt>
      <trkpt lat="40.3745600" lon="-3.7745280">
        <ele>680.9</ele>
        <time>2021-05-08T05:48:23Z</time>
      </trkpt>
      <trkpt lat="40.3745830" lon="-3.7746620">
        <ele>681.1</ele>
        <time>2021-05-08T05:48:25Z</time>
      </trkpt>
      <trkpt lat="40.3745960" lon="-3.7747420">
        <ele>681.2</ele>
        <time>2021-05-08T05:48:26Z</time>
      </trkpt>
      <trkpt lat="40.3746170" lon="-3.7748770">
        <ele>681.4</ele>
        <time>2021-05-08T05:48:28Z</time>
      </trkpt>
      <trkpt lat="40.3746310" lon="-3.7749990">
        <ele>681.7</ele>
        <time>2021-05-08T05:48:30Z</time>
      </trkpt>
      <trkpt lat="40.3746370" lon="-3.7750420">
        <ele>681.8</ele>
        <time>2021-05-08T05:48:31Z</time>
      </trkpt>
      <trkpt lat="40.3746520" lon="-3.7751320">
        <ele>681.8</ele>
        <time>2021-05-08T05:48:33Z</time>
      </trkpt>
      <trkpt lat="40.3746700" lon="-3.7752220">
        <ele>681.9</ele>
        <time>2021-05-08T05:48:35Z</time>
      </trkpt>
      <trkpt lat="40.3746820" lon="-3.7752780">
        <ele>681.9</ele>
        <time>2021-05-08T05:48:36Z</time>
      </trkpt>
      <trkpt lat="40.3746920" lon="-3.7752400">
        <ele>681.9</ele>
        <time>2021-05-08T05:48:37Z</time>
      </trkpt>
      <trkpt lat="40.3747110" lon="-3.7753400">
        <ele>682.1</ele>
        <time>2021-05-08T05:48:39Z</time>
      </trkpt>
      <trkpt lat="40.3747330" lon="-3.7755260">
        <ele>682.3</ele>
        <time>2021-05-08T05:48:41Z</time>
      </trkpt>
      <trkpt lat="40.3747500" lon="-3.7756720">
        <ele>682.6</ele>
        <time>2021-05-08T05:48:43Z</time>
      </trkpt>
      <trkpt lat="40.3747660" lon="-3.7757560">
        <ele>682.8</ele>
        <time>2021-05-08T05:48:45Z</time>
      </trkpt>
      <trkpt lat="40.3747570" lon="-3.7758210">
        <ele>682.9</ele>
        <time>2021-05-08T05:48:46Z</time>
      </trkpt>
      <trkpt lat="40.3747510" lon="-3.7758810">
        <ele>683.0</ele>
        <time>2021-05-08T05:48:47Z</time>
      </trkpt>
      <trkpt lat="40.3747630" lon="-3.7759800">
        <ele>683.2</ele>
        <time>2021-05-08T05:48:49Z</time>
      </trkpt>
      <trkpt lat="40.3748000" lon="-3.7760910">
        <ele>683.4</ele>
        <time>2021-05-08T05:48:51Z</time>
      </trkpt>
      <trkpt lat="40.3748110" lon="-3.7761610">
        <ele>683.5</ele>
        <time>2021-05-08T05:48:52Z</time>
      </trkpt>
      <trkpt lat="40.3748300" lon="-3.7762680">
        <ele>683.7</ele>
        <time>2021-05-08T05:48:54Z</time>
      </trkpt>
      <trkpt lat="40.3748420" lon="-3.7763250">
        <ele>683.7</ele>
        <time>2021-05-08T05:48:55Z</time>
      </trkpt>
      <trkpt lat="40.3748630" lon="-3.7764220">
        <ele>683.9</ele>
        <time>2021-05-08T05:48:56Z</time>
      </trkpt>
      <trkpt lat="40.3748770" lon="-3.7764970">
        <ele>683.9</ele>
        <time>2021-05-08T05:48:58Z</time>
      </trkpt>
      <trkpt lat="40.3749000" lon="-3.7765960">
        <ele>684.0</ele>
        <time>2021-05-08T05:49:00Z</time>
      </trkpt>
      <trkpt lat="40.3749150" lon="-3.7766520">
        <ele>684.0</ele>
        <time>2021-05-08T05:49:01Z</time>
      </trkpt>
      <trkpt lat="40.3749330" lon="-3.7767450">
        <ele>684.1</ele>
        <time>2021-05-08T05:49:02Z</time>
      </trkpt>
      <trkpt lat="40.3749430" lon="-3.7768170">
        <ele>684.2</ele>
        <time>2021-05-08T05:49:04Z</time>
      </trkpt>
      <trkpt lat="40.3749620" lon="-3.7769110">
        <ele>684.2</ele>
        <time>2021-05-08T05:49:06Z</time>
      </trkpt>
      <trkpt lat="40.3749740" lon="-3.7769660">
        <ele>684.3</ele>
        <time>2021-05-08T05:49:07Z</time>
      </trkpt>
      <trkpt lat="40.3749760" lon="-3.7770440">
        <ele>684.4</ele>
        <time>2021-05-08T05:49:08Z</time>
      </trkpt>
      <trkpt lat="40.3749930" lon="-3.7771640">
        <ele>684.6</ele>
        <time>2021-05-08T05:49:10Z</time>
      </trkpt>
      <trkpt lat="40.3750010" lon="-3.7772230">
        <ele>684.6</ele>
        <time>2021-05-08T05:49:11Z</time>
      </trkpt>
      <trkpt lat="40.3750110" lon="-3.7772640">
        <ele>684.7</ele>
        <time>2021-05-08T05:49:12Z</time>
      </trkpt>
      <trkpt lat="40.3750290" lon="-3.7773230">
        <ele>684.8</ele>
        <time>2021-05-08T05:49:14Z</time>
      </trkpt>
      <trkpt lat="40.3750370" lon="-3.7774100">
        <ele>684.9</ele>
        <time>2021-05-08T05:49:15Z</time>
      </trkpt>
      <trkpt lat="40.3750510" lon="-3.7775510">
        <ele>685.1</ele>
        <time>2021-05-08T05:49:17Z</time>
      </trkpt>
      <trkpt lat="40.3750580" lon="-3.7776200">
        <ele>685.2</ele>
        <time>2021-05-08T05:49:18Z</time>
      </trkpt>
      <trkpt lat="40.3751050" lon="-3.7776460">
        <ele>685.3</ele>
        <time>2021-05-08T05:49:20Z</time>
      </trkpt>
      <trkpt lat="40.3750920" lon="-3.7778110">
        <ele>685.5</ele>
        <time>2021-05-08T05:49:21Z</time>
      </trkpt>
      <trkpt lat="40.3751150" lon="-3.7779460">
        <ele>685.6</ele>
        <time>2021-05-08T05:49:23Z</time>
      </trkpt>
      <trkpt lat="40.3751360" lon="-3.7780800">
        <ele>685.7</ele>
        <time>2021-05-08T05:49:25Z</time>
      </trkpt>
      <trkpt lat="40.3751570" lon="-3.7782050">
        <ele>685.8</ele>
        <time>2021-05-08T05:49:27Z</time>
      </trkpt>
      <trkpt lat="40.3751700" lon="-3.7782660">
        <ele>685.9</ele>
        <time>2021-05-08T05:49:28Z</time>
      </trkpt>
      <trkpt lat="40.3751920" lon="-3.7783830">
        <ele>686.0</ele>
        <time>2021-05-08T05:49:30Z</time>
      </trkpt>
      <trkpt lat="40.3752080" lon="-3.7785050">
        <ele>686.1</ele>
        <time>2021-05-08T05:49:32Z</time>
      </trkpt>
      <trkpt lat="40.3752160" lon="-3.7785740">
        <ele>686.1</ele>
        <time>2021-05-08T05:49:33Z</time>
      </trkpt>
      <trkpt lat="40.3752390" lon="-3.7787110">
        <ele>686.2</ele>
        <time>2021-05-08T05:49:35Z</time>
      </trkpt>
      <trkpt lat="40.3752620" lon="-3.7788440">
        <ele>686.3</ele>
        <time>2021-05-08T05:49:37Z</time>
      </trkpt>
      <trkpt lat="40.3752790" lon="-3.7789810">
        <ele>686.5</ele>
        <time>2021-05-08T05:49:39Z</time>
      </trkpt>
      <trkpt lat="40.3752990" lon="-3.7791260">
        <ele>686.6</ele>
        <time>2021-05-08T05:49:41Z</time>
      </trkpt>
      <trkpt lat="40.3753230" lon="-3.7792620">
        <ele>686.7</ele>
        <time>2021-05-08T05:49:43Z</time>
      </trkpt>
      <trkpt lat="40.3753360" lon="-3.7793320">
        <ele>686.8</ele>
        <time>2021-05-08T05:49:44Z</time>
      </trkpt>
      <trkpt lat="40.3753490" lon="-3.7794310">
        <ele>686.9</ele>
        <time>2021-05-08T05:49:46Z</time>
      </trkpt>
      <trkpt lat="40.3753650" lon="-3.7795420">
        <ele>687.0</ele>
        <time>2021-05-08T05:49:47Z</time>
      </trkpt>
      <trkpt lat="40.3753810" lon="-3.7796780">
        <ele>687.1</ele>
        <time>2021-05-08T05:49:49Z</time>
      </trkpt>
      <trkpt lat="40.3754020" lon="-3.7798140">
        <ele>687.3</ele>
        <time>2021-05-08T05:49:51Z</time>
      </trkpt>
      <trkpt lat="40.3754130" lon="-3.7798820">
        <ele>687.3</ele>
        <time>2021-05-08T05:49:52Z</time>
      </trkpt>
      <trkpt lat="40.3754350" lon="-3.7800100">
        <ele>687.5</ele>
        <time>2021-05-08T05:49:54Z</time>
      </trkpt>
      <trkpt lat="40.3754500" lon="-3.7800740">
        <ele>687.6</ele>
        <time>2021-05-08T05:49:55Z</time>
      </trkpt>
      <trkpt lat="40.3754640" lon="-3.7801390">
        <ele>687.7</ele>
        <time>2021-05-08T05:49:56Z</time>
      </trkpt>
      <trkpt lat="40.3754900" lon="-3.7802740">
        <ele>687.8</ele>
        <time>2021-05-08T05:49:58Z</time>
      </trkpt>
      <trkpt lat="40.3755000" lon="-3.7803440">
        <ele>687.9</ele>
        <time>2021-05-08T05:49:59Z</time>
      </trkpt>
      <trkpt lat="40.3755120" lon="-3.7804110">
        <ele>688.0</ele>
        <time>2021-05-08T05:50:00Z</time>
      </trkpt>
      <trkpt lat="40.3755350" lon="-3.7805500">
        <ele>688.2</ele>
        <time>2021-05-08T05:50:02Z</time>
      </trkpt>
      <trkpt lat="40.3755450" lon="-3.7806260">
        <ele>688.3</ele>
        <time>2021-05-08T05:50:03Z</time>
      </trkpt>
      <trkpt lat="40.3755550" lon="-3.7806990">
        <ele>688.4</ele>
        <time>2021-05-08T05:50:04Z</time>
      </trkpt>
      <trkpt lat="40.3755740" lon="-3.7808320">
        <ele>688.6</ele>
        <time>2021-05-08T05:50:06Z</time>
      </trkpt>
      <trkpt lat="40.3755940" lon="-3.7809610">
        <ele>688.9</ele>
        <time>2021-05-08T05:50:08Z</time>
      </trkpt>
      <trkpt lat="40.3756190" lon="-3.7810810">
        <ele>689.2</ele>
        <time>2021-05-08T05:50:10Z</time>
      </trkpt>
      <trkpt lat="40.3756310" lon="-3.7811380">
        <ele>689.3</ele>
        <time>2021-05-08T05:50:11Z</time>
      </trkpt>
      <trkpt lat="40.3756520" lon="-3.7812530">
        <ele>689.5</ele>
        <time>2021-05-08T05:50:13Z</time>
      </trkpt>
      <trkpt lat="40.3756860" lon="-3.7813740">
        <ele>689.6</ele>
        <time>2021-05-08T05:50:15Z</time>
      </trkpt>
      <trkpt lat="40.3757200" lon="-3.7815010">
        <ele>689.8</ele>
        <time>2021-05-08T05:50:17Z</time>
      </trkpt>
      <trkpt lat="40.3757570" lon="-3.7816130">
        <ele>689.9</ele>
        <time>2021-05-08T05:50:19Z</time>
      </trkpt>
      <trkpt lat="40.3757830" lon="-3.7816670">
        <ele>690.1</ele>
        <time>2021-05-08T05:50:20Z</time>
      </trkpt>
      <trkpt lat="40.3758140" lon="-3.7817270">
        <ele>690.2</ele>
        <time>2021-05-08T05:50:21Z</time>
      </trkpt>
      <trkpt lat="40.3758450" lon="-3.7817840">
        <ele>690.3</ele>
        <time>2021-05-08T05:50:22Z</time>
      </trkpt>
      <trkpt lat="40.3759040" lon="-3.7818940">
        <ele>690.5</ele>
        <time>2021-05-08T05:50:24Z</time>
      </trkpt>
      <trkpt lat="40.3759610" lon="-3.7820080">
        <ele>690.7</ele>
        <time>2021-05-08T05:50:26Z</time>
      </trkpt>
      <trkpt lat="40.3759900" lon="-3.7820670">
        <ele>690.8</ele>
        <time>2021-05-08T05:50:27Z</time>
      </trkpt>
      <trkpt lat="40.3760460" lon="-3.7821800">
        <ele>691.0</ele>
        <time>2021-05-08T05:50:29Z</time>
      </trkpt>
      <trkpt lat="40.3760780" lon="-3.7822310">
        <ele>691.1</ele>
        <time>2021-05-08T05:50:30Z</time>
      </trkpt>
      <trkpt lat="40.3761490" lon="-3.7823160">
        <ele>691.3</ele>
        <time>2021-05-08T05:50:32Z</time>
      </trkpt>
      <trkpt lat="40.3761840" lon="-3.7823590">
        <ele>691.4</ele>
        <time>2021-05-08T05:50:33Z</time>
      </trkpt>
      <trkpt lat="40.3762570" lon="-3.7824450">
        <ele>691.7</ele>
        <time>2021-05-08T05:50:35Z</time>
      </trkpt>
      <trkpt lat="40.3763310" lon="-3.7825290">
        <ele>691.9</ele>
        <time>2021-05-08T05:50:37Z</time>
      </trkpt>
      <trkpt lat="40.3763700" lon="-3.7825690">
        <ele>692.0</ele>
        <time>2021-05-08T05:50:38Z</time>
      </trkpt>
      <trkpt lat="40.3764500" lon="-3.7826410">
        <ele>692.2</ele>
        <time>2021-05-08T05:50:40Z</time>
      </trkpt>
      <trkpt lat="40.3764930" lon="-3.7826720">
        <ele>692.3</ele>
        <time>2021-05-08T05:50:41Z</time>
      </trkpt>
      <trkpt lat="40.3765800" lon="-3.7827330">
        <ele>692.4</ele>
        <time>2021-05-08T05:50:43Z</time>
      </trkpt>
      <trkpt lat="40.3766620" lon="-3.7827900">
        <ele>692.6</ele>
        <time>2021-05-08T05:50:45Z</time>
      </trkpt>
      <trkpt lat="40.3767460" lon="-3.7828540">
        <ele>692.7</ele>
        <time>2021-05-08T05:50:47Z</time>
      </trkpt>
      <trkpt lat="40.3768270" lon="-3.7829140">
        <ele>692.8</ele>
        <time>2021-05-08T05:50:49Z</time>
      </trkpt>
      <trkpt lat="40.3769060" lon="-3.7829790">
        <ele>692.9</ele>
        <time>2021-05-08T05:50:51Z</time>
      </trkpt>
      <trkpt lat="40.3769440" lon="-3.7830130">
        <ele>693.0</ele>
        <time>2021-05-08T05:50:52Z</time>
      </trkpt>
      <trkpt lat="40.3770210" lon="-3.7830840">
        <ele>693.0</ele>
        <time>2021-05-08T05:50:54Z</time>
      </trkpt>
      <trkpt lat="40.3770930" lon="-3.7831410">
        <ele>693.1</ele>
        <time>2021-05-08T05:50:56Z</time>
      </trkpt>
      <trkpt lat="40.3771470" lon="-3.7831750">
        <ele>693.1</ele>
        <time>2021-05-08T05:50:58Z</time>
      </trkpt>
      <trkpt lat="40.3771790" lon="-3.7831930">
        <ele>693.1</ele>
        <time>2021-05-08T05:50:59Z</time>
      </trkpt>
      <trkpt lat="40.3772190" lon="-3.7832160">
        <ele>693.1</ele>
        <time>2021-05-08T05:51:00Z</time>
      </trkpt>
      <trkpt lat="40.3772550" lon="-3.7832660">
        <ele>693.0</ele>
        <time>2021-05-08T05:51:02Z</time>
      </trkpt>
      <trkpt lat="40.3772850" lon="-3.7832910">
        <ele>693.0</ele>
        <time>2021-05-08T05:51:03Z</time>
      </trkpt>
      <trkpt lat="40.3773270" lon="-3.7833090">
        <ele>692.9</ele>
        <time>2021-05-08T05:51:04Z</time>
      </trkpt>
      <trkpt lat="40.3773840" lon="-3.7833400">
        <ele>692.8</ele>
        <time>2021-05-08T05:51:05Z</time>
      </trkpt>
      <trkpt lat="40.3774360" lon="-3.7833800">
        <ele>692.6</ele>
        <time>2021-05-08T05:51:06Z</time>
      </trkpt>
      <trkpt lat="40.3774920" lon="-3.7834200">
        <ele>692.5</ele>
        <time>2021-05-08T05:51:08Z</time>
      </trkpt>
      <trkpt lat="40.3775540" lon="-3.7834560">
        <ele>692.4</ele>
        <time>2021-05-08T05:51:09Z</time>
      </trkpt>
      <trkpt lat="40.3776270" lon="-3.7835090">
        <ele>692.2</ele>
        <time>2021-05-08T05:51:11Z</time>
      </trkpt>
      <trkpt lat="40.3777190" lon="-3.7835740">
        <ele>692.1</ele>
        <time>2021-05-08T05:51:13Z</time>
      </trkpt>
      <trkpt lat="40.3777630" lon="-3.7836040">
        <ele>692.1</ele>
        <time>2021-05-08T05:51:14Z</time>
      </trkpt>
      <trkpt lat="40.3778110" lon="-3.7836340">
        <ele>692.1</ele>
        <time>2021-05-08T05:51:15Z</time>
      </trkpt>
      <trkpt lat="40.3779040" lon="-3.7836880">
        <ele>692.0</ele>
        <time>2021-05-08T05:51:17Z</time>
      </trkpt>
      <trkpt lat="40.3779950" lon="-3.7837430">
        <ele>692.0</ele>
        <time>2021-05-08T05:51:19Z</time>
      </trkpt>
      <trkpt lat="40.3780940" lon="-3.7838050">
        <ele>692.0</ele>
        <time>2021-05-08T05:51:21Z</time>
      </trkpt>
      <trkpt lat="40.3781450" lon="-3.7838340">
        <ele>691.9</ele>
        <time>2021-05-08T05:51:22Z</time>
      </trkpt>
      <trkpt lat="40.3781960" lon="-3.7838580">
        <ele>691.9</ele>
        <time>2021-05-08T05:51:23Z</time>
      </trkpt>
      <trkpt lat="40.3783000" lon="-3.7839140">
        <ele>691.7</ele>
        <time>2021-05-08T05:51:25Z</time>
      </trkpt>
      <trkpt lat="40.3783550" lon="-3.7839420">
        <ele>691.6</ele>
        <time>2021-05-08T05:51:26Z</time>
      </trkpt>
      <trkpt lat="40.3784120" lon="-3.7839680">
        <ele>691.6</ele>
        <time>2021-05-08T05:51:27Z</time>
      </trkpt>
      <trkpt lat="40.3785270" lon="-3.7840270">
        <ele>691.4</ele>
        <time>2021-05-08T05:51:29Z</time>
      </trkpt>
      <trkpt lat="40.3785820" lon="-3.7840490">
        <ele>691.4</ele>
        <time>2021-05-08T05:51:30Z</time>
      </trkpt>
      <trkpt lat="40.3787070" lon="-3.7840980">
        <ele>691.3</ele>
        <time>2021-05-08T05:51:32Z</time>
      </trkpt>
      <trkpt lat="40.3788230" lon="-3.7841400">
        <ele>691.3</ele>
        <time>2021-05-08T05:51:34Z</time>
      </trkpt>
      <trkpt lat="40.3788820" lon="-3.7841590">
        <ele>691.3</ele>
        <time>2021-05-08T05:51:35Z</time>
      </trkpt>
      <trkpt lat="40.3789970" lon="-3.7841960">
        <ele>691.4</ele>
        <time>2021-05-08T05:51:37Z</time>
      </trkpt>
      <trkpt lat="40.3791120" lon="-3.7842370">
        <ele>691.6</ele>
        <time>2021-05-08T05:51:39Z</time>
      </trkpt>
      <trkpt lat="40.3791680" lon="-3.7842580">
        <ele>691.7</ele>
        <time>2021-05-08T05:51:40Z</time>
      </trkpt>
      <trkpt lat="40.3792840" lon="-3.7843040">
        <ele>692.0</ele>
        <time>2021-05-08T05:51:42Z</time>
      </trkpt>
      <trkpt lat="40.3793960" lon="-3.7843490">
        <ele>692.3</ele>
        <time>2021-05-08T05:51:44Z</time>
      </trkpt>
      <trkpt lat="40.3795010" lon="-3.7843940">
        <ele>692.8</ele>
        <time>2021-05-08T05:51:46Z</time>
      </trkpt>
      <trkpt lat="40.3796040" lon="-3.7844380">
        <ele>693.3</ele>
        <time>2021-05-08T05:51:48Z</time>
      </trkpt>
      <trkpt lat="40.3796800" lon="-3.7844790">
        <ele>693.6</ele>
        <time>2021-05-08T05:51:50Z</time>
      </trkpt>
      <trkpt lat="40.3797580" lon="-3.7845300">
        <ele>694.0</ele>
        <time>2021-05-08T05:51:51Z</time>
      </trkpt>
      <trkpt lat="40.3798080" lon="-3.7845640">
        <ele>694.3</ele>
        <time>2021-05-08T05:51:52Z</time>
      </trkpt>
      <trkpt lat="40.3799020" lon="-3.7846420">
        <ele>694.7</ele>
        <time>2021-05-08T05:51:54Z</time>
      </trkpt>
      <trkpt lat="40.3799490" lon="-3.7846790">
        <ele>694.9</ele>
        <time>2021-05-08T05:51:55Z</time>
      </trkpt>
      <trkpt lat="40.3799950" lon="-3.7847150">
        <ele>695.1</ele>
        <time>2021-05-08T05:51:56Z</time>
      </trkpt>
      <trkpt lat="40.3800390" lon="-3.7847550">
        <ele>695.2</ele>
        <time>2021-05-08T05:51:57Z</time>
      </trkpt>
      <trkpt lat="40.3800810" lon="-3.7847950">
        <ele>695.4</ele>
        <time>2021-05-08T05:51:58Z</time>
      </trkpt>
      <trkpt lat="40.3801610" lon="-3.7848700">
        <ele>695.6</ele>
        <time>2021-05-08T05:52:00Z</time>
      </trkpt>
      <trkpt lat="40.3802380" lon="-3.7849560">
        <ele>695.7</ele>
        <time>2021-05-08T05:52:02Z</time>
      </trkpt>
      <trkpt lat="40.3803080" lon="-3.7850510">
        <ele>695.8</ele>
        <time>2021-05-08T05:52:04Z</time>
      </trkpt>
      <trkpt lat="40.3803440" lon="-3.7851030">
        <ele>695.9</ele>
        <time>2021-05-08T05:52:05Z</time>
      </trkpt>
      <trkpt lat="40.3804200" lon="-3.7852050">
        <ele>695.8</ele>
        <time>2021-05-08T05:52:07Z</time>
      </trkpt>
      <trkpt lat="40.3804940" lon="-3.7853130">
        <ele>695.6</ele>
        <time>2021-05-08T05:52:09Z</time>
      </trkpt>
      <trkpt lat="40.3805320" lon="-3.7853690">
        <ele>695.5</ele>
        <time>2021-05-08T05:52:10Z</time>
      </trkpt>
      <trkpt lat="40.3805760" lon="-3.7854310">
        <ele>695.4</ele>
        <time>2021-05-08T05:52:11Z</time>
      </trkpt>
      <trkpt lat="40.3806220" lon="-3.7854980">
        <ele>695.2</ele>
        <time>2021-05-08T05:52:12Z</time>
      </trkpt>
      <trkpt lat="40.3806640" lon="-3.7855680">
        <ele>695.0</ele>
        <time>2021-05-08T05:52:13Z</time>
      </trkpt>
      <trkpt lat="40.3807470" lon="-3.7857130">
        <ele>694.5</ele>
        <time>2021-05-08T05:52:15Z</time>
      </trkpt>
      <trkpt lat="40.3807870" lon="-3.7857910">
        <ele>694.2</ele>
        <time>2021-05-08T05:52:16Z</time>
      </trkpt>
      <trkpt lat="40.3808710" lon="-3.7859430">
        <ele>693.5</ele>
        <time>2021-05-08T05:52:18Z</time>
      </trkpt>
      <trkpt lat="40.3809550" lon="-3.7861010">
        <ele>692.7</ele>
        <time>2021-05-08T05:52:20Z</time>
      </trkpt>
      <trkpt lat="40.3810450" lon="-3.7862670">
        <ele>692.0</ele>
        <time>2021-05-08T05:52:22Z</time>
      </trkpt>
      <trkpt lat="40.3811360" lon="-3.7864440">
        <ele>691.1</ele>
        <time>2021-05-08T05:52:24Z</time>
      </trkpt>
      <trkpt lat="40.3811790" lon="-3.7865340">
        <ele>690.6</ele>
        <time>2021-05-08T05:52:25Z</time>
      </trkpt>
      <trkpt lat="40.3812240" lon="-3.7866290">
        <ele>690.1</ele>
        <time>2021-05-08T05:52:26Z</time>
      </trkpt>
      <trkpt lat="40.3813240" lon="-3.7868260">
        <ele>689.0</ele>
        <time>2021-05-08T05:52:28Z</time>
      </trkpt>
      <trkpt lat="40.3814390" lon="-3.7870410">
        <ele>687.8</ele>
        <time>2021-05-08T05:52:30Z</time>
      </trkpt>
      <trkpt lat="40.3815360" lon="-3.7872290">
        <ele>686.8</ele>
        <time>2021-05-08T05:52:32Z</time>
      </trkpt>
      <trkpt lat="40.3816430" lon="-3.7874340">
        <ele>686.5</ele>
        <time>2021-05-08T05:52:34Z</time>
      </trkpt>
      <trkpt lat="40.3817470" lon="-3.7876390">
        <ele>685.9</ele>
        <time>2021-05-08T05:52:36Z</time>
      </trkpt>
      <trkpt lat="40.3818500" lon="-3.7878360">
        <ele>685.5</ele>
        <time>2021-05-08T05:52:38Z</time>
      </trkpt>
      <trkpt lat="40.3819730" lon="-3.7879910">
        <ele>685.3</ele>
        <time>2021-05-08T05:52:40Z</time>
      </trkpt>
      <trkpt lat="40.3820780" lon="-3.7881560">
        <ele>685.4</ele>
        <time>2021-05-08T05:52:42Z</time>
      </trkpt>
      <trkpt lat="40.3821420" lon="-3.7882240">
        <ele>685.5</ele>
        <time>2021-05-08T05:52:43Z</time>
      </trkpt>
      <trkpt lat="40.3822670" lon="-3.7882910">
        <ele>685.7</ele>
        <time>2021-05-08T05:52:45Z</time>
      </trkpt>
      <trkpt lat="40.3823270" lon="-3.7882980">
        <ele>685.8</ele>
        <time>2021-05-08T05:52:46Z</time>
      </trkpt>
      <trkpt lat="40.3823860" lon="-3.7882890">
        <ele>686.0</ele>
        <time>2021-05-08T05:52:47Z</time>
      </trkpt>
      <trkpt lat="40.3824370" lon="-3.7882610">
        <ele>686.2</ele>
        <time>2021-05-08T05:52:48Z</time>
      </trkpt>
      <trkpt lat="40.3824840" lon="-3.7882150">
        <ele>686.5</ele>
        <time>2021-05-08T05:52:49Z</time>
      </trkpt>
      <trkpt lat="40.3825180" lon="-3.7881590">
        <ele>686.7</ele>
        <time>2021-05-08T05:52:50Z</time>
      </trkpt>
      <trkpt lat="40.3825700" lon="-3.7880330">
        <ele>687.4</ele>
        <time>2021-05-08T05:52:52Z</time>
      </trkpt>
      <trkpt lat="40.3825850" lon="-3.7879090">
        <ele>687.9</ele>
        <time>2021-05-08T05:52:54Z</time>
      </trkpt>
      <trkpt lat="40.3825730" lon="-3.7877820">
        <ele>688.5</ele>
        <time>2021-05-08T05:52:56Z</time>
      </trkpt>
      <trkpt lat="40.3825590" lon="-3.7877260">
        <ele>688.8</ele>
        <time>2021-05-08T05:52:57Z</time>
      </trkpt>
      <trkpt lat="40.3825100" lon="-3.7876230">
        <ele>689.3</ele>
        <time>2021-05-08T05:52:59Z</time>
      </trkpt>
      <trkpt lat="40.3824320" lon="-3.7875580">
        <ele>689.7</ele>
        <time>2021-05-08T05:53:01Z</time>
      </trkpt>
      <trkpt lat="40.3823250" lon="-3.7875320">
        <ele>690.2</ele>
        <time>2021-05-08T05:53:03Z</time>
      </trkpt>
      <trkpt lat="40.3822270" lon="-3.7875320">
        <ele>690.6</ele>
        <time>2021-05-08T05:53:05Z</time>
      </trkpt>
      <trkpt lat="40.3821620" lon="-3.7875770">
        <ele>691.1</ele>
        <time>2021-05-08T05:53:07Z</time>
      </trkpt>
      <trkpt lat="40.3820720" lon="-3.7876270">
        <ele>691.4</ele>
        <time>2021-05-08T05:53:09Z</time>
      </trkpt>
      <trkpt lat="40.3820080" lon="-3.7876700">
        <ele>691.6</ele>
        <time>2021-05-08T05:53:10Z</time>
      </trkpt>
      <trkpt lat="40.3819230" lon="-3.7877540">
        <ele>691.8</ele>
        <time>2021-05-08T05:53:12Z</time>
      </trkpt>
      <trkpt lat="40.3818410" lon="-3.7878430">
        <ele>692.1</ele>
        <time>2021-05-08T05:53:14Z</time>
      </trkpt>
      <trkpt lat="40.3817690" lon="-3.7879400">
        <ele>692.3</ele>
        <time>2021-05-08T05:53:16Z</time>
      </trkpt>
      <trkpt lat="40.3816970" lon="-3.7880380">
        <ele>692.5</ele>
        <time>2021-05-08T05:53:18Z</time>
      </trkpt>
      <trkpt lat="40.3816610" lon="-3.7880850">
        <ele>692.6</ele>
        <time>2021-05-08T05:53:19Z</time>
      </trkpt>
      <trkpt lat="40.3816270" lon="-3.7881320">
        <ele>692.7</ele>
        <time>2021-05-08T05:53:20Z</time>
      </trkpt>
      <trkpt lat="40.3815550" lon="-3.7882240">
        <ele>692.9</ele>
        <time>2021-05-08T05:53:22Z</time>
      </trkpt>
      <trkpt lat="40.3814850" lon="-3.7883180">
        <ele>693.1</ele>
        <time>2021-05-08T05:53:24Z</time>
      </trkpt>
      <trkpt lat="40.3814160" lon="-3.7884080">
        <ele>693.2</ele>
        <time>2021-05-08T05:53:26Z</time>
      </trkpt>
      <trkpt lat="40.3813750" lon="-3.7884510">
        <ele>693.3</ele>
        <time>2021-05-08T05:53:27Z</time>
      </trkpt>
      <trkpt lat="40.3813350" lon="-3.7884970">
        <ele>693.4</ele>
        <time>2021-05-08T05:53:28Z</time>
      </trkpt>
      <trkpt lat="40.3812850" lon="-3.7885650">
        <ele>693.5</ele>
        <time>2021-05-08T05:53:30Z</time>
      </trkpt>
      <trkpt lat="40.3812660" lon="-3.7886030">
        <ele>693.6</ele>
        <time>2021-05-08T05:53:31Z</time>
      </trkpt>
      <trkpt lat="40.3812280" lon="-3.7886870">
        <ele>693.6</ele>
        <time>2021-05-08T05:53:33Z</time>
      </trkpt>
      <trkpt lat="40.3812070" lon="-3.7887170">
        <ele>693.7</ele>
        <time>2021-05-08T05:53:34Z</time>
      </trkpt>
      <trkpt lat="40.3811990" lon="-3.7887180">
        <ele>693.7</ele>
        <time>2021-05-08T05:53:35Z</time>
      </trkpt>
      <trkpt lat="40.3812690" lon="-3.7888560">
        <ele>693.7</ele>
        <time>2021-05-08T05:53:37Z</time>
      </trkpt>
      <trkpt lat="40.3813330" lon="-3.7889560">
        <ele>693.5</ele>
        <time>2021-05-08T05:53:39Z</time>
      </trkpt>
      <trkpt lat="40.3814220" lon="-3.7890460">
        <ele>693.3</ele>
        <time>2021-05-08T05:53:41Z</time>
      </trkpt>
      <trkpt lat="40.3814580" lon="-3.7890880">
        <ele>693.2</ele>
        <time>2021-05-08T05:53:42Z</time>
      </trkpt>
      <trkpt lat="40.3815330" lon="-3.7891770">
        <ele>693.1</ele>
        <time>2021-05-08T05:53:44Z</time>
      </trkpt>
      <trkpt lat="40.3815640" lon="-3.7892180">
        <ele>693.1</ele>
        <time>2021-05-08T05:53:45Z</time>
      </trkpt>
      <trkpt lat="40.3815890" lon="-3.7892550">
        <ele>693.1</ele>
        <time>2021-05-08T05:53:46Z</time>
      </trkpt>
      <trkpt lat="40.3816640" lon="-3.7893540">
        <ele>693.0</ele>
        <time>2021-05-08T05:53:48Z</time>
      </trkpt>
      <trkpt lat="40.3816980" lon="-3.7894000">
        <ele>692.9</ele>
        <time>2021-05-08T05:53:49Z</time>
      </trkpt>
      <trkpt lat="40.3817670" lon="-3.7894950">
        <ele>692.8</ele>
        <time>2021-05-08T05:53:51Z</time>
      </trkpt>
      <trkpt lat="40.3818390" lon="-3.7895970">
        <ele>692.6</ele>
        <time>2021-05-08T05:53:53Z</time>
      </trkpt>
      <trkpt lat="40.3819070" lon="-3.7897030">
        <ele>692.5</ele>
        <time>2021-05-08T05:53:55Z</time>
      </trkpt>
      <trkpt lat="40.3819400" lon="-3.7897570">
        <ele>692.4</ele>
        <time>2021-05-08T05:53:56Z</time>
      </trkpt>
      <trkpt lat="40.3819750" lon="-3.7898060">
        <ele>692.4</ele>
        <time>2021-05-08T05:53:57Z</time>
      </trkpt>
      <trkpt lat="40.3820420" lon="-3.7899050">
        <ele>692.2</ele>
        <time>2021-05-08T05:53:59Z</time>
      </trkpt>
      <trkpt lat="40.3820760" lon="-3.7899570">
        <ele>692.1</ele>
        <time>2021-05-08T05:54:00Z</time>
      </trkpt>
      <trkpt lat="40.3821080" lon="-3.7900050">
        <ele>692.1</ele>
        <time>2021-05-08T05:54:01Z</time>
      </trkpt>
      <trkpt lat="40.3821370" lon="-3.7900420">
        <ele>692.0</ele>
        <time>2021-05-08T05:54:02Z</time>
      </trkpt>
      <trkpt lat="40.3821940" lon="-3.7901310">
        <ele>691.9</ele>
        <time>2021-05-08T05:54:04Z</time>
      </trkpt>
      <trkpt lat="40.3822000" lon="-3.7902160">
        <ele>691.7</ele>
        <time>2021-05-08T05:54:06Z</time>
      </trkpt>
      <trkpt lat="40.3822000" lon="-3.7902620">
        <ele>691.6</ele>
        <time>2021-05-08T05:54:07Z</time>
      </trkpt>
      <trkpt lat="40.3821780" lon="-3.7903530">
        <ele>692.0</ele>
        <time>2021-05-08T05:54:09Z</time>
      </trkpt>
      <trkpt lat="40.3821500" lon="-3.7903890">
        <ele>692.3</ele>
        <time>2021-05-08T05:54:10Z</time>
      </trkpt>
      <trkpt lat="40.3821250" lon="-3.7904390">
        <ele>692.6</ele>
        <time>2021-05-08T05:54:12Z</time>
      </trkpt>
      <trkpt lat="40.3821010" lon="-3.7904690">
        <ele>692.8</ele>
        <time>2021-05-08T05:54:13Z</time>
      </trkpt>
      <trkpt lat="40.3820650" lon="-3.7905030">
        <ele>693.1</ele>
        <time>2021-05-08T05:54:14Z</time>
      </trkpt>
      <trkpt lat="40.3820240" lon="-3.7905440">
        <ele>693.5</ele>
        <time>2021-05-08T05:54:16Z</time>
      </trkpt>
      <trkpt lat="40.3819900" lon="-3.7905940">
        <ele>693.8</ele>
        <time>2021-05-08T05:54:17Z</time>
      </trkpt>
      <trkpt lat="40.3819550" lon="-3.7906520">
        <ele>694.2</ele>
        <time>2021-05-08T05:54:19Z</time>
      </trkpt>
      <trkpt lat="40.3819210" lon="-3.7906910">
        <ele>694.5</ele>
        <time>2021-05-08T05:54:20Z</time>
      </trkpt>
      <trkpt lat="40.3818700" lon="-3.7907480">
        <ele>695.0</ele>
        <time>2021-05-08T05:54:22Z</time>
      </trkpt>
      <trkpt lat="40.3818360" lon="-3.7907920">
        <ele>695.3</ele>
        <time>2021-05-08T05:54:23Z</time>
      </trkpt>
      <trkpt lat="40.3818090" lon="-3.7908270">
        <ele>695.5</ele>
        <time>2021-05-08T05:54:24Z</time>
      </trkpt>
      <trkpt lat="40.3817590" lon="-3.7908760">
        <ele>696.0</ele>
        <time>2021-05-08T05:54:26Z</time>
      </trkpt>
      <trkpt lat="40.3817260" lon="-3.7909160">
        <ele>696.3</ele>
        <time>2021-05-08T05:54:27Z</time>
      </trkpt>
      <trkpt lat="40.3816970" lon="-3.7909560">
        <ele>696.6</ele>
        <time>2021-05-08T05:54:28Z</time>
      </trkpt>
      <trkpt lat="40.3816740" lon="-3.7910090">
        <ele>696.8</ele>
        <time>2021-05-08T05:54:29Z</time>
      </trkpt>
      <trkpt lat="40.3816420" lon="-3.7910510">
        <ele>697.0</ele>
        <time>2021-05-08T05:54:31Z</time>
      </trkpt>
      <trkpt lat="40.3816270" lon="-3.7910740">
        <ele>697.1</ele>
        <time>2021-05-08T05:54:32Z</time>
      </trkpt>
      <trkpt lat="40.3815990" lon="-3.7911100">
        <ele>697.3</ele>
        <time>2021-05-08T05:54:33Z</time>
      </trkpt>
      <trkpt lat="40.3815610" lon="-3.7911670">
        <ele>697.6</ele>
        <time>2021-05-08T05:54:35Z</time>
      </trkpt>
      <trkpt lat="40.3815050" lon="-3.7912490">
        <ele>697.9</ele>
        <time>2021-05-08T05:54:37Z</time>
      </trkpt>
      <trkpt lat="40.3814610" lon="-3.7913260">
        <ele>698.3</ele>
        <time>2021-05-08T05:54:38Z</time>
      </trkpt>
      <trkpt lat="40.3814190" lon="-3.7913850">
        <ele>698.6</ele>
        <time>2021-05-08T05:54:40Z</time>
      </trkpt>
      <trkpt lat="40.3813890" lon="-3.7914230">
        <ele>698.8</ele>
        <time>2021-05-08T05:54:41Z</time>
      </trkpt>
      <trkpt lat="40.3813530" lon="-3.7914750">
        <ele>699.0</ele>
        <time>2021-05-08T05:54:42Z</time>
      </trkpt>
      <trkpt lat="40.3813170" lon="-3.7915380">
        <ele>699.2</ele>
        <time>2021-05-08T05:54:44Z</time>
      </trkpt>
      <trkpt lat="40.3813140" lon="-3.7916180">
        <ele>699.3</ele>
        <time>2021-05-08T05:54:45Z</time>
      </trkpt>
      <trkpt lat="40.3813230" lon="-3.7916940">
        <ele>699.4</ele>
        <time>2021-05-08T05:54:46Z</time>
      </trkpt>
      <trkpt lat="40.3813140" lon="-3.7917610">
        <ele>699.5</ele>
        <time>2021-05-08T05:54:47Z</time>
      </trkpt>
      <trkpt lat="40.3812780" lon="-3.7918030">
        <ele>699.7</ele>
        <time>2021-05-08T05:54:48Z</time>
      </trkpt>
      <trkpt lat="40.3812270" lon="-3.7918530">
        <ele>699.8</ele>
        <time>2021-05-08T05:54:50Z</time>
      </trkpt>
      <trkpt lat="40.3811950" lon="-3.7918840">
        <ele>699.9</ele>
        <time>2021-05-08T05:54:51Z</time>
      </trkpt>
      <trkpt lat="40.3811400" lon="-3.7919350">
        <ele>700.0</ele>
        <time>2021-05-08T05:54:53Z</time>
      </trkpt>
      <trkpt lat="40.3811120" lon="-3.7919530">
        <ele>700.1</ele>
        <time>2021-05-08T05:54:54Z</time>
      </trkpt>
      <trkpt lat="40.3810630" lon="-3.7919900">
        <ele>700.2</ele>
        <time>2021-05-08T05:54:55Z</time>
      </trkpt>
      <trkpt lat="40.3810380" lon="-3.7920180">
        <ele>700.3</ele>
        <time>2021-05-08T05:54:56Z</time>
      </trkpt>
      <trkpt lat="40.3810180" lon="-3.7920550">
        <ele>700.5</ele>
        <time>2021-05-08T05:54:57Z</time>
      </trkpt>
      <trkpt lat="40.3810120" lon="-3.7920940">
        <ele>700.5</ele>
        <time>2021-05-08T05:54:59Z</time>
      </trkpt>
      <trkpt lat="40.3810160" lon="-3.7921120">
        <ele>700.5</ele>
        <time>2021-05-08T05:55:00Z</time>
      </trkpt>
      <trkpt lat="40.3810290" lon="-3.7921520">
        <ele>700.5</ele>
        <time>2021-05-08T05:55:02Z</time>
      </trkpt>
      <trkpt lat="40.3810730" lon="-3.7922140">
        <ele>700.8</ele>
        <time>2021-05-08T05:55:04Z</time>
      </trkpt>
      <trkpt lat="40.3811250" lon="-3.7922710">
        <ele>700.9</ele>
        <time>2021-05-08T05:55:06Z</time>
      </trkpt>
      <trkpt lat="40.3811800" lon="-3.7923150">
        <ele>700.9</ele>
        <time>2021-05-08T05:55:07Z</time>
      </trkpt>
      <trkpt lat="40.3812140" lon="-3.7923790">
        <ele>700.6</ele>
        <time>2021-05-08T05:55:09Z</time>
      </trkpt>
      <trkpt lat="40.3812060" lon="-3.7924240">
        <ele>700.9</ele>
        <time>2021-05-08T05:55:10Z</time>
      </trkpt>
      <trkpt lat="40.3811880" lon="-3.7924750">
        <ele>701.0</ele>
        <time>2021-05-08T05:55:12Z</time>
      </trkpt>
      <trkpt lat="40.3811660" lon="-3.7925080">
        <ele>701.0</ele>
        <time>2021-05-08T05:55:13Z</time>
      </trkpt>
      <trkpt lat="40.3811340" lon="-3.7925450">
        <ele>700.8</ele>
        <time>2021-05-08T05:55:14Z</time>
      </trkpt>
      <trkpt lat="40.3811020" lon="-3.7925810">
        <ele>700.5</ele>
        <time>2021-05-08T05:55:15Z</time>
      </trkpt>
      <trkpt lat="40.3810720" lon="-3.7926140">
        <ele>700.1</ele>
        <time>2021-05-08T05:55:17Z</time>
      </trkpt>
      <trkpt lat="40.3810510" lon="-3.7926370">
        <ele>700.0</ele>
        <time>2021-05-08T05:55:18Z</time>
      </trkpt>
      <trkpt lat="40.3810480" lon="-3.7926610">
        <ele>700.0</ele>
        <time>2021-05-08T05:55:19Z</time>
      </trkpt>
      <trkpt lat="40.3810620" lon="-3.7926800">
        <ele>699.9</ele>
        <time>2021-05-08T05:55:20Z</time>
      </trkpt>
      <trkpt lat="40.3811020" lon="-3.7927080">
        <ele>699.9</ele>
        <time>2021-05-08T05:55:21Z</time>
      </trkpt>
      <trkpt lat="40.3811200" lon="-3.7927210">
        <ele>699.8</ele>
        <time>2021-05-08T05:55:22Z</time>
      </trkpt>
      <trkpt lat="40.3811580" lon="-3.7927550">
        <ele>699.8</ele>
        <time>2021-05-08T05:55:24Z</time>
      </trkpt>
      <trkpt lat="40.3811930" lon="-3.7927910">
        <ele>699.7</ele>
        <time>2021-05-08T05:55:25Z</time>
      </trkpt>
      <trkpt lat="40.3812460" lon="-3.7928500">
        <ele>699.6</ele>
        <time>2021-05-08T05:55:27Z</time>
      </trkpt>
      <trkpt lat="40.3812860" lon="-3.7928890">
        <ele>699.5</ele>
        <time>2021-05-08T05:55:28Z</time>
      </trkpt>
      <trkpt lat="40.3813200" lon="-3.7929210">
        <ele>699.4</ele>
        <time>2021-05-08T05:55:29Z</time>
      </trkpt>
      <trkpt lat="40.3813670" lon="-3.7929720">
        <ele>699.2</ele>
        <time>2021-05-08T05:55:30Z</time>
      </trkpt>
      <trkpt lat="40.3813870" lon="-3.7930240">
        <ele>699.1</ele>
        <time>2021-05-08T05:55:32Z</time>
      </trkpt>
      <trkpt lat="40.3813910" lon="-3.7930680">
        <ele>699.0</ele>
        <time>2021-05-08T05:55:33Z</time>
      </trkpt>
      <trkpt lat="40.3813830" lon="-3.7931500">
        <ele>698.8</ele>
        <time>2021-05-08T05:55:35Z</time>
      </trkpt>
      <trkpt lat="40.3813400" lon="-3.7932610">
        <ele>698.7</ele>
        <time>2021-05-08T05:55:36Z</time>
      </trkpt>
      <trkpt lat="40.3812750" lon="-3.7934040">
        <ele>697.7</ele>
        <time>2021-05-08T05:55:38Z</time>
      </trkpt>
      <trkpt lat="40.3812390" lon="-3.7934580">
        <ele>697.7</ele>
        <time>2021-05-08T05:55:39Z</time>
      </trkpt>
      <trkpt lat="40.3811890" lon="-3.7935150">
        <ele>697.7</ele>
        <time>2021-05-08T05:55:41Z</time>
      </trkpt>
      <trkpt lat="40.3811310" lon="-3.7935880">
        <ele>697.7</ele>
        <time>2021-05-08T05:55:42Z</time>
      </trkpt>
      <trkpt lat="40.3810930" lon="-3.7936320">
        <ele>697.7</ele>
        <time>2021-05-08T05:55:43Z</time>
      </trkpt>
      <trkpt lat="40.3810190" lon="-3.7937180">
        <ele>697.7</ele>
        <time>2021-05-08T05:55:45Z</time>
      </trkpt>
      <trkpt lat="40.3809790" lon="-3.7937620">
        <ele>697.7</ele>
        <time>2021-05-08T05:55:46Z</time>
      </trkpt>
      <trkpt lat="40.3808920" lon="-3.7938510">
        <ele>697.7</ele>
        <time>2021-05-08T05:55:48Z</time>
      </trkpt>
      <trkpt lat="40.3808100" lon="-3.7939530">
        <ele>697.6</ele>
        <time>2021-05-08T05:55:50Z</time>
      </trkpt>
      <trkpt lat="40.3807660" lon="-3.7940100">
        <ele>697.6</ele>
        <time>2021-05-08T05:55:51Z</time>
      </trkpt>
      <trkpt lat="40.3806860" lon="-3.7941330">
        <ele>697.5</ele>
        <time>2021-05-08T05:55:53Z</time>
      </trkpt>
      <trkpt lat="40.3806470" lon="-3.7941920">
        <ele>697.5</ele>
        <time>2021-05-08T05:55:54Z</time>
      </trkpt>
      <trkpt lat="40.3805570" lon="-3.7943030">
        <ele>697.4</ele>
        <time>2021-05-08T05:55:56Z</time>
      </trkpt>
      <trkpt lat="40.3804650" lon="-3.7944070">
        <ele>697.3</ele>
        <time>2021-05-08T05:55:58Z</time>
      </trkpt>
      <trkpt lat="40.3804200" lon="-3.7944650">
        <ele>697.3</ele>
        <time>2021-05-08T05:55:59Z</time>
      </trkpt>
      <trkpt lat="40.3803530" lon="-3.7945530">
        <ele>697.3</ele>
        <time>2021-05-08T05:56:01Z</time>
      </trkpt>
      <trkpt lat="40.3802850" lon="-3.7946380">
        <ele>697.3</ele>
        <time>2021-05-08T05:56:02Z</time>
      </trkpt>
      <trkpt lat="40.3802380" lon="-3.7946970">
        <ele>697.3</ele>
        <time>2021-05-08T05:56:03Z</time>
      </trkpt>
      <trkpt lat="40.3801920" lon="-3.7947560">
        <ele>697.3</ele>
        <time>2021-05-08T05:56:04Z</time>
      </trkpt>
      <trkpt lat="40.3801450" lon="-3.7948120">
        <ele>697.4</ele>
        <time>2021-05-08T05:56:05Z</time>
      </trkpt>
      <trkpt lat="40.3800460" lon="-3.7949110">
        <ele>697.5</ele>
        <time>2021-05-08T05:56:07Z</time>
      </trkpt>
      <trkpt lat="40.3799980" lon="-3.7949600">
        <ele>697.5</ele>
        <time>2021-05-08T05:56:08Z</time>
      </trkpt>
      <trkpt lat="40.3799010" lon="-3.7950580">
        <ele>697.7</ele>
        <time>2021-05-08T05:56:10Z</time>
      </trkpt>
      <trkpt lat="40.3798560" lon="-3.7951090">
        <ele>697.7</ele>
        <time>2021-05-08T05:56:11Z</time>
      </trkpt>
      <trkpt lat="40.3797760" lon="-3.7952160">
        <ele>697.8</ele>
        <time>2021-05-08T05:56:13Z</time>
      </trkpt>
      <trkpt lat="40.3796910" lon="-3.7953190">
        <ele>698.0</ele>
        <time>2021-05-08T05:56:15Z</time>
      </trkpt>
      <trkpt lat="40.3796120" lon="-3.7954210">
        <ele>698.1</ele>
        <time>2021-05-08T05:56:17Z</time>
      </trkpt>
      <trkpt lat="40.3795720" lon="-3.7954730">
        <ele>698.1</ele>
        <time>2021-05-08T05:56:18Z</time>
      </trkpt>
      <trkpt lat="40.3794920" lon="-3.7955770">
        <ele>698.2</ele>
        <time>2021-05-08T05:56:20Z</time>
      </trkpt>
      <trkpt lat="40.3794230" lon="-3.7956790">
        <ele>698.3</ele>
        <time>2021-05-08T05:56:22Z</time>
      </trkpt>
      <trkpt lat="40.3793450" lon="-3.7957860">
        <ele>698.4</ele>
        <time>2021-05-08T05:56:24Z</time>
      </trkpt>
      <trkpt lat="40.3792680" lon="-3.7958920">
        <ele>698.5</ele>
        <time>2021-05-08T05:56:26Z</time>
      </trkpt>
      <trkpt lat="40.3791860" lon="-3.7959980">
        <ele>698.6</ele>
        <time>2021-05-08T05:56:28Z</time>
      </trkpt>
      <trkpt lat="40.3791010" lon="-3.7961020">
        <ele>698.7</ele>
        <time>2021-05-08T05:56:30Z</time>
      </trkpt>
      <trkpt lat="40.3790580" lon="-3.7961510">
        <ele>698.7</ele>
        <time>2021-05-08T05:56:31Z</time>
      </trkpt>
      <trkpt lat="40.3790150" lon="-3.7962020">
        <ele>698.8</ele>
        <time>2021-05-08T05:56:32Z</time>
      </trkpt>
      <trkpt lat="40.3789380" lon="-3.7963100">
        <ele>698.8</ele>
        <time>2021-05-08T05:56:34Z</time>
      </trkpt>
      <trkpt lat="40.3789000" lon="-3.7963640">
        <ele>698.9</ele>
        <time>2021-05-08T05:56:35Z</time>
      </trkpt>
      <trkpt lat="40.3788600" lon="-3.7964190">
        <ele>698.9</ele>
        <time>2021-05-08T05:56:36Z</time>
      </trkpt>
      <trkpt lat="40.3787710" lon="-3.7965220">
        <ele>698.9</ele>
        <time>2021-05-08T05:56:38Z</time>
      </trkpt>
      <trkpt lat="40.3786840" lon="-3.7966150">
        <ele>698.9</ele>
        <time>2021-05-08T05:56:40Z</time>
      </trkpt>
      <trkpt lat="40.3786480" lon="-3.7966650">
        <ele>698.8</ele>
        <time>2021-05-08T05:56:41Z</time>
      </trkpt>
      <trkpt lat="40.3785710" lon="-3.7967700">
        <ele>698.8</ele>
        <time>2021-05-08T05:56:43Z</time>
      </trkpt>
      <trkpt lat="40.3784920" lon="-3.7968710">
        <ele>698.7</ele>
        <time>2021-05-08T05:56:45Z</time>
      </trkpt>
      <trkpt lat="40.3784180" lon="-3.7969870">
        <ele>698.7</ele>
        <time>2021-05-08T05:56:47Z</time>
      </trkpt>
      <trkpt lat="40.3783380" lon="-3.7971040">
        <ele>698.6</ele>
        <time>2021-05-08T05:56:49Z</time>
      </trkpt>
      <trkpt lat="40.3782580" lon="-3.7972100">
        <ele>698.5</ele>
        <time>2021-05-08T05:56:51Z</time>
      </trkpt>
      <trkpt lat="40.3782180" lon="-3.7972630">
        <ele>698.4</ele>
        <time>2021-05-08T05:56:52Z</time>
      </trkpt>
      <trkpt lat="40.3781360" lon="-3.7973700">
        <ele>698.3</ele>
        <time>2021-05-08T05:56:54Z</time>
      </trkpt>
      <trkpt lat="40.3780940" lon="-3.7974240">
        <ele>698.3</ele>
        <time>2021-05-08T05:56:55Z</time>
      </trkpt>
      <trkpt lat="40.3780180" lon="-3.7975270">
        <ele>698.2</ele>
        <time>2021-05-08T05:56:57Z</time>
      </trkpt>
      <trkpt lat="40.3779810" lon="-3.7975750">
        <ele>698.1</ele>
        <time>2021-05-08T05:56:58Z</time>
      </trkpt>
      <trkpt lat="40.3779420" lon="-3.7976250">
        <ele>698.1</ele>
        <time>2021-05-08T05:56:59Z</time>
      </trkpt>
      <trkpt lat="40.3778650" lon="-3.7977170">
        <ele>697.9</ele>
        <time>2021-05-08T05:57:01Z</time>
      </trkpt>
      <trkpt lat="40.3778280" lon="-3.7977630">
        <ele>697.9</ele>
        <time>2021-05-08T05:57:02Z</time>
      </trkpt>
      <trkpt lat="40.3777570" lon="-3.7978520">
        <ele>697.8</ele>
        <time>2021-05-08T05:57:04Z</time>
      </trkpt>
      <trkpt lat="40.3777210" lon="-3.7978980">
        <ele>697.8</ele>
        <time>2021-05-08T05:57:05Z</time>
      </trkpt>
      <trkpt lat="40.3776870" lon="-3.7979430">
        <ele>697.7</ele>
        <time>2021-05-08T05:57:06Z</time>
      </trkpt>
      <trkpt lat="40.3776560" lon="-3.7979870">
        <ele>697.7</ele>
        <time>2021-05-08T05:57:07Z</time>
      </trkpt>
      <trkpt lat="40.3775890" lon="-3.7980640">
        <ele>697.7</ele>
        <time>2021-05-08T05:57:09Z</time>
      </trkpt>
      <trkpt lat="40.3775650" lon="-3.7980910">
        <ele>697.7</ele>
        <time>2021-05-08T05:57:10Z</time>
      </trkpt>
      <trkpt lat="40.3775260" lon="-3.7981680">
        <ele>697.8</ele>
        <time>2021-05-08T05:57:12Z</time>
      </trkpt>
      <trkpt lat="40.3775250" lon="-3.7982030">
        <ele>697.8</ele>
        <time>2021-05-08T05:57:13Z</time>
      </trkpt>
      <trkpt lat="40.3775370" lon="-3.7982510">
        <ele>697.8</ele>
        <time>2021-05-08T05:57:14Z</time>
      </trkpt>
      <trkpt lat="40.3775630" lon="-3.7982930">
        <ele>697.9</ele>
        <time>2021-05-08T05:57:15Z</time>
      </trkpt>
      <trkpt lat="40.3776110" lon="-3.7982890">
        <ele>697.9</ele>
        <time>2021-05-08T05:57:17Z</time>
      </trkpt>
      <trkpt lat="40.3776420" lon="-3.7983440">
        <ele>698.0</ele>
        <time>2021-05-08T05:57:18Z</time>
      </trkpt>
      <trkpt lat="40.3776630" lon="-3.7983970">
        <ele>698.1</ele>
        <time>2021-05-08T05:57:19Z</time>
      </trkpt>
      <trkpt lat="40.3776760" lon="-3.7984500">
        <ele>698.1</ele>
        <time>2021-05-08T05:57:20Z</time>
      </trkpt>
      <trkpt lat="40.3776830" lon="-3.7984970">
        <ele>698.2</ele>
        <time>2021-05-08T05:57:21Z</time>
      </trkpt>
      <trkpt lat="40.3776840" lon="-3.7986050">
        <ele>698.2</ele>
        <time>2021-05-08T05:57:23Z</time>
      </trkpt>
      <trkpt lat="40.3776720" lon="-3.7986900">
        <ele>698.3</ele>
        <time>2021-05-08T05:57:24Z</time>
      </trkpt>
      <trkpt lat="40.3776550" lon="-3.7987720">
        <ele>698.3</ele>
        <time>2021-05-08T05:57:26Z</time>
      </trkpt>
      <trkpt lat="40.3776360" lon="-3.7988370">
        <ele>698.4</ele>
        <time>2021-05-08T05:57:27Z</time>
      </trkpt>
      <trkpt lat="40.3776140" lon="-3.7989110">
        <ele>698.4</ele>
        <time>2021-05-08T05:57:28Z</time>
      </trkpt>
      <trkpt lat="40.3776050" lon="-3.7989740">
        <ele>698.5</ele>
        <time>2021-05-08T05:57:29Z</time>
      </trkpt>
      <trkpt lat="40.3776050" lon="-3.7991180">
        <ele>698.6</ele>
        <time>2021-05-08T05:57:31Z</time>
      </trkpt>
      <trkpt lat="40.3775910" lon="-3.7992570">
        <ele>698.7</ele>
        <time>2021-05-08T05:57:33Z</time>
      </trkpt>
      <trkpt lat="40.3775590" lon="-3.7993900">
        <ele>698.7</ele>
        <time>2021-05-08T05:57:35Z</time>
      </trkpt>
      <trkpt lat="40.3775290" lon="-3.7995230">
        <ele>698.8</ele>
        <time>2021-05-08T05:57:37Z</time>
      </trkpt>
      <trkpt lat="40.3775150" lon="-3.7995930">
        <ele>698.8</ele>
        <time>2021-05-08T05:57:38Z</time>
      </trkpt>
      <trkpt lat="40.3774810" lon="-3.7997290">
        <ele>698.8</ele>
        <time>2021-05-08T05:57:40Z</time>
      </trkpt>
      <trkpt lat="40.3774460" lon="-3.7998740">
        <ele>698.9</ele>
        <time>2021-05-08T05:57:42Z</time>
      </trkpt>
      <trkpt lat="40.3774240" lon="-3.7999620">
        <ele>698.9</ele>
        <time>2021-05-08T05:57:44Z</time>
      </trkpt>
      <trkpt lat="40.3773880" lon="-3.8000750">
        <ele>698.9</ele>
        <time>2021-05-08T05:57:45Z</time>
      </trkpt>
      <trkpt lat="40.3773580" lon="-3.8001450">
        <ele>698.9</ele>
        <time>2021-05-08T05:57:46Z</time>
      </trkpt>
      <trkpt lat="40.3772830" lon="-3.8002710">
        <ele>698.9</ele>
        <time>2021-05-08T05:57:48Z</time>
      </trkpt>
      <trkpt lat="40.3772420" lon="-3.8003320">
        <ele>699.0</ele>
        <time>2021-05-08T05:57:49Z</time>
      </trkpt>
      <trkpt lat="40.3771720" lon="-3.8004520">
        <ele>699.1</ele>
        <time>2021-05-08T05:57:51Z</time>
      </trkpt>
      <trkpt lat="40.3771060" lon="-3.8005540">
        <ele>699.2</ele>
        <time>2021-05-08T05:57:53Z</time>
      </trkpt>
      <trkpt lat="40.3770690" lon="-3.8006000">
        <ele>699.2</ele>
        <time>2021-05-08T05:57:54Z</time>
      </trkpt>
      <trkpt lat="40.3770270" lon="-3.8006490">
        <ele>699.3</ele>
        <time>2021-05-08T05:57:55Z</time>
      </trkpt>
      <trkpt lat="40.3769360" lon="-3.8007560">
        <ele>699.4</ele>
        <time>2021-05-08T05:57:57Z</time>
      </trkpt>
      <trkpt lat="40.3768950" lon="-3.8008070">
        <ele>699.4</ele>
        <time>2021-05-08T05:57:58Z</time>
      </trkpt>
      <trkpt lat="40.3768580" lon="-3.8008480">
        <ele>699.5</ele>
        <time>2021-05-08T05:57:59Z</time>
      </trkpt>
      <trkpt lat="40.3767850" lon="-3.8009440">
        <ele>699.4</ele>
        <time>2021-05-08T05:58:01Z</time>
      </trkpt>
      <trkpt lat="40.3767100" lon="-3.8010540">
        <ele>699.3</ele>
        <time>2021-05-08T05:58:03Z</time>
      </trkpt>
      <trkpt lat="40.3766270" lon="-3.8011590">
        <ele>699.1</ele>
        <time>2021-05-08T05:58:05Z</time>
      </trkpt>
      <trkpt lat="40.3765860" lon="-3.8012220">
        <ele>699.0</ele>
        <time>2021-05-08T05:58:06Z</time>
      </trkpt>
      <trkpt lat="40.3765530" lon="-3.8012880">
        <ele>698.8</ele>
        <time>2021-05-08T05:58:07Z</time>
      </trkpt>
      <trkpt lat="40.3764830" lon="-3.8014230">
        <ele>698.5</ele>
        <time>2021-05-08T05:58:09Z</time>
      </trkpt>
      <trkpt lat="40.3764410" lon="-3.8014910">
        <ele>698.3</ele>
        <time>2021-05-08T05:58:10Z</time>
      </trkpt>
      <trkpt lat="40.3763560" lon="-3.8016410">
        <ele>698.1</ele>
        <time>2021-05-08T05:58:12Z</time>
      </trkpt>
      <trkpt lat="40.3763080" lon="-3.8017080">
        <ele>698.0</ele>
        <time>2021-05-08T05:58:13Z</time>
      </trkpt>
      <trkpt lat="40.3762110" lon="-3.8018290">
        <ele>697.9</ele>
        <time>2021-05-08T05:58:15Z</time>
      </trkpt>
      <trkpt lat="40.3761660" lon="-3.8018950">
        <ele>697.8</ele>
        <time>2021-05-08T05:58:16Z</time>
      </trkpt>
      <trkpt lat="40.3761240" lon="-3.8019680">
        <ele>697.7</ele>
        <time>2021-05-08T05:58:17Z</time>
      </trkpt>
      <trkpt lat="40.3760420" lon="-3.8021060">
        <ele>697.7</ele>
        <time>2021-05-08T05:58:19Z</time>
      </trkpt>
      <trkpt lat="40.3759990" lon="-3.8021740">
        <ele>697.7</ele>
        <time>2021-05-08T05:58:20Z</time>
      </trkpt>
      <trkpt lat="40.3759590" lon="-3.8022380">
        <ele>697.7</ele>
        <time>2021-05-08T05:58:21Z</time>
      </trkpt>
      <trkpt lat="40.3759220" lon="-3.8023000">
        <ele>697.7</ele>
        <time>2021-05-08T05:58:22Z</time>
      </trkpt>
      <trkpt lat="40.3758850" lon="-3.8023610">
        <ele>697.7</ele>
        <time>2021-05-08T05:58:23Z</time>
      </trkpt>
      <trkpt lat="40.3758040" lon="-3.8024550">
        <ele>697.8</ele>
        <time>2021-05-08T05:58:25Z</time>
      </trkpt>
      <trkpt lat="40.3757600" lon="-3.8024990">
        <ele>697.9</ele>
        <time>2021-05-08T05:58:26Z</time>
      </trkpt>
      <trkpt lat="40.3756770" lon="-3.8026050">
        <ele>698.0</ele>
        <time>2021-05-08T05:58:28Z</time>
      </trkpt>
      <trkpt lat="40.3756300" lon="-3.8026580">
        <ele>698.0</ele>
        <time>2021-05-08T05:58:29Z</time>
      </trkpt>
      <trkpt lat="40.3755420" lon="-3.8027740">
        <ele>698.2</ele>
        <time>2021-05-08T05:58:31Z</time>
      </trkpt>
      <trkpt lat="40.3755020" lon="-3.8028370">
        <ele>698.3</ele>
        <time>2021-05-08T05:58:32Z</time>
      </trkpt>
      <trkpt lat="40.3754250" lon="-3.8029480">
        <ele>698.5</ele>
        <time>2021-05-08T05:58:34Z</time>
      </trkpt>
      <trkpt lat="40.3753540" lon="-3.8030430">
        <ele>698.7</ele>
        <time>2021-05-08T05:58:36Z</time>
      </trkpt>
      <trkpt lat="40.3753190" lon="-3.8030890">
        <ele>698.8</ele>
        <time>2021-05-08T05:58:37Z</time>
      </trkpt>
      <trkpt lat="40.3752440" lon="-3.8031800">
        <ele>698.9</ele>
        <time>2021-05-08T05:58:39Z</time>
      </trkpt>
      <trkpt lat="40.3752050" lon="-3.8032250">
        <ele>699.0</ele>
        <time>2021-05-08T05:58:40Z</time>
      </trkpt>
      <trkpt lat="40.3751630" lon="-3.8032620">
        <ele>699.2</ele>
        <time>2021-05-08T05:58:41Z</time>
      </trkpt>
      <trkpt lat="40.3750810" lon="-3.8033490">
        <ele>699.3</ele>
        <time>2021-05-08T05:58:43Z</time>
      </trkpt>
      <trkpt lat="40.3750460" lon="-3.8033970">
        <ele>699.4</ele>
        <time>2021-05-08T05:58:44Z</time>
      </trkpt>
      <trkpt lat="40.3749950" lon="-3.8035120">
        <ele>699.7</ele>
        <time>2021-05-08T05:58:46Z</time>
      </trkpt>
      <trkpt lat="40.3749790" lon="-3.8035750">
        <ele>699.8</ele>
        <time>2021-05-08T05:58:47Z</time>
      </trkpt>
      <trkpt lat="40.3749320" lon="-3.8036890">
        <ele>700.2</ele>
        <time>2021-05-08T05:58:49Z</time>
      </trkpt>
      <trkpt lat="40.3748790" lon="-3.8037520">
        <ele>700.5</ele>
        <time>2021-05-08T05:58:51Z</time>
      </trkpt>
      <trkpt lat="40.3748130" lon="-3.8038230">
        <ele>700.9</ele>
        <time>2021-05-08T05:58:53Z</time>
      </trkpt>
      <trkpt lat="40.3747550" lon="-3.8038980">
        <ele>701.3</ele>
        <time>2021-05-08T05:58:55Z</time>
      </trkpt>
      <trkpt lat="40.3747270" lon="-3.8039350">
        <ele>701.4</ele>
        <time>2021-05-08T05:58:56Z</time>
      </trkpt>
      <trkpt lat="40.3747150" lon="-3.8039990">
        <ele>701.6</ele>
        <time>2021-05-08T05:58:57Z</time>
      </trkpt>
      <trkpt lat="40.3746720" lon="-3.8040430">
        <ele>701.9</ele>
        <time>2021-05-08T05:58:59Z</time>
      </trkpt>
      <trkpt lat="40.3746250" lon="-3.8040880">
        <ele>702.2</ele>
        <time>2021-05-08T05:59:00Z</time>
      </trkpt>
      <trkpt lat="40.3745900" lon="-3.8041280">
        <ele>702.4</ele>
        <time>2021-05-08T05:59:01Z</time>
      </trkpt>
      <trkpt lat="40.3745370" lon="-3.8041910">
        <ele>702.7</ele>
        <time>2021-05-08T05:59:02Z</time>
      </trkpt>
      <trkpt lat="40.3744960" lon="-3.8042390">
        <ele>703.0</ele>
        <time>2021-05-08T05:59:04Z</time>
      </trkpt>
      <trkpt lat="40.3744420" lon="-3.8043020">
        <ele>703.3</ele>
        <time>2021-05-08T05:59:05Z</time>
      </trkpt>
      <trkpt lat="40.3744180" lon="-3.8043350">
        <ele>703.4</ele>
        <time>2021-05-08T05:59:06Z</time>
      </trkpt>
      <trkpt lat="40.3743750" lon="-3.8043980">
        <ele>703.7</ele>
        <time>2021-05-08T05:59:08Z</time>
      </trkpt>
      <trkpt lat="40.3743460" lon="-3.8044380">
        <ele>703.8</ele>
        <time>2021-05-08T05:59:09Z</time>
      </trkpt>
      <trkpt lat="40.3743130" lon="-3.8044840">
        <ele>703.9</ele>
        <time>2021-05-08T05:59:10Z</time>
      </trkpt>
      <trkpt lat="40.3742750" lon="-3.8045340">
        <ele>704.0</ele>
        <time>2021-05-08T05:59:12Z</time>
      </trkpt>
      <trkpt lat="40.3742470" lon="-3.8045680">
        <ele>704.1</ele>
        <time>2021-05-08T05:59:13Z</time>
      </trkpt>
      <trkpt lat="40.3742200" lon="-3.8046020">
        <ele>704.1</ele>
        <time>2021-05-08T05:59:14Z</time>
      </trkpt>
      <trkpt lat="40.3741920" lon="-3.8046340">
        <ele>704.2</ele>
        <time>2021-05-08T05:59:15Z</time>
      </trkpt>
      <trkpt lat="40.3741490" lon="-3.8046820">
        <ele>704.3</ele>
        <time>2021-05-08T05:59:16Z</time>
      </trkpt>
      <trkpt lat="40.3741120" lon="-3.8047280">
        <ele>704.3</ele>
        <time>2021-05-08T05:59:18Z</time>
      </trkpt>
      <trkpt lat="40.3740650" lon="-3.8047890">
        <ele>704.3</ele>
        <time>2021-05-08T05:59:20Z</time>
      </trkpt>
      <trkpt lat="40.3740310" lon="-3.8048300">
        <ele>704.3</ele>
        <time>2021-05-08T05:59:21Z</time>
      </trkpt>
      <trkpt lat="40.3740010" lon="-3.8048670">
        <ele>704.3</ele>
        <time>2021-05-08T05:59:22Z</time>
      </trkpt>
      <trkpt lat="40.3739520" lon="-3.8049250">
        <ele>704.3</ele>
        <time>2021-05-08T05:59:24Z</time>
      </trkpt>
      <trkpt lat="40.3739040" lon="-3.8049850">
        <ele>704.2</ele>
        <time>2021-05-08T05:59:25Z</time>
      </trkpt>
      <trkpt lat="40.3738750" lon="-3.8050260">
        <ele>704.2</ele>
        <time>2021-05-08T05:59:26Z</time>
      </trkpt>
      <trkpt lat="40.3738160" lon="-3.8051070">
        <ele>704.0</ele>
        <time>2021-05-08T05:59:28Z</time>
      </trkpt>
      <trkpt lat="40.3737450" lon="-3.8051930">
        <ele>703.8</ele>
        <time>2021-05-08T05:59:30Z</time>
      </trkpt>
      <trkpt lat="40.3736750" lon="-3.8052920">
        <ele>703.6</ele>
        <time>2021-05-08T05:59:32Z</time>
      </trkpt>
      <trkpt lat="40.3736160" lon="-3.8053920">
        <ele>703.4</ele>
        <time>2021-05-08T05:59:34Z</time>
      </trkpt>
      <trkpt lat="40.3735800" lon="-3.8054190">
        <ele>703.3</ele>
        <time>2021-05-08T05:59:35Z</time>
      </trkpt>
      <trkpt lat="40.3735370" lon="-3.8054280">
        <ele>703.2</ele>
        <time>2021-05-08T05:59:36Z</time>
      </trkpt>
      <trkpt lat="40.3734340" lon="-3.8054250">
        <ele>703.1</ele>
        <time>2021-05-08T05:59:38Z</time>
      </trkpt>
      <trkpt lat="40.3733300" lon="-3.8054440">
        <ele>703.1</ele>
        <time>2021-05-08T05:59:40Z</time>
      </trkpt>
      <trkpt lat="40.3732860" lon="-3.8054680">
        <ele>703.1</ele>
        <time>2021-05-08T05:59:41Z</time>
      </trkpt>
      <trkpt lat="40.3732190" lon="-3.8055630">
        <ele>703.2</ele>
        <time>2021-05-08T05:59:43Z</time>
      </trkpt>
      <trkpt lat="40.3731450" lon="-3.8056720">
        <ele>703.3</ele>
        <time>2021-05-08T05:59:45Z</time>
      </trkpt>
      <trkpt lat="40.3730690" lon="-3.8057750">
        <ele>703.4</ele>
        <time>2021-05-08T05:59:47Z</time>
      </trkpt>
      <trkpt lat="40.3730020" lon="-3.8058770">
        <ele>703.5</ele>
        <time>2021-05-08T05:59:49Z</time>
      </trkpt>
      <trkpt lat="40.3729400" lon="-3.8059760">
        <ele>703.6</ele>
        <time>2021-05-08T05:59:51Z</time>
      </trkpt>
      <trkpt lat="40.3729090" lon="-3.8060300">
        <ele>703.7</ele>
        <time>2021-05-08T05:59:52Z</time>
      </trkpt>
      <trkpt lat="40.3728400" lon="-3.8061180">
        <ele>703.8</ele>
        <time>2021-05-08T05:59:54Z</time>
      </trkpt>
      <trkpt lat="40.3727910" lon="-3.8061490">
        <ele>703.8</ele>
        <time>2021-05-08T05:59:56Z</time>
      </trkpt>
      <trkpt lat="40.3727610" lon="-3.8061660">
        <ele>703.9</ele>
        <time>2021-05-08T05:59:57Z</time>
      </trkpt>
      <trkpt lat="40.3726740" lon="-3.8062690">
        <ele>703.9</ele>
        <time>2021-05-08T05:59:59Z</time>
      </trkpt>
      <trkpt lat="40.3726250" lon="-3.8063410">
        <ele>704.0</ele>
        <time>2021-05-08T06:00:00Z</time>
      </trkpt>
      <trkpt lat="40.3725350" lon="-3.8064410">
        <ele>704.0</ele>
        <time>2021-05-08T06:00:02Z</time>
      </trkpt>
      <trkpt lat="40.3724930" lon="-3.8064820">
        <ele>704.0</ele>
        <time>2021-05-08T06:00:03Z</time>
      </trkpt>
      <trkpt lat="40.3724570" lon="-3.8065200">
        <ele>704.0</ele>
        <time>2021-05-08T06:00:04Z</time>
      </trkpt>
      <trkpt lat="40.3724140" lon="-3.8065630">
        <ele>704.0</ele>
        <time>2021-05-08T06:00:05Z</time>
      </trkpt>
      <trkpt lat="40.3723320" lon="-3.8066310">
        <ele>704.1</ele>
        <time>2021-05-08T06:00:07Z</time>
      </trkpt>
      <trkpt lat="40.3722960" lon="-3.8066830">
        <ele>704.1</ele>
        <time>2021-05-08T06:00:08Z</time>
      </trkpt>
      <trkpt lat="40.3722170" lon="-3.8067850">
        <ele>704.1</ele>
        <time>2021-05-08T06:00:10Z</time>
      </trkpt>
      <trkpt lat="40.3721310" lon="-3.8068800">
        <ele>704.1</ele>
        <time>2021-05-08T06:00:12Z</time>
      </trkpt>
      <trkpt lat="40.3720900" lon="-3.8069270">
        <ele>704.1</ele>
        <time>2021-05-08T06:00:13Z</time>
      </trkpt>
      <trkpt lat="40.3720150" lon="-3.8070270">
        <ele>704.1</ele>
        <time>2021-05-08T06:00:15Z</time>
      </trkpt>
      <trkpt lat="40.3719730" lon="-3.8070760">
        <ele>704.1</ele>
        <time>2021-05-08T06:00:16Z</time>
      </trkpt>
      <trkpt lat="40.3719030" lon="-3.8071690">
        <ele>704.1</ele>
        <time>2021-05-08T06:00:18Z</time>
      </trkpt>
      <trkpt lat="40.3718310" lon="-3.8072370">
        <ele>704.2</ele>
        <time>2021-05-08T06:00:20Z</time>
      </trkpt>
      <trkpt lat="40.3717900" lon="-3.8072740">
        <ele>704.2</ele>
        <time>2021-05-08T06:00:21Z</time>
      </trkpt>
      <trkpt lat="40.3717070" lon="-3.8073370">
        <ele>704.2</ele>
        <time>2021-05-08T06:00:23Z</time>
      </trkpt>
      <trkpt lat="40.3716710" lon="-3.8073600">
        <ele>704.3</ele>
        <time>2021-05-08T06:00:24Z</time>
      </trkpt>
      <trkpt lat="40.3716270" lon="-3.8073800">
        <ele>704.3</ele>
        <time>2021-05-08T06:00:25Z</time>
      </trkpt>
      <trkpt lat="40.3715360" lon="-3.8074360">
        <ele>704.4</ele>
        <time>2021-05-08T06:00:27Z</time>
      </trkpt>
      <trkpt lat="40.3714880" lon="-3.8074690">
        <ele>704.4</ele>
        <time>2021-05-08T06:00:28Z</time>
      </trkpt>
      <trkpt lat="40.3713940" lon="-3.8075350">
        <ele>704.6</ele>
        <time>2021-05-08T06:00:30Z</time>
      </trkpt>
      <trkpt lat="40.3713050" lon="-3.8075970">
        <ele>704.7</ele>
        <time>2021-05-08T06:00:32Z</time>
      </trkpt>
      <trkpt lat="40.3712170" lon="-3.8076540">
        <ele>704.8</ele>
        <time>2021-05-08T06:00:34Z</time>
      </trkpt>
      <trkpt lat="40.3711720" lon="-3.8076770">
        <ele>704.8</ele>
        <time>2021-05-08T06:00:35Z</time>
      </trkpt>
      <trkpt lat="40.3711260" lon="-3.8076940">
        <ele>704.9</ele>
        <time>2021-05-08T06:00:36Z</time>
      </trkpt>
      <trkpt lat="40.3710490" lon="-3.8077360">
        <ele>704.9</ele>
        <time>2021-05-08T06:00:38Z</time>
      </trkpt>
      <trkpt lat="40.3709820" lon="-3.8078500">
        <ele>705.0</ele>
        <time>2021-05-08T06:00:40Z</time>
      </trkpt>
      <trkpt lat="40.3709410" lon="-3.8079010">
        <ele>705.1</ele>
        <time>2021-05-08T06:00:41Z</time>
      </trkpt>
      <trkpt lat="40.3708960" lon="-3.8079350">
        <ele>705.1</ele>
        <time>2021-05-08T06:00:42Z</time>
      </trkpt>
      <trkpt lat="40.3708100" lon="-3.8079850">
        <ele>705.2</ele>
        <time>2021-05-08T06:00:44Z</time>
      </trkpt>
      <trkpt lat="40.3707590" lon="-3.8079890">
        <ele>705.0</ele>
        <time>2021-05-08T06:00:45Z</time>
      </trkpt>
      <trkpt lat="40.3706760" lon="-3.8079440">
        <ele>704.8</ele>
        <time>2021-05-08T06:00:47Z</time>
      </trkpt>
      <trkpt lat="40.3706330" lon="-3.8079120">
        <ele>704.7</ele>
        <time>2021-05-08T06:00:48Z</time>
      </trkpt>
      <trkpt lat="40.3705920" lon="-3.8078700">
        <ele>704.6</ele>
        <time>2021-05-08T06:00:49Z</time>
      </trkpt>
      <trkpt lat="40.3705490" lon="-3.8078170">
        <ele>704.4</ele>
        <time>2021-05-08T06:00:50Z</time>
      </trkpt>
      <trkpt lat="40.3705130" lon="-3.8077570">
        <ele>704.3</ele>
        <time>2021-05-08T06:00:51Z</time>
      </trkpt>
      <trkpt lat="40.3704430" lon="-3.8076250">
        <ele>704.1</ele>
        <time>2021-05-08T06:00:53Z</time>
      </trkpt>
      <trkpt lat="40.3704070" lon="-3.8075540">
        <ele>704.0</ele>
        <time>2021-05-08T06:00:54Z</time>
      </trkpt>
      <trkpt lat="40.3703430" lon="-3.8074160">
        <ele>703.9</ele>
        <time>2021-05-08T06:00:56Z</time>
      </trkpt>
      <trkpt lat="40.3702820" lon="-3.8072820">
        <ele>703.7</ele>
        <time>2021-05-08T06:00:58Z</time>
      </trkpt>
      <trkpt lat="40.3702510" lon="-3.8072110">
        <ele>703.6</ele>
        <time>2021-05-08T06:00:59Z</time>
      </trkpt>
      <trkpt lat="40.3702240" lon="-3.8071490">
        <ele>703.5</ele>
        <time>2021-05-08T06:01:00Z</time>
      </trkpt>
      <trkpt lat="40.3701710" lon="-3.8070270">
        <ele>703.3</ele>
        <time>2021-05-08T06:01:02Z</time>
      </trkpt>
      <trkpt lat="40.3701440" lon="-3.8069610">
        <ele>703.2</ele>
        <time>2021-05-08T06:01:03Z</time>
      </trkpt>
      <trkpt lat="40.3700810" lon="-3.8068210">
        <ele>703.0</ele>
        <time>2021-05-08T06:01:05Z</time>
      </trkpt>
      <trkpt lat="40.3700560" lon="-3.8067650">
        <ele>702.9</ele>
        <time>2021-05-08T06:01:06Z</time>
      </trkpt>
      <trkpt lat="40.3700260" lon="-3.8067010">
        <ele>702.8</ele>
        <time>2021-05-08T06:01:07Z</time>
      </trkpt>
      <trkpt lat="40.3699670" lon="-3.8065600">
        <ele>702.6</ele>
        <time>2021-05-08T06:01:09Z</time>
      </trkpt>
      <trkpt lat="40.3699100" lon="-3.8064240">
        <ele>702.5</ele>
        <time>2021-05-08T06:01:11Z</time>
      </trkpt>
      <trkpt lat="40.3698770" lon="-3.8063600">
        <ele>702.5</ele>
        <time>2021-05-08T06:01:12Z</time>
      </trkpt>
      <trkpt lat="40.3698430" lon="-3.8062950">
        <ele>702.4</ele>
        <time>2021-05-08T06:01:13Z</time>
      </trkpt>
      <trkpt lat="40.3697760" lon="-3.8061660">
        <ele>702.4</ele>
        <time>2021-05-08T06:01:15Z</time>
      </trkpt>
      <trkpt lat="40.3697140" lon="-3.8060500">
        <ele>702.3</ele>
        <time>2021-05-08T06:01:17Z</time>
      </trkpt>
      <trkpt lat="40.3696810" lon="-3.8059970">
        <ele>702.3</ele>
        <time>2021-05-08T06:01:18Z</time>
      </trkpt>
      <trkpt lat="40.3696510" lon="-3.8059450">
        <ele>702.3</ele>
        <time>2021-05-08T06:01:19Z</time>
      </trkpt>
      <trkpt lat="40.3696240" lon="-3.8058930">
        <ele>702.3</ele>
        <time>2021-05-08T06:01:20Z</time>
      </trkpt>
      <trkpt lat="40.3695960" lon="-3.8058380">
        <ele>702.2</ele>
        <time>2021-05-08T06:01:21Z</time>
      </trkpt>
      <trkpt lat="40.3695440" lon="-3.8057220">
        <ele>702.2</ele>
        <time>2021-05-08T06:01:23Z</time>
      </trkpt>
      <trkpt lat="40.3695220" lon="-3.8056620">
        <ele>702.2</ele>
        <time>2021-05-08T06:01:24Z</time>
      </trkpt>
      <trkpt lat="40.3694780" lon="-3.8055560">
        <ele>702.1</ele>
        <time>2021-05-08T06:01:26Z</time>
      </trkpt>
      <trkpt lat="40.3694560" lon="-3.8055130">
        <ele>702.1</ele>
        <time>2021-05-08T06:01:27Z</time>
      </trkpt>
      <trkpt lat="40.3694440" lon="-3.8054940">
        <ele>702.1</ele>
        <time>2021-05-08T06:01:29Z</time>
      </trkpt>
      <trkpt lat="40.3694460" lon="-3.8055070">
        <ele>702.1</ele>
        <time>2021-05-08T06:01:31Z</time>
      </trkpt>
      <trkpt lat="40.3694470" lon="-3.8055090">
        <ele>702.1</ele>
        <time>2021-05-08T06:01:32Z</time>
      </trkpt>
      <trkpt lat="40.3694480" lon="-3.8055100">
        <ele>702.1</ele>
        <time>2021-05-08T06:01:33Z</time>
      </trkpt>
      <trkpt lat="40.3694480" lon="-3.8055100">
        <ele>702.1</ele>
        <time>2021-05-08T06:01:35Z</time>
      </trkpt>
      <trkpt lat="40.3694480" lon="-3.8055110">
        <ele>702.1</ele>
        <time>2021-05-08T06:01:37Z</time>
      </trkpt>
      <trkpt lat="40.3694480" lon="-3.8055110">
        <ele>702.1</ele>
        <time>2021-05-08T06:01:38Z</time>
      </trkpt>
      <trkpt lat="40.3694480" lon="-3.8055110">
        <ele>702.1</ele>
        <time>2021-05-08T06:01:40Z</time>
      </trkpt>
      <trkpt lat="40.3694320" lon="-3.8054930">
        <ele>702.1</ele>
        <time>2021-05-08T06:01:56Z</time>
      </trkpt>
      <trkpt lat="40.3694190" lon="-3.8054620">
        <ele>702.2</ele>
        <time>2021-05-08T06:01:57Z</time>
      </trkpt>
      <trkpt lat="40.3694040" lon="-3.8054250">
        <ele>702.2</ele>
        <time>2021-05-08T06:01:59Z</time>
      </trkpt>
      <trkpt lat="40.3693900" lon="-3.8053860">
        <ele>702.2</ele>
        <time>2021-05-08T06:02:00Z</time>
      </trkpt>
      <trkpt lat="40.3693810" lon="-3.8053440">
        <ele>702.2</ele>
        <time>2021-05-08T06:02:01Z</time>
      </trkpt>
      <trkpt lat="40.3693660" lon="-3.8053000">
        <ele>702.3</ele>
        <time>2021-05-08T06:02:02Z</time>
      </trkpt>
      <trkpt lat="40.3693460" lon="-3.8052510">
        <ele>702.3</ele>
        <time>2021-05-08T06:02:03Z</time>
      </trkpt>
      <trkpt lat="40.3693220" lon="-3.8051960">
        <ele>702.3</ele>
        <time>2021-05-08T06:02:04Z</time>
      </trkpt>
      <trkpt lat="40.3692860" lon="-3.8051290">
        <ele>702.3</ele>
        <time>2021-05-08T06:02:05Z</time>
      </trkpt>
      <trkpt lat="40.3692430" lon="-3.8050580">
        <ele>702.3</ele>
        <time>2021-05-08T06:02:07Z</time>
      </trkpt>
      <trkpt lat="40.3692100" lon="-3.8050030">
        <ele>702.3</ele>
        <time>2021-05-08T06:02:08Z</time>
      </trkpt>
      <trkpt lat="40.3691720" lon="-3.8049530">
        <ele>702.3</ele>
        <time>2021-05-08T06:02:09Z</time>
      </trkpt>
      <trkpt lat="40.3691370" lon="-3.8049080">
        <ele>702.3</ele>
        <time>2021-05-08T06:02:10Z</time>
      </trkpt>
      <trkpt lat="40.3691100" lon="-3.8048610">
        <ele>702.4</ele>
        <time>2021-05-08T06:02:12Z</time>
      </trkpt>
      <trkpt lat="40.3690890" lon="-3.8048150">
        <ele>702.4</ele>
        <time>2021-05-08T06:02:13Z</time>
      </trkpt>
      <trkpt lat="40.3690700" lon="-3.8047710">
        <ele>702.4</ele>
        <time>2021-05-08T06:02:14Z</time>
      </trkpt>
      <trkpt lat="40.3690120" lon="-3.8046810">
        <ele>702.6</ele>
        <time>2021-05-08T06:02:16Z</time>
      </trkpt>
      <trkpt lat="40.3689610" lon="-3.8046370">
        <ele>702.7</ele>
        <time>2021-05-08T06:02:18Z</time>
      </trkpt>
      <trkpt lat="40.3689260" lon="-3.8046630">
        <ele>702.8</ele>
        <time>2021-05-08T06:02:19Z</time>
      </trkpt>
      <trkpt lat="40.3688900" lon="-3.8047140">
        <ele>702.9</ele>
        <time>2021-05-08T06:02:20Z</time>
      </trkpt>
      <trkpt lat="40.3688530" lon="-3.8047540">
        <ele>703.0</ele>
        <time>2021-05-08T06:02:22Z</time>
      </trkpt>
      <trkpt lat="40.3688340" lon="-3.8047760">
        <ele>703.0</ele>
        <time>2021-05-08T06:02:23Z</time>
      </trkpt>
      <trkpt lat="40.3688250" lon="-3.8047880">
        <ele>703.0</ele>
        <time>2021-05-08T06:02:24Z</time>
      </trkpt>
      <trkpt lat="40.3688160" lon="-3.8048000">
        <ele>703.0</ele>
        <time>2021-05-08T06:02:25Z</time>
      </trkpt>
      <trkpt lat="40.3688290" lon="-3.8048540">
        <ele>702.7</ele>
        <time>2021-05-08T06:02:27Z</time>
      </trkpt>
      <trkpt lat="40.3688540" lon="-3.8048830">
        <ele>702.5</ele>
        <time>2021-05-08T06:02:28Z</time>
      </trkpt>
      <trkpt lat="40.3689050" lon="-3.8049420">
        <ele>702.3</ele>
        <time>2021-05-08T06:02:30Z</time>
      </trkpt>
      <trkpt lat="40.3689320" lon="-3.8049790">
        <ele>702.2</ele>
        <time>2021-05-08T06:02:31Z</time>
      </trkpt>
      <trkpt lat="40.3689560" lon="-3.8050270">
        <ele>702.1</ele>
        <time>2021-05-08T06:02:32Z</time>
      </trkpt>
      <trkpt lat="40.3690240" lon="-3.8051700">
        <ele>701.9</ele>
        <time>2021-05-08T06:02:34Z</time>
      </trkpt>
      <trkpt lat="40.3690790" lon="-3.8052800">
        <ele>701.8</ele>
        <time>2021-05-08T06:02:36Z</time>
      </trkpt>
      <trkpt lat="40.3691220" lon="-3.8053900">
        <ele>701.8</ele>
        <time>2021-05-08T06:02:38Z</time>
      </trkpt>
      <trkpt lat="40.3691480" lon="-3.8054460">
        <ele>701.8</ele>
        <time>2021-05-08T06:02:39Z</time>
      </trkpt>
      <trkpt lat="40.3691760" lon="-3.8055070">
        <ele>701.8</ele>
        <time>2021-05-08T06:02:40Z</time>
      </trkpt>
      <trkpt lat="40.3692330" lon="-3.8056170">
        <ele>701.8</ele>
        <time>2021-05-08T06:02:42Z</time>
      </trkpt>
      <trkpt lat="40.3692860" lon="-3.8057270">
        <ele>701.8</ele>
        <time>2021-05-08T06:02:44Z</time>
      </trkpt>
      <trkpt lat="40.3693100" lon="-3.8057870">
        <ele>701.8</ele>
        <time>2021-05-08T06:02:45Z</time>
      </trkpt>
      <trkpt lat="40.3693620" lon="-3.8059040">
        <ele>701.8</ele>
        <time>2021-05-08T06:02:47Z</time>
      </trkpt>
      <trkpt lat="40.3693900" lon="-3.8059630">
        <ele>701.9</ele>
        <time>2021-05-08T06:02:48Z</time>
      </trkpt>
      <trkpt lat="40.3694400" lon="-3.8060820">
        <ele>702.0</ele>
        <time>2021-05-08T06:02:50Z</time>
      </trkpt>
      <trkpt lat="40.3694910" lon="-3.8062030">
        <ele>702.1</ele>
        <time>2021-05-08T06:02:52Z</time>
      </trkpt>
      <trkpt lat="40.3695210" lon="-3.8062670">
        <ele>702.2</ele>
        <time>2021-05-08T06:02:53Z</time>
      </trkpt>
      <trkpt lat="40.3695700" lon="-3.8063810">
        <ele>702.3</ele>
        <time>2021-05-08T06:02:55Z</time>
      </trkpt>
      <trkpt lat="40.3696220" lon="-3.8064990">
        <ele>702.5</ele>
        <time>2021-05-08T06:02:57Z</time>
      </trkpt>
      <trkpt lat="40.3696500" lon="-3.8065530">
        <ele>702.5</ele>
        <time>2021-05-08T06:02:58Z</time>
      </trkpt>
      <trkpt lat="40.3696770" lon="-3.8066080">
        <ele>702.7</ele>
        <time>2021-05-08T06:02:59Z</time>
      </trkpt>
      <trkpt lat="40.3697350" lon="-3.8067230">
        <ele>702.9</ele>
        <time>2021-05-08T06:03:01Z</time>
      </trkpt>
      <trkpt lat="40.3697860" lon="-3.8068440">
        <ele>703.1</ele>
        <time>2021-05-08T06:03:03Z</time>
      </trkpt>
      <trkpt lat="40.3698360" lon="-3.8069590">
        <ele>703.4</ele>
        <time>2021-05-08T06:03:05Z</time>
      </trkpt>
      <trkpt lat="40.3698830" lon="-3.8070820">
        <ele>703.6</ele>
        <time>2021-05-08T06:03:07Z</time>
      </trkpt>
      <trkpt lat="40.3699320" lon="-3.8071970">
        <ele>703.9</ele>
        <time>2021-05-08T06:03:09Z</time>
      </trkpt>
      <trkpt lat="40.3699610" lon="-3.8072590">
        <ele>704.0</ele>
        <time>2021-05-08T06:03:10Z</time>
      </trkpt>
      <trkpt lat="40.3700150" lon="-3.8073810">
        <ele>704.3</ele>
        <time>2021-05-08T06:03:12Z</time>
      </trkpt>
      <trkpt lat="40.3700440" lon="-3.8074430">
        <ele>704.4</ele>
        <time>2021-05-08T06:03:13Z</time>
      </trkpt>
      <trkpt lat="40.3700680" lon="-3.8074950">
        <ele>704.5</ele>
        <time>2021-05-08T06:03:14Z</time>
      </trkpt>
      <trkpt lat="40.3700960" lon="-3.8075470">
        <ele>704.6</ele>
        <time>2021-05-08T06:03:15Z</time>
      </trkpt>
      <trkpt lat="40.3701240" lon="-3.8076000">
        <ele>704.7</ele>
        <time>2021-05-08T06:03:16Z</time>
      </trkpt>
      <trkpt lat="40.3701760" lon="-3.8077080">
        <ele>704.9</ele>
        <time>2021-05-08T06:03:18Z</time>
      </trkpt>
      <trkpt lat="40.3702000" lon="-3.8077610">
        <ele>705.0</ele>
        <time>2021-05-08T06:03:19Z</time>
      </trkpt>
      <trkpt lat="40.3702460" lon="-3.8078700">
        <ele>705.2</ele>
        <time>2021-05-08T06:03:21Z</time>
      </trkpt>
      <trkpt lat="40.3702980" lon="-3.8079730">
        <ele>705.3</ele>
        <time>2021-05-08T06:03:23Z</time>
      </trkpt>
      <trkpt lat="40.3703430" lon="-3.8080800">
        <ele>705.5</ele>
        <time>2021-05-08T06:03:25Z</time>
      </trkpt>
      <trkpt lat="40.3703870" lon="-3.8081890">
        <ele>705.7</ele>
        <time>2021-05-08T06:03:27Z</time>
      </trkpt>
      <trkpt lat="40.3704320" lon="-3.8082920">
        <ele>705.8</ele>
        <time>2021-05-08T06:03:29Z</time>
      </trkpt>
      <trkpt lat="40.3704550" lon="-3.8083400">
        <ele>705.8</ele>
        <time>2021-05-08T06:03:30Z</time>
      </trkpt>
      <trkpt lat="40.3704900" lon="-3.8084180">
        <ele>705.9</ele>
        <time>2021-05-08T06:03:32Z</time>
      </trkpt>
      <trkpt lat="40.3705130" lon="-3.8084720">
        <ele>706.0</ele>
        <time>2021-05-08T06:03:33Z</time>
      </trkpt>
      <trkpt lat="40.3705390" lon="-3.8085290">
        <ele>706.0</ele>
        <time>2021-05-08T06:03:34Z</time>
      </trkpt>
      <trkpt lat="40.3705810" lon="-3.8086150">
        <ele>706.1</ele>
        <time>2021-05-08T06:03:36Z</time>
      </trkpt>
      <trkpt lat="40.3706060" lon="-3.8086930">
        <ele>706.2</ele>
        <time>2021-05-08T06:03:38Z</time>
      </trkpt>
      <trkpt lat="40.3706260" lon="-3.8087550">
        <ele>706.2</ele>
        <time>2021-05-08T06:03:40Z</time>
      </trkpt>
      <trkpt lat="40.3706640" lon="-3.8087840">
        <ele>706.2</ele>
        <time>2021-05-08T06:03:41Z</time>
      </trkpt>
      <trkpt lat="40.3706960" lon="-3.8087960">
        <ele>706.2</ele>
        <time>2021-05-08T06:03:42Z</time>
      </trkpt>
      <trkpt lat="40.3707120" lon="-3.8087650">
        <ele>706.2</ele>
        <time>2021-05-08T06:03:43Z</time>
      </trkpt>
      <trkpt lat="40.3707250" lon="-3.8087220">
        <ele>706.3</ele>
        <time>2021-05-08T06:03:44Z</time>
      </trkpt>
      <trkpt lat="40.3707400" lon="-3.8086990">
        <ele>706.2</ele>
        <time>2021-05-08T06:03:45Z</time>
      </trkpt>
      <trkpt lat="40.3707640" lon="-3.8086730">
        <ele>706.2</ele>
        <time>2021-05-08T06:03:47Z</time>
      </trkpt>
      <trkpt lat="40.3707800" lon="-3.8086400">
        <ele>706.2</ele>
        <time>2021-05-08T06:03:48Z</time>
      </trkpt>
      <trkpt lat="40.3707770" lon="-3.8085740">
        <ele>706.2</ele>
        <time>2021-05-08T06:03:50Z</time>
      </trkpt>
      <trkpt lat="40.3707540" lon="-3.8085240">
        <ele>706.2</ele>
        <time>2021-05-08T06:03:51Z</time>
      </trkpt>
      <trkpt lat="40.3707410" lon="-3.8085060">
        <ele>706.2</ele>
        <time>2021-05-08T06:03:52Z</time>
      </trkpt>
      <trkpt lat="40.3707290" lon="-3.8085140">
        <ele>706.2</ele>
        <time>2021-05-08T06:03:54Z</time>
      </trkpt>
      <trkpt lat="40.3707280" lon="-3.8085290">
        <ele>706.2</ele>
        <time>2021-05-08T06:03:55Z</time>
      </trkpt>
      <trkpt lat="40.3707280" lon="-3.8085390">
        <ele>706.2</ele>
        <time>2021-05-08T06:03:56Z</time>
      </trkpt>
      <trkpt lat="40.3707270" lon="-3.8085400">
        <ele>706.2</ele>
        <time>2021-05-08T06:03:58Z</time>
      </trkpt>
      <trkpt lat="40.3707260" lon="-3.8085390">
        <ele>706.2</ele>
        <time>2021-05-08T06:03:59Z</time>
      </trkpt>
      <trkpt lat="40.3707260" lon="-3.8085390">
        <ele>706.2</ele>
        <time>2021-05-08T06:04:00Z</time>
      </trkpt>
      <trkpt lat="40.3707260" lon="-3.8085390">
        <ele>706.2</ele>
        <time>2021-05-08T06:04:02Z</time>
      </trkpt>
      <trkpt lat="40.3705920" lon="-3.8088080">
        <ele>706.2</ele>
        <time>2021-05-08T06:05:45Z</time>
      </trkpt>
      <trkpt lat="40.3705920" lon="-3.8088080">
        <ele>706.2</ele>
        <time>2021-05-08T06:05:46Z</time>
      </trkpt>
      <trkpt lat="40.3706020" lon="-3.8088070">
        <ele>706.3</ele>
        <time>2021-05-08T06:05:48Z</time>
      </trkpt>
      <trkpt lat="40.3706140" lon="-3.8088040">
        <ele>706.3</ele>
        <time>2021-05-08T06:05:49Z</time>
      </trkpt>
      <trkpt lat="40.3706330" lon="-3.8088160">
        <ele>706.3</ele>
        <time>2021-05-08T06:05:51Z</time>
      </trkpt>
      <trkpt lat="40.3706460" lon="-3.8088530">
        <ele>706.3</ele>
        <time>2021-05-08T06:05:52Z</time>
      </trkpt>
      <trkpt lat="40.3706670" lon="-3.8089110">
        <ele>706.3</ele>
        <time>2021-05-08T06:05:53Z</time>
      </trkpt>
      <trkpt lat="40.3706850" lon="-3.8089540">
        <ele>706.3</ele>
        <time>2021-05-08T06:05:55Z</time>
      </trkpt>
      <trkpt lat="40.3707200" lon="-3.8090370">
        <ele>706.4</ele>
        <time>2021-05-08T06:05:56Z</time>
      </trkpt>
      <trkpt lat="40.3707350" lon="-3.8090840">
        <ele>706.4</ele>
        <time>2021-05-08T06:05:58Z</time>
      </trkpt>
      <trkpt lat="40.3707520" lon="-3.8091300">
        <ele>706.4</ele>
        <time>2021-05-08T06:05:59Z</time>
      </trkpt>
      <trkpt lat="40.3707590" lon="-3.8091460">
        <ele>706.4</ele>
        <time>2021-05-08T06:06:00Z</time>
      </trkpt>
      <trkpt lat="40.3707770" lon="-3.8091800">
        <ele>706.4</ele>
        <time>2021-05-08T06:06:01Z</time>
      </trkpt>
      <trkpt lat="40.3707930" lon="-3.8092190">
        <ele>706.5</ele>
        <time>2021-05-08T06:06:02Z</time>
      </trkpt>
      <trkpt lat="40.3708130" lon="-3.8092680">
        <ele>706.5</ele>
        <time>2021-05-08T06:06:03Z</time>
      </trkpt>
      <trkpt lat="40.3708370" lon="-3.8093170">
        <ele>706.5</ele>
        <time>2021-05-08T06:06:05Z</time>
      </trkpt>
      <trkpt lat="40.3708560" lon="-3.8093520">
        <ele>706.5</ele>
        <time>2021-05-08T06:06:06Z</time>
      </trkpt>
      <trkpt lat="40.3708720" lon="-3.8093830">
        <ele>706.5</ele>
        <time>2021-05-08T06:06:07Z</time>
      </trkpt>
      <trkpt lat="40.3708870" lon="-3.8094220">
        <ele>706.5</ele>
        <time>2021-05-08T06:06:08Z</time>
      </trkpt>
      <trkpt lat="40.3709030" lon="-3.8094660">
        <ele>706.5</ele>
        <time>2021-05-08T06:06:09Z</time>
      </trkpt>
      <trkpt lat="40.3709210" lon="-3.8095100">
        <ele>706.5</ele>
        <time>2021-05-08T06:06:11Z</time>
      </trkpt>
      <trkpt lat="40.3709390" lon="-3.8095470">
        <ele>706.5</ele>
        <time>2021-05-08T06:06:12Z</time>
      </trkpt>
      <trkpt lat="40.3709560" lon="-3.8095840">
        <ele>706.5</ele>
        <time>2021-05-08T06:06:13Z</time>
      </trkpt>
      <trkpt lat="40.3709820" lon="-3.8096360">
        <ele>706.5</ele>
        <time>2021-05-08T06:06:14Z</time>
      </trkpt>
      <trkpt lat="40.3710060" lon="-3.8096810">
        <ele>706.5</ele>
        <time>2021-05-08T06:06:15Z</time>
      </trkpt>
      <trkpt lat="40.3710260" lon="-3.8097250">
        <ele>706.5</ele>
        <time>2021-05-08T06:06:16Z</time>
      </trkpt>
      <trkpt lat="40.3710500" lon="-3.8097710">
        <ele>706.5</ele>
        <time>2021-05-08T06:06:18Z</time>
      </trkpt>
      <trkpt lat="40.3710730" lon="-3.8098130">
        <ele>706.5</ele>
        <time>2021-05-08T06:06:19Z</time>
      </trkpt>
      <trkpt lat="40.3710990" lon="-3.8098720">
        <ele>706.5</ele>
        <time>2021-05-08T06:06:20Z</time>
      </trkpt>
      <trkpt lat="40.3711230" lon="-3.8099190">
        <ele>706.5</ele>
        <time>2021-05-08T06:06:22Z</time>
      </trkpt>
      <trkpt lat="40.3711450" lon="-3.8099750">
        <ele>706.5</ele>
        <time>2021-05-08T06:06:23Z</time>
      </trkpt>
      <trkpt lat="40.3711640" lon="-3.8100140">
        <ele>706.5</ele>
        <time>2021-05-08T06:06:24Z</time>
      </trkpt>
      <trkpt lat="40.3711790" lon="-3.8100490">
        <ele>706.5</ele>
        <time>2021-05-08T06:06:25Z</time>
      </trkpt>
      <trkpt lat="40.3712130" lon="-3.8101160">
        <ele>706.5</ele>
        <time>2021-05-08T06:06:27Z</time>
      </trkpt>
      <trkpt lat="40.3712310" lon="-3.8101570">
        <ele>706.5</ele>
        <time>2021-05-08T06:06:28Z</time>
      </trkpt>
      <trkpt lat="40.3712500" lon="-3.8102220">
        <ele>706.5</ele>
        <time>2021-05-08T06:06:29Z</time>
      </trkpt>
      <trkpt lat="40.3712750" lon="-3.8102820">
        <ele>706.5</ele>
        <time>2021-05-08T06:06:31Z</time>
      </trkpt>
      <trkpt lat="40.3713130" lon="-3.8103440">
        <ele>706.6</ele>
        <time>2021-05-08T06:06:33Z</time>
      </trkpt>
      <trkpt lat="40.3713310" lon="-3.8103750">
        <ele>706.6</ele>
        <time>2021-05-08T06:06:34Z</time>
      </trkpt>
      <trkpt lat="40.3713600" lon="-3.8104390">
        <ele>706.6</ele>
        <time>2021-05-08T06:06:36Z</time>
      </trkpt>
      <trkpt lat="40.3713770" lon="-3.8104850">
        <ele>706.6</ele>
        <time>2021-05-08T06:06:37Z</time>
      </trkpt>
      <trkpt lat="40.3713980" lon="-3.8105400">
        <ele>706.6</ele>
        <time>2021-05-08T06:06:38Z</time>
      </trkpt>
      <trkpt lat="40.3714230" lon="-3.8105950">
        <ele>706.6</ele>
        <time>2021-05-08T06:06:40Z</time>
      </trkpt>
      <trkpt lat="40.3714510" lon="-3.8106420">
        <ele>706.6</ele>
        <time>2021-05-08T06:06:41Z</time>
      </trkpt>
      <trkpt lat="40.3714720" lon="-3.8106800">
        <ele>706.6</ele>
        <time>2021-05-08T06:06:42Z</time>
      </trkpt>
      <trkpt lat="40.3714920" lon="-3.8107240">
        <ele>706.6</ele>
        <time>2021-05-08T06:06:43Z</time>
      </trkpt>
      <trkpt lat="40.3715090" lon="-3.8107620">
        <ele>706.6</ele>
        <time>2021-05-08T06:06:44Z</time>
      </trkpt>
      <trkpt lat="40.3715300" lon="-3.8108060">
        <ele>706.7</ele>
        <time>2021-05-08T06:06:46Z</time>
      </trkpt>
      <trkpt lat="40.3715610" lon="-3.8108690">
        <ele>706.7</ele>
        <time>2021-05-08T06:06:47Z</time>
      </trkpt>
      <trkpt lat="40.3715800" lon="-3.8109020">
        <ele>706.7</ele>
        <time>2021-05-08T06:06:48Z</time>
      </trkpt>
      <trkpt lat="40.3716170" lon="-3.8109550">
        <ele>706.7</ele>
        <time>2021-05-08T06:06:49Z</time>
      </trkpt>
      <trkpt lat="40.3716510" lon="-3.8110160">
        <ele>706.7</ele>
        <time>2021-05-08T06:06:51Z</time>
      </trkpt>
      <trkpt lat="40.3716890" lon="-3.8110770">
        <ele>706.8</ele>
        <time>2021-05-08T06:06:52Z</time>
      </trkpt>
      <trkpt lat="40.3717260" lon="-3.8111420">
        <ele>706.8</ele>
        <time>2021-05-08T06:06:54Z</time>
      </trkpt>
      <trkpt lat="40.3717560" lon="-3.8111970">
        <ele>706.9</ele>
        <time>2021-05-08T06:06:55Z</time>
      </trkpt>
      <trkpt lat="40.3717810" lon="-3.8112430">
        <ele>706.9</ele>
        <time>2021-05-08T06:06:57Z</time>
      </trkpt>
      <trkpt lat="40.3718020" lon="-3.8112900">
        <ele>706.9</ele>
        <time>2021-05-08T06:06:58Z</time>
      </trkpt>
      <trkpt lat="40.3718230" lon="-3.8113320">
        <ele>706.9</ele>
        <time>2021-05-08T06:06:59Z</time>
      </trkpt>
      <trkpt lat="40.3718550" lon="-3.8113810">
        <ele>707.0</ele>
        <time>2021-05-08T06:07:00Z</time>
      </trkpt>
      <trkpt lat="40.3718800" lon="-3.8114270">
        <ele>707.0</ele>
        <time>2021-05-08T06:07:01Z</time>
      </trkpt>
      <trkpt lat="40.3719040" lon="-3.8114720">
        <ele>707.0</ele>
        <time>2021-05-08T06:07:03Z</time>
      </trkpt>
      <trkpt lat="40.3719260" lon="-3.8115270">
        <ele>707.1</ele>
        <time>2021-05-08T06:07:04Z</time>
      </trkpt>
      <trkpt lat="40.3719510" lon="-3.8115780">
        <ele>707.1</ele>
        <time>2021-05-08T06:07:05Z</time>
      </trkpt>
      <trkpt lat="40.3719810" lon="-3.8116340">
        <ele>707.1</ele>
        <time>2021-05-08T06:07:07Z</time>
      </trkpt>
      <trkpt lat="40.3720040" lon="-3.8116800">
        <ele>707.1</ele>
        <time>2021-05-08T06:07:08Z</time>
      </trkpt>
      <trkpt lat="40.3720260" lon="-3.8117250">
        <ele>707.1</ele>
        <time>2021-05-08T06:07:09Z</time>
      </trkpt>
      <trkpt lat="40.3720460" lon="-3.8117770">
        <ele>707.1</ele>
        <time>2021-05-08T06:07:10Z</time>
      </trkpt>
      <trkpt lat="40.3720920" lon="-3.8118790">
        <ele>707.1</ele>
        <time>2021-05-08T06:07:12Z</time>
      </trkpt>
      <trkpt lat="40.3721140" lon="-3.8119210">
        <ele>707.1</ele>
        <time>2021-05-08T06:07:13Z</time>
      </trkpt>
      <trkpt lat="40.3721400" lon="-3.8119680">
        <ele>707.1</ele>
        <time>2021-05-08T06:07:14Z</time>
      </trkpt>
      <trkpt lat="40.3721760" lon="-3.8120270">
        <ele>707.1</ele>
        <time>2021-05-08T06:07:15Z</time>
      </trkpt>
      <trkpt lat="40.3722120" lon="-3.8120900">
        <ele>707.2</ele>
        <time>2021-05-08T06:07:17Z</time>
      </trkpt>
      <trkpt lat="40.3722360" lon="-3.8121340">
        <ele>707.2</ele>
        <time>2021-05-08T06:07:18Z</time>
      </trkpt>
      <trkpt lat="40.3722790" lon="-3.8122230">
        <ele>707.2</ele>
        <time>2021-05-08T06:07:20Z</time>
      </trkpt>
      <trkpt lat="40.3723080" lon="-3.8122830">
        <ele>707.2</ele>
        <time>2021-05-08T06:07:21Z</time>
      </trkpt>
      <trkpt lat="40.3723420" lon="-3.8123490">
        <ele>707.2</ele>
        <time>2021-05-08T06:07:22Z</time>
      </trkpt>
      <trkpt lat="40.3723750" lon="-3.8124140">
        <ele>707.2</ele>
        <time>2021-05-08T06:07:24Z</time>
      </trkpt>
      <trkpt lat="40.3724040" lon="-3.8124690">
        <ele>707.2</ele>
        <time>2021-05-08T06:07:25Z</time>
      </trkpt>
      <trkpt lat="40.3724280" lon="-3.8125140">
        <ele>707.3</ele>
        <time>2021-05-08T06:07:26Z</time>
      </trkpt>
      <trkpt lat="40.3724640" lon="-3.8125850">
        <ele>707.3</ele>
        <time>2021-05-08T06:07:27Z</time>
      </trkpt>
      <trkpt lat="40.3724940" lon="-3.8126380">
        <ele>707.3</ele>
        <time>2021-05-08T06:07:29Z</time>
      </trkpt>
      <trkpt lat="40.3725240" lon="-3.8126990">
        <ele>707.4</ele>
        <time>2021-05-08T06:07:30Z</time>
      </trkpt>
      <trkpt lat="40.3725490" lon="-3.8127510">
        <ele>707.4</ele>
        <time>2021-05-08T06:07:31Z</time>
      </trkpt>
      <trkpt lat="40.3725860" lon="-3.8128300">
        <ele>707.4</ele>
        <time>2021-05-08T06:07:32Z</time>
      </trkpt>
      <trkpt lat="40.3726060" lon="-3.8128740">
        <ele>707.4</ele>
        <time>2021-05-08T06:07:33Z</time>
      </trkpt>
      <trkpt lat="40.3726300" lon="-3.8129300">
        <ele>707.5</ele>
        <time>2021-05-08T06:07:34Z</time>
      </trkpt>
      <trkpt lat="40.3726630" lon="-3.8129960">
        <ele>707.5</ele>
        <time>2021-05-08T06:07:36Z</time>
      </trkpt>
      <trkpt lat="40.3727100" lon="-3.8130930">
        <ele>707.6</ele>
        <time>2021-05-08T06:07:37Z</time>
      </trkpt>
      <trkpt lat="40.3727320" lon="-3.8131450">
        <ele>707.6</ele>
        <time>2021-05-08T06:07:39Z</time>
      </trkpt>
      <trkpt lat="40.3727540" lon="-3.8131940">
        <ele>707.6</ele>
        <time>2021-05-08T06:07:40Z</time>
      </trkpt>
      <trkpt lat="40.3727940" lon="-3.8132680">
        <ele>707.6</ele>
        <time>2021-05-08T06:07:42Z</time>
      </trkpt>
      <trkpt lat="40.3728290" lon="-3.8133330">
        <ele>707.7</ele>
        <time>2021-05-08T06:07:43Z</time>
      </trkpt>
      <trkpt lat="40.3728580" lon="-3.8133860">
        <ele>707.7</ele>
        <time>2021-05-08T06:07:44Z</time>
      </trkpt>
      <trkpt lat="40.3728880" lon="-3.8134370">
        <ele>707.7</ele>
        <time>2021-05-08T06:07:46Z</time>
      </trkpt>
      <trkpt lat="40.3729160" lon="-3.8134980">
        <ele>707.7</ele>
        <time>2021-05-08T06:07:47Z</time>
      </trkpt>
      <trkpt lat="40.3729450" lon="-3.8135520">
        <ele>707.7</ele>
        <time>2021-05-08T06:07:48Z</time>
      </trkpt>
      <trkpt lat="40.3729750" lon="-3.8136100">
        <ele>707.8</ele>
        <time>2021-05-08T06:07:49Z</time>
      </trkpt>
      <trkpt lat="40.3730010" lon="-3.8136660">
        <ele>707.8</ele>
        <time>2021-05-08T06:07:51Z</time>
      </trkpt>
      <trkpt lat="40.3730290" lon="-3.8137200">
        <ele>707.8</ele>
        <time>2021-05-08T06:07:52Z</time>
      </trkpt>
      <trkpt lat="40.3730640" lon="-3.8137830">
        <ele>707.8</ele>
        <time>2021-05-08T06:07:53Z</time>
      </trkpt>
      <trkpt lat="40.3730990" lon="-3.8138460">
        <ele>707.9</ele>
        <time>2021-05-08T06:07:55Z</time>
      </trkpt>
      <trkpt lat="40.3731180" lon="-3.8138770">
        <ele>707.9</ele>
        <time>2021-05-08T06:07:56Z</time>
      </trkpt>
      <trkpt lat="40.3731360" lon="-3.8139100">
        <ele>707.9</ele>
        <time>2021-05-08T06:07:57Z</time>
      </trkpt>
      <trkpt lat="40.3731610" lon="-3.8139580">
        <ele>707.9</ele>
        <time>2021-05-08T06:07:58Z</time>
      </trkpt>
      <trkpt lat="40.3731840" lon="-3.8140060">
        <ele>707.9</ele>
        <time>2021-05-08T06:07:59Z</time>
      </trkpt>
      <trkpt lat="40.3732340" lon="-3.8141020">
        <ele>707.9</ele>
        <time>2021-05-08T06:08:01Z</time>
      </trkpt>
      <trkpt lat="40.3732550" lon="-3.8141460">
        <ele>707.9</ele>
        <time>2021-05-08T06:08:02Z</time>
      </trkpt>
      <trkpt lat="40.3733070" lon="-3.8142620">
        <ele>707.9</ele>
        <time>2021-05-08T06:08:04Z</time>
      </trkpt>
      <trkpt lat="40.3733330" lon="-3.8143120">
        <ele>707.9</ele>
        <time>2021-05-08T06:08:05Z</time>
      </trkpt>
      <trkpt lat="40.3733780" lon="-3.8143950">
        <ele>708.0</ele>
        <time>2021-05-08T06:08:07Z</time>
      </trkpt>
      <trkpt lat="40.3734280" lon="-3.8144960">
        <ele>708.0</ele>
        <time>2021-05-08T06:08:09Z</time>
      </trkpt>
      <trkpt lat="40.3734530" lon="-3.8145470">
        <ele>708.1</ele>
        <time>2021-05-08T06:08:10Z</time>
      </trkpt>
      <trkpt lat="40.3734730" lon="-3.8145900">
        <ele>708.1</ele>
        <time>2021-05-08T06:08:11Z</time>
      </trkpt>
      <trkpt lat="40.3735170" lon="-3.8146800">
        <ele>708.1</ele>
        <time>2021-05-08T06:08:13Z</time>
      </trkpt>
      <trkpt lat="40.3735600" lon="-3.8147770">
        <ele>708.1</ele>
        <time>2021-05-08T06:08:15Z</time>
      </trkpt>
      <trkpt lat="40.3736200" lon="-3.8148760">
        <ele>708.1</ele>
        <time>2021-05-08T06:08:17Z</time>
      </trkpt>
      <trkpt lat="40.3736740" lon="-3.8149780">
        <ele>708.0</ele>
        <time>2021-05-08T06:08:19Z</time>
      </trkpt>
      <trkpt lat="40.3737000" lon="-3.8150310">
        <ele>708.0</ele>
        <time>2021-05-08T06:08:20Z</time>
      </trkpt>
      <trkpt lat="40.3737560" lon="-3.8151540">
        <ele>708.0</ele>
        <time>2021-05-08T06:08:22Z</time>
      </trkpt>
      <trkpt lat="40.3737790" lon="-3.8151900">
        <ele>708.0</ele>
        <time>2021-05-08T06:08:23Z</time>
      </trkpt>
      <trkpt lat="40.3738100" lon="-3.8152280">
        <ele>708.0</ele>
        <time>2021-05-08T06:08:24Z</time>
      </trkpt>
      <trkpt lat="40.3738580" lon="-3.8153370">
        <ele>707.9</ele>
        <time>2021-05-08T06:08:26Z</time>
      </trkpt>
      <trkpt lat="40.3739080" lon="-3.8154470">
        <ele>707.9</ele>
        <time>2021-05-08T06:08:28Z</time>
      </trkpt>
      <trkpt lat="40.3739350" lon="-3.8155010">
        <ele>708.0</ele>
        <time>2021-05-08T06:08:29Z</time>
      </trkpt>
      <trkpt lat="40.3739610" lon="-3.8155530">
        <ele>708.0</ele>
        <time>2021-05-08T06:08:30Z</time>
      </trkpt>
      <trkpt lat="40.3740090" lon="-3.8156620">
        <ele>708.0</ele>
        <time>2021-05-08T06:08:32Z</time>
      </trkpt>
      <trkpt lat="40.3740300" lon="-3.8157180">
        <ele>708.0</ele>
        <time>2021-05-08T06:08:33Z</time>
      </trkpt>
      <trkpt lat="40.3740710" lon="-3.8157990">
        <ele>708.1</ele>
        <time>2021-05-08T06:08:35Z</time>
      </trkpt>
      <trkpt lat="40.3741190" lon="-3.8158880">
        <ele>708.2</ele>
        <time>2021-05-08T06:08:37Z</time>
      </trkpt>
      <trkpt lat="40.3741440" lon="-3.8159360">
        <ele>708.2</ele>
        <time>2021-05-08T06:08:38Z</time>
      </trkpt>
      <trkpt lat="40.3741930" lon="-3.8160230">
        <ele>708.3</ele>
        <time>2021-05-08T06:08:40Z</time>
      </trkpt>
      <trkpt lat="40.3741340" lon="-3.8160260">
        <ele>708.4</ele>
        <time>2021-05-08T06:08:41Z</time>
      </trkpt>
      <trkpt lat="40.3741810" lon="-3.8160820">
        <ele>708.5</ele>
        <time>2021-05-08T06:08:43Z</time>
      </trkpt>
      <trkpt lat="40.3742460" lon="-3.8161620">
        <ele>708.5</ele>
        <time>2021-05-08T06:08:44Z</time>
      </trkpt>
      <trkpt lat="40.3743260" lon="-3.8162640">
        <ele>708.6</ele>
        <time>2021-05-08T06:08:46Z</time>
      </trkpt>
      <trkpt lat="40.3744020" lon="-3.8163660">
        <ele>708.7</ele>
        <time>2021-05-08T06:08:47Z</time>
      </trkpt>
      <trkpt lat="40.3744370" lon="-3.8164060">
        <ele>708.8</ele>
        <time>2021-05-08T06:08:48Z</time>
      </trkpt>
      <trkpt lat="40.3744720" lon="-3.8164480">
        <ele>708.9</ele>
        <time>2021-05-08T06:08:50Z</time>
      </trkpt>
      <trkpt lat="40.3744990" lon="-3.8164830">
        <ele>708.9</ele>
        <time>2021-05-08T06:08:51Z</time>
      </trkpt>
      <trkpt lat="40.3745250" lon="-3.8165230">
        <ele>709.0</ele>
        <time>2021-05-08T06:08:52Z</time>
      </trkpt>
      <trkpt lat="40.3745520" lon="-3.8165710">
        <ele>709.0</ele>
        <time>2021-05-08T06:08:53Z</time>
      </trkpt>
      <trkpt lat="40.3745750" lon="-3.8166130">
        <ele>709.1</ele>
        <time>2021-05-08T06:08:54Z</time>
      </trkpt>
      <trkpt lat="40.3746170" lon="-3.8166940">
        <ele>709.2</ele>
        <time>2021-05-08T06:08:56Z</time>
      </trkpt>
      <trkpt lat="40.3746490" lon="-3.8167570">
        <ele>709.3</ele>
        <time>2021-05-08T06:08:57Z</time>
      </trkpt>
      <trkpt lat="40.3746740" lon="-3.8168100">
        <ele>709.4</ele>
        <time>2021-05-08T06:08:58Z</time>
      </trkpt>
      <trkpt lat="40.3747190" lon="-3.8168920">
        <ele>709.5</ele>
        <time>2021-05-08T06:09:00Z</time>
      </trkpt>
      <trkpt lat="40.3747640" lon="-3.8169740">
        <ele>709.6</ele>
        <time>2021-05-08T06:09:02Z</time>
      </trkpt>
      <trkpt lat="40.3747930" lon="-3.8170220">
        <ele>709.7</ele>
        <time>2021-05-08T06:09:03Z</time>
      </trkpt>
      <trkpt lat="40.3748170" lon="-3.8170610">
        <ele>709.8</ele>
        <time>2021-05-08T06:09:04Z</time>
      </trkpt>
      <trkpt lat="40.3748610" lon="-3.8171370">
        <ele>709.9</ele>
        <time>2021-05-08T06:09:06Z</time>
      </trkpt>
      <trkpt lat="40.3748870" lon="-3.8171830">
        <ele>710.0</ele>
        <time>2021-05-08T06:09:07Z</time>
      </trkpt>
      <trkpt lat="40.3749300" lon="-3.8172570">
        <ele>710.1</ele>
        <time>2021-05-08T06:09:09Z</time>
      </trkpt>
      <trkpt lat="40.3749830" lon="-3.8173550">
        <ele>710.3</ele>
        <time>2021-05-08T06:09:11Z</time>
      </trkpt>
      <trkpt lat="40.3750210" lon="-3.8174260">
        <ele>710.4</ele>
        <time>2021-05-08T06:09:13Z</time>
      </trkpt>
      <trkpt lat="40.3750440" lon="-3.8174670">
        <ele>710.5</ele>
        <time>2021-05-08T06:09:14Z</time>
      </trkpt>
      <trkpt lat="40.3750900" lon="-3.8175390">
        <ele>710.5</ele>
        <time>2021-05-08T06:09:16Z</time>
      </trkpt>
      <trkpt lat="40.3751120" lon="-3.8175750">
        <ele>710.6</ele>
        <time>2021-05-08T06:09:17Z</time>
      </trkpt>
      <trkpt lat="40.3751370" lon="-3.8176220">
        <ele>710.6</ele>
        <time>2021-05-08T06:09:18Z</time>
      </trkpt>
      <trkpt lat="40.3751870" lon="-3.8177060">
        <ele>710.7</ele>
        <time>2021-05-08T06:09:20Z</time>
      </trkpt>
      <trkpt lat="40.3752100" lon="-3.8177460">
        <ele>710.8</ele>
        <time>2021-05-08T06:09:21Z</time>
      </trkpt>
      <trkpt lat="40.3752650" lon="-3.8178410">
        <ele>710.9</ele>
        <time>2021-05-08T06:09:23Z</time>
      </trkpt>
      <trkpt lat="40.3753110" lon="-3.8179100">
        <ele>711.0</ele>
        <time>2021-05-08T06:09:25Z</time>
      </trkpt>
      <trkpt lat="40.3753410" lon="-3.8179550">
        <ele>711.0</ele>
        <time>2021-05-08T06:09:26Z</time>
      </trkpt>
      <trkpt lat="40.3753710" lon="-3.8179980">
        <ele>711.1</ele>
        <time>2021-05-08T06:09:27Z</time>
      </trkpt>
      <trkpt lat="40.3754310" lon="-3.8180740">
        <ele>711.2</ele>
        <time>2021-05-08T06:09:29Z</time>
      </trkpt>
      <trkpt lat="40.3754950" lon="-3.8181560">
        <ele>711.4</ele>
        <time>2021-05-08T06:09:31Z</time>
      </trkpt>
      <trkpt lat="40.3755520" lon="-3.8182300">
        <ele>711.5</ele>
        <time>2021-05-08T06:09:33Z</time>
      </trkpt>
      <trkpt lat="40.3756140" lon="-3.8182990">
        <ele>711.6</ele>
        <time>2021-05-08T06:09:35Z</time>
      </trkpt>
      <trkpt lat="40.3756660" lon="-3.8183510">
        <ele>711.7</ele>
        <time>2021-05-08T06:09:37Z</time>
      </trkpt>
      <trkpt lat="40.3757480" lon="-3.8184290">
        <ele>711.8</ele>
        <time>2021-05-08T06:09:39Z</time>
      </trkpt>
      <trkpt lat="40.3757830" lon="-3.8184650">
        <ele>711.8</ele>
        <time>2021-05-08T06:09:40Z</time>
      </trkpt>
      <trkpt lat="40.3758400" lon="-3.8185130">
        <ele>711.9</ele>
        <time>2021-05-08T06:09:42Z</time>
      </trkpt>
      <trkpt lat="40.3759020" lon="-3.8185670">
        <ele>711.9</ele>
        <time>2021-05-08T06:09:44Z</time>
      </trkpt>
      <trkpt lat="40.3759760" lon="-3.8186240">
        <ele>712.0</ele>
        <time>2021-05-08T06:09:46Z</time>
      </trkpt>
      <trkpt lat="40.3760630" lon="-3.8186830">
        <ele>712.1</ele>
        <time>2021-05-08T06:09:48Z</time>
      </trkpt>
      <trkpt lat="40.3760970" lon="-3.8187130">
        <ele>712.2</ele>
        <time>2021-05-08T06:09:49Z</time>
      </trkpt>
      <trkpt lat="40.3761730" lon="-3.8188020">
        <ele>712.3</ele>
        <time>2021-05-08T06:09:51Z</time>
      </trkpt>
      <trkpt lat="40.3762040" lon="-3.8188260">
        <ele>712.4</ele>
        <time>2021-05-08T06:09:52Z</time>
      </trkpt>
      <trkpt lat="40.3762800" lon="-3.8188850">
        <ele>712.5</ele>
        <time>2021-05-08T06:09:54Z</time>
      </trkpt>
      <trkpt lat="40.3763600" lon="-3.8189480">
        <ele>712.6</ele>
        <time>2021-05-08T06:09:56Z</time>
      </trkpt>
      <trkpt lat="40.3764400" lon="-3.8190120">
        <ele>712.7</ele>
        <time>2021-05-08T06:09:58Z</time>
      </trkpt>
      <trkpt lat="40.3764660" lon="-3.8190340">
        <ele>712.7</ele>
        <time>2021-05-08T06:09:59Z</time>
      </trkpt>
      <trkpt lat="40.3765120" lon="-3.8190670">
        <ele>712.7</ele>
        <time>2021-05-08T06:10:00Z</time>
      </trkpt>
      <trkpt lat="40.3765570" lon="-3.8190970">
        <ele>712.8</ele>
        <time>2021-05-08T06:10:01Z</time>
      </trkpt>
      <trkpt lat="40.3766060" lon="-3.8191280">
        <ele>712.8</ele>
        <time>2021-05-08T06:10:02Z</time>
      </trkpt>
      <trkpt lat="40.3766970" lon="-3.8191830">
        <ele>712.9</ele>
        <time>2021-05-08T06:10:04Z</time>
      </trkpt>
      <trkpt lat="40.3767390" lon="-3.8192090">
        <ele>713.0</ele>
        <time>2021-05-08T06:10:05Z</time>
      </trkpt>
      <trkpt lat="40.3767780" lon="-3.8192350">
        <ele>713.0</ele>
        <time>2021-05-08T06:10:06Z</time>
      </trkpt>
      <trkpt lat="40.3768350" lon="-3.8192780">
        <ele>713.1</ele>
        <time>2021-05-08T06:10:08Z</time>
      </trkpt>
      <trkpt lat="40.3768720" lon="-3.8193070">
        <ele>713.2</ele>
        <time>2021-05-08T06:10:09Z</time>
      </trkpt>
      <trkpt lat="40.3769740" lon="-3.8193810">
        <ele>713.3</ele>
        <time>2021-05-08T06:10:11Z</time>
      </trkpt>
      <trkpt lat="40.3770190" lon="-3.8194140">
        <ele>713.4</ele>
        <time>2021-05-08T06:10:13Z</time>
      </trkpt>
      <trkpt lat="40.3770560" lon="-3.8194390">
        <ele>713.4</ele>
        <time>2021-05-08T06:10:14Z</time>
      </trkpt>
      <trkpt lat="40.3771320" lon="-3.8194890">
        <ele>713.5</ele>
        <time>2021-05-08T06:10:16Z</time>
      </trkpt>
      <trkpt lat="40.3771720" lon="-3.8195160">
        <ele>713.6</ele>
        <time>2021-05-08T06:10:17Z</time>
      </trkpt>
      <trkpt lat="40.3772390" lon="-3.8195600">
        <ele>713.7</ele>
        <time>2021-05-08T06:10:19Z</time>
      </trkpt>
      <trkpt lat="40.3772770" lon="-3.8195840">
        <ele>713.7</ele>
        <time>2021-05-08T06:10:20Z</time>
      </trkpt>
      <trkpt lat="40.3773070" lon="-3.8196060">
        <ele>713.8</ele>
        <time>2021-05-08T06:10:21Z</time>
      </trkpt>
      <trkpt lat="40.3773720" lon="-3.8196640">
        <ele>713.8</ele>
        <time>2021-05-08T06:10:23Z</time>
      </trkpt>
      <trkpt lat="40.3774160" lon="-3.8196950">
        <ele>713.9</ele>
        <time>2021-05-08T06:10:24Z</time>
      </trkpt>
      <trkpt lat="40.3774890" lon="-3.8197450">
        <ele>714.0</ele>
        <time>2021-05-08T06:10:26Z</time>
      </trkpt>
      <trkpt lat="40.3775640" lon="-3.8198130">
        <ele>714.1</ele>
        <time>2021-05-08T06:10:28Z</time>
      </trkpt>
      <trkpt lat="40.3776390" lon="-3.8198640">
        <ele>714.1</ele>
        <time>2021-05-08T06:10:30Z</time>
      </trkpt>
      <trkpt lat="40.3777090" lon="-3.8199320">
        <ele>714.2</ele>
        <time>2021-05-08T06:10:32Z</time>
      </trkpt>
      <trkpt lat="40.3777380" lon="-3.8199650">
        <ele>714.2</ele>
        <time>2021-05-08T06:10:33Z</time>
      </trkpt>
      <trkpt lat="40.3778100" lon="-3.8200190">
        <ele>714.2</ele>
        <time>2021-05-08T06:10:35Z</time>
      </trkpt>
      <trkpt lat="40.3778980" lon="-3.8201100">
        <ele>714.3</ele>
        <time>2021-05-08T06:10:37Z</time>
      </trkpt>
      <trkpt lat="40.3779670" lon="-3.8201680">
        <ele>714.3</ele>
        <time>2021-05-08T06:10:39Z</time>
      </trkpt>
      <trkpt lat="40.3780250" lon="-3.8202230">
        <ele>714.3</ele>
        <time>2021-05-08T06:10:41Z</time>
      </trkpt>
      <trkpt lat="40.3781060" lon="-3.8203030">
        <ele>714.3</ele>
        <time>2021-05-08T06:10:43Z</time>
      </trkpt>
      <trkpt lat="40.3781740" lon="-3.8203910">
        <ele>714.3</ele>
        <time>2021-05-08T06:10:45Z</time>
      </trkpt>
      <trkpt lat="40.3781970" lon="-3.8204100">
        <ele>714.3</ele>
        <time>2021-05-08T06:10:46Z</time>
      </trkpt>
      <trkpt lat="40.3782950" lon="-3.8204730">
        <ele>714.3</ele>
        <time>2021-05-08T06:10:48Z</time>
      </trkpt>
      <trkpt lat="40.3783340" lon="-3.8205040">
        <ele>714.3</ele>
        <time>2021-05-08T06:10:49Z</time>
      </trkpt>
      <trkpt lat="40.3783730" lon="-3.8205350">
        <ele>714.3</ele>
        <time>2021-05-08T06:10:50Z</time>
      </trkpt>
      <trkpt lat="40.3784480" lon="-3.8206010">
        <ele>714.3</ele>
        <time>2021-05-08T06:10:52Z</time>
      </trkpt>
      <trkpt lat="40.3785180" lon="-3.8206590">
        <ele>714.3</ele>
        <time>2021-05-08T06:10:54Z</time>
      </trkpt>
      <trkpt lat="40.3786060" lon="-3.8207360">
        <ele>714.3</ele>
        <time>2021-05-08T06:10:56Z</time>
      </trkpt>
      <trkpt lat="40.3786450" lon="-3.8207740">
        <ele>714.3</ele>
        <time>2021-05-08T06:10:57Z</time>
      </trkpt>
      <trkpt lat="40.3787190" lon="-3.8208460">
        <ele>714.3</ele>
        <time>2021-05-08T06:10:59Z</time>
      </trkpt>
      <trkpt lat="40.3787560" lon="-3.8208830">
        <ele>714.3</ele>
        <time>2021-05-08T06:11:00Z</time>
      </trkpt>
      <trkpt lat="40.3788270" lon="-3.8209570">
        <ele>714.3</ele>
        <time>2021-05-08T06:11:02Z</time>
      </trkpt>
      <trkpt lat="40.3788650" lon="-3.8209910">
        <ele>714.3</ele>
        <time>2021-05-08T06:11:03Z</time>
      </trkpt>
      <trkpt lat="40.3789380" lon="-3.8210590">
        <ele>714.3</ele>
        <time>2021-05-08T06:11:05Z</time>
      </trkpt>
      <trkpt lat="40.3789760" lon="-3.8210980">
        <ele>714.3</ele>
        <time>2021-05-08T06:11:06Z</time>
      </trkpt>
      <trkpt lat="40.3790320" lon="-3.8211470">
        <ele>714.3</ele>
        <time>2021-05-08T06:11:08Z</time>
      </trkpt>
      <trkpt lat="40.3790930" lon="-3.8212070">
        <ele>714.3</ele>
        <time>2021-05-08T06:11:09Z</time>
      </trkpt>
      <trkpt lat="40.3791300" lon="-3.8212520">
        <ele>714.3</ele>
        <time>2021-05-08T06:11:10Z</time>
      </trkpt>
      <trkpt lat="40.3792120" lon="-3.8213230">
        <ele>714.3</ele>
        <time>2021-05-08T06:11:12Z</time>
      </trkpt>
      <trkpt lat="40.3792540" lon="-3.8213620">
        <ele>714.3</ele>
        <time>2021-05-08T06:11:13Z</time>
      </trkpt>
      <trkpt lat="40.3793220" lon="-3.8214530">
        <ele>714.3</ele>
        <time>2021-05-08T06:11:15Z</time>
      </trkpt>
      <trkpt lat="40.3793600" lon="-3.8214980">
        <ele>714.3</ele>
        <time>2021-05-08T06:11:16Z</time>
      </trkpt>
      <trkpt lat="40.3794320" lon="-3.8215860">
        <ele>714.3</ele>
        <time>2021-05-08T06:11:18Z</time>
      </trkpt>
      <trkpt lat="40.3794680" lon="-3.8216330">
        <ele>714.3</ele>
        <time>2021-05-08T06:11:19Z</time>
      </trkpt>
      <trkpt lat="40.3795000" lon="-3.8216790">
        <ele>714.3</ele>
        <time>2021-05-08T06:11:20Z</time>
      </trkpt>
      <trkpt lat="40.3795680" lon="-3.8217680">
        <ele>714.2</ele>
        <time>2021-05-08T06:11:22Z</time>
      </trkpt>
      <trkpt lat="40.3796400" lon="-3.8218550">
        <ele>714.2</ele>
        <time>2021-05-08T06:11:24Z</time>
      </trkpt>
      <trkpt lat="40.3796780" lon="-3.8218960">
        <ele>714.2</ele>
        <time>2021-05-08T06:11:25Z</time>
      </trkpt>
      <trkpt lat="40.3797540" lon="-3.8219750">
        <ele>714.2</ele>
        <time>2021-05-08T06:11:27Z</time>
      </trkpt>
      <trkpt lat="40.3797910" lon="-3.8220190">
        <ele>714.3</ele>
        <time>2021-05-08T06:11:28Z</time>
      </trkpt>
      <trkpt lat="40.3798320" lon="-3.8220660">
        <ele>714.3</ele>
        <time>2021-05-08T06:11:29Z</time>
      </trkpt>
      <trkpt lat="40.3798720" lon="-3.8221060">
        <ele>714.3</ele>
        <time>2021-05-08T06:11:30Z</time>
      </trkpt>
      <trkpt lat="40.3799440" lon="-3.8221790">
        <ele>714.3</ele>
        <time>2021-05-08T06:11:32Z</time>
      </trkpt>
      <trkpt lat="40.3800130" lon="-3.8222580">
        <ele>714.3</ele>
        <time>2021-05-08T06:11:34Z</time>
      </trkpt>
      <trkpt lat="40.3800910" lon="-3.8223420">
        <ele>714.4</ele>
        <time>2021-05-08T06:11:36Z</time>
      </trkpt>
      <trkpt lat="40.3801300" lon="-3.8223790">
        <ele>714.4</ele>
        <time>2021-05-08T06:11:37Z</time>
      </trkpt>
      <trkpt lat="40.3802100" lon="-3.8224570">
        <ele>714.4</ele>
        <time>2021-05-08T06:11:39Z</time>
      </trkpt>
      <trkpt lat="40.3802460" lon="-3.8224990">
        <ele>714.5</ele>
        <time>2021-05-08T06:11:40Z</time>
      </trkpt>
      <trkpt lat="40.3803180" lon="-3.8225740">
        <ele>714.5</ele>
        <time>2021-05-08T06:11:42Z</time>
      </trkpt>
      <trkpt lat="40.3803900" lon="-3.8226520">
        <ele>714.6</ele>
        <time>2021-05-08T06:11:44Z</time>
      </trkpt>
      <trkpt lat="40.3804540" lon="-3.8227300">
        <ele>714.6</ele>
        <time>2021-05-08T06:11:46Z</time>
      </trkpt>
      <trkpt lat="40.3804870" lon="-3.8227670">
        <ele>714.7</ele>
        <time>2021-05-08T06:11:47Z</time>
      </trkpt>
      <trkpt lat="40.3805490" lon="-3.8228310">
        <ele>714.8</ele>
        <time>2021-05-08T06:11:49Z</time>
      </trkpt>
      <trkpt lat="40.3806230" lon="-3.8228940">
        <ele>714.9</ele>
        <time>2021-05-08T06:11:51Z</time>
      </trkpt>
      <trkpt lat="40.3806570" lon="-3.8229240">
        <ele>714.9</ele>
        <time>2021-05-08T06:11:52Z</time>
      </trkpt>
      <trkpt lat="40.3806900" lon="-3.8229500">
        <ele>715.0</ele>
        <time>2021-05-08T06:11:53Z</time>
      </trkpt>
      <trkpt lat="40.3807390" lon="-3.8229380">
        <ele>715.0</ele>
        <time>2021-05-08T06:11:54Z</time>
      </trkpt>
      <trkpt lat="40.3807860" lon="-3.8229870">
        <ele>715.1</ele>
        <time>2021-05-08T06:11:56Z</time>
      </trkpt>
      <trkpt lat="40.3808410" lon="-3.8230430">
        <ele>715.2</ele>
        <time>2021-05-08T06:11:57Z</time>
      </trkpt>
      <trkpt lat="40.3808910" lon="-3.8230860">
        <ele>715.3</ele>
        <time>2021-05-08T06:11:58Z</time>
      </trkpt>
      <trkpt lat="40.3809330" lon="-3.8231270">
        <ele>715.4</ele>
        <time>2021-05-08T06:12:00Z</time>
      </trkpt>
      <trkpt lat="40.3809990" lon="-3.8231910">
        <ele>715.5</ele>
        <time>2021-05-08T06:12:01Z</time>
      </trkpt>
      <trkpt lat="40.3810430" lon="-3.8232340">
        <ele>715.6</ele>
        <time>2021-05-08T06:12:03Z</time>
      </trkpt>
      <trkpt lat="40.3810800" lon="-3.8232650">
        <ele>715.6</ele>
        <time>2021-05-08T06:12:04Z</time>
      </trkpt>
      <trkpt lat="40.3811130" lon="-3.8232940">
        <ele>715.6</ele>
        <time>2021-05-08T06:12:05Z</time>
      </trkpt>
      <trkpt lat="40.3811560" lon="-3.8233290">
        <ele>715.7</ele>
        <time>2021-05-08T06:12:06Z</time>
      </trkpt>
      <trkpt lat="40.3811970" lon="-3.8233590">
        <ele>715.7</ele>
        <time>2021-05-08T06:12:07Z</time>
      </trkpt>
      <trkpt lat="40.3812530" lon="-3.8234030">
        <ele>715.8</ele>
        <time>2021-05-08T06:12:09Z</time>
      </trkpt>
      <trkpt lat="40.3813290" lon="-3.8234590">
        <ele>715.8</ele>
        <time>2021-05-08T06:12:11Z</time>
      </trkpt>
      <trkpt lat="40.3813720" lon="-3.8234870">
        <ele>715.8</ele>
        <time>2021-05-08T06:12:12Z</time>
      </trkpt>
      <trkpt lat="40.3814300" lon="-3.8235210">
        <ele>715.9</ele>
        <time>2021-05-08T06:12:13Z</time>
      </trkpt>
      <trkpt lat="40.3814840" lon="-3.8235560">
        <ele>715.9</ele>
        <time>2021-05-08T06:12:15Z</time>
      </trkpt>
      <trkpt lat="40.3815270" lon="-3.8235810">
        <ele>716.0</ele>
        <time>2021-05-08T06:12:16Z</time>
      </trkpt>
      <trkpt lat="40.3815730" lon="-3.8236080">
        <ele>716.0</ele>
        <time>2021-05-08T06:12:17Z</time>
      </trkpt>
      <trkpt lat="40.3816110" lon="-3.8236320">
        <ele>716.1</ele>
        <time>2021-05-08T06:12:18Z</time>
      </trkpt>
      <trkpt lat="40.3816750" lon="-3.8236660">
        <ele>716.2</ele>
        <time>2021-05-08T06:12:20Z</time>
      </trkpt>
      <trkpt lat="40.3817300" lon="-3.8236900">
        <ele>716.3</ele>
        <time>2021-05-08T06:12:21Z</time>
      </trkpt>
      <trkpt lat="40.3818320" lon="-3.8237350">
        <ele>716.5</ele>
        <time>2021-05-08T06:12:23Z</time>
      </trkpt>
      <trkpt lat="40.3818700" lon="-3.8237420">
        <ele>716.6</ele>
        <time>2021-05-08T06:12:24Z</time>
      </trkpt>
      <trkpt lat="40.3819300" lon="-3.8237560">
        <ele>716.7</ele>
        <time>2021-05-08T06:12:26Z</time>
      </trkpt>
      <trkpt lat="40.3819700" lon="-3.8237750">
        <ele>716.8</ele>
        <time>2021-05-08T06:12:27Z</time>
      </trkpt>
      <trkpt lat="40.3820080" lon="-3.8237910">
        <ele>716.9</ele>
        <time>2021-05-08T06:12:28Z</time>
      </trkpt>
      <trkpt lat="40.3820570" lon="-3.8238110">
        <ele>717.0</ele>
        <time>2021-05-08T06:12:29Z</time>
      </trkpt>
      <trkpt lat="40.3821090" lon="-3.8238310">
        <ele>717.1</ele>
        <time>2021-05-08T06:12:31Z</time>
      </trkpt>
      <trkpt lat="40.3821550" lon="-3.8238480">
        <ele>717.2</ele>
        <time>2021-05-08T06:12:32Z</time>
      </trkpt>
      <trkpt lat="40.3822170" lon="-3.8238680">
        <ele>717.3</ele>
        <time>2021-05-08T06:12:34Z</time>
      </trkpt>
      <trkpt lat="40.3822570" lon="-3.8238790">
        <ele>717.4</ele>
        <time>2021-05-08T06:12:35Z</time>
      </trkpt>
      <trkpt lat="40.3823060" lon="-3.8238980">
        <ele>717.5</ele>
        <time>2021-05-08T06:12:36Z</time>
      </trkpt>
      <trkpt lat="40.3823540" lon="-3.8239160">
        <ele>717.6</ele>
        <time>2021-05-08T06:12:37Z</time>
      </trkpt>
      <trkpt lat="40.3824040" lon="-3.8239400">
        <ele>717.7</ele>
        <time>2021-05-08T06:12:39Z</time>
      </trkpt>
      <trkpt lat="40.3824390" lon="-3.8239550">
        <ele>717.8</ele>
        <time>2021-05-08T06:12:40Z</time>
      </trkpt>
      <trkpt lat="40.3824680" lon="-3.8239640">
        <ele>717.9</ele>
        <time>2021-05-08T06:12:41Z</time>
      </trkpt>
      <trkpt lat="40.3825490" lon="-3.8240000">
        <ele>718.1</ele>
        <time>2021-05-08T06:12:43Z</time>
      </trkpt>
      <trkpt lat="40.3825870" lon="-3.8240280">
        <ele>718.2</ele>
        <time>2021-05-08T06:12:44Z</time>
      </trkpt>
      <trkpt lat="40.3826180" lon="-3.8240600">
        <ele>718.2</ele>
        <time>2021-05-08T06:12:46Z</time>
      </trkpt>
      <trkpt lat="40.3826550" lon="-3.8240980">
        <ele>718.3</ele>
        <time>2021-05-08T06:12:47Z</time>
      </trkpt>
      <trkpt lat="40.3827070" lon="-3.8241430">
        <ele>718.4</ele>
        <time>2021-05-08T06:12:49Z</time>
      </trkpt>
      <trkpt lat="40.3827530" lon="-3.8241920">
        <ele>718.5</ele>
        <time>2021-05-08T06:12:51Z</time>
      </trkpt>
      <trkpt lat="40.3827850" lon="-3.8242320">
        <ele>718.6</ele>
        <time>2021-05-08T06:12:52Z</time>
      </trkpt>
      <trkpt lat="40.3828390" lon="-3.8242930">
        <ele>718.6</ele>
        <time>2021-05-08T06:12:54Z</time>
      </trkpt>
      <trkpt lat="40.3828690" lon="-3.8243320">
        <ele>718.7</ele>
        <time>2021-05-08T06:12:55Z</time>
      </trkpt>
      <trkpt lat="40.3829140" lon="-3.8243930">
        <ele>718.8</ele>
        <time>2021-05-08T06:12:56Z</time>
      </trkpt>
      <trkpt lat="40.3829450" lon="-3.8244410">
        <ele>718.8</ele>
        <time>2021-05-08T06:12:58Z</time>
      </trkpt>
      <trkpt lat="40.3829820" lon="-3.8244920">
        <ele>718.8</ele>
        <time>2021-05-08T06:12:59Z</time>
      </trkpt>
      <trkpt lat="40.3830280" lon="-3.8245430">
        <ele>718.9</ele>
        <time>2021-05-08T06:13:00Z</time>
      </trkpt>
      <trkpt lat="40.3830740" lon="-3.8245830">
        <ele>718.9</ele>
        <time>2021-05-08T06:13:01Z</time>
      </trkpt>
      <trkpt lat="40.3831510" lon="-3.8246440">
        <ele>719.0</ele>
        <time>2021-05-08T06:13:03Z</time>
      </trkpt>
      <trkpt lat="40.3831970" lon="-3.8246700">
        <ele>719.1</ele>
        <time>2021-05-08T06:13:04Z</time>
      </trkpt>
      <trkpt lat="40.3832450" lon="-3.8246960">
        <ele>719.2</ele>
        <time>2021-05-08T06:13:05Z</time>
      </trkpt>
      <trkpt lat="40.3832870" lon="-3.8247180">
        <ele>719.2</ele>
        <time>2021-05-08T06:13:07Z</time>
      </trkpt>
      <trkpt lat="40.3833250" lon="-3.8247400">
        <ele>719.3</ele>
        <time>2021-05-08T06:13:08Z</time>
      </trkpt>
      <trkpt lat="40.3833840" lon="-3.8247690">
        <ele>719.4</ele>
        <time>2021-05-08T06:13:09Z</time>
      </trkpt>
      <trkpt lat="40.3834100" lon="-3.8247670">
        <ele>719.4</ele>
        <time>2021-05-08T06:13:10Z</time>
      </trkpt>
      <trkpt lat="40.3834830" lon="-3.8247920">
        <ele>719.6</ele>
        <time>2021-05-08T06:13:12Z</time>
      </trkpt>
      <trkpt lat="40.3835520" lon="-3.8248050">
        <ele>719.7</ele>
        <time>2021-05-08T06:13:14Z</time>
      </trkpt>
      <trkpt lat="40.3836030" lon="-3.8248170">
        <ele>719.8</ele>
        <time>2021-05-08T06:13:15Z</time>
      </trkpt>
      <trkpt lat="40.3836370" lon="-3.8248330">
        <ele>719.8</ele>
        <time>2021-05-08T06:13:16Z</time>
      </trkpt>
      <trkpt lat="40.3836780" lon="-3.8248560">
        <ele>719.9</ele>
        <time>2021-05-08T06:13:18Z</time>
      </trkpt>
      <trkpt lat="40.3837080" lon="-3.8248780">
        <ele>719.9</ele>
        <time>2021-05-08T06:13:19Z</time>
      </trkpt>
      <trkpt lat="40.3837330" lon="-3.8249090">
        <ele>719.9</ele>
        <time>2021-05-08T06:13:20Z</time>
      </trkpt>
      <trkpt lat="40.3837600" lon="-3.8249370">
        <ele>720.0</ele>
        <time>2021-05-08T06:13:21Z</time>
      </trkpt>
      <trkpt lat="40.3838050" lon="-3.8249740">
        <ele>720.0</ele>
        <time>2021-05-08T06:13:23Z</time>
      </trkpt>
      <trkpt lat="40.3838410" lon="-3.8250010">
        <ele>720.1</ele>
        <time>2021-05-08T06:13:24Z</time>
      </trkpt>
      <trkpt lat="40.3838780" lon="-3.8250310">
        <ele>720.1</ele>
        <time>2021-05-08T06:13:25Z</time>
      </trkpt>
      <trkpt lat="40.3839300" lon="-3.8250680">
        <ele>720.2</ele>
        <time>2021-05-08T06:13:26Z</time>
      </trkpt>
      <trkpt lat="40.3839630" lon="-3.8250950">
        <ele>720.3</ele>
        <time>2021-05-08T06:13:27Z</time>
      </trkpt>
      <trkpt lat="40.3840190" lon="-3.8251420">
        <ele>720.3</ele>
        <time>2021-05-08T06:13:29Z</time>
      </trkpt>
      <trkpt lat="40.3840470" lon="-3.8251660">
        <ele>720.4</ele>
        <time>2021-05-08T06:13:30Z</time>
      </trkpt>
      <trkpt lat="40.3840730" lon="-3.8251930">
        <ele>720.4</ele>
        <time>2021-05-08T06:13:31Z</time>
      </trkpt>
      <trkpt lat="40.3841030" lon="-3.8252170">
        <ele>720.5</ele>
        <time>2021-05-08T06:13:32Z</time>
      </trkpt>
      <trkpt lat="40.3841410" lon="-3.8252490">
        <ele>720.6</ele>
        <time>2021-05-08T06:13:33Z</time>
      </trkpt>
      <trkpt lat="40.3841730" lon="-3.8252780">
        <ele>720.6</ele>
        <time>2021-05-08T06:13:34Z</time>
      </trkpt>
      <trkpt lat="40.3842190" lon="-3.8253100">
        <ele>720.7</ele>
        <time>2021-05-08T06:13:36Z</time>
      </trkpt>
      <trkpt lat="40.3842780" lon="-3.8253550">
        <ele>720.8</ele>
        <time>2021-05-08T06:13:37Z</time>
      </trkpt>
      <trkpt lat="40.3843250" lon="-3.8253880">
        <ele>720.9</ele>
        <time>2021-05-08T06:13:39Z</time>
      </trkpt>
      <trkpt lat="40.3843630" lon="-3.8254140">
        <ele>720.9</ele>
        <time>2021-05-08T06:13:40Z</time>
      </trkpt>
      <trkpt lat="40.3843980" lon="-3.8254350">
        <ele>720.9</ele>
        <time>2021-05-08T06:13:41Z</time>
      </trkpt>
      <trkpt lat="40.3844310" lon="-3.8254550">
        <ele>721.0</ele>
        <time>2021-05-08T06:13:42Z</time>
      </trkpt>
      <trkpt lat="40.3844690" lon="-3.8254770">
        <ele>721.0</ele>
        <time>2021-05-08T06:13:43Z</time>
      </trkpt>
      <trkpt lat="40.3845090" lon="-3.8254990">
        <ele>721.0</ele>
        <time>2021-05-08T06:13:44Z</time>
      </trkpt>
      <trkpt lat="40.3845900" lon="-3.8255360">
        <ele>721.1</ele>
        <time>2021-05-08T06:13:46Z</time>
      </trkpt>
      <trkpt lat="40.3846270" lon="-3.8255520">
        <ele>721.2</ele>
        <time>2021-05-08T06:13:47Z</time>
      </trkpt>
      <trkpt lat="40.3846820" lon="-3.8255670">
        <ele>721.2</ele>
        <time>2021-05-08T06:13:49Z</time>
      </trkpt>
      <trkpt lat="40.3847540" lon="-3.8256000">
        <ele>721.3</ele>
        <time>2021-05-08T06:13:51Z</time>
      </trkpt>
      <trkpt lat="40.3847970" lon="-3.8256210">
        <ele>721.4</ele>
        <time>2021-05-08T06:13:52Z</time>
      </trkpt>
      <trkpt lat="40.3848410" lon="-3.8256560">
        <ele>721.4</ele>
        <time>2021-05-08T06:13:53Z</time>
      </trkpt>
      <trkpt lat="40.3848710" lon="-3.8256900">
        <ele>721.5</ele>
        <time>2021-05-08T06:13:55Z</time>
      </trkpt>
      <trkpt lat="40.3849100" lon="-3.8257220">
        <ele>721.5</ele>
        <time>2021-05-08T06:13:56Z</time>
      </trkpt>
      <trkpt lat="40.3849460" lon="-3.8257510">
        <ele>721.6</ele>
        <time>2021-05-08T06:13:57Z</time>
      </trkpt>
      <trkpt lat="40.3850130" lon="-3.8258010">
        <ele>721.6</ele>
        <time>2021-05-08T06:13:59Z</time>
      </trkpt>
      <trkpt lat="40.3850580" lon="-3.8258420">
        <ele>721.7</ele>
        <time>2021-05-08T06:14:00Z</time>
      </trkpt>
      <trkpt lat="40.3851050" lon="-3.8258920">
        <ele>721.7</ele>
        <time>2021-05-08T06:14:02Z</time>
      </trkpt>
      <trkpt lat="40.3851430" lon="-3.8259310">
        <ele>721.8</ele>
        <time>2021-05-08T06:14:03Z</time>
      </trkpt>
      <trkpt lat="40.3851740" lon="-3.8259640">
        <ele>721.8</ele>
        <time>2021-05-08T06:14:04Z</time>
      </trkpt>
      <trkpt lat="40.3852160" lon="-3.8260080">
        <ele>721.8</ele>
        <time>2021-05-08T06:14:05Z</time>
      </trkpt>
      <trkpt lat="40.3852610" lon="-3.8260570">
        <ele>721.9</ele>
        <time>2021-05-08T06:14:06Z</time>
      </trkpt>
      <trkpt lat="40.3852990" lon="-3.8260930">
        <ele>721.9</ele>
        <time>2021-05-08T06:14:08Z</time>
      </trkpt>
      <trkpt lat="40.3853310" lon="-3.8261250">
        <ele>721.9</ele>
        <time>2021-05-08T06:14:09Z</time>
      </trkpt>
      <trkpt lat="40.3853670" lon="-3.8261640">
        <ele>722.0</ele>
        <time>2021-05-08T06:14:10Z</time>
      </trkpt>
      <trkpt lat="40.3854030" lon="-3.8262170">
        <ele>722.0</ele>
        <time>2021-05-08T06:14:11Z</time>
      </trkpt>
      <trkpt lat="40.3854330" lon="-3.8262740">
        <ele>722.0</ele>
        <time>2021-05-08T06:14:13Z</time>
      </trkpt>
      <trkpt lat="40.3854590" lon="-3.8263090">
        <ele>722.0</ele>
        <time>2021-05-08T06:14:14Z</time>
      </trkpt>
      <trkpt lat="40.3855180" lon="-3.8263640">
        <ele>722.1</ele>
        <time>2021-05-08T06:14:16Z</time>
      </trkpt>
      <trkpt lat="40.3855570" lon="-3.8263940">
        <ele>722.1</ele>
        <time>2021-05-08T06:14:17Z</time>
      </trkpt>
      <trkpt lat="40.3856120" lon="-3.8264460">
        <ele>722.1</ele>
        <time>2021-05-08T06:14:18Z</time>
      </trkpt>
      <trkpt lat="40.3856590" lon="-3.8264900">
        <ele>722.2</ele>
        <time>2021-05-08T06:14:20Z</time>
      </trkpt>
      <trkpt lat="40.3856940" lon="-3.8265240">
        <ele>722.2</ele>
        <time>2021-05-08T06:14:21Z</time>
      </trkpt>
      <trkpt lat="40.3857700" lon="-3.8266110">
        <ele>722.3</ele>
        <time>2021-05-08T06:14:23Z</time>
      </trkpt>
      <trkpt lat="40.3858150" lon="-3.8266640">
        <ele>722.3</ele>
        <time>2021-05-08T06:14:24Z</time>
      </trkpt>
      <trkpt lat="40.3858640" lon="-3.8267120">
        <ele>722.3</ele>
        <time>2021-05-08T06:14:26Z</time>
      </trkpt>
      <trkpt lat="40.3858990" lon="-3.8267480">
        <ele>722.4</ele>
        <time>2021-05-08T06:14:27Z</time>
      </trkpt>
      <trkpt lat="40.3859360" lon="-3.8267900">
        <ele>722.4</ele>
        <time>2021-05-08T06:14:28Z</time>
      </trkpt>
      <trkpt lat="40.3859970" lon="-3.8268440">
        <ele>722.4</ele>
        <time>2021-05-08T06:14:30Z</time>
      </trkpt>
      <trkpt lat="40.3860440" lon="-3.8268920">
        <ele>722.4</ele>
        <time>2021-05-08T06:14:31Z</time>
      </trkpt>
      <trkpt lat="40.3860850" lon="-3.8269500">
        <ele>722.5</ele>
        <time>2021-05-08T06:14:33Z</time>
      </trkpt>
      <trkpt lat="40.3861310" lon="-3.8269930">
        <ele>722.5</ele>
        <time>2021-05-08T06:14:34Z</time>
      </trkpt>
      <trkpt lat="40.3861810" lon="-3.8270500">
        <ele>722.5</ele>
        <time>2021-05-08T06:14:36Z</time>
      </trkpt>
      <trkpt lat="40.3862490" lon="-3.8271330">
        <ele>722.5</ele>
        <time>2021-05-08T06:14:38Z</time>
      </trkpt>
      <trkpt lat="40.3863020" lon="-3.8271960">
        <ele>722.5</ele>
        <time>2021-05-08T06:14:40Z</time>
      </trkpt>
      <trkpt lat="40.3863360" lon="-3.8272360">
        <ele>722.5</ele>
        <time>2021-05-08T06:14:42Z</time>
      </trkpt>
      <trkpt lat="40.3864090" lon="-3.8273090">
        <ele>722.6</ele>
        <time>2021-05-08T06:14:43Z</time>
      </trkpt>
      <trkpt lat="40.3864560" lon="-3.8273630">
        <ele>722.6</ele>
        <time>2021-05-08T06:14:44Z</time>
      </trkpt>
      <trkpt lat="40.3864930" lon="-3.8273990">
        <ele>722.6</ele>
        <time>2021-05-08T06:14:45Z</time>
      </trkpt>
      <trkpt lat="40.3865440" lon="-3.8274500">
        <ele>722.7</ele>
        <time>2021-05-08T06:14:47Z</time>
      </trkpt>
      <trkpt lat="40.3865930" lon="-3.8274940">
        <ele>722.7</ele>
        <time>2021-05-08T06:14:48Z</time>
      </trkpt>
      <trkpt lat="40.3866420" lon="-3.8275440">
        <ele>722.8</ele>
        <time>2021-05-08T06:14:50Z</time>
      </trkpt>
      <trkpt lat="40.3866790" lon="-3.8275790">
        <ele>722.8</ele>
        <time>2021-05-08T06:14:51Z</time>
      </trkpt>
      <trkpt lat="40.3867100" lon="-3.8276070">
        <ele>722.8</ele>
        <time>2021-05-08T06:14:52Z</time>
      </trkpt>
      <trkpt lat="40.3867550" lon="-3.8276400">
        <ele>722.9</ele>
        <time>2021-05-08T06:14:53Z</time>
      </trkpt>
      <trkpt lat="40.3868070" lon="-3.8276750">
        <ele>722.9</ele>
        <time>2021-05-08T06:14:55Z</time>
      </trkpt>
      <trkpt lat="40.3868490" lon="-3.8277110">
        <ele>723.0</ele>
        <time>2021-05-08T06:14:56Z</time>
      </trkpt>
      <trkpt lat="40.3869080" lon="-3.8277630">
        <ele>723.0</ele>
        <time>2021-05-08T06:14:58Z</time>
      </trkpt>
      <trkpt lat="40.3869400" lon="-3.8277870">
        <ele>723.1</ele>
        <time>2021-05-08T06:14:59Z</time>
      </trkpt>
      <trkpt lat="40.3869740" lon="-3.8278120">
        <ele>723.1</ele>
        <time>2021-05-08T06:15:00Z</time>
      </trkpt>
      <trkpt lat="40.3870010" lon="-3.8278370">
        <ele>723.2</ele>
        <time>2021-05-08T06:15:01Z</time>
      </trkpt>
      <trkpt lat="40.3870420" lon="-3.8278740">
        <ele>723.2</ele>
        <time>2021-05-08T06:15:02Z</time>
      </trkpt>
      <trkpt lat="40.3871040" lon="-3.8279250">
        <ele>723.3</ele>
        <time>2021-05-08T06:15:03Z</time>
      </trkpt>
      <trkpt lat="40.3871420" lon="-3.8279570">
        <ele>723.3</ele>
        <time>2021-05-08T06:15:05Z</time>
      </trkpt>
      <trkpt lat="40.3871880" lon="-3.8280000">
        <ele>723.4</ele>
        <time>2021-05-08T06:15:06Z</time>
      </trkpt>
      <trkpt lat="40.3872200" lon="-3.8280580">
        <ele>723.5</ele>
        <time>2021-05-08T06:15:08Z</time>
      </trkpt>
      <trkpt lat="40.3872600" lon="-3.8280930">
        <ele>723.5</ele>
        <time>2021-05-08T06:15:09Z</time>
      </trkpt>
      <trkpt lat="40.3873260" lon="-3.8281170">
        <ele>723.6</ele>
        <time>2021-05-08T06:15:10Z</time>
      </trkpt>
      <trkpt lat="40.3873670" lon="-3.8281360">
        <ele>723.6</ele>
        <time>2021-05-08T06:15:11Z</time>
      </trkpt>
      <trkpt lat="40.3874100" lon="-3.8281700">
        <ele>723.7</ele>
        <time>2021-05-08T06:15:13Z</time>
      </trkpt>
      <trkpt lat="40.3874560" lon="-3.8282140">
        <ele>723.7</ele>
        <time>2021-05-08T06:15:14Z</time>
      </trkpt>
      <trkpt lat="40.3875130" lon="-3.8282650">
        <ele>723.8</ele>
        <time>2021-05-08T06:15:16Z</time>
      </trkpt>
      <trkpt lat="40.3875480" lon="-3.8282960">
        <ele>723.9</ele>
        <time>2021-05-08T06:15:17Z</time>
      </trkpt>
      <trkpt lat="40.3875860" lon="-3.8283290">
        <ele>724.0</ele>
        <time>2021-05-08T06:15:18Z</time>
      </trkpt>
      <trkpt lat="40.3876220" lon="-3.8283660">
        <ele>724.1</ele>
        <time>2021-05-08T06:15:19Z</time>
      </trkpt>
      <trkpt lat="40.3876680" lon="-3.8284160">
        <ele>724.2</ele>
        <time>2021-05-08T06:15:21Z</time>
      </trkpt>
      <trkpt lat="40.3877140" lon="-3.8284450">
        <ele>724.3</ele>
        <time>2021-05-08T06:15:22Z</time>
      </trkpt>
      <trkpt lat="40.3877470" lon="-3.8284690">
        <ele>724.3</ele>
        <time>2021-05-08T06:15:23Z</time>
      </trkpt>
      <trkpt lat="40.3877950" lon="-3.8285090">
        <ele>724.4</ele>
        <time>2021-05-08T06:15:25Z</time>
      </trkpt>
      <trkpt lat="40.3878310" lon="-3.8285440">
        <ele>724.5</ele>
        <time>2021-05-08T06:15:26Z</time>
      </trkpt>
      <trkpt lat="40.3878620" lon="-3.8285750">
        <ele>724.6</ele>
        <time>2021-05-08T06:15:27Z</time>
      </trkpt>
      <trkpt lat="40.3878950" lon="-3.8286050">
        <ele>724.6</ele>
        <time>2021-05-08T06:15:28Z</time>
      </trkpt>
      <trkpt lat="40.3879360" lon="-3.8286440">
        <ele>724.7</ele>
        <time>2021-05-08T06:15:29Z</time>
      </trkpt>
      <trkpt lat="40.3879700" lon="-3.8286790">
        <ele>724.8</ele>
        <time>2021-05-08T06:15:30Z</time>
      </trkpt>
      <trkpt lat="40.3880130" lon="-3.8287180">
        <ele>725.0</ele>
        <time>2021-05-08T06:15:32Z</time>
      </trkpt>
      <trkpt lat="40.3880870" lon="-3.8287820">
        <ele>725.2</ele>
        <time>2021-05-08T06:15:34Z</time>
      </trkpt>
      <trkpt lat="40.3881170" lon="-3.8288150">
        <ele>725.3</ele>
        <time>2021-05-08T06:15:35Z</time>
      </trkpt>
      <trkpt lat="40.3881550" lon="-3.8288550">
        <ele>725.4</ele>
        <time>2021-05-08T06:15:37Z</time>
      </trkpt>
      <trkpt lat="40.3881870" lon="-3.8288790">
        <ele>725.5</ele>
        <time>2021-05-08T06:15:38Z</time>
      </trkpt>
      <trkpt lat="40.3882360" lon="-3.8289260">
        <ele>725.7</ele>
        <time>2021-05-08T06:15:40Z</time>
      </trkpt>
      <trkpt lat="40.3882730" lon="-3.8289540">
        <ele>725.8</ele>
        <time>2021-05-08T06:15:41Z</time>
      </trkpt>
      <trkpt lat="40.3883090" lon="-3.8289870">
        <ele>725.9</ele>
        <time>2021-05-08T06:15:42Z</time>
      </trkpt>
      <trkpt lat="40.3883630" lon="-3.8290360">
        <ele>726.1</ele>
        <time>2021-05-08T06:15:44Z</time>
      </trkpt>
      <trkpt lat="40.3884050" lon="-3.8290700">
        <ele>726.2</ele>
        <time>2021-05-08T06:15:45Z</time>
      </trkpt>
      <trkpt lat="40.3884520" lon="-3.8291090">
        <ele>726.4</ele>
        <time>2021-05-08T06:15:47Z</time>
      </trkpt>
      <trkpt lat="40.3884870" lon="-3.8291360">
        <ele>726.5</ele>
        <time>2021-05-08T06:15:48Z</time>
      </trkpt>
      <trkpt lat="40.3885420" lon="-3.8291720">
        <ele>726.7</ele>
        <time>2021-05-08T06:15:50Z</time>
      </trkpt>
      <trkpt lat="40.3886040" lon="-3.8292190">
        <ele>726.9</ele>
        <time>2021-05-08T06:15:52Z</time>
      </trkpt>
      <trkpt lat="40.3886370" lon="-3.8292440">
        <ele>726.9</ele>
        <time>2021-05-08T06:15:53Z</time>
      </trkpt>
      <trkpt lat="40.3886850" lon="-3.8292760">
        <ele>727.1</ele>
        <time>2021-05-08T06:15:54Z</time>
      </trkpt>
      <trkpt lat="40.3887130" lon="-3.8292970">
        <ele>727.1</ele>
        <time>2021-05-08T06:15:55Z</time>
      </trkpt>
      <trkpt lat="40.3887590" lon="-3.8293380">
        <ele>727.2</ele>
        <time>2021-05-08T06:15:57Z</time>
      </trkpt>
      <trkpt lat="40.3887890" lon="-3.8293610">
        <ele>727.3</ele>
        <time>2021-05-08T06:15:58Z</time>
      </trkpt>
      <trkpt lat="40.3888220" lon="-3.8293850">
        <ele>727.4</ele>
        <time>2021-05-08T06:15:59Z</time>
      </trkpt>
      <trkpt lat="40.3888570" lon="-3.8294130">
        <ele>727.4</ele>
        <time>2021-05-08T06:16:00Z</time>
      </trkpt>
      <trkpt lat="40.3889150" lon="-3.8294680">
        <ele>727.5</ele>
        <time>2021-05-08T06:16:01Z</time>
      </trkpt>
      <trkpt lat="40.3889570" lon="-3.8294970">
        <ele>727.6</ele>
        <time>2021-05-08T06:16:03Z</time>
      </trkpt>
      <trkpt lat="40.3889970" lon="-3.8295280">
        <ele>727.7</ele>
        <time>2021-05-08T06:16:04Z</time>
      </trkpt>
      <trkpt lat="40.3890590" lon="-3.8295770">
        <ele>727.8</ele>
        <time>2021-05-08T06:16:06Z</time>
      </trkpt>
      <trkpt lat="40.3890930" lon="-3.8296030">
        <ele>727.8</ele>
        <time>2021-05-08T06:16:07Z</time>
      </trkpt>
      <trkpt lat="40.3891310" lon="-3.8296380">
        <ele>727.9</ele>
        <time>2021-05-08T06:16:08Z</time>
      </trkpt>
      <trkpt lat="40.3891630" lon="-3.8296690">
        <ele>727.9</ele>
        <time>2021-05-08T06:16:09Z</time>
      </trkpt>
      <trkpt lat="40.3892010" lon="-3.8297080">
        <ele>728.0</ele>
        <time>2021-05-08T06:16:11Z</time>
      </trkpt>
      <trkpt lat="40.3892380" lon="-3.8297440">
        <ele>728.0</ele>
        <time>2021-05-08T06:16:12Z</time>
      </trkpt>
      <trkpt lat="40.3893040" lon="-3.8297910">
        <ele>728.1</ele>
        <time>2021-05-08T06:16:14Z</time>
      </trkpt>
      <trkpt lat="40.3893870" lon="-3.8298570">
        <ele>728.1</ele>
        <time>2021-05-08T06:16:16Z</time>
      </trkpt>
      <trkpt lat="40.3894180" lon="-3.8298780">
        <ele>728.2</ele>
        <time>2021-05-08T06:16:17Z</time>
      </trkpt>
      <trkpt lat="40.3894610" lon="-3.8299090">
        <ele>728.2</ele>
        <time>2021-05-08T06:16:18Z</time>
      </trkpt>
      <trkpt lat="40.3894960" lon="-3.8299340">
        <ele>728.2</ele>
        <time>2021-05-08T06:16:19Z</time>
      </trkpt>
      <trkpt lat="40.3895340" lon="-3.8299630">
        <ele>728.3</ele>
        <time>2021-05-08T06:16:21Z</time>
      </trkpt>
      <trkpt lat="40.3895850" lon="-3.8300020">
        <ele>728.4</ele>
        <time>2021-05-08T06:16:22Z</time>
      </trkpt>
      <trkpt lat="40.3896220" lon="-3.8300310">
        <ele>728.4</ele>
        <time>2021-05-08T06:16:23Z</time>
      </trkpt>
      <trkpt lat="40.3896580" lon="-3.8300530">
        <ele>728.5</ele>
        <time>2021-05-08T06:16:24Z</time>
      </trkpt>
      <trkpt lat="40.3897000" lon="-3.8300680">
        <ele>728.6</ele>
        <time>2021-05-08T06:16:25Z</time>
      </trkpt>
      <trkpt lat="40.3897400" lon="-3.8300820">
        <ele>728.7</ele>
        <time>2021-05-08T06:16:26Z</time>
      </trkpt>
      <trkpt lat="40.3897870" lon="-3.8301080">
        <ele>728.8</ele>
        <time>2021-05-08T06:16:28Z</time>
      </trkpt>
      <trkpt lat="40.3898410" lon="-3.8301360">
        <ele>728.9</ele>
        <time>2021-05-08T06:16:29Z</time>
      </trkpt>
      <trkpt lat="40.3898780" lon="-3.8301590">
        <ele>729.0</ele>
        <time>2021-05-08T06:16:30Z</time>
      </trkpt>
      <trkpt lat="40.3899180" lon="-3.8301850">
        <ele>729.1</ele>
        <time>2021-05-08T06:16:32Z</time>
      </trkpt>
      <trkpt lat="40.3899710" lon="-3.8302310">
        <ele>729.3</ele>
        <time>2021-05-08T06:16:33Z</time>
      </trkpt>
      <trkpt lat="40.3899970" lon="-3.8302580">
        <ele>729.4</ele>
        <time>2021-05-08T06:16:34Z</time>
      </trkpt>
      <trkpt lat="40.3900230" lon="-3.8302780">
        <ele>729.5</ele>
        <time>2021-05-08T06:16:35Z</time>
      </trkpt>
      <trkpt lat="40.3900510" lon="-3.8303000">
        <ele>729.6</ele>
        <time>2021-05-08T06:16:36Z</time>
      </trkpt>
      <trkpt lat="40.3900860" lon="-3.8303350">
        <ele>729.7</ele>
        <time>2021-05-08T06:16:37Z</time>
      </trkpt>
      <trkpt lat="40.3901290" lon="-3.8303710">
        <ele>729.9</ele>
        <time>2021-05-08T06:16:39Z</time>
      </trkpt>
      <trkpt lat="40.3901780" lon="-3.8304000">
        <ele>730.0</ele>
        <time>2021-05-08T06:16:40Z</time>
      </trkpt>
      <trkpt lat="40.3902130" lon="-3.8304000">
        <ele>730.1</ele>
        <time>2021-05-08T06:16:41Z</time>
      </trkpt>
      <trkpt lat="40.3902280" lon="-3.8303930">
        <ele>730.1</ele>
        <time>2021-05-08T06:16:43Z</time>
      </trkpt>
      <trkpt lat="40.3902390" lon="-3.8303860">
        <ele>730.1</ele>
        <time>2021-05-08T06:16:44Z</time>
      </trkpt>
      <trkpt lat="40.3902450" lon="-3.8303800">
        <ele>730.1</ele>
        <time>2021-05-08T06:16:45Z</time>
      </trkpt>
      <trkpt lat="40.3902690" lon="-3.8303850">
        <ele>730.2</ele>
        <time>2021-05-08T06:16:46Z</time>
      </trkpt>
      <trkpt lat="40.3903050" lon="-3.8304060">
        <ele>730.2</ele>
        <time>2021-05-08T06:16:48Z</time>
      </trkpt>
      <trkpt lat="40.3903630" lon="-3.8304460">
        <ele>730.3</ele>
        <time>2021-05-08T06:16:50Z</time>
      </trkpt>
      <trkpt lat="40.3904100" lon="-3.8304840">
        <ele>730.4</ele>
        <time>2021-05-08T06:16:51Z</time>
      </trkpt>
      <trkpt lat="40.3904480" lon="-3.8305170">
        <ele>730.5</ele>
        <time>2021-05-08T06:16:52Z</time>
      </trkpt>
      <trkpt lat="40.3905080" lon="-3.8305710">
        <ele>730.6</ele>
        <time>2021-05-08T06:16:54Z</time>
      </trkpt>
      <trkpt lat="40.3905490" lon="-3.8306090">
        <ele>730.7</ele>
        <time>2021-05-08T06:16:55Z</time>
      </trkpt>
      <trkpt lat="40.3905960" lon="-3.8306510">
        <ele>730.8</ele>
        <time>2021-05-08T06:16:57Z</time>
      </trkpt>
      <trkpt lat="40.3906900" lon="-3.8307200">
        <ele>731.0</ele>
        <time>2021-05-08T06:17:00Z</time>
      </trkpt>
      <trkpt lat="40.3907460" lon="-3.8307570">
        <ele>731.1</ele>
        <time>2021-05-08T06:17:02Z</time>
      </trkpt>
      <trkpt lat="40.3907940" lon="-3.8307980">
        <ele>731.2</ele>
        <time>2021-05-08T06:17:03Z</time>
      </trkpt>
      <trkpt lat="40.3908540" lon="-3.8308700">
        <ele>731.4</ele>
        <time>2021-05-08T06:17:05Z</time>
      </trkpt>
      <trkpt lat="40.3909130" lon="-3.8309310">
        <ele>731.5</ele>
        <time>2021-05-08T06:17:07Z</time>
      </trkpt>
      <trkpt lat="40.3909630" lon="-3.8310150">
        <ele>731.7</ele>
        <time>2021-05-08T06:17:09Z</time>
      </trkpt>
      <trkpt lat="40.3909780" lon="-3.8311210">
        <ele>731.8</ele>
        <time>2021-05-08T06:17:11Z</time>
      </trkpt>
      <trkpt lat="40.3909900" lon="-3.8311770">
        <ele>731.9</ele>
        <time>2021-05-08T06:17:12Z</time>
      </trkpt>
      <trkpt lat="40.3909990" lon="-3.8312300">
        <ele>732.0</ele>
        <time>2021-05-08T06:17:13Z</time>
      </trkpt>
      <trkpt lat="40.3910100" lon="-3.8313320">
        <ele>732.1</ele>
        <time>2021-05-08T06:17:15Z</time>
      </trkpt>
      <trkpt lat="40.3910070" lon="-3.8313930">
        <ele>732.1</ele>
        <time>2021-05-08T06:17:16Z</time>
      </trkpt>
      <trkpt lat="40.3910070" lon="-3.8314580">
        <ele>732.2</ele>
        <time>2021-05-08T06:17:17Z</time>
      </trkpt>
      <trkpt lat="40.3910090" lon="-3.8315310">
        <ele>732.2</ele>
        <time>2021-05-08T06:17:19Z</time>
      </trkpt>
      <trkpt lat="40.3910070" lon="-3.8316340">
        <ele>732.3</ele>
        <time>2021-05-08T06:17:21Z</time>
      </trkpt>
      <trkpt lat="40.3910070" lon="-3.8316930">
        <ele>732.3</ele>
        <time>2021-05-08T06:17:22Z</time>
      </trkpt>
      <trkpt lat="40.3910080" lon="-3.8318050">
        <ele>732.4</ele>
        <time>2021-05-08T06:17:24Z</time>
      </trkpt>
      <trkpt lat="40.3910130" lon="-3.8318580">
        <ele>732.4</ele>
        <time>2021-05-08T06:17:25Z</time>
      </trkpt>
      <trkpt lat="40.3910170" lon="-3.8319130">
        <ele>732.4</ele>
        <time>2021-05-08T06:17:26Z</time>
      </trkpt>
      <trkpt lat="40.3910240" lon="-3.8320010">
        <ele>732.4</ele>
        <time>2021-05-08T06:17:27Z</time>
      </trkpt>
      <trkpt lat="40.3910290" lon="-3.8320880">
        <ele>732.4</ele>
        <time>2021-05-08T06:17:29Z</time>
      </trkpt>
      <trkpt lat="40.3910380" lon="-3.8321550">
        <ele>732.5</ele>
        <time>2021-05-08T06:17:30Z</time>
      </trkpt>
      <trkpt lat="40.3910440" lon="-3.8322860">
        <ele>732.5</ele>
        <time>2021-05-08T06:17:32Z</time>
      </trkpt>
      <trkpt lat="40.3910460" lon="-3.8323430">
        <ele>732.5</ele>
        <time>2021-05-08T06:17:33Z</time>
      </trkpt>
      <trkpt lat="40.3910460" lon="-3.8324590">
        <ele>732.5</ele>
        <time>2021-05-08T06:17:35Z</time>
      </trkpt>
      <trkpt lat="40.3910460" lon="-3.8325850">
        <ele>732.5</ele>
        <time>2021-05-08T06:17:37Z</time>
      </trkpt>
      <trkpt lat="40.3910490" lon="-3.8326580">
        <ele>732.5</ele>
        <time>2021-05-08T06:17:38Z</time>
      </trkpt>
      <trkpt lat="40.3910530" lon="-3.8327850">
        <ele>732.5</ele>
        <time>2021-05-08T06:17:40Z</time>
      </trkpt>
      <trkpt lat="40.3910530" lon="-3.8328530">
        <ele>732.5</ele>
        <time>2021-05-08T06:17:41Z</time>
      </trkpt>
      <trkpt lat="40.3910480" lon="-3.8329730">
        <ele>732.5</ele>
        <time>2021-05-08T06:17:43Z</time>
      </trkpt>
      <trkpt lat="40.3910500" lon="-3.8330330">
        <ele>732.5</ele>
        <time>2021-05-08T06:17:44Z</time>
      </trkpt>
      <trkpt lat="40.3910510" lon="-3.8331560">
        <ele>732.5</ele>
        <time>2021-05-08T06:17:46Z</time>
      </trkpt>
      <trkpt lat="40.3910530" lon="-3.8332860">
        <ele>732.5</ele>
        <time>2021-05-08T06:17:48Z</time>
      </trkpt>
      <trkpt lat="40.3910560" lon="-3.8333580">
        <ele>732.5</ele>
        <time>2021-05-08T06:17:49Z</time>
      </trkpt>
      <trkpt lat="40.3910630" lon="-3.8335020">
        <ele>732.6</ele>
        <time>2021-05-08T06:17:51Z</time>
      </trkpt>
      <trkpt lat="40.3910680" lon="-3.8336340">
        <ele>732.7</ele>
        <time>2021-05-08T06:17:53Z</time>
      </trkpt>
      <trkpt lat="40.3910700" lon="-3.8336990">
        <ele>732.7</ele>
        <time>2021-05-08T06:17:54Z</time>
      </trkpt>
      <trkpt lat="40.3910760" lon="-3.8337670">
        <ele>732.8</ele>
        <time>2021-05-08T06:17:55Z</time>
      </trkpt>
      <trkpt lat="40.3910790" lon="-3.8338920">
        <ele>732.8</ele>
        <time>2021-05-08T06:17:57Z</time>
      </trkpt>
      <trkpt lat="40.3910770" lon="-3.8340190">
        <ele>732.9</ele>
        <time>2021-05-08T06:17:59Z</time>
      </trkpt>
      <trkpt lat="40.3910770" lon="-3.8340810">
        <ele>732.9</ele>
        <time>2021-05-08T06:18:00Z</time>
      </trkpt>
      <trkpt lat="40.3910760" lon="-3.8341440">
        <ele>732.9</ele>
        <time>2021-05-08T06:18:01Z</time>
      </trkpt>
      <trkpt lat="40.3910830" lon="-3.8342630">
        <ele>733.0</ele>
        <time>2021-05-08T06:18:03Z</time>
      </trkpt>
      <trkpt lat="40.3910880" lon="-3.8343190">
        <ele>733.0</ele>
        <time>2021-05-08T06:18:04Z</time>
      </trkpt>
      <trkpt lat="40.3911070" lon="-3.8344080">
        <ele>733.0</ele>
        <time>2021-05-08T06:18:06Z</time>
      </trkpt>
      <trkpt lat="40.3911380" lon="-3.8345590">
        <ele>733.1</ele>
        <time>2021-05-08T06:18:08Z</time>
      </trkpt>
      <trkpt lat="40.3911540" lon="-3.8346260">
        <ele>733.1</ele>
        <time>2021-05-08T06:18:09Z</time>
      </trkpt>
      <trkpt lat="40.3911790" lon="-3.8347550">
        <ele>733.1</ele>
        <time>2021-05-08T06:18:11Z</time>
      </trkpt>
      <trkpt lat="40.3912020" lon="-3.8348800">
        <ele>733.1</ele>
        <time>2021-05-08T06:18:13Z</time>
      </trkpt>
      <trkpt lat="40.3912150" lon="-3.8349390">
        <ele>733.1</ele>
        <time>2021-05-08T06:18:14Z</time>
      </trkpt>
      <trkpt lat="40.3912280" lon="-3.8350000">
        <ele>733.1</ele>
        <time>2021-05-08T06:18:15Z</time>
      </trkpt>
      <trkpt lat="40.3912480" lon="-3.8351200">
        <ele>733.1</ele>
        <time>2021-05-08T06:18:17Z</time>
      </trkpt>
      <trkpt lat="40.3912540" lon="-3.8351780">
        <ele>733.1</ele>
        <time>2021-05-08T06:18:18Z</time>
      </trkpt>
      <trkpt lat="40.3912690" lon="-3.8352960">
        <ele>733.0</ele>
        <time>2021-05-08T06:18:20Z</time>
      </trkpt>
      <trkpt lat="40.3912760" lon="-3.8353570">
        <ele>733.0</ele>
        <time>2021-05-08T06:18:21Z</time>
      </trkpt>
      <trkpt lat="40.3912800" lon="-3.8354810">
        <ele>733.0</ele>
        <time>2021-05-08T06:18:23Z</time>
      </trkpt>
      <trkpt lat="40.3912800" lon="-3.8355460">
        <ele>733.0</ele>
        <time>2021-05-08T06:18:24Z</time>
      </trkpt>
      <trkpt lat="40.3912850" lon="-3.8356120">
        <ele>733.0</ele>
        <time>2021-05-08T06:18:25Z</time>
      </trkpt>
      <trkpt lat="40.3913000" lon="-3.8357250">
        <ele>733.0</ele>
        <time>2021-05-08T06:18:27Z</time>
      </trkpt>
      <trkpt lat="40.3913360" lon="-3.8358270">
        <ele>733.1</ele>
        <time>2021-05-08T06:18:29Z</time>
      </trkpt>
      <trkpt lat="40.3914090" lon="-3.8359030">
        <ele>733.1</ele>
        <time>2021-05-08T06:18:31Z</time>
      </trkpt>
      <trkpt lat="40.3914540" lon="-3.8359350">
        <ele>733.1</ele>
        <time>2021-05-08T06:18:32Z</time>
      </trkpt>
      <trkpt lat="40.3914980" lon="-3.8359680">
        <ele>733.2</ele>
        <time>2021-05-08T06:18:33Z</time>
      </trkpt>
      <trkpt lat="40.3915730" lon="-3.8360390">
        <ele>733.4</ele>
        <time>2021-05-08T06:18:35Z</time>
      </trkpt>
      <trkpt lat="40.3915990" lon="-3.8360800">
        <ele>733.4</ele>
        <time>2021-05-08T06:18:36Z</time>
      </trkpt>
      <trkpt lat="40.3916120" lon="-3.8361590">
        <ele>733.5</ele>
        <time>2021-05-08T06:18:38Z</time>
      </trkpt>
      <trkpt lat="40.3916070" lon="-3.8362250">
        <ele>733.6</ele>
        <time>2021-05-08T06:18:39Z</time>
      </trkpt>
      <trkpt lat="40.3915820" lon="-3.8362930">
        <ele>733.6</ele>
        <time>2021-05-08T06:18:40Z</time>
      </trkpt>
      <trkpt lat="40.3915130" lon="-3.8363860">
        <ele>733.6</ele>
        <time>2021-05-08T06:18:42Z</time>
      </trkpt>
      <trkpt lat="40.3914430" lon="-3.8365040">
        <ele>733.4</ele>
        <time>2021-05-08T06:18:44Z</time>
      </trkpt>
      <trkpt lat="40.3914020" lon="-3.8366380">
        <ele>733.3</ele>
        <time>2021-05-08T06:18:46Z</time>
      </trkpt>
      <trkpt lat="40.3913890" lon="-3.8367080">
        <ele>733.2</ele>
        <time>2021-05-08T06:18:47Z</time>
      </trkpt>
      <trkpt lat="40.3913760" lon="-3.8367930">
        <ele>733.2</ele>
        <time>2021-05-08T06:18:48Z</time>
      </trkpt>
      <trkpt lat="40.3913740" lon="-3.8369030">
        <ele>733.2</ele>
        <time>2021-05-08T06:18:50Z</time>
      </trkpt>
      <trkpt lat="40.3913750" lon="-3.8370260">
        <ele>733.2</ele>
        <time>2021-05-08T06:18:52Z</time>
      </trkpt>
      <trkpt lat="40.3913730" lon="-3.8370840">
        <ele>733.2</ele>
        <time>2021-05-08T06:18:53Z</time>
      </trkpt>
      <trkpt lat="40.3913630" lon="-3.8372210">
        <ele>733.3</ele>
        <time>2021-05-08T06:18:55Z</time>
      </trkpt>
      <trkpt lat="40.3913520" lon="-3.8373610">
        <ele>733.3</ele>
        <time>2021-05-08T06:18:57Z</time>
      </trkpt>
      <trkpt lat="40.3913450" lon="-3.8374260">
        <ele>733.4</ele>
        <time>2021-05-08T06:18:58Z</time>
      </trkpt>
      <trkpt lat="40.3913350" lon="-3.8375580">
        <ele>733.5</ele>
        <time>2021-05-08T06:19:00Z</time>
      </trkpt>
      <trkpt lat="40.3913310" lon="-3.8376920">
        <ele>733.6</ele>
        <time>2021-05-08T06:19:02Z</time>
      </trkpt>
      <trkpt lat="40.3913170" lon="-3.8378090">
        <ele>733.8</ele>
        <time>2021-05-08T06:19:04Z</time>
      </trkpt>
      <trkpt lat="40.3913110" lon="-3.8378670">
        <ele>733.8</ele>
        <time>2021-05-08T06:19:05Z</time>
      </trkpt>
      <trkpt lat="40.3912970" lon="-3.8379690">
        <ele>734.0</ele>
        <time>2021-05-08T06:19:07Z</time>
      </trkpt>
      <trkpt lat="40.3912950" lon="-3.8380340">
        <ele>734.0</ele>
        <time>2021-05-08T06:19:08Z</time>
      </trkpt>
      <trkpt lat="40.3912910" lon="-3.8381420">
        <ele>734.2</ele>
        <time>2021-05-08T06:19:10Z</time>
      </trkpt>
      <trkpt lat="40.3912810" lon="-3.8382780">
        <ele>734.5</ele>
        <time>2021-05-08T06:19:12Z</time>
      </trkpt>
      <trkpt lat="40.3912750" lon="-3.8383420">
        <ele>734.6</ele>
        <time>2021-05-08T06:19:13Z</time>
      </trkpt>
      <trkpt lat="40.3912690" lon="-3.8384030">
        <ele>734.8</ele>
        <time>2021-05-08T06:19:14Z</time>
      </trkpt>
      <trkpt lat="40.3912590" lon="-3.8385240">
        <ele>735.1</ele>
        <time>2021-05-08T06:19:16Z</time>
      </trkpt>
      <trkpt lat="40.3912550" lon="-3.8385870">
        <ele>735.2</ele>
        <time>2021-05-08T06:19:17Z</time>
      </trkpt>
      <trkpt lat="40.3912510" lon="-3.8386510">
        <ele>735.3</ele>
        <time>2021-05-08T06:19:18Z</time>
      </trkpt>
      <trkpt lat="40.3912610" lon="-3.8386780">
        <ele>735.4</ele>
        <time>2021-05-08T06:19:20Z</time>
      </trkpt>
      <trkpt lat="40.3912530" lon="-3.8387170">
        <ele>735.5</ele>
        <time>2021-05-08T06:19:21Z</time>
      </trkpt>
      <trkpt lat="40.3912500" lon="-3.8388280">
        <ele>735.7</ele>
        <time>2021-05-08T06:19:22Z</time>
      </trkpt>
      <trkpt lat="40.3912440" lon="-3.8389240">
        <ele>736.0</ele>
        <time>2021-05-08T06:19:24Z</time>
      </trkpt>
      <trkpt lat="40.3912390" lon="-3.8390070">
        <ele>736.2</ele>
        <time>2021-05-08T06:19:25Z</time>
      </trkpt>
      <trkpt lat="40.3912300" lon="-3.8390920">
        <ele>736.4</ele>
        <time>2021-05-08T06:19:26Z</time>
      </trkpt>
      <trkpt lat="40.3912340" lon="-3.8391800">
        <ele>736.5</ele>
        <time>2021-05-08T06:19:28Z</time>
      </trkpt>
      <trkpt lat="40.3912270" lon="-3.8392580">
        <ele>736.6</ele>
        <time>2021-05-08T06:19:29Z</time>
      </trkpt>
      <trkpt lat="40.3912180" lon="-3.8393560">
        <ele>736.7</ele>
        <time>2021-05-08T06:19:30Z</time>
      </trkpt>
      <trkpt lat="40.3912110" lon="-3.8394490">
        <ele>736.8</ele>
        <time>2021-05-08T06:19:32Z</time>
      </trkpt>
      <trkpt lat="40.3911900" lon="-3.8395610">
        <ele>736.8</ele>
        <time>2021-05-08T06:19:34Z</time>
      </trkpt>
      <trkpt lat="40.3911810" lon="-3.8396140">
        <ele>736.8</ele>
        <time>2021-05-08T06:19:35Z</time>
      </trkpt>
      <trkpt lat="40.3911740" lon="-3.8397220">
        <ele>736.8</ele>
        <time>2021-05-08T06:19:37Z</time>
      </trkpt>
      <trkpt lat="40.3911800" lon="-3.8398500">
        <ele>736.7</ele>
        <time>2021-05-08T06:19:39Z</time>
      </trkpt>
      <trkpt lat="40.3911820" lon="-3.8399690">
        <ele>736.7</ele>
        <time>2021-05-08T06:19:41Z</time>
      </trkpt>
      <trkpt lat="40.3911780" lon="-3.8400900">
        <ele>736.6</ele>
        <time>2021-05-08T06:19:43Z</time>
      </trkpt>
      <trkpt lat="40.3911790" lon="-3.8401590">
        <ele>736.5</ele>
        <time>2021-05-08T06:19:44Z</time>
      </trkpt>
      <trkpt lat="40.3911820" lon="-3.8403000">
        <ele>736.3</ele>
        <time>2021-05-08T06:19:46Z</time>
      </trkpt>
      <trkpt lat="40.3911850" lon="-3.8403700">
        <ele>736.2</ele>
        <time>2021-05-08T06:19:47Z</time>
      </trkpt>
      <trkpt lat="40.3911840" lon="-3.8405160">
        <ele>735.9</ele>
        <time>2021-05-08T06:19:49Z</time>
      </trkpt>
      <trkpt lat="40.3911830" lon="-3.8406560">
        <ele>735.7</ele>
        <time>2021-05-08T06:19:51Z</time>
      </trkpt>
      <trkpt lat="40.3911810" lon="-3.8408030">
        <ele>735.4</ele>
        <time>2021-05-08T06:19:53Z</time>
      </trkpt>
      <trkpt lat="40.3911790" lon="-3.8408800">
        <ele>735.2</ele>
        <time>2021-05-08T06:19:54Z</time>
      </trkpt>
      <trkpt lat="40.3911710" lon="-3.8410300">
        <ele>734.9</ele>
        <time>2021-05-08T06:19:56Z</time>
      </trkpt>
      <trkpt lat="40.3911630" lon="-3.8411880">
        <ele>734.6</ele>
        <time>2021-05-08T06:19:58Z</time>
      </trkpt>
      <trkpt lat="40.3911590" lon="-3.8413510">
        <ele>734.3</ele>
        <time>2021-05-08T06:20:00Z</time>
      </trkpt>
      <trkpt lat="40.3911560" lon="-3.8415300">
        <ele>733.9</ele>
        <time>2021-05-08T06:20:02Z</time>
      </trkpt>
      <trkpt lat="40.3911380" lon="-3.8417080">
        <ele>733.5</ele>
        <time>2021-05-08T06:20:04Z</time>
      </trkpt>
      <trkpt lat="40.3911270" lon="-3.8418850">
        <ele>733.1</ele>
        <time>2021-05-08T06:20:06Z</time>
      </trkpt>
      <trkpt lat="40.3911190" lon="-3.8420590">
        <ele>732.7</ele>
        <time>2021-05-08T06:20:08Z</time>
      </trkpt>
      <trkpt lat="40.3911140" lon="-3.8421460">
        <ele>732.5</ele>
        <time>2021-05-08T06:20:09Z</time>
      </trkpt>
      <trkpt lat="40.3911090" lon="-3.8422400">
        <ele>732.2</ele>
        <time>2021-05-08T06:20:10Z</time>
      </trkpt>
      <trkpt lat="40.3910960" lon="-3.8424170">
        <ele>731.7</ele>
        <time>2021-05-08T06:20:12Z</time>
      </trkpt>
      <trkpt lat="40.3910880" lon="-3.8424990">
        <ele>731.4</ele>
        <time>2021-05-08T06:20:13Z</time>
      </trkpt>
      <trkpt lat="40.3910810" lon="-3.8426550">
        <ele>730.9</ele>
        <time>2021-05-08T06:20:15Z</time>
      </trkpt>
      <trkpt lat="40.3910720" lon="-3.8428120">
        <ele>730.4</ele>
        <time>2021-05-08T06:20:17Z</time>
      </trkpt>
      <trkpt lat="40.3910680" lon="-3.8428970">
        <ele>730.2</ele>
        <time>2021-05-08T06:20:18Z</time>
      </trkpt>
      <trkpt lat="40.3910590" lon="-3.8430820">
        <ele>729.7</ele>
        <time>2021-05-08T06:20:20Z</time>
      </trkpt>
      <trkpt lat="40.3910530" lon="-3.8431850">
        <ele>729.3</ele>
        <time>2021-05-08T06:20:21Z</time>
      </trkpt>
      <trkpt lat="40.3910500" lon="-3.8433960">
        <ele>728.7</ele>
        <time>2021-05-08T06:20:23Z</time>
      </trkpt>
      <trkpt lat="40.3910480" lon="-3.8436180">
        <ele>727.9</ele>
        <time>2021-05-08T06:20:25Z</time>
      </trkpt>
      <trkpt lat="40.3910440" lon="-3.8438330">
        <ele>727.3</ele>
        <time>2021-05-08T06:20:27Z</time>
      </trkpt>
      <trkpt lat="40.3910370" lon="-3.8439450">
        <ele>727.0</ele>
        <time>2021-05-08T06:20:28Z</time>
      </trkpt>
      <trkpt lat="40.3910320" lon="-3.8440430">
        <ele>726.7</ele>
        <time>2021-05-08T06:20:29Z</time>
      </trkpt>
      <trkpt lat="40.3910270" lon="-3.8441690">
        <ele>726.4</ele>
        <time>2021-05-08T06:20:30Z</time>
      </trkpt>
      <trkpt lat="40.3910210" lon="-3.8444140">
        <ele>725.8</ele>
        <time>2021-05-08T06:20:32Z</time>
      </trkpt>
      <trkpt lat="40.3910180" lon="-3.8446550">
        <ele>725.2</ele>
        <time>2021-05-08T06:20:34Z</time>
      </trkpt>
      <trkpt lat="40.3910160" lon="-3.8447720">
        <ele>725.1</ele>
        <time>2021-05-08T06:20:35Z</time>
      </trkpt>
      <trkpt lat="40.3910130" lon="-3.8449790">
        <ele>724.8</ele>
        <time>2021-05-08T06:20:37Z</time>
      </trkpt>
      <trkpt lat="40.3910140" lon="-3.8450800">
        <ele>724.6</ele>
        <time>2021-05-08T06:20:38Z</time>
      </trkpt>
      <trkpt lat="40.3910170" lon="-3.8451760">
        <ele>724.5</ele>
        <time>2021-05-08T06:20:39Z</time>
      </trkpt>
      <trkpt lat="40.3910110" lon="-3.8453700">
        <ele>724.1</ele>
        <time>2021-05-08T06:20:41Z</time>
      </trkpt>
      <trkpt lat="40.3910020" lon="-3.8454680">
        <ele>724.0</ele>
        <time>2021-05-08T06:20:42Z</time>
      </trkpt>
      <trkpt lat="40.3910010" lon="-3.8456520">
        <ele>723.8</ele>
        <time>2021-05-08T06:20:44Z</time>
      </trkpt>
      <trkpt lat="40.3910150" lon="-3.8457400">
        <ele>723.7</ele>
        <time>2021-05-08T06:20:45Z</time>
      </trkpt>
      <trkpt lat="40.3910490" lon="-3.8459260">
        <ele>723.6</ele>
        <time>2021-05-08T06:20:47Z</time>
      </trkpt>
      <trkpt lat="40.3910920" lon="-3.8461180">
        <ele>723.3</ele>
        <time>2021-05-08T06:20:49Z</time>
      </trkpt>
      <trkpt lat="40.3911170" lon="-3.8462280">
        <ele>723.1</ele>
        <time>2021-05-08T06:20:50Z</time>
      </trkpt>
      <trkpt lat="40.3911350" lon="-3.8463180">
        <ele>723.0</ele>
        <time>2021-05-08T06:20:51Z</time>
      </trkpt>
      <trkpt lat="40.3911730" lon="-3.8465220">
        <ele>722.6</ele>
        <time>2021-05-08T06:20:53Z</time>
      </trkpt>
      <trkpt lat="40.3912080" lon="-3.8467290">
        <ele>722.2</ele>
        <time>2021-05-08T06:20:55Z</time>
      </trkpt>
      <trkpt lat="40.3912210" lon="-3.8468310">
        <ele>722.0</ele>
        <time>2021-05-08T06:20:56Z</time>
      </trkpt>
      <trkpt lat="40.3912550" lon="-3.8470310">
        <ele>721.7</ele>
        <time>2021-05-08T06:20:58Z</time>
      </trkpt>
      <trkpt lat="40.3912740" lon="-3.8471280">
        <ele>721.5</ele>
        <time>2021-05-08T06:20:59Z</time>
      </trkpt>
      <trkpt lat="40.3913090" lon="-3.8473250">
        <ele>721.2</ele>
        <time>2021-05-08T06:21:01Z</time>
      </trkpt>
      <trkpt lat="40.3913250" lon="-3.8474210">
        <ele>721.1</ele>
        <time>2021-05-08T06:21:02Z</time>
      </trkpt>
      <trkpt lat="40.3913560" lon="-3.8476150">
        <ele>720.7</ele>
        <time>2021-05-08T06:21:04Z</time>
      </trkpt>
      <trkpt lat="40.3913880" lon="-3.8478130">
        <ele>720.3</ele>
        <time>2021-05-08T06:21:06Z</time>
      </trkpt>
      <trkpt lat="40.3914270" lon="-3.8480020">
        <ele>720.0</ele>
        <time>2021-05-08T06:21:08Z</time>
      </trkpt>
      <trkpt lat="40.3914610" lon="-3.8481880">
        <ele>719.7</ele>
        <time>2021-05-08T06:21:10Z</time>
      </trkpt>
      <trkpt lat="40.3914770" lon="-3.8482880">
        <ele>719.5</ele>
        <time>2021-05-08T06:21:11Z</time>
      </trkpt>
      <trkpt lat="40.3914920" lon="-3.8483890">
        <ele>719.4</ele>
        <time>2021-05-08T06:21:12Z</time>
      </trkpt>
      <trkpt lat="40.3915080" lon="-3.8484870">
        <ele>719.2</ele>
        <time>2021-05-08T06:21:13Z</time>
      </trkpt>
      <trkpt lat="40.3915210" lon="-3.8485870">
        <ele>719.1</ele>
        <time>2021-05-08T06:21:14Z</time>
      </trkpt>
      <trkpt lat="40.3915480" lon="-3.8487770">
        <ele>718.8</ele>
        <time>2021-05-08T06:21:16Z</time>
      </trkpt>
      <trkpt lat="40.3915840" lon="-3.8489620">
        <ele>718.5</ele>
        <time>2021-05-08T06:21:18Z</time>
      </trkpt>
      <trkpt lat="40.3916190" lon="-3.8491410">
        <ele>718.2</ele>
        <time>2021-05-08T06:21:20Z</time>
      </trkpt>
      <trkpt lat="40.3916480" lon="-3.8493160">
        <ele>717.9</ele>
        <time>2021-05-08T06:21:22Z</time>
      </trkpt>
      <trkpt lat="40.3916630" lon="-3.8494040">
        <ele>717.8</ele>
        <time>2021-05-08T06:21:23Z</time>
      </trkpt>
      <trkpt lat="40.3916790" lon="-3.8494930">
        <ele>717.7</ele>
        <time>2021-05-08T06:21:24Z</time>
      </trkpt>
      <trkpt lat="40.3917100" lon="-3.8496700">
        <ele>717.4</ele>
        <time>2021-05-08T06:21:26Z</time>
      </trkpt>
      <trkpt lat="40.3917280" lon="-3.8497580">
        <ele>717.3</ele>
        <time>2021-05-08T06:21:27Z</time>
      </trkpt>
      <trkpt lat="40.3917470" lon="-3.8498450">
        <ele>717.2</ele>
        <time>2021-05-08T06:21:28Z</time>
      </trkpt>
      <trkpt lat="40.3917830" lon="-3.8500170">
        <ele>717.0</ele>
        <time>2021-05-08T06:21:30Z</time>
      </trkpt>
      <trkpt lat="40.3918210" lon="-3.8501880">
        <ele>716.9</ele>
        <time>2021-05-08T06:21:32Z</time>
      </trkpt>
      <trkpt lat="40.3918510" lon="-3.8503580">
        <ele>716.7</ele>
        <time>2021-05-08T06:21:34Z</time>
      </trkpt>
      <trkpt lat="40.3918660" lon="-3.8504430">
        <ele>716.7</ele>
        <time>2021-05-08T06:21:35Z</time>
      </trkpt>
      <trkpt lat="40.3918820" lon="-3.8505300">
        <ele>716.6</ele>
        <time>2021-05-08T06:21:36Z</time>
      </trkpt>
      <trkpt lat="40.3919140" lon="-3.8506910">
        <ele>716.4</ele>
        <time>2021-05-08T06:21:38Z</time>
      </trkpt>
      <trkpt lat="40.3919340" lon="-3.8507690">
        <ele>716.2</ele>
        <time>2021-05-08T06:21:39Z</time>
      </trkpt>
      <trkpt lat="40.3919990" lon="-3.8508910">
        <ele>716.0</ele>
        <time>2021-05-08T06:21:41Z</time>
      </trkpt>
      <trkpt lat="40.3921140" lon="-3.8509620">
        <ele>715.8</ele>
        <time>2021-05-08T06:21:43Z</time>
      </trkpt>
      <trkpt lat="40.3922250" lon="-3.8510250">
        <ele>715.6</ele>
        <time>2021-05-08T06:21:45Z</time>
      </trkpt>
      <trkpt lat="40.3922720" lon="-3.8510540">
        <ele>715.5</ele>
        <time>2021-05-08T06:21:46Z</time>
      </trkpt>
      <trkpt lat="40.3923290" lon="-3.8510450">
        <ele>715.4</ele>
        <time>2021-05-08T06:21:48Z</time>
      </trkpt>
      <trkpt lat="40.3923850" lon="-3.8510050">
        <ele>715.3</ele>
        <time>2021-05-08T06:21:49Z</time>
      </trkpt>
      <trkpt lat="40.3924860" lon="-3.8509240">
        <ele>715.1</ele>
        <time>2021-05-08T06:21:51Z</time>
      </trkpt>
      <trkpt lat="40.3925960" lon="-3.8508900">
        <ele>714.9</ele>
        <time>2021-05-08T06:21:53Z</time>
      </trkpt>
      <trkpt lat="40.3926510" lon="-3.8508820">
        <ele>714.8</ele>
        <time>2021-05-08T06:21:54Z</time>
      </trkpt>
      <trkpt lat="40.3927600" lon="-3.8508730">
        <ele>714.6</ele>
        <time>2021-05-08T06:21:56Z</time>
      </trkpt>
      <trkpt lat="40.3928180" lon="-3.8508670">
        <ele>714.5</ele>
        <time>2021-05-08T06:21:57Z</time>
      </trkpt>
      <trkpt lat="40.3928710" lon="-3.8508650">
        <ele>714.4</ele>
        <time>2021-05-08T06:21:58Z</time>
      </trkpt>
      <trkpt lat="40.3929770" lon="-3.8508670">
        <ele>714.3</ele>
        <time>2021-05-08T06:22:00Z</time>
      </trkpt>
      <trkpt lat="40.3930840" lon="-3.8508570">
        <ele>714.1</ele>
        <time>2021-05-08T06:22:02Z</time>
      </trkpt>
      <trkpt lat="40.3931840" lon="-3.8508490">
        <ele>714.0</ele>
        <time>2021-05-08T06:22:04Z</time>
      </trkpt>
      <trkpt lat="40.3932800" lon="-3.8508460">
        <ele>713.8</ele>
        <time>2021-05-08T06:22:06Z</time>
      </trkpt>
      <trkpt lat="40.3933300" lon="-3.8508420">
        <ele>713.8</ele>
        <time>2021-05-08T06:22:07Z</time>
      </trkpt>
      <trkpt lat="40.3933820" lon="-3.8508400">
        <ele>713.7</ele>
        <time>2021-05-08T06:22:08Z</time>
      </trkpt>
      <trkpt lat="40.3934390" lon="-3.8508360">
        <ele>713.6</ele>
        <time>2021-05-08T06:22:09Z</time>
      </trkpt>
      <trkpt lat="40.3935480" lon="-3.8508240">
        <ele>713.4</ele>
        <time>2021-05-08T06:22:11Z</time>
      </trkpt>
      <trkpt lat="40.3936070" lon="-3.8508170">
        <ele>713.3</ele>
        <time>2021-05-08T06:22:12Z</time>
      </trkpt>
      <trkpt lat="40.3937170" lon="-3.8508040">
        <ele>713.0</ele>
        <time>2021-05-08T06:22:14Z</time>
      </trkpt>
      <trkpt lat="40.3938350" lon="-3.8508010">
        <ele>712.8</ele>
        <time>2021-05-08T06:22:16Z</time>
      </trkpt>
      <trkpt lat="40.3938940" lon="-3.8507950">
        <ele>712.7</ele>
        <time>2021-05-08T06:22:17Z</time>
      </trkpt>
      <trkpt lat="40.3939950" lon="-3.8507810">
        <ele>712.6</ele>
        <time>2021-05-08T06:22:19Z</time>
      </trkpt>
      <trkpt lat="40.3940460" lon="-3.8507810">
        <ele>712.6</ele>
        <time>2021-05-08T06:22:20Z</time>
      </trkpt>
      <trkpt lat="40.3941450" lon="-3.8507830">
        <ele>712.4</ele>
        <time>2021-05-08T06:22:22Z</time>
      </trkpt>
      <trkpt lat="40.3942430" lon="-3.8507830">
        <ele>712.3</ele>
        <time>2021-05-08T06:22:24Z</time>
      </trkpt>
      <trkpt lat="40.3943540" lon="-3.8507850">
        <ele>712.1</ele>
        <time>2021-05-08T06:22:26Z</time>
      </trkpt>
      <trkpt lat="40.3944570" lon="-3.8507800">
        <ele>712.0</ele>
        <time>2021-05-08T06:22:28Z</time>
      </trkpt>
      <trkpt lat="40.3945080" lon="-3.8507870">
        <ele>712.0</ele>
        <time>2021-05-08T06:22:29Z</time>
      </trkpt>
      <trkpt lat="40.3945930" lon="-3.8507760">
        <ele>711.9</ele>
        <time>2021-05-08T06:22:31Z</time>
      </trkpt>
      <trkpt lat="40.3946460" lon="-3.8507680">
        <ele>711.9</ele>
        <time>2021-05-08T06:22:32Z</time>
      </trkpt>
      <trkpt lat="40.3947400" lon="-3.8507430">
        <ele>711.8</ele>
        <time>2021-05-08T06:22:34Z</time>
      </trkpt>
      <trkpt lat="40.3948130" lon="-3.8506630">
        <ele>711.9</ele>
        <time>2021-05-08T06:22:36Z</time>
      </trkpt>
      <trkpt lat="40.3948610" lon="-3.8506110">
        <ele>712.0</ele>
        <time>2021-05-08T06:22:37Z</time>
      </trkpt>
      <trkpt lat="40.3949310" lon="-3.8505550">
        <ele>712.1</ele>
        <time>2021-05-08T06:22:39Z</time>
      </trkpt>
      <trkpt lat="40.3950000" lon="-3.8505280">
        <ele>712.2</ele>
        <time>2021-05-08T06:22:41Z</time>
      </trkpt>
      <trkpt lat="40.3950940" lon="-3.8505080">
        <ele>712.4</ele>
        <time>2021-05-08T06:22:43Z</time>
      </trkpt>
      <trkpt lat="40.3951260" lon="-3.8505120">
        <ele>712.4</ele>
        <time>2021-05-08T06:22:44Z</time>
      </trkpt>
      <trkpt lat="40.3951740" lon="-3.8505300">
        <ele>712.4</ele>
        <time>2021-05-08T06:22:45Z</time>
      </trkpt>
      <trkpt lat="40.3952390" lon="-3.8505320">
        <ele>712.4</ele>
        <time>2021-05-08T06:22:47Z</time>
      </trkpt>
      <trkpt lat="40.3952890" lon="-3.8505460">
        <ele>712.4</ele>
        <time>2021-05-08T06:22:48Z</time>
      </trkpt>
      <trkpt lat="40.3953300" lon="-3.8505590">
        <ele>712.3</ele>
        <time>2021-05-08T06:22:49Z</time>
      </trkpt>
      <trkpt lat="40.3953830" lon="-3.8505830">
        <ele>712.3</ele>
        <time>2021-05-08T06:22:50Z</time>
      </trkpt>
      <trkpt lat="40.3954200" lon="-3.8506070">
        <ele>712.3</ele>
        <time>2021-05-08T06:22:51Z</time>
      </trkpt>
      <trkpt lat="40.3954640" lon="-3.8506410">
        <ele>712.2</ele>
        <time>2021-05-08T06:22:52Z</time>
      </trkpt>
      <trkpt lat="40.3955340" lon="-3.8506920">
        <ele>712.1</ele>
        <time>2021-05-08T06:22:54Z</time>
      </trkpt>
      <trkpt lat="40.3956390" lon="-3.8506890">
        <ele>711.6</ele>
        <time>2021-05-08T06:22:56Z</time>
      </trkpt>
      <trkpt lat="40.3956910" lon="-3.8506760">
        <ele>711.3</ele>
        <time>2021-05-08T06:22:57Z</time>
      </trkpt>
      <trkpt lat="40.3957430" lon="-3.8506580">
        <ele>711.0</ele>
        <time>2021-05-08T06:22:58Z</time>
      </trkpt>
      <trkpt lat="40.3958630" lon="-3.8506480">
        <ele>710.3</ele>
        <time>2021-05-08T06:23:00Z</time>
      </trkpt>
      <trkpt lat="40.3959160" lon="-3.8506460">
        <ele>710.0</ele>
        <time>2021-05-08T06:23:02Z</time>
      </trkpt>
      <trkpt lat="40.3959450" lon="-3.8506480">
        <ele>709.9</ele>
        <time>2021-05-08T06:23:03Z</time>
      </trkpt>
      <trkpt lat="40.3959550" lon="-3.8506440">
        <ele>709.8</ele>
        <time>2021-05-08T06:23:04Z</time>
      </trkpt>
      <trkpt lat="40.3959790" lon="-3.8506270">
        <ele>709.6</ele>
        <time>2021-05-08T06:23:06Z</time>
      </trkpt>
      <trkpt lat="40.3959820" lon="-3.8506320">
        <ele>709.6</ele>
        <time>2021-05-08T06:23:08Z</time>
      </trkpt>
      <trkpt lat="40.3959840" lon="-3.8506360">
        <ele>709.6</ele>
        <time>2021-05-08T06:23:10Z</time>
      </trkpt>
      <trkpt lat="40.3959860" lon="-3.8506410">
        <ele>709.6</ele>
        <time>2021-05-08T06:23:11Z</time>
      </trkpt>
      <trkpt lat="40.3959890" lon="-3.8506450">
        <ele>709.5</ele>
        <time>2021-05-08T06:23:12Z</time>
      </trkpt>
      <trkpt lat="40.3959910" lon="-3.8506500">
        <ele>709.5</ele>
        <time>2021-05-08T06:23:14Z</time>
      </trkpt>
      <trkpt lat="40.3959940" lon="-3.8506540">
        <ele>709.5</ele>
        <time>2021-05-08T06:23:15Z</time>
      </trkpt>
      <trkpt lat="40.3959960" lon="-3.8506590">
        <ele>709.4</ele>
        <time>2021-05-08T06:23:17Z</time>
      </trkpt>
      <trkpt lat="40.3959980" lon="-3.8506630">
        <ele>709.4</ele>
        <time>2021-05-08T06:25:45Z</time>
      </trkpt>
      <trkpt lat="40.3960010" lon="-3.8506680">
        <ele>709.4</ele>
        <time>2021-05-08T06:25:46Z</time>
      </trkpt>
      <trkpt lat="40.3960030" lon="-3.8506720">
        <ele>709.4</ele>
        <time>2021-05-08T06:25:47Z</time>
      </trkpt>
      <trkpt lat="40.3960320" lon="-3.8506680">
        <ele>709.2</ele>
        <time>2021-05-08T06:25:48Z</time>
      </trkpt>
      <trkpt lat="40.3960940" lon="-3.8506600">
        <ele>708.9</ele>
        <time>2021-05-08T06:25:49Z</time>
      </trkpt>
      <trkpt lat="40.3961560" lon="-3.8506620">
        <ele>708.5</ele>
        <time>2021-05-08T06:25:51Z</time>
      </trkpt>
      <trkpt lat="40.3962340" lon="-3.8506750">
        <ele>708.1</ele>
        <time>2021-05-08T06:25:52Z</time>
      </trkpt>
      <trkpt lat="40.3963440" lon="-3.8506920">
        <ele>707.6</ele>
        <time>2021-05-08T06:25:54Z</time>
      </trkpt>
      <trkpt lat="40.3964450" lon="-3.8507050">
        <ele>707.4</ele>
        <time>2021-05-08T06:25:56Z</time>
      </trkpt>
      <trkpt lat="40.3965370" lon="-3.8507280">
        <ele>707.5</ele>
        <time>2021-05-08T06:25:58Z</time>
      </trkpt>
      <trkpt lat="40.3965820" lon="-3.8507550">
        <ele>707.5</ele>
        <time>2021-05-08T06:25:59Z</time>
      </trkpt>
      <trkpt lat="40.3966600" lon="-3.8508300">
        <ele>707.6</ele>
        <time>2021-05-08T06:26:01Z</time>
      </trkpt>
      <trkpt lat="40.3966900" lon="-3.8508760">
        <ele>707.6</ele>
        <time>2021-05-08T06:26:02Z</time>
      </trkpt>
      <trkpt lat="40.3967480" lon="-3.8509460">
        <ele>707.7</ele>
        <time>2021-05-08T06:26:04Z</time>
      </trkpt>
      <trkpt lat="40.3967520" lon="-3.8510250">
        <ele>707.7</ele>
        <time>2021-05-08T06:26:05Z</time>
      </trkpt>
      <trkpt lat="40.3967470" lon="-3.8510900">
        <ele>707.8</ele>
        <time>2021-05-08T06:26:06Z</time>
      </trkpt>
      <trkpt lat="40.3967210" lon="-3.8512270">
        <ele>706.1</ele>
        <time>2021-05-08T06:26:08Z</time>
      </trkpt>
      <trkpt lat="40.3966450" lon="-3.8513570">
        <ele>705.0</ele>
        <time>2021-05-08T06:26:10Z</time>
      </trkpt>
      <trkpt lat="40.3965980" lon="-3.8514080">
        <ele>705.2</ele>
        <time>2021-05-08T06:26:11Z</time>
      </trkpt>
      <trkpt lat="40.3965210" lon="-3.8515070">
        <ele>705.3</ele>
        <time>2021-05-08T06:26:13Z</time>
      </trkpt>
      <trkpt lat="40.3964910" lon="-3.8516240">
        <ele>705.0</ele>
        <time>2021-05-08T06:26:15Z</time>
      </trkpt>
      <trkpt lat="40.3964930" lon="-3.8516810">
        <ele>704.9</ele>
        <time>2021-05-08T06:26:16Z</time>
      </trkpt>
      <trkpt lat="40.3965230" lon="-3.8517770">
        <ele>704.7</ele>
        <time>2021-05-08T06:26:18Z</time>
      </trkpt>
      <trkpt lat="40.3965520" lon="-3.8518420">
        <ele>704.6</ele>
        <time>2021-05-08T06:26:19Z</time>
      </trkpt>
      <trkpt lat="40.3965980" lon="-3.8519600">
        <ele>704.3</ele>
        <time>2021-05-08T06:26:21Z</time>
      </trkpt>
      <trkpt lat="40.3966080" lon="-3.8520200">
        <ele>704.2</ele>
        <time>2021-05-08T06:26:22Z</time>
      </trkpt>
      <trkpt lat="40.3966070" lon="-3.8521160">
        <ele>704.3</ele>
        <time>2021-05-08T06:26:24Z</time>
      </trkpt>
      <trkpt lat="40.3965800" lon="-3.8521900">
        <ele>704.4</ele>
        <time>2021-05-08T06:26:26Z</time>
      </trkpt>
      <trkpt lat="40.3965380" lon="-3.8521790">
        <ele>704.5</ele>
        <time>2021-05-08T06:26:27Z</time>
      </trkpt>
      <trkpt lat="40.3965000" lon="-3.8520900">
        <ele>704.6</ele>
        <time>2021-05-08T06:26:29Z</time>
      </trkpt>
      <trkpt lat="40.3965060" lon="-3.8520430">
        <ele>704.6</ele>
        <time>2021-05-08T06:26:31Z</time>
      </trkpt>
      <trkpt lat="40.3965080" lon="-3.8519880">
        <ele>704.7</ele>
        <time>2021-05-08T06:26:32Z</time>
      </trkpt>
      <trkpt lat="40.3965090" lon="-3.8519620">
        <ele>704.7</ele>
        <time>2021-05-08T06:26:33Z</time>
      </trkpt>
      <trkpt lat="40.3965000" lon="-3.8518950">
        <ele>704.8</ele>
        <time>2021-05-08T06:26:35Z</time>
      </trkpt>
      <trkpt lat="40.3964940" lon="-3.8518050">
        <ele>704.9</ele>
        <time>2021-05-08T06:26:37Z</time>
      </trkpt>
      <trkpt lat="40.3964930" lon="-3.8517300">
        <ele>704.9</ele>
        <time>2021-05-08T06:26:38Z</time>
      </trkpt>
      <trkpt lat="40.3964770" lon="-3.8516500">
        <ele>705.0</ele>
        <time>2021-05-08T06:26:40Z</time>
      </trkpt>
      <trkpt lat="40.3964700" lon="-3.8516060">
        <ele>705.1</ele>
        <time>2021-05-08T06:26:41Z</time>
      </trkpt>
      <trkpt lat="40.3964320" lon="-3.8515650">
        <ele>705.1</ele>
        <time>2021-05-08T06:26:43Z</time>
      </trkpt>
      <trkpt lat="40.3963940" lon="-3.8515590">
        <ele>705.7</ele>
        <time>2021-05-08T06:26:44Z</time>
      </trkpt>
      <trkpt lat="40.3963570" lon="-3.8515560">
        <ele>705.7</ele>
        <time>2021-05-08T06:26:45Z</time>
      </trkpt>
      <trkpt lat="40.3962870" lon="-3.8515610">
        <ele>705.8</ele>
        <time>2021-05-08T06:26:47Z</time>
      </trkpt>
      <trkpt lat="40.3962060" lon="-3.8515610">
        <ele>705.9</ele>
        <time>2021-05-08T06:26:49Z</time>
      </trkpt>
      <trkpt lat="40.3961470" lon="-3.8515650">
        <ele>706.1</ele>
        <time>2021-05-08T06:26:50Z</time>
      </trkpt>
      <trkpt lat="40.3960960" lon="-3.8515670">
        <ele>706.2</ele>
        <time>2021-05-08T06:26:52Z</time>
      </trkpt>
      <trkpt lat="40.3960530" lon="-3.8515690">
        <ele>706.3</ele>
        <time>2021-05-08T06:26:53Z</time>
      </trkpt>
      <trkpt lat="40.3959980" lon="-3.8515740">
        <ele>706.5</ele>
        <time>2021-05-08T06:26:55Z</time>
      </trkpt>
      <trkpt lat="40.3959510" lon="-3.8515770">
        <ele>706.7</ele>
        <time>2021-05-08T06:26:56Z</time>
      </trkpt>
      <trkpt lat="40.3959160" lon="-3.8515840">
        <ele>706.8</ele>
        <time>2021-05-08T06:26:57Z</time>
      </trkpt>
      <trkpt lat="40.3958660" lon="-3.8515860">
        <ele>707.0</ele>
        <time>2021-05-08T06:26:58Z</time>
      </trkpt>
      <trkpt lat="40.3958250" lon="-3.8515890">
        <ele>707.2</ele>
        <time>2021-05-08T06:27:00Z</time>
      </trkpt>
      <trkpt lat="40.3957800" lon="-3.8515870">
        <ele>707.4</ele>
        <time>2021-05-08T06:27:01Z</time>
      </trkpt>
      <trkpt lat="40.3957450" lon="-3.8515860">
        <ele>707.5</ele>
        <time>2021-05-08T06:27:02Z</time>
      </trkpt>
      <trkpt lat="40.3957040" lon="-3.8515830">
        <ele>707.7</ele>
        <time>2021-05-08T06:27:03Z</time>
      </trkpt>
      <trkpt lat="40.3956660" lon="-3.8515790">
        <ele>707.9</ele>
        <time>2021-05-08T06:27:04Z</time>
      </trkpt>
      <trkpt lat="40.3956280" lon="-3.8515760">
        <ele>708.0</ele>
        <time>2021-05-08T06:27:05Z</time>
      </trkpt>
      <trkpt lat="40.3955900" lon="-3.8515760">
        <ele>708.1</ele>
        <time>2021-05-08T06:27:06Z</time>
      </trkpt>
      <trkpt lat="40.3955260" lon="-3.8516010">
        <ele>708.3</ele>
        <time>2021-05-08T06:27:08Z</time>
      </trkpt>
      <trkpt lat="40.3954920" lon="-3.8516320">
        <ele>708.3</ele>
        <time>2021-05-08T06:27:09Z</time>
      </trkpt>
      <trkpt lat="40.3954490" lon="-3.8516780">
        <ele>708.4</ele>
        <time>2021-05-08T06:27:11Z</time>
      </trkpt>
      <trkpt lat="40.3954110" lon="-3.8517180">
        <ele>708.4</ele>
        <time>2021-05-08T06:27:12Z</time>
      </trkpt>
      <trkpt lat="40.3953790" lon="-3.8517520">
        <ele>708.5</ele>
        <time>2021-05-08T06:27:13Z</time>
      </trkpt>
      <trkpt lat="40.3953400" lon="-3.8517860">
        <ele>708.5</ele>
        <time>2021-05-08T06:27:14Z</time>
      </trkpt>
      <trkpt lat="40.3953000" lon="-3.8518170">
        <ele>708.3</ele>
        <time>2021-05-08T06:27:15Z</time>
      </trkpt>
      <trkpt lat="40.3952640" lon="-3.8518690">
        <ele>708.0</ele>
        <time>2021-05-08T06:27:16Z</time>
      </trkpt>
      <trkpt lat="40.3952420" lon="-3.8519240">
        <ele>707.7</ele>
        <time>2021-05-08T06:27:17Z</time>
      </trkpt>
      <trkpt lat="40.3952270" lon="-3.8520130">
        <ele>707.4</ele>
        <time>2021-05-08T06:27:19Z</time>
      </trkpt>
      <trkpt lat="40.3952280" lon="-3.8520570">
        <ele>707.2</ele>
        <time>2021-05-08T06:27:21Z</time>
      </trkpt>
      <trkpt lat="40.3952400" lon="-3.8520690">
        <ele>707.3</ele>
        <time>2021-05-08T06:27:22Z</time>
      </trkpt>
      <trkpt lat="40.3952590" lon="-3.8520390">
        <ele>707.3</ele>
        <time>2021-05-08T06:27:23Z</time>
      </trkpt>
      <trkpt lat="40.3952480" lon="-3.8519860">
        <ele>707.4</ele>
        <time>2021-05-08T06:27:25Z</time>
      </trkpt>
      <trkpt lat="40.3952060" lon="-3.8519830">
        <ele>707.5</ele>
        <time>2021-05-08T06:27:26Z</time>
      </trkpt>
      <trkpt lat="40.3951660" lon="-3.8519910">
        <ele>707.5</ele>
        <time>2021-05-08T06:27:27Z</time>
      </trkpt>
      <trkpt lat="40.3951060" lon="-3.8520030">
        <ele>707.6</ele>
        <time>2021-05-08T06:27:29Z</time>
      </trkpt>
      <trkpt lat="40.3950750" lon="-3.8520060">
        <ele>707.6</ele>
        <time>2021-05-08T06:27:30Z</time>
      </trkpt>
      <trkpt lat="40.3950420" lon="-3.8520000">
        <ele>707.8</ele>
        <time>2021-05-08T06:27:31Z</time>
      </trkpt>
      <trkpt lat="40.3950280" lon="-3.8519800">
        <ele>708.0</ele>
        <time>2021-05-08T06:27:32Z</time>
      </trkpt>
      <trkpt lat="40.3950220" lon="-3.8519190">
        <ele>708.2</ele>
        <time>2021-05-08T06:27:34Z</time>
      </trkpt>
      <trkpt lat="40.3950020" lon="-3.8518820">
        <ele>708.4</ele>
        <time>2021-05-08T06:27:35Z</time>
      </trkpt>
      <trkpt lat="40.3949860" lon="-3.8518510">
        <ele>708.5</ele>
        <time>2021-05-08T06:27:36Z</time>
      </trkpt>
      <trkpt lat="40.3949670" lon="-3.8518240">
        <ele>708.6</ele>
        <time>2021-05-08T06:27:37Z</time>
      </trkpt>
      <trkpt lat="40.3949010" lon="-3.8517880">
        <ele>708.7</ele>
        <time>2021-05-08T06:27:39Z</time>
      </trkpt>
      <trkpt lat="40.3948610" lon="-3.8517580">
        <ele>708.7</ele>
        <time>2021-05-08T06:27:40Z</time>
      </trkpt>
      <trkpt lat="40.3948080" lon="-3.8517060">
        <ele>708.8</ele>
        <time>2021-05-08T06:27:41Z</time>
      </trkpt>
      <trkpt lat="40.3947720" lon="-3.8516720">
        <ele>708.8</ele>
        <time>2021-05-08T06:27:42Z</time>
      </trkpt>
      <trkpt lat="40.3947320" lon="-3.8516420">
        <ele>709.0</ele>
        <time>2021-05-08T06:27:44Z</time>
      </trkpt>
      <trkpt lat="40.3946730" lon="-3.8516440">
        <ele>709.0</ele>
        <time>2021-05-08T06:27:45Z</time>
      </trkpt>
      <trkpt lat="40.3945770" lon="-3.8516470">
        <ele>709.1</ele>
        <time>2021-05-08T06:27:47Z</time>
      </trkpt>
      <trkpt lat="40.3944890" lon="-3.8516570">
        <ele>709.2</ele>
        <time>2021-05-08T06:27:49Z</time>
      </trkpt>
      <trkpt lat="40.3944410" lon="-3.8516650">
        <ele>709.2</ele>
        <time>2021-05-08T06:27:50Z</time>
      </trkpt>
      <trkpt lat="40.3943520" lon="-3.8516760">
        <ele>709.3</ele>
        <time>2021-05-08T06:27:52Z</time>
      </trkpt>
      <trkpt lat="40.3943250" lon="-3.8517270">
        <ele>709.3</ele>
        <time>2021-05-08T06:27:54Z</time>
      </trkpt>
      <trkpt lat="40.3942660" lon="-3.8517110">
        <ele>709.3</ele>
        <time>2021-05-08T06:27:55Z</time>
      </trkpt>
      <trkpt lat="40.3941990" lon="-3.8517020">
        <ele>709.4</ele>
        <time>2021-05-08T06:27:56Z</time>
      </trkpt>
      <trkpt lat="40.3940820" lon="-3.8516860">
        <ele>709.4</ele>
        <time>2021-05-08T06:27:58Z</time>
      </trkpt>
      <trkpt lat="40.3940340" lon="-3.8516860">
        <ele>709.5</ele>
        <time>2021-05-08T06:27:59Z</time>
      </trkpt>
      <trkpt lat="40.3939800" lon="-3.8516870">
        <ele>709.5</ele>
        <time>2021-05-08T06:28:00Z</time>
      </trkpt>
      <trkpt lat="40.3939310" lon="-3.8516920">
        <ele>709.6</ele>
        <time>2021-05-08T06:28:01Z</time>
      </trkpt>
      <trkpt lat="40.3938400" lon="-3.8516960">
        <ele>709.8</ele>
        <time>2021-05-08T06:28:03Z</time>
      </trkpt>
      <trkpt lat="40.3937440" lon="-3.8516970">
        <ele>710.1</ele>
        <time>2021-05-08T06:28:05Z</time>
      </trkpt>
      <trkpt lat="40.3936510" lon="-3.8517010">
        <ele>710.5</ele>
        <time>2021-05-08T06:28:07Z</time>
      </trkpt>
      <trkpt lat="40.3936130" lon="-3.8517030">
        <ele>710.7</ele>
        <time>2021-05-08T06:28:08Z</time>
      </trkpt>
      <trkpt lat="40.3935820" lon="-3.8517070">
        <ele>710.8</ele>
        <time>2021-05-08T06:28:10Z</time>
      </trkpt>
      <trkpt lat="40.3935500" lon="-3.8517100">
        <ele>710.9</ele>
        <time>2021-05-08T06:28:11Z</time>
      </trkpt>
      <trkpt lat="40.3934600" lon="-3.8517150">
        <ele>711.3</ele>
        <time>2021-05-08T06:28:13Z</time>
      </trkpt>
      <trkpt lat="40.3934100" lon="-3.8517290">
        <ele>711.5</ele>
        <time>2021-05-08T06:28:14Z</time>
      </trkpt>
      <trkpt lat="40.3933690" lon="-3.8517320">
        <ele>711.7</ele>
        <time>2021-05-08T06:28:15Z</time>
      </trkpt>
      <trkpt lat="40.3933220" lon="-3.8517230">
        <ele>711.8</ele>
        <time>2021-05-08T06:28:16Z</time>
      </trkpt>
      <trkpt lat="40.3932590" lon="-3.8517280">
        <ele>712.0</ele>
        <time>2021-05-08T06:28:18Z</time>
      </trkpt>
      <trkpt lat="40.3932190" lon="-3.8517420">
        <ele>712.1</ele>
        <time>2021-05-08T06:28:19Z</time>
      </trkpt>
      <trkpt lat="40.3931590" lon="-3.8517440">
        <ele>712.3</ele>
        <time>2021-05-08T06:28:21Z</time>
      </trkpt>
      <trkpt lat="40.3931190" lon="-3.8517440">
        <ele>712.4</ele>
        <time>2021-05-08T06:28:22Z</time>
      </trkpt>
      <trkpt lat="40.3930790" lon="-3.8517440">
        <ele>712.6</ele>
        <time>2021-05-08T06:28:23Z</time>
      </trkpt>
      <trkpt lat="40.3930360" lon="-3.8517470">
        <ele>712.7</ele>
        <time>2021-05-08T06:28:24Z</time>
      </trkpt>
      <trkpt lat="40.3929960" lon="-3.8517540">
        <ele>712.9</ele>
        <time>2021-05-08T06:28:25Z</time>
      </trkpt>
      <trkpt lat="40.3929540" lon="-3.8517610">
        <ele>713.0</ele>
        <time>2021-05-08T06:28:26Z</time>
      </trkpt>
      <trkpt lat="40.3928820" lon="-3.8517770">
        <ele>713.4</ele>
        <time>2021-05-08T06:28:28Z</time>
      </trkpt>
      <trkpt lat="40.3928290" lon="-3.8517860">
        <ele>713.6</ele>
        <time>2021-05-08T06:28:29Z</time>
      </trkpt>
      <trkpt lat="40.3927450" lon="-3.8517880">
        <ele>714.0</ele>
        <time>2021-05-08T06:28:31Z</time>
      </trkpt>
      <trkpt lat="40.3926990" lon="-3.8517890">
        <ele>714.2</ele>
        <time>2021-05-08T06:28:32Z</time>
      </trkpt>
      <trkpt lat="40.3926610" lon="-3.8517910">
        <ele>714.4</ele>
        <time>2021-05-08T06:28:33Z</time>
      </trkpt>
      <trkpt lat="40.3926100" lon="-3.8518010">
        <ele>714.7</ele>
        <time>2021-05-08T06:28:35Z</time>
      </trkpt>
      <trkpt lat="40.3925720" lon="-3.8518070">
        <ele>714.9</ele>
        <time>2021-05-08T06:28:36Z</time>
      </trkpt>
      <trkpt lat="40.3925330" lon="-3.8518140">
        <ele>715.0</ele>
        <time>2021-05-08T06:28:37Z</time>
      </trkpt>
      <trkpt lat="40.3924740" lon="-3.8518140">
        <ele>715.3</ele>
        <time>2021-05-08T06:28:39Z</time>
      </trkpt>
      <trkpt lat="40.3924390" lon="-3.8518190">
        <ele>715.4</ele>
        <time>2021-05-08T06:28:40Z</time>
      </trkpt>
      <trkpt lat="40.3923700" lon="-3.8518170">
        <ele>715.5</ele>
        <time>2021-05-08T06:28:42Z</time>
      </trkpt>
      <trkpt lat="40.3923170" lon="-3.8518140">
        <ele>715.5</ele>
        <time>2021-05-08T06:28:43Z</time>
      </trkpt>
      <trkpt lat="40.3922780" lon="-3.8518170">
        <ele>715.4</ele>
        <time>2021-05-08T06:28:44Z</time>
      </trkpt>
      <trkpt lat="40.3922260" lon="-3.8518420">
        <ele>715.3</ele>
        <time>2021-05-08T06:28:46Z</time>
      </trkpt>
      <trkpt lat="40.3922050" lon="-3.8518830">
        <ele>715.2</ele>
        <time>2021-05-08T06:28:47Z</time>
      </trkpt>
      <trkpt lat="40.3922070" lon="-3.8519670">
        <ele>715.2</ele>
        <time>2021-05-08T06:28:49Z</time>
      </trkpt>
      <trkpt lat="40.3922270" lon="-3.8520220">
        <ele>715.1</ele>
        <time>2021-05-08T06:28:50Z</time>
      </trkpt>
      <trkpt lat="40.3922500" lon="-3.8520780">
        <ele>715.1</ele>
        <time>2021-05-08T06:28:51Z</time>
      </trkpt>
      <trkpt lat="40.3922750" lon="-3.8521490">
        <ele>715.0</ele>
        <time>2021-05-08T06:28:53Z</time>
      </trkpt>
      <trkpt lat="40.3922990" lon="-3.8522260">
        <ele>715.0</ele>
        <time>2021-05-08T06:28:54Z</time>
      </trkpt>
      <trkpt lat="40.3923380" lon="-3.8523380">
        <ele>714.9</ele>
        <time>2021-05-08T06:28:56Z</time>
      </trkpt>
      <trkpt lat="40.3923560" lon="-3.8523940">
        <ele>714.9</ele>
        <time>2021-05-08T06:28:57Z</time>
      </trkpt>
      <trkpt lat="40.3923870" lon="-3.8525210">
        <ele>714.8</ele>
        <time>2021-05-08T06:28:59Z</time>
      </trkpt>
      <trkpt lat="40.3924040" lon="-3.8525830">
        <ele>714.8</ele>
        <time>2021-05-08T06:29:00Z</time>
      </trkpt>
      <trkpt lat="40.3924220" lon="-3.8526390">
        <ele>714.7</ele>
        <time>2021-05-08T06:29:01Z</time>
      </trkpt>
      <trkpt lat="40.3924380" lon="-3.8526970">
        <ele>714.7</ele>
        <time>2021-05-08T06:29:02Z</time>
      </trkpt>
      <trkpt lat="40.3924560" lon="-3.8527530">
        <ele>714.7</ele>
        <time>2021-05-08T06:29:03Z</time>
      </trkpt>
      <trkpt lat="40.3924910" lon="-3.8528680">
        <ele>714.6</ele>
        <time>2021-05-08T06:29:05Z</time>
      </trkpt>
      <trkpt lat="40.3925260" lon="-3.8529830">
        <ele>714.6</ele>
        <time>2021-05-08T06:29:07Z</time>
      </trkpt>
      <trkpt lat="40.3925430" lon="-3.8530390">
        <ele>714.5</ele>
        <time>2021-05-08T06:29:08Z</time>
      </trkpt>
      <trkpt lat="40.3925590" lon="-3.8531010">
        <ele>714.5</ele>
        <time>2021-05-08T06:29:09Z</time>
      </trkpt>
      <trkpt lat="40.3925740" lon="-3.8531620">
        <ele>714.5</ele>
        <time>2021-05-08T06:29:10Z</time>
      </trkpt>
      <trkpt lat="40.3926120" lon="-3.8532910">
        <ele>714.4</ele>
        <time>2021-05-08T06:29:12Z</time>
      </trkpt>
      <trkpt lat="40.3926350" lon="-3.8533570">
        <ele>714.3</ele>
        <time>2021-05-08T06:29:13Z</time>
      </trkpt>
      <trkpt lat="40.3926540" lon="-3.8534240">
        <ele>714.3</ele>
        <time>2021-05-08T06:29:14Z</time>
      </trkpt>
      <trkpt lat="40.3926950" lon="-3.8535500">
        <ele>714.3</ele>
        <time>2021-05-08T06:29:16Z</time>
      </trkpt>
      <trkpt lat="40.3927150" lon="-3.8536150">
        <ele>714.3</ele>
        <time>2021-05-08T06:29:17Z</time>
      </trkpt>
      <trkpt lat="40.3927540" lon="-3.8537530">
        <ele>714.2</ele>
        <time>2021-05-08T06:29:19Z</time>
      </trkpt>
      <trkpt lat="40.3927940" lon="-3.8538890">
        <ele>714.2</ele>
        <time>2021-05-08T06:29:21Z</time>
      </trkpt>
      <trkpt lat="40.3928370" lon="-3.8540330">
        <ele>714.1</ele>
        <time>2021-05-08T06:29:23Z</time>
      </trkpt>
      <trkpt lat="40.3928780" lon="-3.8541790">
        <ele>714.0</ele>
        <time>2021-05-08T06:29:25Z</time>
      </trkpt>
      <trkpt lat="40.3928970" lon="-3.8542490">
        <ele>714.0</ele>
        <time>2021-05-08T06:29:26Z</time>
      </trkpt>
      <trkpt lat="40.3929170" lon="-3.8543190">
        <ele>714.0</ele>
        <time>2021-05-08T06:29:27Z</time>
      </trkpt>
      <trkpt lat="40.3929350" lon="-3.8543920">
        <ele>714.0</ele>
        <time>2021-05-08T06:29:28Z</time>
      </trkpt>
      <trkpt lat="40.3929510" lon="-3.8544620">
        <ele>713.9</ele>
        <time>2021-05-08T06:29:29Z</time>
      </trkpt>
      <trkpt lat="40.3929760" lon="-3.8546050">
        <ele>713.9</ele>
        <time>2021-05-08T06:29:31Z</time>
      </trkpt>
      <trkpt lat="40.3929870" lon="-3.8546770">
        <ele>713.8</ele>
        <time>2021-05-08T06:29:32Z</time>
      </trkpt>
      <trkpt lat="40.3930060" lon="-3.8548270">
        <ele>713.7</ele>
        <time>2021-05-08T06:29:34Z</time>
      </trkpt>
      <trkpt lat="40.3930140" lon="-3.8549030">
        <ele>713.7</ele>
        <time>2021-05-08T06:29:35Z</time>
      </trkpt>
      <trkpt lat="40.3930220" lon="-3.8549660">
        <ele>713.7</ele>
        <time>2021-05-08T06:29:36Z</time>
      </trkpt>
      <trkpt lat="40.3930380" lon="-3.8551240">
        <ele>713.5</ele>
        <time>2021-05-08T06:29:38Z</time>
      </trkpt>
      <trkpt lat="40.3930450" lon="-3.8551950">
        <ele>713.5</ele>
        <time>2021-05-08T06:29:39Z</time>
      </trkpt>
      <trkpt lat="40.3930530" lon="-3.8553320">
        <ele>713.5</ele>
        <time>2021-05-08T06:29:41Z</time>
      </trkpt>
      <trkpt lat="40.3930580" lon="-3.8554000">
        <ele>713.4</ele>
        <time>2021-05-08T06:29:42Z</time>
      </trkpt>
      <trkpt lat="40.3930630" lon="-3.8554680">
        <ele>713.4</ele>
        <time>2021-05-08T06:29:43Z</time>
      </trkpt>
      <trkpt lat="40.3930730" lon="-3.8556130">
        <ele>713.4</ele>
        <time>2021-05-08T06:29:45Z</time>
      </trkpt>
      <trkpt lat="40.3930730" lon="-3.8556870">
        <ele>713.4</ele>
        <time>2021-05-08T06:29:46Z</time>
      </trkpt>
      <trkpt lat="40.3930710" lon="-3.8557610">
        <ele>713.3</ele>
        <time>2021-05-08T06:29:47Z</time>
      </trkpt>
      <trkpt lat="40.3930590" lon="-3.8559100">
        <ele>713.3</ele>
        <time>2021-05-08T06:29:49Z</time>
      </trkpt>
      <trkpt lat="40.3930490" lon="-3.8559830">
        <ele>713.3</ele>
        <time>2021-05-08T06:29:50Z</time>
      </trkpt>
      <trkpt lat="40.3930380" lon="-3.8560530">
        <ele>713.3</ele>
        <time>2021-05-08T06:29:51Z</time>
      </trkpt>
      <trkpt lat="40.3930190" lon="-3.8561980">
        <ele>713.2</ele>
        <time>2021-05-08T06:29:53Z</time>
      </trkpt>
      <trkpt lat="40.3929970" lon="-3.8563500">
        <ele>713.2</ele>
        <time>2021-05-08T06:29:55Z</time>
      </trkpt>
      <trkpt lat="40.3929720" lon="-3.8565170">
        <ele>713.1</ele>
        <time>2021-05-08T06:29:57Z</time>
      </trkpt>
      <trkpt lat="40.3929590" lon="-3.8566460">
        <ele>713.0</ele>
        <time>2021-05-08T06:29:59Z</time>
      </trkpt>
      <trkpt lat="40.3929480" lon="-3.8568000">
        <ele>713.0</ele>
        <time>2021-05-08T06:30:01Z</time>
      </trkpt>
      <trkpt lat="40.3929460" lon="-3.8569480">
        <ele>712.9</ele>
        <time>2021-05-08T06:30:03Z</time>
      </trkpt>
      <trkpt lat="40.3929490" lon="-3.8570170">
        <ele>712.8</ele>
        <time>2021-05-08T06:30:04Z</time>
      </trkpt>
      <trkpt lat="40.3929520" lon="-3.8570860">
        <ele>712.7</ele>
        <time>2021-05-08T06:30:05Z</time>
      </trkpt>
      <trkpt lat="40.3929550" lon="-3.8572340">
        <ele>712.6</ele>
        <time>2021-05-08T06:30:07Z</time>
      </trkpt>
      <trkpt lat="40.3929600" lon="-3.8573110">
        <ele>712.5</ele>
        <time>2021-05-08T06:30:08Z</time>
      </trkpt>
      <trkpt lat="40.3929640" lon="-3.8574720">
        <ele>712.2</ele>
        <time>2021-05-08T06:30:10Z</time>
      </trkpt>
      <trkpt lat="40.3929640" lon="-3.8575530">
        <ele>712.1</ele>
        <time>2021-05-08T06:30:11Z</time>
      </trkpt>
      <trkpt lat="40.3929650" lon="-3.8576310">
        <ele>712.0</ele>
        <time>2021-05-08T06:30:12Z</time>
      </trkpt>
      <trkpt lat="40.3929700" lon="-3.8577110">
        <ele>711.9</ele>
        <time>2021-05-08T06:30:13Z</time>
      </trkpt>
      <trkpt lat="40.3929790" lon="-3.8578760">
        <ele>711.7</ele>
        <time>2021-05-08T06:30:15Z</time>
      </trkpt>
      <trkpt lat="40.3929850" lon="-3.8579660">
        <ele>711.6</ele>
        <time>2021-05-08T06:30:16Z</time>
      </trkpt>
      <trkpt lat="40.3929960" lon="-3.8581360">
        <ele>711.5</ele>
        <time>2021-05-08T06:30:18Z</time>
      </trkpt>
      <trkpt lat="40.3930010" lon="-3.8582170">
        <ele>711.5</ele>
        <time>2021-05-08T06:30:19Z</time>
      </trkpt>
      <trkpt lat="40.3930120" lon="-3.8583750">
        <ele>711.6</ele>
        <time>2021-05-08T06:30:21Z</time>
      </trkpt>
      <trkpt lat="40.3930180" lon="-3.8584460">
        <ele>711.7</ele>
        <time>2021-05-08T06:30:22Z</time>
      </trkpt>
      <trkpt lat="40.3930250" lon="-3.8585120">
        <ele>711.8</ele>
        <time>2021-05-08T06:30:23Z</time>
      </trkpt>
      <trkpt lat="40.3930370" lon="-3.8586370">
        <ele>712.0</ele>
        <time>2021-05-08T06:30:25Z</time>
      </trkpt>
      <trkpt lat="40.3930520" lon="-3.8587600">
        <ele>712.1</ele>
        <time>2021-05-08T06:30:27Z</time>
      </trkpt>
      <trkpt lat="40.3930620" lon="-3.8588040">
        <ele>712.1</ele>
        <time>2021-05-08T06:30:28Z</time>
      </trkpt>
      <trkpt lat="40.3930800" lon="-3.8588510">
        <ele>712.1</ele>
        <time>2021-05-08T06:30:29Z</time>
      </trkpt>
      <trkpt lat="40.3931330" lon="-3.8588960">
        <ele>712.2</ele>
        <time>2021-05-08T06:30:31Z</time>
      </trkpt>
      <trkpt lat="40.3931750" lon="-3.8589220">
        <ele>712.2</ele>
        <time>2021-05-08T06:30:32Z</time>
      </trkpt>
      <trkpt lat="40.3932740" lon="-3.8589890">
        <ele>712.2</ele>
        <time>2021-05-08T06:30:34Z</time>
      </trkpt>
      <trkpt lat="40.3933180" lon="-3.8590330">
        <ele>712.3</ele>
        <time>2021-05-08T06:30:35Z</time>
      </trkpt>
      <trkpt lat="40.3933540" lon="-3.8590850">
        <ele>712.3</ele>
        <time>2021-05-08T06:30:36Z</time>
      </trkpt>
      <trkpt lat="40.3933870" lon="-3.8592260">
        <ele>712.4</ele>
        <time>2021-05-08T06:30:38Z</time>
      </trkpt>
      <trkpt lat="40.3933790" lon="-3.8593720">
        <ele>712.4</ele>
        <time>2021-05-08T06:30:40Z</time>
      </trkpt>
      <trkpt lat="40.3933590" lon="-3.8594410">
        <ele>712.5</ele>
        <time>2021-05-08T06:30:41Z</time>
      </trkpt>
      <trkpt lat="40.3933190" lon="-3.8595910">
        <ele>712.6</ele>
        <time>2021-05-08T06:30:43Z</time>
      </trkpt>
      <trkpt lat="40.3933290" lon="-3.8596440">
        <ele>712.6</ele>
        <time>2021-05-08T06:30:44Z</time>
      </trkpt>
      <trkpt lat="40.3933580" lon="-3.8597000">
        <ele>712.6</ele>
        <time>2021-05-08T06:30:45Z</time>
      </trkpt>
      <trkpt lat="40.3934420" lon="-3.8598090">
        <ele>712.6</ele>
        <time>2021-05-08T06:30:47Z</time>
      </trkpt>
      <trkpt lat="40.3934780" lon="-3.8598670">
        <ele>712.7</ele>
        <time>2021-05-08T06:30:48Z</time>
      </trkpt>
      <trkpt lat="40.3935440" lon="-3.8599640">
        <ele>712.7</ele>
        <time>2021-05-08T06:30:50Z</time>
      </trkpt>
      <trkpt lat="40.3936130" lon="-3.8600740">
        <ele>712.7</ele>
        <time>2021-05-08T06:30:52Z</time>
      </trkpt>
      <trkpt lat="40.3936470" lon="-3.8601300">
        <ele>712.6</ele>
        <time>2021-05-08T06:30:53Z</time>
      </trkpt>
      <trkpt lat="40.3937140" lon="-3.8602540">
        <ele>712.5</ele>
        <time>2021-05-08T06:30:55Z</time>
      </trkpt>
      <trkpt lat="40.3937490" lon="-3.8603150">
        <ele>712.5</ele>
        <time>2021-05-08T06:30:56Z</time>
      </trkpt>
      <trkpt lat="40.3937860" lon="-3.8603750">
        <ele>712.4</ele>
        <time>2021-05-08T06:30:57Z</time>
      </trkpt>
      <trkpt lat="40.3938600" lon="-3.8604960">
        <ele>712.3</ele>
        <time>2021-05-08T06:30:59Z</time>
      </trkpt>
      <trkpt lat="40.3939310" lon="-3.8606160">
        <ele>712.1</ele>
        <time>2021-05-08T06:31:01Z</time>
      </trkpt>
      <trkpt lat="40.3939640" lon="-3.8606750">
        <ele>712.1</ele>
        <time>2021-05-08T06:31:02Z</time>
      </trkpt>
      <trkpt lat="40.3940370" lon="-3.8608040">
        <ele>711.9</ele>
        <time>2021-05-08T06:31:04Z</time>
      </trkpt>
      <trkpt lat="40.3940680" lon="-3.8608580">
        <ele>711.9</ele>
        <time>2021-05-08T06:31:05Z</time>
      </trkpt>
      <trkpt lat="40.3941330" lon="-3.8609820">
        <ele>711.7</ele>
        <time>2021-05-08T06:31:07Z</time>
      </trkpt>
      <trkpt lat="40.3941990" lon="-3.8611140">
        <ele>711.6</ele>
        <time>2021-05-08T06:31:09Z</time>
      </trkpt>
      <trkpt lat="40.3942700" lon="-3.8612380">
        <ele>711.4</ele>
        <time>2021-05-08T06:31:11Z</time>
      </trkpt>
      <trkpt lat="40.3943410" lon="-3.8613660">
        <ele>711.3</ele>
        <time>2021-05-08T06:31:13Z</time>
      </trkpt>
      <trkpt lat="40.3943760" lon="-3.8614310">
        <ele>711.2</ele>
        <time>2021-05-08T06:31:14Z</time>
      </trkpt>
      <trkpt lat="40.3944080" lon="-3.8615060">
        <ele>711.1</ele>
        <time>2021-05-08T06:31:15Z</time>
      </trkpt>
      <trkpt lat="40.3944760" lon="-3.8616470">
        <ele>710.9</ele>
        <time>2021-05-08T06:31:17Z</time>
      </trkpt>
      <trkpt lat="40.3945380" lon="-3.8617920">
        <ele>710.8</ele>
        <time>2021-05-08T06:31:19Z</time>
      </trkpt>
      <trkpt lat="40.3945680" lon="-3.8618650">
        <ele>710.7</ele>
        <time>2021-05-08T06:31:20Z</time>
      </trkpt>
      <trkpt lat="40.3946270" lon="-3.8620150">
        <ele>710.5</ele>
        <time>2021-05-08T06:31:22Z</time>
      </trkpt>
      <trkpt lat="40.3946540" lon="-3.8620890">
        <ele>710.5</ele>
        <time>2021-05-08T06:31:23Z</time>
      </trkpt>
      <trkpt lat="40.3946980" lon="-3.8622340">
        <ele>710.4</ele>
        <time>2021-05-08T06:31:25Z</time>
      </trkpt>
      <trkpt lat="40.3947220" lon="-3.8623070">
        <ele>710.3</ele>
        <time>2021-05-08T06:31:26Z</time>
      </trkpt>
      <trkpt lat="40.3947650" lon="-3.8624470">
        <ele>710.2</ele>
        <time>2021-05-08T06:31:28Z</time>
      </trkpt>
      <trkpt lat="40.3947810" lon="-3.8625240">
        <ele>710.2</ele>
        <time>2021-05-08T06:31:29Z</time>
      </trkpt>
      <trkpt lat="40.3948160" lon="-3.8626640">
        <ele>710.1</ele>
        <time>2021-05-08T06:31:31Z</time>
      </trkpt>
      <trkpt lat="40.3948780" lon="-3.8627860">
        <ele>710.0</ele>
        <time>2021-05-08T06:31:33Z</time>
      </trkpt>
      <trkpt lat="40.3949840" lon="-3.8628830">
        <ele>709.9</ele>
        <time>2021-05-08T06:31:35Z</time>
      </trkpt>
      <trkpt lat="40.3950340" lon="-3.8629370">
        <ele>709.8</ele>
        <time>2021-05-08T06:31:36Z</time>
      </trkpt>
      <trkpt lat="40.3950930" lon="-3.8630630">
        <ele>709.6</ele>
        <time>2021-05-08T06:31:38Z</time>
      </trkpt>
      <trkpt lat="40.3950980" lon="-3.8631330">
        <ele>709.6</ele>
        <time>2021-05-08T06:31:39Z</time>
      </trkpt>
      <trkpt lat="40.3950770" lon="-3.8632840">
        <ele>709.4</ele>
        <time>2021-05-08T06:31:41Z</time>
      </trkpt>
      <trkpt lat="40.3950480" lon="-3.8633630">
        <ele>709.3</ele>
        <time>2021-05-08T06:31:42Z</time>
      </trkpt>
      <trkpt lat="40.3950110" lon="-3.8634340">
        <ele>709.3</ele>
        <time>2021-05-08T06:31:43Z</time>
      </trkpt>
      <trkpt lat="40.3949630" lon="-3.8635830">
        <ele>709.1</ele>
        <time>2021-05-08T06:31:45Z</time>
      </trkpt>
      <trkpt lat="40.3949840" lon="-3.8637290">
        <ele>709.0</ele>
        <time>2021-05-08T06:31:47Z</time>
      </trkpt>
      <trkpt lat="40.3950050" lon="-3.8637980">
        <ele>709.0</ele>
        <time>2021-05-08T06:31:48Z</time>
      </trkpt>
      <trkpt lat="40.3950230" lon="-3.8638690">
        <ele>709.0</ele>
        <time>2021-05-08T06:31:49Z</time>
      </trkpt>
      <trkpt lat="40.3950560" lon="-3.8640140">
        <ele>708.9</ele>
        <time>2021-05-08T06:31:51Z</time>
      </trkpt>
      <trkpt lat="40.3950850" lon="-3.8641630">
        <ele>708.8</ele>
        <time>2021-05-08T06:31:53Z</time>
      </trkpt>
      <trkpt lat="40.3951160" lon="-3.8643150">
        <ele>708.7</ele>
        <time>2021-05-08T06:31:55Z</time>
      </trkpt>
      <trkpt lat="40.3951320" lon="-3.8643910">
        <ele>708.6</ele>
        <time>2021-05-08T06:31:56Z</time>
      </trkpt>
      <trkpt lat="40.3951620" lon="-3.8645430">
        <ele>708.3</ele>
        <time>2021-05-08T06:31:58Z</time>
      </trkpt>
      <trkpt lat="40.3951830" lon="-3.8646220">
        <ele>708.1</ele>
        <time>2021-05-08T06:31:59Z</time>
      </trkpt>
      <trkpt lat="40.3952040" lon="-3.8647040">
        <ele>707.9</ele>
        <time>2021-05-08T06:32:00Z</time>
      </trkpt>
      <trkpt lat="40.3952480" lon="-3.8648780">
        <ele>707.2</ele>
        <time>2021-05-08T06:32:02Z</time>
      </trkpt>
      <trkpt lat="40.3952800" lon="-3.8649950">
        <ele>706.7</ele>
        <time>2021-05-08T06:32:04Z</time>
      </trkpt>
      <trkpt lat="40.3953240" lon="-3.8651600">
        <ele>705.8</ele>
        <time>2021-05-08T06:32:05Z</time>
      </trkpt>
      <trkpt lat="40.3953820" lon="-3.8653750">
        <ele>704.4</ele>
        <time>2021-05-08T06:32:07Z</time>
      </trkpt>
      <trkpt lat="40.3954450" lon="-3.8655960">
        <ele>702.8</ele>
        <time>2021-05-08T06:32:09Z</time>
      </trkpt>
      <trkpt lat="40.3955100" lon="-3.8658320">
        <ele>701.0</ele>
        <time>2021-05-08T06:32:11Z</time>
      </trkpt>
      <trkpt lat="40.3955450" lon="-3.8659580">
        <ele>700.1</ele>
        <time>2021-05-08T06:32:12Z</time>
      </trkpt>
      <trkpt lat="40.3956180" lon="-3.8662170">
        <ele>698.2</ele>
        <time>2021-05-08T06:32:14Z</time>
      </trkpt>
      <trkpt lat="40.3956560" lon="-3.8663520">
        <ele>697.4</ele>
        <time>2021-05-08T06:32:15Z</time>
      </trkpt>
      <trkpt lat="40.3957330" lon="-3.8666240">
        <ele>695.9</ele>
        <time>2021-05-08T06:32:17Z</time>
      </trkpt>
      <trkpt lat="40.3958070" lon="-3.8668840">
        <ele>694.7</ele>
        <time>2021-05-08T06:32:19Z</time>
      </trkpt>
      <trkpt lat="40.3958790" lon="-3.8671380">
        <ele>693.8</ele>
        <time>2021-05-08T06:32:21Z</time>
      </trkpt>
      <trkpt lat="40.3959460" lon="-3.8673740">
        <ele>693.2</ele>
        <time>2021-05-08T06:32:23Z</time>
      </trkpt>
      <trkpt lat="40.3960060" lon="-3.8675880">
        <ele>692.8</ele>
        <time>2021-05-08T06:32:25Z</time>
      </trkpt>
      <trkpt lat="40.3960610" lon="-3.8677870">
        <ele>692.5</ele>
        <time>2021-05-08T06:32:27Z</time>
      </trkpt>
      <trkpt lat="40.3960890" lon="-3.8678880">
        <ele>692.5</ele>
        <time>2021-05-08T06:32:28Z</time>
      </trkpt>
      <trkpt lat="40.3961370" lon="-3.8680910">
        <ele>692.4</ele>
        <time>2021-05-08T06:32:30Z</time>
      </trkpt>
      <trkpt lat="40.3961580" lon="-3.8681940">
        <ele>692.4</ele>
        <time>2021-05-08T06:32:31Z</time>
      </trkpt>
      <trkpt lat="40.3961780" lon="-3.8682960">
        <ele>692.4</ele>
        <time>2021-05-08T06:32:32Z</time>
      </trkpt>
      <trkpt lat="40.3961920" lon="-3.8684010">
        <ele>692.4</ele>
        <time>2021-05-08T06:32:33Z</time>
      </trkpt>
      <trkpt lat="40.3962100" lon="-3.8685920">
        <ele>692.6</ele>
        <time>2021-05-08T06:32:35Z</time>
      </trkpt>
      <trkpt lat="40.3962660" lon="-3.8687200">
        <ele>693.1</ele>
        <time>2021-05-08T06:32:37Z</time>
      </trkpt>
      <trkpt lat="40.3963860" lon="-3.8687280">
        <ele>692.9</ele>
        <time>2021-05-08T06:32:39Z</time>
      </trkpt>
      <trkpt lat="40.3964490" lon="-3.8687260">
        <ele>692.8</ele>
        <time>2021-05-08T06:32:40Z</time>
      </trkpt>
      <trkpt lat="40.3965110" lon="-3.8687290">
        <ele>692.7</ele>
        <time>2021-05-08T06:32:41Z</time>
      </trkpt>
      <trkpt lat="40.3966250" lon="-3.8687710">
        <ele>692.4</ele>
        <time>2021-05-08T06:32:43Z</time>
      </trkpt>
      <trkpt lat="40.3966790" lon="-3.8688140">
        <ele>692.2</ele>
        <time>2021-05-08T06:32:44Z</time>
      </trkpt>
      <trkpt lat="40.3967270" lon="-3.8688570">
        <ele>692.0</ele>
        <time>2021-05-08T06:32:45Z</time>
      </trkpt>
      <trkpt lat="40.3968200" lon="-3.8689670">
        <ele>691.8</ele>
        <time>2021-05-08T06:32:47Z</time>
      </trkpt>
      <trkpt lat="40.3969070" lon="-3.8690870">
        <ele>691.5</ele>
        <time>2021-05-08T06:32:49Z</time>
      </trkpt>
      <trkpt lat="40.3969580" lon="-3.8691390">
        <ele>691.3</ele>
        <time>2021-05-08T06:32:50Z</time>
      </trkpt>
      <trkpt lat="40.3970840" lon="-3.8691890">
        <ele>691.1</ele>
        <time>2021-05-08T06:32:52Z</time>
      </trkpt>
      <trkpt lat="40.3972190" lon="-3.8692080">
        <ele>690.9</ele>
        <time>2021-05-08T06:32:54Z</time>
      </trkpt>
      <trkpt lat="40.3972830" lon="-3.8692070">
        <ele>690.8</ele>
        <time>2021-05-08T06:32:55Z</time>
      </trkpt>
      <trkpt lat="40.3973460" lon="-3.8692080">
        <ele>690.7</ele>
        <time>2021-05-08T06:32:56Z</time>
      </trkpt>
      <trkpt lat="40.3974660" lon="-3.8692090">
        <ele>690.4</ele>
        <time>2021-05-08T06:32:58Z</time>
      </trkpt>
      <trkpt lat="40.3975250" lon="-3.8692060">
        <ele>690.3</ele>
        <time>2021-05-08T06:32:59Z</time>
      </trkpt>
      <trkpt lat="40.3975840" lon="-3.8692040">
        <ele>690.2</ele>
        <time>2021-05-08T06:33:00Z</time>
      </trkpt>
      <trkpt lat="40.3977000" lon="-3.8692050">
        <ele>690.0</ele>
        <time>2021-05-08T06:33:02Z</time>
      </trkpt>
      <trkpt lat="40.3978190" lon="-3.8691960">
        <ele>689.7</ele>
        <time>2021-05-08T06:33:04Z</time>
      </trkpt>
      <trkpt lat="40.3979350" lon="-3.8691940">
        <ele>689.4</ele>
        <time>2021-05-08T06:33:06Z</time>
      </trkpt>
      <trkpt lat="40.3980640" lon="-3.8691830">
        <ele>689.1</ele>
        <time>2021-05-08T06:33:08Z</time>
      </trkpt>
      <trkpt lat="40.3981280" lon="-3.8691760">
        <ele>688.8</ele>
        <time>2021-05-08T06:33:09Z</time>
      </trkpt>
      <trkpt lat="40.3981930" lon="-3.8691700">
        <ele>688.6</ele>
        <time>2021-05-08T06:33:10Z</time>
      </trkpt>
      <trkpt lat="40.3982590" lon="-3.8691690">
        <ele>688.3</ele>
        <time>2021-05-08T06:33:11Z</time>
      </trkpt>
      <trkpt lat="40.3983310" lon="-3.8691660">
        <ele>688.0</ele>
        <time>2021-05-08T06:33:12Z</time>
      </trkpt>
      <trkpt lat="40.3984770" lon="-3.8691510">
        <ele>687.4</ele>
        <time>2021-05-08T06:33:14Z</time>
      </trkpt>
      <trkpt lat="40.3986250" lon="-3.8691320">
        <ele>686.8</ele>
        <time>2021-05-08T06:33:16Z</time>
      </trkpt>
      <trkpt lat="40.3987780" lon="-3.8691190">
        <ele>686.3</ele>
        <time>2021-05-08T06:33:18Z</time>
      </trkpt>
      <trkpt lat="40.3988530" lon="-3.8691150">
        <ele>686.1</ele>
        <time>2021-05-08T06:33:19Z</time>
      </trkpt>
      <trkpt lat="40.3989250" lon="-3.8691090">
        <ele>685.9</ele>
        <time>2021-05-08T06:33:20Z</time>
      </trkpt>
      <trkpt lat="40.3990590" lon="-3.8690940">
        <ele>685.7</ele>
        <time>2021-05-08T06:33:22Z</time>
      </trkpt>
      <trkpt lat="40.3991890" lon="-3.8690700">
        <ele>685.7</ele>
        <time>2021-05-08T06:33:24Z</time>
      </trkpt>
      <trkpt lat="40.3993030" lon="-3.8690390">
        <ele>685.8</ele>
        <time>2021-05-08T06:33:26Z</time>
      </trkpt>
      <trkpt lat="40.3994210" lon="-3.8690190">
        <ele>686.2</ele>
        <time>2021-05-08T06:33:28Z</time>
      </trkpt>
      <trkpt lat="40.3995250" lon="-3.8690030">
        <ele>686.6</ele>
        <time>2021-05-08T06:33:30Z</time>
      </trkpt>
      <trkpt lat="40.3995750" lon="-3.8689940">
        <ele>686.8</ele>
        <time>2021-05-08T06:33:31Z</time>
      </trkpt>
      <trkpt lat="40.3996650" lon="-3.8689720">
        <ele>687.1</ele>
        <time>2021-05-08T06:33:33Z</time>
      </trkpt>
      <trkpt lat="40.3997110" lon="-3.8689620">
        <ele>687.3</ele>
        <time>2021-05-08T06:33:34Z</time>
      </trkpt>
      <trkpt lat="40.3997590" lon="-3.8689490">
        <ele>687.5</ele>
        <time>2021-05-08T06:33:35Z</time>
      </trkpt>
      <trkpt lat="40.3998060" lon="-3.8689380">
        <ele>687.7</ele>
        <time>2021-05-08T06:33:36Z</time>
      </trkpt>
      <trkpt lat="40.3999020" lon="-3.8689300">
        <ele>688.1</ele>
        <time>2021-05-08T06:33:38Z</time>
      </trkpt>
      <trkpt lat="40.3999940" lon="-3.8689230">
        <ele>688.5</ele>
        <time>2021-05-08T06:33:40Z</time>
      </trkpt>
      <trkpt lat="40.4000580" lon="-3.8689200">
        <ele>688.7</ele>
        <time>2021-05-08T06:33:42Z</time>
      </trkpt>
      <trkpt lat="40.4001150" lon="-3.8689150">
        <ele>689.0</ele>
        <time>2021-05-08T06:33:43Z</time>
      </trkpt>
      <trkpt lat="40.4001640" lon="-3.8689110">
        <ele>689.2</ele>
        <time>2021-05-08T06:33:44Z</time>
      </trkpt>
      <trkpt lat="40.4002160" lon="-3.8689020">
        <ele>689.5</ele>
        <time>2021-05-08T06:33:46Z</time>
      </trkpt>
      <trkpt lat="40.4002880" lon="-3.8688830">
        <ele>689.8</ele>
        <time>2021-05-08T06:33:47Z</time>
      </trkpt>
      <trkpt lat="40.4003480" lon="-3.8688390">
        <ele>690.1</ele>
        <time>2021-05-08T06:33:49Z</time>
      </trkpt>
      <trkpt lat="40.4004210" lon="-3.8687720">
        <ele>690.5</ele>
        <time>2021-05-08T06:33:51Z</time>
      </trkpt>
      <trkpt lat="40.4004450" lon="-3.8687390">
        <ele>690.7</ele>
        <time>2021-05-08T06:33:52Z</time>
      </trkpt>
      <trkpt lat="40.4004850" lon="-3.8686890">
        <ele>690.9</ele>
        <time>2021-05-08T06:33:53Z</time>
      </trkpt>
      <trkpt lat="40.4005430" lon="-3.8686120">
        <ele>691.2</ele>
        <time>2021-05-08T06:33:55Z</time>
      </trkpt>
      <trkpt lat="40.4006010" lon="-3.8685410">
        <ele>691.5</ele>
        <time>2021-05-08T06:33:57Z</time>
      </trkpt>
      <trkpt lat="40.4006310" lon="-3.8685150">
        <ele>691.6</ele>
        <time>2021-05-08T06:33:58Z</time>
      </trkpt>
      <trkpt lat="40.4007010" lon="-3.8684670">
        <ele>691.9</ele>
        <time>2021-05-08T06:34:00Z</time>
      </trkpt>
      <trkpt lat="40.4007810" lon="-3.8684380">
        <ele>692.1</ele>
        <time>2021-05-08T06:34:02Z</time>
      </trkpt>
      <trkpt lat="40.4008660" lon="-3.8684220">
        <ele>692.4</ele>
        <time>2021-05-08T06:34:04Z</time>
      </trkpt>
      <trkpt lat="40.4009720" lon="-3.8684340">
        <ele>693.1</ele>
        <time>2021-05-08T06:34:06Z</time>
      </trkpt>
      <trkpt lat="40.4010220" lon="-3.8684500">
        <ele>693.3</ele>
        <time>2021-05-08T06:34:07Z</time>
      </trkpt>
      <trkpt lat="40.4010680" lon="-3.8684760">
        <ele>693.6</ele>
        <time>2021-05-08T06:34:08Z</time>
      </trkpt>
      <trkpt lat="40.4011590" lon="-3.8685480">
        <ele>693.8</ele>
        <time>2021-05-08T06:34:10Z</time>
      </trkpt>
      <trkpt lat="40.4012000" lon="-3.8685910">
        <ele>693.6</ele>
        <time>2021-05-08T06:34:11Z</time>
      </trkpt>
      <trkpt lat="40.4012390" lon="-3.8686400">
        <ele>693.5</ele>
        <time>2021-05-08T06:34:12Z</time>
      </trkpt>
      <trkpt lat="40.4012760" lon="-3.8687000">
        <ele>693.3</ele>
        <time>2021-05-08T06:34:13Z</time>
      </trkpt>
      <trkpt lat="40.4013240" lon="-3.8688340">
        <ele>692.9</ele>
        <time>2021-05-08T06:34:15Z</time>
      </trkpt>
      <trkpt lat="40.4013560" lon="-3.8689850">
        <ele>692.5</ele>
        <time>2021-05-08T06:34:17Z</time>
      </trkpt>
      <trkpt lat="40.4013600" lon="-3.8690740">
        <ele>692.2</ele>
        <time>2021-05-08T06:34:18Z</time>
      </trkpt>
      <trkpt lat="40.4013510" lon="-3.8692540">
        <ele>691.6</ele>
        <time>2021-05-08T06:34:20Z</time>
      </trkpt>
      <trkpt lat="40.4013670" lon="-3.8694280">
        <ele>691.2</ele>
        <time>2021-05-08T06:34:22Z</time>
      </trkpt>
      <trkpt lat="40.4013930" lon="-3.8695050">
        <ele>690.9</ele>
        <time>2021-05-08T06:34:23Z</time>
      </trkpt>
      <trkpt lat="40.4014280" lon="-3.8695750">
        <ele>690.7</ele>
        <time>2021-05-08T06:34:24Z</time>
      </trkpt>
      <trkpt lat="40.4014630" lon="-3.8696410">
        <ele>690.5</ele>
        <time>2021-05-08T06:34:25Z</time>
      </trkpt>
      <trkpt lat="40.4015430" lon="-3.8697760">
        <ele>690.1</ele>
        <time>2021-05-08T06:34:27Z</time>
      </trkpt>
      <trkpt lat="40.4015790" lon="-3.8698400">
        <ele>689.8</ele>
        <time>2021-05-08T06:34:28Z</time>
      </trkpt>
      <trkpt lat="40.4016530" lon="-3.8699700">
        <ele>689.1</ele>
        <time>2021-05-08T06:34:30Z</time>
      </trkpt>
      <trkpt lat="40.4017370" lon="-3.8701080">
        <ele>688.1</ele>
        <time>2021-05-08T06:34:32Z</time>
      </trkpt>
      <trkpt lat="40.4017780" lon="-3.8701870">
        <ele>687.5</ele>
        <time>2021-05-08T06:34:33Z</time>
      </trkpt>
      <trkpt lat="40.4018750" lon="-3.8703820">
        <ele>686.1</ele>
        <time>2021-05-08T06:34:35Z</time>
      </trkpt>
      <trkpt lat="40.4019810" lon="-3.8705970">
        <ele>684.4</ele>
        <time>2021-05-08T06:34:37Z</time>
      </trkpt>
      <trkpt lat="40.4020990" lon="-3.8708210">
        <ele>682.5</ele>
        <time>2021-05-08T06:34:39Z</time>
      </trkpt>
      <trkpt lat="40.4022320" lon="-3.8710640">
        <ele>680.5</ele>
        <time>2021-05-08T06:34:41Z</time>
      </trkpt>
      <trkpt lat="40.4022990" lon="-3.8711950">
        <ele>679.4</ele>
        <time>2021-05-08T06:34:42Z</time>
      </trkpt>
      <trkpt lat="40.4024360" lon="-3.8714620">
        <ele>677.3</ele>
        <time>2021-05-08T06:34:44Z</time>
      </trkpt>
      <trkpt lat="40.4025060" lon="-3.8715950">
        <ele>676.1</ele>
        <time>2021-05-08T06:34:45Z</time>
      </trkpt>
      <trkpt lat="40.4026520" lon="-3.8718700">
        <ele>673.9</ele>
        <time>2021-05-08T06:34:47Z</time>
      </trkpt>
      <trkpt lat="40.4028060" lon="-3.8721400">
        <ele>671.9</ele>
        <time>2021-05-08T06:34:49Z</time>
      </trkpt>
      <trkpt lat="40.4029740" lon="-3.8723950">
        <ele>670.4</ele>
        <time>2021-05-08T06:34:51Z</time>
      </trkpt>
      <trkpt lat="40.4030670" lon="-3.8725130">
        <ele>669.9</ele>
        <time>2021-05-08T06:34:52Z</time>
      </trkpt>
      <trkpt lat="40.4031730" lon="-3.8726450">
        <ele>669.4</ele>
        <time>2021-05-08T06:34:53Z</time>
      </trkpt>
      <trkpt lat="40.4033420" lon="-3.8728620">
        <ele>668.2</ele>
        <time>2021-05-08T06:34:55Z</time>
      </trkpt>
      <trkpt lat="40.4035200" lon="-3.8730910">
        <ele>667.0</ele>
        <time>2021-05-08T06:34:57Z</time>
      </trkpt>
      <trkpt lat="40.4036800" lon="-3.8732880">
        <ele>666.1</ele>
        <time>2021-05-08T06:34:59Z</time>
      </trkpt>
      <trkpt lat="40.4037520" lon="-3.8733830">
        <ele>665.8</ele>
        <time>2021-05-08T06:35:00Z</time>
      </trkpt>
      <trkpt lat="40.4038820" lon="-3.8735470">
        <ele>665.3</ele>
        <time>2021-05-08T06:35:02Z</time>
      </trkpt>
      <trkpt lat="40.4039860" lon="-3.8737050">
        <ele>664.8</ele>
        <time>2021-05-08T06:35:04Z</time>
      </trkpt>
      <trkpt lat="40.4040850" lon="-3.8738390">
        <ele>664.6</ele>
        <time>2021-05-08T06:35:06Z</time>
      </trkpt>
      <trkpt lat="40.4041910" lon="-3.8739590">
        <ele>664.4</ele>
        <time>2021-05-08T06:35:08Z</time>
      </trkpt>
      <trkpt lat="40.4042820" lon="-3.8740710">
        <ele>664.8</ele>
        <time>2021-05-08T06:35:10Z</time>
      </trkpt>
      <trkpt lat="40.4043660" lon="-3.8741680">
        <ele>665.4</ele>
        <time>2021-05-08T06:35:12Z</time>
      </trkpt>
      <trkpt lat="40.4044090" lon="-3.8742130">
        <ele>665.7</ele>
        <time>2021-05-08T06:35:13Z</time>
      </trkpt>
      <trkpt lat="40.4044740" lon="-3.8742990">
        <ele>666.0</ele>
        <time>2021-05-08T06:35:15Z</time>
      </trkpt>
      <trkpt lat="40.4045280" lon="-3.8743660">
        <ele>666.1</ele>
        <time>2021-05-08T06:35:17Z</time>
      </trkpt>
      <trkpt lat="40.4045670" lon="-3.8744140">
        <ele>666.3</ele>
        <time>2021-05-08T06:35:18Z</time>
      </trkpt>
      <trkpt lat="40.4046400" lon="-3.8744970">
        <ele>666.6</ele>
        <time>2021-05-08T06:35:20Z</time>
      </trkpt>
      <trkpt lat="40.4046590" lon="-3.8745230">
        <ele>666.7</ele>
        <time>2021-05-08T06:35:21Z</time>
      </trkpt>
      <trkpt lat="40.4046970" lon="-3.8745640">
        <ele>666.8</ele>
        <time>2021-05-08T06:35:22Z</time>
      </trkpt>
      <trkpt lat="40.4047170" lon="-3.8745160">
        <ele>666.9</ele>
        <time>2021-05-08T06:35:23Z</time>
      </trkpt>
      <trkpt lat="40.4047650" lon="-3.8745770">
        <ele>667.2</ele>
        <time>2021-05-08T06:35:25Z</time>
      </trkpt>
      <trkpt lat="40.4048090" lon="-3.8746500">
        <ele>667.4</ele>
        <time>2021-05-08T06:35:26Z</time>
      </trkpt>
      <trkpt lat="40.4048430" lon="-3.8747040">
        <ele>667.6</ele>
        <time>2021-05-08T06:35:27Z</time>
      </trkpt>
      <trkpt lat="40.4048900" lon="-3.8747780">
        <ele>667.8</ele>
        <time>2021-05-08T06:35:29Z</time>
      </trkpt>
      <trkpt lat="40.4049230" lon="-3.8748300">
        <ele>668.0</ele>
        <time>2021-05-08T06:35:30Z</time>
      </trkpt>
      <trkpt lat="40.4049780" lon="-3.8749020">
        <ele>668.3</ele>
        <time>2021-05-08T06:35:32Z</time>
      </trkpt>
      <trkpt lat="40.4050070" lon="-3.8749380">
        <ele>668.4</ele>
        <time>2021-05-08T06:35:33Z</time>
      </trkpt>
      <trkpt lat="40.4050350" lon="-3.8749760">
        <ele>668.5</ele>
        <time>2021-05-08T06:35:34Z</time>
      </trkpt>
      <trkpt lat="40.4050920" lon="-3.8750500">
        <ele>668.8</ele>
        <time>2021-05-08T06:35:36Z</time>
      </trkpt>
      <trkpt lat="40.4051270" lon="-3.8750930">
        <ele>669.0</ele>
        <time>2021-05-08T06:35:37Z</time>
      </trkpt>
      <trkpt lat="40.4051550" lon="-3.8751250">
        <ele>669.1</ele>
        <time>2021-05-08T06:35:38Z</time>
      </trkpt>
      <trkpt lat="40.4052140" lon="-3.8751860">
        <ele>669.4</ele>
        <time>2021-05-08T06:35:40Z</time>
      </trkpt>
      <trkpt lat="40.4052780" lon="-3.8752610">
        <ele>669.7</ele>
        <time>2021-05-08T06:35:42Z</time>
      </trkpt>
      <trkpt lat="40.4053100" lon="-3.8753000">
        <ele>669.9</ele>
        <time>2021-05-08T06:35:43Z</time>
      </trkpt>
      <trkpt lat="40.4053380" lon="-3.8753350">
        <ele>670.0</ele>
        <time>2021-05-08T06:35:44Z</time>
      </trkpt>
      <trkpt lat="40.4053720" lon="-3.8753790">
        <ele>670.2</ele>
        <time>2021-05-08T06:35:45Z</time>
      </trkpt>
      <trkpt lat="40.4054080" lon="-3.8754310">
        <ele>670.4</ele>
        <time>2021-05-08T06:35:47Z</time>
      </trkpt>
      <trkpt lat="40.4054220" lon="-3.8754610">
        <ele>670.5</ele>
        <time>2021-05-08T06:35:48Z</time>
      </trkpt>
      <trkpt lat="40.4054220" lon="-3.8755250">
        <ele>670.7</ele>
        <time>2021-05-08T06:35:50Z</time>
      </trkpt>
      <trkpt lat="40.4053880" lon="-3.8755630">
        <ele>670.9</ele>
        <time>2021-05-08T06:35:51Z</time>
      </trkpt>
      <trkpt lat="40.4053050" lon="-3.8756360">
        <ele>670.3</ele>
        <time>2021-05-08T06:35:53Z</time>
      </trkpt>
      <trkpt lat="40.4052680" lon="-3.8756900">
        <ele>670.0</ele>
        <time>2021-05-08T06:35:54Z</time>
      </trkpt>
      <trkpt lat="40.4052340" lon="-3.8757470">
        <ele>669.7</ele>
        <time>2021-05-08T06:35:55Z</time>
      </trkpt>
      <trkpt lat="40.4051670" lon="-3.8758700">
        <ele>669.1</ele>
        <time>2021-05-08T06:35:57Z</time>
      </trkpt>
      <trkpt lat="40.4050920" lon="-3.8759820">
        <ele>669.5</ele>
        <time>2021-05-08T06:35:59Z</time>
      </trkpt>
      <trkpt lat="40.4050440" lon="-3.8760360">
        <ele>670.8</ele>
        <time>2021-05-08T06:36:00Z</time>
      </trkpt>
      <trkpt lat="40.4049650" lon="-3.8761350">
        <ele>673.0</ele>
        <time>2021-05-08T06:36:02Z</time>
      </trkpt>
      <trkpt lat="40.4049330" lon="-3.8761750">
        <ele>673.1</ele>
        <time>2021-05-08T06:36:03Z</time>
      </trkpt>
      <trkpt lat="40.4048910" lon="-3.8762510">
        <ele>665.2</ele>
        <time>2021-05-08T06:36:05Z</time>
      </trkpt>
      <trkpt lat="40.4048650" lon="-3.8763210">
        <ele>665.3</ele>
        <time>2021-05-08T06:36:07Z</time>
      </trkpt>
      <trkpt lat="40.4048250" lon="-3.8763380">
        <ele>665.3</ele>
        <time>2021-05-08T06:36:08Z</time>
      </trkpt>
      <trkpt lat="40.4047790" lon="-3.8763070">
        <ele>665.3</ele>
        <time>2021-05-08T06:36:09Z</time>
      </trkpt>
      <trkpt lat="40.4047460" lon="-3.8762610">
        <ele>665.3</ele>
        <time>2021-05-08T06:36:10Z</time>
      </trkpt>
      <trkpt lat="40.4047270" lon="-3.8762240">
        <ele>665.3</ele>
        <time>2021-05-08T06:36:11Z</time>
      </trkpt>
      <trkpt lat="40.4046880" lon="-3.8762110">
        <ele>665.3</ele>
        <time>2021-05-08T06:36:13Z</time>
      </trkpt>
      <trkpt lat="40.4046400" lon="-3.8762290">
        <ele>665.3</ele>
        <time>2021-05-08T06:36:14Z</time>
      </trkpt>
      <trkpt lat="40.4046020" lon="-3.8762600">
        <ele>665.2</ele>
        <time>2021-05-08T06:36:15Z</time>
      </trkpt>
      <trkpt lat="40.4045690" lon="-3.8763010">
        <ele>665.2</ele>
        <time>2021-05-08T06:36:16Z</time>
      </trkpt>
      <trkpt lat="40.4044990" lon="-3.8763850">
        <ele>665.1</ele>
        <time>2021-05-08T06:36:18Z</time>
      </trkpt>
      <trkpt lat="40.4044510" lon="-3.8764480">
        <ele>665.0</ele>
        <time>2021-05-08T06:36:19Z</time>
      </trkpt>
      <trkpt lat="40.4044170" lon="-3.8764920">
        <ele>664.9</ele>
        <time>2021-05-08T06:36:21Z</time>
      </trkpt>
      <trkpt lat="40.4044050" lon="-3.8765060">
        <ele>664.9</ele>
        <time>2021-05-08T06:36:22Z</time>
      </trkpt>
      <trkpt lat="40.4043910" lon="-3.8765200">
        <ele>664.8</ele>
        <time>2021-05-08T06:36:23Z</time>
      </trkpt>
      <trkpt lat="40.4043730" lon="-3.8765500">
        <ele>664.8</ele>
        <time>2021-05-08T06:36:24Z</time>
      </trkpt>
      <trkpt lat="40.4043460" lon="-3.8766050">
        <ele>664.7</ele>
        <time>2021-05-08T06:36:25Z</time>
      </trkpt>
      <trkpt lat="40.4043080" lon="-3.8766580">
        <ele>664.6</ele>
        <time>2021-05-08T06:36:27Z</time>
      </trkpt>
      <trkpt lat="40.4042780" lon="-3.8767010">
        <ele>664.6</ele>
        <time>2021-05-08T06:36:28Z</time>
      </trkpt>
      <trkpt lat="40.4042150" lon="-3.8767940">
        <ele>664.5</ele>
        <time>2021-05-08T06:36:30Z</time>
      </trkpt>
      <trkpt lat="40.4041520" lon="-3.8768780">
        <ele>664.4</ele>
        <time>2021-05-08T06:36:32Z</time>
      </trkpt>
      <trkpt lat="40.4041160" lon="-3.8769170">
        <ele>664.4</ele>
        <time>2021-05-08T06:36:33Z</time>
      </trkpt>
      <trkpt lat="40.4040570" lon="-3.8769800">
        <ele>664.5</ele>
        <time>2021-05-08T06:36:35Z</time>
      </trkpt>
      <trkpt lat="40.4040260" lon="-3.8770180">
        <ele>664.6</ele>
        <time>2021-05-08T06:36:36Z</time>
      </trkpt>
      <trkpt lat="40.4040030" lon="-3.8770760">
        <ele>664.7</ele>
        <time>2021-05-08T06:36:38Z</time>
      </trkpt>
      <trkpt lat="40.4039900" lon="-3.8771000">
        <ele>664.8</ele>
        <time>2021-05-08T06:36:39Z</time>
      </trkpt>
      <trkpt lat="40.4040010" lon="-3.8771540">
        <ele>664.9</ele>
        <time>2021-05-08T06:36:41Z</time>
      </trkpt>
      <trkpt lat="40.4040420" lon="-3.8771870">
        <ele>664.9</ele>
        <time>2021-05-08T06:36:42Z</time>
      </trkpt>
      <trkpt lat="40.4040780" lon="-3.8772080">
        <ele>664.9</ele>
        <time>2021-05-08T06:36:43Z</time>
      </trkpt>
      <trkpt lat="40.4041410" lon="-3.8772500">
        <ele>664.9</ele>
        <time>2021-05-08T06:36:45Z</time>
      </trkpt>
      <trkpt lat="40.4041620" lon="-3.8772630">
        <ele>664.9</ele>
        <time>2021-05-08T06:36:46Z</time>
      </trkpt>
      <trkpt lat="40.4041950" lon="-3.8772900">
        <ele>664.9</ele>
        <time>2021-05-08T06:36:48Z</time>
      </trkpt>
      <trkpt lat="40.4041890" lon="-3.8773010">
        <ele>664.9</ele>
        <time>2021-05-08T06:36:49Z</time>
      </trkpt>
      <trkpt lat="40.4041650" lon="-3.8773000">
        <ele>664.9</ele>
        <time>2021-05-08T06:36:51Z</time>
      </trkpt>
      <trkpt lat="40.4041610" lon="-3.8772980">
        <ele>664.9</ele>
        <time>2021-05-08T06:36:52Z</time>
      </trkpt>
      <trkpt lat="40.4041570" lon="-3.8772870">
        <ele>664.9</ele>
        <time>2021-05-08T06:36:54Z</time>
      </trkpt>
      <trkpt lat="40.4041520" lon="-3.8772760">
        <ele>664.9</ele>
        <time>2021-05-08T06:36:55Z</time>
      </trkpt>
      <trkpt lat="40.4041510" lon="-3.8772640">
        <ele>664.9</ele>
        <time>2021-05-08T06:36:56Z</time>
      </trkpt>
      <trkpt lat="40.4041380" lon="-3.8772610">
        <ele>664.9</ele>
        <time>2021-05-08T06:36:57Z</time>
      </trkpt>
      <trkpt lat="40.4041330" lon="-3.8772630">
        <ele>664.9</ele>
        <time>2021-05-08T06:36:58Z</time>
      </trkpt>
      <trkpt lat="40.4041270" lon="-3.8772640">
        <ele>664.9</ele>
        <time>2021-05-08T06:37:00Z</time>
      </trkpt>
      <trkpt lat="40.4041220" lon="-3.8772650">
        <ele>664.9</ele>
        <time>2021-05-08T06:37:01Z</time>
      </trkpt>
      <trkpt lat="40.4041170" lon="-3.8772660">
        <ele>664.9</ele>
        <time>2021-05-08T06:37:03Z</time>
      </trkpt>
      <trkpt lat="40.4041120" lon="-3.8772680">
        <ele>664.9</ele>
        <time>2021-05-08T06:37:04Z</time>
      </trkpt>
      <trkpt lat="40.4041060" lon="-3.8772690">
        <ele>664.9</ele>
        <time>2021-05-08T06:37:06Z</time>
      </trkpt>
      <trkpt lat="40.4041010" lon="-3.8772700">
        <ele>664.9</ele>
        <time>2021-05-08T06:37:08Z</time>
      </trkpt>
      <trkpt lat="40.4040960" lon="-3.8772720">
        <ele>664.9</ele>
        <time>2021-05-08T06:37:09Z</time>
      </trkpt>
      <trkpt lat="40.4040910" lon="-3.8772730">
        <ele>664.9</ele>
        <time>2021-05-08T06:37:10Z</time>
      </trkpt>
      <trkpt lat="40.4040850" lon="-3.8772740">
        <ele>664.9</ele>
        <time>2021-05-08T06:37:12Z</time>
      </trkpt>
      <trkpt lat="40.4040800" lon="-3.8772760">
        <ele>664.9</ele>
        <time>2021-05-08T06:37:13Z</time>
      </trkpt>
      <trkpt lat="40.4040750" lon="-3.8772770">
        <ele>664.9</ele>
        <time>2021-05-08T06:37:15Z</time>
      </trkpt>
      <trkpt lat="40.4040700" lon="-3.8772780">
        <ele>664.9</ele>
        <time>2021-05-08T06:37:16Z</time>
      </trkpt>
      <trkpt lat="40.4040640" lon="-3.8772790">
        <ele>664.9</ele>
        <time>2021-05-08T06:37:18Z</time>
      </trkpt>
      <trkpt lat="40.4040590" lon="-3.8772810">
        <ele>664.9</ele>
        <time>2021-05-08T06:37:19Z</time>
      </trkpt>
      <trkpt lat="40.4040540" lon="-3.8772820">
        <ele>664.6</ele>
        <time>2021-05-08T06:37:20Z</time>
      </trkpt>
      <trkpt lat="40.4040030" lon="-3.8772840">
        <ele>664.7</ele>
        <time>2021-05-08T06:37:22Z</time>
      </trkpt>
      <trkpt lat="40.4039580" lon="-3.8772840">
        <ele>664.7</ele>
        <time>2021-05-08T06:37:23Z</time>
      </trkpt>
      <trkpt lat="40.4039070" lon="-3.8773060">
        <ele>664.7</ele>
        <time>2021-05-08T06:37:24Z</time>
      </trkpt>
      <trkpt lat="40.4038670" lon="-3.8773460">
        <ele>664.8</ele>
        <time>2021-05-08T06:37:25Z</time>
      </trkpt>
      <trkpt lat="40.4038330" lon="-3.8774110">
        <ele>665.7</ele>
        <time>2021-05-08T06:37:27Z</time>
      </trkpt>
      <trkpt lat="40.4038010" lon="-3.8774600">
        <ele>665.7</ele>
        <time>2021-05-08T06:37:28Z</time>
      </trkpt>
      <trkpt lat="40.4037680" lon="-3.8774960">
        <ele>665.8</ele>
        <time>2021-05-08T06:37:29Z</time>
      </trkpt>
      <trkpt lat="40.4037130" lon="-3.8775750">
        <ele>665.8</ele>
        <time>2021-05-08T06:37:31Z</time>
      </trkpt>
      <trkpt lat="40.4036740" lon="-3.8776470">
        <ele>665.7</ele>
        <time>2021-05-08T06:37:32Z</time>
      </trkpt>
      <trkpt lat="40.4036370" lon="-3.8776840">
        <ele>665.7</ele>
        <time>2021-05-08T06:37:33Z</time>
      </trkpt>
      <trkpt lat="40.4036000" lon="-3.8777100">
        <ele>665.6</ele>
        <time>2021-05-08T06:37:34Z</time>
      </trkpt>
      <trkpt lat="40.4035590" lon="-3.8777310">
        <ele>665.4</ele>
        <time>2021-05-08T06:37:35Z</time>
      </trkpt>
      <trkpt lat="40.4035210" lon="-3.8777600">
        <ele>665.3</ele>
        <time>2021-05-08T06:37:36Z</time>
      </trkpt>
      <trkpt lat="40.4034450" lon="-3.8778540">
        <ele>665.0</ele>
        <time>2021-05-08T06:37:38Z</time>
      </trkpt>
      <trkpt lat="40.4034030" lon="-3.8779030">
        <ele>664.9</ele>
        <time>2021-05-08T06:37:39Z</time>
      </trkpt>
      <trkpt lat="40.4033610" lon="-3.8779500">
        <ele>664.8</ele>
        <time>2021-05-08T06:37:40Z</time>
      </trkpt>
      <trkpt lat="40.4032720" lon="-3.8780570">
        <ele>664.6</ele>
        <time>2021-05-08T06:37:42Z</time>
      </trkpt>
      <trkpt lat="40.4031950" lon="-3.8781590">
        <ele>664.3</ele>
        <time>2021-05-08T06:37:44Z</time>
      </trkpt>
      <trkpt lat="40.4031160" lon="-3.8782700">
        <ele>664.0</ele>
        <time>2021-05-08T06:37:46Z</time>
      </trkpt>
      <trkpt lat="40.4030270" lon="-3.8783700">
        <ele>663.6</ele>
        <time>2021-05-08T06:37:48Z</time>
      </trkpt>
      <trkpt lat="40.4029390" lon="-3.8784820">
        <ele>663.3</ele>
        <time>2021-05-08T06:37:50Z</time>
      </trkpt>
      <trkpt lat="40.4028500" lon="-3.8785810">
        <ele>663.0</ele>
        <time>2021-05-08T06:37:52Z</time>
      </trkpt>
      <trkpt lat="40.4027640" lon="-3.8786840">
        <ele>662.7</ele>
        <time>2021-05-08T06:37:54Z</time>
      </trkpt>
      <trkpt lat="40.4027220" lon="-3.8787420">
        <ele>662.5</ele>
        <time>2021-05-08T06:37:55Z</time>
      </trkpt>
      <trkpt lat="40.4026310" lon="-3.8788630">
        <ele>662.2</ele>
        <time>2021-05-08T06:37:57Z</time>
      </trkpt>
      <trkpt lat="40.4025290" lon="-3.8789860">
        <ele>661.9</ele>
        <time>2021-05-08T06:37:59Z</time>
      </trkpt>
      <trkpt lat="40.4024580" lon="-3.8790730">
        <ele>661.8</ele>
        <time>2021-05-08T06:38:01Z</time>
      </trkpt>
      <trkpt lat="40.4023830" lon="-3.8791600">
        <ele>661.6</ele>
        <time>2021-05-08T06:38:02Z</time>
      </trkpt>
      <trkpt lat="40.4023280" lon="-3.8792250">
        <ele>661.5</ele>
        <time>2021-05-08T06:38:03Z</time>
      </trkpt>
      <trkpt lat="40.4022170" lon="-3.8793570">
        <ele>661.2</ele>
        <time>2021-05-08T06:38:05Z</time>
      </trkpt>
      <trkpt lat="40.4021640" lon="-3.8794240">
        <ele>661.1</ele>
        <time>2021-05-08T06:38:06Z</time>
      </trkpt>
      <trkpt lat="40.4021120" lon="-3.8794890">
        <ele>660.9</ele>
        <time>2021-05-08T06:38:07Z</time>
      </trkpt>
      <trkpt lat="40.4020090" lon="-3.8796150">
        <ele>660.6</ele>
        <time>2021-05-08T06:38:09Z</time>
      </trkpt>
      <trkpt lat="40.4019570" lon="-3.8796770">
        <ele>660.5</ele>
        <time>2021-05-08T06:38:10Z</time>
      </trkpt>
      <trkpt lat="40.4018490" lon="-3.8798050">
        <ele>660.2</ele>
        <time>2021-05-08T06:38:12Z</time>
      </trkpt>
      <trkpt lat="40.4017990" lon="-3.8798670">
        <ele>660.1</ele>
        <time>2021-05-08T06:38:13Z</time>
      </trkpt>
      <trkpt lat="40.4016950" lon="-3.8800000">
        <ele>659.8</ele>
        <time>2021-05-08T06:38:15Z</time>
      </trkpt>
      <trkpt lat="40.4015890" lon="-3.8801310">
        <ele>659.5</ele>
        <time>2021-05-08T06:38:17Z</time>
      </trkpt>
      <trkpt lat="40.4014800" lon="-3.8802600">
        <ele>659.3</ele>
        <time>2021-05-08T06:38:19Z</time>
      </trkpt>
      <trkpt lat="40.4014250" lon="-3.8803260">
        <ele>659.2</ele>
        <time>2021-05-08T06:38:20Z</time>
      </trkpt>
      <trkpt lat="40.4013710" lon="-3.8803910">
        <ele>659.1</ele>
        <time>2021-05-08T06:38:21Z</time>
      </trkpt>
      <trkpt lat="40.4013160" lon="-3.8804540">
        <ele>659.0</ele>
        <time>2021-05-08T06:38:22Z</time>
      </trkpt>
      <trkpt lat="40.4012130" lon="-3.8805680">
        <ele>658.9</ele>
        <time>2021-05-08T06:38:24Z</time>
      </trkpt>
      <trkpt lat="40.4011570" lon="-3.8806300">
        <ele>658.8</ele>
        <time>2021-05-08T06:38:25Z</time>
      </trkpt>
      <trkpt lat="40.4010520" lon="-3.8807480">
        <ele>658.6</ele>
        <time>2021-05-08T06:38:27Z</time>
      </trkpt>
      <trkpt lat="40.4009580" lon="-3.8808790">
        <ele>658.4</ele>
        <time>2021-05-08T06:38:29Z</time>
      </trkpt>
      <trkpt lat="40.4009100" lon="-3.8809430">
        <ele>658.3</ele>
        <time>2021-05-08T06:38:30Z</time>
      </trkpt>
      <trkpt lat="40.4008160" lon="-3.8810590">
        <ele>658.2</ele>
        <time>2021-05-08T06:38:32Z</time>
      </trkpt>
      <trkpt lat="40.4007260" lon="-3.8811710">
        <ele>658.1</ele>
        <time>2021-05-08T06:38:34Z</time>
      </trkpt>
      <trkpt lat="40.4006850" lon="-3.8812330">
        <ele>658.0</ele>
        <time>2021-05-08T06:38:35Z</time>
      </trkpt>
      <trkpt lat="40.4006110" lon="-3.8813600">
        <ele>657.9</ele>
        <time>2021-05-08T06:38:37Z</time>
      </trkpt>
      <trkpt lat="40.4005760" lon="-3.8814250">
        <ele>657.9</ele>
        <time>2021-05-08T06:38:38Z</time>
      </trkpt>
      <trkpt lat="40.4005200" lon="-3.8815550">
        <ele>657.7</ele>
        <time>2021-05-08T06:38:40Z</time>
      </trkpt>
      <trkpt lat="40.4004940" lon="-3.8816930">
        <ele>657.7</ele>
        <time>2021-05-08T06:38:42Z</time>
      </trkpt>
      <trkpt lat="40.4004810" lon="-3.8817670">
        <ele>657.8</ele>
        <time>2021-05-08T06:38:43Z</time>
      </trkpt>
      <trkpt lat="40.4004490" lon="-3.8819000">
        <ele>657.8</ele>
        <time>2021-05-08T06:38:45Z</time>
      </trkpt>
      <trkpt lat="40.4004270" lon="-3.8819610">
        <ele>657.9</ele>
        <time>2021-05-08T06:38:46Z</time>
      </trkpt>
      <trkpt lat="40.4003680" lon="-3.8820620">
        <ele>657.9</ele>
        <time>2021-05-08T06:38:48Z</time>
      </trkpt>
      <trkpt lat="40.4002880" lon="-3.8821300">
        <ele>657.7</ele>
        <time>2021-05-08T06:38:50Z</time>
      </trkpt>
      <trkpt lat="40.4001920" lon="-3.8821600">
        <ele>657.5</ele>
        <time>2021-05-08T06:38:52Z</time>
      </trkpt>
      <trkpt lat="40.4000890" lon="-3.8821530">
        <ele>657.3</ele>
        <time>2021-05-08T06:38:54Z</time>
      </trkpt>
      <trkpt lat="40.4000360" lon="-3.8821410">
        <ele>657.2</ele>
        <time>2021-05-08T06:38:55Z</time>
      </trkpt>
      <trkpt lat="40.3999260" lon="-3.8821520">
        <ele>656.9</ele>
        <time>2021-05-08T06:38:57Z</time>
      </trkpt>
      <trkpt lat="40.3998740" lon="-3.8821870">
        <ele>656.8</ele>
        <time>2021-05-08T06:38:58Z</time>
      </trkpt>
      <trkpt lat="40.3997620" lon="-3.8823010">
        <ele>656.6</ele>
        <time>2021-05-08T06:39:00Z</time>
      </trkpt>
      <trkpt lat="40.3996560" lon="-3.8824230">
        <ele>656.4</ele>
        <time>2021-05-08T06:39:02Z</time>
      </trkpt>
      <trkpt lat="40.3996010" lon="-3.8824830">
        <ele>656.3</ele>
        <time>2021-05-08T06:39:03Z</time>
      </trkpt>
      <trkpt lat="40.3994930" lon="-3.8825960">
        <ele>656.1</ele>
        <time>2021-05-08T06:39:05Z</time>
      </trkpt>
      <trkpt lat="40.3994390" lon="-3.8826520">
        <ele>655.9</ele>
        <time>2021-05-08T06:39:06Z</time>
      </trkpt>
      <trkpt lat="40.3993350" lon="-3.8827620">
        <ele>655.7</ele>
        <time>2021-05-08T06:39:08Z</time>
      </trkpt>
      <trkpt lat="40.3992860" lon="-3.8828190">
        <ele>655.6</ele>
        <time>2021-05-08T06:39:09Z</time>
      </trkpt>
      <trkpt lat="40.3991820" lon="-3.8829320">
        <ele>655.3</ele>
        <time>2021-05-08T06:39:11Z</time>
      </trkpt>
      <trkpt lat="40.3990820" lon="-3.8830490">
        <ele>655.0</ele>
        <time>2021-05-08T06:39:13Z</time>
      </trkpt>
      <trkpt lat="40.3990360" lon="-3.8831100">
        <ele>654.9</ele>
        <time>2021-05-08T06:39:14Z</time>
      </trkpt>
      <trkpt lat="40.3989890" lon="-3.8831730">
        <ele>654.8</ele>
        <time>2021-05-08T06:39:15Z</time>
      </trkpt>
      <trkpt lat="40.3989030" lon="-3.8833070">
        <ele>654.5</ele>
        <time>2021-05-08T06:39:17Z</time>
      </trkpt>
      <trkpt lat="40.3988590" lon="-3.8833760">
        <ele>654.4</ele>
        <time>2021-05-08T06:39:18Z</time>
      </trkpt>
      <trkpt lat="40.3987760" lon="-3.8835210">
        <ele>654.3</ele>
        <time>2021-05-08T06:39:20Z</time>
      </trkpt>
      <trkpt lat="40.3987460" lon="-3.8835930">
        <ele>654.2</ele>
        <time>2021-05-08T06:39:21Z</time>
      </trkpt>
      <trkpt lat="40.3987460" lon="-3.8837420">
        <ele>654.3</ele>
        <time>2021-05-08T06:39:23Z</time>
      </trkpt>
      <trkpt lat="40.3987880" lon="-3.8838790">
        <ele>654.3</ele>
        <time>2021-05-08T06:39:25Z</time>
      </trkpt>
      <trkpt lat="40.3988280" lon="-3.8839460">
        <ele>654.3</ele>
        <time>2021-05-08T06:39:26Z</time>
      </trkpt>
      <trkpt lat="40.3989120" lon="-3.8840660">
        <ele>654.5</ele>
        <time>2021-05-08T06:39:28Z</time>
      </trkpt>
      <trkpt lat="40.3989560" lon="-3.8841160">
        <ele>654.7</ele>
        <time>2021-05-08T06:39:29Z</time>
      </trkpt>
      <trkpt lat="40.3989980" lon="-3.8841670">
        <ele>654.9</ele>
        <time>2021-05-08T06:39:30Z</time>
      </trkpt>
      <trkpt lat="40.3990750" lon="-3.8842730">
        <ele>655.4</ele>
        <time>2021-05-08T06:39:32Z</time>
      </trkpt>
      <trkpt lat="40.3991390" lon="-3.8843730">
        <ele>655.9</ele>
        <time>2021-05-08T06:39:34Z</time>
      </trkpt>
      <trkpt lat="40.3991910" lon="-3.8844560">
        <ele>656.4</ele>
        <time>2021-05-08T06:39:36Z</time>
      </trkpt>
      <trkpt lat="40.3992450" lon="-3.8845300">
        <ele>656.9</ele>
        <time>2021-05-08T06:39:38Z</time>
      </trkpt>
      <trkpt lat="40.3992730" lon="-3.8845680">
        <ele>657.2</ele>
        <time>2021-05-08T06:39:39Z</time>
      </trkpt>
      <trkpt lat="40.3993160" lon="-3.8846050">
        <ele>657.5</ele>
        <time>2021-05-08T06:39:40Z</time>
      </trkpt>
      <trkpt lat="40.3993390" lon="-3.8846240">
        <ele>657.6</ele>
        <time>2021-05-08T06:39:41Z</time>
      </trkpt>
      <trkpt lat="40.3993760" lon="-3.8846600">
        <ele>657.7</ele>
        <time>2021-05-08T06:39:42Z</time>
      </trkpt>
      <trkpt lat="40.3994270" lon="-3.8847240">
        <ele>657.8</ele>
        <time>2021-05-08T06:39:44Z</time>
      </trkpt>
      <trkpt lat="40.3994710" lon="-3.8848100">
        <ele>658.2</ele>
        <time>2021-05-08T06:39:46Z</time>
      </trkpt>
      <trkpt lat="40.3995190" lon="-3.8848960">
        <ele>658.6</ele>
        <time>2021-05-08T06:39:48Z</time>
      </trkpt>
      <trkpt lat="40.3995620" lon="-3.8849470">
        <ele>658.9</ele>
        <time>2021-05-08T06:39:49Z</time>
      </trkpt>
      <trkpt lat="40.3996030" lon="-3.8849990">
        <ele>659.2</ele>
        <time>2021-05-08T06:39:51Z</time>
      </trkpt>
      <trkpt lat="40.3996500" lon="-3.8850480">
        <ele>659.5</ele>
        <time>2021-05-08T06:39:53Z</time>
      </trkpt>
      <trkpt lat="40.3996860" lon="-3.8850790">
        <ele>659.8</ele>
        <time>2021-05-08T06:39:54Z</time>
      </trkpt>
      <trkpt lat="40.3997120" lon="-3.8850990">
        <ele>660.0</ele>
        <time>2021-05-08T06:39:55Z</time>
      </trkpt>
      <trkpt lat="40.3997380" lon="-3.8851160">
        <ele>660.1</ele>
        <time>2021-05-08T06:39:56Z</time>
      </trkpt>
      <trkpt lat="40.3997670" lon="-3.8851330">
        <ele>660.3</ele>
        <time>2021-05-08T06:39:57Z</time>
      </trkpt>
      <trkpt lat="40.3997930" lon="-3.8851510">
        <ele>660.5</ele>
        <time>2021-05-08T06:39:58Z</time>
      </trkpt>
      <trkpt lat="40.3998200" lon="-3.8851710">
        <ele>660.7</ele>
        <time>2021-05-08T06:39:59Z</time>
      </trkpt>
      <trkpt lat="40.3998450" lon="-3.8852010">
        <ele>660.9</ele>
        <time>2021-05-08T06:40:00Z</time>
      </trkpt>
      <trkpt lat="40.3998780" lon="-3.8852340">
        <ele>661.2</ele>
        <time>2021-05-08T06:40:02Z</time>
      </trkpt>
      <trkpt lat="40.3999090" lon="-3.8852640">
        <ele>661.5</ele>
        <time>2021-05-08T06:40:03Z</time>
      </trkpt>
      <trkpt lat="40.3999350" lon="-3.8852870">
        <ele>661.7</ele>
        <time>2021-05-08T06:40:04Z</time>
      </trkpt>
      <trkpt lat="40.3999590" lon="-3.8853060">
        <ele>661.9</ele>
        <time>2021-05-08T06:40:05Z</time>
      </trkpt>
      <trkpt lat="40.4000050" lon="-3.8853490">
        <ele>662.2</ele>
        <time>2021-05-08T06:40:07Z</time>
      </trkpt>
      <trkpt lat="40.4000530" lon="-3.8853980">
        <ele>662.6</ele>
        <time>2021-05-08T06:40:09Z</time>
      </trkpt>
      <trkpt lat="40.4001000" lon="-3.8854440">
        <ele>662.9</ele>
        <time>2021-05-08T06:40:11Z</time>
      </trkpt>
      <trkpt lat="40.4001260" lon="-3.8854680">
        <ele>663.2</ele>
        <time>2021-05-08T06:40:12Z</time>
      </trkpt>
      <trkpt lat="40.4001680" lon="-3.8855210">
        <ele>663.6</ele>
        <time>2021-05-08T06:40:14Z</time>
      </trkpt>
      <trkpt lat="40.4001930" lon="-3.8855390">
        <ele>663.7</ele>
        <time>2021-05-08T06:40:15Z</time>
      </trkpt>
      <trkpt lat="40.4002380" lon="-3.8855800">
        <ele>664.1</ele>
        <time>2021-05-08T06:40:17Z</time>
      </trkpt>
      <trkpt lat="40.4002880" lon="-3.8856030">
        <ele>664.5</ele>
        <time>2021-05-08T06:40:19Z</time>
      </trkpt>
      <trkpt lat="40.4003320" lon="-3.8856390">
        <ele>664.8</ele>
        <time>2021-05-08T06:40:21Z</time>
      </trkpt>
      <trkpt lat="40.4003820" lon="-3.8856850">
        <ele>665.3</ele>
        <time>2021-05-08T06:40:23Z</time>
      </trkpt>
      <trkpt lat="40.4004120" lon="-3.8857040">
        <ele>665.5</ele>
        <time>2021-05-08T06:40:24Z</time>
      </trkpt>
      <trkpt lat="40.4004710" lon="-3.8857440">
        <ele>666.0</ele>
        <time>2021-05-08T06:40:26Z</time>
      </trkpt>
      <trkpt lat="40.4005240" lon="-3.8857860">
        <ele>666.4</ele>
        <time>2021-05-08T06:40:28Z</time>
      </trkpt>
      <trkpt lat="40.4005600" lon="-3.8858150">
        <ele>666.7</ele>
        <time>2021-05-08T06:40:29Z</time>
      </trkpt>
      <trkpt lat="40.4006150" lon="-3.8858550">
        <ele>667.2</ele>
        <time>2021-05-08T06:40:31Z</time>
      </trkpt>
      <trkpt lat="40.4006570" lon="-3.8858860">
        <ele>667.5</ele>
        <time>2021-05-08T06:40:32Z</time>
      </trkpt>
      <trkpt lat="40.4006990" lon="-3.8859130">
        <ele>667.8</ele>
        <time>2021-05-08T06:40:34Z</time>
      </trkpt>
      <trkpt lat="40.4007260" lon="-3.8859320">
        <ele>668.0</ele>
        <time>2021-05-08T06:40:35Z</time>
      </trkpt>
      <trkpt lat="40.4007830" lon="-3.8859650">
        <ele>668.6</ele>
        <time>2021-05-08T06:40:37Z</time>
      </trkpt>
      <trkpt lat="40.4008390" lon="-3.8859940">
        <ele>669.2</ele>
        <time>2021-05-08T06:40:39Z</time>
      </trkpt>
      <trkpt lat="40.4008920" lon="-3.8860380">
        <ele>669.5</ele>
        <time>2021-05-08T06:40:41Z</time>
      </trkpt>
      <trkpt lat="40.4009450" lon="-3.8860710">
        <ele>669.5</ele>
        <time>2021-05-08T06:40:43Z</time>
      </trkpt>
      <trkpt lat="40.4009730" lon="-3.8860900">
        <ele>669.5</ele>
        <time>2021-05-08T06:40:44Z</time>
      </trkpt>
      <trkpt lat="40.4010010" lon="-3.8861090">
        <ele>669.5</ele>
        <time>2021-05-08T06:40:45Z</time>
      </trkpt>
      <trkpt lat="40.4010540" lon="-3.8861480">
        <ele>669.9</ele>
        <time>2021-05-08T06:40:47Z</time>
      </trkpt>
      <trkpt lat="40.4010890" lon="-3.8861800">
        <ele>670.1</ele>
        <time>2021-05-08T06:40:48Z</time>
      </trkpt>
      <trkpt lat="40.4011170" lon="-3.8862050">
        <ele>670.3</ele>
        <time>2021-05-08T06:40:50Z</time>
      </trkpt>
      <trkpt lat="40.4011510" lon="-3.8862340">
        <ele>670.6</ele>
        <time>2021-05-08T06:40:51Z</time>
      </trkpt>
      <trkpt lat="40.4012040" lon="-3.8862700">
        <ele>670.9</ele>
        <time>2021-05-08T06:40:53Z</time>
      </trkpt>
      <trkpt lat="40.4012430" lon="-3.8862930">
        <ele>671.1</ele>
        <time>2021-05-08T06:40:54Z</time>
      </trkpt>
      <trkpt lat="40.4012880" lon="-3.8863180">
        <ele>671.4</ele>
        <time>2021-05-08T06:40:56Z</time>
      </trkpt>
      <trkpt lat="40.4013150" lon="-3.8863310">
        <ele>671.6</ele>
        <time>2021-05-08T06:40:57Z</time>
      </trkpt>
      <trkpt lat="40.4013710" lon="-3.8863590">
        <ele>671.9</ele>
        <time>2021-05-08T06:40:59Z</time>
      </trkpt>
      <trkpt lat="40.4014250" lon="-3.8863810">
        <ele>672.2</ele>
        <time>2021-05-08T06:41:01Z</time>
      </trkpt>
      <trkpt lat="40.4014530" lon="-3.8863950">
        <ele>672.4</ele>
        <time>2021-05-08T06:41:02Z</time>
      </trkpt>
      <trkpt lat="40.4015090" lon="-3.8864230">
        <ele>672.7</ele>
        <time>2021-05-08T06:41:04Z</time>
      </trkpt>
      <trkpt lat="40.4015590" lon="-3.8864480">
        <ele>673.0</ele>
        <time>2021-05-08T06:41:06Z</time>
      </trkpt>
      <trkpt lat="40.4015880" lon="-3.8864660">
        <ele>673.2</ele>
        <time>2021-05-08T06:41:07Z</time>
      </trkpt>
      <trkpt lat="40.4016440" lon="-3.8864960">
        <ele>673.5</ele>
        <time>2021-05-08T06:41:09Z</time>
      </trkpt>
      <trkpt lat="40.4016730" lon="-3.8865100">
        <ele>673.7</ele>
        <time>2021-05-08T06:41:10Z</time>
      </trkpt>
      <trkpt lat="40.4016950" lon="-3.8865140">
        <ele>673.8</ele>
        <time>2021-05-08T06:41:11Z</time>
      </trkpt>
      <trkpt lat="40.4017540" lon="-3.8865520">
        <ele>674.2</ele>
        <time>2021-05-08T06:41:13Z</time>
      </trkpt>
      <trkpt lat="40.4018110" lon="-3.8865800">
        <ele>674.5</ele>
        <time>2021-05-08T06:41:15Z</time>
      </trkpt>
      <trkpt lat="40.4018700" lon="-3.8866040">
        <ele>674.8</ele>
        <time>2021-05-08T06:41:17Z</time>
      </trkpt>
      <trkpt lat="40.4019230" lon="-3.8866250">
        <ele>675.1</ele>
        <time>2021-05-08T06:41:18Z</time>
      </trkpt>
      <trkpt lat="40.4019770" lon="-3.8866460">
        <ele>675.4</ele>
        <time>2021-05-08T06:41:20Z</time>
      </trkpt>
      <trkpt lat="40.4020220" lon="-3.8866650">
        <ele>675.6</ele>
        <time>2021-05-08T06:41:21Z</time>
      </trkpt>
      <trkpt lat="40.4020600" lon="-3.8866810">
        <ele>675.8</ele>
        <time>2021-05-08T06:41:22Z</time>
      </trkpt>
      <trkpt lat="40.4021250" lon="-3.8867110">
        <ele>676.1</ele>
        <time>2021-05-08T06:41:24Z</time>
      </trkpt>
      <trkpt lat="40.4021790" lon="-3.8867310">
        <ele>676.3</ele>
        <time>2021-05-08T06:41:26Z</time>
      </trkpt>
      <trkpt lat="40.4022170" lon="-3.8867460">
        <ele>676.4</ele>
        <time>2021-05-08T06:41:27Z</time>
      </trkpt>
      <trkpt lat="40.4022550" lon="-3.8867600">
        <ele>676.6</ele>
        <time>2021-05-08T06:41:28Z</time>
      </trkpt>
      <trkpt lat="40.4023000" lon="-3.8867710">
        <ele>676.7</ele>
        <time>2021-05-08T06:41:29Z</time>
      </trkpt>
      <trkpt lat="40.4023310" lon="-3.8867840">
        <ele>676.9</ele>
        <time>2021-05-08T06:41:31Z</time>
      </trkpt>
      <trkpt lat="40.4023590" lon="-3.8867950">
        <ele>676.9</ele>
        <time>2021-05-08T06:41:32Z</time>
      </trkpt>
      <trkpt lat="40.4024000" lon="-3.8868030">
        <ele>677.1</ele>
        <time>2021-05-08T06:41:34Z</time>
      </trkpt>
      <trkpt lat="40.4024340" lon="-3.8868140">
        <ele>677.2</ele>
        <time>2021-05-08T06:41:36Z</time>
      </trkpt>
      <trkpt lat="40.4024520" lon="-3.8868180">
        <ele>677.2</ele>
        <time>2021-05-08T06:41:37Z</time>
      </trkpt>
      <trkpt lat="40.4024990" lon="-3.8868220">
        <ele>677.4</ele>
        <time>2021-05-08T06:41:39Z</time>
      </trkpt>
      <trkpt lat="40.4025440" lon="-3.8868310">
        <ele>677.5</ele>
        <time>2021-05-08T06:41:41Z</time>
      </trkpt>
      <trkpt lat="40.4025710" lon="-3.8868340">
        <ele>677.6</ele>
        <time>2021-05-08T06:41:42Z</time>
      </trkpt>
      <trkpt lat="40.4026270" lon="-3.8868500">
        <ele>677.5</ele>
        <time>2021-05-08T06:41:44Z</time>
      </trkpt>
      <trkpt lat="40.4026770" lon="-3.8868600">
        <ele>677.5</ele>
        <time>2021-05-08T06:41:46Z</time>
      </trkpt>
      <trkpt lat="40.4027020" lon="-3.8868710">
        <ele>677.5</ele>
        <time>2021-05-08T06:41:47Z</time>
      </trkpt>
      <trkpt lat="40.4027450" lon="-3.8868850">
        <ele>677.5</ele>
        <time>2021-05-08T06:41:49Z</time>
      </trkpt>
      <trkpt lat="40.4027760" lon="-3.8869090">
        <ele>677.4</ele>
        <time>2021-05-08T06:41:50Z</time>
      </trkpt>
      <trkpt lat="40.4028060" lon="-3.8869240">
        <ele>677.4</ele>
        <time>2021-05-08T06:41:51Z</time>
      </trkpt>
      <trkpt lat="40.4028640" lon="-3.8869370">
        <ele>677.4</ele>
        <time>2021-05-08T06:41:53Z</time>
      </trkpt>
      <trkpt lat="40.4029010" lon="-3.8869530">
        <ele>677.4</ele>
        <time>2021-05-08T06:41:54Z</time>
      </trkpt>
      <trkpt lat="40.4029350" lon="-3.8869640">
        <ele>677.4</ele>
        <time>2021-05-08T06:41:55Z</time>
      </trkpt>
      <trkpt lat="40.4030070" lon="-3.8869780">
        <ele>677.3</ele>
        <time>2021-05-08T06:41:57Z</time>
      </trkpt>
      <trkpt lat="40.4030750" lon="-3.8869860">
        <ele>677.3</ele>
        <time>2021-05-08T06:41:59Z</time>
      </trkpt>
      <trkpt lat="40.4031120" lon="-3.8869930">
        <ele>677.3</ele>
        <time>2021-05-08T06:42:00Z</time>
      </trkpt>
      <trkpt lat="40.4031770" lon="-3.8870020">
        <ele>677.2</ele>
        <time>2021-05-08T06:42:01Z</time>
      </trkpt>
      <trkpt lat="40.4032430" lon="-3.8870060">
        <ele>677.2</ele>
        <time>2021-05-08T06:42:03Z</time>
      </trkpt>
      <trkpt lat="40.4032850" lon="-3.8870100">
        <ele>677.2</ele>
        <time>2021-05-08T06:42:04Z</time>
      </trkpt>
      <trkpt lat="40.4033400" lon="-3.8870080">
        <ele>677.1</ele>
        <time>2021-05-08T06:42:05Z</time>
      </trkpt>
      <trkpt lat="40.4033890" lon="-3.8870130">
        <ele>677.1</ele>
        <time>2021-05-08T06:42:06Z</time>
      </trkpt>
      <trkpt lat="40.4034920" lon="-3.8870300">
        <ele>676.9</ele>
        <time>2021-05-08T06:42:08Z</time>
      </trkpt>
      <trkpt lat="40.4035890" lon="-3.8870420">
        <ele>676.8</ele>
        <time>2021-05-08T06:42:10Z</time>
      </trkpt>
      <trkpt lat="40.4036340" lon="-3.8870450">
        <ele>676.7</ele>
        <time>2021-05-08T06:42:11Z</time>
      </trkpt>
      <trkpt lat="40.4036780" lon="-3.8870480">
        <ele>676.7</ele>
        <time>2021-05-08T06:42:12Z</time>
      </trkpt>
      <trkpt lat="40.4037270" lon="-3.8870500">
        <ele>676.6</ele>
        <time>2021-05-08T06:42:13Z</time>
      </trkpt>
      <trkpt lat="40.4038240" lon="-3.8870550">
        <ele>676.4</ele>
        <time>2021-05-08T06:42:15Z</time>
      </trkpt>
      <trkpt lat="40.4039310" lon="-3.8870630">
        <ele>676.3</ele>
        <time>2021-05-08T06:42:17Z</time>
      </trkpt>
      <trkpt lat="40.4039840" lon="-3.8870670">
        <ele>676.3</ele>
        <time>2021-05-08T06:42:18Z</time>
      </trkpt>
      <trkpt lat="40.4040350" lon="-3.8870710">
        <ele>676.2</ele>
        <time>2021-05-08T06:42:19Z</time>
      </trkpt>
      <trkpt lat="40.4040850" lon="-3.8870720">
        <ele>676.1</ele>
        <time>2021-05-08T06:42:20Z</time>
      </trkpt>
      <trkpt lat="40.4041900" lon="-3.8870760">
        <ele>676.0</ele>
        <time>2021-05-08T06:42:22Z</time>
      </trkpt>
      <trkpt lat="40.4043030" lon="-3.8870840">
        <ele>675.8</ele>
        <time>2021-05-08T06:42:24Z</time>
      </trkpt>
      <trkpt lat="40.4043560" lon="-3.8870860">
        <ele>675.8</ele>
        <time>2021-05-08T06:42:25Z</time>
      </trkpt>
      <trkpt lat="40.4044160" lon="-3.8870900">
        <ele>675.7</ele>
        <time>2021-05-08T06:42:26Z</time>
      </trkpt>
      <trkpt lat="40.4045290" lon="-3.8870900">
        <ele>675.5</ele>
        <time>2021-05-08T06:42:28Z</time>
      </trkpt>
      <trkpt lat="40.4046360" lon="-3.8870810">
        <ele>675.4</ele>
        <time>2021-05-08T06:42:30Z</time>
      </trkpt>
      <trkpt lat="40.4046900" lon="-3.8870770">
        <ele>675.5</ele>
        <time>2021-05-08T06:42:31Z</time>
      </trkpt>
      <trkpt lat="40.4047860" lon="-3.8870660">
        <ele>675.6</ele>
        <time>2021-05-08T06:42:33Z</time>
      </trkpt>
      <trkpt lat="40.4048770" lon="-3.8870510">
        <ele>675.7</ele>
        <time>2021-05-08T06:42:35Z</time>
      </trkpt>
      <trkpt lat="40.4049680" lon="-3.8870320">
        <ele>675.9</ele>
        <time>2021-05-08T06:42:37Z</time>
      </trkpt>
      <trkpt lat="40.4050110" lon="-3.8870230">
        <ele>676.0</ele>
        <time>2021-05-08T06:42:38Z</time>
      </trkpt>
      <trkpt lat="40.4050520" lon="-3.8870100">
        <ele>676.1</ele>
        <time>2021-05-08T06:42:39Z</time>
      </trkpt>
      <trkpt lat="40.4051360" lon="-3.8869860">
        <ele>676.3</ele>
        <time>2021-05-08T06:42:41Z</time>
      </trkpt>
      <trkpt lat="40.4052400" lon="-3.8869620">
        <ele>676.7</ele>
        <time>2021-05-08T06:42:43Z</time>
      </trkpt>
      <trkpt lat="40.4052810" lon="-3.8869560">
        <ele>676.7</ele>
        <time>2021-05-08T06:42:44Z</time>
      </trkpt>
      <trkpt lat="40.4053630" lon="-3.8869400">
        <ele>676.8</ele>
        <time>2021-05-08T06:42:46Z</time>
      </trkpt>
      <trkpt lat="40.4054290" lon="-3.8869060">
        <ele>676.9</ele>
        <time>2021-05-08T06:42:48Z</time>
      </trkpt>
      <trkpt lat="40.4054680" lon="-3.8868620">
        <ele>677.0</ele>
        <time>2021-05-08T06:42:49Z</time>
      </trkpt>
      <trkpt lat="40.4055050" lon="-3.8868040">
        <ele>677.2</ele>
        <time>2021-05-08T06:42:51Z</time>
      </trkpt>
      <trkpt lat="40.4055380" lon="-3.8867530">
        <ele>677.3</ele>
        <time>2021-05-08T06:42:52Z</time>
      </trkpt>
      <trkpt lat="40.4055860" lon="-3.8866780">
        <ele>677.5</ele>
        <time>2021-05-08T06:42:54Z</time>
      </trkpt>
      <trkpt lat="40.4056310" lon="-3.8866270">
        <ele>677.7</ele>
        <time>2021-05-08T06:42:56Z</time>
      </trkpt>
      <trkpt lat="40.4056770" lon="-3.8865900">
        <ele>677.8</ele>
        <time>2021-05-08T06:42:57Z</time>
      </trkpt>
      <trkpt lat="40.4057520" lon="-3.8865620">
        <ele>678.0</ele>
        <time>2021-05-08T06:42:59Z</time>
      </trkpt>
      <trkpt lat="40.4057890" lon="-3.8865510">
        <ele>678.1</ele>
        <time>2021-05-08T06:43:00Z</time>
      </trkpt>
      <trkpt lat="40.4058400" lon="-3.8865680">
        <ele>679.0</ele>
        <time>2021-05-08T06:43:01Z</time>
      </trkpt>
      <trkpt lat="40.4058870" lon="-3.8865980">
        <ele>679.3</ele>
        <time>2021-05-08T06:43:03Z</time>
      </trkpt>
      <trkpt lat="40.4059260" lon="-3.8866400">
        <ele>679.2</ele>
        <time>2021-05-08T06:43:04Z</time>
      </trkpt>
      <trkpt lat="40.4059670" lon="-3.8866760">
        <ele>679.2</ele>
        <time>2021-05-08T06:43:05Z</time>
      </trkpt>
      <trkpt lat="40.4060350" lon="-3.8867330">
        <ele>679.1</ele>
        <time>2021-05-08T06:43:07Z</time>
      </trkpt>
      <trkpt lat="40.4060810" lon="-3.8867730">
        <ele>679.1</ele>
        <time>2021-05-08T06:43:08Z</time>
      </trkpt>
      <trkpt lat="40.4061310" lon="-3.8868010">
        <ele>679.3</ele>
        <time>2021-05-08T06:43:10Z</time>
      </trkpt>
      <trkpt lat="40.4061620" lon="-3.8868030">
        <ele>679.3</ele>
        <time>2021-05-08T06:43:11Z</time>
      </trkpt>
      <trkpt lat="40.4061960" lon="-3.8867830">
        <ele>679.4</ele>
        <time>2021-05-08T06:43:12Z</time>
      </trkpt>
      <trkpt lat="40.4062280" lon="-3.8867480">
        <ele>679.5</ele>
        <time>2021-05-08T06:43:14Z</time>
      </trkpt>
      <trkpt lat="40.4062560" lon="-3.8867230">
        <ele>679.5</ele>
        <time>2021-05-08T06:43:16Z</time>
      </trkpt>
      <trkpt lat="40.4062250" lon="-3.8867240">
        <ele>679.6</ele>
        <time>2021-05-08T06:43:17Z</time>
      </trkpt>
      <trkpt lat="40.4062140" lon="-3.8867250">
        <ele>679.6</ele>
        <time>2021-05-08T06:43:18Z</time>
      </trkpt>
      <trkpt lat="40.4062100" lon="-3.8867260">
        <ele>679.6</ele>
        <time>2021-05-08T06:43:19Z</time>
      </trkpt>
      <trkpt lat="40.4062060" lon="-3.8867270">
        <ele>679.6</ele>
        <time>2021-05-08T06:43:21Z</time>
      </trkpt>
      <trkpt lat="40.4062060" lon="-3.8867270">
        <ele>679.6</ele>
        <time>2021-05-08T06:43:22Z</time>
      </trkpt>
      <trkpt lat="40.4062060" lon="-3.8867270">
        <ele>679.6</ele>
        <time>2021-05-08T06:43:23Z</time>
      </trkpt>
      <trkpt lat="40.4062060" lon="-3.8867270">
        <ele>679.6</ele>
        <time>2021-05-08T06:43:24Z</time>
      </trkpt>
      <trkpt lat="40.4062060" lon="-3.8867260">
        <ele>679.6</ele>
        <time>2021-05-08T06:43:26Z</time>
      </trkpt>
      <trkpt lat="40.4061940" lon="-3.8867090">
        <ele>679.6</ele>
        <time>2021-05-08T06:43:45Z</time>
      </trkpt>
      <trkpt lat="40.4062000" lon="-3.8867040">
        <ele>679.6</ele>
        <time>2021-05-08T06:43:47Z</time>
      </trkpt>
      <trkpt lat="40.4062030" lon="-3.8867040">
        <ele>679.6</ele>
        <time>2021-05-08T06:43:48Z</time>
      </trkpt>
      <trkpt lat="40.4062060" lon="-3.8867060">
        <ele>679.6</ele>
        <time>2021-05-08T06:43:49Z</time>
      </trkpt>
      <trkpt lat="40.4062080" lon="-3.8867080">
        <ele>679.6</ele>
        <time>2021-05-08T06:43:50Z</time>
      </trkpt>
      <trkpt lat="40.4062090" lon="-3.8867090">
        <ele>679.6</ele>
        <time>2021-05-08T06:43:52Z</time>
      </trkpt>
      <trkpt lat="40.4062110" lon="-3.8867090">
        <ele>679.6</ele>
        <time>2021-05-08T06:43:53Z</time>
      </trkpt>
      <trkpt lat="40.4062130" lon="-3.8867080">
        <ele>679.6</ele>
        <time>2021-05-08T06:43:55Z</time>
      </trkpt>
      <trkpt lat="40.4062140" lon="-3.8867080">
        <ele>679.6</ele>
        <time>2021-05-08T06:43:56Z</time>
      </trkpt>
      <trkpt lat="40.4062140" lon="-3.8867090">
        <ele>679.6</ele>
        <time>2021-05-08T06:43:58Z</time>
      </trkpt>
      <trkpt lat="40.4062170" lon="-3.8867100">
        <ele>679.6</ele>
        <time>2021-05-08T06:43:59Z</time>
      </trkpt>
      <trkpt lat="40.4062200" lon="-3.8867100">
        <ele>679.6</ele>
        <time>2021-05-08T06:44:00Z</time>
      </trkpt>
      <trkpt lat="40.4062210" lon="-3.8867100">
        <ele>679.7</ele>
        <time>2021-05-08T06:44:01Z</time>
      </trkpt>
      <trkpt lat="40.4062220" lon="-3.8867110">
        <ele>679.7</ele>
        <time>2021-05-08T06:44:02Z</time>
      </trkpt>
      <trkpt lat="40.4062220" lon="-3.8867120">
        <ele>679.7</ele>
        <time>2021-05-08T06:44:04Z</time>
      </trkpt>
      <trkpt lat="40.4062260" lon="-3.8867110">
        <ele>679.7</ele>
        <time>2021-05-08T06:44:05Z</time>
      </trkpt>
      <trkpt lat="40.4062290" lon="-3.8867100">
        <ele>679.7</ele>
        <time>2021-05-08T06:44:07Z</time>
      </trkpt>
      <trkpt lat="40.4062300" lon="-3.8867110">
        <ele>679.7</ele>
        <time>2021-05-08T06:44:09Z</time>
      </trkpt>
      <trkpt lat="40.4062300" lon="-3.8867120">
        <ele>679.7</ele>
        <time>2021-05-08T06:44:10Z</time>
      </trkpt>
      <trkpt lat="40.4062330" lon="-3.8867110">
        <ele>679.7</ele>
        <time>2021-05-08T06:44:12Z</time>
      </trkpt>
      <trkpt lat="40.4062350" lon="-3.8867100">
        <ele>679.7</ele>
        <time>2021-05-08T06:44:14Z</time>
      </trkpt>
      <trkpt lat="40.4062350" lon="-3.8867090">
        <ele>679.7</ele>
        <time>2021-05-08T06:44:15Z</time>
      </trkpt>
      <trkpt lat="40.4062350" lon="-3.8867090">
        <ele>679.7</ele>
        <time>2021-05-08T06:44:16Z</time>
      </trkpt>
      <trkpt lat="40.4062320" lon="-3.8867270">
        <ele>679.7</ele>
        <time>2021-05-08T06:44:17Z</time>
      </trkpt>
      <trkpt lat="40.4062310" lon="-3.8867340">
        <ele>679.7</ele>
        <time>2021-05-08T06:44:19Z</time>
      </trkpt>
      <trkpt lat="40.4062320" lon="-3.8867300">
        <ele>679.7</ele>
        <time>2021-05-08T06:44:20Z</time>
      </trkpt>
      <trkpt lat="40.4062350" lon="-3.8867200">
        <ele>679.7</ele>
        <time>2021-05-08T06:44:21Z</time>
      </trkpt>
      <trkpt lat="40.4062360" lon="-3.8867150">
        <ele>679.7</ele>
        <time>2021-05-08T06:44:22Z</time>
      </trkpt>
      <trkpt lat="40.4062390" lon="-3.8867130">
        <ele>679.7</ele>
        <time>2021-05-08T06:44:24Z</time>
      </trkpt>
      <trkpt lat="40.4062400" lon="-3.8867140">
        <ele>679.7</ele>
        <time>2021-05-08T06:44:25Z</time>
      </trkpt>
      <trkpt lat="40.4062400" lon="-3.8867140">
        <ele>679.7</ele>
        <time>2021-05-08T06:44:26Z</time>
      </trkpt>
      <trkpt lat="40.4062410" lon="-3.8867140">
        <ele>679.7</ele>
        <time>2021-05-08T06:44:28Z</time>
      </trkpt>
      <trkpt lat="40.4062400" lon="-3.8867130">
        <ele>679.7</ele>
        <time>2021-05-08T06:44:30Z</time>
      </trkpt>
      <trkpt lat="40.4062390" lon="-3.8867130">
        <ele>679.7</ele>
        <time>2021-05-08T06:44:31Z</time>
      </trkpt>
      <trkpt lat="40.4062410" lon="-3.8867130">
        <ele>679.7</ele>
        <time>2021-05-08T06:44:33Z</time>
      </trkpt>
      <trkpt lat="40.4062330" lon="-3.8867330">
        <ele>679.8</ele>
        <time>2021-05-08T06:44:35Z</time>
      </trkpt>
      <trkpt lat="40.4062310" lon="-3.8867370">
        <ele>679.8</ele>
        <time>2021-05-08T06:44:36Z</time>
      </trkpt>
      <trkpt lat="40.4062300" lon="-3.8867370">
        <ele>679.8</ele>
        <time>2021-05-08T06:44:37Z</time>
      </trkpt>
      <trkpt lat="40.4062300" lon="-3.8867370">
        <ele>679.8</ele>
        <time>2021-05-08T06:44:39Z</time>
      </trkpt>
      <trkpt lat="40.4062310" lon="-3.8867360">
        <ele>679.8</ele>
        <time>2021-05-08T06:44:41Z</time>
      </trkpt>
      <trkpt lat="40.4062310" lon="-3.8867360">
        <ele>679.8</ele>
        <time>2021-05-08T06:44:43Z</time>
      </trkpt>
      <trkpt lat="40.4062310" lon="-3.8867360">
        <ele>679.8</ele>
        <time>2021-05-08T06:44:44Z</time>
      </trkpt>
      <trkpt lat="40.4062310" lon="-3.8867360">
        <ele>679.8</ele>
        <time>2021-05-08T06:44:46Z</time>
      </trkpt>
      <trkpt lat="40.4062490" lon="-3.8867460">
        <ele>679.8</ele>
        <time>2021-05-08T06:45:11Z</time>
      </trkpt>
      <trkpt lat="40.4062850" lon="-3.8867620">
        <ele>679.9</ele>
        <time>2021-05-08T06:45:13Z</time>
      </trkpt>
      <trkpt lat="40.4063170" lon="-3.8867640">
        <ele>679.9</ele>
        <time>2021-05-08T06:45:14Z</time>
      </trkpt>
      <trkpt lat="40.4063290" lon="-3.8867640">
        <ele>680.0</ele>
        <time>2021-05-08T06:45:15Z</time>
      </trkpt>
      <trkpt lat="40.4063770" lon="-3.8867590">
        <ele>680.0</ele>
        <time>2021-05-08T06:45:17Z</time>
      </trkpt>
      <trkpt lat="40.4064240" lon="-3.8867480">
        <ele>680.1</ele>
        <time>2021-05-08T06:45:19Z</time>
      </trkpt>
      <trkpt lat="40.4064490" lon="-3.8867400">
        <ele>680.2</ele>
        <time>2021-05-08T06:45:20Z</time>
      </trkpt>
      <trkpt lat="40.4065030" lon="-3.8867270">
        <ele>680.3</ele>
        <time>2021-05-08T06:45:22Z</time>
      </trkpt>
      <trkpt lat="40.4065460" lon="-3.8867100">
        <ele>680.3</ele>
        <time>2021-05-08T06:45:24Z</time>
      </trkpt>
      <trkpt lat="40.4065850" lon="-3.8866940">
        <ele>680.4</ele>
        <time>2021-05-08T06:45:25Z</time>
      </trkpt>
      <trkpt lat="40.4066190" lon="-3.8866840">
        <ele>680.4</ele>
        <time>2021-05-08T06:45:26Z</time>
      </trkpt>
      <trkpt lat="40.4066900" lon="-3.8866700">
        <ele>680.5</ele>
        <time>2021-05-08T06:45:28Z</time>
      </trkpt>
      <trkpt lat="40.4067570" lon="-3.8866570">
        <ele>680.7</ele>
        <time>2021-05-08T06:45:30Z</time>
      </trkpt>
      <trkpt lat="40.4068300" lon="-3.8866480">
        <ele>680.9</ele>
        <time>2021-05-08T06:45:32Z</time>
      </trkpt>
      <trkpt lat="40.4068850" lon="-3.8866340">
        <ele>681.1</ele>
        <time>2021-05-08T06:45:33Z</time>
      </trkpt>
      <trkpt lat="40.4069400" lon="-3.8866220">
        <ele>681.2</ele>
        <time>2021-05-08T06:45:35Z</time>
      </trkpt>
      <trkpt lat="40.4069770" lon="-3.8866100">
        <ele>681.2</ele>
        <time>2021-05-08T06:45:36Z</time>
      </trkpt>
      <trkpt lat="40.4070160" lon="-3.8866010">
        <ele>681.3</ele>
        <time>2021-05-08T06:45:37Z</time>
      </trkpt>
      <trkpt lat="40.4070940" lon="-3.8865810">
        <ele>681.3</ele>
        <time>2021-05-08T06:45:39Z</time>
      </trkpt>
      <trkpt lat="40.4071330" lon="-3.8865730">
        <ele>681.4</ele>
        <time>2021-05-08T06:45:40Z</time>
      </trkpt>
      <trkpt lat="40.4071950" lon="-3.8865650">
        <ele>681.5</ele>
        <time>2021-05-08T06:45:42Z</time>
      </trkpt>
      <trkpt lat="40.4072400" lon="-3.8865570">
        <ele>681.6</ele>
        <time>2021-05-08T06:45:43Z</time>
      </trkpt>
      <trkpt lat="40.4073100" lon="-3.8865260">
        <ele>681.8</ele>
        <time>2021-05-08T06:45:44Z</time>
      </trkpt>
      <trkpt lat="40.4073620" lon="-3.8865190">
        <ele>681.9</ele>
        <time>2021-05-08T06:45:46Z</time>
      </trkpt>
      <trkpt lat="40.4073930" lon="-3.8865160">
        <ele>682.0</ele>
        <time>2021-05-08T06:45:47Z</time>
      </trkpt>
      <trkpt lat="40.4074290" lon="-3.8865100">
        <ele>682.1</ele>
        <time>2021-05-08T06:45:48Z</time>
      </trkpt>
      <trkpt lat="40.4075030" lon="-3.8864990">
        <ele>682.3</ele>
        <time>2021-05-08T06:45:50Z</time>
      </trkpt>
      <trkpt lat="40.4075690" lon="-3.8864810">
        <ele>682.5</ele>
        <time>2021-05-08T06:45:52Z</time>
      </trkpt>
      <trkpt lat="40.4076160" lon="-3.8864720">
        <ele>682.6</ele>
        <time>2021-05-08T06:45:53Z</time>
      </trkpt>
      <trkpt lat="40.4076920" lon="-3.8864600">
        <ele>682.8</ele>
        <time>2021-05-08T06:45:55Z</time>
      </trkpt>
      <trkpt lat="40.4077460" lon="-3.8864470">
        <ele>682.9</ele>
        <time>2021-05-08T06:45:56Z</time>
      </trkpt>
      <trkpt lat="40.4078050" lon="-3.8864330">
        <ele>683.1</ele>
        <time>2021-05-08T06:45:58Z</time>
      </trkpt>
      <trkpt lat="40.4078800" lon="-3.8864140">
        <ele>683.4</ele>
        <time>2021-05-08T06:46:00Z</time>
      </trkpt>
      <trkpt lat="40.4079210" lon="-3.8864090">
        <ele>683.5</ele>
        <time>2021-05-08T06:46:01Z</time>
      </trkpt>
      <trkpt lat="40.4080000" lon="-3.8864030">
        <ele>683.7</ele>
        <time>2021-05-08T06:46:03Z</time>
      </trkpt>
      <trkpt lat="40.4080380" lon="-3.8863960">
        <ele>683.8</ele>
        <time>2021-05-08T06:46:04Z</time>
      </trkpt>
      <trkpt lat="40.4081080" lon="-3.8863760">
        <ele>684.1</ele>
        <time>2021-05-08T06:46:06Z</time>
      </trkpt>
      <trkpt lat="40.4081520" lon="-3.8863730">
        <ele>684.2</ele>
        <time>2021-05-08T06:46:07Z</time>
      </trkpt>
      <trkpt lat="40.4081890" lon="-3.8863690">
        <ele>684.3</ele>
        <time>2021-05-08T06:46:08Z</time>
      </trkpt>
      <trkpt lat="40.4082620" lon="-3.8863560">
        <ele>684.5</ele>
        <time>2021-05-08T06:46:10Z</time>
      </trkpt>
      <trkpt lat="40.4083170" lon="-3.8863500">
        <ele>684.6</ele>
        <time>2021-05-08T06:46:12Z</time>
      </trkpt>
      <trkpt lat="40.4083810" lon="-3.8863440">
        <ele>684.7</ele>
        <time>2021-05-08T06:46:13Z</time>
      </trkpt>
      <trkpt lat="40.4084240" lon="-3.8863380">
        <ele>684.7</ele>
        <time>2021-05-08T06:46:14Z</time>
      </trkpt>
      <trkpt lat="40.4084630" lon="-3.8863280">
        <ele>684.7</ele>
        <time>2021-05-08T06:46:15Z</time>
      </trkpt>
      <trkpt lat="40.4085420" lon="-3.8863000">
        <ele>684.7</ele>
        <time>2021-05-08T06:46:17Z</time>
      </trkpt>
      <trkpt lat="40.4085960" lon="-3.8862820">
        <ele>684.7</ele>
        <time>2021-05-08T06:46:19Z</time>
      </trkpt>
      <trkpt lat="40.4086480" lon="-3.8862530">
        <ele>684.7</ele>
        <time>2021-05-08T06:46:20Z</time>
      </trkpt>
      <trkpt lat="40.4086900" lon="-3.8862380">
        <ele>684.7</ele>
        <time>2021-05-08T06:46:21Z</time>
      </trkpt>
      <trkpt lat="40.4087360" lon="-3.8862260">
        <ele>684.7</ele>
        <time>2021-05-08T06:46:22Z</time>
      </trkpt>
      <trkpt lat="40.4088170" lon="-3.8862130">
        <ele>684.7</ele>
        <time>2021-05-08T06:46:24Z</time>
      </trkpt>
      <trkpt lat="40.4088720" lon="-3.8862050">
        <ele>684.6</ele>
        <time>2021-05-08T06:46:25Z</time>
      </trkpt>
      <trkpt lat="40.4089210" lon="-3.8861930">
        <ele>684.6</ele>
        <time>2021-05-08T06:46:26Z</time>
      </trkpt>
      <trkpt lat="40.4089670" lon="-3.8861830">
        <ele>684.5</ele>
        <time>2021-05-08T06:46:27Z</time>
      </trkpt>
      <trkpt lat="40.4090580" lon="-3.8861620">
        <ele>684.4</ele>
        <time>2021-05-08T06:46:29Z</time>
      </trkpt>
      <trkpt lat="40.4091020" lon="-3.8861500">
        <ele>684.3</ele>
        <time>2021-05-08T06:46:30Z</time>
      </trkpt>
      <trkpt lat="40.4091930" lon="-3.8861290">
        <ele>684.2</ele>
        <time>2021-05-08T06:46:32Z</time>
      </trkpt>
      <trkpt lat="40.4092920" lon="-3.8861110">
        <ele>684.2</ele>
        <time>2021-05-08T06:46:34Z</time>
      </trkpt>
      <trkpt lat="40.4093950" lon="-3.8860890">
        <ele>684.1</ele>
        <time>2021-05-08T06:46:36Z</time>
      </trkpt>
      <trkpt lat="40.4094490" lon="-3.8860790">
        <ele>684.1</ele>
        <time>2021-05-08T06:46:37Z</time>
      </trkpt>
      <trkpt lat="40.4094980" lon="-3.8860650">
        <ele>684.0</ele>
        <time>2021-05-08T06:46:38Z</time>
      </trkpt>
      <trkpt lat="40.4095930" lon="-3.8860340">
        <ele>684.2</ele>
        <time>2021-05-08T06:46:40Z</time>
      </trkpt>
      <trkpt lat="40.4096460" lon="-3.8860210">
        <ele>684.3</ele>
        <time>2021-05-08T06:46:41Z</time>
      </trkpt>
      <trkpt lat="40.4097410" lon="-3.8859980">
        <ele>684.6</ele>
        <time>2021-05-08T06:46:43Z</time>
      </trkpt>
      <trkpt lat="40.4097850" lon="-3.8859900">
        <ele>684.7</ele>
        <time>2021-05-08T06:46:44Z</time>
      </trkpt>
      <trkpt lat="40.4098230" lon="-3.8859760">
        <ele>684.8</ele>
        <time>2021-05-08T06:46:45Z</time>
      </trkpt>
      <trkpt lat="40.4099090" lon="-3.8859510">
        <ele>685.0</ele>
        <time>2021-05-08T06:46:47Z</time>
      </trkpt>
      <trkpt lat="40.4099910" lon="-3.8859360">
        <ele>685.2</ele>
        <time>2021-05-08T06:46:49Z</time>
      </trkpt>
      <trkpt lat="40.4100220" lon="-3.8859290">
        <ele>685.3</ele>
        <time>2021-05-08T06:46:50Z</time>
      </trkpt>
      <trkpt lat="40.4101130" lon="-3.8859120">
        <ele>685.5</ele>
        <time>2021-05-08T06:46:52Z</time>
      </trkpt>
      <trkpt lat="40.4101540" lon="-3.8858940">
        <ele>685.6</ele>
        <time>2021-05-08T06:46:54Z</time>
      </trkpt>
      <trkpt lat="40.4102050" lon="-3.8858600">
        <ele>685.6</ele>
        <time>2021-05-08T06:46:55Z</time>
      </trkpt>
      <trkpt lat="40.4102480" lon="-3.8858600">
        <ele>685.7</ele>
        <time>2021-05-08T06:46:56Z</time>
      </trkpt>
      <trkpt lat="40.4103240" lon="-3.8858540">
        <ele>685.7</ele>
        <time>2021-05-08T06:46:58Z</time>
      </trkpt>
      <trkpt lat="40.4103630" lon="-3.8858520">
        <ele>685.7</ele>
        <time>2021-05-08T06:46:59Z</time>
      </trkpt>
      <trkpt lat="40.4104390" lon="-3.8858380">
        <ele>685.8</ele>
        <time>2021-05-08T06:47:01Z</time>
      </trkpt>
      <trkpt lat="40.4104940" lon="-3.8858190">
        <ele>685.8</ele>
        <time>2021-05-08T06:47:02Z</time>
      </trkpt>
      <trkpt lat="40.4105880" lon="-3.8858260">
        <ele>685.9</ele>
        <time>2021-05-08T06:47:04Z</time>
      </trkpt>
      <trkpt lat="40.4106210" lon="-3.8858090">
        <ele>685.9</ele>
        <time>2021-05-08T06:47:05Z</time>
      </trkpt>
      <trkpt lat="40.4106840" lon="-3.8857720">
        <ele>685.9</ele>
        <time>2021-05-08T06:47:06Z</time>
      </trkpt>
      <trkpt lat="40.4107160" lon="-3.8857470">
        <ele>685.9</ele>
        <time>2021-05-08T06:47:08Z</time>
      </trkpt>
      <trkpt lat="40.4107720" lon="-3.8857440">
        <ele>685.8</ele>
        <time>2021-05-08T06:47:09Z</time>
      </trkpt>
      <trkpt lat="40.4108460" lon="-3.8857420">
        <ele>685.8</ele>
        <time>2021-05-08T06:47:10Z</time>
      </trkpt>
      <trkpt lat="40.4108970" lon="-3.8857360">
        <ele>685.7</ele>
        <time>2021-05-08T06:47:12Z</time>
      </trkpt>
      <trkpt lat="40.4109600" lon="-3.8857310">
        <ele>685.7</ele>
        <time>2021-05-08T06:47:13Z</time>
      </trkpt>
      <trkpt lat="40.4110240" lon="-3.8857190">
        <ele>685.7</ele>
        <time>2021-05-08T06:47:14Z</time>
      </trkpt>
      <trkpt lat="40.4110790" lon="-3.8857080">
        <ele>685.6</ele>
        <time>2021-05-08T06:47:15Z</time>
      </trkpt>
      <trkpt lat="40.4111700" lon="-3.8856840">
        <ele>685.4</ele>
        <time>2021-05-08T06:47:17Z</time>
      </trkpt>
      <trkpt lat="40.4112090" lon="-3.8856670">
        <ele>685.3</ele>
        <time>2021-05-08T06:47:18Z</time>
      </trkpt>
      <trkpt lat="40.4112260" lon="-3.8856610">
        <ele>685.3</ele>
        <time>2021-05-08T06:47:19Z</time>
      </trkpt>
      <trkpt lat="40.4112780" lon="-3.8856610">
        <ele>685.3</ele>
        <time>2021-05-08T06:47:21Z</time>
      </trkpt>
      <trkpt lat="40.4113260" lon="-3.8856570">
        <ele>685.2</ele>
        <time>2021-05-08T06:47:22Z</time>
      </trkpt>
      <trkpt lat="40.4113850" lon="-3.8856310">
        <ele>685.4</ele>
        <time>2021-05-08T06:47:24Z</time>
      </trkpt>
      <trkpt lat="40.4114300" lon="-3.8856140">
        <ele>685.4</ele>
        <time>2021-05-08T06:47:25Z</time>
      </trkpt>
      <trkpt lat="40.4114670" lon="-3.8855890">
        <ele>685.7</ele>
        <time>2021-05-08T06:47:26Z</time>
      </trkpt>
      <trkpt lat="40.4115060" lon="-3.8855500">
        <ele>686.1</ele>
        <time>2021-05-08T06:47:27Z</time>
      </trkpt>
      <trkpt lat="40.4115440" lon="-3.8854930">
        <ele>686.5</ele>
        <time>2021-05-08T06:47:29Z</time>
      </trkpt>
      <trkpt lat="40.4115600" lon="-3.8854490">
        <ele>686.8</ele>
        <time>2021-05-08T06:47:30Z</time>
      </trkpt>
      <trkpt lat="40.4115750" lon="-3.8853940">
        <ele>687.1</ele>
        <time>2021-05-08T06:47:31Z</time>
      </trkpt>
      <trkpt lat="40.4115860" lon="-3.8853510">
        <ele>687.4</ele>
        <time>2021-05-08T06:47:32Z</time>
      </trkpt>
      <trkpt lat="40.4115890" lon="-3.8853080">
        <ele>687.7</ele>
        <time>2021-05-08T06:47:33Z</time>
      </trkpt>
      <trkpt lat="40.4115830" lon="-3.8852540">
        <ele>688.0</ele>
        <time>2021-05-08T06:47:34Z</time>
      </trkpt>
      <trkpt lat="40.4115670" lon="-3.8852040">
        <ele>688.4</ele>
        <time>2021-05-08T06:47:36Z</time>
      </trkpt>
      <trkpt lat="40.4115580" lon="-3.8851650">
        <ele>688.6</ele>
        <time>2021-05-08T06:47:37Z</time>
      </trkpt>
      <trkpt lat="40.4115540" lon="-3.8851270">
        <ele>688.8</ele>
        <time>2021-05-08T06:47:38Z</time>
      </trkpt>
      <trkpt lat="40.4115500" lon="-3.8850860">
        <ele>689.1</ele>
        <time>2021-05-08T06:47:39Z</time>
      </trkpt>
      <trkpt lat="40.4115350" lon="-3.8850130">
        <ele>689.6</ele>
        <time>2021-05-08T06:47:41Z</time>
      </trkpt>
      <trkpt lat="40.4115250" lon="-3.8849710">
        <ele>689.8</ele>
        <time>2021-05-08T06:47:42Z</time>
      </trkpt>
      <trkpt lat="40.4115170" lon="-3.8849350">
        <ele>690.1</ele>
        <time>2021-05-08T06:47:43Z</time>
      </trkpt>
      <trkpt lat="40.4115100" lon="-3.8848630">
        <ele>690.5</ele>
        <time>2021-05-08T06:47:45Z</time>
      </trkpt>
      <trkpt lat="40.4114990" lon="-3.8847980">
        <ele>690.9</ele>
        <time>2021-05-08T06:47:47Z</time>
      </trkpt>
      <trkpt lat="40.4114950" lon="-3.8847390">
        <ele>691.3</ele>
        <time>2021-05-08T06:47:48Z</time>
      </trkpt>
      <trkpt lat="40.4114850" lon="-3.8846800">
        <ele>691.6</ele>
        <time>2021-05-08T06:47:50Z</time>
      </trkpt>
      <trkpt lat="40.4114800" lon="-3.8846290">
        <ele>691.9</ele>
        <time>2021-05-08T06:47:51Z</time>
      </trkpt>
      <trkpt lat="40.4114740" lon="-3.8845740">
        <ele>692.3</ele>
        <time>2021-05-08T06:47:53Z</time>
      </trkpt>
      <trkpt lat="40.4114720" lon="-3.8844920">
        <ele>692.7</ele>
        <time>2021-05-08T06:47:55Z</time>
      </trkpt>
      <trkpt lat="40.4114690" lon="-3.8844530">
        <ele>693.0</ele>
        <time>2021-05-08T06:47:56Z</time>
      </trkpt>
      <trkpt lat="40.4114690" lon="-3.8843850">
        <ele>693.4</ele>
        <time>2021-05-08T06:47:58Z</time>
      </trkpt>
      <trkpt lat="40.4114640" lon="-3.8843210">
        <ele>693.7</ele>
        <time>2021-05-08T06:48:00Z</time>
      </trkpt>
      <trkpt lat="40.4114570" lon="-3.8842560">
        <ele>694.1</ele>
        <time>2021-05-08T06:48:02Z</time>
      </trkpt>
      <trkpt lat="40.4114450" lon="-3.8841900">
        <ele>694.5</ele>
        <time>2021-05-08T06:48:04Z</time>
      </trkpt>
      <trkpt lat="40.4114340" lon="-3.8841270">
        <ele>694.8</ele>
        <time>2021-05-08T06:48:06Z</time>
      </trkpt>
      <trkpt lat="40.4114250" lon="-3.8840890">
        <ele>695.0</ele>
        <time>2021-05-08T06:48:07Z</time>
      </trkpt>
      <trkpt lat="40.4114180" lon="-3.8840520">
        <ele>695.2</ele>
        <time>2021-05-08T06:48:08Z</time>
      </trkpt>
      <trkpt lat="40.4114040" lon="-3.8839750">
        <ele>695.6</ele>
        <time>2021-05-08T06:48:10Z</time>
      </trkpt>
      <trkpt lat="40.4113990" lon="-3.8839360">
        <ele>695.8</ele>
        <time>2021-05-08T06:48:11Z</time>
      </trkpt>
      <trkpt lat="40.4113920" lon="-3.8838990">
        <ele>695.9</ele>
        <time>2021-05-08T06:48:12Z</time>
      </trkpt>
      <trkpt lat="40.4113850" lon="-3.8838410">
        <ele>696.2</ele>
        <time>2021-05-08T06:48:13Z</time>
      </trkpt>
      <trkpt lat="40.4113780" lon="-3.8837780">
        <ele>696.5</ele>
        <time>2021-05-08T06:48:15Z</time>
      </trkpt>
      <trkpt lat="40.4113640" lon="-3.8837000">
        <ele>696.8</ele>
        <time>2021-05-08T06:48:17Z</time>
      </trkpt>
      <trkpt lat="40.4113530" lon="-3.8836260">
        <ele>697.1</ele>
        <time>2021-05-08T06:48:19Z</time>
      </trkpt>
      <trkpt lat="40.4113480" lon="-3.8835840">
        <ele>697.3</ele>
        <time>2021-05-08T06:48:20Z</time>
      </trkpt>
      <trkpt lat="40.4113420" lon="-3.8835030">
        <ele>697.6</ele>
        <time>2021-05-08T06:48:22Z</time>
      </trkpt>
      <trkpt lat="40.4113380" lon="-3.8834590">
        <ele>697.8</ele>
        <time>2021-05-08T06:48:23Z</time>
      </trkpt>
      <trkpt lat="40.4113300" lon="-3.8833740">
        <ele>698.1</ele>
        <time>2021-05-08T06:48:25Z</time>
      </trkpt>
      <trkpt lat="40.4113210" lon="-3.8833010">
        <ele>698.3</ele>
        <time>2021-05-08T06:48:27Z</time>
      </trkpt>
      <trkpt lat="40.4113150" lon="-3.8832500">
        <ele>698.4</ele>
        <time>2021-05-08T06:48:28Z</time>
      </trkpt>
      <trkpt lat="40.4113110" lon="-3.8832090">
        <ele>698.5</ele>
        <time>2021-05-08T06:48:29Z</time>
      </trkpt>
      <trkpt lat="40.4113080" lon="-3.8831650">
        <ele>698.7</ele>
        <time>2021-05-08T06:48:30Z</time>
      </trkpt>
      <trkpt lat="40.4113000" lon="-3.8830870">
        <ele>698.9</ele>
        <time>2021-05-08T06:48:32Z</time>
      </trkpt>
      <trkpt lat="40.4112870" lon="-3.8829770">
        <ele>699.1</ele>
        <time>2021-05-08T06:48:34Z</time>
      </trkpt>
      <trkpt lat="40.4112750" lon="-3.8828960">
        <ele>699.4</ele>
        <time>2021-05-08T06:48:36Z</time>
      </trkpt>
      <trkpt lat="40.4112660" lon="-3.8828570">
        <ele>699.5</ele>
        <time>2021-05-08T06:48:37Z</time>
      </trkpt>
      <trkpt lat="40.4112570" lon="-3.8828180">
        <ele>699.5</ele>
        <time>2021-05-08T06:48:38Z</time>
      </trkpt>
      <trkpt lat="40.4112490" lon="-3.8827400">
        <ele>699.7</ele>
        <time>2021-05-08T06:48:40Z</time>
      </trkpt>
      <trkpt lat="40.4112410" lon="-3.8826880">
        <ele>699.8</ele>
        <time>2021-05-08T06:48:41Z</time>
      </trkpt>
      <trkpt lat="40.4112360" lon="-3.8826430">
        <ele>699.9</ele>
        <time>2021-05-08T06:48:42Z</time>
      </trkpt>
      <trkpt lat="40.4112250" lon="-3.8825580">
        <ele>700.1</ele>
        <time>2021-05-08T06:48:44Z</time>
      </trkpt>
      <trkpt lat="40.4112190" lon="-3.8825140">
        <ele>700.2</ele>
        <time>2021-05-08T06:48:45Z</time>
      </trkpt>
      <trkpt lat="40.4112070" lon="-3.8824330">
        <ele>700.3</ele>
        <time>2021-05-08T06:48:47Z</time>
      </trkpt>
      <trkpt lat="40.4111920" lon="-3.8823290">
        <ele>700.5</ele>
        <time>2021-05-08T06:48:49Z</time>
      </trkpt>
      <trkpt lat="40.4111800" lon="-3.8822680">
        <ele>700.5</ele>
        <time>2021-05-08T06:48:50Z</time>
      </trkpt>
      <trkpt lat="40.4111720" lon="-3.8822130">
        <ele>700.6</ele>
        <time>2021-05-08T06:48:52Z</time>
      </trkpt>
      <trkpt lat="40.4111630" lon="-3.8821540">
        <ele>700.7</ele>
        <time>2021-05-08T06:48:53Z</time>
      </trkpt>
      <trkpt lat="40.4111500" lon="-3.8820600">
        <ele>700.8</ele>
        <time>2021-05-08T06:48:55Z</time>
      </trkpt>
      <trkpt lat="40.4111430" lon="-3.8820140">
        <ele>700.9</ele>
        <time>2021-05-08T06:48:56Z</time>
      </trkpt>
      <trkpt lat="40.4111290" lon="-3.8819210">
        <ele>701.0</ele>
        <time>2021-05-08T06:48:58Z</time>
      </trkpt>
      <trkpt lat="40.4111130" lon="-3.8818360">
        <ele>701.1</ele>
        <time>2021-05-08T06:49:00Z</time>
      </trkpt>
      <trkpt lat="40.4110950" lon="-3.8817750">
        <ele>701.1</ele>
        <time>2021-05-08T06:49:01Z</time>
      </trkpt>
      <trkpt lat="40.4110770" lon="-3.8817260">
        <ele>701.2</ele>
        <time>2021-05-08T06:49:02Z</time>
      </trkpt>
      <trkpt lat="40.4110540" lon="-3.8816820">
        <ele>701.2</ele>
        <time>2021-05-08T06:49:03Z</time>
      </trkpt>
      <trkpt lat="40.4110310" lon="-3.8816430">
        <ele>701.2</ele>
        <time>2021-05-08T06:49:04Z</time>
      </trkpt>
      <trkpt lat="40.4109550" lon="-3.8815540">
        <ele>701.3</ele>
        <time>2021-05-08T06:49:06Z</time>
      </trkpt>
      <trkpt lat="40.4109120" lon="-3.8814880">
        <ele>701.3</ele>
        <time>2021-05-08T06:49:08Z</time>
      </trkpt>
      <trkpt lat="40.4108840" lon="-3.8814410">
        <ele>701.3</ele>
        <time>2021-05-08T06:49:09Z</time>
      </trkpt>
      <trkpt lat="40.4108270" lon="-3.8813150">
        <ele>701.2</ele>
        <time>2021-05-08T06:49:11Z</time>
      </trkpt>
      <trkpt lat="40.4108120" lon="-3.8812280">
        <ele>701.2</ele>
        <time>2021-05-08T06:49:12Z</time>
      </trkpt>
      <trkpt lat="40.4108270" lon="-3.8810670">
        <ele>701.2</ele>
        <time>2021-05-08T06:49:14Z</time>
      </trkpt>
      <trkpt lat="40.4108560" lon="-3.8809910">
        <ele>701.3</ele>
        <time>2021-05-08T06:49:15Z</time>
      </trkpt>
      <trkpt lat="40.4109320" lon="-3.8808610">
        <ele>701.2</ele>
        <time>2021-05-08T06:49:17Z</time>
      </trkpt>
      <trkpt lat="40.4109780" lon="-3.8808160">
        <ele>701.2</ele>
        <time>2021-05-08T06:49:18Z</time>
      </trkpt>
      <trkpt lat="40.4110850" lon="-3.8807700">
        <ele>701.1</ele>
        <time>2021-05-08T06:49:20Z</time>
      </trkpt>
      <trkpt lat="40.4111910" lon="-3.8807640">
        <ele>700.9</ele>
        <time>2021-05-08T06:49:22Z</time>
      </trkpt>
      <trkpt lat="40.4112910" lon="-3.8808010">
        <ele>701.1</ele>
        <time>2021-05-08T06:49:24Z</time>
      </trkpt>
      <trkpt lat="40.4113370" lon="-3.8808280">
        <ele>701.2</ele>
        <time>2021-05-08T06:49:25Z</time>
      </trkpt>
      <trkpt lat="40.4114170" lon="-3.8809060">
        <ele>701.3</ele>
        <time>2021-05-08T06:49:27Z</time>
      </trkpt>
      <trkpt lat="40.4114720" lon="-3.8810290">
        <ele>701.5</ele>
        <time>2021-05-08T06:49:29Z</time>
      </trkpt>
      <trkpt lat="40.4114880" lon="-3.8811040">
        <ele>701.6</ele>
        <time>2021-05-08T06:49:30Z</time>
      </trkpt>
      <trkpt lat="40.4114980" lon="-3.8812500">
        <ele>701.7</ele>
        <time>2021-05-08T06:49:32Z</time>
      </trkpt>
      <trkpt lat="40.4114710" lon="-3.8813850">
        <ele>701.8</ele>
        <time>2021-05-08T06:49:34Z</time>
      </trkpt>
      <trkpt lat="40.4114130" lon="-3.8815060">
        <ele>701.9</ele>
        <time>2021-05-08T06:49:36Z</time>
      </trkpt>
      <trkpt lat="40.4113440" lon="-3.8816230">
        <ele>701.8</ele>
        <time>2021-05-08T06:49:38Z</time>
      </trkpt>
      <trkpt lat="40.4113140" lon="-3.8817680">
        <ele>701.6</ele>
        <time>2021-05-08T06:49:40Z</time>
      </trkpt>
      <trkpt lat="40.4113180" lon="-3.8819150">
        <ele>701.4</ele>
        <time>2021-05-08T06:49:42Z</time>
      </trkpt>
      <trkpt lat="40.4113250" lon="-3.8819900">
        <ele>701.3</ele>
        <time>2021-05-08T06:49:43Z</time>
      </trkpt>
      <trkpt lat="40.4113390" lon="-3.8821320">
        <ele>701.1</ele>
        <time>2021-05-08T06:49:45Z</time>
      </trkpt>
      <trkpt lat="40.4113580" lon="-3.8822930">
        <ele>701.0</ele>
        <time>2021-05-08T06:49:47Z</time>
      </trkpt>
      <trkpt lat="40.4113710" lon="-3.8823800">
        <ele>700.8</ele>
        <time>2021-05-08T06:49:48Z</time>
      </trkpt>
      <trkpt lat="40.4114000" lon="-3.8825540">
        <ele>700.5</ele>
        <time>2021-05-08T06:49:50Z</time>
      </trkpt>
      <trkpt lat="40.4114130" lon="-3.8826400">
        <ele>700.3</ele>
        <time>2021-05-08T06:49:51Z</time>
      </trkpt>
      <trkpt lat="40.4114370" lon="-3.8828310">
        <ele>699.9</ele>
        <time>2021-05-08T06:49:53Z</time>
      </trkpt>
      <trkpt lat="40.4114630" lon="-3.8830380">
        <ele>699.4</ele>
        <time>2021-05-08T06:49:55Z</time>
      </trkpt>
      <trkpt lat="40.4114960" lon="-3.8832570">
        <ele>698.7</ele>
        <time>2021-05-08T06:49:57Z</time>
      </trkpt>
      <trkpt lat="40.4115130" lon="-3.8833670">
        <ele>698.4</ele>
        <time>2021-05-08T06:49:58Z</time>
      </trkpt>
      <trkpt lat="40.4115330" lon="-3.8834830">
        <ele>698.0</ele>
        <time>2021-05-08T06:49:59Z</time>
      </trkpt>
      <trkpt lat="40.4115540" lon="-3.8836020">
        <ele>697.6</ele>
        <time>2021-05-08T06:50:00Z</time>
      </trkpt>
      <trkpt lat="40.4115960" lon="-3.8838420">
        <ele>696.6</ele>
        <time>2021-05-08T06:50:02Z</time>
      </trkpt>
      <trkpt lat="40.4116350" lon="-3.8840930">
        <ele>695.5</ele>
        <time>2021-05-08T06:50:04Z</time>
      </trkpt>
      <trkpt lat="40.4116740" lon="-3.8843640">
        <ele>694.1</ele>
        <time>2021-05-08T06:50:06Z</time>
      </trkpt>
      <trkpt lat="40.4116950" lon="-3.8845080">
        <ele>693.3</ele>
        <time>2021-05-08T06:50:07Z</time>
      </trkpt>
      <trkpt lat="40.4117350" lon="-3.8848010">
        <ele>691.6</ele>
        <time>2021-05-08T06:50:09Z</time>
      </trkpt>
      <trkpt lat="40.4117560" lon="-3.8849550">
        <ele>690.8</ele>
        <time>2021-05-08T06:50:10Z</time>
      </trkpt>
      <trkpt lat="40.4118060" lon="-3.8852680">
        <ele>689.0</ele>
        <time>2021-05-08T06:50:12Z</time>
      </trkpt>
      <trkpt lat="40.4118590" lon="-3.8855950">
        <ele>686.7</ele>
        <time>2021-05-08T06:50:14Z</time>
      </trkpt>
      <trkpt lat="40.4118840" lon="-3.8857620">
        <ele>685.6</ele>
        <time>2021-05-08T06:50:15Z</time>
      </trkpt>
      <trkpt lat="40.4119360" lon="-3.8861020">
        <ele>683.1</ele>
        <time>2021-05-08T06:50:17Z</time>
      </trkpt>
      <trkpt lat="40.4119640" lon="-3.8862810">
        <ele>681.9</ele>
        <time>2021-05-08T06:50:18Z</time>
      </trkpt>
      <trkpt lat="40.4120230" lon="-3.8866410">
        <ele>679.5</ele>
        <time>2021-05-08T06:50:20Z</time>
      </trkpt>
      <trkpt lat="40.4120520" lon="-3.8868260">
        <ele>678.6</ele>
        <time>2021-05-08T06:50:21Z</time>
      </trkpt>
      <trkpt lat="40.4121070" lon="-3.8871770">
        <ele>677.9</ele>
        <time>2021-05-08T06:50:23Z</time>
      </trkpt>
      <trkpt lat="40.4121340" lon="-3.8873340">
        <ele>677.7</ele>
        <time>2021-05-08T06:50:24Z</time>
      </trkpt>
      <trkpt lat="40.4122160" lon="-3.8875700">
        <ele>677.6</ele>
        <time>2021-05-08T06:50:26Z</time>
      </trkpt>
      <trkpt lat="40.4123720" lon="-3.8876820">
        <ele>677.6</ele>
        <time>2021-05-08T06:50:28Z</time>
      </trkpt>
      <trkpt lat="40.4125570" lon="-3.8877170">
        <ele>678.1</ele>
        <time>2021-05-08T06:50:30Z</time>
      </trkpt>
      <trkpt lat="40.4127220" lon="-3.8877940">
        <ele>678.3</ele>
        <time>2021-05-08T06:50:32Z</time>
      </trkpt>
      <trkpt lat="40.4127990" lon="-3.8878570">
        <ele>678.4</ele>
        <time>2021-05-08T06:50:33Z</time>
      </trkpt>
      <trkpt lat="40.4128660" lon="-3.8879310">
        <ele>678.5</ele>
        <time>2021-05-08T06:50:34Z</time>
      </trkpt>
      <trkpt lat="40.4129310" lon="-3.8880150">
        <ele>678.6</ele>
        <time>2021-05-08T06:50:35Z</time>
      </trkpt>
      <trkpt lat="40.4130470" lon="-3.8882000">
        <ele>678.8</ele>
        <time>2021-05-08T06:50:37Z</time>
      </trkpt>
      <trkpt lat="40.4130910" lon="-3.8883020">
        <ele>678.9</ele>
        <time>2021-05-08T06:50:38Z</time>
      </trkpt>
      <trkpt lat="40.4131270" lon="-3.8884080">
        <ele>679.0</ele>
        <time>2021-05-08T06:50:39Z</time>
      </trkpt>
      <trkpt lat="40.4131730" lon="-3.8886370">
        <ele>679.0</ele>
        <time>2021-05-08T06:50:41Z</time>
      </trkpt>
      <trkpt lat="40.4131850" lon="-3.8887570">
        <ele>679.1</ele>
        <time>2021-05-08T06:50:42Z</time>
      </trkpt>
      <trkpt lat="40.4131860" lon="-3.8888740">
        <ele>679.1</ele>
        <time>2021-05-08T06:50:43Z</time>
      </trkpt>
      <trkpt lat="40.4131630" lon="-3.8890900">
        <ele>679.1</ele>
        <time>2021-05-08T06:50:45Z</time>
      </trkpt>
      <trkpt lat="40.4131410" lon="-3.8891980">
        <ele>679.1</ele>
        <time>2021-05-08T06:50:46Z</time>
      </trkpt>
      <trkpt lat="40.4130710" lon="-3.8893930">
        <ele>679.1</ele>
        <time>2021-05-08T06:50:48Z</time>
      </trkpt>
      <trkpt lat="40.4130250" lon="-3.8894810">
        <ele>679.1</ele>
        <time>2021-05-08T06:50:49Z</time>
      </trkpt>
      <trkpt lat="40.4129220" lon="-3.8896380">
        <ele>679.0</ele>
        <time>2021-05-08T06:50:51Z</time>
      </trkpt>
      <trkpt lat="40.4128620" lon="-3.8897030">
        <ele>678.9</ele>
        <time>2021-05-08T06:50:52Z</time>
      </trkpt>
      <trkpt lat="40.4127350" lon="-3.8898280">
        <ele>678.8</ele>
        <time>2021-05-08T06:50:54Z</time>
      </trkpt>
      <trkpt lat="40.4126200" lon="-3.8899580">
        <ele>678.6</ele>
        <time>2021-05-08T06:50:56Z</time>
      </trkpt>
      <trkpt lat="40.4125400" lon="-3.8901180">
        <ele>678.3</ele>
        <time>2021-05-08T06:50:58Z</time>
      </trkpt>
      <trkpt lat="40.4125220" lon="-3.8902150">
        <ele>678.2</ele>
        <time>2021-05-08T06:50:59Z</time>
      </trkpt>
      <trkpt lat="40.4125090" lon="-3.8903090">
        <ele>678.2</ele>
        <time>2021-05-08T06:51:00Z</time>
      </trkpt>
      <trkpt lat="40.4124970" lon="-3.8904020">
        <ele>678.2</ele>
        <time>2021-05-08T06:51:01Z</time>
      </trkpt>
      <trkpt lat="40.4124870" lon="-3.8904940">
        <ele>678.2</ele>
        <time>2021-05-08T06:51:02Z</time>
      </trkpt>
      <trkpt lat="40.4124800" lon="-3.8906780">
        <ele>678.5</ele>
        <time>2021-05-08T06:51:04Z</time>
      </trkpt>
      <trkpt lat="40.4124910" lon="-3.8908400">
        <ele>678.8</ele>
        <time>2021-05-08T06:51:06Z</time>
      </trkpt>
      <trkpt lat="40.4124970" lon="-3.8909920">
        <ele>679.1</ele>
        <time>2021-05-08T06:51:08Z</time>
      </trkpt>
      <trkpt lat="40.4125050" lon="-3.8911350">
        <ele>679.5</ele>
        <time>2021-05-08T06:51:10Z</time>
      </trkpt>
      <trkpt lat="40.4125070" lon="-3.8912080">
        <ele>679.7</ele>
        <time>2021-05-08T06:51:11Z</time>
      </trkpt>
      <trkpt lat="40.4125110" lon="-3.8913450">
        <ele>680.1</ele>
        <time>2021-05-08T06:51:13Z</time>
      </trkpt>
      <trkpt lat="40.4125130" lon="-3.8914680">
        <ele>680.6</ele>
        <time>2021-05-08T06:51:15Z</time>
      </trkpt>
      <trkpt lat="40.4125150" lon="-3.8915260">
        <ele>680.9</ele>
        <time>2021-05-08T06:51:16Z</time>
      </trkpt>
      <trkpt lat="40.4125190" lon="-3.8915860">
        <ele>681.2</ele>
        <time>2021-05-08T06:51:17Z</time>
      </trkpt>
      <trkpt lat="40.4125250" lon="-3.8917030">
        <ele>681.8</ele>
        <time>2021-05-08T06:51:19Z</time>
      </trkpt>
      <trkpt lat="40.4125290" lon="-3.8917640">
        <ele>682.1</ele>
        <time>2021-05-08T06:51:20Z</time>
      </trkpt>
      <trkpt lat="40.4125370" lon="-3.8918600">
        <ele>682.5</ele>
        <time>2021-05-08T06:51:22Z</time>
      </trkpt>
      <trkpt lat="40.4125410" lon="-3.8919810">
        <ele>683.0</ele>
        <time>2021-05-08T06:51:24Z</time>
      </trkpt>
      <trkpt lat="40.4125440" lon="-3.8920820">
        <ele>683.4</ele>
        <time>2021-05-08T06:51:26Z</time>
      </trkpt>
      <trkpt lat="40.4125500" lon="-3.8921570">
        <ele>683.6</ele>
        <time>2021-05-08T06:51:27Z</time>
      </trkpt>
      <trkpt lat="40.4125550" lon="-3.8922510">
        <ele>684.0</ele>
        <time>2021-05-08T06:51:29Z</time>
      </trkpt>
      <trkpt lat="40.4125570" lon="-3.8923660">
        <ele>684.4</ele>
        <time>2021-05-08T06:51:31Z</time>
      </trkpt>
      <trkpt lat="40.4125580" lon="-3.8924190">
        <ele>684.6</ele>
        <time>2021-05-08T06:51:32Z</time>
      </trkpt>
      <trkpt lat="40.4125580" lon="-3.8924490">
        <ele>684.7</ele>
        <time>2021-05-08T06:51:33Z</time>
      </trkpt>
      <trkpt lat="40.4125620" lon="-3.8925500">
        <ele>685.0</ele>
        <time>2021-05-08T06:51:35Z</time>
      </trkpt>
      <trkpt lat="40.4125640" lon="-3.8926070">
        <ele>685.2</ele>
        <time>2021-05-08T06:51:36Z</time>
      </trkpt>
      <trkpt lat="40.4125680" lon="-3.8927230">
        <ele>685.6</ele>
        <time>2021-05-08T06:51:38Z</time>
      </trkpt>
      <trkpt lat="40.4125670" lon="-3.8928220">
        <ele>685.8</ele>
        <time>2021-05-08T06:51:40Z</time>
      </trkpt>
      <trkpt lat="40.4125690" lon="-3.8928800">
        <ele>685.9</ele>
        <time>2021-05-08T06:51:41Z</time>
      </trkpt>
      <trkpt lat="40.4125720" lon="-3.8929960">
        <ele>686.2</ele>
        <time>2021-05-08T06:51:43Z</time>
      </trkpt>
      <trkpt lat="40.4125720" lon="-3.8930690">
        <ele>686.3</ele>
        <time>2021-05-08T06:51:44Z</time>
      </trkpt>
      <trkpt lat="40.4125720" lon="-3.8931970">
        <ele>686.5</ele>
        <time>2021-05-08T06:51:46Z</time>
      </trkpt>
      <trkpt lat="40.4125740" lon="-3.8932610">
        <ele>686.7</ele>
        <time>2021-05-08T06:51:47Z</time>
      </trkpt>
      <trkpt lat="40.4125750" lon="-3.8933190">
        <ele>686.7</ele>
        <time>2021-05-08T06:51:48Z</time>
      </trkpt>
      <trkpt lat="40.4125760" lon="-3.8934380">
        <ele>686.9</ele>
        <time>2021-05-08T06:51:50Z</time>
      </trkpt>
      <trkpt lat="40.4125780" lon="-3.8935570">
        <ele>687.0</ele>
        <time>2021-05-08T06:51:52Z</time>
      </trkpt>
      <trkpt lat="40.4125810" lon="-3.8936180">
        <ele>687.1</ele>
        <time>2021-05-08T06:51:53Z</time>
      </trkpt>
      <trkpt lat="40.4125850" lon="-3.8936780">
        <ele>687.1</ele>
        <time>2021-05-08T06:51:54Z</time>
      </trkpt>
      <trkpt lat="40.4125900" lon="-3.8937420">
        <ele>687.2</ele>
        <time>2021-05-08T06:51:55Z</time>
      </trkpt>
      <trkpt lat="40.4125980" lon="-3.8938680">
        <ele>687.3</ele>
        <time>2021-05-08T06:51:57Z</time>
      </trkpt>
      <trkpt lat="40.4126010" lon="-3.8939890">
        <ele>687.4</ele>
        <time>2021-05-08T06:51:59Z</time>
      </trkpt>
      <trkpt lat="40.4125970" lon="-3.8941160">
        <ele>687.5</ele>
        <time>2021-05-08T06:52:01Z</time>
      </trkpt>
      <trkpt lat="40.4125990" lon="-3.8942390">
        <ele>687.6</ele>
        <time>2021-05-08T06:52:03Z</time>
      </trkpt>
      <trkpt lat="40.4126060" lon="-3.8943640">
        <ele>687.7</ele>
        <time>2021-05-08T06:52:05Z</time>
      </trkpt>
      <trkpt lat="40.4126130" lon="-3.8944850">
        <ele>687.8</ele>
        <time>2021-05-08T06:52:07Z</time>
      </trkpt>
      <trkpt lat="40.4126170" lon="-3.8945520">
        <ele>687.8</ele>
        <time>2021-05-08T06:52:08Z</time>
      </trkpt>
      <trkpt lat="40.4126200" lon="-3.8946850">
        <ele>687.9</ele>
        <time>2021-05-08T06:52:10Z</time>
      </trkpt>
      <trkpt lat="40.4126250" lon="-3.8948120">
        <ele>688.0</ele>
        <time>2021-05-08T06:52:12Z</time>
      </trkpt>
      <trkpt lat="40.4126280" lon="-3.8948730">
        <ele>688.0</ele>
        <time>2021-05-08T06:52:13Z</time>
      </trkpt>
      <trkpt lat="40.4126310" lon="-3.8949340">
        <ele>688.0</ele>
        <time>2021-05-08T06:52:14Z</time>
      </trkpt>
      <trkpt lat="40.4126320" lon="-3.8950070">
        <ele>688.0</ele>
        <time>2021-05-08T06:52:15Z</time>
      </trkpt>
      <trkpt lat="40.4126330" lon="-3.8951330">
        <ele>688.1</ele>
        <time>2021-05-08T06:52:17Z</time>
      </trkpt>
      <trkpt lat="40.4126350" lon="-3.8952010">
        <ele>688.1</ele>
        <time>2021-05-08T06:52:18Z</time>
      </trkpt>
      <trkpt lat="40.4126430" lon="-3.8953320">
        <ele>688.2</ele>
        <time>2021-05-08T06:52:20Z</time>
      </trkpt>
      <trkpt lat="40.4126520" lon="-3.8954580">
        <ele>688.3</ele>
        <time>2021-05-08T06:52:22Z</time>
      </trkpt>
      <trkpt lat="40.4126580" lon="-3.8955880">
        <ele>688.4</ele>
        <time>2021-05-08T06:52:24Z</time>
      </trkpt>
      <trkpt lat="40.4126630" lon="-3.8956500">
        <ele>688.5</ele>
        <time>2021-05-08T06:52:25Z</time>
      </trkpt>
      <trkpt lat="40.4126720" lon="-3.8957770">
        <ele>688.7</ele>
        <time>2021-05-08T06:52:27Z</time>
      </trkpt>
      <trkpt lat="40.4126750" lon="-3.8958370">
        <ele>688.8</ele>
        <time>2021-05-08T06:52:28Z</time>
      </trkpt>
      <trkpt lat="40.4126770" lon="-3.8958960">
        <ele>688.9</ele>
        <time>2021-05-08T06:52:29Z</time>
      </trkpt>
      <trkpt lat="40.4126830" lon="-3.8959940">
        <ele>689.1</ele>
        <time>2021-05-08T06:52:31Z</time>
      </trkpt>
      <trkpt lat="40.4126840" lon="-3.8961010">
        <ele>689.3</ele>
        <time>2021-05-08T06:52:33Z</time>
      </trkpt>
      <trkpt lat="40.4126850" lon="-3.8961600">
        <ele>689.4</ele>
        <time>2021-05-08T06:52:34Z</time>
      </trkpt>
      <trkpt lat="40.4126870" lon="-3.8962230">
        <ele>689.6</ele>
        <time>2021-05-08T06:52:35Z</time>
      </trkpt>
      <trkpt lat="40.4126670" lon="-3.8962270">
        <ele>689.6</ele>
        <time>2021-05-08T06:52:37Z</time>
      </trkpt>
      <trkpt lat="40.4126830" lon="-3.8963740">
        <ele>690.0</ele>
        <time>2021-05-08T06:52:39Z</time>
      </trkpt>
      <trkpt lat="40.4127060" lon="-3.8965060">
        <ele>690.4</ele>
        <time>2021-05-08T06:52:41Z</time>
      </trkpt>
      <trkpt lat="40.4127220" lon="-3.8965900">
        <ele>690.7</ele>
        <time>2021-05-08T06:52:42Z</time>
      </trkpt>
      <trkpt lat="40.4127340" lon="-3.8966510">
        <ele>690.9</ele>
        <time>2021-05-08T06:52:43Z</time>
      </trkpt>
      <trkpt lat="40.4127470" lon="-3.8967140">
        <ele>691.1</ele>
        <time>2021-05-08T06:52:44Z</time>
      </trkpt>
      <trkpt lat="40.4127640" lon="-3.8968040">
        <ele>691.4</ele>
        <time>2021-05-08T06:52:46Z</time>
      </trkpt>
      <trkpt lat="40.4128030" lon="-3.8969320">
        <ele>691.9</ele>
        <time>2021-05-08T06:52:48Z</time>
      </trkpt>
      <trkpt lat="40.4128420" lon="-3.8970010">
        <ele>692.3</ele>
        <time>2021-05-08T06:52:50Z</time>
      </trkpt>
      <trkpt lat="40.4128740" lon="-3.8970580">
        <ele>692.5</ele>
        <time>2021-05-08T06:52:51Z</time>
      </trkpt>
      <trkpt lat="40.4128890" lon="-3.8971500">
        <ele>692.7</ele>
        <time>2021-05-08T06:52:53Z</time>
      </trkpt>
      <trkpt lat="40.4128910" lon="-3.8972260">
        <ele>692.9</ele>
        <time>2021-05-08T06:52:54Z</time>
      </trkpt>
      <trkpt lat="40.4128870" lon="-3.8972970">
        <ele>693.1</ele>
        <time>2021-05-08T06:52:55Z</time>
      </trkpt>
      <trkpt lat="40.4128620" lon="-3.8973890">
        <ele>693.3</ele>
        <time>2021-05-08T06:52:56Z</time>
      </trkpt>
      <trkpt lat="40.4128350" lon="-3.8974420">
        <ele>693.4</ele>
        <time>2021-05-08T06:52:57Z</time>
      </trkpt>
      <trkpt lat="40.4127970" lon="-3.8975040">
        <ele>693.6</ele>
        <time>2021-05-08T06:52:59Z</time>
      </trkpt>
      <trkpt lat="40.4127670" lon="-3.8975490">
        <ele>694.0</ele>
        <time>2021-05-08T06:53:00Z</time>
      </trkpt>
      <trkpt lat="40.4127390" lon="-3.8975950">
        <ele>694.2</ele>
        <time>2021-05-08T06:53:01Z</time>
      </trkpt>
      <trkpt lat="40.4127150" lon="-3.8976460">
        <ele>694.4</ele>
        <time>2021-05-08T06:53:02Z</time>
      </trkpt>
      <trkpt lat="40.4126840" lon="-3.8977460">
        <ele>694.8</ele>
        <time>2021-05-08T06:53:04Z</time>
      </trkpt>
      <trkpt lat="40.4126810" lon="-3.8978150">
        <ele>695.1</ele>
        <time>2021-05-08T06:53:05Z</time>
      </trkpt>
      <trkpt lat="40.4126880" lon="-3.8979190">
        <ele>695.5</ele>
        <time>2021-05-08T06:53:07Z</time>
      </trkpt>
      <trkpt lat="40.4126900" lon="-3.8979770">
        <ele>695.7</ele>
        <time>2021-05-08T06:53:08Z</time>
      </trkpt>
      <trkpt lat="40.4126930" lon="-3.8980850">
        <ele>696.2</ele>
        <time>2021-05-08T06:53:10Z</time>
      </trkpt>
      <trkpt lat="40.4126950" lon="-3.8981350">
        <ele>696.4</ele>
        <time>2021-05-08T06:53:11Z</time>
      </trkpt>
      <trkpt lat="40.4126990" lon="-3.8981860">
        <ele>696.5</ele>
        <time>2021-05-08T06:53:12Z</time>
      </trkpt>
      <trkpt lat="40.4127000" lon="-3.8982400">
        <ele>696.8</ele>
        <time>2021-05-08T06:53:13Z</time>
      </trkpt>
      <trkpt lat="40.4126990" lon="-3.8982950">
        <ele>697.0</ele>
        <time>2021-05-08T06:53:14Z</time>
      </trkpt>
      <trkpt lat="40.4126990" lon="-3.8983580">
        <ele>697.2</ele>
        <time>2021-05-08T06:53:15Z</time>
      </trkpt>
      <trkpt lat="40.4127000" lon="-3.8984120">
        <ele>697.4</ele>
        <time>2021-05-08T06:53:16Z</time>
      </trkpt>
      <trkpt lat="40.4126990" lon="-3.8985070">
        <ele>697.8</ele>
        <time>2021-05-08T06:53:18Z</time>
      </trkpt>
      <trkpt lat="40.4127000" lon="-3.8985650">
        <ele>698.0</ele>
        <time>2021-05-08T06:53:19Z</time>
      </trkpt>
      <trkpt lat="40.4127000" lon="-3.8986520">
        <ele>698.4</ele>
        <time>2021-05-08T06:53:21Z</time>
      </trkpt>
      <trkpt lat="40.4127010" lon="-3.8987300">
        <ele>698.7</ele>
        <time>2021-05-08T06:53:22Z</time>
      </trkpt>
      <trkpt lat="40.4127030" lon="-3.8988060">
        <ele>699.0</ele>
        <time>2021-05-08T06:53:23Z</time>
      </trkpt>
      <trkpt lat="40.4127020" lon="-3.8988680">
        <ele>699.3</ele>
        <time>2021-05-08T06:53:24Z</time>
      </trkpt>
      <trkpt lat="40.4127020" lon="-3.8989430">
        <ele>699.6</ele>
        <time>2021-05-08T06:53:26Z</time>
      </trkpt>
      <trkpt lat="40.4127100" lon="-3.8990190">
        <ele>699.9</ele>
        <time>2021-05-08T06:53:27Z</time>
      </trkpt>
      <trkpt lat="40.4127130" lon="-3.8991000">
        <ele>700.3</ele>
        <time>2021-05-08T06:53:29Z</time>
      </trkpt>
      <trkpt lat="40.4127160" lon="-3.8991580">
        <ele>700.5</ele>
        <time>2021-05-08T06:53:30Z</time>
      </trkpt>
      <trkpt lat="40.4127230" lon="-3.8992650">
        <ele>700.9</ele>
        <time>2021-05-08T06:53:32Z</time>
      </trkpt>
      <trkpt lat="40.4127330" lon="-3.8993570">
        <ele>701.2</ele>
        <time>2021-05-08T06:53:34Z</time>
      </trkpt>
      <trkpt lat="40.4127370" lon="-3.8994280">
        <ele>701.5</ele>
        <time>2021-05-08T06:53:35Z</time>
      </trkpt>
      <trkpt lat="40.4127420" lon="-3.8994830">
        <ele>701.7</ele>
        <time>2021-05-08T06:53:36Z</time>
      </trkpt>
      <trkpt lat="40.4127580" lon="-3.8995770">
        <ele>702.0</ele>
        <time>2021-05-08T06:53:38Z</time>
      </trkpt>
      <trkpt lat="40.4127640" lon="-3.8996330">
        <ele>702.2</ele>
        <time>2021-05-08T06:53:39Z</time>
      </trkpt>
      <trkpt lat="40.4127710" lon="-3.8996900">
        <ele>702.4</ele>
        <time>2021-05-08T06:53:40Z</time>
      </trkpt>
      <trkpt lat="40.4127770" lon="-3.8997430">
        <ele>702.6</ele>
        <time>2021-05-08T06:53:41Z</time>
      </trkpt>
      <trkpt lat="40.4127870" lon="-3.8998370">
        <ele>702.9</ele>
        <time>2021-05-08T06:53:43Z</time>
      </trkpt>
      <trkpt lat="40.4127990" lon="-3.8998950">
        <ele>703.0</ele>
        <time>2021-05-08T06:53:44Z</time>
      </trkpt>
      <trkpt lat="40.4128160" lon="-3.8999720">
        <ele>703.2</ele>
        <time>2021-05-08T06:53:45Z</time>
      </trkpt>
      <trkpt lat="40.4128280" lon="-3.9000300">
        <ele>703.3</ele>
        <time>2021-05-08T06:53:46Z</time>
      </trkpt>
      <trkpt lat="40.4128470" lon="-3.9001210">
        <ele>703.3</ele>
        <time>2021-05-08T06:53:48Z</time>
      </trkpt>
      <trkpt lat="40.4128720" lon="-3.9002480">
        <ele>703.2</ele>
        <time>2021-05-08T06:53:50Z</time>
      </trkpt>
      <trkpt lat="40.4129050" lon="-3.9003850">
        <ele>702.9</ele>
        <time>2021-05-08T06:53:52Z</time>
      </trkpt>
      <trkpt lat="40.4129250" lon="-3.9004530">
        <ele>702.7</ele>
        <time>2021-05-08T06:53:53Z</time>
      </trkpt>
      <trkpt lat="40.4129510" lon="-3.9005270">
        <ele>702.5</ele>
        <time>2021-05-08T06:53:54Z</time>
      </trkpt>
      <trkpt lat="40.4130070" lon="-3.9006850">
        <ele>701.8</ele>
        <time>2021-05-08T06:53:56Z</time>
      </trkpt>
      <trkpt lat="40.4130580" lon="-3.9008570">
        <ele>701.1</ele>
        <time>2021-05-08T06:53:58Z</time>
      </trkpt>
      <trkpt lat="40.4131150" lon="-3.9010370">
        <ele>700.4</ele>
        <time>2021-05-08T06:54:00Z</time>
      </trkpt>
      <trkpt lat="40.4131460" lon="-3.9011380">
        <ele>700.0</ele>
        <time>2021-05-08T06:54:01Z</time>
      </trkpt>
      <trkpt lat="40.4132070" lon="-3.9013230">
        <ele>699.3</ele>
        <time>2021-05-08T06:54:03Z</time>
      </trkpt>
      <trkpt lat="40.4132410" lon="-3.9014210">
        <ele>698.9</ele>
        <time>2021-05-08T06:54:04Z</time>
      </trkpt>
      <trkpt lat="40.4133080" lon="-3.9016260">
        <ele>698.0</ele>
        <time>2021-05-08T06:54:06Z</time>
      </trkpt>
      <trkpt lat="40.4133810" lon="-3.9018340">
        <ele>697.2</ele>
        <time>2021-05-08T06:54:08Z</time>
      </trkpt>
      <trkpt lat="40.4134160" lon="-3.9019380">
        <ele>696.8</ele>
        <time>2021-05-08T06:54:09Z</time>
      </trkpt>
      <trkpt lat="40.4134890" lon="-3.9021510">
        <ele>696.1</ele>
        <time>2021-05-08T06:54:11Z</time>
      </trkpt>
      <trkpt lat="40.4135270" lon="-3.9022590">
        <ele>695.7</ele>
        <time>2021-05-08T06:54:12Z</time>
      </trkpt>
      <trkpt lat="40.4135980" lon="-3.9024720">
        <ele>695.1</ele>
        <time>2021-05-08T06:54:14Z</time>
      </trkpt>
      <trkpt lat="40.4136750" lon="-3.9026830">
        <ele>694.6</ele>
        <time>2021-05-08T06:54:16Z</time>
      </trkpt>
      <trkpt lat="40.4137140" lon="-3.9027910">
        <ele>694.4</ele>
        <time>2021-05-08T06:54:17Z</time>
      </trkpt>
      <trkpt lat="40.4137910" lon="-3.9030010">
        <ele>693.7</ele>
        <time>2021-05-08T06:54:19Z</time>
      </trkpt>
      <trkpt lat="40.4138650" lon="-3.9032180">
        <ele>692.8</ele>
        <time>2021-05-08T06:54:21Z</time>
      </trkpt>
      <trkpt lat="40.4139020" lon="-3.9033310">
        <ele>692.3</ele>
        <time>2021-05-08T06:54:22Z</time>
      </trkpt>
      <trkpt lat="40.4139760" lon="-3.9035770">
        <ele>690.9</ele>
        <time>2021-05-08T06:54:24Z</time>
      </trkpt>
      <trkpt lat="40.4140110" lon="-3.9037040">
        <ele>690.1</ele>
        <time>2021-05-08T06:54:25Z</time>
      </trkpt>
      <trkpt lat="40.4140870" lon="-3.9039690">
        <ele>688.4</ele>
        <time>2021-05-08T06:54:27Z</time>
      </trkpt>
      <trkpt lat="40.4141300" lon="-3.9041030">
        <ele>687.6</ele>
        <time>2021-05-08T06:54:28Z</time>
      </trkpt>
      <trkpt lat="40.4142120" lon="-3.9043890">
        <ele>685.8</ele>
        <time>2021-05-08T06:54:30Z</time>
      </trkpt>
      <trkpt lat="40.4142970" lon="-3.9046870">
        <ele>683.8</ele>
        <time>2021-05-08T06:54:32Z</time>
      </trkpt>
      <trkpt lat="40.4143850" lon="-3.9049970">
        <ele>681.6</ele>
        <time>2021-05-08T06:54:34Z</time>
      </trkpt>
      <trkpt lat="40.4144300" lon="-3.9051580">
        <ele>680.5</ele>
        <time>2021-05-08T06:54:35Z</time>
      </trkpt>
      <trkpt lat="40.4145210" lon="-3.9054800">
        <ele>678.4</ele>
        <time>2021-05-08T06:54:37Z</time>
      </trkpt>
      <trkpt lat="40.4146090" lon="-3.9058030">
        <ele>676.5</ele>
        <time>2021-05-08T06:54:39Z</time>
      </trkpt>
      <trkpt lat="40.4146980" lon="-3.9061180">
        <ele>675.2</ele>
        <time>2021-05-08T06:54:41Z</time>
      </trkpt>
      <trkpt lat="40.4147900" lon="-3.9064160">
        <ele>674.1</ele>
        <time>2021-05-08T06:54:43Z</time>
      </trkpt>
      <trkpt lat="40.4148370" lon="-3.9065630">
        <ele>673.4</ele>
        <time>2021-05-08T06:54:44Z</time>
      </trkpt>
      <trkpt lat="40.4149250" lon="-3.9068620">
        <ele>671.9</ele>
        <time>2021-05-08T06:54:46Z</time>
      </trkpt>
      <trkpt lat="40.4150130" lon="-3.9071720">
        <ele>670.3</ele>
        <time>2021-05-08T06:54:48Z</time>
      </trkpt>
      <trkpt lat="40.4151020" lon="-3.9074850">
        <ele>668.9</ele>
        <time>2021-05-08T06:54:50Z</time>
      </trkpt>
      <trkpt lat="40.4151460" lon="-3.9076420">
        <ele>668.4</ele>
        <time>2021-05-08T06:54:51Z</time>
      </trkpt>
      <trkpt lat="40.4152360" lon="-3.9079360">
        <ele>667.7</ele>
        <time>2021-05-08T06:54:53Z</time>
      </trkpt>
      <trkpt lat="40.4152820" lon="-3.9080800">
        <ele>667.5</ele>
        <time>2021-05-08T06:54:54Z</time>
      </trkpt>
      <trkpt lat="40.4153730" lon="-3.9083590">
        <ele>667.8</ele>
        <time>2021-05-08T06:54:56Z</time>
      </trkpt>
      <trkpt lat="40.4154200" lon="-3.9084810">
        <ele>668.1</ele>
        <time>2021-05-08T06:54:57Z</time>
      </trkpt>
      <trkpt lat="40.4155060" lon="-3.9086880">
        <ele>669.3</ele>
        <time>2021-05-08T06:54:59Z</time>
      </trkpt>
      <trkpt lat="40.4155460" lon="-3.9087770">
        <ele>669.9</ele>
        <time>2021-05-08T06:55:00Z</time>
      </trkpt>
      <trkpt lat="40.4155860" lon="-3.9088450">
        <ele>670.5</ele>
        <time>2021-05-08T06:55:01Z</time>
      </trkpt>
      <trkpt lat="40.4156560" lon="-3.9089660">
        <ele>671.7</ele>
        <time>2021-05-08T06:55:03Z</time>
      </trkpt>
      <trkpt lat="40.4157200" lon="-3.9090690">
        <ele>672.8</ele>
        <time>2021-05-08T06:55:05Z</time>
      </trkpt>
      <trkpt lat="40.4157540" lon="-3.9091160">
        <ele>673.3</ele>
        <time>2021-05-08T06:55:06Z</time>
      </trkpt>
      <trkpt lat="40.4158200" lon="-3.9092010">
        <ele>674.2</ele>
        <time>2021-05-08T06:55:08Z</time>
      </trkpt>
      <trkpt lat="40.4158520" lon="-3.9092430">
        <ele>674.6</ele>
        <time>2021-05-08T06:55:09Z</time>
      </trkpt>
      <trkpt lat="40.4159080" lon="-3.9093100">
        <ele>675.4</ele>
        <time>2021-05-08T06:55:11Z</time>
      </trkpt>
      <trkpt lat="40.4159360" lon="-3.9093430">
        <ele>675.8</ele>
        <time>2021-05-08T06:55:12Z</time>
      </trkpt>
      <trkpt lat="40.4159720" lon="-3.9093850">
        <ele>676.3</ele>
        <time>2021-05-08T06:55:13Z</time>
      </trkpt>
      <trkpt lat="40.4160070" lon="-3.9094260">
        <ele>676.8</ele>
        <time>2021-05-08T06:55:14Z</time>
      </trkpt>
      <trkpt lat="40.4160150" lon="-3.9094600">
        <ele>677.0</ele>
        <time>2021-05-08T06:55:16Z</time>
      </trkpt>
      <trkpt lat="40.4160520" lon="-3.9094960">
        <ele>677.5</ele>
        <time>2021-05-08T06:55:17Z</time>
      </trkpt>
      <trkpt lat="40.4161350" lon="-3.9095560">
        <ele>678.5</ele>
        <time>2021-05-08T06:55:19Z</time>
      </trkpt>
      <trkpt lat="40.4161800" lon="-3.9095910">
        <ele>679.0</ele>
        <time>2021-05-08T06:55:20Z</time>
      </trkpt>
      <trkpt lat="40.4162180" lon="-3.9096230">
        <ele>679.4</ele>
        <time>2021-05-08T06:55:21Z</time>
      </trkpt>
      <trkpt lat="40.4162510" lon="-3.9096550">
        <ele>679.7</ele>
        <time>2021-05-08T06:55:22Z</time>
      </trkpt>
      <trkpt lat="40.4162790" lon="-3.9096810">
        <ele>680.0</ele>
        <time>2021-05-08T06:55:23Z</time>
      </trkpt>
      <trkpt lat="40.4163450" lon="-3.9097300">
        <ele>680.6</ele>
        <time>2021-05-08T06:55:25Z</time>
      </trkpt>
      <trkpt lat="40.4163740" lon="-3.9097530">
        <ele>680.9</ele>
        <time>2021-05-08T06:55:26Z</time>
      </trkpt>
      <trkpt lat="40.4164070" lon="-3.9097840">
        <ele>681.2</ele>
        <time>2021-05-08T06:55:27Z</time>
      </trkpt>
      <trkpt lat="40.4164640" lon="-3.9098320">
        <ele>681.7</ele>
        <time>2021-05-08T06:55:29Z</time>
      </trkpt>
      <trkpt lat="40.4165140" lon="-3.9098730">
        <ele>682.2</ele>
        <time>2021-05-08T06:55:31Z</time>
      </trkpt>
      <trkpt lat="40.4165660" lon="-3.9099190">
        <ele>682.7</ele>
        <time>2021-05-08T06:55:33Z</time>
      </trkpt>
      <trkpt lat="40.4166160" lon="-3.9099570">
        <ele>683.1</ele>
        <time>2021-05-08T06:55:35Z</time>
      </trkpt>
      <trkpt lat="40.4166420" lon="-3.9099810">
        <ele>683.3</ele>
        <time>2021-05-08T06:55:36Z</time>
      </trkpt>
      <trkpt lat="40.4166710" lon="-3.9100110">
        <ele>683.6</ele>
        <time>2021-05-08T06:55:37Z</time>
      </trkpt>
      <trkpt lat="40.4167260" lon="-3.9100600">
        <ele>684.1</ele>
        <time>2021-05-08T06:55:39Z</time>
      </trkpt>
      <trkpt lat="40.4167740" lon="-3.9101090">
        <ele>684.6</ele>
        <time>2021-05-08T06:55:41Z</time>
      </trkpt>
      <trkpt lat="40.4168280" lon="-3.9101730">
        <ele>685.1</ele>
        <time>2021-05-08T06:55:43Z</time>
      </trkpt>
      <trkpt lat="40.4168720" lon="-3.9102270">
        <ele>685.5</ele>
        <time>2021-05-08T06:55:45Z</time>
      </trkpt>
      <trkpt lat="40.4169220" lon="-3.9102890">
        <ele>685.9</ele>
        <time>2021-05-08T06:55:47Z</time>
      </trkpt>
      <trkpt lat="40.4169690" lon="-3.9103560">
        <ele>686.4</ele>
        <time>2021-05-08T06:55:49Z</time>
      </trkpt>
      <trkpt lat="40.4169920" lon="-3.9103900">
        <ele>686.6</ele>
        <time>2021-05-08T06:55:50Z</time>
      </trkpt>
      <trkpt lat="40.4170480" lon="-3.9104670">
        <ele>687.1</ele>
        <time>2021-05-08T06:55:52Z</time>
      </trkpt>
      <trkpt lat="40.4170710" lon="-3.9105030">
        <ele>687.3</ele>
        <time>2021-05-08T06:55:53Z</time>
      </trkpt>
      <trkpt lat="40.4171110" lon="-3.9105680">
        <ele>687.7</ele>
        <time>2021-05-08T06:55:55Z</time>
      </trkpt>
      <trkpt lat="40.4171610" lon="-3.9106440">
        <ele>688.1</ele>
        <time>2021-05-08T06:55:57Z</time>
      </trkpt>
      <trkpt lat="40.4171940" lon="-3.9107100">
        <ele>688.5</ele>
        <time>2021-05-08T06:55:59Z</time>
      </trkpt>
      <trkpt lat="40.4172140" lon="-3.9107540">
        <ele>688.7</ele>
        <time>2021-05-08T06:56:00Z</time>
      </trkpt>
      <trkpt lat="40.4172500" lon="-3.9108290">
        <ele>689.1</ele>
        <time>2021-05-08T06:56:02Z</time>
      </trkpt>
      <trkpt lat="40.4172830" lon="-3.9109090">
        <ele>689.5</ele>
        <time>2021-05-08T06:56:04Z</time>
      </trkpt>
      <trkpt lat="40.4173030" lon="-3.9109580">
        <ele>689.7</ele>
        <time>2021-05-08T06:56:05Z</time>
      </trkpt>
      <trkpt lat="40.4173250" lon="-3.9110100">
        <ele>690.0</ele>
        <time>2021-05-08T06:56:06Z</time>
      </trkpt>
      <trkpt lat="40.4173450" lon="-3.9110610">
        <ele>690.2</ele>
        <time>2021-05-08T06:56:08Z</time>
      </trkpt>
      <trkpt lat="40.4173610" lon="-3.9111040">
        <ele>690.4</ele>
        <time>2021-05-08T06:56:09Z</time>
      </trkpt>
      <trkpt lat="40.4173770" lon="-3.9111560">
        <ele>690.7</ele>
        <time>2021-05-08T06:56:10Z</time>
      </trkpt>
      <trkpt lat="40.4174070" lon="-3.9112400">
        <ele>691.0</ele>
        <time>2021-05-08T06:56:12Z</time>
      </trkpt>
      <trkpt lat="40.4174180" lon="-3.9112840">
        <ele>691.2</ele>
        <time>2021-05-08T06:56:13Z</time>
      </trkpt>
      <trkpt lat="40.4174290" lon="-3.9113250">
        <ele>691.4</ele>
        <time>2021-05-08T06:56:14Z</time>
      </trkpt>
      <trkpt lat="40.4174440" lon="-3.9113930">
        <ele>691.7</ele>
        <time>2021-05-08T06:56:15Z</time>
      </trkpt>
      <trkpt lat="40.4174540" lon="-3.9114450">
        <ele>691.9</ele>
        <time>2021-05-08T06:56:16Z</time>
      </trkpt>
      <trkpt lat="40.4174640" lon="-3.9114950">
        <ele>692.0</ele>
        <time>2021-05-08T06:56:17Z</time>
      </trkpt>
      <trkpt lat="40.4174770" lon="-3.9115510">
        <ele>692.3</ele>
        <time>2021-05-08T06:56:19Z</time>
      </trkpt>
      <trkpt lat="40.4174890" lon="-3.9116060">
        <ele>692.5</ele>
        <time>2021-05-08T06:56:20Z</time>
      </trkpt>
      <trkpt lat="40.4175030" lon="-3.9116550">
        <ele>692.7</ele>
        <time>2021-05-08T06:56:21Z</time>
      </trkpt>
      <trkpt lat="40.4175150" lon="-3.9117050">
        <ele>692.9</ele>
        <time>2021-05-08T06:56:22Z</time>
      </trkpt>
      <trkpt lat="40.4175310" lon="-3.9117870">
        <ele>693.2</ele>
        <time>2021-05-08T06:56:24Z</time>
      </trkpt>
      <trkpt lat="40.4175400" lon="-3.9118440">
        <ele>693.4</ele>
        <time>2021-05-08T06:56:25Z</time>
      </trkpt>
      <trkpt lat="40.4175480" lon="-3.9118910">
        <ele>693.5</ele>
        <time>2021-05-08T06:56:26Z</time>
      </trkpt>
      <trkpt lat="40.4175590" lon="-3.9119390">
        <ele>693.7</ele>
        <time>2021-05-08T06:56:27Z</time>
      </trkpt>
      <trkpt lat="40.4175700" lon="-3.9119980">
        <ele>693.9</ele>
        <time>2021-05-08T06:56:28Z</time>
      </trkpt>
      <trkpt lat="40.4175770" lon="-3.9120440">
        <ele>694.0</ele>
        <time>2021-05-08T06:56:29Z</time>
      </trkpt>
      <trkpt lat="40.4175890" lon="-3.9121210">
        <ele>694.2</ele>
        <time>2021-05-08T06:56:31Z</time>
      </trkpt>
      <trkpt lat="40.4176030" lon="-3.9122070">
        <ele>694.4</ele>
        <time>2021-05-08T06:56:33Z</time>
      </trkpt>
      <trkpt lat="40.4176140" lon="-3.9122660">
        <ele>694.5</ele>
        <time>2021-05-08T06:56:34Z</time>
      </trkpt>
      <trkpt lat="40.4176320" lon="-3.9123610">
        <ele>694.7</ele>
        <time>2021-05-08T06:56:36Z</time>
      </trkpt>
      <trkpt lat="40.4176470" lon="-3.9124200">
        <ele>694.9</ele>
        <time>2021-05-08T06:56:37Z</time>
      </trkpt>
      <trkpt lat="40.4176570" lon="-3.9124700">
        <ele>695.0</ele>
        <time>2021-05-08T06:56:38Z</time>
      </trkpt>
      <trkpt lat="40.4176770" lon="-3.9125350">
        <ele>695.1</ele>
        <time>2021-05-08T06:56:39Z</time>
      </trkpt>
      <trkpt lat="40.4176980" lon="-3.9126110">
        <ele>695.2</ele>
        <time>2021-05-08T06:56:41Z</time>
      </trkpt>
      <trkpt lat="40.4177210" lon="-3.9127100">
        <ele>695.3</ele>
        <time>2021-05-08T06:56:43Z</time>
      </trkpt>
      <trkpt lat="40.4177360" lon="-3.9127620">
        <ele>695.4</ele>
        <time>2021-05-08T06:56:44Z</time>
      </trkpt>
      <trkpt lat="40.4177510" lon="-3.9128050">
        <ele>695.4</ele>
        <time>2021-05-08T06:56:45Z</time>
      </trkpt>
      <trkpt lat="40.4177730" lon="-3.9128490">
        <ele>695.5</ele>
        <time>2021-05-08T06:56:46Z</time>
      </trkpt>
      <trkpt lat="40.4178210" lon="-3.9129230">
        <ele>695.5</ele>
        <time>2021-05-08T06:56:48Z</time>
      </trkpt>
      <trkpt lat="40.4178540" lon="-3.9129660">
        <ele>695.5</ele>
        <time>2021-05-08T06:56:49Z</time>
      </trkpt>
      <trkpt lat="40.4178980" lon="-3.9130370">
        <ele>695.6</ele>
        <time>2021-05-08T06:56:51Z</time>
      </trkpt>
      <trkpt lat="40.4179240" lon="-3.9131010">
        <ele>695.6</ele>
        <time>2021-05-08T06:56:52Z</time>
      </trkpt>
      <trkpt lat="40.4179410" lon="-3.9132020">
        <ele>695.6</ele>
        <time>2021-05-08T06:56:54Z</time>
      </trkpt>
      <trkpt lat="40.4179440" lon="-3.9132730">
        <ele>695.7</ele>
        <time>2021-05-08T06:56:55Z</time>
      </trkpt>
      <trkpt lat="40.4179380" lon="-3.9133390">
        <ele>695.7</ele>
        <time>2021-05-08T06:56:56Z</time>
      </trkpt>
      <trkpt lat="40.4179300" lon="-3.9134010">
        <ele>695.7</ele>
        <time>2021-05-08T06:56:57Z</time>
      </trkpt>
      <trkpt lat="40.4178910" lon="-3.9135220">
        <ele>695.7</ele>
        <time>2021-05-08T06:56:59Z</time>
      </trkpt>
      <trkpt lat="40.4178590" lon="-3.9136450">
        <ele>695.8</ele>
        <time>2021-05-08T06:57:01Z</time>
      </trkpt>
      <trkpt lat="40.4178340" lon="-3.9137770">
        <ele>695.7</ele>
        <time>2021-05-08T06:57:03Z</time>
      </trkpt>
      <trkpt lat="40.4178280" lon="-3.9138500">
        <ele>695.7</ele>
        <time>2021-05-08T06:57:04Z</time>
      </trkpt>
      <trkpt lat="40.4178300" lon="-3.9139250">
        <ele>695.7</ele>
        <time>2021-05-08T06:57:05Z</time>
      </trkpt>
      <trkpt lat="40.4178500" lon="-3.9140680">
        <ele>695.7</ele>
        <time>2021-05-08T06:57:07Z</time>
      </trkpt>
      <trkpt lat="40.4178600" lon="-3.9141390">
        <ele>695.7</ele>
        <time>2021-05-08T06:57:08Z</time>
      </trkpt>
      <trkpt lat="40.4178680" lon="-3.9142100">
        <ele>695.6</ele>
        <time>2021-05-08T06:57:09Z</time>
      </trkpt>
      <trkpt lat="40.4178720" lon="-3.9143610">
        <ele>695.5</ele>
        <time>2021-05-08T06:57:11Z</time>
      </trkpt>
      <trkpt lat="40.4178700" lon="-3.9144370">
        <ele>695.5</ele>
        <time>2021-05-08T06:57:12Z</time>
      </trkpt>
      <trkpt lat="40.4178680" lon="-3.9145120">
        <ele>695.4</ele>
        <time>2021-05-08T06:57:13Z</time>
      </trkpt>
      <trkpt lat="40.4178660" lon="-3.9145870">
        <ele>695.4</ele>
        <time>2021-05-08T06:57:14Z</time>
      </trkpt>
      <trkpt lat="40.4178610" lon="-3.9146710">
        <ele>695.4</ele>
        <time>2021-05-08T06:57:15Z</time>
      </trkpt>
      <trkpt lat="40.4178500" lon="-3.9148170">
        <ele>695.3</ele>
        <time>2021-05-08T06:57:17Z</time>
      </trkpt>
      <trkpt lat="40.4178280" lon="-3.9149740">
        <ele>695.2</ele>
        <time>2021-05-08T06:57:19Z</time>
      </trkpt>
      <trkpt lat="40.4178150" lon="-3.9150500">
        <ele>695.1</ele>
        <time>2021-05-08T06:57:20Z</time>
      </trkpt>
      <trkpt lat="40.4178020" lon="-3.9151250">
        <ele>695.0</ele>
        <time>2021-05-08T06:57:21Z</time>
      </trkpt>
      <trkpt lat="40.4177730" lon="-3.9152760">
        <ele>694.7</ele>
        <time>2021-05-08T06:57:23Z</time>
      </trkpt>
      <trkpt lat="40.4177350" lon="-3.9154330">
        <ele>694.2</ele>
        <time>2021-05-08T06:57:25Z</time>
      </trkpt>
      <trkpt lat="40.4177120" lon="-3.9155160">
        <ele>693.8</ele>
        <time>2021-05-08T06:57:26Z</time>
      </trkpt>
      <trkpt lat="40.4176860" lon="-3.9156050">
        <ele>693.4</ele>
        <time>2021-05-08T06:57:27Z</time>
      </trkpt>
      <trkpt lat="40.4176560" lon="-3.9156960">
        <ele>693.0</ele>
        <time>2021-05-08T06:57:28Z</time>
      </trkpt>
      <trkpt lat="40.4175770" lon="-3.9158870">
        <ele>692.3</ele>
        <time>2021-05-08T06:57:30Z</time>
      </trkpt>
      <trkpt lat="40.4175340" lon="-3.9159850">
        <ele>692.1</ele>
        <time>2021-05-08T06:57:31Z</time>
      </trkpt>
      <trkpt lat="40.4174910" lon="-3.9160770">
        <ele>692.0</ele>
        <time>2021-05-08T06:57:32Z</time>
      </trkpt>
      <trkpt lat="40.4173940" lon="-3.9162600">
        <ele>691.7</ele>
        <time>2021-05-08T06:57:34Z</time>
      </trkpt>
      <trkpt lat="40.4173420" lon="-3.9163500">
        <ele>691.6</ele>
        <time>2021-05-08T06:57:35Z</time>
      </trkpt>
      <trkpt lat="40.4172460" lon="-3.9164950">
        <ele>691.2</ele>
        <time>2021-05-08T06:57:37Z</time>
      </trkpt>
      <trkpt lat="40.4171390" lon="-3.9166390">
        <ele>690.5</ele>
        <time>2021-05-08T06:57:39Z</time>
      </trkpt>
      <trkpt lat="40.4170810" lon="-3.9167120">
        <ele>690.1</ele>
        <time>2021-05-08T06:57:40Z</time>
      </trkpt>
      <trkpt lat="40.4169560" lon="-3.9168440">
        <ele>689.4</ele>
        <time>2021-05-08T06:57:42Z</time>
      </trkpt>
      <trkpt lat="40.4168210" lon="-3.9169850">
        <ele>688.7</ele>
        <time>2021-05-08T06:57:44Z</time>
      </trkpt>
      <trkpt lat="40.4166800" lon="-3.9171280">
        <ele>688.1</ele>
        <time>2021-05-08T06:57:46Z</time>
      </trkpt>
      <trkpt lat="40.4166120" lon="-3.9172040">
        <ele>687.9</ele>
        <time>2021-05-08T06:57:47Z</time>
      </trkpt>
      <trkpt lat="40.4165440" lon="-3.9172800">
        <ele>687.7</ele>
        <time>2021-05-08T06:57:48Z</time>
      </trkpt>
      <trkpt lat="40.4164060" lon="-3.9174250">
        <ele>687.2</ele>
        <time>2021-05-08T06:57:50Z</time>
      </trkpt>
      <trkpt lat="40.4163370" lon="-3.9175000">
        <ele>686.9</ele>
        <time>2021-05-08T06:57:51Z</time>
      </trkpt>
      <trkpt lat="40.4162060" lon="-3.9176650">
        <ele>686.4</ele>
        <time>2021-05-08T06:57:53Z</time>
      </trkpt>
      <trkpt lat="40.4160880" lon="-3.9178400">
        <ele>685.9</ele>
        <time>2021-05-08T06:57:55Z</time>
      </trkpt>
      <trkpt lat="40.4159850" lon="-3.9180200">
        <ele>685.6</ele>
        <time>2021-05-08T06:57:57Z</time>
      </trkpt>
      <trkpt lat="40.4159340" lon="-3.9181140">
        <ele>685.5</ele>
        <time>2021-05-08T06:57:58Z</time>
      </trkpt>
      <trkpt lat="40.4158490" lon="-3.9182960">
        <ele>685.3</ele>
        <time>2021-05-08T06:58:00Z</time>
      </trkpt>
      <trkpt lat="40.4157870" lon="-3.9184790">
        <ele>685.2</ele>
        <time>2021-05-08T06:58:02Z</time>
      </trkpt>
      <trkpt lat="40.4157770" lon="-3.9185800">
        <ele>685.2</ele>
        <time>2021-05-08T06:58:03Z</time>
      </trkpt>
      <trkpt lat="40.4158030" lon="-3.9187760">
        <ele>685.2</ele>
        <time>2021-05-08T06:58:05Z</time>
      </trkpt>
      <trkpt lat="40.4158120" lon="-3.9189640">
        <ele>685.0</ele>
        <time>2021-05-08T06:58:07Z</time>
      </trkpt>
      <trkpt lat="40.4157860" lon="-3.9190550">
        <ele>684.9</ele>
        <time>2021-05-08T06:58:08Z</time>
      </trkpt>
      <trkpt lat="40.4156830" lon="-3.9192190">
        <ele>684.6</ele>
        <time>2021-05-08T06:58:10Z</time>
      </trkpt>
      <trkpt lat="40.4156150" lon="-3.9192770">
        <ele>684.5</ele>
        <time>2021-05-08T06:58:11Z</time>
      </trkpt>
      <trkpt lat="40.4154820" lon="-3.9193780">
        <ele>684.2</ele>
        <time>2021-05-08T06:58:13Z</time>
      </trkpt>
      <trkpt lat="40.4154190" lon="-3.9194450">
        <ele>684.0</ele>
        <time>2021-05-08T06:58:14Z</time>
      </trkpt>
      <trkpt lat="40.4153590" lon="-3.9195430">
        <ele>683.7</ele>
        <time>2021-05-08T06:58:15Z</time>
      </trkpt>
      <trkpt lat="40.4152840" lon="-3.9197030">
        <ele>683.4</ele>
        <time>2021-05-08T06:58:17Z</time>
      </trkpt>
      <trkpt lat="40.4151990" lon="-3.9198840">
        <ele>682.7</ele>
        <time>2021-05-08T06:58:19Z</time>
      </trkpt>
      <trkpt lat="40.4151090" lon="-3.9200680">
        <ele>681.9</ele>
        <time>2021-05-08T06:58:21Z</time>
      </trkpt>
      <trkpt lat="40.4150220" lon="-3.9202520">
        <ele>681.1</ele>
        <time>2021-05-08T06:58:23Z</time>
      </trkpt>
      <trkpt lat="40.4149740" lon="-3.9203450">
        <ele>680.8</ele>
        <time>2021-05-08T06:58:24Z</time>
      </trkpt>
      <trkpt lat="40.4148710" lon="-3.9205240">
        <ele>680.3</ele>
        <time>2021-05-08T06:58:26Z</time>
      </trkpt>
      <trkpt lat="40.4148210" lon="-3.9206100">
        <ele>680.0</ele>
        <time>2021-05-08T06:58:27Z</time>
      </trkpt>
      <trkpt lat="40.4147680" lon="-3.9206930">
        <ele>679.7</ele>
        <time>2021-05-08T06:58:28Z</time>
      </trkpt>
      <trkpt lat="40.4147150" lon="-3.9207760">
        <ele>679.4</ele>
        <time>2021-05-08T06:58:29Z</time>
      </trkpt>
      <trkpt lat="40.4146000" lon="-3.9209400">
        <ele>678.8</ele>
        <time>2021-05-08T06:58:31Z</time>
      </trkpt>
      <trkpt lat="40.4145370" lon="-3.9210220">
        <ele>678.4</ele>
        <time>2021-05-08T06:58:32Z</time>
      </trkpt>
      <trkpt lat="40.4144110" lon="-3.9211950">
        <ele>677.8</ele>
        <time>2021-05-08T06:58:34Z</time>
      </trkpt>
      <trkpt lat="40.4142810" lon="-3.9213790">
        <ele>677.5</ele>
        <time>2021-05-08T06:58:36Z</time>
      </trkpt>
      <trkpt lat="40.4142270" lon="-3.9214560">
        <ele>677.4</ele>
        <time>2021-05-08T06:58:37Z</time>
      </trkpt>
      <trkpt lat="40.4141720" lon="-3.9215380">
        <ele>677.3</ele>
        <time>2021-05-08T06:58:38Z</time>
      </trkpt>
      <trkpt lat="40.4141150" lon="-3.9216210">
        <ele>677.2</ele>
        <time>2021-05-08T06:58:39Z</time>
      </trkpt>
      <trkpt lat="40.4140600" lon="-3.9217000">
        <ele>677.0</ele>
        <time>2021-05-08T06:58:40Z</time>
      </trkpt>
      <trkpt lat="40.4140050" lon="-3.9217780">
        <ele>676.8</ele>
        <time>2021-05-08T06:58:41Z</time>
      </trkpt>
      <trkpt lat="40.4138990" lon="-3.9219340">
        <ele>676.2</ele>
        <time>2021-05-08T06:58:43Z</time>
      </trkpt>
      <trkpt lat="40.4137860" lon="-3.9221010">
        <ele>675.6</ele>
        <time>2021-05-08T06:58:45Z</time>
      </trkpt>
      <trkpt lat="40.4137270" lon="-3.9221850">
        <ele>675.3</ele>
        <time>2021-05-08T06:58:46Z</time>
      </trkpt>
      <trkpt lat="40.4136700" lon="-3.9222700">
        <ele>675.0</ele>
        <time>2021-05-08T06:58:47Z</time>
      </trkpt>
      <trkpt lat="40.4135570" lon="-3.9224510">
        <ele>674.4</ele>
        <time>2021-05-08T06:58:49Z</time>
      </trkpt>
      <trkpt lat="40.4134460" lon="-3.9226520">
        <ele>673.9</ele>
        <time>2021-05-08T06:58:51Z</time>
      </trkpt>
      <trkpt lat="40.4133390" lon="-3.9228520">
        <ele>673.4</ele>
        <time>2021-05-08T06:58:53Z</time>
      </trkpt>
      <trkpt lat="40.4132840" lon="-3.9229490">
        <ele>673.2</ele>
        <time>2021-05-08T06:58:54Z</time>
      </trkpt>
      <trkpt lat="40.4131750" lon="-3.9231460">
        <ele>672.9</ele>
        <time>2021-05-08T06:58:56Z</time>
      </trkpt>
      <trkpt lat="40.4130790" lon="-3.9233250">
        <ele>672.5</ele>
        <time>2021-05-08T06:58:58Z</time>
      </trkpt>
      <trkpt lat="40.4129770" lon="-3.9235080">
        <ele>672.2</ele>
        <time>2021-05-08T06:59:00Z</time>
      </trkpt>
      <trkpt lat="40.4129260" lon="-3.9236010">
        <ele>672.0</ele>
        <time>2021-05-08T06:59:01Z</time>
      </trkpt>
      <trkpt lat="40.4128260" lon="-3.9237830">
        <ele>671.7</ele>
        <time>2021-05-08T06:59:03Z</time>
      </trkpt>
      <trkpt lat="40.4127760" lon="-3.9238730">
        <ele>671.6</ele>
        <time>2021-05-08T06:59:04Z</time>
      </trkpt>
      <trkpt lat="40.4126760" lon="-3.9240520">
        <ele>671.3</ele>
        <time>2021-05-08T06:59:06Z</time>
      </trkpt>
      <trkpt lat="40.4125800" lon="-3.9242310">
        <ele>671.1</ele>
        <time>2021-05-08T06:59:08Z</time>
      </trkpt>
      <trkpt lat="40.4125330" lon="-3.9243180">
        <ele>671.0</ele>
        <time>2021-05-08T06:59:09Z</time>
      </trkpt>
      <trkpt lat="40.4124840" lon="-3.9244040">
        <ele>670.8</ele>
        <time>2021-05-08T06:59:10Z</time>
      </trkpt>
      <trkpt lat="40.4123880" lon="-3.9245720">
        <ele>670.6</ele>
        <time>2021-05-08T06:59:12Z</time>
      </trkpt>
      <trkpt lat="40.4123430" lon="-3.9246560">
        <ele>670.5</ele>
        <time>2021-05-08T06:59:13Z</time>
      </trkpt>
      <trkpt lat="40.4122600" lon="-3.9248250">
        <ele>670.4</ele>
        <time>2021-05-08T06:59:15Z</time>
      </trkpt>
      <trkpt lat="40.4121820" lon="-3.9249890">
        <ele>670.3</ele>
        <time>2021-05-08T06:59:17Z</time>
      </trkpt>
      <trkpt lat="40.4121490" lon="-3.9250690">
        <ele>670.2</ele>
        <time>2021-05-08T06:59:18Z</time>
      </trkpt>
      <trkpt lat="40.4121170" lon="-3.9251520">
        <ele>670.2</ele>
        <time>2021-05-08T06:59:19Z</time>
      </trkpt>
      <trkpt lat="40.4120570" lon="-3.9253240">
        <ele>670.3</ele>
        <time>2021-05-08T06:59:21Z</time>
      </trkpt>
      <trkpt lat="40.4120310" lon="-3.9254120">
        <ele>670.3</ele>
        <time>2021-05-08T06:59:22Z</time>
      </trkpt>
      <trkpt lat="40.4120070" lon="-3.9254980">
        <ele>670.4</ele>
        <time>2021-05-08T06:59:23Z</time>
      </trkpt>
      <trkpt lat="40.4119700" lon="-3.9256710">
        <ele>670.4</ele>
        <time>2021-05-08T06:59:25Z</time>
      </trkpt>
      <trkpt lat="40.4119580" lon="-3.9257590">
        <ele>670.5</ele>
        <time>2021-05-08T06:59:26Z</time>
      </trkpt>
      <trkpt lat="40.4119460" lon="-3.9258480">
        <ele>670.5</ele>
        <time>2021-05-08T06:59:27Z</time>
      </trkpt>
      <trkpt lat="40.4119270" lon="-3.9260250">
        <ele>670.6</ele>
        <time>2021-05-08T06:59:29Z</time>
      </trkpt>
      <trkpt lat="40.4119220" lon="-3.9261110">
        <ele>670.7</ele>
        <time>2021-05-08T06:59:30Z</time>
      </trkpt>
      <trkpt lat="40.4119180" lon="-3.9261990">
        <ele>670.7</ele>
        <time>2021-05-08T06:59:31Z</time>
      </trkpt>
      <trkpt lat="40.4119180" lon="-3.9262850">
        <ele>670.8</ele>
        <time>2021-05-08T06:59:32Z</time>
      </trkpt>
      <trkpt lat="40.4119180" lon="-3.9264480">
        <ele>670.9</ele>
        <time>2021-05-08T06:59:34Z</time>
      </trkpt>
      <trkpt lat="40.4119160" lon="-3.9266120">
        <ele>671.0</ele>
        <time>2021-05-08T06:59:36Z</time>
      </trkpt>
      <trkpt lat="40.4119260" lon="-3.9266840">
        <ele>671.0</ele>
        <time>2021-05-08T06:59:37Z</time>
      </trkpt>
      <trkpt lat="40.4119410" lon="-3.9268500">
        <ele>670.9</ele>
        <time>2021-05-08T06:59:39Z</time>
      </trkpt>
      <trkpt lat="40.4119510" lon="-3.9270180">
        <ele>670.7</ele>
        <time>2021-05-08T06:59:41Z</time>
      </trkpt>
      <trkpt lat="40.4119630" lon="-3.9271950">
        <ele>670.5</ele>
        <time>2021-05-08T06:59:43Z</time>
      </trkpt>
      <trkpt lat="40.4119780" lon="-3.9273750">
        <ele>670.2</ele>
        <time>2021-05-08T06:59:45Z</time>
      </trkpt>
      <trkpt lat="40.4119930" lon="-3.9275580">
        <ele>669.9</ele>
        <time>2021-05-08T06:59:47Z</time>
      </trkpt>
      <trkpt lat="40.4120010" lon="-3.9276500">
        <ele>669.7</ele>
        <time>2021-05-08T06:59:48Z</time>
      </trkpt>
      <trkpt lat="40.4120070" lon="-3.9277400">
        <ele>669.6</ele>
        <time>2021-05-08T06:59:49Z</time>
      </trkpt>
      <trkpt lat="40.4120140" lon="-3.9278350">
        <ele>669.4</ele>
        <time>2021-05-08T06:59:50Z</time>
      </trkpt>
      <trkpt lat="40.4120200" lon="-3.9279310">
        <ele>669.3</ele>
        <time>2021-05-08T06:59:51Z</time>
      </trkpt>
      <trkpt lat="40.4120320" lon="-3.9281320">
        <ele>668.9</ele>
        <time>2021-05-08T06:59:53Z</time>
      </trkpt>
      <trkpt lat="40.4120490" lon="-3.9283300">
        <ele>668.5</ele>
        <time>2021-05-08T06:59:55Z</time>
      </trkpt>
      <trkpt lat="40.4120600" lon="-3.9284400">
        <ele>668.3</ele>
        <time>2021-05-08T06:59:56Z</time>
      </trkpt>
      <trkpt lat="40.4120660" lon="-3.9285380">
        <ele>668.1</ele>
        <time>2021-05-08T06:59:57Z</time>
      </trkpt>
      <trkpt lat="40.4120840" lon="-3.9287500">
        <ele>667.7</ele>
        <time>2021-05-08T06:59:59Z</time>
      </trkpt>
      <trkpt lat="40.4120950" lon="-3.9288510">
        <ele>667.5</ele>
        <time>2021-05-08T07:00:00Z</time>
      </trkpt>
      <trkpt lat="40.4121060" lon="-3.9289530">
        <ele>667.3</ele>
        <time>2021-05-08T07:00:01Z</time>
      </trkpt>
      <trkpt lat="40.4121350" lon="-3.9291620">
        <ele>666.8</ele>
        <time>2021-05-08T07:00:03Z</time>
      </trkpt>
      <trkpt lat="40.4121520" lon="-3.9292670">
        <ele>666.6</ele>
        <time>2021-05-08T07:00:04Z</time>
      </trkpt>
      <trkpt lat="40.4121940" lon="-3.9294710">
        <ele>666.2</ele>
        <time>2021-05-08T07:00:06Z</time>
      </trkpt>
      <trkpt lat="40.4122160" lon="-3.9295730">
        <ele>666.0</ele>
        <time>2021-05-08T07:00:07Z</time>
      </trkpt>
      <trkpt lat="40.4122390" lon="-3.9296740">
        <ele>665.8</ele>
        <time>2021-05-08T07:00:08Z</time>
      </trkpt>
      <trkpt lat="40.4122640" lon="-3.9297730">
        <ele>665.6</ele>
        <time>2021-05-08T07:00:09Z</time>
      </trkpt>
      <trkpt lat="40.4122910" lon="-3.9298720">
        <ele>665.3</ele>
        <time>2021-05-08T07:00:10Z</time>
      </trkpt>
      <trkpt lat="40.4123420" lon="-3.9300740">
        <ele>664.9</ele>
        <time>2021-05-08T07:00:12Z</time>
      </trkpt>
      <trkpt lat="40.4123650" lon="-3.9301740">
        <ele>664.7</ele>
        <time>2021-05-08T07:00:13Z</time>
      </trkpt>
      <trkpt lat="40.4124130" lon="-3.9303590">
        <ele>664.3</ele>
        <time>2021-05-08T07:00:15Z</time>
      </trkpt>
      <trkpt lat="40.4124670" lon="-3.9305490">
        <ele>663.8</ele>
        <time>2021-05-08T07:00:17Z</time>
      </trkpt>
      <trkpt lat="40.4125130" lon="-3.9307420">
        <ele>663.3</ele>
        <time>2021-05-08T07:00:19Z</time>
      </trkpt>
      <trkpt lat="40.4125390" lon="-3.9308400">
        <ele>663.1</ele>
        <time>2021-05-08T07:00:20Z</time>
      </trkpt>
      <trkpt lat="40.4125940" lon="-3.9310380">
        <ele>662.5</ele>
        <time>2021-05-08T07:00:22Z</time>
      </trkpt>
      <trkpt lat="40.4126500" lon="-3.9312480">
        <ele>661.9</ele>
        <time>2021-05-08T07:00:24Z</time>
      </trkpt>
      <trkpt lat="40.4126770" lon="-3.9313550">
        <ele>661.5</ele>
        <time>2021-05-08T07:00:25Z</time>
      </trkpt>
      <trkpt lat="40.4127060" lon="-3.9314650">
        <ele>661.2</ele>
        <time>2021-05-08T07:00:26Z</time>
      </trkpt>
      <trkpt lat="40.4127620" lon="-3.9316840">
        <ele>660.5</ele>
        <time>2021-05-08T07:00:28Z</time>
      </trkpt>
      <trkpt lat="40.4128210" lon="-3.9319030">
        <ele>659.8</ele>
        <time>2021-05-08T07:00:30Z</time>
      </trkpt>
      <trkpt lat="40.4128510" lon="-3.9320160">
        <ele>659.5</ele>
        <time>2021-05-08T07:00:31Z</time>
      </trkpt>
      <trkpt lat="40.4129110" lon="-3.9322380">
        <ele>658.7</ele>
        <time>2021-05-08T07:00:33Z</time>
      </trkpt>
      <trkpt lat="40.4129740" lon="-3.9324670">
        <ele>657.8</ele>
        <time>2021-05-08T07:00:35Z</time>
      </trkpt>
      <trkpt lat="40.4130140" lon="-3.9325910">
        <ele>657.3</ele>
        <time>2021-05-08T07:00:36Z</time>
      </trkpt>
      <trkpt lat="40.4130900" lon="-3.9328170">
        <ele>656.3</ele>
        <time>2021-05-08T07:00:38Z</time>
      </trkpt>
      <trkpt lat="40.4131750" lon="-3.9330600">
        <ele>655.3</ele>
        <time>2021-05-08T07:00:40Z</time>
      </trkpt>
      <trkpt lat="40.4132650" lon="-3.9333120">
        <ele>654.3</ele>
        <time>2021-05-08T07:00:42Z</time>
      </trkpt>
      <trkpt lat="40.4133120" lon="-3.9334370">
        <ele>653.9</ele>
        <time>2021-05-08T07:00:43Z</time>
      </trkpt>
      <trkpt lat="40.4133570" lon="-3.9335630">
        <ele>653.5</ele>
        <time>2021-05-08T07:00:44Z</time>
      </trkpt>
      <trkpt lat="40.4134470" lon="-3.9338150">
        <ele>652.8</ele>
        <time>2021-05-08T07:00:46Z</time>
      </trkpt>
      <trkpt lat="40.4135400" lon="-3.9340620">
        <ele>652.1</ele>
        <time>2021-05-08T07:00:48Z</time>
      </trkpt>
      <trkpt lat="40.4136270" lon="-3.9343010">
        <ele>651.5</ele>
        <time>2021-05-08T07:00:50Z</time>
      </trkpt>
      <trkpt lat="40.4136690" lon="-3.9344150">
        <ele>651.2</ele>
        <time>2021-05-08T07:00:51Z</time>
      </trkpt>
      <trkpt lat="40.4137090" lon="-3.9345260">
        <ele>650.9</ele>
        <time>2021-05-08T07:00:52Z</time>
      </trkpt>
      <trkpt lat="40.4137940" lon="-3.9347460">
        <ele>650.4</ele>
        <time>2021-05-08T07:00:54Z</time>
      </trkpt>
      <trkpt lat="40.4138350" lon="-3.9348510">
        <ele>650.1</ele>
        <time>2021-05-08T07:00:55Z</time>
      </trkpt>
      <trkpt lat="40.4138790" lon="-3.9349600">
        <ele>649.9</ele>
        <time>2021-05-08T07:00:56Z</time>
      </trkpt>
      <trkpt lat="40.4139500" lon="-3.9351520">
        <ele>649.4</ele>
        <time>2021-05-08T07:00:58Z</time>
      </trkpt>
      <trkpt lat="40.4140220" lon="-3.9353530">
        <ele>648.9</ele>
        <time>2021-05-08T07:01:00Z</time>
      </trkpt>
      <trkpt lat="40.4140560" lon="-3.9354550">
        <ele>648.7</ele>
        <time>2021-05-08T07:01:01Z</time>
      </trkpt>
      <trkpt lat="40.4141370" lon="-3.9356580">
        <ele>648.2</ele>
        <time>2021-05-08T07:01:03Z</time>
      </trkpt>
      <trkpt lat="40.4141760" lon="-3.9357570">
        <ele>648.1</ele>
        <time>2021-05-08T07:01:04Z</time>
      </trkpt>
      <trkpt lat="40.4142520" lon="-3.9359530">
        <ele>647.8</ele>
        <time>2021-05-08T07:01:06Z</time>
      </trkpt>
      <trkpt lat="40.4142880" lon="-3.9360520">
        <ele>647.6</ele>
        <time>2021-05-08T07:01:07Z</time>
      </trkpt>
      <trkpt lat="40.4143640" lon="-3.9362440">
        <ele>647.3</ele>
        <time>2021-05-08T07:01:09Z</time>
      </trkpt>
      <trkpt lat="40.4144340" lon="-3.9364410">
        <ele>647.0</ele>
        <time>2021-05-08T07:01:11Z</time>
      </trkpt>
      <trkpt lat="40.4144660" lon="-3.9365370">
        <ele>646.9</ele>
        <time>2021-05-08T07:01:12Z</time>
      </trkpt>
      <trkpt lat="40.4144980" lon="-3.9366300">
        <ele>646.7</ele>
        <time>2021-05-08T07:01:13Z</time>
      </trkpt>
      <trkpt lat="40.4145630" lon="-3.9368130">
        <ele>646.3</ele>
        <time>2021-05-08T07:01:15Z</time>
      </trkpt>
      <trkpt lat="40.4146330" lon="-3.9369940">
        <ele>645.9</ele>
        <time>2021-05-08T07:01:17Z</time>
      </trkpt>
      <trkpt lat="40.4146650" lon="-3.9370850">
        <ele>645.7</ele>
        <time>2021-05-08T07:01:18Z</time>
      </trkpt>
      <trkpt lat="40.4147340" lon="-3.9372680">
        <ele>645.2</ele>
        <time>2021-05-08T07:01:20Z</time>
      </trkpt>
      <trkpt lat="40.4148030" lon="-3.9374530">
        <ele>644.7</ele>
        <time>2021-05-08T07:01:22Z</time>
      </trkpt>
      <trkpt lat="40.4148400" lon="-3.9375460">
        <ele>644.4</ele>
        <time>2021-05-08T07:01:23Z</time>
      </trkpt>
      <trkpt lat="40.4149090" lon="-3.9377390">
        <ele>643.9</ele>
        <time>2021-05-08T07:01:25Z</time>
      </trkpt>
      <trkpt lat="40.4149430" lon="-3.9378350">
        <ele>643.6</ele>
        <time>2021-05-08T07:01:26Z</time>
      </trkpt>
      <trkpt lat="40.4149770" lon="-3.9379290">
        <ele>643.3</ele>
        <time>2021-05-08T07:01:27Z</time>
      </trkpt>
      <trkpt lat="40.4150430" lon="-3.9381150">
        <ele>642.7</ele>
        <time>2021-05-08T07:01:29Z</time>
      </trkpt>
      <trkpt lat="40.4150700" lon="-3.9382110">
        <ele>642.3</ele>
        <time>2021-05-08T07:01:30Z</time>
      </trkpt>
      <trkpt lat="40.4151050" lon="-3.9384290">
        <ele>641.3</ele>
        <time>2021-05-08T07:01:32Z</time>
      </trkpt>
      <trkpt lat="40.4151340" lon="-3.9386610">
        <ele>639.9</ele>
        <time>2021-05-08T07:01:34Z</time>
      </trkpt>
      <trkpt lat="40.4151700" lon="-3.9389140">
        <ele>638.3</ele>
        <time>2021-05-08T07:01:36Z</time>
      </trkpt>
      <trkpt lat="40.4152010" lon="-3.9391690">
        <ele>636.6</ele>
        <time>2021-05-08T07:01:38Z</time>
      </trkpt>
      <trkpt lat="40.4152380" lon="-3.9394390">
        <ele>634.8</ele>
        <time>2021-05-08T07:01:40Z</time>
      </trkpt>
      <trkpt lat="40.4152570" lon="-3.9395770">
        <ele>633.9</ele>
        <time>2021-05-08T07:01:41Z</time>
      </trkpt>
      <trkpt lat="40.4152930" lon="-3.9398570">
        <ele>632.1</ele>
        <time>2021-05-08T07:01:43Z</time>
      </trkpt>
      <trkpt lat="40.4153280" lon="-3.9401410">
        <ele>630.2</ele>
        <time>2021-05-08T07:01:45Z</time>
      </trkpt>
      <trkpt lat="40.4153660" lon="-3.9404340">
        <ele>628.2</ele>
        <time>2021-05-08T07:01:47Z</time>
      </trkpt>
      <trkpt lat="40.4153830" lon="-3.9405850">
        <ele>627.2</ele>
        <time>2021-05-08T07:01:48Z</time>
      </trkpt>
      <trkpt lat="40.4153950" lon="-3.9407390">
        <ele>626.2</ele>
        <time>2021-05-08T07:01:49Z</time>
      </trkpt>
      <trkpt lat="40.4154080" lon="-3.9410340">
        <ele>624.7</ele>
        <time>2021-05-08T07:01:51Z</time>
      </trkpt>
      <trkpt lat="40.4154100" lon="-3.9413290">
        <ele>623.4</ele>
        <time>2021-05-08T07:01:53Z</time>
      </trkpt>
      <trkpt lat="40.4153930" lon="-3.9416040">
        <ele>622.4</ele>
        <time>2021-05-08T07:01:55Z</time>
      </trkpt>
      <trkpt lat="40.4153490" lon="-3.9418900">
        <ele>621.4</ele>
        <time>2021-05-08T07:01:57Z</time>
      </trkpt>
      <trkpt lat="40.4153280" lon="-3.9419930">
        <ele>621.0</ele>
        <time>2021-05-08T07:01:58Z</time>
      </trkpt>
      <trkpt lat="40.4153000" lon="-3.9421170">
        <ele>620.5</ele>
        <time>2021-05-08T07:01:59Z</time>
      </trkpt>
      <trkpt lat="40.4152440" lon="-3.9423870">
        <ele>619.2</ele>
        <time>2021-05-08T07:02:01Z</time>
      </trkpt>
      <trkpt lat="40.4152170" lon="-3.9425240">
        <ele>618.5</ele>
        <time>2021-05-08T07:02:02Z</time>
      </trkpt>
      <trkpt lat="40.4151890" lon="-3.9426630">
        <ele>617.8</ele>
        <time>2021-05-08T07:02:03Z</time>
      </trkpt>
      <trkpt lat="40.4151290" lon="-3.9429490">
        <ele>616.2</ele>
        <time>2021-05-08T07:02:05Z</time>
      </trkpt>
      <trkpt lat="40.4150950" lon="-3.9430970">
        <ele>615.4</ele>
        <time>2021-05-08T07:02:06Z</time>
      </trkpt>
      <trkpt lat="40.4150240" lon="-3.9433910">
        <ele>613.5</ele>
        <time>2021-05-08T07:02:08Z</time>
      </trkpt>
      <trkpt lat="40.4149910" lon="-3.9435430">
        <ele>612.5</ele>
        <time>2021-05-08T07:02:09Z</time>
      </trkpt>
      <trkpt lat="40.4149260" lon="-3.9438460">
        <ele>610.6</ele>
        <time>2021-05-08T07:02:11Z</time>
      </trkpt>
      <trkpt lat="40.4148590" lon="-3.9441510">
        <ele>608.6</ele>
        <time>2021-05-08T07:02:13Z</time>
      </trkpt>
      <trkpt lat="40.4147920" lon="-3.9444580">
        <ele>606.4</ele>
        <time>2021-05-08T07:02:15Z</time>
      </trkpt>
      <trkpt lat="40.4147340" lon="-3.9447790">
        <ele>604.2</ele>
        <time>2021-05-08T07:02:17Z</time>
      </trkpt>
      <trkpt lat="40.4146920" lon="-3.9451130">
        <ele>602.0</ele>
        <time>2021-05-08T07:02:19Z</time>
      </trkpt>
      <trkpt lat="40.4146560" lon="-3.9454530">
        <ele>599.9</ele>
        <time>2021-05-08T07:02:21Z</time>
      </trkpt>
      <trkpt lat="40.4146450" lon="-3.9456280">
        <ele>598.9</ele>
        <time>2021-05-08T07:02:22Z</time>
      </trkpt>
      <trkpt lat="40.4146240" lon="-3.9459850">
        <ele>597.1</ele>
        <time>2021-05-08T07:02:24Z</time>
      </trkpt>
      <trkpt lat="40.4145940" lon="-3.9463300">
        <ele>595.7</ele>
        <time>2021-05-08T07:02:26Z</time>
      </trkpt>
      <trkpt lat="40.4145710" lon="-3.9466620">
        <ele>594.6</ele>
        <time>2021-05-08T07:02:28Z</time>
      </trkpt>
      <trkpt lat="40.4145480" lon="-3.9469910">
        <ele>593.7</ele>
        <time>2021-05-08T07:02:30Z</time>
      </trkpt>
      <trkpt lat="40.4145250" lon="-3.9473090">
        <ele>593.3</ele>
        <time>2021-05-08T07:02:32Z</time>
      </trkpt>
      <trkpt lat="40.4145040" lon="-3.9476190">
        <ele>593.2</ele>
        <time>2021-05-08T07:02:34Z</time>
      </trkpt>
      <trkpt lat="40.4144820" lon="-3.9479230">
        <ele>593.1</ele>
        <time>2021-05-08T07:02:36Z</time>
      </trkpt>
      <trkpt lat="40.4144700" lon="-3.9480590">
        <ele>593.1</ele>
        <time>2021-05-08T07:02:37Z</time>
      </trkpt>
      <trkpt lat="40.4144560" lon="-3.9481880">
        <ele>593.1</ele>
        <time>2021-05-08T07:02:38Z</time>
      </trkpt>
      <trkpt lat="40.4144200" lon="-3.9484330">
        <ele>593.2</ele>
        <time>2021-05-08T07:02:40Z</time>
      </trkpt>
      <trkpt lat="40.4144000" lon="-3.9485490">
        <ele>593.2</ele>
        <time>2021-05-08T07:02:41Z</time>
      </trkpt>
      <trkpt lat="40.4143550" lon="-3.9487630">
        <ele>593.2</ele>
        <time>2021-05-08T07:02:43Z</time>
      </trkpt>
      <trkpt lat="40.4143270" lon="-3.9488690">
        <ele>593.2</ele>
        <time>2021-05-08T07:02:44Z</time>
      </trkpt>
      <trkpt lat="40.4142690" lon="-3.9490690">
        <ele>593.2</ele>
        <time>2021-05-08T07:02:46Z</time>
      </trkpt>
      <trkpt lat="40.4142380" lon="-3.9491660">
        <ele>593.1</ele>
        <time>2021-05-08T07:02:47Z</time>
      </trkpt>
      <trkpt lat="40.4142050" lon="-3.9492570">
        <ele>593.1</ele>
        <time>2021-05-08T07:02:48Z</time>
      </trkpt>
      <trkpt lat="40.4141280" lon="-3.9494280">
        <ele>593.1</ele>
        <time>2021-05-08T07:02:50Z</time>
      </trkpt>
      <trkpt lat="40.4140520" lon="-3.9495880">
        <ele>593.1</ele>
        <time>2021-05-08T07:02:52Z</time>
      </trkpt>
      <trkpt lat="40.4140150" lon="-3.9496700">
        <ele>593.1</ele>
        <time>2021-05-08T07:02:53Z</time>
      </trkpt>
      <trkpt lat="40.4139360" lon="-3.9498200">
        <ele>593.2</ele>
        <time>2021-05-08T07:02:55Z</time>
      </trkpt>
      <trkpt lat="40.4138930" lon="-3.9498890">
        <ele>593.2</ele>
        <time>2021-05-08T07:02:56Z</time>
      </trkpt>
      <trkpt lat="40.4138100" lon="-3.9500150">
        <ele>593.2</ele>
        <time>2021-05-08T07:02:58Z</time>
      </trkpt>
      <trkpt lat="40.4137660" lon="-3.9500800">
        <ele>593.2</ele>
        <time>2021-05-08T07:02:59Z</time>
      </trkpt>
      <trkpt lat="40.4137230" lon="-3.9502080">
        <ele>593.1</ele>
        <time>2021-05-08T07:03:01Z</time>
      </trkpt>
      <trkpt lat="40.4137580" lon="-3.9502760">
        <ele>592.6</ele>
        <time>2021-05-08T07:03:03Z</time>
      </trkpt>
      <trkpt lat="40.4137990" lon="-3.9502910">
        <ele>592.3</ele>
        <time>2021-05-08T07:03:04Z</time>
      </trkpt>
      <trkpt lat="40.4139190" lon="-3.9502910">
        <ele>591.6</ele>
        <time>2021-05-08T07:03:06Z</time>
      </trkpt>
      <trkpt lat="40.4140390" lon="-3.9502840">
        <ele>591.2</ele>
        <time>2021-05-08T07:03:08Z</time>
      </trkpt>
      <trkpt lat="40.4141560" lon="-3.9502740">
        <ele>590.8</ele>
        <time>2021-05-08T07:03:10Z</time>
      </trkpt>
      <trkpt lat="40.4142170" lon="-3.9502640">
        <ele>590.7</ele>
        <time>2021-05-08T07:03:11Z</time>
      </trkpt>
      <trkpt lat="40.4143200" lon="-3.9502670">
        <ele>590.6</ele>
        <time>2021-05-08T07:03:13Z</time>
      </trkpt>
      <trkpt lat="40.4144300" lon="-3.9502720">
        <ele>590.5</ele>
        <time>2021-05-08T07:03:15Z</time>
      </trkpt>
      <trkpt lat="40.4145400" lon="-3.9502870">
        <ele>590.5</ele>
        <time>2021-05-08T07:03:17Z</time>
      </trkpt>
      <trkpt lat="40.4146470" lon="-3.9503080">
        <ele>590.6</ele>
        <time>2021-05-08T07:03:19Z</time>
      </trkpt>
      <trkpt lat="40.4147540" lon="-3.9503400">
        <ele>590.8</ele>
        <time>2021-05-08T07:03:21Z</time>
      </trkpt>
      <trkpt lat="40.4148100" lon="-3.9503640">
        <ele>590.9</ele>
        <time>2021-05-08T07:03:22Z</time>
      </trkpt>
      <trkpt lat="40.4149040" lon="-3.9504520">
        <ele>591.4</ele>
        <time>2021-05-08T07:03:24Z</time>
      </trkpt>
      <trkpt lat="40.4149490" lon="-3.9504970">
        <ele>591.6</ele>
        <time>2021-05-08T07:03:25Z</time>
      </trkpt>
      <trkpt lat="40.4150290" lon="-3.9505790">
        <ele>592.1</ele>
        <time>2021-05-08T07:03:27Z</time>
      </trkpt>
      <trkpt lat="40.4150630" lon="-3.9506230">
        <ele>592.2</ele>
        <time>2021-05-08T07:03:28Z</time>
      </trkpt>
      <trkpt lat="40.4150790" lon="-3.9506460">
        <ele>592.3</ele>
        <time>2021-05-08T07:03:29Z</time>
      </trkpt>
      <trkpt lat="40.4151240" lon="-3.9507340">
        <ele>592.7</ele>
        <time>2021-05-08T07:03:31Z</time>
      </trkpt>
      <trkpt lat="40.4151440" lon="-3.9507750">
        <ele>592.8</ele>
        <time>2021-05-08T07:03:32Z</time>
      </trkpt>
      <trkpt lat="40.4151640" lon="-3.9508110">
        <ele>593.0</ele>
        <time>2021-05-08T07:03:33Z</time>
      </trkpt>
      <trkpt lat="40.4152010" lon="-3.9508780">
        <ele>593.3</ele>
        <time>2021-05-08T07:03:35Z</time>
      </trkpt>
      <trkpt lat="40.4152130" lon="-3.9509080">
        <ele>593.4</ele>
        <time>2021-05-08T07:03:36Z</time>
      </trkpt>
      <trkpt lat="40.4152520" lon="-3.9509850">
        <ele>593.9</ele>
        <time>2021-05-08T07:03:38Z</time>
      </trkpt>
      <trkpt lat="40.4153080" lon="-3.9510340">
        <ele>594.2</ele>
        <time>2021-05-08T07:03:40Z</time>
      </trkpt>
      <trkpt lat="40.4153710" lon="-3.9510640">
        <ele>594.6</ele>
        <time>2021-05-08T07:03:42Z</time>
      </trkpt>
      <trkpt lat="40.4154410" lon="-3.9510840">
        <ele>594.9</ele>
        <time>2021-05-08T07:03:44Z</time>
      </trkpt>
      <trkpt lat="40.4154740" lon="-3.9510870">
        <ele>595.1</ele>
        <time>2021-05-08T07:03:45Z</time>
      </trkpt>
      <trkpt lat="40.4155460" lon="-3.9510900">
        <ele>595.4</ele>
        <time>2021-05-08T07:03:47Z</time>
      </trkpt>
      <trkpt lat="40.4156300" lon="-3.9510980">
        <ele>595.7</ele>
        <time>2021-05-08T07:03:49Z</time>
      </trkpt>
      <trkpt lat="40.4156990" lon="-3.9511100">
        <ele>595.9</ele>
        <time>2021-05-08T07:03:51Z</time>
      </trkpt>
      <trkpt lat="40.4157730" lon="-3.9511250">
        <ele>596.0</ele>
        <time>2021-05-08T07:03:53Z</time>
      </trkpt>
      <trkpt lat="40.4158150" lon="-3.9511350">
        <ele>596.1</ele>
        <time>2021-05-08T07:03:54Z</time>
      </trkpt>
      <trkpt lat="40.4158950" lon="-3.9511850">
        <ele>596.1</ele>
        <time>2021-05-08T07:03:56Z</time>
      </trkpt>
      <trkpt lat="40.4159650" lon="-3.9512620">
        <ele>596.0</ele>
        <time>2021-05-08T07:03:58Z</time>
      </trkpt>
      <trkpt lat="40.4160260" lon="-3.9513470">
        <ele>595.8</ele>
        <time>2021-05-08T07:04:00Z</time>
      </trkpt>
      <trkpt lat="40.4160850" lon="-3.9514570">
        <ele>595.5</ele>
        <time>2021-05-08T07:04:02Z</time>
      </trkpt>
      <trkpt lat="40.4161110" lon="-3.9515120">
        <ele>595.3</ele>
        <time>2021-05-08T07:04:03Z</time>
      </trkpt>
      <trkpt lat="40.4161350" lon="-3.9515720">
        <ele>595.1</ele>
        <time>2021-05-08T07:04:04Z</time>
      </trkpt>
      <trkpt lat="40.4161570" lon="-3.9516410">
        <ele>594.9</ele>
        <time>2021-05-08T07:04:05Z</time>
      </trkpt>
      <trkpt lat="40.4162040" lon="-3.9517740">
        <ele>594.6</ele>
        <time>2021-05-08T07:04:07Z</time>
      </trkpt>
      <trkpt lat="40.4162300" lon="-3.9518430">
        <ele>594.5</ele>
        <time>2021-05-08T07:04:08Z</time>
      </trkpt>
      <trkpt lat="40.4162880" lon="-3.9519830">
        <ele>594.3</ele>
        <time>2021-05-08T07:04:10Z</time>
      </trkpt>
      <trkpt lat="40.4163430" lon="-3.9521400">
        <ele>594.2</ele>
        <time>2021-05-08T07:04:12Z</time>
      </trkpt>
      <trkpt lat="40.4163990" lon="-3.9522920">
        <ele>594.1</ele>
        <time>2021-05-08T07:04:14Z</time>
      </trkpt>
      <trkpt lat="40.4164560" lon="-3.9524440">
        <ele>594.1</ele>
        <time>2021-05-08T07:04:16Z</time>
      </trkpt>
      <trkpt lat="40.4164800" lon="-3.9525170">
        <ele>594.1</ele>
        <time>2021-05-08T07:04:17Z</time>
      </trkpt>
      <trkpt lat="40.4165200" lon="-3.9526600">
        <ele>594.2</ele>
        <time>2021-05-08T07:04:19Z</time>
      </trkpt>
      <trkpt lat="40.4165510" lon="-3.9527870">
        <ele>594.4</ele>
        <time>2021-05-08T07:04:21Z</time>
      </trkpt>
      <trkpt lat="40.4165660" lon="-3.9528500">
        <ele>594.4</ele>
        <time>2021-05-08T07:04:22Z</time>
      </trkpt>
      <trkpt lat="40.4165950" lon="-3.9529590">
        <ele>594.5</ele>
        <time>2021-05-08T07:04:24Z</time>
      </trkpt>
      <trkpt lat="40.4166230" lon="-3.9530780">
        <ele>594.6</ele>
        <time>2021-05-08T07:04:26Z</time>
      </trkpt>
      <trkpt lat="40.4166420" lon="-3.9531350">
        <ele>594.7</ele>
        <time>2021-05-08T07:04:27Z</time>
      </trkpt>
      <trkpt lat="40.4166770" lon="-3.9532430">
        <ele>594.8</ele>
        <time>2021-05-08T07:04:29Z</time>
      </trkpt>
      <trkpt lat="40.4166940" lon="-3.9532940">
        <ele>594.9</ele>
        <time>2021-05-08T07:04:30Z</time>
      </trkpt>
      <trkpt lat="40.4167270" lon="-3.9534050">
        <ele>595.1</ele>
        <time>2021-05-08T07:04:32Z</time>
      </trkpt>
      <trkpt lat="40.4167430" lon="-3.9534630">
        <ele>595.2</ele>
        <time>2021-05-08T07:04:33Z</time>
      </trkpt>
      <trkpt lat="40.4167600" lon="-3.9535210">
        <ele>595.3</ele>
        <time>2021-05-08T07:04:34Z</time>
      </trkpt>
      <trkpt lat="40.4167780" lon="-3.9535810">
        <ele>595.3</ele>
        <time>2021-05-08T07:04:35Z</time>
      </trkpt>
      <trkpt lat="40.4168160" lon="-3.9536950">
        <ele>595.5</ele>
        <time>2021-05-08T07:04:37Z</time>
      </trkpt>
      <trkpt lat="40.4168650" lon="-3.9538010">
        <ele>595.6</ele>
        <time>2021-05-08T07:04:39Z</time>
      </trkpt>
      <trkpt lat="40.4168930" lon="-3.9538530">
        <ele>595.7</ele>
        <time>2021-05-08T07:04:40Z</time>
      </trkpt>
      <trkpt lat="40.4169440" lon="-3.9539600">
        <ele>595.8</ele>
        <time>2021-05-08T07:04:42Z</time>
      </trkpt>
      <trkpt lat="40.4169670" lon="-3.9540170">
        <ele>595.8</ele>
        <time>2021-05-08T07:04:43Z</time>
      </trkpt>
      <trkpt lat="40.4169900" lon="-3.9540780">
        <ele>595.9</ele>
        <time>2021-05-08T07:04:44Z</time>
      </trkpt>
      <trkpt lat="40.4170410" lon="-3.9542120">
        <ele>596.1</ele>
        <time>2021-05-08T07:04:46Z</time>
      </trkpt>
      <trkpt lat="40.4170770" lon="-3.9543160">
        <ele>596.2</ele>
        <time>2021-05-08T07:04:48Z</time>
      </trkpt>
      <trkpt lat="40.4170980" lon="-3.9543680">
        <ele>596.3</ele>
        <time>2021-05-08T07:04:49Z</time>
      </trkpt>
      <trkpt lat="40.4171400" lon="-3.9544640">
        <ele>596.5</ele>
        <time>2021-05-08T07:04:51Z</time>
      </trkpt>
      <trkpt lat="40.4171750" lon="-3.9545620">
        <ele>596.8</ele>
        <time>2021-05-08T07:04:53Z</time>
      </trkpt>
      <trkpt lat="40.4171910" lon="-3.9546090">
        <ele>596.9</ele>
        <time>2021-05-08T07:04:54Z</time>
      </trkpt>
      <trkpt lat="40.4172060" lon="-3.9546540">
        <ele>597.1</ele>
        <time>2021-05-08T07:04:55Z</time>
      </trkpt>
      <trkpt lat="40.4172320" lon="-3.9547380">
        <ele>597.4</ele>
        <time>2021-05-08T07:04:57Z</time>
      </trkpt>
      <trkpt lat="40.4172460" lon="-3.9547790">
        <ele>597.5</ele>
        <time>2021-05-08T07:04:58Z</time>
      </trkpt>
      <trkpt lat="40.4172690" lon="-3.9548620">
        <ele>597.8</ele>
        <time>2021-05-08T07:05:00Z</time>
      </trkpt>
      <trkpt lat="40.4172910" lon="-3.9549440">
        <ele>598.0</ele>
        <time>2021-05-08T07:05:02Z</time>
      </trkpt>
      <trkpt lat="40.4173140" lon="-3.9550310">
        <ele>598.2</ele>
        <time>2021-05-08T07:05:04Z</time>
      </trkpt>
      <trkpt lat="40.4173440" lon="-3.9551180">
        <ele>598.4</ele>
        <time>2021-05-08T07:05:06Z</time>
      </trkpt>
      <trkpt lat="40.4173710" lon="-3.9552050">
        <ele>598.5</ele>
        <time>2021-05-08T07:05:08Z</time>
      </trkpt>
      <trkpt lat="40.4173840" lon="-3.9552360">
        <ele>598.6</ele>
        <time>2021-05-08T07:05:09Z</time>
      </trkpt>
      <trkpt lat="40.4174230" lon="-3.9553480">
        <ele>598.7</ele>
        <time>2021-05-08T07:05:11Z</time>
      </trkpt>
      <trkpt lat="40.4174440" lon="-3.9553960">
        <ele>598.8</ele>
        <time>2021-05-08T07:05:12Z</time>
      </trkpt>
      <trkpt lat="40.4174660" lon="-3.9554450">
        <ele>598.8</ele>
        <time>2021-05-08T07:05:13Z</time>
      </trkpt>
      <trkpt lat="40.4175070" lon="-3.9555480">
        <ele>598.9</ele>
        <time>2021-05-08T07:05:15Z</time>
      </trkpt>
      <trkpt lat="40.4175410" lon="-3.9556450">
        <ele>599.0</ele>
        <time>2021-05-08T07:05:17Z</time>
      </trkpt>
      <trkpt lat="40.4175730" lon="-3.9557430">
        <ele>599.2</ele>
        <time>2021-05-08T07:05:19Z</time>
      </trkpt>
      <trkpt lat="40.4175880" lon="-3.9557910">
        <ele>599.2</ele>
        <time>2021-05-08T07:05:20Z</time>
      </trkpt>
      <trkpt lat="40.4176260" lon="-3.9558750">
        <ele>599.3</ele>
        <time>2021-05-08T07:05:22Z</time>
      </trkpt>
      <trkpt lat="40.4176470" lon="-3.9559270">
        <ele>599.4</ele>
        <time>2021-05-08T07:05:23Z</time>
      </trkpt>
      <trkpt lat="40.4176630" lon="-3.9559780">
        <ele>599.5</ele>
        <time>2021-05-08T07:05:24Z</time>
      </trkpt>
      <trkpt lat="40.4176870" lon="-3.9560790">
        <ele>599.6</ele>
        <time>2021-05-08T07:05:26Z</time>
      </trkpt>
      <trkpt lat="40.4176960" lon="-3.9561310">
        <ele>599.6</ele>
        <time>2021-05-08T07:05:27Z</time>
      </trkpt>
      <trkpt lat="40.4177110" lon="-3.9562360">
        <ele>599.7</ele>
        <time>2021-05-08T07:05:29Z</time>
      </trkpt>
      <trkpt lat="40.4177260" lon="-3.9563340">
        <ele>599.8</ele>
        <time>2021-05-08T07:05:31Z</time>
      </trkpt>
      <trkpt lat="40.4177320" lon="-3.9563800">
        <ele>599.8</ele>
        <time>2021-05-08T07:05:32Z</time>
      </trkpt>
      <trkpt lat="40.4177410" lon="-3.9564710">
        <ele>599.9</ele>
        <time>2021-05-08T07:05:34Z</time>
      </trkpt>
      <trkpt lat="40.4177450" lon="-3.9565330">
        <ele>599.9</ele>
        <time>2021-05-08T07:05:35Z</time>
      </trkpt>
      <trkpt lat="40.4177560" lon="-3.9566530">
        <ele>600.0</ele>
        <time>2021-05-08T07:05:37Z</time>
      </trkpt>
      <trkpt lat="40.4177620" lon="-3.9567080">
        <ele>600.1</ele>
        <time>2021-05-08T07:05:38Z</time>
      </trkpt>
      <trkpt lat="40.4177740" lon="-3.9568080">
        <ele>600.2</ele>
        <time>2021-05-08T07:05:40Z</time>
      </trkpt>
      <trkpt lat="40.4177740" lon="-3.9569070">
        <ele>600.3</ele>
        <time>2021-05-08T07:05:42Z</time>
      </trkpt>
      <trkpt lat="40.4177770" lon="-3.9569580">
        <ele>600.3</ele>
        <time>2021-05-08T07:05:43Z</time>
      </trkpt>
      <trkpt lat="40.4177830" lon="-3.9570510">
        <ele>600.4</ele>
        <time>2021-05-08T07:05:45Z</time>
      </trkpt>
      <trkpt lat="40.4177860" lon="-3.9571330">
        <ele>600.4</ele>
        <time>2021-05-08T07:05:47Z</time>
      </trkpt>
      <trkpt lat="40.4177920" lon="-3.9572470">
        <ele>600.5</ele>
        <time>2021-05-08T07:05:49Z</time>
      </trkpt>
      <trkpt lat="40.4177950" lon="-3.9572960">
        <ele>600.6</ele>
        <time>2021-05-08T07:05:50Z</time>
      </trkpt>
      <trkpt lat="40.4177970" lon="-3.9574060">
        <ele>600.7</ele>
        <time>2021-05-08T07:05:52Z</time>
      </trkpt>
      <trkpt lat="40.4177970" lon="-3.9575140">
        <ele>600.9</ele>
        <time>2021-05-08T07:05:54Z</time>
      </trkpt>
      <trkpt lat="40.4178000" lon="-3.9575660">
        <ele>601.0</ele>
        <time>2021-05-08T07:05:55Z</time>
      </trkpt>
      <trkpt lat="40.4178140" lon="-3.9576680">
        <ele>601.2</ele>
        <time>2021-05-08T07:05:57Z</time>
      </trkpt>
      <trkpt lat="40.4178190" lon="-3.9577070">
        <ele>601.3</ele>
        <time>2021-05-08T07:05:58Z</time>
      </trkpt>
      <trkpt lat="40.4178230" lon="-3.9577630">
        <ele>601.5</ele>
        <time>2021-05-08T07:05:59Z</time>
      </trkpt>
      <trkpt lat="40.4178280" lon="-3.9578570">
        <ele>601.7</ele>
        <time>2021-05-08T07:06:01Z</time>
      </trkpt>
      <trkpt lat="40.4178370" lon="-3.9579500">
        <ele>602.0</ele>
        <time>2021-05-08T07:06:03Z</time>
      </trkpt>
      <trkpt lat="40.4178440" lon="-3.9579950">
        <ele>602.1</ele>
        <time>2021-05-08T07:06:04Z</time>
      </trkpt>
      <trkpt lat="40.4178650" lon="-3.9580830">
        <ele>602.2</ele>
        <time>2021-05-08T07:06:06Z</time>
      </trkpt>
      <trkpt lat="40.4178930" lon="-3.9581650">
        <ele>602.4</ele>
        <time>2021-05-08T07:06:08Z</time>
      </trkpt>
      <trkpt lat="40.4179110" lon="-3.9582200">
        <ele>602.4</ele>
        <time>2021-05-08T07:06:10Z</time>
      </trkpt>
      <trkpt lat="40.4179420" lon="-3.9583080">
        <ele>602.5</ele>
        <time>2021-05-08T07:06:11Z</time>
      </trkpt>
      <trkpt lat="40.4179890" lon="-3.9584240">
        <ele>602.6</ele>
        <time>2021-05-08T07:06:13Z</time>
      </trkpt>
      <trkpt lat="40.4180100" lon="-3.9584790">
        <ele>602.6</ele>
        <time>2021-05-08T07:06:14Z</time>
      </trkpt>
      <trkpt lat="40.4180290" lon="-3.9585360">
        <ele>602.7</ele>
        <time>2021-05-08T07:06:15Z</time>
      </trkpt>
      <trkpt lat="40.4180470" lon="-3.9585810">
        <ele>602.7</ele>
        <time>2021-05-08T07:06:16Z</time>
      </trkpt>
      <trkpt lat="40.4180710" lon="-3.9586400">
        <ele>602.7</ele>
        <time>2021-05-08T07:06:17Z</time>
      </trkpt>
      <trkpt lat="40.4181040" lon="-3.9587290">
        <ele>602.8</ele>
        <time>2021-05-08T07:06:18Z</time>
      </trkpt>
      <trkpt lat="40.4181280" lon="-3.9588030">
        <ele>602.8</ele>
        <time>2021-05-08T07:06:20Z</time>
      </trkpt>
      <trkpt lat="40.4181530" lon="-3.9588440">
        <ele>602.9</ele>
        <time>2021-05-08T07:06:21Z</time>
      </trkpt>
      <trkpt lat="40.4181720" lon="-3.9588950">
        <ele>603.0</ele>
        <time>2021-05-08T07:06:22Z</time>
      </trkpt>
      <trkpt lat="40.4181960" lon="-3.9589260">
        <ele>603.0</ele>
        <time>2021-05-08T07:06:23Z</time>
      </trkpt>
      <trkpt lat="40.4182310" lon="-3.9590100">
        <ele>603.2</ele>
        <time>2021-05-08T07:06:25Z</time>
      </trkpt>
      <trkpt lat="40.4182370" lon="-3.9590810">
        <ele>603.3</ele>
        <time>2021-05-08T07:06:26Z</time>
      </trkpt>
      <trkpt lat="40.4182510" lon="-3.9591340">
        <ele>603.4</ele>
        <time>2021-05-08T07:06:27Z</time>
      </trkpt>
      <trkpt lat="40.4182820" lon="-3.9592320">
        <ele>603.6</ele>
        <time>2021-05-08T07:06:29Z</time>
      </trkpt>
      <trkpt lat="40.4183110" lon="-3.9593160">
        <ele>603.9</ele>
        <time>2021-05-08T07:06:31Z</time>
      </trkpt>
      <trkpt lat="40.4183260" lon="-3.9593520">
        <ele>604.0</ele>
        <time>2021-05-08T07:06:32Z</time>
      </trkpt>
      <trkpt lat="40.4183410" lon="-3.9593870">
        <ele>604.1</ele>
        <time>2021-05-08T07:06:33Z</time>
      </trkpt>
      <trkpt lat="40.4183650" lon="-3.9594580">
        <ele>604.3</ele>
        <time>2021-05-08T07:06:35Z</time>
      </trkpt>
      <trkpt lat="40.4183940" lon="-3.9595410">
        <ele>604.5</ele>
        <time>2021-05-08T07:06:37Z</time>
      </trkpt>
      <trkpt lat="40.4184160" lon="-3.9596040">
        <ele>604.7</ele>
        <time>2021-05-08T07:06:39Z</time>
      </trkpt>
      <trkpt lat="40.4184440" lon="-3.9596700">
        <ele>604.9</ele>
        <time>2021-05-08T07:06:41Z</time>
      </trkpt>
      <trkpt lat="40.4184850" lon="-3.9597430">
        <ele>605.1</ele>
        <time>2021-05-08T07:06:43Z</time>
      </trkpt>
      <trkpt lat="40.4185050" lon="-3.9597790">
        <ele>605.3</ele>
        <time>2021-05-08T07:06:44Z</time>
      </trkpt>
      <trkpt lat="40.4185490" lon="-3.9598590">
        <ele>605.4</ele>
        <time>2021-05-08T07:06:46Z</time>
      </trkpt>
      <trkpt lat="40.4185990" lon="-3.9599320">
        <ele>605.4</ele>
        <time>2021-05-08T07:06:48Z</time>
      </trkpt>
      <trkpt lat="40.4186250" lon="-3.9599710">
        <ele>605.5</ele>
        <time>2021-05-08T07:06:49Z</time>
      </trkpt>
      <trkpt lat="40.4186680" lon="-3.9600400">
        <ele>605.5</ele>
        <time>2021-05-08T07:06:51Z</time>
      </trkpt>
      <trkpt lat="40.4187000" lon="-3.9600910">
        <ele>605.5</ele>
        <time>2021-05-08T07:06:52Z</time>
      </trkpt>
      <trkpt lat="40.4187270" lon="-3.9601370">
        <ele>605.6</ele>
        <time>2021-05-08T07:06:53Z</time>
      </trkpt>
      <trkpt lat="40.4187770" lon="-3.9602050">
        <ele>605.6</ele>
        <time>2021-05-08T07:06:55Z</time>
      </trkpt>
      <trkpt lat="40.4188550" lon="-3.9602950">
        <ele>605.8</ele>
        <time>2021-05-08T07:06:57Z</time>
      </trkpt>
      <trkpt lat="40.4189150" lon="-3.9603590">
        <ele>605.9</ele>
        <time>2021-05-08T07:06:59Z</time>
      </trkpt>
      <trkpt lat="40.4189470" lon="-3.9603890">
        <ele>606.0</ele>
        <time>2021-05-08T07:07:00Z</time>
      </trkpt>
      <trkpt lat="40.4190060" lon="-3.9604460">
        <ele>606.2</ele>
        <time>2021-05-08T07:07:02Z</time>
      </trkpt>
      <trkpt lat="40.4190610" lon="-3.9604940">
        <ele>606.4</ele>
        <time>2021-05-08T07:07:04Z</time>
      </trkpt>
      <trkpt lat="40.4191180" lon="-3.9605470">
        <ele>606.7</ele>
        <time>2021-05-08T07:07:06Z</time>
      </trkpt>
      <trkpt lat="40.4191790" lon="-3.9606020">
        <ele>607.0</ele>
        <time>2021-05-08T07:07:08Z</time>
      </trkpt>
      <trkpt lat="40.4192340" lon="-3.9606480">
        <ele>607.3</ele>
        <time>2021-05-08T07:07:10Z</time>
      </trkpt>
      <trkpt lat="40.4192900" lon="-3.9606880">
        <ele>607.6</ele>
        <time>2021-05-08T07:07:12Z</time>
      </trkpt>
      <trkpt lat="40.4193130" lon="-3.9607170">
        <ele>607.8</ele>
        <time>2021-05-08T07:07:13Z</time>
      </trkpt>
      <trkpt lat="40.4193330" lon="-3.9607410">
        <ele>608.0</ele>
        <time>2021-05-08T07:07:14Z</time>
      </trkpt>
      <trkpt lat="40.4193750" lon="-3.9607950">
        <ele>608.3</ele>
        <time>2021-05-08T07:07:16Z</time>
      </trkpt>
      <trkpt lat="40.4194390" lon="-3.9608600">
        <ele>608.8</ele>
        <time>2021-05-08T07:07:18Z</time>
      </trkpt>
      <trkpt lat="40.4194670" lon="-3.9608960">
        <ele>609.0</ele>
        <time>2021-05-08T07:07:20Z</time>
      </trkpt>
      <trkpt lat="40.4194820" lon="-3.9609220">
        <ele>609.2</ele>
        <time>2021-05-08T07:07:21Z</time>
      </trkpt>
      <trkpt lat="40.4195230" lon="-3.9609820">
        <ele>609.5</ele>
        <time>2021-05-08T07:07:23Z</time>
      </trkpt>
      <trkpt lat="40.4195430" lon="-3.9610320">
        <ele>609.7</ele>
        <time>2021-05-08T07:07:25Z</time>
      </trkpt>
      <trkpt lat="40.4195570" lon="-3.9610800">
        <ele>609.9</ele>
        <time>2021-05-08T07:07:26Z</time>
      </trkpt>
      <trkpt lat="40.4195680" lon="-3.9611160">
        <ele>610.0</ele>
        <time>2021-05-08T07:07:27Z</time>
      </trkpt>
      <trkpt lat="40.4195930" lon="-3.9612010">
        <ele>610.2</ele>
        <time>2021-05-08T07:07:29Z</time>
      </trkpt>
      <trkpt lat="40.4196020" lon="-3.9612450">
        <ele>610.3</ele>
        <time>2021-05-08T07:07:30Z</time>
      </trkpt>
      <trkpt lat="40.4196100" lon="-3.9612880">
        <ele>610.4</ele>
        <time>2021-05-08T07:07:31Z</time>
      </trkpt>
      <trkpt lat="40.4196180" lon="-3.9613820">
        <ele>610.6</ele>
        <time>2021-05-08T07:07:33Z</time>
      </trkpt>
      <trkpt lat="40.4196230" lon="-3.9614270">
        <ele>610.7</ele>
        <time>2021-05-08T07:07:34Z</time>
      </trkpt>
      <trkpt lat="40.4196290" lon="-3.9615250">
        <ele>610.9</ele>
        <time>2021-05-08T07:07:36Z</time>
      </trkpt>
      <trkpt lat="40.4196270" lon="-3.9616010">
        <ele>611.2</ele>
        <time>2021-05-08T07:07:38Z</time>
      </trkpt>
      <trkpt lat="40.4196340" lon="-3.9616550">
        <ele>611.5</ele>
        <time>2021-05-08T07:07:39Z</time>
      </trkpt>
      <trkpt lat="40.4196390" lon="-3.9617360">
        <ele>611.9</ele>
        <time>2021-05-08T07:07:41Z</time>
      </trkpt>
      <trkpt lat="40.4196470" lon="-3.9618380">
        <ele>612.6</ele>
        <time>2021-05-08T07:07:43Z</time>
      </trkpt>
      <trkpt lat="40.4196500" lon="-3.9619120">
        <ele>613.1</ele>
        <time>2021-05-08T07:07:45Z</time>
      </trkpt>
      <trkpt lat="40.4196540" lon="-3.9619470">
        <ele>613.4</ele>
        <time>2021-05-08T07:07:46Z</time>
      </trkpt>
      <trkpt lat="40.4196660" lon="-3.9619970">
        <ele>613.8</ele>
        <time>2021-05-08T07:07:48Z</time>
      </trkpt>
      <trkpt lat="40.4196750" lon="-3.9620370">
        <ele>614.2</ele>
        <time>2021-05-08T07:07:49Z</time>
      </trkpt>
      <trkpt lat="40.4196850" lon="-3.9620810">
        <ele>614.6</ele>
        <time>2021-05-08T07:07:50Z</time>
      </trkpt>
      <trkpt lat="40.4196880" lon="-3.9620940">
        <ele>614.7</ele>
        <time>2021-05-08T07:07:51Z</time>
      </trkpt>
      <trkpt lat="40.4196970" lon="-3.9621220">
        <ele>615.0</ele>
        <time>2021-05-08T07:07:52Z</time>
      </trkpt>
      <trkpt lat="40.4197120" lon="-3.9621680">
        <ele>615.4</ele>
        <time>2021-05-08T07:07:54Z</time>
      </trkpt>
      <trkpt lat="40.4197220" lon="-3.9622050">
        <ele>615.8</ele>
        <time>2021-05-08T07:07:55Z</time>
      </trkpt>
      <trkpt lat="40.4197380" lon="-3.9622480">
        <ele>616.3</ele>
        <time>2021-05-08T07:07:57Z</time>
      </trkpt>
      <trkpt lat="40.4197540" lon="-3.9622980">
        <ele>616.8</ele>
        <time>2021-05-08T07:07:59Z</time>
      </trkpt>
      <trkpt lat="40.4197710" lon="-3.9623540">
        <ele>617.4</ele>
        <time>2021-05-08T07:08:01Z</time>
      </trkpt>
      <trkpt lat="40.4197950" lon="-3.9624210">
        <ele>618.1</ele>
        <time>2021-05-08T07:08:03Z</time>
      </trkpt>
      <trkpt lat="40.4198080" lon="-3.9624600">
        <ele>618.6</ele>
        <time>2021-05-08T07:08:04Z</time>
      </trkpt>
      <trkpt lat="40.4198140" lon="-3.9624790">
        <ele>618.8</ele>
        <time>2021-05-08T07:08:05Z</time>
      </trkpt>
      <trkpt lat="40.4198330" lon="-3.9625090">
        <ele>619.2</ele>
        <time>2021-05-08T07:08:07Z</time>
      </trkpt>
      <trkpt lat="40.4198470" lon="-3.9625420">
        <ele>619.5</ele>
        <time>2021-05-08T07:08:08Z</time>
      </trkpt>
      <trkpt lat="40.4198590" lon="-3.9625720">
        <ele>619.9</ele>
        <time>2021-05-08T07:08:09Z</time>
      </trkpt>
      <trkpt lat="40.4198810" lon="-3.9626140">
        <ele>620.4</ele>
        <time>2021-05-08T07:08:11Z</time>
      </trkpt>
      <trkpt lat="40.4199010" lon="-3.9626500">
        <ele>620.8</ele>
        <time>2021-05-08T07:08:12Z</time>
      </trkpt>
      <trkpt lat="40.4199170" lon="-3.9626870">
        <ele>621.2</ele>
        <time>2021-05-08T07:08:14Z</time>
      </trkpt>
      <trkpt lat="40.4199280" lon="-3.9627140">
        <ele>621.4</ele>
        <time>2021-05-08T07:08:15Z</time>
      </trkpt>
      <trkpt lat="40.4199560" lon="-3.9627660">
        <ele>621.9</ele>
        <time>2021-05-08T07:08:17Z</time>
      </trkpt>
      <trkpt lat="40.4199850" lon="-3.9628180">
        <ele>622.4</ele>
        <time>2021-05-08T07:08:19Z</time>
      </trkpt>
      <trkpt lat="40.4200030" lon="-3.9628610">
        <ele>622.7</ele>
        <time>2021-05-08T07:08:20Z</time>
      </trkpt>
      <trkpt lat="40.4200090" lon="-3.9628750">
        <ele>622.8</ele>
        <time>2021-05-08T07:08:21Z</time>
      </trkpt>
      <trkpt lat="40.4200340" lon="-3.9629250">
        <ele>623.2</ele>
        <time>2021-05-08T07:08:23Z</time>
      </trkpt>
      <trkpt lat="40.4200500" lon="-3.9629570">
        <ele>623.5</ele>
        <time>2021-05-08T07:08:24Z</time>
      </trkpt>
      <trkpt lat="40.4200680" lon="-3.9629990">
        <ele>623.8</ele>
        <time>2021-05-08T07:08:25Z</time>
      </trkpt>
      <trkpt lat="40.4200740" lon="-3.9630140">
        <ele>623.9</ele>
        <time>2021-05-08T07:08:26Z</time>
      </trkpt>
      <trkpt lat="40.4200990" lon="-3.9630680">
        <ele>624.2</ele>
        <time>2021-05-08T07:08:28Z</time>
      </trkpt>
      <trkpt lat="40.4201200" lon="-3.9631120">
        <ele>624.5</ele>
        <time>2021-05-08T07:08:29Z</time>
      </trkpt>
      <trkpt lat="40.4201290" lon="-3.9631350">
        <ele>624.6</ele>
        <time>2021-05-08T07:08:30Z</time>
      </trkpt>
      <trkpt lat="40.4201500" lon="-3.9631910">
        <ele>625.0</ele>
        <time>2021-05-08T07:08:32Z</time>
      </trkpt>
      <trkpt lat="40.4201670" lon="-3.9632500">
        <ele>625.3</ele>
        <time>2021-05-08T07:08:34Z</time>
      </trkpt>
      <trkpt lat="40.4201890" lon="-3.9633160">
        <ele>625.6</ele>
        <time>2021-05-08T07:08:36Z</time>
      </trkpt>
      <trkpt lat="40.4202010" lon="-3.9633490">
        <ele>625.8</ele>
        <time>2021-05-08T07:08:37Z</time>
      </trkpt>
      <trkpt lat="40.4202180" lon="-3.9634160">
        <ele>626.1</ele>
        <time>2021-05-08T07:08:39Z</time>
      </trkpt>
      <trkpt lat="40.4202260" lon="-3.9634510">
        <ele>626.3</ele>
        <time>2021-05-08T07:08:40Z</time>
      </trkpt>
      <trkpt lat="40.4202410" lon="-3.9635150">
        <ele>626.6</ele>
        <time>2021-05-08T07:08:42Z</time>
      </trkpt>
      <trkpt lat="40.4202600" lon="-3.9635840">
        <ele>626.9</ele>
        <time>2021-05-08T07:08:44Z</time>
      </trkpt>
      <trkpt lat="40.4202760" lon="-3.9636470">
        <ele>627.2</ele>
        <time>2021-05-08T07:08:46Z</time>
      </trkpt>
      <trkpt lat="40.4202830" lon="-3.9636800">
        <ele>627.4</ele>
        <time>2021-05-08T07:08:47Z</time>
      </trkpt>
      <trkpt lat="40.4203050" lon="-3.9637410">
        <ele>627.7</ele>
        <time>2021-05-08T07:08:49Z</time>
      </trkpt>
      <trkpt lat="40.4203200" lon="-3.9638090">
        <ele>628.1</ele>
        <time>2021-05-08T07:08:51Z</time>
      </trkpt>
      <trkpt lat="40.4203240" lon="-3.9638300">
        <ele>628.2</ele>
        <time>2021-05-08T07:08:52Z</time>
      </trkpt>
      <trkpt lat="40.4203380" lon="-3.9639160">
        <ele>628.7</ele>
        <time>2021-05-08T07:08:54Z</time>
      </trkpt>
      <trkpt lat="40.4203450" lon="-3.9639500">
        <ele>628.9</ele>
        <time>2021-05-08T07:08:55Z</time>
      </trkpt>
      <trkpt lat="40.4203530" lon="-3.9639830">
        <ele>629.2</ele>
        <time>2021-05-08T07:08:56Z</time>
      </trkpt>
      <trkpt lat="40.4203680" lon="-3.9640440">
        <ele>629.6</ele>
        <time>2021-05-08T07:08:58Z</time>
      </trkpt>
      <trkpt lat="40.4203830" lon="-3.9641130">
        <ele>630.0</ele>
        <time>2021-05-08T07:09:00Z</time>
      </trkpt>
      <trkpt lat="40.4203960" lon="-3.9641550">
        <ele>630.3</ele>
        <time>2021-05-08T07:09:01Z</time>
      </trkpt>
      <trkpt lat="40.4203990" lon="-3.9641700">
        <ele>630.4</ele>
        <time>2021-05-08T07:09:02Z</time>
      </trkpt>
      <trkpt lat="40.4204050" lon="-3.9641990">
        <ele>630.6</ele>
        <time>2021-05-08T07:09:03Z</time>
      </trkpt>
      <trkpt lat="40.4204150" lon="-3.9642670">
        <ele>631.1</ele>
        <time>2021-05-08T07:09:05Z</time>
      </trkpt>
      <trkpt lat="40.4204310" lon="-3.9643290">
        <ele>631.5</ele>
        <time>2021-05-08T07:09:07Z</time>
      </trkpt>
      <trkpt lat="40.4204470" lon="-3.9643920">
        <ele>632.0</ele>
        <time>2021-05-08T07:09:09Z</time>
      </trkpt>
      <trkpt lat="40.4204600" lon="-3.9644520">
        <ele>632.4</ele>
        <time>2021-05-08T07:09:11Z</time>
      </trkpt>
      <trkpt lat="40.4204650" lon="-3.9644800">
        <ele>632.5</ele>
        <time>2021-05-08T07:09:12Z</time>
      </trkpt>
      <trkpt lat="40.4204810" lon="-3.9645380">
        <ele>632.9</ele>
        <time>2021-05-08T07:09:14Z</time>
      </trkpt>
      <trkpt lat="40.4204880" lon="-3.9645670">
        <ele>633.1</ele>
        <time>2021-05-08T07:09:15Z</time>
      </trkpt>
      <trkpt lat="40.4205070" lon="-3.9646220">
        <ele>633.4</ele>
        <time>2021-05-08T07:09:17Z</time>
      </trkpt>
      <trkpt lat="40.4205230" lon="-3.9646820">
        <ele>633.7</ele>
        <time>2021-05-08T07:09:19Z</time>
      </trkpt>
      <trkpt lat="40.4205370" lon="-3.9647450">
        <ele>634.0</ele>
        <time>2021-05-08T07:09:21Z</time>
      </trkpt>
      <trkpt lat="40.4205450" lon="-3.9647780">
        <ele>634.2</ele>
        <time>2021-05-08T07:09:22Z</time>
      </trkpt>
      <trkpt lat="40.4205630" lon="-3.9648450">
        <ele>634.4</ele>
        <time>2021-05-08T07:09:24Z</time>
      </trkpt>
      <trkpt lat="40.4205840" lon="-3.9649100">
        <ele>634.6</ele>
        <time>2021-05-08T07:09:26Z</time>
      </trkpt>
      <trkpt lat="40.4206020" lon="-3.9649590">
        <ele>634.7</ele>
        <time>2021-05-08T07:09:28Z</time>
      </trkpt>
      <trkpt lat="40.4206140" lon="-3.9649980">
        <ele>634.8</ele>
        <time>2021-05-08T07:09:29Z</time>
      </trkpt>
      <trkpt lat="40.4206290" lon="-3.9650450">
        <ele>634.8</ele>
        <time>2021-05-08T07:09:30Z</time>
      </trkpt>
      <trkpt lat="40.4206570" lon="-3.9651320">
        <ele>634.9</ele>
        <time>2021-05-08T07:09:32Z</time>
      </trkpt>
      <trkpt lat="40.4206740" lon="-3.9651700">
        <ele>634.9</ele>
        <time>2021-05-08T07:09:33Z</time>
      </trkpt>
      <trkpt lat="40.4207060" lon="-3.9652520">
        <ele>634.8</ele>
        <time>2021-05-08T07:09:35Z</time>
      </trkpt>
      <trkpt lat="40.4207240" lon="-3.9653000">
        <ele>634.7</ele>
        <time>2021-05-08T07:09:36Z</time>
      </trkpt>
      <trkpt lat="40.4207590" lon="-3.9653960">
        <ele>634.6</ele>
        <time>2021-05-08T07:09:38Z</time>
      </trkpt>
      <trkpt lat="40.4207770" lon="-3.9654460">
        <ele>634.5</ele>
        <time>2021-05-08T07:09:39Z</time>
      </trkpt>
      <trkpt lat="40.4207930" lon="-3.9654980">
        <ele>634.4</ele>
        <time>2021-05-08T07:09:40Z</time>
      </trkpt>
      <trkpt lat="40.4208290" lon="-3.9656010">
        <ele>634.2</ele>
        <time>2021-05-08T07:09:42Z</time>
      </trkpt>
      <trkpt lat="40.4208480" lon="-3.9656560">
        <ele>634.1</ele>
        <time>2021-05-08T07:09:43Z</time>
      </trkpt>
      <trkpt lat="40.4208850" lon="-3.9657700">
        <ele>633.9</ele>
        <time>2021-05-08T07:09:45Z</time>
      </trkpt>
      <trkpt lat="40.4209230" lon="-3.9658840">
        <ele>633.7</ele>
        <time>2021-05-08T07:09:47Z</time>
      </trkpt>
      <trkpt lat="40.4209620" lon="-3.9660000">
        <ele>633.5</ele>
        <time>2021-05-08T07:09:49Z</time>
      </trkpt>
      <trkpt lat="40.4209810" lon="-3.9660590">
        <ele>633.4</ele>
        <time>2021-05-08T07:09:50Z</time>
      </trkpt>
      <trkpt lat="40.4210000" lon="-3.9661200">
        <ele>633.4</ele>
        <time>2021-05-08T07:09:51Z</time>
      </trkpt>
      <trkpt lat="40.4210400" lon="-3.9662340">
        <ele>633.3</ele>
        <time>2021-05-08T07:09:53Z</time>
      </trkpt>
      <trkpt lat="40.4210600" lon="-3.9662880">
        <ele>633.3</ele>
        <time>2021-05-08T07:09:54Z</time>
      </trkpt>
      <trkpt lat="40.4210810" lon="-3.9663410">
        <ele>633.2</ele>
        <time>2021-05-08T07:09:55Z</time>
      </trkpt>
      <trkpt lat="40.4211020" lon="-3.9663930">
        <ele>633.2</ele>
        <time>2021-05-08T07:09:56Z</time>
      </trkpt>
      <trkpt lat="40.4211440" lon="-3.9664970">
        <ele>633.1</ele>
        <time>2021-05-08T07:09:58Z</time>
      </trkpt>
      <trkpt lat="40.4211840" lon="-3.9666050">
        <ele>633.1</ele>
        <time>2021-05-08T07:10:00Z</time>
      </trkpt>
      <trkpt lat="40.4212030" lon="-3.9666600">
        <ele>633.1</ele>
        <time>2021-05-08T07:10:01Z</time>
      </trkpt>
      <trkpt lat="40.4212400" lon="-3.9667740">
        <ele>633.1</ele>
        <time>2021-05-08T07:10:03Z</time>
      </trkpt>
      <trkpt lat="40.4212600" lon="-3.9668320">
        <ele>633.1</ele>
        <time>2021-05-08T07:10:04Z</time>
      </trkpt>
      <trkpt lat="40.4213040" lon="-3.9669460">
        <ele>633.2</ele>
        <time>2021-05-08T07:10:06Z</time>
      </trkpt>
      <trkpt lat="40.4213250" lon="-3.9670020">
        <ele>633.3</ele>
        <time>2021-05-08T07:10:07Z</time>
      </trkpt>
      <trkpt lat="40.4213460" lon="-3.9670570">
        <ele>633.3</ele>
        <time>2021-05-08T07:10:08Z</time>
      </trkpt>
      <trkpt lat="40.4213740" lon="-3.9671460">
        <ele>633.4</ele>
        <time>2021-05-08T07:10:10Z</time>
      </trkpt>
      <trkpt lat="40.4214100" lon="-3.9672570">
        <ele>633.5</ele>
        <time>2021-05-08T07:10:12Z</time>
      </trkpt>
      <trkpt lat="40.4214290" lon="-3.9673140">
        <ele>633.5</ele>
        <time>2021-05-08T07:10:13Z</time>
      </trkpt>
      <trkpt lat="40.4214670" lon="-3.9674300">
        <ele>633.6</ele>
        <time>2021-05-08T07:10:15Z</time>
      </trkpt>
      <trkpt lat="40.4214980" lon="-3.9675090">
        <ele>633.7</ele>
        <time>2021-05-08T07:10:17Z</time>
      </trkpt>
      <trkpt lat="40.4215100" lon="-3.9675560">
        <ele>633.7</ele>
        <time>2021-05-08T07:10:18Z</time>
      </trkpt>
      <trkpt lat="40.4215430" lon="-3.9676580">
        <ele>633.9</ele>
        <time>2021-05-08T07:10:20Z</time>
      </trkpt>
      <trkpt lat="40.4215920" lon="-3.9677890">
        <ele>634.0</ele>
        <time>2021-05-08T07:10:22Z</time>
      </trkpt>
      <trkpt lat="40.4216150" lon="-3.9678510">
        <ele>634.1</ele>
        <time>2021-05-08T07:10:24Z</time>
      </trkpt>
      <trkpt lat="40.4216520" lon="-3.9679490">
        <ele>634.3</ele>
        <time>2021-05-08T07:10:26Z</time>
      </trkpt>
      <trkpt lat="40.4216690" lon="-3.9679960">
        <ele>634.3</ele>
        <time>2021-05-08T07:10:27Z</time>
      </trkpt>
      <trkpt lat="40.4216860" lon="-3.9680410">
        <ele>634.4</ele>
        <time>2021-05-08T07:10:28Z</time>
      </trkpt>
      <trkpt lat="40.4217030" lon="-3.9680870">
        <ele>634.4</ele>
        <time>2021-05-08T07:10:29Z</time>
      </trkpt>
      <trkpt lat="40.4217360" lon="-3.9681670">
        <ele>634.5</ele>
        <time>2021-05-08T07:10:31Z</time>
      </trkpt>
      <trkpt lat="40.4217620" lon="-3.9682300">
        <ele>634.6</ele>
        <time>2021-05-08T07:10:32Z</time>
      </trkpt>
      <trkpt lat="40.4217790" lon="-3.9682850">
        <ele>634.6</ele>
        <time>2021-05-08T07:10:33Z</time>
      </trkpt>
      <trkpt lat="40.4218060" lon="-3.9683640">
        <ele>634.6</ele>
        <time>2021-05-08T07:10:35Z</time>
      </trkpt>
      <trkpt lat="40.4218260" lon="-3.9684210">
        <ele>634.6</ele>
        <time>2021-05-08T07:10:36Z</time>
      </trkpt>
      <trkpt lat="40.4218400" lon="-3.9684620">
        <ele>634.6</ele>
        <time>2021-05-08T07:10:37Z</time>
      </trkpt>
      <trkpt lat="40.4218570" lon="-3.9685110">
        <ele>634.6</ele>
        <time>2021-05-08T07:10:38Z</time>
      </trkpt>
      <trkpt lat="40.4218810" lon="-3.9685890">
        <ele>634.5</ele>
        <time>2021-05-08T07:10:39Z</time>
      </trkpt>
      <trkpt lat="40.4219090" lon="-3.9686710">
        <ele>634.4</ele>
        <time>2021-05-08T07:10:41Z</time>
      </trkpt>
      <trkpt lat="40.4219240" lon="-3.9687310">
        <ele>634.4</ele>
        <time>2021-05-08T07:10:42Z</time>
      </trkpt>
      <trkpt lat="40.4219580" lon="-3.9688570">
        <ele>634.2</ele>
        <time>2021-05-08T07:10:44Z</time>
      </trkpt>
      <trkpt lat="40.4219850" lon="-3.9689890">
        <ele>634.1</ele>
        <time>2021-05-08T07:10:46Z</time>
      </trkpt>
      <trkpt lat="40.4219990" lon="-3.9690580">
        <ele>634.0</ele>
        <time>2021-05-08T07:10:47Z</time>
      </trkpt>
      <trkpt lat="40.4220230" lon="-3.9691940">
        <ele>633.8</ele>
        <time>2021-05-08T07:10:49Z</time>
      </trkpt>
      <trkpt lat="40.4220350" lon="-3.9692610">
        <ele>633.7</ele>
        <time>2021-05-08T07:10:50Z</time>
      </trkpt>
      <trkpt lat="40.4220480" lon="-3.9693280">
        <ele>633.7</ele>
        <time>2021-05-08T07:10:51Z</time>
      </trkpt>
      <trkpt lat="40.4220750" lon="-3.9694610">
        <ele>633.5</ele>
        <time>2021-05-08T07:10:53Z</time>
      </trkpt>
      <trkpt lat="40.4220880" lon="-3.9695270">
        <ele>633.4</ele>
        <time>2021-05-08T07:10:54Z</time>
      </trkpt>
      <trkpt lat="40.4220990" lon="-3.9695940">
        <ele>633.4</ele>
        <time>2021-05-08T07:10:55Z</time>
      </trkpt>
      <trkpt lat="40.4221210" lon="-3.9697300">
        <ele>633.3</ele>
        <time>2021-05-08T07:10:57Z</time>
      </trkpt>
      <trkpt lat="40.4221450" lon="-3.9698650">
        <ele>633.2</ele>
        <time>2021-05-08T07:10:59Z</time>
      </trkpt>
      <trkpt lat="40.4221680" lon="-3.9700030">
        <ele>633.3</ele>
        <time>2021-05-08T07:11:01Z</time>
      </trkpt>
      <trkpt lat="40.4221960" lon="-3.9701310">
        <ele>633.4</ele>
        <time>2021-05-08T07:11:03Z</time>
      </trkpt>
      <trkpt lat="40.4222090" lon="-3.9701960">
        <ele>633.4</ele>
        <time>2021-05-08T07:11:04Z</time>
      </trkpt>
      <trkpt lat="40.4222320" lon="-3.9703380">
        <ele>633.4</ele>
        <time>2021-05-08T07:11:06Z</time>
      </trkpt>
      <trkpt lat="40.4222470" lon="-3.9704010">
        <ele>633.5</ele>
        <time>2021-05-08T07:11:07Z</time>
      </trkpt>
      <trkpt lat="40.4222750" lon="-3.9705270">
        <ele>633.5</ele>
        <time>2021-05-08T07:11:09Z</time>
      </trkpt>
      <trkpt lat="40.4223040" lon="-3.9706550">
        <ele>633.6</ele>
        <time>2021-05-08T07:11:11Z</time>
      </trkpt>
      <trkpt lat="40.4223300" lon="-3.9707760">
        <ele>633.7</ele>
        <time>2021-05-08T07:11:13Z</time>
      </trkpt>
      <trkpt lat="40.4223400" lon="-3.9708320">
        <ele>633.7</ele>
        <time>2021-05-08T07:11:14Z</time>
      </trkpt>
      <trkpt lat="40.4223460" lon="-3.9708690">
        <ele>633.7</ele>
        <time>2021-05-08T07:11:15Z</time>
      </trkpt>
      <trkpt lat="40.4223700" lon="-3.9709920">
        <ele>633.9</ele>
        <time>2021-05-08T07:11:17Z</time>
      </trkpt>
      <trkpt lat="40.4223860" lon="-3.9710530">
        <ele>634.0</ele>
        <time>2021-05-08T07:11:18Z</time>
      </trkpt>
      <trkpt lat="40.4224010" lon="-3.9711110">
        <ele>634.0</ele>
        <time>2021-05-08T07:11:19Z</time>
      </trkpt>
      <trkpt lat="40.4224290" lon="-3.9712240">
        <ele>634.2</ele>
        <time>2021-05-08T07:11:21Z</time>
      </trkpt>
      <trkpt lat="40.4224660" lon="-3.9713250">
        <ele>634.3</ele>
        <time>2021-05-08T07:11:23Z</time>
      </trkpt>
      <trkpt lat="40.4224940" lon="-3.9714120">
        <ele>634.5</ele>
        <time>2021-05-08T07:11:25Z</time>
      </trkpt>
      <trkpt lat="40.4225270" lon="-3.9714450">
        <ele>634.5</ele>
        <time>2021-05-08T07:11:26Z</time>
      </trkpt>
      <trkpt lat="40.4225880" lon="-3.9715120">
        <ele>634.8</ele>
        <time>2021-05-08T07:11:28Z</time>
      </trkpt>
      <trkpt lat="40.4226180" lon="-3.9715450">
        <ele>635.0</ele>
        <time>2021-05-08T07:11:29Z</time>
      </trkpt>
      <trkpt lat="40.4226690" lon="-3.9716030">
        <ele>635.3</ele>
        <time>2021-05-08T07:11:31Z</time>
      </trkpt>
      <trkpt lat="40.4227080" lon="-3.9716510">
        <ele>635.5</ele>
        <time>2021-05-08T07:11:32Z</time>
      </trkpt>
      <trkpt lat="40.4227370" lon="-3.9716880">
        <ele>635.7</ele>
        <time>2021-05-08T07:11:33Z</time>
      </trkpt>
      <trkpt lat="40.4227960" lon="-3.9717580">
        <ele>636.2</ele>
        <time>2021-05-08T07:11:35Z</time>
      </trkpt>
      <trkpt lat="40.4228250" lon="-3.9717940">
        <ele>636.4</ele>
        <time>2021-05-08T07:11:36Z</time>
      </trkpt>
      <trkpt lat="40.4228770" lon="-3.9718600">
        <ele>636.9</ele>
        <time>2021-05-08T07:11:38Z</time>
      </trkpt>
      <trkpt lat="40.4229020" lon="-3.9718940">
        <ele>637.1</ele>
        <time>2021-05-08T07:11:39Z</time>
      </trkpt>
      <trkpt lat="40.4229520" lon="-3.9719580">
        <ele>637.6</ele>
        <time>2021-05-08T07:11:41Z</time>
      </trkpt>
      <trkpt lat="40.4230000" lon="-3.9720140">
        <ele>638.0</ele>
        <time>2021-05-08T07:11:43Z</time>
      </trkpt>
      <trkpt lat="40.4230470" lon="-3.9720710">
        <ele>638.4</ele>
        <time>2021-05-08T07:11:45Z</time>
      </trkpt>
      <trkpt lat="40.4230660" lon="-3.9721000">
        <ele>638.5</ele>
        <time>2021-05-08T07:11:46Z</time>
      </trkpt>
      <trkpt lat="40.4231100" lon="-3.9721500">
        <ele>638.8</ele>
        <time>2021-05-08T07:11:48Z</time>
      </trkpt>
      <trkpt lat="40.4231330" lon="-3.9721800">
        <ele>639.0</ele>
        <time>2021-05-08T07:11:49Z</time>
      </trkpt>
      <trkpt lat="40.4231750" lon="-3.9722290">
        <ele>639.3</ele>
        <time>2021-05-08T07:11:51Z</time>
      </trkpt>
      <trkpt lat="40.4232380" lon="-3.9722740">
        <ele>639.6</ele>
        <time>2021-05-08T07:11:53Z</time>
      </trkpt>
      <trkpt lat="40.4233020" lon="-3.9723190">
        <ele>639.9</ele>
        <time>2021-05-08T07:11:55Z</time>
      </trkpt>
      <trkpt lat="40.4233660" lon="-3.9723650">
        <ele>640.2</ele>
        <time>2021-05-08T07:11:57Z</time>
      </trkpt>
      <trkpt lat="40.4233990" lon="-3.9723870">
        <ele>640.3</ele>
        <time>2021-05-08T07:11:58Z</time>
      </trkpt>
      <trkpt lat="40.4234340" lon="-3.9724130">
        <ele>640.4</ele>
        <time>2021-05-08T07:11:59Z</time>
      </trkpt>
      <trkpt lat="40.4235070" lon="-3.9724660">
        <ele>640.6</ele>
        <time>2021-05-08T07:12:01Z</time>
      </trkpt>
      <trkpt lat="40.4235410" lon="-3.9724930">
        <ele>640.6</ele>
        <time>2021-05-08T07:12:02Z</time>
      </trkpt>
      <trkpt lat="40.4236040" lon="-3.9725430">
        <ele>640.7</ele>
        <time>2021-05-08T07:12:04Z</time>
      </trkpt>
      <trkpt lat="40.4236510" lon="-3.9725850">
        <ele>640.8</ele>
        <time>2021-05-08T07:12:05Z</time>
      </trkpt>
      <trkpt lat="40.4236850" lon="-3.9726110">
        <ele>640.9</ele>
        <time>2021-05-08T07:12:06Z</time>
      </trkpt>
      <trkpt lat="40.4237180" lon="-3.9726370">
        <ele>640.9</ele>
        <time>2021-05-08T07:12:07Z</time>
      </trkpt>
      <trkpt lat="40.4237870" lon="-3.9726980">
        <ele>641.1</ele>
        <time>2021-05-08T07:12:09Z</time>
      </trkpt>
      <trkpt lat="40.4238660" lon="-3.9727490">
        <ele>641.2</ele>
        <time>2021-05-08T07:12:11Z</time>
      </trkpt>
      <trkpt lat="40.4239030" lon="-3.9727770">
        <ele>641.2</ele>
        <time>2021-05-08T07:12:12Z</time>
      </trkpt>
      <trkpt lat="40.4239770" lon="-3.9728380">
        <ele>641.4</ele>
        <time>2021-05-08T07:12:14Z</time>
      </trkpt>
      <trkpt lat="40.4240170" lon="-3.9728690">
        <ele>641.4</ele>
        <time>2021-05-08T07:12:15Z</time>
      </trkpt>
      <trkpt lat="40.4240630" lon="-3.9729090">
        <ele>641.5</ele>
        <time>2021-05-08T07:12:16Z</time>
      </trkpt>
      <trkpt lat="40.4241170" lon="-3.9729640">
        <ele>641.6</ele>
        <time>2021-05-08T07:12:18Z</time>
      </trkpt>
      <trkpt lat="40.4241610" lon="-3.9730340">
        <ele>641.6</ele>
        <time>2021-05-08T07:12:19Z</time>
      </trkpt>
      <trkpt lat="40.4241900" lon="-3.9730930">
        <ele>641.6</ele>
        <time>2021-05-08T07:12:21Z</time>
      </trkpt>
      <trkpt lat="40.4242210" lon="-3.9731460">
        <ele>641.7</ele>
        <time>2021-05-08T07:12:22Z</time>
      </trkpt>
      <trkpt lat="40.4242740" lon="-3.9732330">
        <ele>641.7</ele>
        <time>2021-05-08T07:12:24Z</time>
      </trkpt>
      <trkpt lat="40.4243170" lon="-3.9733280">
        <ele>641.8</ele>
        <time>2021-05-08T07:12:26Z</time>
      </trkpt>
      <trkpt lat="40.4243430" lon="-3.9733840">
        <ele>641.9</ele>
        <time>2021-05-08T07:12:27Z</time>
      </trkpt>
      <trkpt lat="40.4243690" lon="-3.9734280">
        <ele>641.9</ele>
        <time>2021-05-08T07:12:28Z</time>
      </trkpt>
      <trkpt lat="40.4244170" lon="-3.9735200">
        <ele>642.0</ele>
        <time>2021-05-08T07:12:30Z</time>
      </trkpt>
      <trkpt lat="40.4244410" lon="-3.9735590">
        <ele>642.0</ele>
        <time>2021-05-08T07:12:31Z</time>
      </trkpt>
      <trkpt lat="40.4244730" lon="-3.9736100">
        <ele>642.1</ele>
        <time>2021-05-08T07:12:32Z</time>
      </trkpt>
      <trkpt lat="40.4245010" lon="-3.9736560">
        <ele>642.2</ele>
        <time>2021-05-08T07:12:33Z</time>
      </trkpt>
      <trkpt lat="40.4245110" lon="-3.9737470">
        <ele>642.2</ele>
        <time>2021-05-08T07:12:35Z</time>
      </trkpt>
      <trkpt lat="40.4245610" lon="-3.9738450">
        <ele>642.3</ele>
        <time>2021-05-08T07:12:37Z</time>
      </trkpt>
      <trkpt lat="40.4246200" lon="-3.9739380">
        <ele>642.4</ele>
        <time>2021-05-08T07:12:39Z</time>
      </trkpt>
      <trkpt lat="40.4246490" lon="-3.9739930">
        <ele>642.5</ele>
        <time>2021-05-08T07:12:40Z</time>
      </trkpt>
      <trkpt lat="40.4246980" lon="-3.9740900">
        <ele>642.6</ele>
        <time>2021-05-08T07:12:42Z</time>
      </trkpt>
      <trkpt lat="40.4247230" lon="-3.9741420">
        <ele>642.7</ele>
        <time>2021-05-08T07:12:43Z</time>
      </trkpt>
      <trkpt lat="40.4247650" lon="-3.9742420">
        <ele>642.7</ele>
        <time>2021-05-08T07:12:45Z</time>
      </trkpt>
      <trkpt lat="40.4247970" lon="-3.9743150">
        <ele>642.8</ele>
        <time>2021-05-08T07:12:46Z</time>
      </trkpt>
      <trkpt lat="40.4248390" lon="-3.9743810">
        <ele>642.8</ele>
        <time>2021-05-08T07:12:48Z</time>
      </trkpt>
      <trkpt lat="40.4248840" lon="-3.9744750">
        <ele>642.9</ele>
        <time>2021-05-08T07:12:50Z</time>
      </trkpt>
      <trkpt lat="40.4249120" lon="-3.9745350">
        <ele>642.9</ele>
        <time>2021-05-08T07:12:51Z</time>
      </trkpt>
      <trkpt lat="40.4249390" lon="-3.9745940">
        <ele>643.0</ele>
        <time>2021-05-08T07:12:52Z</time>
      </trkpt>
      <trkpt lat="40.4249730" lon="-3.9746600">
        <ele>643.1</ele>
        <time>2021-05-08T07:12:54Z</time>
      </trkpt>
      <trkpt lat="40.4249970" lon="-3.9747090">
        <ele>643.1</ele>
        <time>2021-05-08T07:12:55Z</time>
      </trkpt>
      <trkpt lat="40.4250460" lon="-3.9747980">
        <ele>643.2</ele>
        <time>2021-05-08T07:12:57Z</time>
      </trkpt>
      <trkpt lat="40.4250730" lon="-3.9748450">
        <ele>643.2</ele>
        <time>2021-05-08T07:12:58Z</time>
      </trkpt>
      <trkpt lat="40.4251230" lon="-3.9749430">
        <ele>643.3</ele>
        <time>2021-05-08T07:13:00Z</time>
      </trkpt>
      <trkpt lat="40.4251640" lon="-3.9750360">
        <ele>643.4</ele>
        <time>2021-05-08T07:13:02Z</time>
      </trkpt>
      <trkpt lat="40.4251850" lon="-3.9750830">
        <ele>643.5</ele>
        <time>2021-05-08T07:13:03Z</time>
      </trkpt>
      <trkpt lat="40.4252180" lon="-3.9751470">
        <ele>643.6</ele>
        <time>2021-05-08T07:13:04Z</time>
      </trkpt>
      <trkpt lat="40.4252560" lon="-3.9752120">
        <ele>643.7</ele>
        <time>2021-05-08T07:13:06Z</time>
      </trkpt>
      <trkpt lat="40.4252740" lon="-3.9752700">
        <ele>643.6</ele>
        <time>2021-05-08T07:13:07Z</time>
      </trkpt>
      <trkpt lat="40.4252710" lon="-3.9753290">
        <ele>643.6</ele>
        <time>2021-05-08T07:13:08Z</time>
      </trkpt>
      <trkpt lat="40.4252590" lon="-3.9754000">
        <ele>643.6</ele>
        <time>2021-05-08T07:13:10Z</time>
      </trkpt>
      <trkpt lat="40.4252500" lon="-3.9754580">
        <ele>643.6</ele>
        <time>2021-05-08T07:13:11Z</time>
      </trkpt>
      <trkpt lat="40.4252390" lon="-3.9755620">
        <ele>643.6</ele>
        <time>2021-05-08T07:13:13Z</time>
      </trkpt>
      <trkpt lat="40.4252400" lon="-3.9756330">
        <ele>643.5</ele>
        <time>2021-05-08T07:13:14Z</time>
      </trkpt>
      <trkpt lat="40.4252440" lon="-3.9757160">
        <ele>643.5</ele>
        <time>2021-05-08T07:13:16Z</time>
      </trkpt>
      <trkpt lat="40.4252430" lon="-3.9757840">
        <ele>643.4</ele>
        <time>2021-05-08T07:13:17Z</time>
      </trkpt>
      <trkpt lat="40.4252390" lon="-3.9758410">
        <ele>643.4</ele>
        <time>2021-05-08T07:13:18Z</time>
      </trkpt>
      <trkpt lat="40.4252360" lon="-3.9758980">
        <ele>643.3</ele>
        <time>2021-05-08T07:13:19Z</time>
      </trkpt>
      <trkpt lat="40.4252370" lon="-3.9760070">
        <ele>643.2</ele>
        <time>2021-05-08T07:13:21Z</time>
      </trkpt>
      <trkpt lat="40.4252400" lon="-3.9760610">
        <ele>643.1</ele>
        <time>2021-05-08T07:13:22Z</time>
      </trkpt>
      <trkpt lat="40.4252430" lon="-3.9761610">
        <ele>643.0</ele>
        <time>2021-05-08T07:13:24Z</time>
      </trkpt>
      <trkpt lat="40.4252460" lon="-3.9762110">
        <ele>642.9</ele>
        <time>2021-05-08T07:13:25Z</time>
      </trkpt>
      <trkpt lat="40.4252500" lon="-3.9762800">
        <ele>642.8</ele>
        <time>2021-05-08T07:13:26Z</time>
      </trkpt>
      <trkpt lat="40.4252570" lon="-3.9763480">
        <ele>642.7</ele>
        <time>2021-05-08T07:13:28Z</time>
      </trkpt>
      <trkpt lat="40.4252640" lon="-3.9764080">
        <ele>642.6</ele>
        <time>2021-05-08T07:13:29Z</time>
      </trkpt>
      <trkpt lat="40.4252740" lon="-3.9764680">
        <ele>642.5</ele>
        <time>2021-05-08T07:13:30Z</time>
      </trkpt>
      <trkpt lat="40.4252870" lon="-3.9765220">
        <ele>642.4</ele>
        <time>2021-05-08T07:13:31Z</time>
      </trkpt>
      <trkpt lat="40.4253310" lon="-3.9766150">
        <ele>642.5</ele>
        <time>2021-05-08T07:13:33Z</time>
      </trkpt>
      <trkpt lat="40.4253830" lon="-3.9766610">
        <ele>642.6</ele>
        <time>2021-05-08T07:13:35Z</time>
      </trkpt>
      <trkpt lat="40.4254220" lon="-3.9766770">
        <ele>642.7</ele>
        <time>2021-05-08T07:13:36Z</time>
      </trkpt>
      <trkpt lat="40.4254750" lon="-3.9767020">
        <ele>642.8</ele>
        <time>2021-05-08T07:13:37Z</time>
      </trkpt>
      <trkpt lat="40.4255080" lon="-3.9767060">
        <ele>642.9</ele>
        <time>2021-05-08T07:13:38Z</time>
      </trkpt>
      <trkpt lat="40.4255370" lon="-3.9767070">
        <ele>642.9</ele>
        <time>2021-05-08T07:13:39Z</time>
      </trkpt>
      <trkpt lat="40.4255510" lon="-3.9767010">
        <ele>642.9</ele>
        <time>2021-05-08T07:13:41Z</time>
      </trkpt>
      <trkpt lat="40.4255470" lon="-3.9766990">
        <ele>643.0</ele>
        <time>2021-05-08T07:13:43Z</time>
      </trkpt>
      <trkpt lat="40.4255460" lon="-3.9766970">
        <ele>643.0</ele>
        <time>2021-05-08T07:13:44Z</time>
      </trkpt>
      <trkpt lat="40.4255450" lon="-3.9766960">
        <ele>643.0</ele>
        <time>2021-05-08T07:13:45Z</time>
      </trkpt>
      <trkpt lat="40.4255420" lon="-3.9766950">
        <ele>643.0</ele>
        <time>2021-05-08T07:13:47Z</time>
      </trkpt>
      <trkpt lat="40.4255380" lon="-3.9766950">
        <ele>643.0</ele>
        <time>2021-05-08T07:13:49Z</time>
      </trkpt>
      <trkpt lat="40.4255370" lon="-3.9766950">
        <ele>643.0</ele>
        <time>2021-05-08T07:13:50Z</time>
      </trkpt>
      <trkpt lat="40.4255350" lon="-3.9766950">
        <ele>643.0</ele>
        <time>2021-05-08T07:13:52Z</time>
      </trkpt>
      <trkpt lat="40.4255620" lon="-3.9767330">
        <ele>643.0</ele>
        <time>2021-05-08T07:18:49Z</time>
      </trkpt>
      <trkpt lat="40.4256050" lon="-3.9767680">
        <ele>643.1</ele>
        <time>2021-05-08T07:18:51Z</time>
      </trkpt>
      <trkpt lat="40.4256390" lon="-3.9767900">
        <ele>643.2</ele>
        <time>2021-05-08T07:18:52Z</time>
      </trkpt>
      <trkpt lat="40.4256510" lon="-3.9768000">
        <ele>643.2</ele>
        <time>2021-05-08T07:18:53Z</time>
      </trkpt>
      <trkpt lat="40.4256830" lon="-3.9768210">
        <ele>643.3</ele>
        <time>2021-05-08T07:18:55Z</time>
      </trkpt>
      <trkpt lat="40.4257290" lon="-3.9768540">
        <ele>643.3</ele>
        <time>2021-05-08T07:18:57Z</time>
      </trkpt>
      <trkpt lat="40.4257570" lon="-3.9768710">
        <ele>643.4</ele>
        <time>2021-05-08T07:18:58Z</time>
      </trkpt>
      <trkpt lat="40.4258160" lon="-3.9768990">
        <ele>643.4</ele>
        <time>2021-05-08T07:19:00Z</time>
      </trkpt>
      <trkpt lat="40.4258480" lon="-3.9769160">
        <ele>643.4</ele>
        <time>2021-05-08T07:19:01Z</time>
      </trkpt>
      <trkpt lat="40.4259130" lon="-3.9769530">
        <ele>643.4</ele>
        <time>2021-05-08T07:19:03Z</time>
      </trkpt>
      <trkpt lat="40.4259490" lon="-3.9769730">
        <ele>643.4</ele>
        <time>2021-05-08T07:19:04Z</time>
      </trkpt>
      <trkpt lat="40.4260220" lon="-3.9770040">
        <ele>643.3</ele>
        <time>2021-05-08T07:19:06Z</time>
      </trkpt>
      <trkpt lat="40.4260920" lon="-3.9770290">
        <ele>643.3</ele>
        <time>2021-05-08T07:19:08Z</time>
      </trkpt>
      <trkpt lat="40.4261700" lon="-3.9770650">
        <ele>643.2</ele>
        <time>2021-05-08T07:19:10Z</time>
      </trkpt>
      <trkpt lat="40.4262520" lon="-3.9770930">
        <ele>643.0</ele>
        <time>2021-05-08T07:19:11Z</time>
      </trkpt>
      <trkpt lat="40.4263690" lon="-3.9771370">
        <ele>642.8</ele>
        <time>2021-05-08T07:19:13Z</time>
      </trkpt>
      <trkpt lat="40.4264240" lon="-3.9771620">
        <ele>642.7</ele>
        <time>2021-05-08T07:19:14Z</time>
      </trkpt>
      <trkpt lat="40.4265300" lon="-3.9772170">
        <ele>642.4</ele>
        <time>2021-05-08T07:19:16Z</time>
      </trkpt>
      <trkpt lat="40.4265850" lon="-3.9772510">
        <ele>642.3</ele>
        <time>2021-05-08T07:19:17Z</time>
      </trkpt>
      <trkpt lat="40.4266380" lon="-3.9772830">
        <ele>642.3</ele>
        <time>2021-05-08T07:19:18Z</time>
      </trkpt>
      <trkpt lat="40.4266930" lon="-3.9773100">
        <ele>642.2</ele>
        <time>2021-05-08T07:19:19Z</time>
      </trkpt>
      <trkpt lat="40.4268000" lon="-3.9773640">
        <ele>642.1</ele>
        <time>2021-05-08T07:19:21Z</time>
      </trkpt>
      <trkpt lat="40.4268970" lon="-3.9774260">
        <ele>642.0</ele>
        <time>2021-05-08T07:19:23Z</time>
      </trkpt>
      <trkpt lat="40.4269480" lon="-3.9774520">
        <ele>642.0</ele>
        <time>2021-05-08T07:19:24Z</time>
      </trkpt>
      <trkpt lat="40.4270500" lon="-3.9774690">
        <ele>642.0</ele>
        <time>2021-05-08T07:19:26Z</time>
      </trkpt>
      <trkpt lat="40.4271510" lon="-3.9774990">
        <ele>642.1</ele>
        <time>2021-05-08T07:19:28Z</time>
      </trkpt>
      <trkpt lat="40.4272450" lon="-3.9775250">
        <ele>642.2</ele>
        <time>2021-05-08T07:19:30Z</time>
      </trkpt>
      <trkpt lat="40.4272890" lon="-3.9775370">
        <ele>642.2</ele>
        <time>2021-05-08T07:19:31Z</time>
      </trkpt>
      <trkpt lat="40.4273590" lon="-3.9775610">
        <ele>642.3</ele>
        <time>2021-05-08T07:19:33Z</time>
      </trkpt>
      <trkpt lat="40.4274420" lon="-3.9775860">
        <ele>642.5</ele>
        <time>2021-05-08T07:19:35Z</time>
      </trkpt>
      <trkpt lat="40.4274810" lon="-3.9775970">
        <ele>642.6</ele>
        <time>2021-05-08T07:19:36Z</time>
      </trkpt>
      <trkpt lat="40.4275160" lon="-3.9776210">
        <ele>642.7</ele>
        <time>2021-05-08T07:19:37Z</time>
      </trkpt>
      <trkpt lat="40.4275520" lon="-3.9776780">
        <ele>642.8</ele>
        <time>2021-05-08T07:19:38Z</time>
      </trkpt>
      <trkpt lat="40.4276380" lon="-3.9776700">
        <ele>643.0</ele>
        <time>2021-05-08T07:19:40Z</time>
      </trkpt>
      <trkpt lat="40.4276820" lon="-3.9776560">
        <ele>643.1</ele>
        <time>2021-05-08T07:19:41Z</time>
      </trkpt>
      <trkpt lat="40.4277060" lon="-3.9776970">
        <ele>643.2</ele>
        <time>2021-05-08T07:19:42Z</time>
      </trkpt>
      <trkpt lat="40.4277320" lon="-3.9777070">
        <ele>643.2</ele>
        <time>2021-05-08T07:19:43Z</time>
      </trkpt>
      <trkpt lat="40.4278430" lon="-3.9777230">
        <ele>643.5</ele>
        <time>2021-05-08T07:19:44Z</time>
      </trkpt>
      <trkpt lat="40.4278950" lon="-3.9777200">
        <ele>643.6</ele>
        <time>2021-05-08T07:19:46Z</time>
      </trkpt>
      <trkpt lat="40.4279510" lon="-3.9777240">
        <ele>643.7</ele>
        <time>2021-05-08T07:19:47Z</time>
      </trkpt>
      <trkpt lat="40.4280250" lon="-3.9777400">
        <ele>643.9</ele>
        <time>2021-05-08T07:19:49Z</time>
      </trkpt>
      <trkpt lat="40.4280720" lon="-3.9777510">
        <ele>644.0</ele>
        <time>2021-05-08T07:19:50Z</time>
      </trkpt>
      <trkpt lat="40.4281230" lon="-3.9777690">
        <ele>644.1</ele>
        <time>2021-05-08T07:19:51Z</time>
      </trkpt>
      <trkpt lat="40.4281690" lon="-3.9777810">
        <ele>644.2</ele>
        <time>2021-05-08T07:19:52Z</time>
      </trkpt>
      <trkpt lat="40.4282600" lon="-3.9778070">
        <ele>644.3</ele>
        <time>2021-05-08T07:19:54Z</time>
      </trkpt>
      <trkpt lat="40.4283020" lon="-3.9778160">
        <ele>644.4</ele>
        <time>2021-05-08T07:19:55Z</time>
      </trkpt>
      <trkpt lat="40.4283850" lon="-3.9778380">
        <ele>644.6</ele>
        <time>2021-05-08T07:19:57Z</time>
      </trkpt>
      <trkpt lat="40.4284670" lon="-3.9778590">
        <ele>644.7</ele>
        <time>2021-05-08T07:19:59Z</time>
      </trkpt>
      <trkpt lat="40.4285430" lon="-3.9778800">
        <ele>644.7</ele>
        <time>2021-05-08T07:20:01Z</time>
      </trkpt>
      <trkpt lat="40.4286000" lon="-3.9778850">
        <ele>644.7</ele>
        <time>2021-05-08T07:20:02Z</time>
      </trkpt>
      <trkpt lat="40.4286450" lon="-3.9778900">
        <ele>644.7</ele>
        <time>2021-05-08T07:20:03Z</time>
      </trkpt>
      <trkpt lat="40.4287050" lon="-3.9779000">
        <ele>644.7</ele>
        <time>2021-05-08T07:20:05Z</time>
      </trkpt>
      <trkpt lat="40.4287580" lon="-3.9779070">
        <ele>644.6</ele>
        <time>2021-05-08T07:20:06Z</time>
      </trkpt>
      <trkpt lat="40.4288080" lon="-3.9779220">
        <ele>644.5</ele>
        <time>2021-05-08T07:20:07Z</time>
      </trkpt>
      <trkpt lat="40.4289040" lon="-3.9779480">
        <ele>644.3</ele>
        <time>2021-05-08T07:20:09Z</time>
      </trkpt>
      <trkpt lat="40.4290040" lon="-3.9779730">
        <ele>644.1</ele>
        <time>2021-05-08T07:20:11Z</time>
      </trkpt>
      <trkpt lat="40.4290980" lon="-3.9779960">
        <ele>644.0</ele>
        <time>2021-05-08T07:20:13Z</time>
      </trkpt>
      <trkpt lat="40.4291720" lon="-3.9780030">
        <ele>643.8</ele>
        <time>2021-05-08T07:20:15Z</time>
      </trkpt>
      <trkpt lat="40.4292440" lon="-3.9779970">
        <ele>643.7</ele>
        <time>2021-05-08T07:20:16Z</time>
      </trkpt>
      <trkpt lat="40.4293060" lon="-3.9780010">
        <ele>643.6</ele>
        <time>2021-05-08T07:20:17Z</time>
      </trkpt>
      <trkpt lat="40.4294280" lon="-3.9779930">
        <ele>643.4</ele>
        <time>2021-05-08T07:20:19Z</time>
      </trkpt>
      <trkpt lat="40.4295340" lon="-3.9779800">
        <ele>643.2</ele>
        <time>2021-05-08T07:20:21Z</time>
      </trkpt>
      <trkpt lat="40.4295800" lon="-3.9779740">
        <ele>643.2</ele>
        <time>2021-05-08T07:20:22Z</time>
      </trkpt>
      <trkpt lat="40.4296250" lon="-3.9779680">
        <ele>643.1</ele>
        <time>2021-05-08T07:20:23Z</time>
      </trkpt>
      <trkpt lat="40.4297310" lon="-3.9779500">
        <ele>643.1</ele>
        <time>2021-05-08T07:20:25Z</time>
      </trkpt>
      <trkpt lat="40.4297860" lon="-3.9779440">
        <ele>643.0</ele>
        <time>2021-05-08T07:20:26Z</time>
      </trkpt>
      <trkpt lat="40.4298410" lon="-3.9779400">
        <ele>643.0</ele>
        <time>2021-05-08T07:20:27Z</time>
      </trkpt>
      <trkpt lat="40.4299460" lon="-3.9779350">
        <ele>643.0</ele>
        <time>2021-05-08T07:20:29Z</time>
      </trkpt>
      <trkpt lat="40.4300480" lon="-3.9779350">
        <ele>643.0</ele>
        <time>2021-05-08T07:20:31Z</time>
      </trkpt>
      <trkpt lat="40.4300980" lon="-3.9779470">
        <ele>643.0</ele>
        <time>2021-05-08T07:20:32Z</time>
      </trkpt>
      <trkpt lat="40.4302000" lon="-3.9779820">
        <ele>643.0</ele>
        <time>2021-05-08T07:20:34Z</time>
      </trkpt>
      <trkpt lat="40.4302940" lon="-3.9780280">
        <ele>643.0</ele>
        <time>2021-05-08T07:20:36Z</time>
      </trkpt>
      <trkpt lat="40.4303400" lon="-3.9780590">
        <ele>643.0</ele>
        <time>2021-05-08T07:20:37Z</time>
      </trkpt>
      <trkpt lat="40.4304280" lon="-3.9781180">
        <ele>643.1</ele>
        <time>2021-05-08T07:20:39Z</time>
      </trkpt>
      <trkpt lat="40.4304720" lon="-3.9781470">
        <ele>643.1</ele>
        <time>2021-05-08T07:20:40Z</time>
      </trkpt>
      <trkpt lat="40.4305150" lon="-3.9781820">
        <ele>643.2</ele>
        <time>2021-05-08T07:20:41Z</time>
      </trkpt>
      <trkpt lat="40.4305930" lon="-3.9782550">
        <ele>643.3</ele>
        <time>2021-05-08T07:20:43Z</time>
      </trkpt>
      <trkpt lat="40.4306230" lon="-3.9782830">
        <ele>643.4</ele>
        <time>2021-05-08T07:20:44Z</time>
      </trkpt>
      <trkpt lat="40.4306950" lon="-3.9783440">
        <ele>643.5</ele>
        <time>2021-05-08T07:20:46Z</time>
      </trkpt>
      <trkpt lat="40.4307590" lon="-3.9784120">
        <ele>643.8</ele>
        <time>2021-05-08T07:20:48Z</time>
      </trkpt>
      <trkpt lat="40.4307980" lon="-3.9784450">
        <ele>643.9</ele>
        <time>2021-05-08T07:20:49Z</time>
      </trkpt>
      <trkpt lat="40.4308160" lon="-3.9784030">
        <ele>644.0</ele>
        <time>2021-05-08T07:20:51Z</time>
      </trkpt>
      <trkpt lat="40.4309000" lon="-3.9784660">
        <ele>644.4</ele>
        <time>2021-05-08T07:20:53Z</time>
      </trkpt>
      <trkpt lat="40.4309420" lon="-3.9784990">
        <ele>644.6</ele>
        <time>2021-05-08T07:20:54Z</time>
      </trkpt>
      <trkpt lat="40.4309850" lon="-3.9785300">
        <ele>644.9</ele>
        <time>2021-05-08T07:20:55Z</time>
      </trkpt>
      <trkpt lat="40.4310220" lon="-3.9785500">
        <ele>645.1</ele>
        <time>2021-05-08T07:20:56Z</time>
      </trkpt>
      <trkpt lat="40.4310690" lon="-3.9785740">
        <ele>645.4</ele>
        <time>2021-05-08T07:20:57Z</time>
      </trkpt>
      <trkpt lat="40.4311100" lon="-3.9785960">
        <ele>645.6</ele>
        <time>2021-05-08T07:20:59Z</time>
      </trkpt>
      <trkpt lat="40.4311410" lon="-3.9786190">
        <ele>645.8</ele>
        <time>2021-05-08T07:21:00Z</time>
      </trkpt>
      <trkpt lat="40.4311700" lon="-3.9786380">
        <ele>646.0</ele>
        <time>2021-05-08T07:21:01Z</time>
      </trkpt>
      <trkpt lat="40.4312050" lon="-3.9786690">
        <ele>646.2</ele>
        <time>2021-05-08T07:21:02Z</time>
      </trkpt>
      <trkpt lat="40.4312440" lon="-3.9787040">
        <ele>646.5</ele>
        <time>2021-05-08T07:21:03Z</time>
      </trkpt>
      <trkpt lat="40.4312890" lon="-3.9787450">
        <ele>646.8</ele>
        <time>2021-05-08T07:21:05Z</time>
      </trkpt>
      <trkpt lat="40.4313260" lon="-3.9787750">
        <ele>647.1</ele>
        <time>2021-05-08T07:21:06Z</time>
      </trkpt>
      <trkpt lat="40.4313740" lon="-3.9788250">
        <ele>647.5</ele>
        <time>2021-05-08T07:21:07Z</time>
      </trkpt>
      <trkpt lat="40.4314110" lon="-3.9788620">
        <ele>647.7</ele>
        <time>2021-05-08T07:21:09Z</time>
      </trkpt>
      <trkpt lat="40.4314400" lon="-3.9788850">
        <ele>648.0</ele>
        <time>2021-05-08T07:21:10Z</time>
      </trkpt>
      <trkpt lat="40.4314660" lon="-3.9789020">
        <ele>648.1</ele>
        <time>2021-05-08T07:21:11Z</time>
      </trkpt>
      <trkpt lat="40.4315160" lon="-3.9789360">
        <ele>648.5</ele>
        <time>2021-05-08T07:21:13Z</time>
      </trkpt>
      <trkpt lat="40.4315440" lon="-3.9789520">
        <ele>648.7</ele>
        <time>2021-05-08T07:21:14Z</time>
      </trkpt>
      <trkpt lat="40.4316080" lon="-3.9789590">
        <ele>649.0</ele>
        <time>2021-05-08T07:21:16Z</time>
      </trkpt>
      <trkpt lat="40.4316510" lon="-3.9789560">
        <ele>649.3</ele>
        <time>2021-05-08T07:21:17Z</time>
      </trkpt>
      <trkpt lat="40.4316770" lon="-3.9789530">
        <ele>649.4</ele>
        <time>2021-05-08T07:21:18Z</time>
      </trkpt>
      <trkpt lat="40.4317370" lon="-3.9789430">
        <ele>649.7</ele>
        <time>2021-05-08T07:21:20Z</time>
      </trkpt>
      <trkpt lat="40.4317620" lon="-3.9789340">
        <ele>649.9</ele>
        <time>2021-05-08T07:21:21Z</time>
      </trkpt>
      <trkpt lat="40.4318120" lon="-3.9789110">
        <ele>650.2</ele>
        <time>2021-05-08T07:21:23Z</time>
      </trkpt>
      <trkpt lat="40.4318440" lon="-3.9788950">
        <ele>650.3</ele>
        <time>2021-05-08T07:21:24Z</time>
      </trkpt>
      <trkpt lat="40.4318940" lon="-3.9788780">
        <ele>650.5</ele>
        <time>2021-05-08T07:21:25Z</time>
      </trkpt>
      <trkpt lat="40.4319360" lon="-3.9788640">
        <ele>650.7</ele>
        <time>2021-05-08T07:21:27Z</time>
      </trkpt>
      <trkpt lat="40.4319810" lon="-3.9788430">
        <ele>650.9</ele>
        <time>2021-05-08T07:21:28Z</time>
      </trkpt>
      <trkpt lat="40.4320140" lon="-3.9788220">
        <ele>651.0</ele>
        <time>2021-05-08T07:21:29Z</time>
      </trkpt>
      <trkpt lat="40.4320490" lon="-3.9787970">
        <ele>651.2</ele>
        <time>2021-05-08T07:21:30Z</time>
      </trkpt>
      <trkpt lat="40.4320960" lon="-3.9787680">
        <ele>651.4</ele>
        <time>2021-05-08T07:21:32Z</time>
      </trkpt>
      <trkpt lat="40.4321400" lon="-3.9787440">
        <ele>651.6</ele>
        <time>2021-05-08T07:21:33Z</time>
      </trkpt>
      <trkpt lat="40.4321740" lon="-3.9787230">
        <ele>651.7</ele>
        <time>2021-05-08T07:21:34Z</time>
      </trkpt>
      <trkpt lat="40.4322060" lon="-3.9786980">
        <ele>651.8</ele>
        <time>2021-05-08T07:21:36Z</time>
      </trkpt>
      <trkpt lat="40.4322450" lon="-3.9786770">
        <ele>651.9</ele>
        <time>2021-05-08T07:21:37Z</time>
      </trkpt>
      <trkpt lat="40.4323130" lon="-3.9786460">
        <ele>652.1</ele>
        <time>2021-05-08T07:21:39Z</time>
      </trkpt>
      <trkpt lat="40.4323550" lon="-3.9786330">
        <ele>652.2</ele>
        <time>2021-05-08T07:21:40Z</time>
      </trkpt>
      <trkpt lat="40.4324040" lon="-3.9786250">
        <ele>652.2</ele>
        <time>2021-05-08T07:21:41Z</time>
      </trkpt>
      <trkpt lat="40.4324650" lon="-3.9786190">
        <ele>652.3</ele>
        <time>2021-05-08T07:21:43Z</time>
      </trkpt>
      <trkpt lat="40.4325200" lon="-3.9786210">
        <ele>652.3</ele>
        <time>2021-05-08T07:21:44Z</time>
      </trkpt>
      <trkpt lat="40.4326110" lon="-3.9786190">
        <ele>652.4</ele>
        <time>2021-05-08T07:21:46Z</time>
      </trkpt>
      <trkpt lat="40.4326640" lon="-3.9786260">
        <ele>652.4</ele>
        <time>2021-05-08T07:21:47Z</time>
      </trkpt>
      <trkpt lat="40.4327120" lon="-3.9786330">
        <ele>652.3</ele>
        <time>2021-05-08T07:21:48Z</time>
      </trkpt>
      <trkpt lat="40.4328080" lon="-3.9786480">
        <ele>652.3</ele>
        <time>2021-05-08T07:21:50Z</time>
      </trkpt>
      <trkpt lat="40.4329040" lon="-3.9786710">
        <ele>652.2</ele>
        <time>2021-05-08T07:21:52Z</time>
      </trkpt>
      <trkpt lat="40.4329490" lon="-3.9786820">
        <ele>652.1</ele>
        <time>2021-05-08T07:21:53Z</time>
      </trkpt>
      <trkpt lat="40.4330420" lon="-3.9787090">
        <ele>652.0</ele>
        <time>2021-05-08T07:21:55Z</time>
      </trkpt>
      <trkpt lat="40.4330790" lon="-3.9787310">
        <ele>652.0</ele>
        <time>2021-05-08T07:21:56Z</time>
      </trkpt>
      <trkpt lat="40.4331150" lon="-3.9787480">
        <ele>651.9</ele>
        <time>2021-05-08T07:21:57Z</time>
      </trkpt>
      <trkpt lat="40.4332160" lon="-3.9787660">
        <ele>651.8</ele>
        <time>2021-05-08T07:21:59Z</time>
      </trkpt>
      <trkpt lat="40.4333160" lon="-3.9788020">
        <ele>651.7</ele>
        <time>2021-05-08T07:22:01Z</time>
      </trkpt>
      <trkpt lat="40.4333640" lon="-3.9788220">
        <ele>651.6</ele>
        <time>2021-05-08T07:22:02Z</time>
      </trkpt>
      <trkpt lat="40.4334620" lon="-3.9788660">
        <ele>651.6</ele>
        <time>2021-05-08T07:22:04Z</time>
      </trkpt>
      <trkpt lat="40.4335110" lon="-3.9788840">
        <ele>651.5</ele>
        <time>2021-05-08T07:22:05Z</time>
      </trkpt>
      <trkpt lat="40.4335770" lon="-3.9789130">
        <ele>651.5</ele>
        <time>2021-05-08T07:22:07Z</time>
      </trkpt>
      <trkpt lat="40.4336450" lon="-3.9789270">
        <ele>651.5</ele>
        <time>2021-05-08T07:22:08Z</time>
      </trkpt>
      <trkpt lat="40.4337410" lon="-3.9789550">
        <ele>651.5</ele>
        <time>2021-05-08T07:22:10Z</time>
      </trkpt>
      <trkpt lat="40.4337860" lon="-3.9789740">
        <ele>651.5</ele>
        <time>2021-05-08T07:22:11Z</time>
      </trkpt>
      <trkpt lat="40.4338730" lon="-3.9790120">
        <ele>651.4</ele>
        <time>2021-05-08T07:22:13Z</time>
      </trkpt>
      <trkpt lat="40.4339620" lon="-3.9790440">
        <ele>651.2</ele>
        <time>2021-05-08T07:22:15Z</time>
      </trkpt>
      <trkpt lat="40.4340540" lon="-3.9790970">
        <ele>651.0</ele>
        <time>2021-05-08T07:22:17Z</time>
      </trkpt>
      <trkpt lat="40.4341260" lon="-3.9792080">
        <ele>650.9</ele>
        <time>2021-05-08T07:22:19Z</time>
      </trkpt>
      <trkpt lat="40.4341600" lon="-3.9793320">
        <ele>650.9</ele>
        <time>2021-05-08T07:22:21Z</time>
      </trkpt>
      <trkpt lat="40.4341740" lon="-3.9793980">
        <ele>650.9</ele>
        <time>2021-05-08T07:22:22Z</time>
      </trkpt>
      <trkpt lat="40.4341990" lon="-3.9795170">
        <ele>650.9</ele>
        <time>2021-05-08T07:22:24Z</time>
      </trkpt>
      <trkpt lat="40.4342260" lon="-3.9796390">
        <ele>650.8</ele>
        <time>2021-05-08T07:22:26Z</time>
      </trkpt>
      <trkpt lat="40.4342420" lon="-3.9797040">
        <ele>650.8</ele>
        <time>2021-05-08T07:22:27Z</time>
      </trkpt>
      <trkpt lat="40.4342620" lon="-3.9797770">
        <ele>650.8</ele>
        <time>2021-05-08T07:22:28Z</time>
      </trkpt>
      <trkpt lat="40.4342940" lon="-3.9799190">
        <ele>650.8</ele>
        <time>2021-05-08T07:22:30Z</time>
      </trkpt>
      <trkpt lat="40.4343270" lon="-3.9800520">
        <ele>650.8</ele>
        <time>2021-05-08T07:22:32Z</time>
      </trkpt>
      <trkpt lat="40.4343620" lon="-3.9801810">
        <ele>650.8</ele>
        <time>2021-05-08T07:22:34Z</time>
      </trkpt>
      <trkpt lat="40.4343990" lon="-3.9803060">
        <ele>650.8</ele>
        <time>2021-05-08T07:22:36Z</time>
      </trkpt>
      <trkpt lat="40.4344390" lon="-3.9804230">
        <ele>650.8</ele>
        <time>2021-05-08T07:22:38Z</time>
      </trkpt>
      <trkpt lat="40.4344630" lon="-3.9804780">
        <ele>650.8</ele>
        <time>2021-05-08T07:22:39Z</time>
      </trkpt>
      <trkpt lat="40.4345180" lon="-3.9805940">
        <ele>650.7</ele>
        <time>2021-05-08T07:22:41Z</time>
      </trkpt>
      <trkpt lat="40.4345750" lon="-3.9807130">
        <ele>650.5</ele>
        <time>2021-05-08T07:22:43Z</time>
      </trkpt>
      <trkpt lat="40.4345990" lon="-3.9807740">
        <ele>650.5</ele>
        <time>2021-05-08T07:22:44Z</time>
      </trkpt>
      <trkpt lat="40.4346410" lon="-3.9809020">
        <ele>650.3</ele>
        <time>2021-05-08T07:22:46Z</time>
      </trkpt>
      <trkpt lat="40.4346610" lon="-3.9809710">
        <ele>650.3</ele>
        <time>2021-05-08T07:22:47Z</time>
      </trkpt>
      <trkpt lat="40.4347000" lon="-3.9811070">
        <ele>650.1</ele>
        <time>2021-05-08T07:22:49Z</time>
      </trkpt>
      <trkpt lat="40.4347190" lon="-3.9811690">
        <ele>650.1</ele>
        <time>2021-05-08T07:22:50Z</time>
      </trkpt>
      <trkpt lat="40.4347580" lon="-3.9812820">
        <ele>650.0</ele>
        <time>2021-05-08T07:22:52Z</time>
      </trkpt>
      <trkpt lat="40.4348040" lon="-3.9813990">
        <ele>649.8</ele>
        <time>2021-05-08T07:22:54Z</time>
      </trkpt>
      <trkpt lat="40.4348590" lon="-3.9815300">
        <ele>649.7</ele>
        <time>2021-05-08T07:22:56Z</time>
      </trkpt>
      <trkpt lat="40.4349120" lon="-3.9816590">
        <ele>649.6</ele>
        <time>2021-05-08T07:22:58Z</time>
      </trkpt>
      <trkpt lat="40.4349410" lon="-3.9817170">
        <ele>649.5</ele>
        <time>2021-05-08T07:22:59Z</time>
      </trkpt>
      <trkpt lat="40.4350080" lon="-3.9818350">
        <ele>649.5</ele>
        <time>2021-05-08T07:23:01Z</time>
      </trkpt>
      <trkpt lat="40.4350410" lon="-3.9818860">
        <ele>649.5</ele>
        <time>2021-05-08T07:23:02Z</time>
      </trkpt>
      <trkpt lat="40.4351150" lon="-3.9819900">
        <ele>649.5</ele>
        <time>2021-05-08T07:23:04Z</time>
      </trkpt>
      <trkpt lat="40.4351940" lon="-3.9820860">
        <ele>649.6</ele>
        <time>2021-05-08T07:23:06Z</time>
      </trkpt>
      <trkpt lat="40.4352320" lon="-3.9821330">
        <ele>649.6</ele>
        <time>2021-05-08T07:23:07Z</time>
      </trkpt>
      <trkpt lat="40.4352690" lon="-3.9821790">
        <ele>649.7</ele>
        <time>2021-05-08T07:23:08Z</time>
      </trkpt>
      <trkpt lat="40.4353070" lon="-3.9822300">
        <ele>649.8</ele>
        <time>2021-05-08T07:23:09Z</time>
      </trkpt>
      <trkpt lat="40.4353720" lon="-3.9823270">
        <ele>650.0</ele>
        <time>2021-05-08T07:23:11Z</time>
      </trkpt>
      <trkpt lat="40.4354010" lon="-3.9823750">
        <ele>650.1</ele>
        <time>2021-05-08T07:23:12Z</time>
      </trkpt>
      <trkpt lat="40.4354580" lon="-3.9824710">
        <ele>650.3</ele>
        <time>2021-05-08T07:23:14Z</time>
      </trkpt>
      <trkpt lat="40.4354740" lon="-3.9825030">
        <ele>650.4</ele>
        <time>2021-05-08T07:23:15Z</time>
      </trkpt>
      <trkpt lat="40.4355250" lon="-3.9826130">
        <ele>650.6</ele>
        <time>2021-05-08T07:23:17Z</time>
      </trkpt>
      <trkpt lat="40.4355440" lon="-3.9826630">
        <ele>650.7</ele>
        <time>2021-05-08T07:23:18Z</time>
      </trkpt>
      <trkpt lat="40.4355620" lon="-3.9827180">
        <ele>650.8</ele>
        <time>2021-05-08T07:23:20Z</time>
      </trkpt>
      <trkpt lat="40.4355870" lon="-3.9827490">
        <ele>650.8</ele>
        <time>2021-05-08T07:23:21Z</time>
      </trkpt>
      <trkpt lat="40.4356010" lon="-3.9827590">
        <ele>650.9</ele>
        <time>2021-05-08T07:23:22Z</time>
      </trkpt>
      <trkpt lat="40.4356300" lon="-3.9828910">
        <ele>651.1</ele>
        <time>2021-05-08T07:23:24Z</time>
      </trkpt>
      <trkpt lat="40.4356430" lon="-3.9829690">
        <ele>651.3</ele>
        <time>2021-05-08T07:23:25Z</time>
      </trkpt>
      <trkpt lat="40.4356590" lon="-3.9830510">
        <ele>651.4</ele>
        <time>2021-05-08T07:23:27Z</time>
      </trkpt>
      <trkpt lat="40.4356840" lon="-3.9831510">
        <ele>651.6</ele>
        <time>2021-05-08T07:23:28Z</time>
      </trkpt>
      <trkpt lat="40.4357030" lon="-3.9832210">
        <ele>651.7</ele>
        <time>2021-05-08T07:23:29Z</time>
      </trkpt>
      <trkpt lat="40.4357400" lon="-3.9833320">
        <ele>651.9</ele>
        <time>2021-05-08T07:23:31Z</time>
      </trkpt>
      <trkpt lat="40.4357380" lon="-3.9833740">
        <ele>651.9</ele>
        <time>2021-05-08T07:23:32Z</time>
      </trkpt>
      <trkpt lat="40.4357570" lon="-3.9834710">
        <ele>652.0</ele>
        <time>2021-05-08T07:23:34Z</time>
      </trkpt>
      <trkpt lat="40.4358180" lon="-3.9835670">
        <ele>652.2</ele>
        <time>2021-05-08T07:23:36Z</time>
      </trkpt>
      <trkpt lat="40.4358580" lon="-3.9836360">
        <ele>652.3</ele>
        <time>2021-05-08T07:23:37Z</time>
      </trkpt>
      <trkpt lat="40.4358970" lon="-3.9837010">
        <ele>652.4</ele>
        <time>2021-05-08T07:23:39Z</time>
      </trkpt>
      <trkpt lat="40.4359290" lon="-3.9837630">
        <ele>652.5</ele>
        <time>2021-05-08T07:23:40Z</time>
      </trkpt>
      <trkpt lat="40.4359800" lon="-3.9838540">
        <ele>652.5</ele>
        <time>2021-05-08T07:23:42Z</time>
      </trkpt>
      <trkpt lat="40.4360070" lon="-3.9839030">
        <ele>652.6</ele>
        <time>2021-05-08T07:23:43Z</time>
      </trkpt>
      <trkpt lat="40.4360540" lon="-3.9839950">
        <ele>652.6</ele>
        <time>2021-05-08T07:23:45Z</time>
      </trkpt>
      <trkpt lat="40.4361000" lon="-3.9840870">
        <ele>652.6</ele>
        <time>2021-05-08T07:23:47Z</time>
      </trkpt>
      <trkpt lat="40.4361380" lon="-3.9841600">
        <ele>652.5</ele>
        <time>2021-05-08T07:23:48Z</time>
      </trkpt>
      <trkpt lat="40.4361740" lon="-3.9842330">
        <ele>652.4</ele>
        <time>2021-05-08T07:23:50Z</time>
      </trkpt>
      <trkpt lat="40.4361960" lon="-3.9842800">
        <ele>652.3</ele>
        <time>2021-05-08T07:23:51Z</time>
      </trkpt>
      <trkpt lat="40.4362460" lon="-3.9843900">
        <ele>652.1</ele>
        <time>2021-05-08T07:23:53Z</time>
      </trkpt>
      <trkpt lat="40.4362900" lon="-3.9844920">
        <ele>651.8</ele>
        <time>2021-05-08T07:23:55Z</time>
      </trkpt>
      <trkpt lat="40.4363410" lon="-3.9846000">
        <ele>651.5</ele>
        <time>2021-05-08T07:23:57Z</time>
      </trkpt>
      <trkpt lat="40.4363930" lon="-3.9847140">
        <ele>651.1</ele>
        <time>2021-05-08T07:23:59Z</time>
      </trkpt>
      <trkpt lat="40.4364490" lon="-3.9848470">
        <ele>650.6</ele>
        <time>2021-05-08T07:24:01Z</time>
      </trkpt>
      <trkpt lat="40.4364780" lon="-3.9849180">
        <ele>650.3</ele>
        <time>2021-05-08T07:24:02Z</time>
      </trkpt>
      <trkpt lat="40.4365430" lon="-3.9850600">
        <ele>649.8</ele>
        <time>2021-05-08T07:24:04Z</time>
      </trkpt>
      <trkpt lat="40.4366120" lon="-3.9852130">
        <ele>649.4</ele>
        <time>2021-05-08T07:24:06Z</time>
      </trkpt>
      <trkpt lat="40.4366460" lon="-3.9852930">
        <ele>649.2</ele>
        <time>2021-05-08T07:24:07Z</time>
      </trkpt>
      <trkpt lat="40.4366820" lon="-3.9853710">
        <ele>649.1</ele>
        <time>2021-05-08T07:24:08Z</time>
      </trkpt>
      <trkpt lat="40.4367540" lon="-3.9855190">
        <ele>649.1</ele>
        <time>2021-05-08T07:24:10Z</time>
      </trkpt>
      <trkpt lat="40.4368250" lon="-3.9856640">
        <ele>649.2</ele>
        <time>2021-05-08T07:24:12Z</time>
      </trkpt>
      <trkpt lat="40.4368510" lon="-3.9857260">
        <ele>649.3</ele>
        <time>2021-05-08T07:24:13Z</time>
      </trkpt>
      <trkpt lat="40.4368750" lon="-3.9857900">
        <ele>649.4</ele>
        <time>2021-05-08T07:24:14Z</time>
      </trkpt>
      <trkpt lat="40.4369150" lon="-3.9859220">
        <ele>649.6</ele>
        <time>2021-05-08T07:24:16Z</time>
      </trkpt>
      <trkpt lat="40.4369450" lon="-3.9860500">
        <ele>649.8</ele>
        <time>2021-05-08T07:24:18Z</time>
      </trkpt>
      <trkpt lat="40.4369650" lon="-3.9861750">
        <ele>649.9</ele>
        <time>2021-05-08T07:24:20Z</time>
      </trkpt>
      <trkpt lat="40.4369840" lon="-3.9862920">
        <ele>650.0</ele>
        <time>2021-05-08T07:24:22Z</time>
      </trkpt>
      <trkpt lat="40.4369980" lon="-3.9863870">
        <ele>649.9</ele>
        <time>2021-05-08T07:24:24Z</time>
      </trkpt>
      <trkpt lat="40.4370070" lon="-3.9864610">
        <ele>649.8</ele>
        <time>2021-05-08T07:24:25Z</time>
      </trkpt>
      <trkpt lat="40.4370140" lon="-3.9865300">
        <ele>649.7</ele>
        <time>2021-05-08T07:24:26Z</time>
      </trkpt>
      <trkpt lat="40.4370220" lon="-3.9865970">
        <ele>649.6</ele>
        <time>2021-05-08T07:24:27Z</time>
      </trkpt>
      <trkpt lat="40.4370380" lon="-3.9867330">
        <ele>649.2</ele>
        <time>2021-05-08T07:24:29Z</time>
      </trkpt>
      <trkpt lat="40.4370510" lon="-3.9868050">
        <ele>648.9</ele>
        <time>2021-05-08T07:24:30Z</time>
      </trkpt>
      <trkpt lat="40.4370770" lon="-3.9869530">
        <ele>648.3</ele>
        <time>2021-05-08T07:24:32Z</time>
      </trkpt>
      <trkpt lat="40.4371120" lon="-3.9871110">
        <ele>647.4</ele>
        <time>2021-05-08T07:24:34Z</time>
      </trkpt>
      <trkpt lat="40.4371330" lon="-3.9871950">
        <ele>646.9</ele>
        <time>2021-05-08T07:24:35Z</time>
      </trkpt>
      <trkpt lat="40.4371900" lon="-3.9873790">
        <ele>645.6</ele>
        <time>2021-05-08T07:24:37Z</time>
      </trkpt>
      <trkpt lat="40.4372890" lon="-3.9875720">
        <ele>644.0</ele>
        <time>2021-05-08T07:24:39Z</time>
      </trkpt>
      <trkpt lat="40.4373640" lon="-3.9876550">
        <ele>643.1</ele>
        <time>2021-05-08T07:24:40Z</time>
      </trkpt>
      <trkpt lat="40.4375530" lon="-3.9877700">
        <ele>641.7</ele>
        <time>2021-05-08T07:24:42Z</time>
      </trkpt>
      <trkpt lat="40.4376470" lon="-3.9878210">
        <ele>641.3</ele>
        <time>2021-05-08T07:24:43Z</time>
      </trkpt>
      <trkpt lat="40.4378240" lon="-3.9879340">
        <ele>641.0</ele>
        <time>2021-05-08T07:24:45Z</time>
      </trkpt>
      <trkpt lat="40.4379740" lon="-3.9880630">
        <ele>641.1</ele>
        <time>2021-05-08T07:24:47Z</time>
      </trkpt>
      <trkpt lat="40.4381020" lon="-3.9881970">
        <ele>641.4</ele>
        <time>2021-05-08T07:24:49Z</time>
      </trkpt>
      <trkpt lat="40.4381560" lon="-3.9882620">
        <ele>641.5</ele>
        <time>2021-05-08T07:24:50Z</time>
      </trkpt>
      <trkpt lat="40.4382490" lon="-3.9884140">
        <ele>641.7</ele>
        <time>2021-05-08T07:24:52Z</time>
      </trkpt>
      <trkpt lat="40.4383290" lon="-3.9885510">
        <ele>641.7</ele>
        <time>2021-05-08T07:24:54Z</time>
      </trkpt>
      <trkpt lat="40.4383920" lon="-3.9886840">
        <ele>641.6</ele>
        <time>2021-05-08T07:24:56Z</time>
      </trkpt>
      <trkpt lat="40.4384170" lon="-3.9887540">
        <ele>641.4</ele>
        <time>2021-05-08T07:24:57Z</time>
      </trkpt>
      <trkpt lat="40.4384640" lon="-3.9889030">
        <ele>640.7</ele>
        <time>2021-05-08T07:24:59Z</time>
      </trkpt>
      <trkpt lat="40.4384900" lon="-3.9889810">
        <ele>640.3</ele>
        <time>2021-05-08T07:25:00Z</time>
      </trkpt>
      <trkpt lat="40.4385490" lon="-3.9891520">
        <ele>639.1</ele>
        <time>2021-05-08T07:25:02Z</time>
      </trkpt>
      <trkpt lat="40.4385860" lon="-3.9892470">
        <ele>638.3</ele>
        <time>2021-05-08T07:25:03Z</time>
      </trkpt>
      <trkpt lat="40.4386270" lon="-3.9893460">
        <ele>637.6</ele>
        <time>2021-05-08T07:25:04Z</time>
      </trkpt>
      <trkpt lat="40.4386710" lon="-3.9894570">
        <ele>636.8</ele>
        <time>2021-05-08T07:25:05Z</time>
      </trkpt>
      <trkpt lat="40.4387700" lon="-3.9896900">
        <ele>635.7</ele>
        <time>2021-05-08T07:25:07Z</time>
      </trkpt>
      <trkpt lat="40.4388760" lon="-3.9899270">
        <ele>635.5</ele>
        <time>2021-05-08T07:25:09Z</time>
      </trkpt>
      <trkpt lat="40.4389620" lon="-3.9901430">
        <ele>636.1</ele>
        <time>2021-05-08T07:25:11Z</time>
      </trkpt>
      <trkpt lat="40.4390330" lon="-3.9903450">
        <ele>637.3</ele>
        <time>2021-05-08T07:25:13Z</time>
      </trkpt>
      <trkpt lat="40.4390610" lon="-3.9904270">
        <ele>637.9</ele>
        <time>2021-05-08T07:25:14Z</time>
      </trkpt>
      <trkpt lat="40.4391100" lon="-3.9905570">
        <ele>639.0</ele>
        <time>2021-05-08T07:25:16Z</time>
      </trkpt>
      <trkpt lat="40.4391310" lon="-3.9906130">
        <ele>639.5</ele>
        <time>2021-05-08T07:25:17Z</time>
      </trkpt>
      <trkpt lat="40.4391500" lon="-3.9906550">
        <ele>639.9</ele>
        <time>2021-05-08T07:25:18Z</time>
      </trkpt>
      <trkpt lat="40.4391860" lon="-3.9907350">
        <ele>640.9</ele>
        <time>2021-05-08T07:25:20Z</time>
      </trkpt>
      <trkpt lat="40.4392060" lon="-3.9907730">
        <ele>641.4</ele>
        <time>2021-05-08T07:25:21Z</time>
      </trkpt>
      <trkpt lat="40.4392320" lon="-3.9908100">
        <ele>642.0</ele>
        <time>2021-05-08T07:25:23Z</time>
      </trkpt>
      <trkpt lat="40.4392640" lon="-3.9908300">
        <ele>642.3</ele>
        <time>2021-05-08T07:25:24Z</time>
      </trkpt>
      <trkpt lat="40.4392960" lon="-3.9908410">
        <ele>642.3</ele>
        <time>2021-05-08T07:25:26Z</time>
      </trkpt>
      <trkpt lat="40.4393260" lon="-3.9908400">
        <ele>642.4</ele>
        <time>2021-05-08T07:25:27Z</time>
      </trkpt>
      <trkpt lat="40.4393780" lon="-3.9908270">
        <ele>642.4</ele>
        <time>2021-05-08T07:25:29Z</time>
      </trkpt>
      <trkpt lat="40.4394120" lon="-3.9908310">
        <ele>642.4</ele>
        <time>2021-05-08T07:25:30Z</time>
      </trkpt>
      <trkpt lat="40.4394760" lon="-3.9908420">
        <ele>642.5</ele>
        <time>2021-05-08T07:25:31Z</time>
      </trkpt>
      <trkpt lat="40.4395310" lon="-3.9908640">
        <ele>642.6</ele>
        <time>2021-05-08T07:25:33Z</time>
      </trkpt>
      <trkpt lat="40.4395640" lon="-3.9908890">
        <ele>642.7</ele>
        <time>2021-05-08T07:25:34Z</time>
      </trkpt>
      <trkpt lat="40.4396020" lon="-3.9909170">
        <ele>642.7</ele>
        <time>2021-05-08T07:25:35Z</time>
      </trkpt>
      <trkpt lat="40.4396580" lon="-3.9909410">
        <ele>642.8</ele>
        <time>2021-05-08T07:25:37Z</time>
      </trkpt>
      <trkpt lat="40.4397010" lon="-3.9909420">
        <ele>642.9</ele>
        <time>2021-05-08T07:25:38Z</time>
      </trkpt>
      <trkpt lat="40.4397430" lon="-3.9909280">
        <ele>643.0</ele>
        <time>2021-05-08T07:25:39Z</time>
      </trkpt>
      <trkpt lat="40.4397950" lon="-3.9909080">
        <ele>643.1</ele>
        <time>2021-05-08T07:25:40Z</time>
      </trkpt>
      <trkpt lat="40.4398580" lon="-3.9908760">
        <ele>643.2</ele>
        <time>2021-05-08T07:25:42Z</time>
      </trkpt>
      <trkpt lat="40.4398600" lon="-3.9908590">
        <ele>643.2</ele>
        <time>2021-05-08T07:25:43Z</time>
      </trkpt>
      <trkpt lat="40.4399510" lon="-3.9908040">
        <ele>643.5</ele>
        <time>2021-05-08T07:25:45Z</time>
      </trkpt>
      <trkpt lat="40.4400500" lon="-3.9907560">
        <ele>643.7</ele>
        <time>2021-05-08T07:25:47Z</time>
      </trkpt>
      <trkpt lat="40.4400940" lon="-3.9907340">
        <ele>643.8</ele>
        <time>2021-05-08T07:25:48Z</time>
      </trkpt>
      <trkpt lat="40.4401540" lon="-3.9907000">
        <ele>644.0</ele>
        <time>2021-05-08T07:25:49Z</time>
      </trkpt>
      <trkpt lat="40.4402090" lon="-3.9906710">
        <ele>644.1</ele>
        <time>2021-05-08T07:25:51Z</time>
      </trkpt>
      <trkpt lat="40.4402540" lon="-3.9906490">
        <ele>644.3</ele>
        <time>2021-05-08T07:25:52Z</time>
      </trkpt>
      <trkpt lat="40.4403080" lon="-3.9906160">
        <ele>644.4</ele>
        <time>2021-05-08T07:25:53Z</time>
      </trkpt>
      <trkpt lat="40.4403520" lon="-3.9905940">
        <ele>644.6</ele>
        <time>2021-05-08T07:25:54Z</time>
      </trkpt>
      <trkpt lat="40.4404030" lon="-3.9905670">
        <ele>644.7</ele>
        <time>2021-05-08T07:25:56Z</time>
      </trkpt>
      <trkpt lat="40.4404400" lon="-3.9905470">
        <ele>644.8</ele>
        <time>2021-05-08T07:25:57Z</time>
      </trkpt>
      <trkpt lat="40.4404800" lon="-3.9905290">
        <ele>645.0</ele>
        <time>2021-05-08T07:25:58Z</time>
      </trkpt>
      <trkpt lat="40.4405200" lon="-3.9905150">
        <ele>645.1</ele>
        <time>2021-05-08T07:25:59Z</time>
      </trkpt>
      <trkpt lat="40.4405800" lon="-3.9904870">
        <ele>645.3</ele>
        <time>2021-05-08T07:26:00Z</time>
      </trkpt>
      <trkpt lat="40.4406270" lon="-3.9904690">
        <ele>645.4</ele>
        <time>2021-05-08T07:26:02Z</time>
      </trkpt>
      <trkpt lat="40.4406690" lon="-3.9904520">
        <ele>645.5</ele>
        <time>2021-05-08T07:26:03Z</time>
      </trkpt>
      <trkpt lat="40.4407200" lon="-3.9904300">
        <ele>645.7</ele>
        <time>2021-05-08T07:26:04Z</time>
      </trkpt>
      <trkpt lat="40.4407620" lon="-3.9904120">
        <ele>645.8</ele>
        <time>2021-05-08T07:26:05Z</time>
      </trkpt>
      <trkpt lat="40.4408090" lon="-3.9903930">
        <ele>646.0</ele>
        <time>2021-05-08T07:26:07Z</time>
      </trkpt>
      <trkpt lat="40.4408550" lon="-3.9903730">
        <ele>646.1</ele>
        <time>2021-05-08T07:26:08Z</time>
      </trkpt>
      <trkpt lat="40.4409210" lon="-3.9903460">
        <ele>646.3</ele>
        <time>2021-05-08T07:26:09Z</time>
      </trkpt>
      <trkpt lat="40.4409620" lon="-3.9903300">
        <ele>646.4</ele>
        <time>2021-05-08T07:26:10Z</time>
      </trkpt>
      <trkpt lat="40.4410130" lon="-3.9903130">
        <ele>646.5</ele>
        <time>2021-05-08T07:26:12Z</time>
      </trkpt>
      <trkpt lat="40.4410780" lon="-3.9902880">
        <ele>646.6</ele>
        <time>2021-05-08T07:26:14Z</time>
      </trkpt>
      <trkpt lat="40.4411370" lon="-3.9902600">
        <ele>646.8</ele>
        <time>2021-05-08T07:26:15Z</time>
      </trkpt>
      <trkpt lat="40.4411720" lon="-3.9902510">
        <ele>646.9</ele>
        <time>2021-05-08T07:26:16Z</time>
      </trkpt>
      <trkpt lat="40.4412060" lon="-3.9902420">
        <ele>646.9</ele>
        <time>2021-05-08T07:26:17Z</time>
      </trkpt>
      <trkpt lat="40.4412680" lon="-3.9902200">
        <ele>647.0</ele>
        <time>2021-05-08T07:26:19Z</time>
      </trkpt>
      <trkpt lat="40.4413140" lon="-3.9902020">
        <ele>647.1</ele>
        <time>2021-05-08T07:26:20Z</time>
      </trkpt>
      <trkpt lat="40.4413620" lon="-3.9901890">
        <ele>647.2</ele>
        <time>2021-05-08T07:26:21Z</time>
      </trkpt>
      <trkpt lat="40.4414060" lon="-3.9901810">
        <ele>647.2</ele>
        <time>2021-05-08T07:26:22Z</time>
      </trkpt>
      <trkpt lat="40.4414570" lon="-3.9901670">
        <ele>647.3</ele>
        <time>2021-05-08T07:26:23Z</time>
      </trkpt>
      <trkpt lat="40.4415150" lon="-3.9901440">
        <ele>647.3</ele>
        <time>2021-05-08T07:26:25Z</time>
      </trkpt>
      <trkpt lat="40.4415780" lon="-3.9901280">
        <ele>647.4</ele>
        <time>2021-05-08T07:26:26Z</time>
      </trkpt>
      <trkpt lat="40.4416300" lon="-3.9901130">
        <ele>647.4</ele>
        <time>2021-05-08T07:26:27Z</time>
      </trkpt>
      <trkpt lat="40.4416930" lon="-3.9901020">
        <ele>647.4</ele>
        <time>2021-05-08T07:26:29Z</time>
      </trkpt>
      <trkpt lat="40.4417480" lon="-3.9900880">
        <ele>647.4</ele>
        <time>2021-05-08T07:26:30Z</time>
      </trkpt>
      <trkpt lat="40.4418070" lon="-3.9900740">
        <ele>647.4</ele>
        <time>2021-05-08T07:26:31Z</time>
      </trkpt>
      <trkpt lat="40.4418770" lon="-3.9900590">
        <ele>647.4</ele>
        <time>2021-05-08T07:26:33Z</time>
      </trkpt>
      <trkpt lat="40.4419790" lon="-3.9900390">
        <ele>647.4</ele>
        <time>2021-05-08T07:26:35Z</time>
      </trkpt>
      <trkpt lat="40.4420660" lon="-3.9900200">
        <ele>647.4</ele>
        <time>2021-05-08T07:26:37Z</time>
      </trkpt>
      <trkpt lat="40.4421140" lon="-3.9900130">
        <ele>647.4</ele>
        <time>2021-05-08T07:26:38Z</time>
      </trkpt>
      <trkpt lat="40.4422070" lon="-3.9900000">
        <ele>647.4</ele>
        <time>2021-05-08T07:26:40Z</time>
      </trkpt>
      <trkpt lat="40.4423020" lon="-3.9899860">
        <ele>647.3</ele>
        <time>2021-05-08T07:26:42Z</time>
      </trkpt>
      <trkpt lat="40.4423990" lon="-3.9899730">
        <ele>647.3</ele>
        <time>2021-05-08T07:26:44Z</time>
      </trkpt>
      <trkpt lat="40.4424470" lon="-3.9899650">
        <ele>647.3</ele>
        <time>2021-05-08T07:26:45Z</time>
      </trkpt>
      <trkpt lat="40.4425480" lon="-3.9899510">
        <ele>647.2</ele>
        <time>2021-05-08T07:26:47Z</time>
      </trkpt>
      <trkpt lat="40.4426480" lon="-3.9899350">
        <ele>647.1</ele>
        <time>2021-05-08T07:26:49Z</time>
      </trkpt>
      <trkpt lat="40.4427500" lon="-3.9899220">
        <ele>647.0</ele>
        <time>2021-05-08T07:26:51Z</time>
      </trkpt>
      <trkpt lat="40.4428000" lon="-3.9899170">
        <ele>647.0</ele>
        <time>2021-05-08T07:26:52Z</time>
      </trkpt>
      <trkpt lat="40.4428520" lon="-3.9899120">
        <ele>646.9</ele>
        <time>2021-05-08T07:26:53Z</time>
      </trkpt>
      <trkpt lat="40.4429190" lon="-3.9899060">
        <ele>646.9</ele>
        <time>2021-05-08T07:26:54Z</time>
      </trkpt>
      <trkpt lat="40.4430080" lon="-3.9898960">
        <ele>646.8</ele>
        <time>2021-05-08T07:26:56Z</time>
      </trkpt>
      <trkpt lat="40.4430600" lon="-3.9898900">
        <ele>646.7</ele>
        <time>2021-05-08T07:26:57Z</time>
      </trkpt>
      <trkpt lat="40.4431610" lon="-3.9898730">
        <ele>646.7</ele>
        <time>2021-05-08T07:26:59Z</time>
      </trkpt>
      <trkpt lat="40.4432630" lon="-3.9898620">
        <ele>646.6</ele>
        <time>2021-05-08T07:27:01Z</time>
      </trkpt>
      <trkpt lat="40.4433650" lon="-3.9898470">
        <ele>646.6</ele>
        <time>2021-05-08T07:27:03Z</time>
      </trkpt>
      <trkpt lat="40.4434690" lon="-3.9898250">
        <ele>646.5</ele>
        <time>2021-05-08T07:27:05Z</time>
      </trkpt>
      <trkpt lat="40.4435720" lon="-3.9898070">
        <ele>646.4</ele>
        <time>2021-05-08T07:27:07Z</time>
      </trkpt>
      <trkpt lat="40.4436220" lon="-3.9897980">
        <ele>646.4</ele>
        <time>2021-05-08T07:27:08Z</time>
      </trkpt>
      <trkpt lat="40.4437250" lon="-3.9897820">
        <ele>646.4</ele>
        <time>2021-05-08T07:27:10Z</time>
      </trkpt>
      <trkpt lat="40.4438280" lon="-3.9897630">
        <ele>646.3</ele>
        <time>2021-05-08T07:27:12Z</time>
      </trkpt>
      <trkpt lat="40.4438820" lon="-3.9897550">
        <ele>646.3</ele>
        <time>2021-05-08T07:27:13Z</time>
      </trkpt>
      <trkpt lat="40.4439350" lon="-3.9897470">
        <ele>646.3</ele>
        <time>2021-05-08T07:27:14Z</time>
      </trkpt>
      <trkpt lat="40.4440370" lon="-3.9897350">
        <ele>646.2</ele>
        <time>2021-05-08T07:27:16Z</time>
      </trkpt>
      <trkpt lat="40.4440900" lon="-3.9897280">
        <ele>646.2</ele>
        <time>2021-05-08T07:27:17Z</time>
      </trkpt>
      <trkpt lat="40.4441430" lon="-3.9897220">
        <ele>646.2</ele>
        <time>2021-05-08T07:27:18Z</time>
      </trkpt>
      <trkpt lat="40.4441950" lon="-3.9897140">
        <ele>646.1</ele>
        <time>2021-05-08T07:27:19Z</time>
      </trkpt>
      <trkpt lat="40.4442980" lon="-3.9896950">
        <ele>646.1</ele>
        <time>2021-05-08T07:27:21Z</time>
      </trkpt>
      <trkpt lat="40.4443490" lon="-3.9896880">
        <ele>646.0</ele>
        <time>2021-05-08T07:27:22Z</time>
      </trkpt>
      <trkpt lat="40.4444550" lon="-3.9896740">
        <ele>646.0</ele>
        <time>2021-05-08T07:27:24Z</time>
      </trkpt>
      <trkpt lat="40.4445600" lon="-3.9896610">
        <ele>646.0</ele>
        <time>2021-05-08T07:27:26Z</time>
      </trkpt>
      <trkpt lat="40.4446140" lon="-3.9896570">
        <ele>645.9</ele>
        <time>2021-05-08T07:27:27Z</time>
      </trkpt>
      <trkpt lat="40.4446680" lon="-3.9896510">
        <ele>645.9</ele>
        <time>2021-05-08T07:27:28Z</time>
      </trkpt>
      <trkpt lat="40.4447220" lon="-3.9896470">
        <ele>645.8</ele>
        <time>2021-05-08T07:27:29Z</time>
      </trkpt>
      <trkpt lat="40.4447790" lon="-3.9896400">
        <ele>645.8</ele>
        <time>2021-05-08T07:27:30Z</time>
      </trkpt>
      <trkpt lat="40.4448350" lon="-3.9896280">
        <ele>645.7</ele>
        <time>2021-05-08T07:27:31Z</time>
      </trkpt>
      <trkpt lat="40.4449480" lon="-3.9896120">
        <ele>645.5</ele>
        <time>2021-05-08T07:27:33Z</time>
      </trkpt>
      <trkpt lat="40.4450030" lon="-3.9896060">
        <ele>645.4</ele>
        <time>2021-05-08T07:27:34Z</time>
      </trkpt>
      <trkpt lat="40.4451160" lon="-3.9895910">
        <ele>645.2</ele>
        <time>2021-05-08T07:27:36Z</time>
      </trkpt>
      <trkpt lat="40.4452350" lon="-3.9895810">
        <ele>644.9</ele>
        <time>2021-05-08T07:27:38Z</time>
      </trkpt>
      <trkpt lat="40.4453510" lon="-3.9895700">
        <ele>644.7</ele>
        <time>2021-05-08T07:27:40Z</time>
      </trkpt>
      <trkpt lat="40.4454110" lon="-3.9895630">
        <ele>644.5</ele>
        <time>2021-05-08T07:27:41Z</time>
      </trkpt>
      <trkpt lat="40.4455330" lon="-3.9895520">
        <ele>644.3</ele>
        <time>2021-05-08T07:27:43Z</time>
      </trkpt>
      <trkpt lat="40.4456590" lon="-3.9895410">
        <ele>644.0</ele>
        <time>2021-05-08T07:27:45Z</time>
      </trkpt>
      <trkpt lat="40.4457870" lon="-3.9895320">
        <ele>643.7</ele>
        <time>2021-05-08T07:27:47Z</time>
      </trkpt>
      <trkpt lat="40.4459100" lon="-3.9895270">
        <ele>643.4</ele>
        <time>2021-05-08T07:27:49Z</time>
      </trkpt>
      <trkpt lat="40.4459730" lon="-3.9895250">
        <ele>643.3</ele>
        <time>2021-05-08T07:27:50Z</time>
      </trkpt>
      <trkpt lat="40.4460960" lon="-3.9895200">
        <ele>643.1</ele>
        <time>2021-05-08T07:27:52Z</time>
      </trkpt>
      <trkpt lat="40.4462190" lon="-3.9895150">
        <ele>642.8</ele>
        <time>2021-05-08T07:27:54Z</time>
      </trkpt>
      <trkpt lat="40.4462750" lon="-3.9895130">
        <ele>642.7</ele>
        <time>2021-05-08T07:27:55Z</time>
      </trkpt>
      <trkpt lat="40.4463400" lon="-3.9895110">
        <ele>642.6</ele>
        <time>2021-05-08T07:27:56Z</time>
      </trkpt>
      <trkpt lat="40.4464640" lon="-3.9895120">
        <ele>642.3</ele>
        <time>2021-05-08T07:27:58Z</time>
      </trkpt>
      <trkpt lat="40.4465260" lon="-3.9895120">
        <ele>642.2</ele>
        <time>2021-05-08T07:27:59Z</time>
      </trkpt>
      <trkpt lat="40.4465880" lon="-3.9895110">
        <ele>642.1</ele>
        <time>2021-05-08T07:28:00Z</time>
      </trkpt>
      <trkpt lat="40.4467140" lon="-3.9895100">
        <ele>641.9</ele>
        <time>2021-05-08T07:28:02Z</time>
      </trkpt>
      <trkpt lat="40.4468410" lon="-3.9895020">
        <ele>641.6</ele>
        <time>2021-05-08T07:28:04Z</time>
      </trkpt>
      <trkpt lat="40.4469630" lon="-3.9894710">
        <ele>641.5</ele>
        <time>2021-05-08T07:28:06Z</time>
      </trkpt>
      <trkpt lat="40.4470170" lon="-3.9894450">
        <ele>641.4</ele>
        <time>2021-05-08T07:28:07Z</time>
      </trkpt>
      <trkpt lat="40.4471150" lon="-3.9893690">
        <ele>641.3</ele>
        <time>2021-05-08T07:28:09Z</time>
      </trkpt>
      <trkpt lat="40.4471630" lon="-3.9893310">
        <ele>641.3</ele>
        <time>2021-05-08T07:28:10Z</time>
      </trkpt>
      <trkpt lat="40.4472670" lon="-3.9892780">
        <ele>641.3</ele>
        <time>2021-05-08T07:28:12Z</time>
      </trkpt>
      <trkpt lat="40.4473220" lon="-3.9892760">
        <ele>641.3</ele>
        <time>2021-05-08T07:28:13Z</time>
      </trkpt>
      <trkpt lat="40.4473950" lon="-3.9892990">
        <ele>641.3</ele>
        <time>2021-05-08T07:28:14Z</time>
      </trkpt>
      <trkpt lat="40.4474800" lon="-3.9893480">
        <ele>641.3</ele>
        <time>2021-05-08T07:28:16Z</time>
      </trkpt>
      <trkpt lat="40.4475270" lon="-3.9893790">
        <ele>641.3</ele>
        <time>2021-05-08T07:28:17Z</time>
      </trkpt>
      <trkpt lat="40.4476140" lon="-3.9894560">
        <ele>641.3</ele>
        <time>2021-05-08T07:28:19Z</time>
      </trkpt>
      <trkpt lat="40.4477100" lon="-3.9895270">
        <ele>641.3</ele>
        <time>2021-05-08T07:28:21Z</time>
      </trkpt>
      <trkpt lat="40.4478190" lon="-3.9895730">
        <ele>641.2</ele>
        <time>2021-05-08T07:28:23Z</time>
      </trkpt>
      <trkpt lat="40.4478740" lon="-3.9895870">
        <ele>641.2</ele>
        <time>2021-05-08T07:28:24Z</time>
      </trkpt>
      <trkpt lat="40.4479300" lon="-3.9895940">
        <ele>641.2</ele>
        <time>2021-05-08T07:28:25Z</time>
      </trkpt>
      <trkpt lat="40.4480480" lon="-3.9896010">
        <ele>641.2</ele>
        <time>2021-05-08T07:28:27Z</time>
      </trkpt>
      <trkpt lat="40.4481620" lon="-3.9896160">
        <ele>641.2</ele>
        <time>2021-05-08T07:28:29Z</time>
      </trkpt>
      <trkpt lat="40.4482200" lon="-3.9896280">
        <ele>641.2</ele>
        <time>2021-05-08T07:28:30Z</time>
      </trkpt>
      <trkpt lat="40.4483290" lon="-3.9896490">
        <ele>641.3</ele>
        <time>2021-05-08T07:28:32Z</time>
      </trkpt>
      <trkpt lat="40.4484390" lon="-3.9896690">
        <ele>641.5</ele>
        <time>2021-05-08T07:28:34Z</time>
      </trkpt>
      <trkpt lat="40.4484880" lon="-3.9896790">
        <ele>641.5</ele>
        <time>2021-05-08T07:28:35Z</time>
      </trkpt>
      <trkpt lat="40.4485970" lon="-3.9896990">
        <ele>641.7</ele>
        <time>2021-05-08T07:28:37Z</time>
      </trkpt>
      <trkpt lat="40.4486460" lon="-3.9897090">
        <ele>641.7</ele>
        <time>2021-05-08T07:28:38Z</time>
      </trkpt>
      <trkpt lat="40.4486970" lon="-3.9897210">
        <ele>641.8</ele>
        <time>2021-05-08T07:28:39Z</time>
      </trkpt>
      <trkpt lat="40.4487950" lon="-3.9897440">
        <ele>642.0</ele>
        <time>2021-05-08T07:28:41Z</time>
      </trkpt>
      <trkpt lat="40.4488420" lon="-3.9897530">
        <ele>642.0</ele>
        <time>2021-05-08T07:28:42Z</time>
      </trkpt>
      <trkpt lat="40.4489350" lon="-3.9897710">
        <ele>642.3</ele>
        <time>2021-05-08T07:28:44Z</time>
      </trkpt>
      <trkpt lat="40.4490240" lon="-3.9897860">
        <ele>642.5</ele>
        <time>2021-05-08T07:28:46Z</time>
      </trkpt>
      <trkpt lat="40.4490680" lon="-3.9897960">
        <ele>642.6</ele>
        <time>2021-05-08T07:28:47Z</time>
      </trkpt>
      <trkpt lat="40.4490970" lon="-3.9898040">
        <ele>642.7</ele>
        <time>2021-05-08T07:28:48Z</time>
      </trkpt>
      <trkpt lat="40.4491330" lon="-3.9898140">
        <ele>642.7</ele>
        <time>2021-05-08T07:28:49Z</time>
      </trkpt>
      <trkpt lat="40.4492240" lon="-3.9898360">
        <ele>643.0</ele>
        <time>2021-05-08T07:28:51Z</time>
      </trkpt>
      <trkpt lat="40.4492880" lon="-3.9898460">
        <ele>643.1</ele>
        <time>2021-05-08T07:28:53Z</time>
      </trkpt>
      <trkpt lat="40.4493160" lon="-3.9898460">
        <ele>643.2</ele>
        <time>2021-05-08T07:28:54Z</time>
      </trkpt>
      <trkpt lat="40.4493730" lon="-3.9898280">
        <ele>643.4</ele>
        <time>2021-05-08T07:28:55Z</time>
      </trkpt>
      <trkpt lat="40.4494300" lon="-3.9898440">
        <ele>643.5</ele>
        <time>2021-05-08T07:28:57Z</time>
      </trkpt>
      <trkpt lat="40.4494840" lon="-3.9898650">
        <ele>643.7</ele>
        <time>2021-05-08T07:28:58Z</time>
      </trkpt>
      <trkpt lat="40.4495400" lon="-3.9898770">
        <ele>643.8</ele>
        <time>2021-05-08T07:28:59Z</time>
      </trkpt>
      <trkpt lat="40.4495840" lon="-3.9898840">
        <ele>644.0</ele>
        <time>2021-05-08T07:29:00Z</time>
      </trkpt>
      <trkpt lat="40.4496540" lon="-3.9898950">
        <ele>644.2</ele>
        <time>2021-05-08T07:29:02Z</time>
      </trkpt>
      <trkpt lat="40.4496830" lon="-3.9898960">
        <ele>644.2</ele>
        <time>2021-05-08T07:29:03Z</time>
      </trkpt>
      <trkpt lat="40.4497030" lon="-3.9898930">
        <ele>644.3</ele>
        <time>2021-05-08T07:29:04Z</time>
      </trkpt>
      <trkpt lat="40.4497350" lon="-3.9898990">
        <ele>644.4</ele>
        <time>2021-05-08T07:29:06Z</time>
      </trkpt>
      <trkpt lat="40.4497620" lon="-3.9898890">
        <ele>644.5</ele>
        <time>2021-05-08T07:29:07Z</time>
      </trkpt>
      <trkpt lat="40.4498160" lon="-3.9898490">
        <ele>644.7</ele>
        <time>2021-05-08T07:29:09Z</time>
      </trkpt>
      <trkpt lat="40.4498880" lon="-3.9897890">
        <ele>644.9</ele>
        <time>2021-05-08T07:29:11Z</time>
      </trkpt>
      <trkpt lat="40.4499340" lon="-3.9897710">
        <ele>645.0</ele>
        <time>2021-05-08T07:29:12Z</time>
      </trkpt>
      <trkpt lat="40.4499810" lon="-3.9897700">
        <ele>645.1</ele>
        <time>2021-05-08T07:29:13Z</time>
      </trkpt>
      <trkpt lat="40.4500300" lon="-3.9897770">
        <ele>645.2</ele>
        <time>2021-05-08T07:29:14Z</time>
      </trkpt>
      <trkpt lat="40.4500790" lon="-3.9897890">
        <ele>645.3</ele>
        <time>2021-05-08T07:29:15Z</time>
      </trkpt>
      <trkpt lat="40.4501510" lon="-3.9898200">
        <ele>645.4</ele>
        <time>2021-05-08T07:29:17Z</time>
      </trkpt>
      <trkpt lat="40.4502180" lon="-3.9898960">
        <ele>645.5</ele>
        <time>2021-05-08T07:29:19Z</time>
      </trkpt>
      <trkpt lat="40.4502700" lon="-3.9899950">
        <ele>645.6</ele>
        <time>2021-05-08T07:29:21Z</time>
      </trkpt>
      <trkpt lat="40.4503320" lon="-3.9900920">
        <ele>645.6</ele>
        <time>2021-05-08T07:29:23Z</time>
      </trkpt>
      <trkpt lat="40.4503720" lon="-3.9901290">
        <ele>645.6</ele>
        <time>2021-05-08T07:29:24Z</time>
      </trkpt>
      <trkpt lat="40.4504140" lon="-3.9901640">
        <ele>645.6</ele>
        <time>2021-05-08T07:29:25Z</time>
      </trkpt>
      <trkpt lat="40.4505120" lon="-3.9902140">
        <ele>645.5</ele>
        <time>2021-05-08T07:29:27Z</time>
      </trkpt>
      <trkpt lat="40.4506170" lon="-3.9902360">
        <ele>645.4</ele>
        <time>2021-05-08T07:29:29Z</time>
      </trkpt>
      <trkpt lat="40.4507160" lon="-3.9902670">
        <ele>645.3</ele>
        <time>2021-05-08T07:29:31Z</time>
      </trkpt>
      <trkpt lat="40.4508240" lon="-3.9903020">
        <ele>645.1</ele>
        <time>2021-05-08T07:29:33Z</time>
      </trkpt>
      <trkpt lat="40.4508820" lon="-3.9903190">
        <ele>645.1</ele>
        <time>2021-05-08T07:29:34Z</time>
      </trkpt>
      <trkpt lat="40.4510010" lon="-3.9903540">
        <ele>644.8</ele>
        <time>2021-05-08T07:29:36Z</time>
      </trkpt>
      <trkpt lat="40.4511110" lon="-3.9903870">
        <ele>644.6</ele>
        <time>2021-05-08T07:29:38Z</time>
      </trkpt>
      <trkpt lat="40.4512310" lon="-3.9904190">
        <ele>644.3</ele>
        <time>2021-05-08T07:29:40Z</time>
      </trkpt>
      <trkpt lat="40.4513530" lon="-3.9904590">
        <ele>644.0</ele>
        <time>2021-05-08T07:29:42Z</time>
      </trkpt>
      <trkpt lat="40.4514720" lon="-3.9905000">
        <ele>643.7</ele>
        <time>2021-05-08T07:29:44Z</time>
      </trkpt>
      <trkpt lat="40.4515330" lon="-3.9905180">
        <ele>643.6</ele>
        <time>2021-05-08T07:29:45Z</time>
      </trkpt>
      <trkpt lat="40.4516490" lon="-3.9905540">
        <ele>643.3</ele>
        <time>2021-05-08T07:29:47Z</time>
      </trkpt>
      <trkpt lat="40.4517080" lon="-3.9905760">
        <ele>643.2</ele>
        <time>2021-05-08T07:29:48Z</time>
      </trkpt>
      <trkpt lat="40.4518390" lon="-3.9906200">
        <ele>642.9</ele>
        <time>2021-05-08T07:29:50Z</time>
      </trkpt>
      <trkpt lat="40.4518870" lon="-3.9906320">
        <ele>642.8</ele>
        <time>2021-05-08T07:29:51Z</time>
      </trkpt>
      <trkpt lat="40.4519430" lon="-3.9906470">
        <ele>642.7</ele>
        <time>2021-05-08T07:29:52Z</time>
      </trkpt>
      <trkpt lat="40.4520640" lon="-3.9906760">
        <ele>642.5</ele>
        <time>2021-05-08T07:29:54Z</time>
      </trkpt>
      <trkpt lat="40.4521220" lon="-3.9906880">
        <ele>642.4</ele>
        <time>2021-05-08T07:29:55Z</time>
      </trkpt>
      <trkpt lat="40.4521790" lon="-3.9907040">
        <ele>642.3</ele>
        <time>2021-05-08T07:29:56Z</time>
      </trkpt>
      <trkpt lat="40.4522950" lon="-3.9907360">
        <ele>642.1</ele>
        <time>2021-05-08T07:29:58Z</time>
      </trkpt>
      <trkpt lat="40.4524080" lon="-3.9907730">
        <ele>641.9</ele>
        <time>2021-05-08T07:30:00Z</time>
      </trkpt>
      <trkpt lat="40.4525260" lon="-3.9908140">
        <ele>641.7</ele>
        <time>2021-05-08T07:30:02Z</time>
      </trkpt>
      <trkpt lat="40.4525830" lon="-3.9908330">
        <ele>641.6</ele>
        <time>2021-05-08T07:30:03Z</time>
      </trkpt>
      <trkpt lat="40.4526940" lon="-3.9908720">
        <ele>641.3</ele>
        <time>2021-05-08T07:30:05Z</time>
      </trkpt>
      <trkpt lat="40.4528020" lon="-3.9909110">
        <ele>641.1</ele>
        <time>2021-05-08T07:30:07Z</time>
      </trkpt>
      <trkpt lat="40.4528570" lon="-3.9909300">
        <ele>641.0</ele>
        <time>2021-05-08T07:30:08Z</time>
      </trkpt>
      <trkpt lat="40.4529760" lon="-3.9909770">
        <ele>640.7</ele>
        <time>2021-05-08T07:30:10Z</time>
      </trkpt>
      <trkpt lat="40.4530760" lon="-3.9910100">
        <ele>640.5</ele>
        <time>2021-05-08T07:30:12Z</time>
      </trkpt>
      <trkpt lat="40.4531900" lon="-3.9910600">
        <ele>640.2</ele>
        <time>2021-05-08T07:30:14Z</time>
      </trkpt>
      <trkpt lat="40.4532500" lon="-3.9910870">
        <ele>640.1</ele>
        <time>2021-05-08T07:30:15Z</time>
      </trkpt>
      <trkpt lat="40.4533100" lon="-3.9911130">
        <ele>640.0</ele>
        <time>2021-05-08T07:30:16Z</time>
      </trkpt>
      <trkpt lat="40.4533700" lon="-3.9911400">
        <ele>639.8</ele>
        <time>2021-05-08T07:30:17Z</time>
      </trkpt>
      <trkpt lat="40.4534310" lon="-3.9911660">
        <ele>639.7</ele>
        <time>2021-05-08T07:30:18Z</time>
      </trkpt>
      <trkpt lat="40.4535520" lon="-3.9912150">
        <ele>639.5</ele>
        <time>2021-05-08T07:30:20Z</time>
      </trkpt>
      <trkpt lat="40.4536700" lon="-3.9912660">
        <ele>639.4</ele>
        <time>2021-05-08T07:30:22Z</time>
      </trkpt>
      <trkpt lat="40.4537240" lon="-3.9912900">
        <ele>639.3</ele>
        <time>2021-05-08T07:30:23Z</time>
      </trkpt>
      <trkpt lat="40.4537760" lon="-3.9913150">
        <ele>639.3</ele>
        <time>2021-05-08T07:30:24Z</time>
      </trkpt>
      <trkpt lat="40.4538290" lon="-3.9913420">
        <ele>639.2</ele>
        <time>2021-05-08T07:30:25Z</time>
      </trkpt>
      <trkpt lat="40.4538850" lon="-3.9913700">
        <ele>639.2</ele>
        <time>2021-05-08T07:30:26Z</time>
      </trkpt>
      <trkpt lat="40.4539950" lon="-3.9914330">
        <ele>639.1</ele>
        <time>2021-05-08T07:30:28Z</time>
      </trkpt>
      <trkpt lat="40.4541150" lon="-3.9914910">
        <ele>639.0</ele>
        <time>2021-05-08T07:30:30Z</time>
      </trkpt>
      <trkpt lat="40.4541630" lon="-3.9915140">
        <ele>639.0</ele>
        <time>2021-05-08T07:30:31Z</time>
      </trkpt>
      <trkpt lat="40.4542770" lon="-3.9915760">
        <ele>638.9</ele>
        <time>2021-05-08T07:30:33Z</time>
      </trkpt>
      <trkpt lat="40.4543880" lon="-3.9916380">
        <ele>638.9</ele>
        <time>2021-05-08T07:30:35Z</time>
      </trkpt>
      <trkpt lat="40.4544460" lon="-3.9916680">
        <ele>638.9</ele>
        <time>2021-05-08T07:30:36Z</time>
      </trkpt>
      <trkpt lat="40.4545620" lon="-3.9917350">
        <ele>638.9</ele>
        <time>2021-05-08T07:30:38Z</time>
      </trkpt>
      <trkpt lat="40.4546690" lon="-3.9917940">
        <ele>638.9</ele>
        <time>2021-05-08T07:30:40Z</time>
      </trkpt>
      <trkpt lat="40.4547760" lon="-3.9918550">
        <ele>638.9</ele>
        <time>2021-05-08T07:30:42Z</time>
      </trkpt>
      <trkpt lat="40.4548250" lon="-3.9918820">
        <ele>638.9</ele>
        <time>2021-05-08T07:30:43Z</time>
      </trkpt>
      <trkpt lat="40.4549220" lon="-3.9919390">
        <ele>639.0</ele>
        <time>2021-05-08T07:30:45Z</time>
      </trkpt>
      <trkpt lat="40.4550230" lon="-3.9919880">
        <ele>639.1</ele>
        <time>2021-05-08T07:30:47Z</time>
      </trkpt>
      <trkpt lat="40.4550730" lon="-3.9920140">
        <ele>639.1</ele>
        <time>2021-05-08T07:30:48Z</time>
      </trkpt>
      <trkpt lat="40.4551290" lon="-3.9920460">
        <ele>639.2</ele>
        <time>2021-05-08T07:30:50Z</time>
      </trkpt>
      <trkpt lat="40.4552100" lon="-3.9920960">
        <ele>639.3</ele>
        <time>2021-05-08T07:30:51Z</time>
      </trkpt>
      <trkpt lat="40.4552510" lon="-3.9921250">
        <ele>639.3</ele>
        <time>2021-05-08T07:30:52Z</time>
      </trkpt>
      <trkpt lat="40.4553320" lon="-3.9921740">
        <ele>639.4</ele>
        <time>2021-05-08T07:30:54Z</time>
      </trkpt>
      <trkpt lat="40.4553720" lon="-3.9922020">
        <ele>639.4</ele>
        <time>2021-05-08T07:30:55Z</time>
      </trkpt>
      <trkpt lat="40.4554580" lon="-3.9922540">
        <ele>639.5</ele>
        <time>2021-05-08T07:30:57Z</time>
      </trkpt>
      <trkpt lat="40.4555020" lon="-3.9922760">
        <ele>639.6</ele>
        <time>2021-05-08T07:30:58Z</time>
      </trkpt>
      <trkpt lat="40.4555870" lon="-3.9923220">
        <ele>639.7</ele>
        <time>2021-05-08T07:31:00Z</time>
      </trkpt>
      <trkpt lat="40.4556700" lon="-3.9923700">
        <ele>639.8</ele>
        <time>2021-05-08T07:31:02Z</time>
      </trkpt>
      <trkpt lat="40.4557160" lon="-3.9923850">
        <ele>639.9</ele>
        <time>2021-05-08T07:31:03Z</time>
      </trkpt>
      <trkpt lat="40.4558210" lon="-3.9923950">
        <ele>640.0</ele>
        <time>2021-05-08T07:31:05Z</time>
      </trkpt>
      <trkpt lat="40.4559270" lon="-3.9923920">
        <ele>640.1</ele>
        <time>2021-05-08T07:31:07Z</time>
      </trkpt>
      <trkpt lat="40.4559790" lon="-3.9923790">
        <ele>640.1</ele>
        <time>2021-05-08T07:31:08Z</time>
      </trkpt>
      <trkpt lat="40.4560390" lon="-3.9923690">
        <ele>640.1</ele>
        <time>2021-05-08T07:31:09Z</time>
      </trkpt>
      <trkpt lat="40.4561400" lon="-3.9923900">
        <ele>640.2</ele>
        <time>2021-05-08T07:31:11Z</time>
      </trkpt>
      <trkpt lat="40.4562290" lon="-3.9924640">
        <ele>640.3</ele>
        <time>2021-05-08T07:31:13Z</time>
      </trkpt>
      <trkpt lat="40.4562610" lon="-3.9925210">
        <ele>640.4</ele>
        <time>2021-05-08T07:31:14Z</time>
      </trkpt>
      <trkpt lat="40.4563070" lon="-3.9926260">
        <ele>640.4</ele>
        <time>2021-05-08T07:31:16Z</time>
      </trkpt>
      <trkpt lat="40.4563320" lon="-3.9926810">
        <ele>640.5</ele>
        <time>2021-05-08T07:31:17Z</time>
      </trkpt>
      <trkpt lat="40.4563990" lon="-3.9927740">
        <ele>640.5</ele>
        <time>2021-05-08T07:31:19Z</time>
      </trkpt>
      <trkpt lat="40.4564390" lon="-3.9928170">
        <ele>640.6</ele>
        <time>2021-05-08T07:31:20Z</time>
      </trkpt>
      <trkpt lat="40.4564840" lon="-3.9928580">
        <ele>640.5</ele>
        <time>2021-05-08T07:31:21Z</time>
      </trkpt>
      <trkpt lat="40.4565350" lon="-3.9928890">
        <ele>640.4</ele>
        <time>2021-05-08T07:31:22Z</time>
      </trkpt>
      <trkpt lat="40.4566460" lon="-3.9929520">
        <ele>640.2</ele>
        <time>2021-05-08T07:31:24Z</time>
      </trkpt>
      <trkpt lat="40.4567530" lon="-3.9930210">
        <ele>640.0</ele>
        <time>2021-05-08T07:31:26Z</time>
      </trkpt>
      <trkpt lat="40.4568070" lon="-3.9930600">
        <ele>639.8</ele>
        <time>2021-05-08T07:31:27Z</time>
      </trkpt>
      <trkpt lat="40.4569200" lon="-3.9931320">
        <ele>639.6</ele>
        <time>2021-05-08T07:31:29Z</time>
      </trkpt>
      <trkpt lat="40.4570310" lon="-3.9932040">
        <ele>639.3</ele>
        <time>2021-05-08T07:31:31Z</time>
      </trkpt>
      <trkpt lat="40.4571460" lon="-3.9932820">
        <ele>639.0</ele>
        <time>2021-05-08T07:31:33Z</time>
      </trkpt>
      <trkpt lat="40.4572080" lon="-3.9933220">
        <ele>638.9</ele>
        <time>2021-05-08T07:31:34Z</time>
      </trkpt>
      <trkpt lat="40.4573340" lon="-3.9934040">
        <ele>638.5</ele>
        <time>2021-05-08T07:31:36Z</time>
      </trkpt>
      <trkpt lat="40.4573960" lon="-3.9934470">
        <ele>638.3</ele>
        <time>2021-05-08T07:31:37Z</time>
      </trkpt>
      <trkpt lat="40.4575220" lon="-3.9935330">
        <ele>637.9</ele>
        <time>2021-05-08T07:31:39Z</time>
      </trkpt>
      <trkpt lat="40.4575860" lon="-3.9935760">
        <ele>637.7</ele>
        <time>2021-05-08T07:31:40Z</time>
      </trkpt>
      <trkpt lat="40.4576500" lon="-3.9936180">
        <ele>637.6</ele>
        <time>2021-05-08T07:31:41Z</time>
      </trkpt>
      <trkpt lat="40.4577740" lon="-3.9937050">
        <ele>637.3</ele>
        <time>2021-05-08T07:31:43Z</time>
      </trkpt>
      <trkpt lat="40.4578980" lon="-3.9937890">
        <ele>637.0</ele>
        <time>2021-05-08T07:31:45Z</time>
      </trkpt>
      <trkpt lat="40.4580190" lon="-3.9938730">
        <ele>636.7</ele>
        <time>2021-05-08T07:31:47Z</time>
      </trkpt>
      <trkpt lat="40.4581360" lon="-3.9939530">
        <ele>636.4</ele>
        <time>2021-05-08T07:31:49Z</time>
      </trkpt>
      <trkpt lat="40.4581970" lon="-3.9939950">
        <ele>636.3</ele>
        <time>2021-05-08T07:31:50Z</time>
      </trkpt>
      <trkpt lat="40.4582950" lon="-3.9940650">
        <ele>636.1</ele>
        <time>2021-05-08T07:31:52Z</time>
      </trkpt>
      <trkpt lat="40.4583480" lon="-3.9941040">
        <ele>636.0</ele>
        <time>2021-05-08T07:31:53Z</time>
      </trkpt>
      <trkpt lat="40.4584000" lon="-3.9941470">
        <ele>636.0</ele>
        <time>2021-05-08T07:31:54Z</time>
      </trkpt>
      <trkpt lat="40.4585050" lon="-3.9942300">
        <ele>635.9</ele>
        <time>2021-05-08T07:31:56Z</time>
      </trkpt>
      <trkpt lat="40.4586090" lon="-3.9943170">
        <ele>635.8</ele>
        <time>2021-05-08T07:31:58Z</time>
      </trkpt>
      <trkpt lat="40.4587130" lon="-3.9944020">
        <ele>635.7</ele>
        <time>2021-05-08T07:32:00Z</time>
      </trkpt>
      <trkpt lat="40.4588180" lon="-3.9944850">
        <ele>635.6</ele>
        <time>2021-05-08T07:32:02Z</time>
      </trkpt>
      <trkpt lat="40.4588740" lon="-3.9945260">
        <ele>635.5</ele>
        <time>2021-05-08T07:32:03Z</time>
      </trkpt>
      <trkpt lat="40.4589300" lon="-3.9945690">
        <ele>635.5</ele>
        <time>2021-05-08T07:32:04Z</time>
      </trkpt>
      <trkpt lat="40.4590400" lon="-3.9946540">
        <ele>635.3</ele>
        <time>2021-05-08T07:32:06Z</time>
      </trkpt>
      <trkpt lat="40.4591440" lon="-3.9947430">
        <ele>635.2</ele>
        <time>2021-05-08T07:32:08Z</time>
      </trkpt>
      <trkpt lat="40.4592500" lon="-3.9948350">
        <ele>635.1</ele>
        <time>2021-05-08T07:32:10Z</time>
      </trkpt>
      <trkpt lat="40.4593510" lon="-3.9949200">
        <ele>635.1</ele>
        <time>2021-05-08T07:32:12Z</time>
      </trkpt>
      <trkpt lat="40.4594070" lon="-3.9949670">
        <ele>635.1</ele>
        <time>2021-05-08T07:32:13Z</time>
      </trkpt>
      <trkpt lat="40.4594590" lon="-3.9950130">
        <ele>635.1</ele>
        <time>2021-05-08T07:32:14Z</time>
      </trkpt>
      <trkpt lat="40.4595120" lon="-3.9950570">
        <ele>635.2</ele>
        <time>2021-05-08T07:32:15Z</time>
      </trkpt>
      <trkpt lat="40.4596130" lon="-3.9951530">
        <ele>635.3</ele>
        <time>2021-05-08T07:32:17Z</time>
      </trkpt>
      <trkpt lat="40.4597110" lon="-3.9952410">
        <ele>635.5</ele>
        <time>2021-05-08T07:32:19Z</time>
      </trkpt>
      <trkpt lat="40.4597620" lon="-3.9952850">
        <ele>635.6</ele>
        <time>2021-05-08T07:32:20Z</time>
      </trkpt>
      <trkpt lat="40.4598560" lon="-3.9953670">
        <ele>635.9</ele>
        <time>2021-05-08T07:32:22Z</time>
      </trkpt>
      <trkpt lat="40.4599020" lon="-3.9954070">
        <ele>636.0</ele>
        <time>2021-05-08T07:32:23Z</time>
      </trkpt>
      <trkpt lat="40.4599490" lon="-3.9954480">
        <ele>636.2</ele>
        <time>2021-05-08T07:32:24Z</time>
      </trkpt>
      <trkpt lat="40.4599950" lon="-3.9954870">
        <ele>636.3</ele>
        <time>2021-05-08T07:32:25Z</time>
      </trkpt>
      <trkpt lat="40.4600370" lon="-3.9955270">
        <ele>636.4</ele>
        <time>2021-05-08T07:32:26Z</time>
      </trkpt>
      <trkpt lat="40.4601180" lon="-3.9955990">
        <ele>636.8</ele>
        <time>2021-05-08T07:32:28Z</time>
      </trkpt>
      <trkpt lat="40.4602080" lon="-3.9956860">
        <ele>637.1</ele>
        <time>2021-05-08T07:32:30Z</time>
      </trkpt>
      <trkpt lat="40.4602810" lon="-3.9957490">
        <ele>637.4</ele>
        <time>2021-05-08T07:32:32Z</time>
      </trkpt>
      <trkpt lat="40.4603670" lon="-3.9958320">
        <ele>637.7</ele>
        <time>2021-05-08T07:32:34Z</time>
      </trkpt>
      <trkpt lat="40.4604070" lon="-3.9958730">
        <ele>637.9</ele>
        <time>2021-05-08T07:32:35Z</time>
      </trkpt>
      <trkpt lat="40.4604480" lon="-3.9959110">
        <ele>638.0</ele>
        <time>2021-05-08T07:32:36Z</time>
      </trkpt>
      <trkpt lat="40.4605330" lon="-3.9959870">
        <ele>638.3</ele>
        <time>2021-05-08T07:32:38Z</time>
      </trkpt>
      <trkpt lat="40.4605730" lon="-3.9960280">
        <ele>638.5</ele>
        <time>2021-05-08T07:32:39Z</time>
      </trkpt>
      <trkpt lat="40.4606520" lon="-3.9961040">
        <ele>638.8</ele>
        <time>2021-05-08T07:32:41Z</time>
      </trkpt>
      <trkpt lat="40.4606910" lon="-3.9961420">
        <ele>638.9</ele>
        <time>2021-05-08T07:32:42Z</time>
      </trkpt>
      <trkpt lat="40.4607710" lon="-3.9962180">
        <ele>639.3</ele>
        <time>2021-05-08T07:32:44Z</time>
      </trkpt>
      <trkpt lat="40.4608100" lon="-3.9962520">
        <ele>639.4</ele>
        <time>2021-05-08T07:32:45Z</time>
      </trkpt>
      <trkpt lat="40.4608500" lon="-3.9962890">
        <ele>639.6</ele>
        <time>2021-05-08T07:32:46Z</time>
      </trkpt>
      <trkpt lat="40.4609270" lon="-3.9963630">
        <ele>639.8</ele>
        <time>2021-05-08T07:32:48Z</time>
      </trkpt>
      <trkpt lat="40.4609870" lon="-3.9964260">
        <ele>640.1</ele>
        <time>2021-05-08T07:32:50Z</time>
      </trkpt>
      <trkpt lat="40.4610180" lon="-3.9964590">
        <ele>640.2</ele>
        <time>2021-05-08T07:32:51Z</time>
      </trkpt>
      <trkpt lat="40.4610840" lon="-3.9965260">
        <ele>640.4</ele>
        <time>2021-05-08T07:32:53Z</time>
      </trkpt>
      <trkpt lat="40.4611290" lon="-3.9965710">
        <ele>640.6</ele>
        <time>2021-05-08T07:32:54Z</time>
      </trkpt>
      <trkpt lat="40.4611950" lon="-3.9966330">
        <ele>640.8</ele>
        <time>2021-05-08T07:32:56Z</time>
      </trkpt>
      <trkpt lat="40.4612160" lon="-3.9966300">
        <ele>640.8</ele>
        <time>2021-05-08T07:32:57Z</time>
      </trkpt>
      <trkpt lat="40.4612870" lon="-3.9966860">
        <ele>641.0</ele>
        <time>2021-05-08T07:32:59Z</time>
      </trkpt>
      <trkpt lat="40.4613280" lon="-3.9967350">
        <ele>641.1</ele>
        <time>2021-05-08T07:33:00Z</time>
      </trkpt>
      <trkpt lat="40.4613910" lon="-3.9968140">
        <ele>641.3</ele>
        <time>2021-05-08T07:33:01Z</time>
      </trkpt>
      <trkpt lat="40.4614510" lon="-3.9968860">
        <ele>641.4</ele>
        <time>2021-05-08T07:33:03Z</time>
      </trkpt>
      <trkpt lat="40.4614980" lon="-3.9969120">
        <ele>641.4</ele>
        <time>2021-05-08T07:33:04Z</time>
      </trkpt>
      <trkpt lat="40.4615560" lon="-3.9969700">
        <ele>641.5</ele>
        <time>2021-05-08T07:33:06Z</time>
      </trkpt>
      <trkpt lat="40.4616330" lon="-3.9970600">
        <ele>641.5</ele>
        <time>2021-05-08T07:33:08Z</time>
      </trkpt>
      <trkpt lat="40.4617100" lon="-3.9971360">
        <ele>641.5</ele>
        <time>2021-05-08T07:33:10Z</time>
      </trkpt>
      <trkpt lat="40.4617890" lon="-3.9972140">
        <ele>641.5</ele>
        <time>2021-05-08T07:33:12Z</time>
      </trkpt>
      <trkpt lat="40.4618710" lon="-3.9972970">
        <ele>641.4</ele>
        <time>2021-05-08T07:33:14Z</time>
      </trkpt>
      <trkpt lat="40.4619530" lon="-3.9973790">
        <ele>641.2</ele>
        <time>2021-05-08T07:33:16Z</time>
      </trkpt>
      <trkpt lat="40.4620380" lon="-3.9974660">
        <ele>641.0</ele>
        <time>2021-05-08T07:33:18Z</time>
      </trkpt>
      <trkpt lat="40.4621240" lon="-3.9975580">
        <ele>640.8</ele>
        <time>2021-05-08T07:33:20Z</time>
      </trkpt>
      <trkpt lat="40.4621730" lon="-3.9975960">
        <ele>640.7</ele>
        <time>2021-05-08T07:33:21Z</time>
      </trkpt>
      <trkpt lat="40.4622790" lon="-3.9976450">
        <ele>640.5</ele>
        <time>2021-05-08T07:33:23Z</time>
      </trkpt>
      <trkpt lat="40.4623400" lon="-3.9976520">
        <ele>640.3</ele>
        <time>2021-05-08T07:33:24Z</time>
      </trkpt>
      <trkpt lat="40.4624650" lon="-3.9976590">
        <ele>640.1</ele>
        <time>2021-05-08T07:33:26Z</time>
      </trkpt>
      <trkpt lat="40.4625810" lon="-3.9976930">
        <ele>639.9</ele>
        <time>2021-05-08T07:33:28Z</time>
      </trkpt>
      <trkpt lat="40.4626760" lon="-3.9977860">
        <ele>639.6</ele>
        <time>2021-05-08T07:33:30Z</time>
      </trkpt>
      <trkpt lat="40.4627050" lon="-3.9978540">
        <ele>639.5</ele>
        <time>2021-05-08T07:33:31Z</time>
      </trkpt>
      <trkpt lat="40.4627480" lon="-3.9980020">
        <ele>639.1</ele>
        <time>2021-05-08T07:33:33Z</time>
      </trkpt>
      <trkpt lat="40.4627630" lon="-3.9980750">
        <ele>639.0</ele>
        <time>2021-05-08T07:33:34Z</time>
      </trkpt>
      <trkpt lat="40.4627910" lon="-3.9982180">
        <ele>638.9</ele>
        <time>2021-05-08T07:33:36Z</time>
      </trkpt>
      <trkpt lat="40.4628510" lon="-3.9983510">
        <ele>638.7</ele>
        <time>2021-05-08T07:33:38Z</time>
      </trkpt>
      <trkpt lat="40.4628900" lon="-3.9984120">
        <ele>638.6</ele>
        <time>2021-05-08T07:33:39Z</time>
      </trkpt>
      <trkpt lat="40.4629390" lon="-3.9984710">
        <ele>638.5</ele>
        <time>2021-05-08T07:33:41Z</time>
      </trkpt>
      <trkpt lat="40.4630270" lon="-3.9985680">
        <ele>638.3</ele>
        <time>2021-05-08T07:33:42Z</time>
      </trkpt>
      <trkpt lat="40.4631130" lon="-3.9986810">
        <ele>638.1</ele>
        <time>2021-05-08T07:33:44Z</time>
      </trkpt>
      <trkpt lat="40.4632030" lon="-3.9987920">
        <ele>638.0</ele>
        <time>2021-05-08T07:33:46Z</time>
      </trkpt>
      <trkpt lat="40.4632480" lon="-3.9988460">
        <ele>637.9</ele>
        <time>2021-05-08T07:33:47Z</time>
      </trkpt>
      <trkpt lat="40.4632950" lon="-3.9989010">
        <ele>637.8</ele>
        <time>2021-05-08T07:33:48Z</time>
      </trkpt>
      <trkpt lat="40.4633410" lon="-3.9989540">
        <ele>637.7</ele>
        <time>2021-05-08T07:33:49Z</time>
      </trkpt>
      <trkpt lat="40.4634310" lon="-3.9990650">
        <ele>637.6</ele>
        <time>2021-05-08T07:33:51Z</time>
      </trkpt>
      <trkpt lat="40.4634770" lon="-3.9991200">
        <ele>637.5</ele>
        <time>2021-05-08T07:33:52Z</time>
      </trkpt>
      <trkpt lat="40.4635710" lon="-3.9992300">
        <ele>637.4</ele>
        <time>2021-05-08T07:33:54Z</time>
      </trkpt>
      <trkpt lat="40.4636170" lon="-3.9992840">
        <ele>637.4</ele>
        <time>2021-05-08T07:33:55Z</time>
      </trkpt>
      <trkpt lat="40.4637100" lon="-3.9993900">
        <ele>637.3</ele>
        <time>2021-05-08T07:33:57Z</time>
      </trkpt>
      <trkpt lat="40.4638000" lon="-3.9995040">
        <ele>637.3</ele>
        <time>2021-05-08T07:33:59Z</time>
      </trkpt>
      <trkpt lat="40.4638440" lon="-3.9995590">
        <ele>637.3</ele>
        <time>2021-05-08T07:34:00Z</time>
      </trkpt>
      <trkpt lat="40.4639360" lon="-3.9996720">
        <ele>637.4</ele>
        <time>2021-05-08T07:34:02Z</time>
      </trkpt>
      <trkpt lat="40.4640110" lon="-3.9997610">
        <ele>637.4</ele>
        <time>2021-05-08T07:34:04Z</time>
      </trkpt>
      <trkpt lat="40.4640540" lon="-3.9998130">
        <ele>637.5</ele>
        <time>2021-05-08T07:34:05Z</time>
      </trkpt>
      <trkpt lat="40.4640960" lon="-3.9998640">
        <ele>637.6</ele>
        <time>2021-05-08T07:34:06Z</time>
      </trkpt>
      <trkpt lat="40.4641760" lon="-3.9999670">
        <ele>637.7</ele>
        <time>2021-05-08T07:34:08Z</time>
      </trkpt>
      <trkpt lat="40.4642150" lon="-4.0000190">
        <ele>637.8</ele>
        <time>2021-05-08T07:34:09Z</time>
      </trkpt>
      <trkpt lat="40.4642900" lon="-4.0001180">
        <ele>638.1</ele>
        <time>2021-05-08T07:34:11Z</time>
      </trkpt>
      <trkpt lat="40.4643270" lon="-4.0001650">
        <ele>638.2</ele>
        <time>2021-05-08T07:34:12Z</time>
      </trkpt>
      <trkpt lat="40.4643970" lon="-4.0002530">
        <ele>638.4</ele>
        <time>2021-05-08T07:34:14Z</time>
      </trkpt>
      <trkpt lat="40.4644280" lon="-4.0002960">
        <ele>638.5</ele>
        <time>2021-05-08T07:34:15Z</time>
      </trkpt>
      <trkpt lat="40.4644940" lon="-4.0003840">
        <ele>638.7</ele>
        <time>2021-05-08T07:34:17Z</time>
      </trkpt>
      <trkpt lat="40.4645620" lon="-4.0004740">
        <ele>638.9</ele>
        <time>2021-05-08T07:34:19Z</time>
      </trkpt>
      <trkpt lat="40.4645970" lon="-4.0005170">
        <ele>639.0</ele>
        <time>2021-05-08T07:34:20Z</time>
      </trkpt>
      <trkpt lat="40.4646710" lon="-4.0006130">
        <ele>639.3</ele>
        <time>2021-05-08T07:34:22Z</time>
      </trkpt>
      <trkpt lat="40.4646990" lon="-4.0006510">
        <ele>639.4</ele>
        <time>2021-05-08T07:34:23Z</time>
      </trkpt>
      <trkpt lat="40.4647650" lon="-4.0007360">
        <ele>639.7</ele>
        <time>2021-05-08T07:34:25Z</time>
      </trkpt>
      <trkpt lat="40.4647900" lon="-4.0007670">
        <ele>639.8</ele>
        <time>2021-05-08T07:34:26Z</time>
      </trkpt>
      <trkpt lat="40.4648520" lon="-4.0008540">
        <ele>640.1</ele>
        <time>2021-05-08T07:34:28Z</time>
      </trkpt>
      <trkpt lat="40.4648750" lon="-4.0008870">
        <ele>640.2</ele>
        <time>2021-05-08T07:34:29Z</time>
      </trkpt>
      <trkpt lat="40.4649130" lon="-4.0009450">
        <ele>640.3</ele>
        <time>2021-05-08T07:34:30Z</time>
      </trkpt>
      <trkpt lat="40.4649410" lon="-4.0010190">
        <ele>640.5</ele>
        <time>2021-05-08T07:34:32Z</time>
      </trkpt>
      <trkpt lat="40.4649910" lon="-4.0010720">
        <ele>640.8</ele>
        <time>2021-05-08T07:34:33Z</time>
      </trkpt>
      <trkpt lat="40.4650260" lon="-4.0011140">
        <ele>640.9</ele>
        <time>2021-05-08T07:34:34Z</time>
      </trkpt>
      <trkpt lat="40.4650810" lon="-4.0011830">
        <ele>641.2</ele>
        <time>2021-05-08T07:34:36Z</time>
      </trkpt>
      <trkpt lat="40.4651390" lon="-4.0012650">
        <ele>641.5</ele>
        <time>2021-05-08T07:34:37Z</time>
      </trkpt>
      <trkpt lat="40.4651780" lon="-4.0013140">
        <ele>641.7</ele>
        <time>2021-05-08T07:34:39Z</time>
      </trkpt>
      <trkpt lat="40.4652040" lon="-4.0013470">
        <ele>641.8</ele>
        <time>2021-05-08T07:34:40Z</time>
      </trkpt>
      <trkpt lat="40.4652460" lon="-4.0013980">
        <ele>642.0</ele>
        <time>2021-05-08T07:34:41Z</time>
      </trkpt>
      <trkpt lat="40.4652830" lon="-4.0014480">
        <ele>642.2</ele>
        <time>2021-05-08T07:34:43Z</time>
      </trkpt>
      <trkpt lat="40.4653180" lon="-4.0014970">
        <ele>642.4</ele>
        <time>2021-05-08T07:34:44Z</time>
      </trkpt>
      <trkpt lat="40.4653590" lon="-4.0015560">
        <ele>642.6</ele>
        <time>2021-05-08T07:34:45Z</time>
      </trkpt>
      <trkpt lat="40.4653930" lon="-4.0015990">
        <ele>642.7</ele>
        <time>2021-05-08T07:34:47Z</time>
      </trkpt>
      <trkpt lat="40.4654260" lon="-4.0016500">
        <ele>642.9</ele>
        <time>2021-05-08T07:34:48Z</time>
      </trkpt>
      <trkpt lat="40.4654630" lon="-4.0017020">
        <ele>643.1</ele>
        <time>2021-05-08T07:34:49Z</time>
      </trkpt>
      <trkpt lat="40.4654970" lon="-4.0017440">
        <ele>643.2</ele>
        <time>2021-05-08T07:34:50Z</time>
      </trkpt>
      <trkpt lat="40.4655310" lon="-4.0017920">
        <ele>643.4</ele>
        <time>2021-05-08T07:34:52Z</time>
      </trkpt>
      <trkpt lat="40.4655600" lon="-4.0018360">
        <ele>643.6</ele>
        <time>2021-05-08T07:34:53Z</time>
      </trkpt>
      <trkpt lat="40.4655900" lon="-4.0018790">
        <ele>643.7</ele>
        <time>2021-05-08T07:34:54Z</time>
      </trkpt>
      <trkpt lat="40.4656180" lon="-4.0019190">
        <ele>643.9</ele>
        <time>2021-05-08T07:34:55Z</time>
      </trkpt>
      <trkpt lat="40.4656500" lon="-4.0019590">
        <ele>644.0</ele>
        <time>2021-05-08T07:34:56Z</time>
      </trkpt>
      <trkpt lat="40.4657030" lon="-4.0020260">
        <ele>644.2</ele>
        <time>2021-05-08T07:34:57Z</time>
      </trkpt>
      <trkpt lat="40.4657270" lon="-4.0020660">
        <ele>644.4</ele>
        <time>2021-05-08T07:34:59Z</time>
      </trkpt>
      <trkpt lat="40.4657570" lon="-4.0021150">
        <ele>644.5</ele>
        <time>2021-05-08T07:35:00Z</time>
      </trkpt>
      <trkpt lat="40.4657780" lon="-4.0021480">
        <ele>644.6</ele>
        <time>2021-05-08T07:35:01Z</time>
      </trkpt>
      <trkpt lat="40.4658180" lon="-4.0022030">
        <ele>644.8</ele>
        <time>2021-05-08T07:35:03Z</time>
      </trkpt>
      <trkpt lat="40.4658580" lon="-4.0022560">
        <ele>645.1</ele>
        <time>2021-05-08T07:35:05Z</time>
      </trkpt>
      <trkpt lat="40.4658880" lon="-4.0022920">
        <ele>645.2</ele>
        <time>2021-05-08T07:35:06Z</time>
      </trkpt>
      <trkpt lat="40.4659190" lon="-4.0023140">
        <ele>645.4</ele>
        <time>2021-05-08T07:35:07Z</time>
      </trkpt>
      <trkpt lat="40.4659540" lon="-4.0023360">
        <ele>645.5</ele>
        <time>2021-05-08T07:35:08Z</time>
      </trkpt>
      <trkpt lat="40.4659950" lon="-4.0023510">
        <ele>645.6</ele>
        <time>2021-05-08T07:35:09Z</time>
      </trkpt>
      <trkpt lat="40.4660400" lon="-4.0023650">
        <ele>645.7</ele>
        <time>2021-05-08T07:35:10Z</time>
      </trkpt>
      <trkpt lat="40.4661000" lon="-4.0023770">
        <ele>645.9</ele>
        <time>2021-05-08T07:35:12Z</time>
      </trkpt>
      <trkpt lat="40.4661660" lon="-4.0023790">
        <ele>646.1</ele>
        <time>2021-05-08T07:35:14Z</time>
      </trkpt>
      <trkpt lat="40.4662120" lon="-4.0023900">
        <ele>646.2</ele>
        <time>2021-05-08T07:35:15Z</time>
      </trkpt>
      <trkpt lat="40.4662640" lon="-4.0024160">
        <ele>646.4</ele>
        <time>2021-05-08T07:35:16Z</time>
      </trkpt>
      <trkpt lat="40.4663100" lon="-4.0024500">
        <ele>646.5</ele>
        <time>2021-05-08T07:35:17Z</time>
      </trkpt>
      <trkpt lat="40.4663500" lon="-4.0024910">
        <ele>646.7</ele>
        <time>2021-05-08T07:35:19Z</time>
      </trkpt>
      <trkpt lat="40.4663870" lon="-4.0025390">
        <ele>646.9</ele>
        <time>2021-05-08T07:35:20Z</time>
      </trkpt>
      <trkpt lat="40.4664240" lon="-4.0026600">
        <ele>647.1</ele>
        <time>2021-05-08T07:35:22Z</time>
      </trkpt>
      <trkpt lat="40.4664310" lon="-4.0027130">
        <ele>647.2</ele>
        <time>2021-05-08T07:35:23Z</time>
      </trkpt>
      <trkpt lat="40.4664370" lon="-4.0028000">
        <ele>647.3</ele>
        <time>2021-05-08T07:35:25Z</time>
      </trkpt>
      <trkpt lat="40.4664360" lon="-4.0028710">
        <ele>647.4</ele>
        <time>2021-05-08T07:35:26Z</time>
      </trkpt>
      <trkpt lat="40.4664370" lon="-4.0029620">
        <ele>647.5</ele>
        <time>2021-05-08T07:35:27Z</time>
      </trkpt>
      <trkpt lat="40.4664440" lon="-4.0030260">
        <ele>647.6</ele>
        <time>2021-05-08T07:35:28Z</time>
      </trkpt>
      <trkpt lat="40.4664660" lon="-4.0031070">
        <ele>647.7</ele>
        <time>2021-05-08T07:35:30Z</time>
      </trkpt>
      <trkpt lat="40.4665150" lon="-4.0032080">
        <ele>648.0</ele>
        <time>2021-05-08T07:35:32Z</time>
      </trkpt>
      <trkpt lat="40.4665570" lon="-4.0032530">
        <ele>648.1</ele>
        <time>2021-05-08T07:35:34Z</time>
      </trkpt>
      <trkpt lat="40.4665860" lon="-4.0032740">
        <ele>648.2</ele>
        <time>2021-05-08T07:35:35Z</time>
      </trkpt>
      <trkpt lat="40.4666160" lon="-4.0033240">
        <ele>648.3</ele>
        <time>2021-05-08T07:35:36Z</time>
      </trkpt>
      <trkpt lat="40.4666560" lon="-4.0033990">
        <ele>648.5</ele>
        <time>2021-05-08T07:35:37Z</time>
      </trkpt>
      <trkpt lat="40.4666950" lon="-4.0034650">
        <ele>648.7</ele>
        <time>2021-05-08T07:35:39Z</time>
      </trkpt>
      <trkpt lat="40.4667250" lon="-4.0035220">
        <ele>648.8</ele>
        <time>2021-05-08T07:35:40Z</time>
      </trkpt>
      <trkpt lat="40.4667760" lon="-4.0036010">
        <ele>649.0</ele>
        <time>2021-05-08T07:35:42Z</time>
      </trkpt>
      <trkpt lat="40.4668130" lon="-4.0036560">
        <ele>649.2</ele>
        <time>2021-05-08T07:35:43Z</time>
      </trkpt>
      <trkpt lat="40.4668430" lon="-4.0037080">
        <ele>649.4</ele>
        <time>2021-05-08T07:35:44Z</time>
      </trkpt>
      <trkpt lat="40.4668770" lon="-4.0037680">
        <ele>649.5</ele>
        <time>2021-05-08T07:35:45Z</time>
      </trkpt>
      <trkpt lat="40.4669170" lon="-4.0038250">
        <ele>649.7</ele>
        <time>2021-05-08T07:35:47Z</time>
      </trkpt>
      <trkpt lat="40.4669450" lon="-4.0038630">
        <ele>649.9</ele>
        <time>2021-05-08T07:35:48Z</time>
      </trkpt>
      <trkpt lat="40.4669700" lon="-4.0039010">
        <ele>650.0</ele>
        <time>2021-05-08T07:35:49Z</time>
      </trkpt>
      <trkpt lat="40.4670000" lon="-4.0039430">
        <ele>650.2</ele>
        <time>2021-05-08T07:35:50Z</time>
      </trkpt>
      <trkpt lat="40.4670270" lon="-4.0039860">
        <ele>650.3</ele>
        <time>2021-05-08T07:35:51Z</time>
      </trkpt>
      <trkpt lat="40.4670580" lon="-4.0040360">
        <ele>650.5</ele>
        <time>2021-05-08T07:35:53Z</time>
      </trkpt>
      <trkpt lat="40.4670850" lon="-4.0040780">
        <ele>650.7</ele>
        <time>2021-05-08T07:35:54Z</time>
      </trkpt>
      <trkpt lat="40.4671140" lon="-4.0041220">
        <ele>650.8</ele>
        <time>2021-05-08T07:35:55Z</time>
      </trkpt>
      <trkpt lat="40.4671500" lon="-4.0041790">
        <ele>651.0</ele>
        <time>2021-05-08T07:35:56Z</time>
      </trkpt>
      <trkpt lat="40.4671950" lon="-4.0042480">
        <ele>651.3</ele>
        <time>2021-05-08T07:35:58Z</time>
      </trkpt>
      <trkpt lat="40.4672210" lon="-4.0042920">
        <ele>651.4</ele>
        <time>2021-05-08T07:35:59Z</time>
      </trkpt>
      <trkpt lat="40.4672640" lon="-4.0043560">
        <ele>651.6</ele>
        <time>2021-05-08T07:36:00Z</time>
      </trkpt>
      <trkpt lat="40.4673170" lon="-4.0044400">
        <ele>651.9</ele>
        <time>2021-05-08T07:36:02Z</time>
      </trkpt>
      <trkpt lat="40.4673340" lon="-4.0044680">
        <ele>652.0</ele>
        <time>2021-05-08T07:36:03Z</time>
      </trkpt>
      <trkpt lat="40.4673620" lon="-4.0045160">
        <ele>652.1</ele>
        <time>2021-05-08T07:36:04Z</time>
      </trkpt>
      <trkpt lat="40.4673890" lon="-4.0045560">
        <ele>652.2</ele>
        <time>2021-05-08T07:36:06Z</time>
      </trkpt>
      <trkpt lat="40.4674160" lon="-4.0046010">
        <ele>652.3</ele>
        <time>2021-05-08T07:36:07Z</time>
      </trkpt>
      <trkpt lat="40.4674450" lon="-4.0046460">
        <ele>652.5</ele>
        <time>2021-05-08T07:36:08Z</time>
      </trkpt>
      <trkpt lat="40.4674780" lon="-4.0046990">
        <ele>652.6</ele>
        <time>2021-05-08T07:36:09Z</time>
      </trkpt>
      <trkpt lat="40.4675100" lon="-4.0047490">
        <ele>652.8</ele>
        <time>2021-05-08T07:36:10Z</time>
      </trkpt>
      <trkpt lat="40.4675480" lon="-4.0048020">
        <ele>652.9</ele>
        <time>2021-05-08T07:36:12Z</time>
      </trkpt>
      <trkpt lat="40.4675740" lon="-4.0048440">
        <ele>653.0</ele>
        <time>2021-05-08T07:36:13Z</time>
      </trkpt>
      <trkpt lat="40.4675980" lon="-4.0048840">
        <ele>653.1</ele>
        <time>2021-05-08T07:36:14Z</time>
      </trkpt>
      <trkpt lat="40.4676280" lon="-4.0049300">
        <ele>653.2</ele>
        <time>2021-05-08T07:36:15Z</time>
      </trkpt>
      <trkpt lat="40.4676610" lon="-4.0049780">
        <ele>653.3</ele>
        <time>2021-05-08T07:36:16Z</time>
      </trkpt>
      <trkpt lat="40.4676920" lon="-4.0050280">
        <ele>653.4</ele>
        <time>2021-05-08T07:36:18Z</time>
      </trkpt>
      <trkpt lat="40.4677220" lon="-4.0050800">
        <ele>653.6</ele>
        <time>2021-05-08T07:36:19Z</time>
      </trkpt>
      <trkpt lat="40.4677490" lon="-4.0051280">
        <ele>653.7</ele>
        <time>2021-05-08T07:36:20Z</time>
      </trkpt>
      <trkpt lat="40.4678000" lon="-4.0052170">
        <ele>653.8</ele>
        <time>2021-05-08T07:36:22Z</time>
      </trkpt>
      <trkpt lat="40.4678230" lon="-4.0052580">
        <ele>653.9</ele>
        <time>2021-05-08T07:36:23Z</time>
      </trkpt>
      <trkpt lat="40.4678530" lon="-4.0053090">
        <ele>654.0</ele>
        <time>2021-05-08T07:36:24Z</time>
      </trkpt>
      <trkpt lat="40.4679030" lon="-4.0053890">
        <ele>654.2</ele>
        <time>2021-05-08T07:36:26Z</time>
      </trkpt>
      <trkpt lat="40.4679350" lon="-4.0054430">
        <ele>654.3</ele>
        <time>2021-05-08T07:36:27Z</time>
      </trkpt>
      <trkpt lat="40.4679640" lon="-4.0054890">
        <ele>654.4</ele>
        <time>2021-05-08T07:36:28Z</time>
      </trkpt>
      <trkpt lat="40.4679970" lon="-4.0055470">
        <ele>654.5</ele>
        <time>2021-05-08T07:36:30Z</time>
      </trkpt>
      <trkpt lat="40.4680220" lon="-4.0055890">
        <ele>654.6</ele>
        <time>2021-05-08T07:36:31Z</time>
      </trkpt>
      <trkpt lat="40.4680490" lon="-4.0056330">
        <ele>654.7</ele>
        <time>2021-05-08T07:36:32Z</time>
      </trkpt>
      <trkpt lat="40.4680810" lon="-4.0056840">
        <ele>654.8</ele>
        <time>2021-05-08T07:36:33Z</time>
      </trkpt>
      <trkpt lat="40.4681070" lon="-4.0057250">
        <ele>654.8</ele>
        <time>2021-05-08T07:36:34Z</time>
      </trkpt>
      <trkpt lat="40.4681470" lon="-4.0057870">
        <ele>654.9</ele>
        <time>2021-05-08T07:36:36Z</time>
      </trkpt>
      <trkpt lat="40.4681780" lon="-4.0058410">
        <ele>655.0</ele>
        <time>2021-05-08T07:36:37Z</time>
      </trkpt>
      <trkpt lat="40.4682040" lon="-4.0058840">
        <ele>655.1</ele>
        <time>2021-05-08T07:36:38Z</time>
      </trkpt>
      <trkpt lat="40.4682340" lon="-4.0059330">
        <ele>655.2</ele>
        <time>2021-05-08T07:36:39Z</time>
      </trkpt>
      <trkpt lat="40.4682620" lon="-4.0059810">
        <ele>655.2</ele>
        <time>2021-05-08T07:36:41Z</time>
      </trkpt>
      <trkpt lat="40.4682960" lon="-4.0060400">
        <ele>655.3</ele>
        <time>2021-05-08T07:36:42Z</time>
      </trkpt>
      <trkpt lat="40.4683440" lon="-4.0061180">
        <ele>655.4</ele>
        <time>2021-05-08T07:36:44Z</time>
      </trkpt>
      <trkpt lat="40.4683780" lon="-4.0061790">
        <ele>655.5</ele>
        <time>2021-05-08T07:36:45Z</time>
      </trkpt>
      <trkpt lat="40.4684200" lon="-4.0062470">
        <ele>655.5</ele>
        <time>2021-05-08T07:36:46Z</time>
      </trkpt>
      <trkpt lat="40.4684520" lon="-4.0063020">
        <ele>655.6</ele>
        <time>2021-05-08T07:36:48Z</time>
      </trkpt>
      <trkpt lat="40.4684900" lon="-4.0063690">
        <ele>655.7</ele>
        <time>2021-05-08T07:36:49Z</time>
      </trkpt>
      <trkpt lat="40.4685250" lon="-4.0064270">
        <ele>655.7</ele>
        <time>2021-05-08T07:36:50Z</time>
      </trkpt>
      <trkpt lat="40.4685640" lon="-4.0064880">
        <ele>655.8</ele>
        <time>2021-05-08T07:36:52Z</time>
      </trkpt>
      <trkpt lat="40.4685990" lon="-4.0065420">
        <ele>655.8</ele>
        <time>2021-05-08T07:36:53Z</time>
      </trkpt>
      <trkpt lat="40.4686300" lon="-4.0065980">
        <ele>655.8</ele>
        <time>2021-05-08T07:36:54Z</time>
      </trkpt>
      <trkpt lat="40.4686600" lon="-4.0066510">
        <ele>655.9</ele>
        <time>2021-05-08T07:36:55Z</time>
      </trkpt>
      <trkpt lat="40.4686880" lon="-4.0067100">
        <ele>655.9</ele>
        <time>2021-05-08T07:36:57Z</time>
      </trkpt>
      <trkpt lat="40.4687170" lon="-4.0067700">
        <ele>656.0</ele>
        <time>2021-05-08T07:36:58Z</time>
      </trkpt>
      <trkpt lat="40.4687490" lon="-4.0068320">
        <ele>656.0</ele>
        <time>2021-05-08T07:36:59Z</time>
      </trkpt>
      <trkpt lat="40.4687710" lon="-4.0068800">
        <ele>656.1</ele>
        <time>2021-05-08T07:37:00Z</time>
      </trkpt>
      <trkpt lat="40.4687970" lon="-4.0069280">
        <ele>656.1</ele>
        <time>2021-05-08T07:37:01Z</time>
      </trkpt>
      <trkpt lat="40.4688270" lon="-4.0069910">
        <ele>656.1</ele>
        <time>2021-05-08T07:37:03Z</time>
      </trkpt>
      <trkpt lat="40.4688560" lon="-4.0070740">
        <ele>656.2</ele>
        <time>2021-05-08T07:37:04Z</time>
      </trkpt>
      <trkpt lat="40.4688770" lon="-4.0071400">
        <ele>656.2</ele>
        <time>2021-05-08T07:37:06Z</time>
      </trkpt>
      <trkpt lat="40.4689020" lon="-4.0072070">
        <ele>656.3</ele>
        <time>2021-05-08T07:37:07Z</time>
      </trkpt>
      <trkpt lat="40.4689220" lon="-4.0072800">
        <ele>656.4</ele>
        <time>2021-05-08T07:37:09Z</time>
      </trkpt>
      <trkpt lat="40.4689380" lon="-4.0073580">
        <ele>656.4</ele>
        <time>2021-05-08T07:37:10Z</time>
      </trkpt>
      <trkpt lat="40.4689520" lon="-4.0074060">
        <ele>656.5</ele>
        <time>2021-05-08T07:37:11Z</time>
      </trkpt>
      <trkpt lat="40.4689780" lon="-4.0074790">
        <ele>656.6</ele>
        <time>2021-05-08T07:37:13Z</time>
      </trkpt>
      <trkpt lat="40.4689900" lon="-4.0075310">
        <ele>656.7</ele>
        <time>2021-05-08T07:37:14Z</time>
      </trkpt>
      <trkpt lat="40.4689860" lon="-4.0076050">
        <ele>656.9</ele>
        <time>2021-05-08T07:37:15Z</time>
      </trkpt>
      <trkpt lat="40.4689860" lon="-4.0076900">
        <ele>657.0</ele>
        <time>2021-05-08T07:37:17Z</time>
      </trkpt>
      <trkpt lat="40.4689950" lon="-4.0077390">
        <ele>657.1</ele>
        <time>2021-05-08T07:37:18Z</time>
      </trkpt>
      <trkpt lat="40.4690050" lon="-4.0077890">
        <ele>657.2</ele>
        <time>2021-05-08T07:37:19Z</time>
      </trkpt>
      <trkpt lat="40.4690320" lon="-4.0078800">
        <ele>657.4</ele>
        <time>2021-05-08T07:37:21Z</time>
      </trkpt>
      <trkpt lat="40.4690430" lon="-4.0079060">
        <ele>657.4</ele>
        <time>2021-05-08T07:37:22Z</time>
      </trkpt>
      <trkpt lat="40.4690600" lon="-4.0079320">
        <ele>657.4</ele>
        <time>2021-05-08T07:37:24Z</time>
      </trkpt>
      <trkpt lat="40.4690740" lon="-4.0079420">
        <ele>657.4</ele>
        <time>2021-05-08T07:37:25Z</time>
      </trkpt>
      <trkpt lat="40.4691080" lon="-4.0079640">
        <ele>657.3</ele>
        <time>2021-05-08T07:37:27Z</time>
      </trkpt>
      <trkpt lat="40.4691410" lon="-4.0079920">
        <ele>657.3</ele>
        <time>2021-05-08T07:37:28Z</time>
      </trkpt>
      <trkpt lat="40.4691970" lon="-4.0080500">
        <ele>657.1</ele>
        <time>2021-05-08T07:37:29Z</time>
      </trkpt>
      <trkpt lat="40.4692410" lon="-4.0081080">
        <ele>657.0</ele>
        <time>2021-05-08T07:37:30Z</time>
      </trkpt>
      <trkpt lat="40.4692780" lon="-4.0081700">
        <ele>656.8</ele>
        <time>2021-05-08T07:37:31Z</time>
      </trkpt>
      <trkpt lat="40.4693000" lon="-4.0082380">
        <ele>656.6</ele>
        <time>2021-05-08T07:37:32Z</time>
      </trkpt>
      <trkpt lat="40.4693250" lon="-4.0083670">
        <ele>656.3</ele>
        <time>2021-05-08T07:37:34Z</time>
      </trkpt>
      <trkpt lat="40.4693330" lon="-4.0085050">
        <ele>656.4</ele>
        <time>2021-05-08T07:37:36Z</time>
      </trkpt>
      <trkpt lat="40.4693360" lon="-4.0086430">
        <ele>656.5</ele>
        <time>2021-05-08T07:37:38Z</time>
      </trkpt>
      <trkpt lat="40.4693400" lon="-4.0087120">
        <ele>656.5</ele>
        <time>2021-05-08T07:37:39Z</time>
      </trkpt>
      <trkpt lat="40.4693530" lon="-4.0088430">
        <ele>656.6</ele>
        <time>2021-05-08T07:37:41Z</time>
      </trkpt>
      <trkpt lat="40.4693630" lon="-4.0089050">
        <ele>656.7</ele>
        <time>2021-05-08T07:37:42Z</time>
      </trkpt>
      <trkpt lat="40.4694060" lon="-4.0090290">
        <ele>656.8</ele>
        <time>2021-05-08T07:37:44Z</time>
      </trkpt>
      <trkpt lat="40.4694590" lon="-4.0091450">
        <ele>656.9</ele>
        <time>2021-05-08T07:37:46Z</time>
      </trkpt>
      <trkpt lat="40.4694870" lon="-4.0092010">
        <ele>657.0</ele>
        <time>2021-05-08T07:37:47Z</time>
      </trkpt>
      <trkpt lat="40.4695370" lon="-4.0093120">
        <ele>657.2</ele>
        <time>2021-05-08T07:37:49Z</time>
      </trkpt>
      <trkpt lat="40.4695650" lon="-4.0093710">
        <ele>657.3</ele>
        <time>2021-05-08T07:37:50Z</time>
      </trkpt>
      <trkpt lat="40.4695910" lon="-4.0094280">
        <ele>657.3</ele>
        <time>2021-05-08T07:37:51Z</time>
      </trkpt>
      <trkpt lat="40.4696170" lon="-4.0094850">
        <ele>657.4</ele>
        <time>2021-05-08T07:37:52Z</time>
      </trkpt>
      <trkpt lat="40.4696460" lon="-4.0095490">
        <ele>657.5</ele>
        <time>2021-05-08T07:37:53Z</time>
      </trkpt>
      <trkpt lat="40.4696670" lon="-4.0095960">
        <ele>657.5</ele>
        <time>2021-05-08T07:37:54Z</time>
      </trkpt>
      <trkpt lat="40.4697140" lon="-4.0097100">
        <ele>657.6</ele>
        <time>2021-05-08T07:37:56Z</time>
      </trkpt>
      <trkpt lat="40.4697620" lon="-4.0098280">
        <ele>657.8</ele>
        <time>2021-05-08T07:37:58Z</time>
      </trkpt>
      <trkpt lat="40.4698110" lon="-4.0099430">
        <ele>657.9</ele>
        <time>2021-05-08T07:38:00Z</time>
      </trkpt>
      <trkpt lat="40.4698370" lon="-4.0099940">
        <ele>658.0</ele>
        <time>2021-05-08T07:38:01Z</time>
      </trkpt>
      <trkpt lat="40.4698630" lon="-4.0100490">
        <ele>658.1</ele>
        <time>2021-05-08T07:38:02Z</time>
      </trkpt>
      <trkpt lat="40.4699080" lon="-4.0101600">
        <ele>658.3</ele>
        <time>2021-05-08T07:38:04Z</time>
      </trkpt>
      <trkpt lat="40.4699520" lon="-4.0102680">
        <ele>658.5</ele>
        <time>2021-05-08T07:38:06Z</time>
      </trkpt>
      <trkpt lat="40.4699760" lon="-4.0103220">
        <ele>658.6</ele>
        <time>2021-05-08T07:38:07Z</time>
      </trkpt>
      <trkpt lat="40.4700030" lon="-4.0103710">
        <ele>658.7</ele>
        <time>2021-05-08T07:38:08Z</time>
      </trkpt>
      <trkpt lat="40.4700550" lon="-4.0104740">
        <ele>658.9</ele>
        <time>2021-05-08T07:38:10Z</time>
      </trkpt>
      <trkpt lat="40.4700780" lon="-4.0105290">
        <ele>659.0</ele>
        <time>2021-05-08T07:38:11Z</time>
      </trkpt>
      <trkpt lat="40.4701270" lon="-4.0106440">
        <ele>659.2</ele>
        <time>2021-05-08T07:38:13Z</time>
      </trkpt>
      <trkpt lat="40.4701740" lon="-4.0107400">
        <ele>659.3</ele>
        <time>2021-05-08T07:38:15Z</time>
      </trkpt>
      <trkpt lat="40.4701990" lon="-4.0107950">
        <ele>659.4</ele>
        <time>2021-05-08T07:38:16Z</time>
      </trkpt>
      <trkpt lat="40.4702480" lon="-4.0108940">
        <ele>659.6</ele>
        <time>2021-05-08T07:38:18Z</time>
      </trkpt>
      <trkpt lat="40.4702970" lon="-4.0109990">
        <ele>659.7</ele>
        <time>2021-05-08T07:38:20Z</time>
      </trkpt>
      <trkpt lat="40.4703230" lon="-4.0110550">
        <ele>659.8</ele>
        <time>2021-05-08T07:38:21Z</time>
      </trkpt>
      <trkpt lat="40.4703690" lon="-4.0111600">
        <ele>660.0</ele>
        <time>2021-05-08T07:38:23Z</time>
      </trkpt>
      <trkpt lat="40.4704130" lon="-4.0112710">
        <ele>660.2</ele>
        <time>2021-05-08T07:38:25Z</time>
      </trkpt>
      <trkpt lat="40.4704560" lon="-4.0113760">
        <ele>660.4</ele>
        <time>2021-05-08T07:38:27Z</time>
      </trkpt>
      <trkpt lat="40.4705000" lon="-4.0114630">
        <ele>660.5</ele>
        <time>2021-05-08T07:38:29Z</time>
      </trkpt>
      <trkpt lat="40.4705440" lon="-4.0115580">
        <ele>660.7</ele>
        <time>2021-05-08T07:38:31Z</time>
      </trkpt>
      <trkpt lat="40.4705670" lon="-4.0116100">
        <ele>660.8</ele>
        <time>2021-05-08T07:38:32Z</time>
      </trkpt>
      <trkpt lat="40.4706050" lon="-4.0116990">
        <ele>661.0</ele>
        <time>2021-05-08T07:38:34Z</time>
      </trkpt>
      <trkpt lat="40.4706320" lon="-4.0117570">
        <ele>661.1</ele>
        <time>2021-05-08T07:38:35Z</time>
      </trkpt>
      <trkpt lat="40.4706890" lon="-4.0118540">
        <ele>661.3</ele>
        <time>2021-05-08T07:38:37Z</time>
      </trkpt>
      <trkpt lat="40.4707050" lon="-4.0118950">
        <ele>661.4</ele>
        <time>2021-05-08T07:38:38Z</time>
      </trkpt>
      <trkpt lat="40.4707220" lon="-4.0119470">
        <ele>661.5</ele>
        <time>2021-05-08T07:38:39Z</time>
      </trkpt>
      <trkpt lat="40.4707540" lon="-4.0120330">
        <ele>661.7</ele>
        <time>2021-05-08T07:38:41Z</time>
      </trkpt>
      <trkpt lat="40.4707910" lon="-4.0121220">
        <ele>661.8</ele>
        <time>2021-05-08T07:38:42Z</time>
      </trkpt>
      <trkpt lat="40.4708160" lon="-4.0121900">
        <ele>661.9</ele>
        <time>2021-05-08T07:38:44Z</time>
      </trkpt>
      <trkpt lat="40.4708390" lon="-4.0122510">
        <ele>662.0</ele>
        <time>2021-05-08T07:38:45Z</time>
      </trkpt>
      <trkpt lat="40.4708590" lon="-4.0122940">
        <ele>662.1</ele>
        <time>2021-05-08T07:38:46Z</time>
      </trkpt>
      <trkpt lat="40.4708870" lon="-4.0123660">
        <ele>662.2</ele>
        <time>2021-05-08T07:38:47Z</time>
      </trkpt>
      <trkpt lat="40.4709150" lon="-4.0124410">
        <ele>662.3</ele>
        <time>2021-05-08T07:38:49Z</time>
      </trkpt>
      <trkpt lat="40.4709340" lon="-4.0124920">
        <ele>662.4</ele>
        <time>2021-05-08T07:38:50Z</time>
      </trkpt>
      <trkpt lat="40.4709720" lon="-4.0126040">
        <ele>662.5</ele>
        <time>2021-05-08T07:38:52Z</time>
      </trkpt>
      <trkpt lat="40.4710080" lon="-4.0127170">
        <ele>662.6</ele>
        <time>2021-05-08T07:38:54Z</time>
      </trkpt>
      <trkpt lat="40.4710240" lon="-4.0127460">
        <ele>662.6</ele>
        <time>2021-05-08T07:38:55Z</time>
      </trkpt>
      <trkpt lat="40.4710690" lon="-4.0128320">
        <ele>662.7</ele>
        <time>2021-05-08T07:38:57Z</time>
      </trkpt>
      <trkpt lat="40.4710820" lon="-4.0129220">
        <ele>662.8</ele>
        <time>2021-05-08T07:38:58Z</time>
      </trkpt>
      <trkpt lat="40.4711020" lon="-4.0130270">
        <ele>662.8</ele>
        <time>2021-05-08T07:39:00Z</time>
      </trkpt>
      <trkpt lat="40.4711140" lon="-4.0131200">
        <ele>663.0</ele>
        <time>2021-05-08T07:39:01Z</time>
      </trkpt>
      <trkpt lat="40.4711230" lon="-4.0131830">
        <ele>663.1</ele>
        <time>2021-05-08T07:39:03Z</time>
      </trkpt>
      <trkpt lat="40.4711330" lon="-4.0132550">
        <ele>663.3</ele>
        <time>2021-05-08T07:39:04Z</time>
      </trkpt>
      <trkpt lat="40.4711430" lon="-4.0133140">
        <ele>663.4</ele>
        <time>2021-05-08T07:39:05Z</time>
      </trkpt>
      <trkpt lat="40.4711560" lon="-4.0134000">
        <ele>663.6</ele>
        <time>2021-05-08T07:39:06Z</time>
      </trkpt>
      <trkpt lat="40.4711600" lon="-4.0134590">
        <ele>663.7</ele>
        <time>2021-05-08T07:39:08Z</time>
      </trkpt>
      <trkpt lat="40.4711670" lon="-4.0135160">
        <ele>663.8</ele>
        <time>2021-05-08T07:39:09Z</time>
      </trkpt>
      <trkpt lat="40.4711720" lon="-4.0135650">
        <ele>664.0</ele>
        <time>2021-05-08T07:39:10Z</time>
      </trkpt>
      <trkpt lat="40.4711790" lon="-4.0136270">
        <ele>664.1</ele>
        <time>2021-05-08T07:39:11Z</time>
      </trkpt>
      <trkpt lat="40.4711890" lon="-4.0137090">
        <ele>664.3</ele>
        <time>2021-05-08T07:39:12Z</time>
      </trkpt>
      <trkpt lat="40.4711970" lon="-4.0137740">
        <ele>664.5</ele>
        <time>2021-05-08T07:39:14Z</time>
      </trkpt>
      <trkpt lat="40.4712020" lon="-4.0138680">
        <ele>664.7</ele>
        <time>2021-05-08T07:39:16Z</time>
      </trkpt>
      <trkpt lat="40.4712070" lon="-4.0139510">
        <ele>664.9</ele>
        <time>2021-05-08T07:39:17Z</time>
      </trkpt>
      <trkpt lat="40.4712150" lon="-4.0140190">
        <ele>665.0</ele>
        <time>2021-05-08T07:39:19Z</time>
      </trkpt>
      <trkpt lat="40.4712230" lon="-4.0140720">
        <ele>665.1</ele>
        <time>2021-05-08T07:39:20Z</time>
      </trkpt>
      <trkpt lat="40.4712710" lon="-4.0141820">
        <ele>665.4</ele>
        <time>2021-05-08T07:39:22Z</time>
      </trkpt>
      <trkpt lat="40.4713080" lon="-4.0142290">
        <ele>665.3</ele>
        <time>2021-05-08T07:39:23Z</time>
      </trkpt>
      <trkpt lat="40.4713850" lon="-4.0143130">
        <ele>665.3</ele>
        <time>2021-05-08T07:39:25Z</time>
      </trkpt>
      <trkpt lat="40.4714190" lon="-4.0143620">
        <ele>665.3</ele>
        <time>2021-05-08T07:39:26Z</time>
      </trkpt>
      <trkpt lat="40.4714640" lon="-4.0144850">
        <ele>665.3</ele>
        <time>2021-05-08T07:39:28Z</time>
      </trkpt>
      <trkpt lat="40.4714830" lon="-4.0146140">
        <ele>665.3</ele>
        <time>2021-05-08T07:39:30Z</time>
      </trkpt>
      <trkpt lat="40.4714790" lon="-4.0147350">
        <ele>665.3</ele>
        <time>2021-05-08T07:39:32Z</time>
      </trkpt>
      <trkpt lat="40.4714670" lon="-4.0148500">
        <ele>665.3</ele>
        <time>2021-05-08T07:39:34Z</time>
      </trkpt>
      <trkpt lat="40.4714640" lon="-4.0149100">
        <ele>665.3</ele>
        <time>2021-05-08T07:39:35Z</time>
      </trkpt>
      <trkpt lat="40.4714700" lon="-4.0149770">
        <ele>665.3</ele>
        <time>2021-05-08T07:39:36Z</time>
      </trkpt>
      <trkpt lat="40.4715090" lon="-4.0150960">
        <ele>665.3</ele>
        <time>2021-05-08T07:39:38Z</time>
      </trkpt>
      <trkpt lat="40.4715780" lon="-4.0151850">
        <ele>665.3</ele>
        <time>2021-05-08T07:39:40Z</time>
      </trkpt>
      <trkpt lat="40.4716180" lon="-4.0152280">
        <ele>665.3</ele>
        <time>2021-05-08T07:39:41Z</time>
      </trkpt>
      <trkpt lat="40.4716610" lon="-4.0152680">
        <ele>665.3</ele>
        <time>2021-05-08T07:39:42Z</time>
      </trkpt>
      <trkpt lat="40.4717420" lon="-4.0153540">
        <ele>665.3</ele>
        <time>2021-05-08T07:39:44Z</time>
      </trkpt>
      <trkpt lat="40.4718190" lon="-4.0154520">
        <ele>665.2</ele>
        <time>2021-05-08T07:39:46Z</time>
      </trkpt>
      <trkpt lat="40.4718930" lon="-4.0155520">
        <ele>665.1</ele>
        <time>2021-05-08T07:39:48Z</time>
      </trkpt>
      <trkpt lat="40.4719300" lon="-4.0156020">
        <ele>665.1</ele>
        <time>2021-05-08T07:39:49Z</time>
      </trkpt>
      <trkpt lat="40.4719670" lon="-4.0156530">
        <ele>665.1</ele>
        <time>2021-05-08T07:39:50Z</time>
      </trkpt>
      <trkpt lat="40.4720420" lon="-4.0157570">
        <ele>665.0</ele>
        <time>2021-05-08T07:39:52Z</time>
      </trkpt>
      <trkpt lat="40.4721140" lon="-4.0158650">
        <ele>665.0</ele>
        <time>2021-05-08T07:39:54Z</time>
      </trkpt>
      <trkpt lat="40.4721510" lon="-4.0159210">
        <ele>665.0</ele>
        <time>2021-05-08T07:39:55Z</time>
      </trkpt>
      <trkpt lat="40.4722300" lon="-4.0160450">
        <ele>664.9</ele>
        <time>2021-05-08T07:39:57Z</time>
      </trkpt>
      <trkpt lat="40.4722650" lon="-4.0161030">
        <ele>664.8</ele>
        <time>2021-05-08T07:39:58Z</time>
      </trkpt>
      <trkpt lat="40.4723030" lon="-4.0161630">
        <ele>664.8</ele>
        <time>2021-05-08T07:39:59Z</time>
      </trkpt>
      <trkpt lat="40.4723810" lon="-4.0162750">
        <ele>664.7</ele>
        <time>2021-05-08T07:40:01Z</time>
      </trkpt>
      <trkpt lat="40.4724660" lon="-4.0163770">
        <ele>664.5</ele>
        <time>2021-05-08T07:40:03Z</time>
      </trkpt>
      <trkpt lat="40.4725080" lon="-4.0164280">
        <ele>664.5</ele>
        <time>2021-05-08T07:40:04Z</time>
      </trkpt>
      <trkpt lat="40.4725940" lon="-4.0165270">
        <ele>664.2</ele>
        <time>2021-05-08T07:40:06Z</time>
      </trkpt>
      <trkpt lat="40.4726850" lon="-4.0166140">
        <ele>664.0</ele>
        <time>2021-05-08T07:40:08Z</time>
      </trkpt>
      <trkpt lat="40.4727300" lon="-4.0166540">
        <ele>663.8</ele>
        <time>2021-05-08T07:40:09Z</time>
      </trkpt>
      <trkpt lat="40.4727770" lon="-4.0166960">
        <ele>663.7</ele>
        <time>2021-05-08T07:40:10Z</time>
      </trkpt>
      <trkpt lat="40.4728730" lon="-4.0167820">
        <ele>663.3</ele>
        <time>2021-05-08T07:40:12Z</time>
      </trkpt>
      <trkpt lat="40.4729250" lon="-4.0168240">
        <ele>663.1</ele>
        <time>2021-05-08T07:40:13Z</time>
      </trkpt>
      <trkpt lat="40.4730230" lon="-4.0169120">
        <ele>662.7</ele>
        <time>2021-05-08T07:40:15Z</time>
      </trkpt>
      <trkpt lat="40.4730870" lon="-4.0169720">
        <ele>662.4</ele>
        <time>2021-05-08T07:40:16Z</time>
      </trkpt>
      <trkpt lat="40.4731760" lon="-4.0170510">
        <ele>662.1</ele>
        <time>2021-05-08T07:40:18Z</time>
      </trkpt>
      <trkpt lat="40.4732320" lon="-4.0170980">
        <ele>661.9</ele>
        <time>2021-05-08T07:40:19Z</time>
      </trkpt>
      <trkpt lat="40.4732880" lon="-4.0171460">
        <ele>661.7</ele>
        <time>2021-05-08T07:40:20Z</time>
      </trkpt>
      <trkpt lat="40.4734000" lon="-4.0172360">
        <ele>661.3</ele>
        <time>2021-05-08T07:40:22Z</time>
      </trkpt>
      <trkpt lat="40.4734560" lon="-4.0172860">
        <ele>661.1</ele>
        <time>2021-05-08T07:40:23Z</time>
      </trkpt>
      <trkpt lat="40.4735160" lon="-4.0173350">
        <ele>660.9</ele>
        <time>2021-05-08T07:40:24Z</time>
      </trkpt>
      <trkpt lat="40.4736350" lon="-4.0174310">
        <ele>660.5</ele>
        <time>2021-05-08T07:40:26Z</time>
      </trkpt>
      <trkpt lat="40.4736930" lon="-4.0174810">
        <ele>660.3</ele>
        <time>2021-05-08T07:40:27Z</time>
      </trkpt>
      <trkpt lat="40.4738080" lon="-4.0175740">
        <ele>660.1</ele>
        <time>2021-05-08T07:40:29Z</time>
      </trkpt>
      <trkpt lat="40.4738680" lon="-4.0176190">
        <ele>660.1</ele>
        <time>2021-05-08T07:40:30Z</time>
      </trkpt>
      <trkpt lat="40.4739820" lon="-4.0177200">
        <ele>660.1</ele>
        <time>2021-05-08T07:40:32Z</time>
      </trkpt>
      <trkpt lat="40.4740990" lon="-4.0178210">
        <ele>660.0</ele>
        <time>2021-05-08T07:40:34Z</time>
      </trkpt>
      <trkpt lat="40.4742110" lon="-4.0179140">
        <ele>659.9</ele>
        <time>2021-05-08T07:40:36Z</time>
      </trkpt>
      <trkpt lat="40.4743210" lon="-4.0180010">
        <ele>659.8</ele>
        <time>2021-05-08T07:40:38Z</time>
      </trkpt>
      <trkpt lat="40.4743740" lon="-4.0180430">
        <ele>659.9</ele>
        <time>2021-05-08T07:40:39Z</time>
      </trkpt>
      <trkpt lat="40.4744800" lon="-4.0181240">
        <ele>659.9</ele>
        <time>2021-05-08T07:40:41Z</time>
      </trkpt>
      <trkpt lat="40.4745320" lon="-4.0181670">
        <ele>659.9</ele>
        <time>2021-05-08T07:40:42Z</time>
      </trkpt>
      <trkpt lat="40.4746290" lon="-4.0182480">
        <ele>660.0</ele>
        <time>2021-05-08T07:40:44Z</time>
      </trkpt>
      <trkpt lat="40.4746770" lon="-4.0182860">
        <ele>660.0</ele>
        <time>2021-05-08T07:40:45Z</time>
      </trkpt>
      <trkpt lat="40.4747770" lon="-4.0183590">
        <ele>660.1</ele>
        <time>2021-05-08T07:40:47Z</time>
      </trkpt>
      <trkpt lat="40.4748250" lon="-4.0183980">
        <ele>660.1</ele>
        <time>2021-05-08T07:40:48Z</time>
      </trkpt>
      <trkpt lat="40.4749200" lon="-4.0184760">
        <ele>660.2</ele>
        <time>2021-05-08T07:40:50Z</time>
      </trkpt>
      <trkpt lat="40.4749690" lon="-4.0185120">
        <ele>660.3</ele>
        <time>2021-05-08T07:40:51Z</time>
      </trkpt>
      <trkpt lat="40.4750180" lon="-4.0185500">
        <ele>660.4</ele>
        <time>2021-05-08T07:40:52Z</time>
      </trkpt>
      <trkpt lat="40.4751130" lon="-4.0186200">
        <ele>660.6</ele>
        <time>2021-05-08T07:40:54Z</time>
      </trkpt>
      <trkpt lat="40.4751580" lon="-4.0186540">
        <ele>660.7</ele>
        <time>2021-05-08T07:40:55Z</time>
      </trkpt>
      <trkpt lat="40.4752010" lon="-4.0186860">
        <ele>660.8</ele>
        <time>2021-05-08T07:40:56Z</time>
      </trkpt>
      <trkpt lat="40.4752430" lon="-4.0187220">
        <ele>660.9</ele>
        <time>2021-05-08T07:40:57Z</time>
      </trkpt>
      <trkpt lat="40.4753200" lon="-4.0187840">
        <ele>661.1</ele>
        <time>2021-05-08T07:40:59Z</time>
      </trkpt>
      <trkpt lat="40.4753580" lon="-4.0188200">
        <ele>661.3</ele>
        <time>2021-05-08T07:41:00Z</time>
      </trkpt>
      <trkpt lat="40.4754360" lon="-4.0188860">
        <ele>661.5</ele>
        <time>2021-05-08T07:41:02Z</time>
      </trkpt>
      <trkpt lat="40.4754750" lon="-4.0189140">
        <ele>661.7</ele>
        <time>2021-05-08T07:41:03Z</time>
      </trkpt>
      <trkpt lat="40.4755140" lon="-4.0189440">
        <ele>661.8</ele>
        <time>2021-05-08T07:41:04Z</time>
      </trkpt>
      <trkpt lat="40.4755310" lon="-4.0189580">
        <ele>661.9</ele>
        <time>2021-05-08T07:41:05Z</time>
      </trkpt>
      <trkpt lat="40.4756130" lon="-4.0190190">
        <ele>662.2</ele>
        <time>2021-05-08T07:41:07Z</time>
      </trkpt>
      <trkpt lat="40.4756580" lon="-4.0190520">
        <ele>662.4</ele>
        <time>2021-05-08T07:41:08Z</time>
      </trkpt>
      <trkpt lat="40.4757000" lon="-4.0190860">
        <ele>662.6</ele>
        <time>2021-05-08T07:41:09Z</time>
      </trkpt>
      <trkpt lat="40.4757260" lon="-4.0191080">
        <ele>662.7</ele>
        <time>2021-05-08T07:41:10Z</time>
      </trkpt>
      <trkpt lat="40.4757610" lon="-4.0191310">
        <ele>662.9</ele>
        <time>2021-05-08T07:41:11Z</time>
      </trkpt>
      <trkpt lat="40.4758110" lon="-4.0191720">
        <ele>663.1</ele>
        <time>2021-05-08T07:41:12Z</time>
      </trkpt>
      <trkpt lat="40.4758600" lon="-4.0192140">
        <ele>663.3</ele>
        <time>2021-05-08T07:41:14Z</time>
      </trkpt>
      <trkpt lat="40.4758940" lon="-4.0192450">
        <ele>663.4</ele>
        <time>2021-05-08T07:41:15Z</time>
      </trkpt>
      <trkpt lat="40.4759260" lon="-4.0192740">
        <ele>663.6</ele>
        <time>2021-05-08T07:41:16Z</time>
      </trkpt>
      <trkpt lat="40.4759650" lon="-4.0193080">
        <ele>663.7</ele>
        <time>2021-05-08T07:41:17Z</time>
      </trkpt>
      <trkpt lat="40.4760150" lon="-4.0193510">
        <ele>664.0</ele>
        <time>2021-05-08T07:41:18Z</time>
      </trkpt>
      <trkpt lat="40.4760600" lon="-4.0193960">
        <ele>664.2</ele>
        <time>2021-05-08T07:41:20Z</time>
      </trkpt>
      <trkpt lat="40.4760930" lon="-4.0194260">
        <ele>664.3</ele>
        <time>2021-05-08T07:41:21Z</time>
      </trkpt>
      <trkpt lat="40.4761270" lon="-4.0194520">
        <ele>664.4</ele>
        <time>2021-05-08T07:41:22Z</time>
      </trkpt>
      <trkpt lat="40.4761710" lon="-4.0194910">
        <ele>664.6</ele>
        <time>2021-05-08T07:41:23Z</time>
      </trkpt>
      <trkpt lat="40.4762060" lon="-4.0195210">
        <ele>664.8</ele>
        <time>2021-05-08T07:41:24Z</time>
      </trkpt>
      <trkpt lat="40.4762580" lon="-4.0195660">
        <ele>665.0</ele>
        <time>2021-05-08T07:41:26Z</time>
      </trkpt>
      <trkpt lat="40.4763050" lon="-4.0196030">
        <ele>665.2</ele>
        <time>2021-05-08T07:41:27Z</time>
      </trkpt>
      <trkpt lat="40.4763500" lon="-4.0196440">
        <ele>665.4</ele>
        <time>2021-05-08T07:41:29Z</time>
      </trkpt>
      <trkpt lat="40.4764180" lon="-4.0197010">
        <ele>665.8</ele>
        <time>2021-05-08T07:41:31Z</time>
      </trkpt>
      <trkpt lat="40.4764800" lon="-4.0197470">
        <ele>666.0</ele>
        <time>2021-05-08T07:41:33Z</time>
      </trkpt>
      <trkpt lat="40.4765440" lon="-4.0198000">
        <ele>666.3</ele>
        <time>2021-05-08T07:41:35Z</time>
      </trkpt>
      <trkpt lat="40.4765770" lon="-4.0198260">
        <ele>666.5</ele>
        <time>2021-05-08T07:41:36Z</time>
      </trkpt>
      <trkpt lat="40.4766360" lon="-4.0198730">
        <ele>666.8</ele>
        <time>2021-05-08T07:41:38Z</time>
      </trkpt>
      <trkpt lat="40.4767060" lon="-4.0199330">
        <ele>667.1</ele>
        <time>2021-05-08T07:41:40Z</time>
      </trkpt>
      <trkpt lat="40.4767440" lon="-4.0199650">
        <ele>667.3</ele>
        <time>2021-05-08T07:41:41Z</time>
      </trkpt>
      <trkpt lat="40.4767690" lon="-4.0199820">
        <ele>667.4</ele>
        <time>2021-05-08T07:41:42Z</time>
      </trkpt>
      <trkpt lat="40.4768050" lon="-4.0200060">
        <ele>667.5</ele>
        <time>2021-05-08T07:41:43Z</time>
      </trkpt>
      <trkpt lat="40.4768660" lon="-4.0200530">
        <ele>667.8</ele>
        <time>2021-05-08T07:41:45Z</time>
      </trkpt>
      <trkpt lat="40.4768980" lon="-4.0200810">
        <ele>668.0</ele>
        <time>2021-05-08T07:41:46Z</time>
      </trkpt>
      <trkpt lat="40.4769640" lon="-4.0201400">
        <ele>668.3</ele>
        <time>2021-05-08T07:41:48Z</time>
      </trkpt>
      <trkpt lat="40.4769960" lon="-4.0201640">
        <ele>668.5</ele>
        <time>2021-05-08T07:41:49Z</time>
      </trkpt>
      <trkpt lat="40.4770610" lon="-4.0202160">
        <ele>668.8</ele>
        <time>2021-05-08T07:41:51Z</time>
      </trkpt>
      <trkpt lat="40.4770940" lon="-4.0202430">
        <ele>669.0</ele>
        <time>2021-05-08T07:41:52Z</time>
      </trkpt>
      <trkpt lat="40.4771220" lon="-4.0202660">
        <ele>669.1</ele>
        <time>2021-05-08T07:41:53Z</time>
      </trkpt>
      <trkpt lat="40.4771810" lon="-4.0203160">
        <ele>669.4</ele>
        <time>2021-05-08T07:41:55Z</time>
      </trkpt>
      <trkpt lat="40.4772150" lon="-4.0203440">
        <ele>669.6</ele>
        <time>2021-05-08T07:41:56Z</time>
      </trkpt>
      <trkpt lat="40.4772300" lon="-4.0203560">
        <ele>669.6</ele>
        <time>2021-05-08T07:41:57Z</time>
      </trkpt>
      <trkpt lat="40.4772580" lon="-4.0203770">
        <ele>669.8</ele>
        <time>2021-05-08T07:41:58Z</time>
      </trkpt>
      <trkpt lat="40.4773180" lon="-4.0204280">
        <ele>670.0</ele>
        <time>2021-05-08T07:42:00Z</time>
      </trkpt>
      <trkpt lat="40.4773800" lon="-4.0204810">
        <ele>670.3</ele>
        <time>2021-05-08T07:42:02Z</time>
      </trkpt>
      <trkpt lat="40.4774060" lon="-4.0205030">
        <ele>670.4</ele>
        <time>2021-05-08T07:42:03Z</time>
      </trkpt>
      <trkpt lat="40.4774360" lon="-4.0205270">
        <ele>670.6</ele>
        <time>2021-05-08T07:42:04Z</time>
      </trkpt>
      <trkpt lat="40.4774830" lon="-4.0205640">
        <ele>670.8</ele>
        <time>2021-05-08T07:42:06Z</time>
      </trkpt>
      <trkpt lat="40.4775090" lon="-4.0205820">
        <ele>670.8</ele>
        <time>2021-05-08T07:42:07Z</time>
      </trkpt>
      <trkpt lat="40.4775670" lon="-4.0206270">
        <ele>671.0</ele>
        <time>2021-05-08T07:42:09Z</time>
      </trkpt>
      <trkpt lat="40.4775940" lon="-4.0206490">
        <ele>671.1</ele>
        <time>2021-05-08T07:42:10Z</time>
      </trkpt>
      <trkpt lat="40.4776550" lon="-4.0206980">
        <ele>671.3</ele>
        <time>2021-05-08T07:42:12Z</time>
      </trkpt>
      <trkpt lat="40.4777260" lon="-4.0207490">
        <ele>671.5</ele>
        <time>2021-05-08T07:42:14Z</time>
      </trkpt>
      <trkpt lat="40.4777730" lon="-4.0207850">
        <ele>671.6</ele>
        <time>2021-05-08T07:42:15Z</time>
      </trkpt>
      <trkpt lat="40.4778270" lon="-4.0208300">
        <ele>671.7</ele>
        <time>2021-05-08T07:42:17Z</time>
      </trkpt>
      <trkpt lat="40.4778680" lon="-4.0208620">
        <ele>671.8</ele>
        <time>2021-05-08T07:42:18Z</time>
      </trkpt>
      <trkpt lat="40.4779040" lon="-4.0208900">
        <ele>671.8</ele>
        <time>2021-05-08T07:42:19Z</time>
      </trkpt>
      <trkpt lat="40.4779440" lon="-4.0209220">
        <ele>671.9</ele>
        <time>2021-05-08T07:42:21Z</time>
      </trkpt>
      <trkpt lat="40.4779780" lon="-4.0209510">
        <ele>672.0</ele>
        <time>2021-05-08T07:42:22Z</time>
      </trkpt>
      <trkpt lat="40.4780140" lon="-4.0209820">
        <ele>672.1</ele>
        <time>2021-05-08T07:42:23Z</time>
      </trkpt>
      <trkpt lat="40.4780560" lon="-4.0210130">
        <ele>672.1</ele>
        <time>2021-05-08T07:42:24Z</time>
      </trkpt>
      <trkpt lat="40.4780990" lon="-4.0210470">
        <ele>672.2</ele>
        <time>2021-05-08T07:42:26Z</time>
      </trkpt>
      <trkpt lat="40.4781350" lon="-4.0210770">
        <ele>672.3</ele>
        <time>2021-05-08T07:42:27Z</time>
      </trkpt>
      <trkpt lat="40.4781700" lon="-4.0211040">
        <ele>672.3</ele>
        <time>2021-05-08T07:42:28Z</time>
      </trkpt>
      <trkpt lat="40.4782090" lon="-4.0211330">
        <ele>672.4</ele>
        <time>2021-05-08T07:42:29Z</time>
      </trkpt>
      <trkpt lat="40.4782450" lon="-4.0211630">
        <ele>672.4</ele>
        <time>2021-05-08T07:42:30Z</time>
      </trkpt>
      <trkpt lat="40.4782980" lon="-4.0212050">
        <ele>672.5</ele>
        <time>2021-05-08T07:42:32Z</time>
      </trkpt>
      <trkpt lat="40.4783600" lon="-4.0212580">
        <ele>672.6</ele>
        <time>2021-05-08T07:42:34Z</time>
      </trkpt>
      <trkpt lat="40.4784220" lon="-4.0213090">
        <ele>672.8</ele>
        <time>2021-05-08T07:42:36Z</time>
      </trkpt>
      <trkpt lat="40.4784670" lon="-4.0213450">
        <ele>672.9</ele>
        <time>2021-05-08T07:42:37Z</time>
      </trkpt>
      <trkpt lat="40.4785040" lon="-4.0213700">
        <ele>673.0</ele>
        <time>2021-05-08T07:42:38Z</time>
      </trkpt>
      <trkpt lat="40.4785380" lon="-4.0213960">
        <ele>673.1</ele>
        <time>2021-05-08T07:42:39Z</time>
      </trkpt>
      <trkpt lat="40.4785920" lon="-4.0214430">
        <ele>673.3</ele>
        <time>2021-05-08T07:42:40Z</time>
      </trkpt>
      <trkpt lat="40.4786370" lon="-4.0214770">
        <ele>673.5</ele>
        <time>2021-05-08T07:42:42Z</time>
      </trkpt>
      <trkpt lat="40.4786660" lon="-4.0215010">
        <ele>673.6</ele>
        <time>2021-05-08T07:42:43Z</time>
      </trkpt>
      <trkpt lat="40.4786930" lon="-4.0215210">
        <ele>673.8</ele>
        <time>2021-05-08T07:42:44Z</time>
      </trkpt>
      <trkpt lat="40.4787420" lon="-4.0215650">
        <ele>674.0</ele>
        <time>2021-05-08T07:42:46Z</time>
      </trkpt>
      <trkpt lat="40.4787710" lon="-4.0215880">
        <ele>674.1</ele>
        <time>2021-05-08T07:42:47Z</time>
      </trkpt>
      <trkpt lat="40.4788090" lon="-4.0216200">
        <ele>674.3</ele>
        <time>2021-05-08T07:42:48Z</time>
      </trkpt>
      <trkpt lat="40.4788460" lon="-4.0216510">
        <ele>674.5</ele>
        <time>2021-05-08T07:42:50Z</time>
      </trkpt>
      <trkpt lat="40.4788800" lon="-4.0216780">
        <ele>674.7</ele>
        <time>2021-05-08T07:42:51Z</time>
      </trkpt>
      <trkpt lat="40.4789140" lon="-4.0217050">
        <ele>674.9</ele>
        <time>2021-05-08T07:42:52Z</time>
      </trkpt>
      <trkpt lat="40.4789530" lon="-4.0217320">
        <ele>675.2</ele>
        <time>2021-05-08T07:42:54Z</time>
      </trkpt>
      <trkpt lat="40.4789830" lon="-4.0217540">
        <ele>675.4</ele>
        <time>2021-05-08T07:42:55Z</time>
      </trkpt>
      <trkpt lat="40.4790060" lon="-4.0217740">
        <ele>675.5</ele>
        <time>2021-05-08T07:42:56Z</time>
      </trkpt>
      <trkpt lat="40.4790450" lon="-4.0218080">
        <ele>675.8</ele>
        <time>2021-05-08T07:42:57Z</time>
      </trkpt>
      <trkpt lat="40.4790720" lon="-4.0218380">
        <ele>676.0</ele>
        <time>2021-05-08T07:42:59Z</time>
      </trkpt>
      <trkpt lat="40.4791000" lon="-4.0218620">
        <ele>676.2</ele>
        <time>2021-05-08T07:43:00Z</time>
      </trkpt>
      <trkpt lat="40.4791300" lon="-4.0218850">
        <ele>676.4</ele>
        <time>2021-05-08T07:43:01Z</time>
      </trkpt>
      <trkpt lat="40.4791590" lon="-4.0219080">
        <ele>676.6</ele>
        <time>2021-05-08T07:43:02Z</time>
      </trkpt>
      <trkpt lat="40.4791910" lon="-4.0219400">
        <ele>676.8</ele>
        <time>2021-05-08T07:43:04Z</time>
      </trkpt>
      <trkpt lat="40.4792220" lon="-4.0219640">
        <ele>677.1</ele>
        <time>2021-05-08T07:43:05Z</time>
      </trkpt>
      <trkpt lat="40.4792560" lon="-4.0219850">
        <ele>677.3</ele>
        <time>2021-05-08T07:43:06Z</time>
      </trkpt>
      <trkpt lat="40.4792940" lon="-4.0220190">
        <ele>677.6</ele>
        <time>2021-05-08T07:43:08Z</time>
      </trkpt>
      <trkpt lat="40.4793210" lon="-4.0220370">
        <ele>677.8</ele>
        <time>2021-05-08T07:43:09Z</time>
      </trkpt>
      <trkpt lat="40.4793560" lon="-4.0220640">
        <ele>678.0</ele>
        <time>2021-05-08T07:43:10Z</time>
      </trkpt>
      <trkpt lat="40.4793920" lon="-4.0220910">
        <ele>678.3</ele>
        <time>2021-05-08T07:43:12Z</time>
      </trkpt>
      <trkpt lat="40.4794250" lon="-4.0221210">
        <ele>678.6</ele>
        <time>2021-05-08T07:43:13Z</time>
      </trkpt>
      <trkpt lat="40.4794500" lon="-4.0221420">
        <ele>678.7</ele>
        <time>2021-05-08T07:43:14Z</time>
      </trkpt>
      <trkpt lat="40.4794800" lon="-4.0221680">
        <ele>679.0</ele>
        <time>2021-05-08T07:43:15Z</time>
      </trkpt>
      <trkpt lat="40.4795110" lon="-4.0221940">
        <ele>679.2</ele>
        <time>2021-05-08T07:43:16Z</time>
      </trkpt>
      <trkpt lat="40.4795720" lon="-4.0222400">
        <ele>679.6</ele>
        <time>2021-05-08T07:43:18Z</time>
      </trkpt>
      <trkpt lat="40.4796130" lon="-4.0222770">
        <ele>679.9</ele>
        <time>2021-05-08T07:43:19Z</time>
      </trkpt>
      <trkpt lat="40.4796450" lon="-4.0223040">
        <ele>680.1</ele>
        <time>2021-05-08T07:43:21Z</time>
      </trkpt>
      <trkpt lat="40.4797030" lon="-4.0223430">
        <ele>680.5</ele>
        <time>2021-05-08T07:43:23Z</time>
      </trkpt>
      <trkpt lat="40.4797430" lon="-4.0223790">
        <ele>680.8</ele>
        <time>2021-05-08T07:43:24Z</time>
      </trkpt>
      <trkpt lat="40.4797860" lon="-4.0224090">
        <ele>681.1</ele>
        <time>2021-05-08T07:43:26Z</time>
      </trkpt>
      <trkpt lat="40.4798110" lon="-4.0224320">
        <ele>681.3</ele>
        <time>2021-05-08T07:43:27Z</time>
      </trkpt>
      <trkpt lat="40.4798370" lon="-4.0224540">
        <ele>681.5</ele>
        <time>2021-05-08T07:43:28Z</time>
      </trkpt>
      <trkpt lat="40.4798830" lon="-4.0224920">
        <ele>681.8</ele>
        <time>2021-05-08T07:43:30Z</time>
      </trkpt>
      <trkpt lat="40.4799190" lon="-4.0225210">
        <ele>682.1</ele>
        <time>2021-05-08T07:43:31Z</time>
      </trkpt>
      <trkpt lat="40.4799610" lon="-4.0225580">
        <ele>682.4</ele>
        <time>2021-05-08T07:43:32Z</time>
      </trkpt>
      <trkpt lat="40.4799940" lon="-4.0225830">
        <ele>682.6</ele>
        <time>2021-05-08T07:43:34Z</time>
      </trkpt>
      <trkpt lat="40.4800280" lon="-4.0226090">
        <ele>682.8</ele>
        <time>2021-05-08T07:43:35Z</time>
      </trkpt>
      <trkpt lat="40.4800570" lon="-4.0226290">
        <ele>683.0</ele>
        <time>2021-05-08T07:43:36Z</time>
      </trkpt>
      <trkpt lat="40.4800940" lon="-4.0226580">
        <ele>683.3</ele>
        <time>2021-05-08T07:43:37Z</time>
      </trkpt>
      <trkpt lat="40.4801520" lon="-4.0227060">
        <ele>683.7</ele>
        <time>2021-05-08T07:43:39Z</time>
      </trkpt>
      <trkpt lat="40.4801760" lon="-4.0227220">
        <ele>683.8</ele>
        <time>2021-05-08T07:43:40Z</time>
      </trkpt>
      <trkpt lat="40.4802280" lon="-4.0227520">
        <ele>684.2</ele>
        <time>2021-05-08T07:43:42Z</time>
      </trkpt>
      <trkpt lat="40.4802700" lon="-4.0227760">
        <ele>684.4</ele>
        <time>2021-05-08T07:43:43Z</time>
      </trkpt>
      <trkpt lat="40.4803280" lon="-4.0228120">
        <ele>684.8</ele>
        <time>2021-05-08T07:43:45Z</time>
      </trkpt>
      <trkpt lat="40.4803620" lon="-4.0228320">
        <ele>685.0</ele>
        <time>2021-05-08T07:43:46Z</time>
      </trkpt>
      <trkpt lat="40.4803760" lon="-4.0228390">
        <ele>685.1</ele>
        <time>2021-05-08T07:43:47Z</time>
      </trkpt>
      <trkpt lat="40.4804090" lon="-4.0228510">
        <ele>685.3</ele>
        <time>2021-05-08T07:43:48Z</time>
      </trkpt>
      <trkpt lat="40.4804460" lon="-4.0228640">
        <ele>685.5</ele>
        <time>2021-05-08T07:43:50Z</time>
      </trkpt>
      <trkpt lat="40.4804810" lon="-4.0228750">
        <ele>685.7</ele>
        <time>2021-05-08T07:43:51Z</time>
      </trkpt>
      <trkpt lat="40.4805370" lon="-4.0228900">
        <ele>686.0</ele>
        <time>2021-05-08T07:43:53Z</time>
      </trkpt>
      <trkpt lat="40.4805710" lon="-4.0228990">
        <ele>686.2</ele>
        <time>2021-05-08T07:43:54Z</time>
      </trkpt>
      <trkpt lat="40.4806250" lon="-4.0229100">
        <ele>686.5</ele>
        <time>2021-05-08T07:43:55Z</time>
      </trkpt>
      <trkpt lat="40.4806550" lon="-4.0229130">
        <ele>686.7</ele>
        <time>2021-05-08T07:43:56Z</time>
      </trkpt>
      <trkpt lat="40.4806970" lon="-4.0229200">
        <ele>686.9</ele>
        <time>2021-05-08T07:43:58Z</time>
      </trkpt>
      <trkpt lat="40.4807430" lon="-4.0229290">
        <ele>687.2</ele>
        <time>2021-05-08T07:43:59Z</time>
      </trkpt>
      <trkpt lat="40.4808000" lon="-4.0229420">
        <ele>687.5</ele>
        <time>2021-05-08T07:44:01Z</time>
      </trkpt>
      <trkpt lat="40.4808270" lon="-4.0229470">
        <ele>687.6</ele>
        <time>2021-05-08T07:44:02Z</time>
      </trkpt>
      <trkpt lat="40.4808890" lon="-4.0229560">
        <ele>687.9</ele>
        <time>2021-05-08T07:44:04Z</time>
      </trkpt>
      <trkpt lat="40.4809350" lon="-4.0229700">
        <ele>688.2</ele>
        <time>2021-05-08T07:44:05Z</time>
      </trkpt>
      <trkpt lat="40.4809750" lon="-4.0229830">
        <ele>688.4</ele>
        <time>2021-05-08T07:44:07Z</time>
      </trkpt>
      <trkpt lat="40.4810090" lon="-4.0229970">
        <ele>688.5</ele>
        <time>2021-05-08T07:44:08Z</time>
      </trkpt>
      <trkpt lat="40.4810560" lon="-4.0230210">
        <ele>688.6</ele>
        <time>2021-05-08T07:44:09Z</time>
      </trkpt>
      <trkpt lat="40.4811000" lon="-4.0230370">
        <ele>688.7</ele>
        <time>2021-05-08T07:44:11Z</time>
      </trkpt>
      <trkpt lat="40.4811370" lon="-4.0230440">
        <ele>688.7</ele>
        <time>2021-05-08T07:44:12Z</time>
      </trkpt>
      <trkpt lat="40.4811730" lon="-4.0230540">
        <ele>688.8</ele>
        <time>2021-05-08T07:44:13Z</time>
      </trkpt>
      <trkpt lat="40.4812100" lon="-4.0230650">
        <ele>688.9</ele>
        <time>2021-05-08T07:44:14Z</time>
      </trkpt>
      <trkpt lat="40.4812680" lon="-4.0230770">
        <ele>689.0</ele>
        <time>2021-05-08T07:44:16Z</time>
      </trkpt>
      <trkpt lat="40.4813140" lon="-4.0230900">
        <ele>689.0</ele>
        <time>2021-05-08T07:44:17Z</time>
      </trkpt>
      <trkpt lat="40.4813610" lon="-4.0231050">
        <ele>689.1</ele>
        <time>2021-05-08T07:44:18Z</time>
      </trkpt>
      <trkpt lat="40.4814130" lon="-4.0231150">
        <ele>689.1</ele>
        <time>2021-05-08T07:44:20Z</time>
      </trkpt>
      <trkpt lat="40.4814660" lon="-4.0231260">
        <ele>689.2</ele>
        <time>2021-05-08T07:44:21Z</time>
      </trkpt>
      <trkpt lat="40.4815230" lon="-4.0231390">
        <ele>689.2</ele>
        <time>2021-05-08T07:44:23Z</time>
      </trkpt>
      <trkpt lat="40.4815610" lon="-4.0231510">
        <ele>689.2</ele>
        <time>2021-05-08T07:44:24Z</time>
      </trkpt>
      <trkpt lat="40.4815990" lon="-4.0231610">
        <ele>689.3</ele>
        <time>2021-05-08T07:44:25Z</time>
      </trkpt>
      <trkpt lat="40.4816520" lon="-4.0231760">
        <ele>689.3</ele>
        <time>2021-05-08T07:44:26Z</time>
      </trkpt>
      <trkpt lat="40.4816960" lon="-4.0231920">
        <ele>689.3</ele>
        <time>2021-05-08T07:44:27Z</time>
      </trkpt>
      <trkpt lat="40.4817450" lon="-4.0232090">
        <ele>689.4</ele>
        <time>2021-05-08T07:44:29Z</time>
      </trkpt>
      <trkpt lat="40.4817880" lon="-4.0232180">
        <ele>689.4</ele>
        <time>2021-05-08T07:44:30Z</time>
      </trkpt>
      <trkpt lat="40.4818400" lon="-4.0232300">
        <ele>689.5</ele>
        <time>2021-05-08T07:44:31Z</time>
      </trkpt>
      <trkpt lat="40.4818960" lon="-4.0232480">
        <ele>689.6</ele>
        <time>2021-05-08T07:44:33Z</time>
      </trkpt>
      <trkpt lat="40.4819450" lon="-4.0232580">
        <ele>689.7</ele>
        <time>2021-05-08T07:44:34Z</time>
      </trkpt>
      <trkpt lat="40.4819950" lon="-4.0232740">
        <ele>689.7</ele>
        <time>2021-05-08T07:44:35Z</time>
      </trkpt>
      <trkpt lat="40.4820420" lon="-4.0232920">
        <ele>689.8</ele>
        <time>2021-05-08T07:44:37Z</time>
      </trkpt>
      <trkpt lat="40.4820990" lon="-4.0233140">
        <ele>689.9</ele>
        <time>2021-05-08T07:44:39Z</time>
      </trkpt>
      <trkpt lat="40.4821390" lon="-4.0233310">
        <ele>689.9</ele>
        <time>2021-05-08T07:44:40Z</time>
      </trkpt>
      <trkpt lat="40.4821740" lon="-4.0233480">
        <ele>690.0</ele>
        <time>2021-05-08T07:44:41Z</time>
      </trkpt>
      <trkpt lat="40.4822110" lon="-4.0233700">
        <ele>690.0</ele>
        <time>2021-05-08T07:44:42Z</time>
      </trkpt>
      <trkpt lat="40.4822450" lon="-4.0233910">
        <ele>690.1</ele>
        <time>2021-05-08T07:44:43Z</time>
      </trkpt>
      <trkpt lat="40.4822800" lon="-4.0234180">
        <ele>690.1</ele>
        <time>2021-05-08T07:44:44Z</time>
      </trkpt>
      <trkpt lat="40.4823140" lon="-4.0234520">
        <ele>690.2</ele>
        <time>2021-05-08T07:44:45Z</time>
      </trkpt>
      <trkpt lat="40.4823490" lon="-4.0234910">
        <ele>690.2</ele>
        <time>2021-05-08T07:44:46Z</time>
      </trkpt>
      <trkpt lat="40.4823930" lon="-4.0235560">
        <ele>690.3</ele>
        <time>2021-05-08T07:44:48Z</time>
      </trkpt>
      <trkpt lat="40.4824200" lon="-4.0236080">
        <ele>690.4</ele>
        <time>2021-05-08T07:44:49Z</time>
      </trkpt>
      <trkpt lat="40.4824600" lon="-4.0236940">
        <ele>690.6</ele>
        <time>2021-05-08T07:44:50Z</time>
      </trkpt>
      <trkpt lat="40.4824730" lon="-4.0237380">
        <ele>690.7</ele>
        <time>2021-05-08T07:44:51Z</time>
      </trkpt>
      <trkpt lat="40.4824840" lon="-4.0237910">
        <ele>690.8</ele>
        <time>2021-05-08T07:44:52Z</time>
      </trkpt>
      <trkpt lat="40.4824890" lon="-4.0238410">
        <ele>690.9</ele>
        <time>2021-05-08T07:44:53Z</time>
      </trkpt>
      <trkpt lat="40.4824940" lon="-4.0238950">
        <ele>691.0</ele>
        <time>2021-05-08T07:44:54Z</time>
      </trkpt>
      <trkpt lat="40.4824980" lon="-4.0239400">
        <ele>691.1</ele>
        <time>2021-05-08T07:44:55Z</time>
      </trkpt>
      <trkpt lat="40.4825010" lon="-4.0239970">
        <ele>691.2</ele>
        <time>2021-05-08T07:44:56Z</time>
      </trkpt>
      <trkpt lat="40.4824990" lon="-4.0240670">
        <ele>691.4</ele>
        <time>2021-05-08T07:44:58Z</time>
      </trkpt>
      <trkpt lat="40.4825040" lon="-4.0241480">
        <ele>691.6</ele>
        <time>2021-05-08T07:45:00Z</time>
      </trkpt>
      <trkpt lat="40.4825070" lon="-4.0242010">
        <ele>691.7</ele>
        <time>2021-05-08T07:45:01Z</time>
      </trkpt>
      <trkpt lat="40.4825100" lon="-4.0242470">
        <ele>691.9</ele>
        <time>2021-05-08T07:45:02Z</time>
      </trkpt>
      <trkpt lat="40.4825120" lon="-4.0243070">
        <ele>692.1</ele>
        <time>2021-05-08T07:45:03Z</time>
      </trkpt>
      <trkpt lat="40.4825140" lon="-4.0243650">
        <ele>692.2</ele>
        <time>2021-05-08T07:45:04Z</time>
      </trkpt>
      <trkpt lat="40.4825150" lon="-4.0244240">
        <ele>692.4</ele>
        <time>2021-05-08T07:45:06Z</time>
      </trkpt>
      <trkpt lat="40.4825170" lon="-4.0244890">
        <ele>692.6</ele>
        <time>2021-05-08T07:45:07Z</time>
      </trkpt>
      <trkpt lat="40.4825220" lon="-4.0245670">
        <ele>692.9</ele>
        <time>2021-05-08T07:45:09Z</time>
      </trkpt>
      <trkpt lat="40.4825310" lon="-4.0246410">
        <ele>693.1</ele>
        <time>2021-05-08T07:45:10Z</time>
      </trkpt>
      <trkpt lat="40.4825360" lon="-4.0246890">
        <ele>693.2</ele>
        <time>2021-05-08T07:45:11Z</time>
      </trkpt>
      <trkpt lat="40.4825400" lon="-4.0247350">
        <ele>693.4</ele>
        <time>2021-05-08T07:45:12Z</time>
      </trkpt>
      <trkpt lat="40.4825500" lon="-4.0248090">
        <ele>693.6</ele>
        <time>2021-05-08T07:45:14Z</time>
      </trkpt>
      <trkpt lat="40.4825610" lon="-4.0248660">
        <ele>693.7</ele>
        <time>2021-05-08T07:45:15Z</time>
      </trkpt>
      <trkpt lat="40.4825880" lon="-4.0249710">
        <ele>694.1</ele>
        <time>2021-05-08T07:45:17Z</time>
      </trkpt>
      <trkpt lat="40.4826020" lon="-4.0250170">
        <ele>694.2</ele>
        <time>2021-05-08T07:45:18Z</time>
      </trkpt>
      <trkpt lat="40.4826180" lon="-4.0250590">
        <ele>694.3</ele>
        <time>2021-05-08T07:45:19Z</time>
      </trkpt>
      <trkpt lat="40.4826350" lon="-4.0251000">
        <ele>694.5</ele>
        <time>2021-05-08T07:45:20Z</time>
      </trkpt>
      <trkpt lat="40.4826540" lon="-4.0251420">
        <ele>694.6</ele>
        <time>2021-05-08T07:45:21Z</time>
      </trkpt>
      <trkpt lat="40.4826830" lon="-4.0252020">
        <ele>694.8</ele>
        <time>2021-05-08T07:45:22Z</time>
      </trkpt>
      <trkpt lat="40.4827090" lon="-4.0252560">
        <ele>695.0</ele>
        <time>2021-05-08T07:45:24Z</time>
      </trkpt>
      <trkpt lat="40.4827270" lon="-4.0252970">
        <ele>695.1</ele>
        <time>2021-05-08T07:45:25Z</time>
      </trkpt>
      <trkpt lat="40.4827440" lon="-4.0253370">
        <ele>695.3</ele>
        <time>2021-05-08T07:45:26Z</time>
      </trkpt>
      <trkpt lat="40.4827660" lon="-4.0253800">
        <ele>695.4</ele>
        <time>2021-05-08T07:45:27Z</time>
      </trkpt>
      <trkpt lat="40.4827910" lon="-4.0254210">
        <ele>695.5</ele>
        <time>2021-05-08T07:45:28Z</time>
      </trkpt>
      <trkpt lat="40.4828140" lon="-4.0254540">
        <ele>695.7</ele>
        <time>2021-05-08T07:45:29Z</time>
      </trkpt>
      <trkpt lat="40.4828400" lon="-4.0254980">
        <ele>695.8</ele>
        <time>2021-05-08T07:45:30Z</time>
      </trkpt>
      <trkpt lat="40.4828630" lon="-4.0255390">
        <ele>696.0</ele>
        <time>2021-05-08T07:45:32Z</time>
      </trkpt>
      <trkpt lat="40.4828830" lon="-4.0255800">
        <ele>696.1</ele>
        <time>2021-05-08T07:45:33Z</time>
      </trkpt>
      <trkpt lat="40.4829120" lon="-4.0256260">
        <ele>696.3</ele>
        <time>2021-05-08T07:45:34Z</time>
      </trkpt>
      <trkpt lat="40.4829360" lon="-4.0256640">
        <ele>696.4</ele>
        <time>2021-05-08T07:45:35Z</time>
      </trkpt>
      <trkpt lat="40.4829790" lon="-4.0257400">
        <ele>696.7</ele>
        <time>2021-05-08T07:45:37Z</time>
      </trkpt>
      <trkpt lat="40.4829950" lon="-4.0257710">
        <ele>696.8</ele>
        <time>2021-05-08T07:45:38Z</time>
      </trkpt>
      <trkpt lat="40.4830160" lon="-4.0258080">
        <ele>696.9</ele>
        <time>2021-05-08T07:45:39Z</time>
      </trkpt>
      <trkpt lat="40.4830400" lon="-4.0258510">
        <ele>697.1</ele>
        <time>2021-05-08T07:45:40Z</time>
      </trkpt>
      <trkpt lat="40.4830650" lon="-4.0258920">
        <ele>697.3</ele>
        <time>2021-05-08T07:45:42Z</time>
      </trkpt>
      <trkpt lat="40.4830880" lon="-4.0259260">
        <ele>697.4</ele>
        <time>2021-05-08T07:45:43Z</time>
      </trkpt>
      <trkpt lat="40.4831090" lon="-4.0259610">
        <ele>697.5</ele>
        <time>2021-05-08T07:45:44Z</time>
      </trkpt>
      <trkpt lat="40.4831300" lon="-4.0259940">
        <ele>697.7</ele>
        <time>2021-05-08T07:45:45Z</time>
      </trkpt>
      <trkpt lat="40.4831650" lon="-4.0260600">
        <ele>698.0</ele>
        <time>2021-05-08T07:45:47Z</time>
      </trkpt>
      <trkpt lat="40.4831860" lon="-4.0261050">
        <ele>698.2</ele>
        <time>2021-05-08T07:45:48Z</time>
      </trkpt>
      <trkpt lat="40.4832090" lon="-4.0261440">
        <ele>698.4</ele>
        <time>2021-05-08T07:45:49Z</time>
      </trkpt>
      <trkpt lat="40.4832380" lon="-4.0261940">
        <ele>698.7</ele>
        <time>2021-05-08T07:45:51Z</time>
      </trkpt>
      <trkpt lat="40.4832550" lon="-4.0262240">
        <ele>698.9</ele>
        <time>2021-05-08T07:45:52Z</time>
      </trkpt>
      <trkpt lat="40.4832810" lon="-4.0262680">
        <ele>699.1</ele>
        <time>2021-05-08T07:45:53Z</time>
      </trkpt>
      <trkpt lat="40.4832910" lon="-4.0262860">
        <ele>699.2</ele>
        <time>2021-05-08T07:45:54Z</time>
      </trkpt>
      <trkpt lat="40.4833320" lon="-4.0263510">
        <ele>699.7</ele>
        <time>2021-05-08T07:45:56Z</time>
      </trkpt>
      <trkpt lat="40.4833620" lon="-4.0264060">
        <ele>700.0</ele>
        <time>2021-05-08T07:45:58Z</time>
      </trkpt>
      <trkpt lat="40.4833810" lon="-4.0264420">
        <ele>700.2</ele>
        <time>2021-05-08T07:45:59Z</time>
      </trkpt>
      <trkpt lat="40.4834050" lon="-4.0264860">
        <ele>700.5</ele>
        <time>2021-05-08T07:46:00Z</time>
      </trkpt>
      <trkpt lat="40.4834420" lon="-4.0265420">
        <ele>700.9</ele>
        <time>2021-05-08T07:46:02Z</time>
      </trkpt>
      <trkpt lat="40.4834720" lon="-4.0265830">
        <ele>701.2</ele>
        <time>2021-05-08T07:46:04Z</time>
      </trkpt>
      <trkpt lat="40.4834930" lon="-4.0266160">
        <ele>701.4</ele>
        <time>2021-05-08T07:46:05Z</time>
      </trkpt>
      <trkpt lat="40.4835240" lon="-4.0266550">
        <ele>701.7</ele>
        <time>2021-05-08T07:46:06Z</time>
      </trkpt>
      <trkpt lat="40.4835510" lon="-4.0266860">
        <ele>702.0</ele>
        <time>2021-05-08T07:46:08Z</time>
      </trkpt>
      <trkpt lat="40.4835780" lon="-4.0267130">
        <ele>702.3</ele>
        <time>2021-05-08T07:46:09Z</time>
      </trkpt>
      <trkpt lat="40.4836010" lon="-4.0267390">
        <ele>702.5</ele>
        <time>2021-05-08T07:46:10Z</time>
      </trkpt>
      <trkpt lat="40.4836310" lon="-4.0267730">
        <ele>702.8</ele>
        <time>2021-05-08T07:46:11Z</time>
      </trkpt>
      <trkpt lat="40.4836590" lon="-4.0268020">
        <ele>703.1</ele>
        <time>2021-05-08T07:46:12Z</time>
      </trkpt>
      <trkpt lat="40.4836880" lon="-4.0268330">
        <ele>703.3</ele>
        <time>2021-05-08T07:46:14Z</time>
      </trkpt>
      <trkpt lat="40.4837200" lon="-4.0268650">
        <ele>703.7</ele>
        <time>2021-05-08T07:46:15Z</time>
      </trkpt>
      <trkpt lat="40.4837540" lon="-4.0268910">
        <ele>704.0</ele>
        <time>2021-05-08T07:46:17Z</time>
      </trkpt>
      <trkpt lat="40.4837820" lon="-4.0269080">
        <ele>704.2</ele>
        <time>2021-05-08T07:46:18Z</time>
      </trkpt>
      <trkpt lat="40.4838120" lon="-4.0269270">
        <ele>704.4</ele>
        <time>2021-05-08T07:46:19Z</time>
      </trkpt>
      <trkpt lat="40.4838450" lon="-4.0269440">
        <ele>704.7</ele>
        <time>2021-05-08T07:46:20Z</time>
      </trkpt>
      <trkpt lat="40.4838960" lon="-4.0269640">
        <ele>705.1</ele>
        <time>2021-05-08T07:46:22Z</time>
      </trkpt>
      <trkpt lat="40.4839380" lon="-4.0269770">
        <ele>705.4</ele>
        <time>2021-05-08T07:46:23Z</time>
      </trkpt>
      <trkpt lat="40.4839540" lon="-4.0269820">
        <ele>705.6</ele>
        <time>2021-05-08T07:46:24Z</time>
      </trkpt>
      <trkpt lat="40.4839970" lon="-4.0269940">
        <ele>705.9</ele>
        <time>2021-05-08T07:46:26Z</time>
      </trkpt>
      <trkpt lat="40.4840290" lon="-4.0270000">
        <ele>706.2</ele>
        <time>2021-05-08T07:46:27Z</time>
      </trkpt>
      <trkpt lat="40.4840570" lon="-4.0270030">
        <ele>706.4</ele>
        <time>2021-05-08T07:46:28Z</time>
      </trkpt>
      <trkpt lat="40.4841060" lon="-4.0270060">
        <ele>706.7</ele>
        <time>2021-05-08T07:46:30Z</time>
      </trkpt>
      <trkpt lat="40.4841360" lon="-4.0270030">
        <ele>707.0</ele>
        <time>2021-05-08T07:46:31Z</time>
      </trkpt>
      <trkpt lat="40.4841740" lon="-4.0269970">
        <ele>707.3</ele>
        <time>2021-05-08T07:46:32Z</time>
      </trkpt>
      <trkpt lat="40.4842050" lon="-4.0269920">
        <ele>707.5</ele>
        <time>2021-05-08T07:46:33Z</time>
      </trkpt>
      <trkpt lat="40.4842360" lon="-4.0269930">
        <ele>707.8</ele>
        <time>2021-05-08T07:46:34Z</time>
      </trkpt>
      <trkpt lat="40.4842710" lon="-4.0269880">
        <ele>708.0</ele>
        <time>2021-05-08T07:46:36Z</time>
      </trkpt>
      <trkpt lat="40.4843010" lon="-4.0269800">
        <ele>708.3</ele>
        <time>2021-05-08T07:46:37Z</time>
      </trkpt>
      <trkpt lat="40.4843580" lon="-4.0269780">
        <ele>708.7</ele>
        <time>2021-05-08T07:46:39Z</time>
      </trkpt>
      <trkpt lat="40.4843860" lon="-4.0269760">
        <ele>708.9</ele>
        <time>2021-05-08T07:46:40Z</time>
      </trkpt>
      <trkpt lat="40.4844200" lon="-4.0269710">
        <ele>709.2</ele>
        <time>2021-05-08T07:46:41Z</time>
      </trkpt>
      <trkpt lat="40.4844610" lon="-4.0269700">
        <ele>709.5</ele>
        <time>2021-05-08T07:46:43Z</time>
      </trkpt>
      <trkpt lat="40.4845100" lon="-4.0269680">
        <ele>709.9</ele>
        <time>2021-05-08T07:46:45Z</time>
      </trkpt>
      <trkpt lat="40.4845440" lon="-4.0269660">
        <ele>710.1</ele>
        <time>2021-05-08T07:46:46Z</time>
      </trkpt>
      <trkpt lat="40.4845980" lon="-4.0269610">
        <ele>710.5</ele>
        <time>2021-05-08T07:46:48Z</time>
      </trkpt>
      <trkpt lat="40.4846400" lon="-4.0269590">
        <ele>710.9</ele>
        <time>2021-05-08T07:46:49Z</time>
      </trkpt>
      <trkpt lat="40.4846540" lon="-4.0269580">
        <ele>711.0</ele>
        <time>2021-05-08T07:46:50Z</time>
      </trkpt>
      <trkpt lat="40.4847000" lon="-4.0269520">
        <ele>711.3</ele>
        <time>2021-05-08T07:46:52Z</time>
      </trkpt>
      <trkpt lat="40.4847420" lon="-4.0269460">
        <ele>711.6</ele>
        <time>2021-05-08T07:46:53Z</time>
      </trkpt>
      <trkpt lat="40.4847560" lon="-4.0269450">
        <ele>711.7</ele>
        <time>2021-05-08T07:46:54Z</time>
      </trkpt>
      <trkpt lat="40.4847830" lon="-4.0269400">
        <ele>712.0</ele>
        <time>2021-05-08T07:46:55Z</time>
      </trkpt>
      <trkpt lat="40.4848310" lon="-4.0269390">
        <ele>712.3</ele>
        <time>2021-05-08T07:46:56Z</time>
      </trkpt>
      <trkpt lat="40.4848520" lon="-4.0269390">
        <ele>712.5</ele>
        <time>2021-05-08T07:46:57Z</time>
      </trkpt>
      <trkpt lat="40.4848940" lon="-4.0269330">
        <ele>712.8</ele>
        <time>2021-05-08T07:46:59Z</time>
      </trkpt>
      <trkpt lat="40.4849520" lon="-4.0269250">
        <ele>713.3</ele>
        <time>2021-05-08T07:47:01Z</time>
      </trkpt>
      <trkpt lat="40.4849770" lon="-4.0269190">
        <ele>713.4</ele>
        <time>2021-05-08T07:47:02Z</time>
      </trkpt>
      <trkpt lat="40.4850250" lon="-4.0269160">
        <ele>713.8</ele>
        <time>2021-05-08T07:47:04Z</time>
      </trkpt>
      <trkpt lat="40.4850620" lon="-4.0269090">
        <ele>714.1</ele>
        <time>2021-05-08T07:47:05Z</time>
      </trkpt>
      <trkpt lat="40.4851110" lon="-4.0268980">
        <ele>714.5</ele>
        <time>2021-05-08T07:47:07Z</time>
      </trkpt>
      <trkpt lat="40.4851260" lon="-4.0268910">
        <ele>714.6</ele>
        <time>2021-05-08T07:47:08Z</time>
      </trkpt>
      <trkpt lat="40.4851420" lon="-4.0268850">
        <ele>714.7</ele>
        <time>2021-05-08T07:47:09Z</time>
      </trkpt>
      <trkpt lat="40.4851880" lon="-4.0268740">
        <ele>715.1</ele>
        <time>2021-05-08T07:47:11Z</time>
      </trkpt>
      <trkpt lat="40.4852150" lon="-4.0268690">
        <ele>715.3</ele>
        <time>2021-05-08T07:47:12Z</time>
      </trkpt>
      <trkpt lat="40.4852540" lon="-4.0268570">
        <ele>715.6</ele>
        <time>2021-05-08T07:47:14Z</time>
      </trkpt>
      <trkpt lat="40.4852810" lon="-4.0268510">
        <ele>715.8</ele>
        <time>2021-05-08T07:47:15Z</time>
      </trkpt>
      <trkpt lat="40.4853130" lon="-4.0268450">
        <ele>716.0</ele>
        <time>2021-05-08T07:47:16Z</time>
      </trkpt>
      <trkpt lat="40.4853410" lon="-4.0268430">
        <ele>716.3</ele>
        <time>2021-05-08T07:47:17Z</time>
      </trkpt>
      <trkpt lat="40.4853850" lon="-4.0268510">
        <ele>716.6</ele>
        <time>2021-05-08T07:47:18Z</time>
      </trkpt>
      <trkpt lat="40.4854150" lon="-4.0268610">
        <ele>716.8</ele>
        <time>2021-05-08T07:47:20Z</time>
      </trkpt>
      <trkpt lat="40.4854420" lon="-4.0268730">
        <ele>717.1</ele>
        <time>2021-05-08T07:47:21Z</time>
      </trkpt>
      <trkpt lat="40.4854710" lon="-4.0268930">
        <ele>717.3</ele>
        <time>2021-05-08T07:47:23Z</time>
      </trkpt>
      <trkpt lat="40.4854980" lon="-4.0269200">
        <ele>717.6</ele>
        <time>2021-05-08T07:47:24Z</time>
      </trkpt>
      <trkpt lat="40.4855200" lon="-4.0269430">
        <ele>717.8</ele>
        <time>2021-05-08T07:47:25Z</time>
      </trkpt>
      <trkpt lat="40.4855400" lon="-4.0269690">
        <ele>718.0</ele>
        <time>2021-05-08T07:47:27Z</time>
      </trkpt>
      <trkpt lat="40.4855600" lon="-4.0269990">
        <ele>718.2</ele>
        <time>2021-05-08T07:47:28Z</time>
      </trkpt>
      <trkpt lat="40.4855780" lon="-4.0270290">
        <ele>718.5</ele>
        <time>2021-05-08T07:47:29Z</time>
      </trkpt>
      <trkpt lat="40.4855940" lon="-4.0270580">
        <ele>718.7</ele>
        <time>2021-05-08T07:47:30Z</time>
      </trkpt>
      <trkpt lat="40.4856080" lon="-4.0271010">
        <ele>718.9</ele>
        <time>2021-05-08T07:47:31Z</time>
      </trkpt>
      <trkpt lat="40.4856210" lon="-4.0271410">
        <ele>719.2</ele>
        <time>2021-05-08T07:47:33Z</time>
      </trkpt>
      <trkpt lat="40.4856280" lon="-4.0271760">
        <ele>719.4</ele>
        <time>2021-05-08T07:47:34Z</time>
      </trkpt>
      <trkpt lat="40.4856290" lon="-4.0272350">
        <ele>719.7</ele>
        <time>2021-05-08T07:47:35Z</time>
      </trkpt>
      <trkpt lat="40.4856280" lon="-4.0272590">
        <ele>719.9</ele>
        <time>2021-05-08T07:47:36Z</time>
      </trkpt>
      <trkpt lat="40.4856260" lon="-4.0273250">
        <ele>720.2</ele>
        <time>2021-05-08T07:47:38Z</time>
      </trkpt>
      <trkpt lat="40.4856250" lon="-4.0273740">
        <ele>720.5</ele>
        <time>2021-05-08T07:47:39Z</time>
      </trkpt>
      <trkpt lat="40.4856240" lon="-4.0273910">
        <ele>720.6</ele>
        <time>2021-05-08T07:47:40Z</time>
      </trkpt>
      <trkpt lat="40.4856250" lon="-4.0274270">
        <ele>720.8</ele>
        <time>2021-05-08T07:47:41Z</time>
      </trkpt>
      <trkpt lat="40.4856230" lon="-4.0274630">
        <ele>721.0</ele>
        <time>2021-05-08T07:47:42Z</time>
      </trkpt>
      <trkpt lat="40.4856170" lon="-4.0275080">
        <ele>721.3</ele>
        <time>2021-05-08T07:47:44Z</time>
      </trkpt>
      <trkpt lat="40.4856140" lon="-4.0275440">
        <ele>721.5</ele>
        <time>2021-05-08T07:47:45Z</time>
      </trkpt>
      <trkpt lat="40.4856090" lon="-4.0275810">
        <ele>721.7</ele>
        <time>2021-05-08T07:47:46Z</time>
      </trkpt>
      <trkpt lat="40.4856070" lon="-4.0276190">
        <ele>721.9</ele>
        <time>2021-05-08T07:47:47Z</time>
      </trkpt>
      <trkpt lat="40.4856000" lon="-4.0276670">
        <ele>722.1</ele>
        <time>2021-05-08T07:47:49Z</time>
      </trkpt>
      <trkpt lat="40.4855950" lon="-4.0277230">
        <ele>722.5</ele>
        <time>2021-05-08T07:47:51Z</time>
      </trkpt>
      <trkpt lat="40.4855890" lon="-4.0277600">
        <ele>722.7</ele>
        <time>2021-05-08T07:47:52Z</time>
      </trkpt>
      <trkpt lat="40.4855840" lon="-4.0277990">
        <ele>722.9</ele>
        <time>2021-05-08T07:47:53Z</time>
      </trkpt>
      <trkpt lat="40.4855820" lon="-4.0278380">
        <ele>723.1</ele>
        <time>2021-05-08T07:47:54Z</time>
      </trkpt>
      <trkpt lat="40.4855790" lon="-4.0278880">
        <ele>723.4</ele>
        <time>2021-05-08T07:47:55Z</time>
      </trkpt>
      <trkpt lat="40.4855710" lon="-4.0279310">
        <ele>723.6</ele>
        <time>2021-05-08T07:47:56Z</time>
      </trkpt>
      <trkpt lat="40.4855620" lon="-4.0279910">
        <ele>724.0</ele>
        <time>2021-05-08T07:47:58Z</time>
      </trkpt>
      <trkpt lat="40.4855570" lon="-4.0280240">
        <ele>724.2</ele>
        <time>2021-05-08T07:47:59Z</time>
      </trkpt>
      <trkpt lat="40.4855520" lon="-4.0280690">
        <ele>724.4</ele>
        <time>2021-05-08T07:48:01Z</time>
      </trkpt>
      <trkpt lat="40.4855490" lon="-4.0281120">
        <ele>724.6</ele>
        <time>2021-05-08T07:48:02Z</time>
      </trkpt>
      <trkpt lat="40.4855460" lon="-4.0281490">
        <ele>724.8</ele>
        <time>2021-05-08T07:48:03Z</time>
      </trkpt>
      <trkpt lat="40.4855410" lon="-4.0281980">
        <ele>725.1</ele>
        <time>2021-05-08T07:48:04Z</time>
      </trkpt>
      <trkpt lat="40.4855310" lon="-4.0282540">
        <ele>725.4</ele>
        <time>2021-05-08T07:48:06Z</time>
      </trkpt>
      <trkpt lat="40.4855290" lon="-4.0282760">
        <ele>725.6</ele>
        <time>2021-05-08T07:48:07Z</time>
      </trkpt>
      <trkpt lat="40.4855250" lon="-4.0283180">
        <ele>725.8</ele>
        <time>2021-05-08T07:48:08Z</time>
      </trkpt>
      <trkpt lat="40.4855240" lon="-4.0283730">
        <ele>726.1</ele>
        <time>2021-05-08T07:48:09Z</time>
      </trkpt>
      <trkpt lat="40.4855240" lon="-4.0283940">
        <ele>726.2</ele>
        <time>2021-05-08T07:48:10Z</time>
      </trkpt>
      <trkpt lat="40.4855250" lon="-4.0284310">
        <ele>726.4</ele>
        <time>2021-05-08T07:48:11Z</time>
      </trkpt>
      <trkpt lat="40.4855270" lon="-4.0284740">
        <ele>726.6</ele>
        <time>2021-05-08T07:48:13Z</time>
      </trkpt>
      <trkpt lat="40.4855310" lon="-4.0285110">
        <ele>726.9</ele>
        <time>2021-05-08T07:48:14Z</time>
      </trkpt>
      <trkpt lat="40.4855360" lon="-4.0285530">
        <ele>727.1</ele>
        <time>2021-05-08T07:48:15Z</time>
      </trkpt>
      <trkpt lat="40.4855440" lon="-4.0285950">
        <ele>727.3</ele>
        <time>2021-05-08T07:48:16Z</time>
      </trkpt>
      <trkpt lat="40.4855550" lon="-4.0286450">
        <ele>727.6</ele>
        <time>2021-05-08T07:48:18Z</time>
      </trkpt>
      <trkpt lat="40.4855620" lon="-4.0286800">
        <ele>727.8</ele>
        <time>2021-05-08T07:48:19Z</time>
      </trkpt>
      <trkpt lat="40.4855670" lon="-4.0287210">
        <ele>728.0</ele>
        <time>2021-05-08T07:48:20Z</time>
      </trkpt>
      <trkpt lat="40.4855750" lon="-4.0287620">
        <ele>728.3</ele>
        <time>2021-05-08T07:48:21Z</time>
      </trkpt>
      <trkpt lat="40.4855840" lon="-4.0288160">
        <ele>728.6</ele>
        <time>2021-05-08T07:48:23Z</time>
      </trkpt>
      <trkpt lat="40.4855920" lon="-4.0288520">
        <ele>728.8</ele>
        <time>2021-05-08T07:48:24Z</time>
      </trkpt>
      <trkpt lat="40.4856130" lon="-4.0289150">
        <ele>729.2</ele>
        <time>2021-05-08T07:48:26Z</time>
      </trkpt>
      <trkpt lat="40.4856390" lon="-4.0289750">
        <ele>729.5</ele>
        <time>2021-05-08T07:48:28Z</time>
      </trkpt>
      <trkpt lat="40.4856630" lon="-4.0290150">
        <ele>729.9</ele>
        <time>2021-05-08T07:48:29Z</time>
      </trkpt>
      <trkpt lat="40.4856930" lon="-4.0290730">
        <ele>730.3</ele>
        <time>2021-05-08T07:48:31Z</time>
      </trkpt>
      <trkpt lat="40.4857100" lon="-4.0291130">
        <ele>730.5</ele>
        <time>2021-05-08T07:48:32Z</time>
      </trkpt>
      <trkpt lat="40.4857250" lon="-4.0291470">
        <ele>730.7</ele>
        <time>2021-05-08T07:48:33Z</time>
      </trkpt>
      <trkpt lat="40.4857530" lon="-4.0292090">
        <ele>731.1</ele>
        <time>2021-05-08T07:48:35Z</time>
      </trkpt>
      <trkpt lat="40.4857720" lon="-4.0292510">
        <ele>731.4</ele>
        <time>2021-05-08T07:48:36Z</time>
      </trkpt>
      <trkpt lat="40.4858020" lon="-4.0293180">
        <ele>731.8</ele>
        <time>2021-05-08T07:48:38Z</time>
      </trkpt>
      <trkpt lat="40.4858370" lon="-4.0293790">
        <ele>732.2</ele>
        <time>2021-05-08T07:48:40Z</time>
      </trkpt>
      <trkpt lat="40.4858830" lon="-4.0294520">
        <ele>732.7</ele>
        <time>2021-05-08T07:48:42Z</time>
      </trkpt>
      <trkpt lat="40.4859160" lon="-4.0295040">
        <ele>733.2</ele>
        <time>2021-05-08T07:48:44Z</time>
      </trkpt>
      <trkpt lat="40.4859380" lon="-4.0295330">
        <ele>733.4</ele>
        <time>2021-05-08T07:48:45Z</time>
      </trkpt>
      <trkpt lat="40.4859790" lon="-4.0295760">
        <ele>733.9</ele>
        <time>2021-05-08T07:48:47Z</time>
      </trkpt>
      <trkpt lat="40.4860060" lon="-4.0295990">
        <ele>734.1</ele>
        <time>2021-05-08T07:48:48Z</time>
      </trkpt>
      <trkpt lat="40.4860380" lon="-4.0296280">
        <ele>734.5</ele>
        <time>2021-05-08T07:48:49Z</time>
      </trkpt>
      <trkpt lat="40.4860820" lon="-4.0296650">
        <ele>734.9</ele>
        <time>2021-05-08T07:48:51Z</time>
      </trkpt>
      <trkpt lat="40.4861190" lon="-4.0296930">
        <ele>735.2</ele>
        <time>2021-05-08T07:48:52Z</time>
      </trkpt>
      <trkpt lat="40.4861530" lon="-4.0297220">
        <ele>735.6</ele>
        <time>2021-05-08T07:48:53Z</time>
      </trkpt>
      <trkpt lat="40.4861820" lon="-4.0297410">
        <ele>735.9</ele>
        <time>2021-05-08T07:48:54Z</time>
      </trkpt>
      <trkpt lat="40.4862180" lon="-4.0297620">
        <ele>736.2</ele>
        <time>2021-05-08T07:48:56Z</time>
      </trkpt>
      <trkpt lat="40.4862440" lon="-4.0297800">
        <ele>736.4</ele>
        <time>2021-05-08T07:48:57Z</time>
      </trkpt>
      <trkpt lat="40.4863010" lon="-4.0298070">
        <ele>736.9</ele>
        <time>2021-05-08T07:48:59Z</time>
      </trkpt>
      <trkpt lat="40.4863550" lon="-4.0298240">
        <ele>737.3</ele>
        <time>2021-05-08T07:49:01Z</time>
      </trkpt>
      <trkpt lat="40.4863850" lon="-4.0298400">
        <ele>737.6</ele>
        <time>2021-05-08T07:49:02Z</time>
      </trkpt>
      <trkpt lat="40.4864470" lon="-4.0298650">
        <ele>738.1</ele>
        <time>2021-05-08T07:49:04Z</time>
      </trkpt>
      <trkpt lat="40.4864990" lon="-4.0298880">
        <ele>738.5</ele>
        <time>2021-05-08T07:49:06Z</time>
      </trkpt>
      <trkpt lat="40.4865310" lon="-4.0298970">
        <ele>738.8</ele>
        <time>2021-05-08T07:49:07Z</time>
      </trkpt>
      <trkpt lat="40.4865750" lon="-4.0299130">
        <ele>739.1</ele>
        <time>2021-05-08T07:49:09Z</time>
      </trkpt>
      <trkpt lat="40.4866100" lon="-4.0299240">
        <ele>739.4</ele>
        <time>2021-05-08T07:49:10Z</time>
      </trkpt>
      <trkpt lat="40.4866720" lon="-4.0299500">
        <ele>739.9</ele>
        <time>2021-05-08T07:49:12Z</time>
      </trkpt>
      <trkpt lat="40.4867000" lon="-4.0299560">
        <ele>740.1</ele>
        <time>2021-05-08T07:49:13Z</time>
      </trkpt>
      <trkpt lat="40.4867430" lon="-4.0299680">
        <ele>740.5</ele>
        <time>2021-05-08T07:49:14Z</time>
      </trkpt>
      <trkpt lat="40.4867830" lon="-4.0299820">
        <ele>740.8</ele>
        <time>2021-05-08T07:49:16Z</time>
      </trkpt>
      <trkpt lat="40.4868120" lon="-4.0299950">
        <ele>741.0</ele>
        <time>2021-05-08T07:49:17Z</time>
      </trkpt>
      <trkpt lat="40.4868400" lon="-4.0300060">
        <ele>741.3</ele>
        <time>2021-05-08T07:49:18Z</time>
      </trkpt>
      <trkpt lat="40.4868720" lon="-4.0300170">
        <ele>741.5</ele>
        <time>2021-05-08T07:49:19Z</time>
      </trkpt>
      <trkpt lat="40.4869060" lon="-4.0300220">
        <ele>741.8</ele>
        <time>2021-05-08T07:49:20Z</time>
      </trkpt>
      <trkpt lat="40.4869560" lon="-4.0300330">
        <ele>742.2</ele>
        <time>2021-05-08T07:49:22Z</time>
      </trkpt>
      <trkpt lat="40.4869940" lon="-4.0300510">
        <ele>742.5</ele>
        <time>2021-05-08T07:49:23Z</time>
      </trkpt>
      <trkpt lat="40.4870300" lon="-4.0300680">
        <ele>742.8</ele>
        <time>2021-05-08T07:49:25Z</time>
      </trkpt>
      <trkpt lat="40.4870590" lon="-4.0300780">
        <ele>743.0</ele>
        <time>2021-05-08T07:49:26Z</time>
      </trkpt>
      <trkpt lat="40.4871090" lon="-4.0300940">
        <ele>743.4</ele>
        <time>2021-05-08T07:49:28Z</time>
      </trkpt>
      <trkpt lat="40.4871460" lon="-4.0301030">
        <ele>743.7</ele>
        <time>2021-05-08T07:49:29Z</time>
      </trkpt>
      <trkpt lat="40.4871740" lon="-4.0301110">
        <ele>743.9</ele>
        <time>2021-05-08T07:49:30Z</time>
      </trkpt>
      <trkpt lat="40.4872080" lon="-4.0301200">
        <ele>744.1</ele>
        <time>2021-05-08T07:49:31Z</time>
      </trkpt>
      <trkpt lat="40.4872380" lon="-4.0301280">
        <ele>744.4</ele>
        <time>2021-05-08T07:49:32Z</time>
      </trkpt>
      <trkpt lat="40.4872740" lon="-4.0301420">
        <ele>744.7</ele>
        <time>2021-05-08T07:49:33Z</time>
      </trkpt>
      <trkpt lat="40.4873130" lon="-4.0301590">
        <ele>745.0</ele>
        <time>2021-05-08T07:49:35Z</time>
      </trkpt>
      <trkpt lat="40.4873400" lon="-4.0301710">
        <ele>745.2</ele>
        <time>2021-05-08T07:49:36Z</time>
      </trkpt>
      <trkpt lat="40.4873770" lon="-4.0301850">
        <ele>745.6</ele>
        <time>2021-05-08T07:49:37Z</time>
      </trkpt>
      <trkpt lat="40.4874060" lon="-4.0301940">
        <ele>745.8</ele>
        <time>2021-05-08T07:49:38Z</time>
      </trkpt>
      <trkpt lat="40.4874420" lon="-4.0302070">
        <ele>746.1</ele>
        <time>2021-05-08T07:49:40Z</time>
      </trkpt>
      <trkpt lat="40.4874740" lon="-4.0302180">
        <ele>746.4</ele>
        <time>2021-05-08T07:49:41Z</time>
      </trkpt>
      <trkpt lat="40.4875220" lon="-4.0302400">
        <ele>746.8</ele>
        <time>2021-05-08T07:49:43Z</time>
      </trkpt>
      <trkpt lat="40.4875540" lon="-4.0302490">
        <ele>747.0</ele>
        <time>2021-05-08T07:49:44Z</time>
      </trkpt>
      <trkpt lat="40.4876120" lon="-4.0302700">
        <ele>747.5</ele>
        <time>2021-05-08T07:49:46Z</time>
      </trkpt>
      <trkpt lat="40.4876620" lon="-4.0302820">
        <ele>747.9</ele>
        <time>2021-05-08T07:49:47Z</time>
      </trkpt>
      <trkpt lat="40.4876960" lon="-4.0302960">
        <ele>748.2</ele>
        <time>2021-05-08T07:49:49Z</time>
      </trkpt>
      <trkpt lat="40.4877290" lon="-4.0303050">
        <ele>748.5</ele>
        <time>2021-05-08T07:49:50Z</time>
      </trkpt>
      <trkpt lat="40.4877580" lon="-4.0303160">
        <ele>748.7</ele>
        <time>2021-05-08T07:49:51Z</time>
      </trkpt>
      <trkpt lat="40.4877960" lon="-4.0303370">
        <ele>748.9</ele>
        <time>2021-05-08T07:49:52Z</time>
      </trkpt>
      <trkpt lat="40.4878350" lon="-4.0303550">
        <ele>749.0</ele>
        <time>2021-05-08T07:49:54Z</time>
      </trkpt>
      <trkpt lat="40.4878670" lon="-4.0303730">
        <ele>749.2</ele>
        <time>2021-05-08T07:49:55Z</time>
      </trkpt>
      <trkpt lat="40.4879210" lon="-4.0303970">
        <ele>749.6</ele>
        <time>2021-05-08T07:49:57Z</time>
      </trkpt>
      <trkpt lat="40.4879540" lon="-4.0304150">
        <ele>749.9</ele>
        <time>2021-05-08T07:49:58Z</time>
      </trkpt>
      <trkpt lat="40.4879830" lon="-4.0304340">
        <ele>750.1</ele>
        <time>2021-05-08T07:49:59Z</time>
      </trkpt>
      <trkpt lat="40.4880070" lon="-4.0304500">
        <ele>750.3</ele>
        <time>2021-05-08T07:50:01Z</time>
      </trkpt>
      <trkpt lat="40.4880330" lon="-4.0304660">
        <ele>750.5</ele>
        <time>2021-05-08T07:50:02Z</time>
      </trkpt>
      <trkpt lat="40.4880620" lon="-4.0304870">
        <ele>750.8</ele>
        <time>2021-05-08T07:50:03Z</time>
      </trkpt>
      <trkpt lat="40.4880850" lon="-4.0305090">
        <ele>751.0</ele>
        <time>2021-05-08T07:50:04Z</time>
      </trkpt>
      <trkpt lat="40.4881290" lon="-4.0305520">
        <ele>751.3</ele>
        <time>2021-05-08T07:50:06Z</time>
      </trkpt>
      <trkpt lat="40.4881590" lon="-4.0305890">
        <ele>751.6</ele>
        <time>2021-05-08T07:50:07Z</time>
      </trkpt>
      <trkpt lat="40.4881800" lon="-4.0306140">
        <ele>751.8</ele>
        <time>2021-05-08T07:50:08Z</time>
      </trkpt>
      <trkpt lat="40.4882010" lon="-4.0306410">
        <ele>752.0</ele>
        <time>2021-05-08T07:50:09Z</time>
      </trkpt>
      <trkpt lat="40.4882320" lon="-4.0306730">
        <ele>752.2</ele>
        <time>2021-05-08T07:50:11Z</time>
      </trkpt>
      <trkpt lat="40.4882540" lon="-4.0307030">
        <ele>752.4</ele>
        <time>2021-05-08T07:50:12Z</time>
      </trkpt>
      <trkpt lat="40.4882810" lon="-4.0307430">
        <ele>752.7</ele>
        <time>2021-05-08T07:50:13Z</time>
      </trkpt>
      <trkpt lat="40.4882890" lon="-4.0307580">
        <ele>752.7</ele>
        <time>2021-05-08T07:50:14Z</time>
      </trkpt>
      <trkpt lat="40.4883110" lon="-4.0307910">
        <ele>752.9</ele>
        <time>2021-05-08T07:50:15Z</time>
      </trkpt>
      <trkpt lat="40.4883470" lon="-4.0308350">
        <ele>753.2</ele>
        <time>2021-05-08T07:50:17Z</time>
      </trkpt>
      <trkpt lat="40.4883730" lon="-4.0308670">
        <ele>753.4</ele>
        <time>2021-05-08T07:50:18Z</time>
      </trkpt>
      <trkpt lat="40.4883980" lon="-4.0309050">
        <ele>753.7</ele>
        <time>2021-05-08T07:50:20Z</time>
      </trkpt>
      <trkpt lat="40.4884280" lon="-4.0309440">
        <ele>753.9</ele>
        <time>2021-05-08T07:50:21Z</time>
      </trkpt>
      <trkpt lat="40.4884390" lon="-4.0309570">
        <ele>754.0</ele>
        <time>2021-05-08T07:50:22Z</time>
      </trkpt>
      <trkpt lat="40.4884540" lon="-4.0309860">
        <ele>754.1</ele>
        <time>2021-05-08T07:50:23Z</time>
      </trkpt>
      <trkpt lat="40.4884740" lon="-4.0310220">
        <ele>754.3</ele>
        <time>2021-05-08T07:50:24Z</time>
      </trkpt>
      <trkpt lat="40.4884990" lon="-4.0310580">
        <ele>754.5</ele>
        <time>2021-05-08T07:50:26Z</time>
      </trkpt>
      <trkpt lat="40.4885170" lon="-4.0310880">
        <ele>754.7</ele>
        <time>2021-05-08T07:50:27Z</time>
      </trkpt>
      <trkpt lat="40.4885350" lon="-4.0311160">
        <ele>754.8</ele>
        <time>2021-05-08T07:50:28Z</time>
      </trkpt>
      <trkpt lat="40.4885610" lon="-4.0311670">
        <ele>755.0</ele>
        <time>2021-05-08T07:50:30Z</time>
      </trkpt>
      <trkpt lat="40.4885780" lon="-4.0312070">
        <ele>755.2</ele>
        <time>2021-05-08T07:50:31Z</time>
      </trkpt>
      <trkpt lat="40.4885980" lon="-4.0312520">
        <ele>755.4</ele>
        <time>2021-05-08T07:50:33Z</time>
      </trkpt>
      <trkpt lat="40.4886140" lon="-4.0313060">
        <ele>755.6</ele>
        <time>2021-05-08T07:50:34Z</time>
      </trkpt>
      <trkpt lat="40.4886300" lon="-4.0313530">
        <ele>755.8</ele>
        <time>2021-05-08T07:50:36Z</time>
      </trkpt>
      <trkpt lat="40.4886540" lon="-4.0314280">
        <ele>756.1</ele>
        <time>2021-05-08T07:50:38Z</time>
      </trkpt>
      <trkpt lat="40.4886670" lon="-4.0314740">
        <ele>756.2</ele>
        <time>2021-05-08T07:50:39Z</time>
      </trkpt>
      <trkpt lat="40.4886790" lon="-4.0315190">
        <ele>756.4</ele>
        <time>2021-05-08T07:50:40Z</time>
      </trkpt>
      <trkpt lat="40.4886960" lon="-4.0315750">
        <ele>756.6</ele>
        <time>2021-05-08T07:50:42Z</time>
      </trkpt>
      <trkpt lat="40.4887080" lon="-4.0316110">
        <ele>756.7</ele>
        <time>2021-05-08T07:50:43Z</time>
      </trkpt>
      <trkpt lat="40.4887220" lon="-4.0316470">
        <ele>756.9</ele>
        <time>2021-05-08T07:50:44Z</time>
      </trkpt>
      <trkpt lat="40.4887340" lon="-4.0316870">
        <ele>757.0</ele>
        <time>2021-05-08T07:50:45Z</time>
      </trkpt>
      <trkpt lat="40.4887520" lon="-4.0317480">
        <ele>757.3</ele>
        <time>2021-05-08T07:50:47Z</time>
      </trkpt>
      <trkpt lat="40.4887620" lon="-4.0317830">
        <ele>757.4</ele>
        <time>2021-05-08T07:50:48Z</time>
      </trkpt>
      <trkpt lat="40.4887790" lon="-4.0318380">
        <ele>757.6</ele>
        <time>2021-05-08T07:50:49Z</time>
      </trkpt>
      <trkpt lat="40.4887850" lon="-4.0318630">
        <ele>757.7</ele>
        <time>2021-05-08T07:50:50Z</time>
      </trkpt>
      <trkpt lat="40.4887910" lon="-4.0319210">
        <ele>757.9</ele>
        <time>2021-05-08T07:50:52Z</time>
      </trkpt>
      <trkpt lat="40.4887910" lon="-4.0319670">
        <ele>758.0</ele>
        <time>2021-05-08T07:50:53Z</time>
      </trkpt>
      <trkpt lat="40.4887900" lon="-4.0320150">
        <ele>758.2</ele>
        <time>2021-05-08T07:50:54Z</time>
      </trkpt>
      <trkpt lat="40.4887890" lon="-4.0320760">
        <ele>758.4</ele>
        <time>2021-05-08T07:50:56Z</time>
      </trkpt>
      <trkpt lat="40.4887800" lon="-4.0321180">
        <ele>758.5</ele>
        <time>2021-05-08T07:50:57Z</time>
      </trkpt>
      <trkpt lat="40.4887660" lon="-4.0321540">
        <ele>758.7</ele>
        <time>2021-05-08T07:50:58Z</time>
      </trkpt>
      <trkpt lat="40.4887450" lon="-4.0322040">
        <ele>758.8</ele>
        <time>2021-05-08T07:50:59Z</time>
      </trkpt>
      <trkpt lat="40.4887280" lon="-4.0322520">
        <ele>759.0</ele>
        <time>2021-05-08T07:51:01Z</time>
      </trkpt>
      <trkpt lat="40.4887110" lon="-4.0322860">
        <ele>759.1</ele>
        <time>2021-05-08T07:51:02Z</time>
      </trkpt>
      <trkpt lat="40.4886730" lon="-4.0323480">
        <ele>759.4</ele>
        <time>2021-05-08T07:51:04Z</time>
      </trkpt>
      <trkpt lat="40.4886400" lon="-4.0323880">
        <ele>759.5</ele>
        <time>2021-05-08T07:51:05Z</time>
      </trkpt>
      <trkpt lat="40.4886040" lon="-4.0324170">
        <ele>759.7</ele>
        <time>2021-05-08T07:51:06Z</time>
      </trkpt>
      <trkpt lat="40.4885660" lon="-4.0324510">
        <ele>759.9</ele>
        <time>2021-05-08T07:51:08Z</time>
      </trkpt>
      <trkpt lat="40.4885380" lon="-4.0324750">
        <ele>760.0</ele>
        <time>2021-05-08T07:51:09Z</time>
      </trkpt>
      <trkpt lat="40.4884990" lon="-4.0324920">
        <ele>760.2</ele>
        <time>2021-05-08T07:51:10Z</time>
      </trkpt>
      <trkpt lat="40.4884600" lon="-4.0325000">
        <ele>760.3</ele>
        <time>2021-05-08T07:51:11Z</time>
      </trkpt>
      <trkpt lat="40.4884130" lon="-4.0325060">
        <ele>760.5</ele>
        <time>2021-05-08T07:51:13Z</time>
      </trkpt>
      <trkpt lat="40.4883600" lon="-4.0325050">
        <ele>760.7</ele>
        <time>2021-05-08T07:51:14Z</time>
      </trkpt>
      <trkpt lat="40.4883070" lon="-4.0325050">
        <ele>760.9</ele>
        <time>2021-05-08T07:51:15Z</time>
      </trkpt>
      <trkpt lat="40.4882590" lon="-4.0325090">
        <ele>761.1</ele>
        <time>2021-05-08T07:51:17Z</time>
      </trkpt>
      <trkpt lat="40.4882220" lon="-4.0325160">
        <ele>761.3</ele>
        <time>2021-05-08T07:51:18Z</time>
      </trkpt>
      <trkpt lat="40.4881560" lon="-4.0325320">
        <ele>761.5</ele>
        <time>2021-05-08T07:51:20Z</time>
      </trkpt>
      <trkpt lat="40.4881210" lon="-4.0325450">
        <ele>761.7</ele>
        <time>2021-05-08T07:51:21Z</time>
      </trkpt>
      <trkpt lat="40.4880840" lon="-4.0325620">
        <ele>761.8</ele>
        <time>2021-05-08T07:51:22Z</time>
      </trkpt>
      <trkpt lat="40.4880500" lon="-4.0325780">
        <ele>762.0</ele>
        <time>2021-05-08T07:51:23Z</time>
      </trkpt>
      <trkpt lat="40.4879830" lon="-4.0326050">
        <ele>762.3</ele>
        <time>2021-05-08T07:51:25Z</time>
      </trkpt>
      <trkpt lat="40.4879370" lon="-4.0326310">
        <ele>762.5</ele>
        <time>2021-05-08T07:51:26Z</time>
      </trkpt>
      <trkpt lat="40.4878900" lon="-4.0326620">
        <ele>762.7</ele>
        <time>2021-05-08T07:51:28Z</time>
      </trkpt>
      <trkpt lat="40.4878510" lon="-4.0326900">
        <ele>762.9</ele>
        <time>2021-05-08T07:51:29Z</time>
      </trkpt>
      <trkpt lat="40.4878200" lon="-4.0327160">
        <ele>763.0</ele>
        <time>2021-05-08T07:51:30Z</time>
      </trkpt>
      <trkpt lat="40.4877840" lon="-4.0327460">
        <ele>763.2</ele>
        <time>2021-05-08T07:51:31Z</time>
      </trkpt>
      <trkpt lat="40.4877410" lon="-4.0327820">
        <ele>763.4</ele>
        <time>2021-05-08T07:51:33Z</time>
      </trkpt>
      <trkpt lat="40.4877100" lon="-4.0328120">
        <ele>763.5</ele>
        <time>2021-05-08T07:51:34Z</time>
      </trkpt>
      <trkpt lat="40.4876860" lon="-4.0328410">
        <ele>763.7</ele>
        <time>2021-05-08T07:51:35Z</time>
      </trkpt>
      <trkpt lat="40.4876380" lon="-4.0328950">
        <ele>763.9</ele>
        <time>2021-05-08T07:51:37Z</time>
      </trkpt>
      <trkpt lat="40.4876170" lon="-4.0329260">
        <ele>764.1</ele>
        <time>2021-05-08T07:51:38Z</time>
      </trkpt>
      <trkpt lat="40.4875760" lon="-4.0329920">
        <ele>764.3</ele>
        <time>2021-05-08T07:51:40Z</time>
      </trkpt>
      <trkpt lat="40.4875470" lon="-4.0330350">
        <ele>764.5</ele>
        <time>2021-05-08T07:51:41Z</time>
      </trkpt>
      <trkpt lat="40.4875230" lon="-4.0330820">
        <ele>764.6</ele>
        <time>2021-05-08T07:51:42Z</time>
      </trkpt>
      <trkpt lat="40.4874990" lon="-4.0331360">
        <ele>764.8</ele>
        <time>2021-05-08T07:51:44Z</time>
      </trkpt>
      <trkpt lat="40.4874790" lon="-4.0331890">
        <ele>764.9</ele>
        <time>2021-05-08T07:51:45Z</time>
      </trkpt>
      <trkpt lat="40.4874620" lon="-4.0332320">
        <ele>765.0</ele>
        <time>2021-05-08T07:51:46Z</time>
      </trkpt>
      <trkpt lat="40.4874370" lon="-4.0333060">
        <ele>765.2</ele>
        <time>2021-05-08T07:51:47Z</time>
      </trkpt>
      <trkpt lat="40.4874140" lon="-4.0333790">
        <ele>765.3</ele>
        <time>2021-05-08T07:51:49Z</time>
      </trkpt>
      <trkpt lat="40.4873980" lon="-4.0334620">
        <ele>765.4</ele>
        <time>2021-05-08T07:51:50Z</time>
      </trkpt>
      <trkpt lat="40.4873840" lon="-4.0335220">
        <ele>765.5</ele>
        <time>2021-05-08T07:51:52Z</time>
      </trkpt>
      <trkpt lat="40.4873660" lon="-4.0335870">
        <ele>765.6</ele>
        <time>2021-05-08T07:51:53Z</time>
      </trkpt>
      <trkpt lat="40.4873370" lon="-4.0336880">
        <ele>765.8</ele>
        <time>2021-05-08T07:51:55Z</time>
      </trkpt>
      <trkpt lat="40.4873210" lon="-4.0337380">
        <ele>765.9</ele>
        <time>2021-05-08T07:51:56Z</time>
      </trkpt>
      <trkpt lat="40.4872980" lon="-4.0338130">
        <ele>766.0</ele>
        <time>2021-05-08T07:51:57Z</time>
      </trkpt>
      <trkpt lat="40.4872800" lon="-4.0338940">
        <ele>766.0</ele>
        <time>2021-05-08T07:51:59Z</time>
      </trkpt>
      <trkpt lat="40.4872630" lon="-4.0339630">
        <ele>766.1</ele>
        <time>2021-05-08T07:52:00Z</time>
      </trkpt>
      <trkpt lat="40.4872410" lon="-4.0340930">
        <ele>766.1</ele>
        <time>2021-05-08T07:52:02Z</time>
      </trkpt>
      <trkpt lat="40.4872270" lon="-4.0341530">
        <ele>766.2</ele>
        <time>2021-05-08T07:52:03Z</time>
      </trkpt>
      <trkpt lat="40.4871960" lon="-4.0342720">
        <ele>766.3</ele>
        <time>2021-05-08T07:52:05Z</time>
      </trkpt>
      <trkpt lat="40.4871650" lon="-4.0343810">
        <ele>766.5</ele>
        <time>2021-05-08T07:52:07Z</time>
      </trkpt>
      <trkpt lat="40.4871500" lon="-4.0344390">
        <ele>766.5</ele>
        <time>2021-05-08T07:52:08Z</time>
      </trkpt>
      <trkpt lat="40.4871180" lon="-4.0345550">
        <ele>766.7</ele>
        <time>2021-05-08T07:52:10Z</time>
      </trkpt>
      <trkpt lat="40.4871030" lon="-4.0346510">
        <ele>766.8</ele>
        <time>2021-05-08T07:52:12Z</time>
      </trkpt>
      <trkpt lat="40.4871040" lon="-4.0346770">
        <ele>766.9</ele>
        <time>2021-05-08T07:52:13Z</time>
      </trkpt>
      <trkpt lat="40.4870720" lon="-4.0347590">
        <ele>767.0</ele>
        <time>2021-05-08T07:52:15Z</time>
      </trkpt>
      <trkpt lat="40.4870430" lon="-4.0348340">
        <ele>767.2</ele>
        <time>2021-05-08T07:52:16Z</time>
      </trkpt>
      <trkpt lat="40.4870260" lon="-4.0348900">
        <ele>767.3</ele>
        <time>2021-05-08T07:52:17Z</time>
      </trkpt>
      <trkpt lat="40.4869920" lon="-4.0349940">
        <ele>767.5</ele>
        <time>2021-05-08T07:52:19Z</time>
      </trkpt>
      <trkpt lat="40.4869780" lon="-4.0350690">
        <ele>767.7</ele>
        <time>2021-05-08T07:52:20Z</time>
      </trkpt>
      <trkpt lat="40.4869640" lon="-4.0351420">
        <ele>767.8</ele>
        <time>2021-05-08T07:52:22Z</time>
      </trkpt>
      <trkpt lat="40.4869530" lon="-4.0351880">
        <ele>768.0</ele>
        <time>2021-05-08T07:52:23Z</time>
      </trkpt>
      <trkpt lat="40.4869250" lon="-4.0352910">
        <ele>768.3</ele>
        <time>2021-05-08T07:52:25Z</time>
      </trkpt>
      <trkpt lat="40.4869090" lon="-4.0353540">
        <ele>768.5</ele>
        <time>2021-05-08T07:52:26Z</time>
      </trkpt>
      <trkpt lat="40.4868920" lon="-4.0354150">
        <ele>768.8</ele>
        <time>2021-05-08T07:52:27Z</time>
      </trkpt>
      <trkpt lat="40.4868760" lon="-4.0354820">
        <ele>769.0</ele>
        <time>2021-05-08T07:52:29Z</time>
      </trkpt>
      <trkpt lat="40.4868620" lon="-4.0355350">
        <ele>769.2</ele>
        <time>2021-05-08T07:52:30Z</time>
      </trkpt>
      <trkpt lat="40.4868390" lon="-4.0356250">
        <ele>769.6</ele>
        <time>2021-05-08T07:52:32Z</time>
      </trkpt>
      <trkpt lat="40.4868210" lon="-4.0357040">
        <ele>769.9</ele>
        <time>2021-05-08T07:52:34Z</time>
      </trkpt>
      <trkpt lat="40.4868080" lon="-4.0357540">
        <ele>770.2</ele>
        <time>2021-05-08T07:52:35Z</time>
      </trkpt>
      <trkpt lat="40.4867940" lon="-4.0358060">
        <ele>770.5</ele>
        <time>2021-05-08T07:52:36Z</time>
      </trkpt>
      <trkpt lat="40.4867700" lon="-4.0358940">
        <ele>771.0</ele>
        <time>2021-05-08T07:52:38Z</time>
      </trkpt>
      <trkpt lat="40.4867580" lon="-4.0359410">
        <ele>771.2</ele>
        <time>2021-05-08T07:52:39Z</time>
      </trkpt>
      <trkpt lat="40.4867470" lon="-4.0359860">
        <ele>771.5</ele>
        <time>2021-05-08T07:52:40Z</time>
      </trkpt>
      <trkpt lat="40.4867260" lon="-4.0360790">
        <ele>772.0</ele>
        <time>2021-05-08T07:52:42Z</time>
      </trkpt>
      <trkpt lat="40.4867160" lon="-4.0361290">
        <ele>772.3</ele>
        <time>2021-05-08T07:52:43Z</time>
      </trkpt>
      <trkpt lat="40.4867060" lon="-4.0361840">
        <ele>772.6</ele>
        <time>2021-05-08T07:52:44Z</time>
      </trkpt>
      <trkpt lat="40.4866920" lon="-4.0362450">
        <ele>773.0</ele>
        <time>2021-05-08T07:52:46Z</time>
      </trkpt>
      <trkpt lat="40.4866820" lon="-4.0362880">
        <ele>773.2</ele>
        <time>2021-05-08T07:52:47Z</time>
      </trkpt>
      <trkpt lat="40.4866670" lon="-4.0363430">
        <ele>773.5</ele>
        <time>2021-05-08T07:52:48Z</time>
      </trkpt>
      <trkpt lat="40.4866500" lon="-4.0363990">
        <ele>773.8</ele>
        <time>2021-05-08T07:52:50Z</time>
      </trkpt>
      <trkpt lat="40.4866370" lon="-4.0364580">
        <ele>774.1</ele>
        <time>2021-05-08T07:52:51Z</time>
      </trkpt>
      <trkpt lat="40.4866260" lon="-4.0365020">
        <ele>774.3</ele>
        <time>2021-05-08T07:52:52Z</time>
      </trkpt>
      <trkpt lat="40.4866090" lon="-4.0365640">
        <ele>774.6</ele>
        <time>2021-05-08T07:52:53Z</time>
      </trkpt>
      <trkpt lat="40.4866010" lon="-4.0366090">
        <ele>774.7</ele>
        <time>2021-05-08T07:52:54Z</time>
      </trkpt>
      <trkpt lat="40.4865860" lon="-4.0366750">
        <ele>774.9</ele>
        <time>2021-05-08T07:52:56Z</time>
      </trkpt>
      <trkpt lat="40.4865650" lon="-4.0367550">
        <ele>775.1</ele>
        <time>2021-05-08T07:52:58Z</time>
      </trkpt>
      <trkpt lat="40.4865490" lon="-4.0368280">
        <ele>775.2</ele>
        <time>2021-05-08T07:52:59Z</time>
      </trkpt>
      <trkpt lat="40.4865340" lon="-4.0368940">
        <ele>775.3</ele>
        <time>2021-05-08T07:53:01Z</time>
      </trkpt>
      <trkpt lat="40.4865210" lon="-4.0369630">
        <ele>775.3</ele>
        <time>2021-05-08T07:53:02Z</time>
      </trkpt>
      <trkpt lat="40.4865040" lon="-4.0370200">
        <ele>775.3</ele>
        <time>2021-05-08T07:53:03Z</time>
      </trkpt>
      <trkpt lat="40.4864650" lon="-4.0371480">
        <ele>775.1</ele>
        <time>2021-05-08T07:53:05Z</time>
      </trkpt>
      <trkpt lat="40.4864180" lon="-4.0372940">
        <ele>774.9</ele>
        <time>2021-05-08T07:53:07Z</time>
      </trkpt>
      <trkpt lat="40.4863980" lon="-4.0373680">
        <ele>774.8</ele>
        <time>2021-05-08T07:53:08Z</time>
      </trkpt>
      <trkpt lat="40.4863610" lon="-4.0375140">
        <ele>774.6</ele>
        <time>2021-05-08T07:53:10Z</time>
      </trkpt>
      <trkpt lat="40.4863230" lon="-4.0376550">
        <ele>774.6</ele>
        <time>2021-05-08T07:53:12Z</time>
      </trkpt>
      <trkpt lat="40.4862830" lon="-4.0377880">
        <ele>774.7</ele>
        <time>2021-05-08T07:53:14Z</time>
      </trkpt>
      <trkpt lat="40.4862660" lon="-4.0378530">
        <ele>774.7</ele>
        <time>2021-05-08T07:53:15Z</time>
      </trkpt>
      <trkpt lat="40.4862370" lon="-4.0379810">
        <ele>774.9</ele>
        <time>2021-05-08T07:53:17Z</time>
      </trkpt>
      <trkpt lat="40.4862270" lon="-4.0380450">
        <ele>775.1</ele>
        <time>2021-05-08T07:53:18Z</time>
      </trkpt>
      <trkpt lat="40.4862150" lon="-4.0381030">
        <ele>775.2</ele>
        <time>2021-05-08T07:53:19Z</time>
      </trkpt>
      <trkpt lat="40.4861930" lon="-4.0382230">
        <ele>775.5</ele>
        <time>2021-05-08T07:53:21Z</time>
      </trkpt>
      <trkpt lat="40.4861820" lon="-4.0382830">
        <ele>775.5</ele>
        <time>2021-05-08T07:53:22Z</time>
      </trkpt>
      <trkpt lat="40.4861740" lon="-4.0383430">
        <ele>775.5</ele>
        <time>2021-05-08T07:53:23Z</time>
      </trkpt>
      <trkpt lat="40.4861690" lon="-4.0384040">
        <ele>775.6</ele>
        <time>2021-05-08T07:53:24Z</time>
      </trkpt>
      <trkpt lat="40.4861640" lon="-4.0384650">
        <ele>775.6</ele>
        <time>2021-05-08T07:53:25Z</time>
      </trkpt>
      <trkpt lat="40.4861520" lon="-4.0385950">
        <ele>775.7</ele>
        <time>2021-05-08T07:53:27Z</time>
      </trkpt>
      <trkpt lat="40.4861470" lon="-4.0386560">
        <ele>775.8</ele>
        <time>2021-05-08T07:53:28Z</time>
      </trkpt>
      <trkpt lat="40.4861390" lon="-4.0387830">
        <ele>775.9</ele>
        <time>2021-05-08T07:53:30Z</time>
      </trkpt>
      <trkpt lat="40.4861350" lon="-4.0388490">
        <ele>776.0</ele>
        <time>2021-05-08T07:53:31Z</time>
      </trkpt>
      <trkpt lat="40.4861300" lon="-4.0389100">
        <ele>776.1</ele>
        <time>2021-05-08T07:53:32Z</time>
      </trkpt>
      <trkpt lat="40.4861230" lon="-4.0390350">
        <ele>776.3</ele>
        <time>2021-05-08T07:53:34Z</time>
      </trkpt>
      <trkpt lat="40.4861190" lon="-4.0391000">
        <ele>776.4</ele>
        <time>2021-05-08T07:53:35Z</time>
      </trkpt>
      <trkpt lat="40.4861160" lon="-4.0391630">
        <ele>776.5</ele>
        <time>2021-05-08T07:53:36Z</time>
      </trkpt>
      <trkpt lat="40.4861140" lon="-4.0392270">
        <ele>776.6</ele>
        <time>2021-05-08T07:53:37Z</time>
      </trkpt>
      <trkpt lat="40.4861080" lon="-4.0393480">
        <ele>776.8</ele>
        <time>2021-05-08T07:53:39Z</time>
      </trkpt>
      <trkpt lat="40.4860980" lon="-4.0394630">
        <ele>777.0</ele>
        <time>2021-05-08T07:53:41Z</time>
      </trkpt>
      <trkpt lat="40.4860960" lon="-4.0394930">
        <ele>777.1</ele>
        <time>2021-05-08T07:53:42Z</time>
      </trkpt>
      <trkpt lat="40.4860930" lon="-4.0396140">
        <ele>777.4</ele>
        <time>2021-05-08T07:53:44Z</time>
      </trkpt>
      <trkpt lat="40.4860940" lon="-4.0396710">
        <ele>777.5</ele>
        <time>2021-05-08T07:53:45Z</time>
      </trkpt>
      <trkpt lat="40.4860900" lon="-4.0397670">
        <ele>777.8</ele>
        <time>2021-05-08T07:53:47Z</time>
      </trkpt>
      <trkpt lat="40.4860920" lon="-4.0397240">
        <ele>777.9</ele>
        <time>2021-05-08T07:53:48Z</time>
      </trkpt>
      <trkpt lat="40.4860920" lon="-4.0398020">
        <ele>778.2</ele>
        <time>2021-05-08T07:53:49Z</time>
      </trkpt>
      <trkpt lat="40.4860880" lon="-4.0398950">
        <ele>778.5</ele>
        <time>2021-05-08T07:53:51Z</time>
      </trkpt>
      <trkpt lat="40.4860860" lon="-4.0399700">
        <ele>778.8</ele>
        <time>2021-05-08T07:53:52Z</time>
      </trkpt>
      <trkpt lat="40.4860850" lon="-4.0400440">
        <ele>779.1</ele>
        <time>2021-05-08T07:53:53Z</time>
      </trkpt>
      <trkpt lat="40.4860810" lon="-4.0401140">
        <ele>779.3</ele>
        <time>2021-05-08T07:53:54Z</time>
      </trkpt>
      <trkpt lat="40.4860750" lon="-4.0401800">
        <ele>779.6</ele>
        <time>2021-05-08T07:53:55Z</time>
      </trkpt>
      <trkpt lat="40.4860750" lon="-4.0402390">
        <ele>779.8</ele>
        <time>2021-05-08T07:53:57Z</time>
      </trkpt>
      <trkpt lat="40.4860750" lon="-4.0402940">
        <ele>780.1</ele>
        <time>2021-05-08T07:53:58Z</time>
      </trkpt>
      <trkpt lat="40.4860740" lon="-4.0403580">
        <ele>780.3</ele>
        <time>2021-05-08T07:53:59Z</time>
      </trkpt>
      <trkpt lat="40.4860700" lon="-4.0404160">
        <ele>780.6</ele>
        <time>2021-05-08T07:54:00Z</time>
      </trkpt>
      <trkpt lat="40.4860680" lon="-4.0404710">
        <ele>780.8</ele>
        <time>2021-05-08T07:54:01Z</time>
      </trkpt>
      <trkpt lat="40.4860660" lon="-4.0405270">
        <ele>781.0</ele>
        <time>2021-05-08T07:54:02Z</time>
      </trkpt>
      <trkpt lat="40.4860640" lon="-4.0405860">
        <ele>781.3</ele>
        <time>2021-05-08T07:54:03Z</time>
      </trkpt>
      <trkpt lat="40.4860630" lon="-4.0406420">
        <ele>781.5</ele>
        <time>2021-05-08T07:54:05Z</time>
      </trkpt>
      <trkpt lat="40.4860600" lon="-4.0407010">
        <ele>781.8</ele>
        <time>2021-05-08T07:54:06Z</time>
      </trkpt>
      <trkpt lat="40.4860570" lon="-4.0407510">
        <ele>782.0</ele>
        <time>2021-05-08T07:54:07Z</time>
      </trkpt>
      <trkpt lat="40.4860490" lon="-4.0408390">
        <ele>782.4</ele>
        <time>2021-05-08T07:54:09Z</time>
      </trkpt>
      <trkpt lat="40.4860470" lon="-4.0409120">
        <ele>782.7</ele>
        <time>2021-05-08T07:54:10Z</time>
      </trkpt>
      <trkpt lat="40.4860440" lon="-4.0409840">
        <ele>783.1</ele>
        <time>2021-05-08T07:54:12Z</time>
      </trkpt>
      <trkpt lat="40.4860420" lon="-4.0410320">
        <ele>783.3</ele>
        <time>2021-05-08T07:54:13Z</time>
      </trkpt>
      <trkpt lat="40.4860410" lon="-4.0410790">
        <ele>783.5</ele>
        <time>2021-05-08T07:54:14Z</time>
      </trkpt>
      <trkpt lat="40.4860380" lon="-4.0411430">
        <ele>783.8</ele>
        <time>2021-05-08T07:54:15Z</time>
      </trkpt>
      <trkpt lat="40.4860360" lon="-4.0412060">
        <ele>784.1</ele>
        <time>2021-05-08T07:54:17Z</time>
      </trkpt>
      <trkpt lat="40.4860300" lon="-4.0412780">
        <ele>784.5</ele>
        <time>2021-05-08T07:54:19Z</time>
      </trkpt>
      <trkpt lat="40.4860240" lon="-4.0413320">
        <ele>784.8</ele>
        <time>2021-05-08T07:54:20Z</time>
      </trkpt>
      <trkpt lat="40.4860210" lon="-4.0414120">
        <ele>785.2</ele>
        <time>2021-05-08T07:54:22Z</time>
      </trkpt>
      <trkpt lat="40.4860180" lon="-4.0414560">
        <ele>785.4</ele>
        <time>2021-05-08T07:54:23Z</time>
      </trkpt>
      <trkpt lat="40.4860140" lon="-4.0415030">
        <ele>785.7</ele>
        <time>2021-05-08T07:54:24Z</time>
      </trkpt>
      <trkpt lat="40.4860140" lon="-4.0415710">
        <ele>786.1</ele>
        <time>2021-05-08T07:54:26Z</time>
      </trkpt>
      <trkpt lat="40.4860120" lon="-4.0416220">
        <ele>786.4</ele>
        <time>2021-05-08T07:54:27Z</time>
      </trkpt>
      <trkpt lat="40.4860060" lon="-4.0416970">
        <ele>786.8</ele>
        <time>2021-05-08T07:54:29Z</time>
      </trkpt>
      <trkpt lat="40.4860030" lon="-4.0417420">
        <ele>787.0</ele>
        <time>2021-05-08T07:54:30Z</time>
      </trkpt>
      <trkpt lat="40.4859990" lon="-4.0418160">
        <ele>787.4</ele>
        <time>2021-05-08T07:54:32Z</time>
      </trkpt>
      <trkpt lat="40.4859960" lon="-4.0418640">
        <ele>787.7</ele>
        <time>2021-05-08T07:54:33Z</time>
      </trkpt>
      <trkpt lat="40.4859930" lon="-4.0419380">
        <ele>788.0</ele>
        <time>2021-05-08T07:54:34Z</time>
      </trkpt>
      <trkpt lat="40.4859910" lon="-4.0419860">
        <ele>788.3</ele>
        <time>2021-05-08T07:54:36Z</time>
      </trkpt>
      <trkpt lat="40.4859880" lon="-4.0420360">
        <ele>788.6</ele>
        <time>2021-05-08T07:54:37Z</time>
      </trkpt>
      <trkpt lat="40.4859850" lon="-4.0420960">
        <ele>788.9</ele>
        <time>2021-05-08T07:54:38Z</time>
      </trkpt>
      <trkpt lat="40.4859850" lon="-4.0421610">
        <ele>789.2</ele>
        <time>2021-05-08T07:54:40Z</time>
      </trkpt>
      <trkpt lat="40.4859880" lon="-4.0422230">
        <ele>789.5</ele>
        <time>2021-05-08T07:54:41Z</time>
      </trkpt>
      <trkpt lat="40.4860020" lon="-4.0422750">
        <ele>789.7</ele>
        <time>2021-05-08T07:54:43Z</time>
      </trkpt>
      <trkpt lat="40.4860370" lon="-4.0423440">
        <ele>790.1</ele>
        <time>2021-05-08T07:54:45Z</time>
      </trkpt>
      <trkpt lat="40.4860470" lon="-4.0423840">
        <ele>790.3</ele>
        <time>2021-05-08T07:54:46Z</time>
      </trkpt>
      <trkpt lat="40.4860570" lon="-4.0424290">
        <ele>790.5</ele>
        <time>2021-05-08T07:54:47Z</time>
      </trkpt>
      <trkpt lat="40.4860760" lon="-4.0424970">
        <ele>790.8</ele>
        <time>2021-05-08T07:54:49Z</time>
      </trkpt>
      <trkpt lat="40.4860900" lon="-4.0425350">
        <ele>791.0</ele>
        <time>2021-05-08T07:54:50Z</time>
      </trkpt>
      <trkpt lat="40.4861030" lon="-4.0425710">
        <ele>791.2</ele>
        <time>2021-05-08T07:54:51Z</time>
      </trkpt>
      <trkpt lat="40.4861200" lon="-4.0426200">
        <ele>791.4</ele>
        <time>2021-05-08T07:54:52Z</time>
      </trkpt>
      <trkpt lat="40.4861340" lon="-4.0426590">
        <ele>791.6</ele>
        <time>2021-05-08T07:54:53Z</time>
      </trkpt>
      <trkpt lat="40.4861480" lon="-4.0426960">
        <ele>791.8</ele>
        <time>2021-05-08T07:54:54Z</time>
      </trkpt>
      <trkpt lat="40.4861610" lon="-4.0427330">
        <ele>791.9</ele>
        <time>2021-05-08T07:54:56Z</time>
      </trkpt>
      <trkpt lat="40.4861780" lon="-4.0427800">
        <ele>792.1</ele>
        <time>2021-05-08T07:54:57Z</time>
      </trkpt>
      <trkpt lat="40.4861960" lon="-4.0428360">
        <ele>792.4</ele>
        <time>2021-05-08T07:54:58Z</time>
      </trkpt>
      <trkpt lat="40.4862140" lon="-4.0428870">
        <ele>792.6</ele>
        <time>2021-05-08T07:55:00Z</time>
      </trkpt>
      <trkpt lat="40.4862330" lon="-4.0429440">
        <ele>792.8</ele>
        <time>2021-05-08T07:55:01Z</time>
      </trkpt>
      <trkpt lat="40.4862530" lon="-4.0430090">
        <ele>793.0</ele>
        <time>2021-05-08T07:55:03Z</time>
      </trkpt>
      <trkpt lat="40.4862690" lon="-4.0430570">
        <ele>793.2</ele>
        <time>2021-05-08T07:55:04Z</time>
      </trkpt>
      <trkpt lat="40.4862830" lon="-4.0431080">
        <ele>793.4</ele>
        <time>2021-05-08T07:55:05Z</time>
      </trkpt>
      <trkpt lat="40.4862990" lon="-4.0431630">
        <ele>793.6</ele>
        <time>2021-05-08T07:55:07Z</time>
      </trkpt>
      <trkpt lat="40.4863190" lon="-4.0432260">
        <ele>793.9</ele>
        <time>2021-05-08T07:55:08Z</time>
      </trkpt>
      <trkpt lat="40.4863360" lon="-4.0432790">
        <ele>794.1</ele>
        <time>2021-05-08T07:55:10Z</time>
      </trkpt>
      <trkpt lat="40.4863480" lon="-4.0433170">
        <ele>794.3</ele>
        <time>2021-05-08T07:55:11Z</time>
      </trkpt>
      <trkpt lat="40.4863680" lon="-4.0433860">
        <ele>794.5</ele>
        <time>2021-05-08T07:55:13Z</time>
      </trkpt>
      <trkpt lat="40.4863830" lon="-4.0434330">
        <ele>794.7</ele>
        <time>2021-05-08T07:55:14Z</time>
      </trkpt>
      <trkpt lat="40.4863940" lon="-4.0434710">
        <ele>794.9</ele>
        <time>2021-05-08T07:55:15Z</time>
      </trkpt>
      <trkpt lat="40.4864120" lon="-4.0435250">
        <ele>795.1</ele>
        <time>2021-05-08T07:55:16Z</time>
      </trkpt>
      <trkpt lat="40.4864310" lon="-4.0435860">
        <ele>795.4</ele>
        <time>2021-05-08T07:55:18Z</time>
      </trkpt>
      <trkpt lat="40.4864430" lon="-4.0436260">
        <ele>795.5</ele>
        <time>2021-05-08T07:55:19Z</time>
      </trkpt>
      <trkpt lat="40.4864560" lon="-4.0436880">
        <ele>795.8</ele>
        <time>2021-05-08T07:55:20Z</time>
      </trkpt>
      <trkpt lat="40.4864670" lon="-4.0437480">
        <ele>796.0</ele>
        <time>2021-05-08T07:55:22Z</time>
      </trkpt>
      <trkpt lat="40.4864770" lon="-4.0438200">
        <ele>796.2</ele>
        <time>2021-05-08T07:55:23Z</time>
      </trkpt>
      <trkpt lat="40.4864860" lon="-4.0438740">
        <ele>796.4</ele>
        <time>2021-05-08T07:55:25Z</time>
      </trkpt>
      <trkpt lat="40.4864980" lon="-4.0439120">
        <ele>796.5</ele>
        <time>2021-05-08T07:55:26Z</time>
      </trkpt>
      <trkpt lat="40.4865100" lon="-4.0439510">
        <ele>796.6</ele>
        <time>2021-05-08T07:55:27Z</time>
      </trkpt>
      <trkpt lat="40.4865280" lon="-4.0439960">
        <ele>796.8</ele>
        <time>2021-05-08T07:55:28Z</time>
      </trkpt>
      <trkpt lat="40.4865440" lon="-4.0440370">
        <ele>796.9</ele>
        <time>2021-05-08T07:55:29Z</time>
      </trkpt>
      <trkpt lat="40.4865610" lon="-4.0440930">
        <ele>797.1</ele>
        <time>2021-05-08T07:55:30Z</time>
      </trkpt>
      <trkpt lat="40.4865790" lon="-4.0441470">
        <ele>797.2</ele>
        <time>2021-05-08T07:55:32Z</time>
      </trkpt>
      <trkpt lat="40.4866010" lon="-4.0442230">
        <ele>797.4</ele>
        <time>2021-05-08T07:55:34Z</time>
      </trkpt>
      <trkpt lat="40.4866240" lon="-4.0442860">
        <ele>797.6</ele>
        <time>2021-05-08T07:55:36Z</time>
      </trkpt>
      <trkpt lat="40.4866410" lon="-4.0443390">
        <ele>797.8</ele>
        <time>2021-05-08T07:55:37Z</time>
      </trkpt>
      <trkpt lat="40.4866530" lon="-4.0443810">
        <ele>797.9</ele>
        <time>2021-05-08T07:55:38Z</time>
      </trkpt>
      <trkpt lat="40.4866710" lon="-4.0444420">
        <ele>798.0</ele>
        <time>2021-05-08T07:55:39Z</time>
      </trkpt>
      <trkpt lat="40.4866890" lon="-4.0444940">
        <ele>798.2</ele>
        <time>2021-05-08T07:55:41Z</time>
      </trkpt>
      <trkpt lat="40.4867110" lon="-4.0445610">
        <ele>798.3</ele>
        <time>2021-05-08T07:55:43Z</time>
      </trkpt>
      <trkpt lat="40.4867300" lon="-4.0446140">
        <ele>798.4</ele>
        <time>2021-05-08T07:55:44Z</time>
      </trkpt>
      <trkpt lat="40.4867490" lon="-4.0446700">
        <ele>798.6</ele>
        <time>2021-05-08T07:55:45Z</time>
      </trkpt>
      <trkpt lat="40.4867690" lon="-4.0447200">
        <ele>798.7</ele>
        <time>2021-05-08T07:55:46Z</time>
      </trkpt>
      <trkpt lat="40.4867880" lon="-4.0447780">
        <ele>798.8</ele>
        <time>2021-05-08T07:55:48Z</time>
      </trkpt>
      <trkpt lat="40.4868150" lon="-4.0448560">
        <ele>799.0</ele>
        <time>2021-05-08T07:55:50Z</time>
      </trkpt>
      <trkpt lat="40.4868440" lon="-4.0449550">
        <ele>799.3</ele>
        <time>2021-05-08T07:55:52Z</time>
      </trkpt>
      <trkpt lat="40.4868680" lon="-4.0450460">
        <ele>799.5</ele>
        <time>2021-05-08T07:55:54Z</time>
      </trkpt>
      <trkpt lat="40.4868820" lon="-4.0450920">
        <ele>799.6</ele>
        <time>2021-05-08T07:55:55Z</time>
      </trkpt>
      <trkpt lat="40.4869000" lon="-4.0451620">
        <ele>799.7</ele>
        <time>2021-05-08T07:55:56Z</time>
      </trkpt>
      <trkpt lat="40.4869300" lon="-4.0452320">
        <ele>799.9</ele>
        <time>2021-05-08T07:55:58Z</time>
      </trkpt>
      <trkpt lat="40.4869440" lon="-4.0452830">
        <ele>800.0</ele>
        <time>2021-05-08T07:55:59Z</time>
      </trkpt>
      <trkpt lat="40.4869630" lon="-4.0453550">
        <ele>800.1</ele>
        <time>2021-05-08T07:56:00Z</time>
      </trkpt>
      <trkpt lat="40.4869840" lon="-4.0454290">
        <ele>800.3</ele>
        <time>2021-05-08T07:56:02Z</time>
      </trkpt>
      <trkpt lat="40.4870080" lon="-4.0455040">
        <ele>800.5</ele>
        <time>2021-05-08T07:56:03Z</time>
      </trkpt>
      <trkpt lat="40.4870320" lon="-4.0455850">
        <ele>800.6</ele>
        <time>2021-05-08T07:56:05Z</time>
      </trkpt>
      <trkpt lat="40.4870480" lon="-4.0456350">
        <ele>800.8</ele>
        <time>2021-05-08T07:56:06Z</time>
      </trkpt>
      <trkpt lat="40.4870770" lon="-4.0457290">
        <ele>801.0</ele>
        <time>2021-05-08T07:56:08Z</time>
      </trkpt>
      <trkpt lat="40.4870910" lon="-4.0457760">
        <ele>801.1</ele>
        <time>2021-05-08T07:56:09Z</time>
      </trkpt>
      <trkpt lat="40.4871100" lon="-4.0458240">
        <ele>801.3</ele>
        <time>2021-05-08T07:56:10Z</time>
      </trkpt>
      <trkpt lat="40.4871280" lon="-4.0458710">
        <ele>801.4</ele>
        <time>2021-05-08T07:56:11Z</time>
      </trkpt>
      <trkpt lat="40.4871610" lon="-4.0459660">
        <ele>801.7</ele>
        <time>2021-05-08T07:56:13Z</time>
      </trkpt>
      <trkpt lat="40.4871810" lon="-4.0460310">
        <ele>801.9</ele>
        <time>2021-05-08T07:56:14Z</time>
      </trkpt>
      <trkpt lat="40.4872060" lon="-4.0461000">
        <ele>802.2</ele>
        <time>2021-05-08T07:56:16Z</time>
      </trkpt>
      <trkpt lat="40.4872310" lon="-4.0461660">
        <ele>802.5</ele>
        <time>2021-05-08T07:56:17Z</time>
      </trkpt>
      <trkpt lat="40.4872600" lon="-4.0462450">
        <ele>802.8</ele>
        <time>2021-05-08T07:56:19Z</time>
      </trkpt>
      <trkpt lat="40.4872940" lon="-4.0463370">
        <ele>803.2</ele>
        <time>2021-05-08T07:56:21Z</time>
      </trkpt>
      <trkpt lat="40.4873140" lon="-4.0463920">
        <ele>803.5</ele>
        <time>2021-05-08T07:56:22Z</time>
      </trkpt>
      <trkpt lat="40.4873400" lon="-4.0464640">
        <ele>803.8</ele>
        <time>2021-05-08T07:56:23Z</time>
      </trkpt>
      <trkpt lat="40.4873610" lon="-4.0465160">
        <ele>804.1</ele>
        <time>2021-05-08T07:56:25Z</time>
      </trkpt>
      <trkpt lat="40.4873880" lon="-4.0465830">
        <ele>804.4</ele>
        <time>2021-05-08T07:56:26Z</time>
      </trkpt>
      <trkpt lat="40.4874090" lon="-4.0466320">
        <ele>804.6</ele>
        <time>2021-05-08T07:56:27Z</time>
      </trkpt>
      <trkpt lat="40.4874380" lon="-4.0466880">
        <ele>804.9</ele>
        <time>2021-05-08T07:56:28Z</time>
      </trkpt>
      <trkpt lat="40.4874720" lon="-4.0467550">
        <ele>805.2</ele>
        <time>2021-05-08T07:56:30Z</time>
      </trkpt>
      <trkpt lat="40.4875030" lon="-4.0468110">
        <ele>805.5</ele>
        <time>2021-05-08T07:56:31Z</time>
      </trkpt>
      <trkpt lat="40.4875430" lon="-4.0468830">
        <ele>805.8</ele>
        <time>2021-05-08T07:56:32Z</time>
      </trkpt>
      <trkpt lat="40.4875740" lon="-4.0469350">
        <ele>806.0</ele>
        <time>2021-05-08T07:56:34Z</time>
      </trkpt>
      <trkpt lat="40.4876060" lon="-4.0469830">
        <ele>806.2</ele>
        <time>2021-05-08T07:56:35Z</time>
      </trkpt>
      <trkpt lat="40.4876680" lon="-4.0470780">
        <ele>806.5</ele>
        <time>2021-05-08T07:56:37Z</time>
      </trkpt>
      <trkpt lat="40.4876940" lon="-4.0471110">
        <ele>806.7</ele>
        <time>2021-05-08T07:56:38Z</time>
      </trkpt>
      <trkpt lat="40.4877530" lon="-4.0471860">
        <ele>806.9</ele>
        <time>2021-05-08T07:56:40Z</time>
      </trkpt>
      <trkpt lat="40.4877850" lon="-4.0472200">
        <ele>807.0</ele>
        <time>2021-05-08T07:56:41Z</time>
      </trkpt>
      <trkpt lat="40.4878250" lon="-4.0472600">
        <ele>807.1</ele>
        <time>2021-05-08T07:56:42Z</time>
      </trkpt>
      <trkpt lat="40.4878910" lon="-4.0473250">
        <ele>807.3</ele>
        <time>2021-05-08T07:56:44Z</time>
      </trkpt>
      <trkpt lat="40.4879210" lon="-4.0473600">
        <ele>807.4</ele>
        <time>2021-05-08T07:56:45Z</time>
      </trkpt>
      <trkpt lat="40.4879940" lon="-4.0474320">
        <ele>807.5</ele>
        <time>2021-05-08T07:56:47Z</time>
      </trkpt>
      <trkpt lat="40.4880720" lon="-4.0475130">
        <ele>807.7</ele>
        <time>2021-05-08T07:56:49Z</time>
      </trkpt>
      <trkpt lat="40.4881170" lon="-4.0475430">
        <ele>807.7</ele>
        <time>2021-05-08T07:56:50Z</time>
      </trkpt>
      <trkpt lat="40.4882060" lon="-4.0475920">
        <ele>807.8</ele>
        <time>2021-05-08T07:56:52Z</time>
      </trkpt>
      <trkpt lat="40.4882460" lon="-4.0476220">
        <ele>807.8</ele>
        <time>2021-05-08T07:56:53Z</time>
      </trkpt>
      <trkpt lat="40.4883300" lon="-4.0476830">
        <ele>807.9</ele>
        <time>2021-05-08T07:56:55Z</time>
      </trkpt>
      <trkpt lat="40.4883760" lon="-4.0477120">
        <ele>807.9</ele>
        <time>2021-05-08T07:56:56Z</time>
      </trkpt>
      <trkpt lat="40.4884230" lon="-4.0477410">
        <ele>807.9</ele>
        <time>2021-05-08T07:56:57Z</time>
      </trkpt>
      <trkpt lat="40.4885100" lon="-4.0477960">
        <ele>808.1</ele>
        <time>2021-05-08T07:56:59Z</time>
      </trkpt>
      <trkpt lat="40.4885940" lon="-4.0478480">
        <ele>808.2</ele>
        <time>2021-05-08T07:57:01Z</time>
      </trkpt>
      <trkpt lat="40.4886740" lon="-4.0478980">
        <ele>808.3</ele>
        <time>2021-05-08T07:57:03Z</time>
      </trkpt>
      <trkpt lat="40.4887480" lon="-4.0479420">
        <ele>808.4</ele>
        <time>2021-05-08T07:57:05Z</time>
      </trkpt>
      <trkpt lat="40.4888310" lon="-4.0479900">
        <ele>808.5</ele>
        <time>2021-05-08T07:57:07Z</time>
      </trkpt>
      <trkpt lat="40.4889150" lon="-4.0480400">
        <ele>808.6</ele>
        <time>2021-05-08T07:57:09Z</time>
      </trkpt>
      <trkpt lat="40.4890010" lon="-4.0480920">
        <ele>808.7</ele>
        <time>2021-05-08T07:57:11Z</time>
      </trkpt>
      <trkpt lat="40.4890900" lon="-4.0481450">
        <ele>808.8</ele>
        <time>2021-05-08T07:57:13Z</time>
      </trkpt>
      <trkpt lat="40.4891400" lon="-4.0481720">
        <ele>808.8</ele>
        <time>2021-05-08T07:57:14Z</time>
      </trkpt>
      <trkpt lat="40.4892360" lon="-4.0482240">
        <ele>809.0</ele>
        <time>2021-05-08T07:57:16Z</time>
      </trkpt>
      <trkpt lat="40.4892820" lon="-4.0482480">
        <ele>809.0</ele>
        <time>2021-05-08T07:57:17Z</time>
      </trkpt>
      <trkpt lat="40.4893740" lon="-4.0483000">
        <ele>809.2</ele>
        <time>2021-05-08T07:57:19Z</time>
      </trkpt>
      <trkpt lat="40.4894590" lon="-4.0483610">
        <ele>809.3</ele>
        <time>2021-05-08T07:57:21Z</time>
      </trkpt>
      <trkpt lat="40.4895510" lon="-4.0484210">
        <ele>809.5</ele>
        <time>2021-05-08T07:57:23Z</time>
      </trkpt>
      <trkpt lat="40.4896260" lon="-4.0484690">
        <ele>809.6</ele>
        <time>2021-05-08T07:57:25Z</time>
      </trkpt>
      <trkpt lat="40.4897090" lon="-4.0485140">
        <ele>809.7</ele>
        <time>2021-05-08T07:57:27Z</time>
      </trkpt>
      <trkpt lat="40.4897860" lon="-4.0485600">
        <ele>809.7</ele>
        <time>2021-05-08T07:57:29Z</time>
      </trkpt>
      <trkpt lat="40.4898680" lon="-4.0486140">
        <ele>809.8</ele>
        <time>2021-05-08T07:57:31Z</time>
      </trkpt>
      <trkpt lat="40.4899520" lon="-4.0486760">
        <ele>809.8</ele>
        <time>2021-05-08T07:57:33Z</time>
      </trkpt>
      <trkpt lat="40.4899920" lon="-4.0487040">
        <ele>809.9</ele>
        <time>2021-05-08T07:57:34Z</time>
      </trkpt>
      <trkpt lat="40.4900330" lon="-4.0487350">
        <ele>809.9</ele>
        <time>2021-05-08T07:57:35Z</time>
      </trkpt>
      <trkpt lat="40.4901180" lon="-4.0487880">
        <ele>810.0</ele>
        <time>2021-05-08T07:57:37Z</time>
      </trkpt>
      <trkpt lat="40.4901620" lon="-4.0488150">
        <ele>810.0</ele>
        <time>2021-05-08T07:57:38Z</time>
      </trkpt>
      <trkpt lat="40.4902070" lon="-4.0488460">
        <ele>810.0</ele>
        <time>2021-05-08T07:57:39Z</time>
      </trkpt>
      <trkpt lat="40.4903000" lon="-4.0489080">
        <ele>810.0</ele>
        <time>2021-05-08T07:57:41Z</time>
      </trkpt>
      <trkpt lat="40.4903480" lon="-4.0489400">
        <ele>810.0</ele>
        <time>2021-05-08T07:57:42Z</time>
      </trkpt>
      <trkpt lat="40.4904360" lon="-4.0490040">
        <ele>810.0</ele>
        <time>2021-05-08T07:57:44Z</time>
      </trkpt>
      <trkpt lat="40.4904790" lon="-4.0490340">
        <ele>810.0</ele>
        <time>2021-05-08T07:57:45Z</time>
      </trkpt>
      <trkpt lat="40.4905230" lon="-4.0490640">
        <ele>810.0</ele>
        <time>2021-05-08T07:57:46Z</time>
      </trkpt>
      <trkpt lat="40.4905710" lon="-4.0490910">
        <ele>810.1</ele>
        <time>2021-05-08T07:57:47Z</time>
      </trkpt>
      <trkpt lat="40.4906640" lon="-4.0491450">
        <ele>810.1</ele>
        <time>2021-05-08T07:57:49Z</time>
      </trkpt>
      <trkpt lat="40.4907630" lon="-4.0492020">
        <ele>810.1</ele>
        <time>2021-05-08T07:57:51Z</time>
      </trkpt>
      <trkpt lat="40.4908650" lon="-4.0492640">
        <ele>810.1</ele>
        <time>2021-05-08T07:57:53Z</time>
      </trkpt>
      <trkpt lat="40.4909140" lon="-4.0492960">
        <ele>810.2</ele>
        <time>2021-05-08T07:57:54Z</time>
      </trkpt>
      <trkpt lat="40.4910120" lon="-4.0493570">
        <ele>810.2</ele>
        <time>2021-05-08T07:57:56Z</time>
      </trkpt>
      <trkpt lat="40.4911140" lon="-4.0494110">
        <ele>810.2</ele>
        <time>2021-05-08T07:57:58Z</time>
      </trkpt>
      <trkpt lat="40.4912120" lon="-4.0494730">
        <ele>810.2</ele>
        <time>2021-05-08T07:58:00Z</time>
      </trkpt>
      <trkpt lat="40.4912650" lon="-4.0495000">
        <ele>810.2</ele>
        <time>2021-05-08T07:58:01Z</time>
      </trkpt>
      <trkpt lat="40.4913200" lon="-4.0495270">
        <ele>810.2</ele>
        <time>2021-05-08T07:58:02Z</time>
      </trkpt>
      <trkpt lat="40.4913690" lon="-4.0495490">
        <ele>810.2</ele>
        <time>2021-05-08T07:58:03Z</time>
      </trkpt>
      <trkpt lat="40.4914310" lon="-4.0495770">
        <ele>810.2</ele>
        <time>2021-05-08T07:58:04Z</time>
      </trkpt>
      <trkpt lat="40.4915420" lon="-4.0496390">
        <ele>810.0</ele>
        <time>2021-05-08T07:58:06Z</time>
      </trkpt>
      <trkpt lat="40.4916520" lon="-4.0496970">
        <ele>809.9</ele>
        <time>2021-05-08T07:58:08Z</time>
      </trkpt>
      <trkpt lat="40.4917080" lon="-4.0497250">
        <ele>809.8</ele>
        <time>2021-05-08T07:58:09Z</time>
      </trkpt>
      <trkpt lat="40.4918240" lon="-4.0497800">
        <ele>809.6</ele>
        <time>2021-05-08T07:58:11Z</time>
      </trkpt>
      <trkpt lat="40.4918850" lon="-4.0498060">
        <ele>809.6</ele>
        <time>2021-05-08T07:58:12Z</time>
      </trkpt>
      <trkpt lat="40.4919460" lon="-4.0498300">
        <ele>809.5</ele>
        <time>2021-05-08T07:58:13Z</time>
      </trkpt>
      <trkpt lat="40.4920680" lon="-4.0498800">
        <ele>809.4</ele>
        <time>2021-05-08T07:58:15Z</time>
      </trkpt>
      <trkpt lat="40.4921290" lon="-4.0499060">
        <ele>809.4</ele>
        <time>2021-05-08T07:58:16Z</time>
      </trkpt>
      <trkpt lat="40.4922520" lon="-4.0499450">
        <ele>809.4</ele>
        <time>2021-05-08T07:58:18Z</time>
      </trkpt>
      <trkpt lat="40.4923720" lon="-4.0499770">
        <ele>809.4</ele>
        <time>2021-05-08T07:58:20Z</time>
      </trkpt>
      <trkpt lat="40.4924320" lon="-4.0499930">
        <ele>809.4</ele>
        <time>2021-05-08T07:58:21Z</time>
      </trkpt>
      <trkpt lat="40.4924900" lon="-4.0500130">
        <ele>809.4</ele>
        <time>2021-05-08T07:58:22Z</time>
      </trkpt>
      <trkpt lat="40.4925400" lon="-4.0500280">
        <ele>809.5</ele>
        <time>2021-05-08T07:58:23Z</time>
      </trkpt>
      <trkpt lat="40.4926540" lon="-4.0500630">
        <ele>809.6</ele>
        <time>2021-05-08T07:58:25Z</time>
      </trkpt>
      <trkpt lat="40.4927700" lon="-4.0500990">
        <ele>809.7</ele>
        <time>2021-05-08T07:58:27Z</time>
      </trkpt>
      <trkpt lat="40.4928860" lon="-4.0501320">
        <ele>809.8</ele>
        <time>2021-05-08T07:58:29Z</time>
      </trkpt>
      <trkpt lat="40.4929440" lon="-4.0501500">
        <ele>809.9</ele>
        <time>2021-05-08T07:58:30Z</time>
      </trkpt>
      <trkpt lat="40.4930560" lon="-4.0501850">
        <ele>810.1</ele>
        <time>2021-05-08T07:58:32Z</time>
      </trkpt>
      <trkpt lat="40.4931680" lon="-4.0502150">
        <ele>810.3</ele>
        <time>2021-05-08T07:58:34Z</time>
      </trkpt>
      <trkpt lat="40.4932230" lon="-4.0502320">
        <ele>810.4</ele>
        <time>2021-05-08T07:58:35Z</time>
      </trkpt>
      <trkpt lat="40.4932770" lon="-4.0502490">
        <ele>810.5</ele>
        <time>2021-05-08T07:58:36Z</time>
      </trkpt>
      <trkpt lat="40.4933330" lon="-4.0502630">
        <ele>810.7</ele>
        <time>2021-05-08T07:58:37Z</time>
      </trkpt>
      <trkpt lat="40.4933910" lon="-4.0502810">
        <ele>810.8</ele>
        <time>2021-05-08T07:58:38Z</time>
      </trkpt>
      <trkpt lat="40.4935060" lon="-4.0503180">
        <ele>811.1</ele>
        <time>2021-05-08T07:58:40Z</time>
      </trkpt>
      <trkpt lat="40.4935630" lon="-4.0503360">
        <ele>811.3</ele>
        <time>2021-05-08T07:58:41Z</time>
      </trkpt>
      <trkpt lat="40.4936790" lon="-4.0503690">
        <ele>811.5</ele>
        <time>2021-05-08T07:58:43Z</time>
      </trkpt>
      <trkpt lat="40.4937310" lon="-4.0503830">
        <ele>811.6</ele>
        <time>2021-05-08T07:58:44Z</time>
      </trkpt>
      <trkpt lat="40.4938400" lon="-4.0504130">
        <ele>811.8</ele>
        <time>2021-05-08T07:58:46Z</time>
      </trkpt>
      <trkpt lat="40.4939520" lon="-4.0504440">
        <ele>812.0</ele>
        <time>2021-05-08T07:58:48Z</time>
      </trkpt>
      <trkpt lat="40.4940060" lon="-4.0504620">
        <ele>812.1</ele>
        <time>2021-05-08T07:58:49Z</time>
      </trkpt>
      <trkpt lat="40.4940630" lon="-4.0504770">
        <ele>812.2</ele>
        <time>2021-05-08T07:58:50Z</time>
      </trkpt>
      <trkpt lat="40.4941170" lon="-4.0504930">
        <ele>812.3</ele>
        <time>2021-05-08T07:58:51Z</time>
      </trkpt>
      <trkpt lat="40.4942180" lon="-4.0505230">
        <ele>812.4</ele>
        <time>2021-05-08T07:58:53Z</time>
      </trkpt>
      <trkpt lat="40.4943160" lon="-4.0505490">
        <ele>812.6</ele>
        <time>2021-05-08T07:58:55Z</time>
      </trkpt>
      <trkpt lat="40.4944230" lon="-4.0505790">
        <ele>812.7</ele>
        <time>2021-05-08T07:58:57Z</time>
      </trkpt>
      <trkpt lat="40.4945250" lon="-4.0506090">
        <ele>812.8</ele>
        <time>2021-05-08T07:58:59Z</time>
      </trkpt>
      <trkpt lat="40.4945720" lon="-4.0506260">
        <ele>812.8</ele>
        <time>2021-05-08T07:59:00Z</time>
      </trkpt>
      <trkpt lat="40.4946710" lon="-4.0506550">
        <ele>812.9</ele>
        <time>2021-05-08T07:59:02Z</time>
      </trkpt>
      <trkpt lat="40.4947640" lon="-4.0506840">
        <ele>812.8</ele>
        <time>2021-05-08T07:59:04Z</time>
      </trkpt>
      <trkpt lat="40.4948140" lon="-4.0506970">
        <ele>812.7</ele>
        <time>2021-05-08T07:59:05Z</time>
      </trkpt>
      <trkpt lat="40.4948660" lon="-4.0507130">
        <ele>812.7</ele>
        <time>2021-05-08T07:59:06Z</time>
      </trkpt>
      <trkpt lat="40.4949710" lon="-4.0507410">
        <ele>812.6</ele>
        <time>2021-05-08T07:59:08Z</time>
      </trkpt>
      <trkpt lat="40.4950820" lon="-4.0507620">
        <ele>812.5</ele>
        <time>2021-05-08T07:59:10Z</time>
      </trkpt>
      <trkpt lat="40.4951400" lon="-4.0507740">
        <ele>812.4</ele>
        <time>2021-05-08T07:59:11Z</time>
      </trkpt>
      <trkpt lat="40.4951980" lon="-4.0507850">
        <ele>812.3</ele>
        <time>2021-05-08T07:59:12Z</time>
      </trkpt>
      <trkpt lat="40.4953170" lon="-4.0508080">
        <ele>812.2</ele>
        <time>2021-05-08T07:59:14Z</time>
      </trkpt>
      <trkpt lat="40.4953780" lon="-4.0508230">
        <ele>812.2</ele>
        <time>2021-05-08T07:59:15Z</time>
      </trkpt>
      <trkpt lat="40.4954990" lon="-4.0508520">
        <ele>812.2</ele>
        <time>2021-05-08T07:59:17Z</time>
      </trkpt>
      <trkpt lat="40.4956190" lon="-4.0508730">
        <ele>812.2</ele>
        <time>2021-05-08T07:59:19Z</time>
      </trkpt>
      <trkpt lat="40.4956800" lon="-4.0508840">
        <ele>812.3</ele>
        <time>2021-05-08T07:59:20Z</time>
      </trkpt>
      <trkpt lat="40.4958020" lon="-4.0509080">
        <ele>812.4</ele>
        <time>2021-05-08T07:59:22Z</time>
      </trkpt>
      <trkpt lat="40.4958630" lon="-4.0509190">
        <ele>812.4</ele>
        <time>2021-05-08T07:59:23Z</time>
      </trkpt>
      <trkpt lat="40.4959230" lon="-4.0509310">
        <ele>812.4</ele>
        <time>2021-05-08T07:59:24Z</time>
      </trkpt>
      <trkpt lat="40.4959900" lon="-4.0509460">
        <ele>812.3</ele>
        <time>2021-05-08T07:59:25Z</time>
      </trkpt>
      <trkpt lat="40.4961020" lon="-4.0509750">
        <ele>812.3</ele>
        <time>2021-05-08T07:59:27Z</time>
      </trkpt>
      <trkpt lat="40.4961580" lon="-4.0509900">
        <ele>812.2</ele>
        <time>2021-05-08T07:59:28Z</time>
      </trkpt>
      <trkpt lat="40.4962740" lon="-4.0510100">
        <ele>812.3</ele>
        <time>2021-05-08T07:59:30Z</time>
      </trkpt>
      <trkpt lat="40.4963300" lon="-4.0510180">
        <ele>812.3</ele>
        <time>2021-05-08T07:59:31Z</time>
      </trkpt>
      <trkpt lat="40.4963850" lon="-4.0510250">
        <ele>812.3</ele>
        <time>2021-05-08T07:59:32Z</time>
      </trkpt>
      <trkpt lat="40.4964940" lon="-4.0510380">
        <ele>812.4</ele>
        <time>2021-05-08T07:59:34Z</time>
      </trkpt>
      <trkpt lat="40.4965480" lon="-4.0510450">
        <ele>812.4</ele>
        <time>2021-05-08T07:59:35Z</time>
      </trkpt>
      <trkpt lat="40.4966010" lon="-4.0510520">
        <ele>812.5</ele>
        <time>2021-05-08T07:59:36Z</time>
      </trkpt>
      <trkpt lat="40.4967110" lon="-4.0510700">
        <ele>812.6</ele>
        <time>2021-05-08T07:59:38Z</time>
      </trkpt>
      <trkpt lat="40.4968150" lon="-4.0510890">
        <ele>812.8</ele>
        <time>2021-05-08T07:59:40Z</time>
      </trkpt>
      <trkpt lat="40.4968630" lon="-4.0510970">
        <ele>812.9</ele>
        <time>2021-05-08T07:59:41Z</time>
      </trkpt>
      <trkpt lat="40.4969610" lon="-4.0511140">
        <ele>813.1</ele>
        <time>2021-05-08T07:59:43Z</time>
      </trkpt>
      <trkpt lat="40.4970090" lon="-4.0511220">
        <ele>813.2</ele>
        <time>2021-05-08T07:59:44Z</time>
      </trkpt>
      <trkpt lat="40.4970600" lon="-4.0511310">
        <ele>813.3</ele>
        <time>2021-05-08T07:59:45Z</time>
      </trkpt>
      <trkpt lat="40.4971230" lon="-4.0511490">
        <ele>813.4</ele>
        <time>2021-05-08T07:59:47Z</time>
      </trkpt>
      <trkpt lat="40.4972180" lon="-4.0511620">
        <ele>813.6</ele>
        <time>2021-05-08T07:59:49Z</time>
      </trkpt>
      <trkpt lat="40.4972830" lon="-4.0511760">
        <ele>813.8</ele>
        <time>2021-05-08T07:59:51Z</time>
      </trkpt>
      <trkpt lat="40.4973200" lon="-4.0511840">
        <ele>813.8</ele>
        <time>2021-05-08T07:59:52Z</time>
      </trkpt>
      <trkpt lat="40.4973390" lon="-4.0511820">
        <ele>813.9</ele>
        <time>2021-05-08T07:59:53Z</time>
      </trkpt>
      <trkpt lat="40.4973500" lon="-4.0511570">
        <ele>813.9</ele>
        <time>2021-05-08T07:59:55Z</time>
      </trkpt>
      <trkpt lat="40.4974110" lon="-4.0511840">
        <ele>814.1</ele>
        <time>2021-05-08T07:59:56Z</time>
      </trkpt>
      <trkpt lat="40.4975020" lon="-4.0512090">
        <ele>814.3</ele>
        <time>2021-05-08T07:59:58Z</time>
      </trkpt>
      <trkpt lat="40.4975540" lon="-4.0512220">
        <ele>814.4</ele>
        <time>2021-05-08T07:59:59Z</time>
      </trkpt>
      <trkpt lat="40.4976240" lon="-4.0512370">
        <ele>814.6</ele>
        <time>2021-05-08T08:00:00Z</time>
      </trkpt>
      <trkpt lat="40.4976940" lon="-4.0512520">
        <ele>814.7</ele>
        <time>2021-05-08T08:00:02Z</time>
      </trkpt>
      <trkpt lat="40.4977780" lon="-4.0512630">
        <ele>815.0</ele>
        <time>2021-05-08T08:00:04Z</time>
      </trkpt>
      <trkpt lat="40.4978630" lon="-4.0512800">
        <ele>815.2</ele>
        <time>2021-05-08T08:00:06Z</time>
      </trkpt>
      <trkpt lat="40.4979450" lon="-4.0512970">
        <ele>815.4</ele>
        <time>2021-05-08T08:00:08Z</time>
      </trkpt>
      <trkpt lat="40.4979940" lon="-4.0513050">
        <ele>815.6</ele>
        <time>2021-05-08T08:00:09Z</time>
      </trkpt>
      <trkpt lat="40.4980560" lon="-4.0513200">
        <ele>815.7</ele>
        <time>2021-05-08T08:00:11Z</time>
      </trkpt>
      <trkpt lat="40.4980970" lon="-4.0513310">
        <ele>815.8</ele>
        <time>2021-05-08T08:00:12Z</time>
      </trkpt>
      <trkpt lat="40.4981810" lon="-4.0513590">
        <ele>816.1</ele>
        <time>2021-05-08T08:00:14Z</time>
      </trkpt>
      <trkpt lat="40.4982780" lon="-4.0513820">
        <ele>816.3</ele>
        <time>2021-05-08T08:00:16Z</time>
      </trkpt>
      <trkpt lat="40.4983330" lon="-4.0513900">
        <ele>816.4</ele>
        <time>2021-05-08T08:00:17Z</time>
      </trkpt>
      <trkpt lat="40.4984190" lon="-4.0514050">
        <ele>816.6</ele>
        <time>2021-05-08T08:00:19Z</time>
      </trkpt>
      <trkpt lat="40.4985120" lon="-4.0514310">
        <ele>816.8</ele>
        <time>2021-05-08T08:00:21Z</time>
      </trkpt>
      <trkpt lat="40.4986080" lon="-4.0514510">
        <ele>817.0</ele>
        <time>2021-05-08T08:00:23Z</time>
      </trkpt>
      <trkpt lat="40.4987020" lon="-4.0514690">
        <ele>817.2</ele>
        <time>2021-05-08T08:00:25Z</time>
      </trkpt>
      <trkpt lat="40.4987500" lon="-4.0514770">
        <ele>817.3</ele>
        <time>2021-05-08T08:00:26Z</time>
      </trkpt>
      <trkpt lat="40.4988010" lon="-4.0514840">
        <ele>817.3</ele>
        <time>2021-05-08T08:00:27Z</time>
      </trkpt>
      <trkpt lat="40.4988530" lon="-4.0514930">
        <ele>817.4</ele>
        <time>2021-05-08T08:00:28Z</time>
      </trkpt>
      <trkpt lat="40.4989040" lon="-4.0515000">
        <ele>817.5</ele>
        <time>2021-05-08T08:00:29Z</time>
      </trkpt>
      <trkpt lat="40.4990030" lon="-4.0515170">
        <ele>817.6</ele>
        <time>2021-05-08T08:00:31Z</time>
      </trkpt>
      <trkpt lat="40.4990540" lon="-4.0515250">
        <ele>817.7</ele>
        <time>2021-05-08T08:00:32Z</time>
      </trkpt>
      <trkpt lat="40.4991550" lon="-4.0515400">
        <ele>817.8</ele>
        <time>2021-05-08T08:00:34Z</time>
      </trkpt>
      <trkpt lat="40.4992580" lon="-4.0515550">
        <ele>817.8</ele>
        <time>2021-05-08T08:00:36Z</time>
      </trkpt>
      <trkpt lat="40.4993680" lon="-4.0515710">
        <ele>817.9</ele>
        <time>2021-05-08T08:00:38Z</time>
      </trkpt>
      <trkpt lat="40.4994140" lon="-4.0515770">
        <ele>817.9</ele>
        <time>2021-05-08T08:00:39Z</time>
      </trkpt>
      <trkpt lat="40.4995200" lon="-4.0515920">
        <ele>818.1</ele>
        <time>2021-05-08T08:00:41Z</time>
      </trkpt>
      <trkpt lat="40.4995730" lon="-4.0516020">
        <ele>818.1</ele>
        <time>2021-05-08T08:00:42Z</time>
      </trkpt>
      <trkpt lat="40.4996280" lon="-4.0516090">
        <ele>818.2</ele>
        <time>2021-05-08T08:00:43Z</time>
      </trkpt>
      <trkpt lat="40.4997290" lon="-4.0516130">
        <ele>818.4</ele>
        <time>2021-05-08T08:00:45Z</time>
      </trkpt>
      <trkpt lat="40.4998230" lon="-4.0516130">
        <ele>818.6</ele>
        <time>2021-05-08T08:00:47Z</time>
      </trkpt>
      <trkpt lat="40.4999210" lon="-4.0516160">
        <ele>818.8</ele>
        <time>2021-05-08T08:00:49Z</time>
      </trkpt>
      <trkpt lat="40.5000180" lon="-4.0516230">
        <ele>818.9</ele>
        <time>2021-05-08T08:00:51Z</time>
      </trkpt>
      <trkpt lat="40.5000690" lon="-4.0516250">
        <ele>819.0</ele>
        <time>2021-05-08T08:00:52Z</time>
      </trkpt>
      <trkpt lat="40.5001180" lon="-4.0516260">
        <ele>819.1</ele>
        <time>2021-05-08T08:00:53Z</time>
      </trkpt>
      <trkpt lat="40.5002250" lon="-4.0516180">
        <ele>819.3</ele>
        <time>2021-05-08T08:00:55Z</time>
      </trkpt>
      <trkpt lat="40.5002770" lon="-4.0516140">
        <ele>819.4</ele>
        <time>2021-05-08T08:00:56Z</time>
      </trkpt>
      <trkpt lat="40.5003240" lon="-4.0516120">
        <ele>819.5</ele>
        <time>2021-05-08T08:00:57Z</time>
      </trkpt>
      <trkpt lat="40.5004180" lon="-4.0516120">
        <ele>819.6</ele>
        <time>2021-05-08T08:00:59Z</time>
      </trkpt>
      <trkpt lat="40.5004660" lon="-4.0516140">
        <ele>819.7</ele>
        <time>2021-05-08T08:01:00Z</time>
      </trkpt>
      <trkpt lat="40.5005660" lon="-4.0516240">
        <ele>819.8</ele>
        <time>2021-05-08T08:01:02Z</time>
      </trkpt>
      <trkpt lat="40.5006670" lon="-4.0516390">
        <ele>819.9</ele>
        <time>2021-05-08T08:01:04Z</time>
      </trkpt>
      <trkpt lat="40.5007180" lon="-4.0516480">
        <ele>820.0</ele>
        <time>2021-05-08T08:01:05Z</time>
      </trkpt>
      <trkpt lat="40.5007700" lon="-4.0516550">
        <ele>820.1</ele>
        <time>2021-05-08T08:01:06Z</time>
      </trkpt>
      <trkpt lat="40.5008190" lon="-4.0516650">
        <ele>820.2</ele>
        <time>2021-05-08T08:01:07Z</time>
      </trkpt>
      <trkpt lat="40.5009200" lon="-4.0516840">
        <ele>820.4</ele>
        <time>2021-05-08T08:01:09Z</time>
      </trkpt>
      <trkpt lat="40.5009690" lon="-4.0516960">
        <ele>820.5</ele>
        <time>2021-05-08T08:01:10Z</time>
      </trkpt>
      <trkpt lat="40.5010170" lon="-4.0517100">
        <ele>820.6</ele>
        <time>2021-05-08T08:01:11Z</time>
      </trkpt>
      <trkpt lat="40.5011140" lon="-4.0517420">
        <ele>820.8</ele>
        <time>2021-05-08T08:01:13Z</time>
      </trkpt>
      <trkpt lat="40.5012110" lon="-4.0517830">
        <ele>821.0</ele>
        <time>2021-05-08T08:01:15Z</time>
      </trkpt>
      <trkpt lat="40.5012610" lon="-4.0518070">
        <ele>821.0</ele>
        <time>2021-05-08T08:01:16Z</time>
      </trkpt>
      <trkpt lat="40.5013150" lon="-4.0518300">
        <ele>821.1</ele>
        <time>2021-05-08T08:01:17Z</time>
      </trkpt>
      <trkpt lat="40.5013750" lon="-4.0518600">
        <ele>821.3</ele>
        <time>2021-05-08T08:01:18Z</time>
      </trkpt>
      <trkpt lat="40.5014720" lon="-4.0519070">
        <ele>821.4</ele>
        <time>2021-05-08T08:01:20Z</time>
      </trkpt>
      <trkpt lat="40.5015230" lon="-4.0519290">
        <ele>821.5</ele>
        <time>2021-05-08T08:01:21Z</time>
      </trkpt>
      <trkpt lat="40.5016220" lon="-4.0519820">
        <ele>821.7</ele>
        <time>2021-05-08T08:01:23Z</time>
      </trkpt>
      <trkpt lat="40.5016730" lon="-4.0520110">
        <ele>821.8</ele>
        <time>2021-05-08T08:01:24Z</time>
      </trkpt>
      <trkpt lat="40.5017750" lon="-4.0520720">
        <ele>822.0</ele>
        <time>2021-05-08T08:01:26Z</time>
      </trkpt>
      <trkpt lat="40.5018770" lon="-4.0521380">
        <ele>822.3</ele>
        <time>2021-05-08T08:01:28Z</time>
      </trkpt>
      <trkpt lat="40.5019730" lon="-4.0521980">
        <ele>822.5</ele>
        <time>2021-05-08T08:01:30Z</time>
      </trkpt>
      <trkpt lat="40.5020690" lon="-4.0522580">
        <ele>822.7</ele>
        <time>2021-05-08T08:01:32Z</time>
      </trkpt>
      <trkpt lat="40.5021670" lon="-4.0523130">
        <ele>823.0</ele>
        <time>2021-05-08T08:01:34Z</time>
      </trkpt>
      <trkpt lat="40.5022130" lon="-4.0523390">
        <ele>823.1</ele>
        <time>2021-05-08T08:01:35Z</time>
      </trkpt>
      <trkpt lat="40.5023010" lon="-4.0523940">
        <ele>823.3</ele>
        <time>2021-05-08T08:01:37Z</time>
      </trkpt>
      <trkpt lat="40.5023920" lon="-4.0524510">
        <ele>823.6</ele>
        <time>2021-05-08T08:01:39Z</time>
      </trkpt>
      <trkpt lat="40.5024830" lon="-4.0525030">
        <ele>823.8</ele>
        <time>2021-05-08T08:01:41Z</time>
      </trkpt>
      <trkpt lat="40.5025280" lon="-4.0525270">
        <ele>823.9</ele>
        <time>2021-05-08T08:01:42Z</time>
      </trkpt>
      <trkpt lat="40.5026170" lon="-4.0525770">
        <ele>823.9</ele>
        <time>2021-05-08T08:01:44Z</time>
      </trkpt>
      <trkpt lat="40.5027050" lon="-4.0526320">
        <ele>824.1</ele>
        <time>2021-05-08T08:01:46Z</time>
      </trkpt>
      <trkpt lat="40.5027930" lon="-4.0526900">
        <ele>824.3</ele>
        <time>2021-05-08T08:01:48Z</time>
      </trkpt>
      <trkpt lat="40.5028820" lon="-4.0527460">
        <ele>824.5</ele>
        <time>2021-05-08T08:01:50Z</time>
      </trkpt>
      <trkpt lat="40.5029260" lon="-4.0527730">
        <ele>824.7</ele>
        <time>2021-05-08T08:01:51Z</time>
      </trkpt>
      <trkpt lat="40.5030130" lon="-4.0528250">
        <ele>824.9</ele>
        <time>2021-05-08T08:01:53Z</time>
      </trkpt>
      <trkpt lat="40.5030560" lon="-4.0528500">
        <ele>825.0</ele>
        <time>2021-05-08T08:01:54Z</time>
      </trkpt>
      <trkpt lat="40.5031000" lon="-4.0528760">
        <ele>825.1</ele>
        <time>2021-05-08T08:01:55Z</time>
      </trkpt>
      <trkpt lat="40.5031870" lon="-4.0529310">
        <ele>825.4</ele>
        <time>2021-05-08T08:01:57Z</time>
      </trkpt>
      <trkpt lat="40.5032350" lon="-4.0529630">
        <ele>825.5</ele>
        <time>2021-05-08T08:01:58Z</time>
      </trkpt>
      <trkpt lat="40.5033140" lon="-4.0530000">
        <ele>825.7</ele>
        <time>2021-05-08T08:02:00Z</time>
      </trkpt>
      <trkpt lat="40.5034050" lon="-4.0530380">
        <ele>826.0</ele>
        <time>2021-05-08T08:02:02Z</time>
      </trkpt>
      <trkpt lat="40.5034930" lon="-4.0530820">
        <ele>826.3</ele>
        <time>2021-05-08T08:02:04Z</time>
      </trkpt>
      <trkpt lat="40.5035360" lon="-4.0531010">
        <ele>826.4</ele>
        <time>2021-05-08T08:02:05Z</time>
      </trkpt>
      <trkpt lat="40.5036240" lon="-4.0531360">
        <ele>826.7</ele>
        <time>2021-05-08T08:02:07Z</time>
      </trkpt>
      <trkpt lat="40.5036480" lon="-4.0531460">
        <ele>826.8</ele>
        <time>2021-05-08T08:02:08Z</time>
      </trkpt>
      <trkpt lat="40.5037340" lon="-4.0531830">
        <ele>827.1</ele>
        <time>2021-05-08T08:02:10Z</time>
      </trkpt>
      <trkpt lat="40.5037860" lon="-4.0532020">
        <ele>827.3</ele>
        <time>2021-05-08T08:02:11Z</time>
      </trkpt>
      <trkpt lat="40.5038590" lon="-4.0532320">
        <ele>827.6</ele>
        <time>2021-05-08T08:02:13Z</time>
      </trkpt>
      <trkpt lat="40.5039200" lon="-4.0532530">
        <ele>827.8</ele>
        <time>2021-05-08T08:02:14Z</time>
      </trkpt>
      <trkpt lat="40.5039380" lon="-4.0532600">
        <ele>827.9</ele>
        <time>2021-05-08T08:02:15Z</time>
      </trkpt>
      <trkpt lat="40.5040280" lon="-4.0532990">
        <ele>828.2</ele>
        <time>2021-05-08T08:02:17Z</time>
      </trkpt>
      <trkpt lat="40.5041070" lon="-4.0533290">
        <ele>828.5</ele>
        <time>2021-05-08T08:02:19Z</time>
      </trkpt>
      <trkpt lat="40.5041540" lon="-4.0533470">
        <ele>828.7</ele>
        <time>2021-05-08T08:02:20Z</time>
      </trkpt>
      <trkpt lat="40.5041760" lon="-4.0533550">
        <ele>828.8</ele>
        <time>2021-05-08T08:02:21Z</time>
      </trkpt>
      <trkpt lat="40.5042580" lon="-4.0533830">
        <ele>829.2</ele>
        <time>2021-05-08T08:02:23Z</time>
      </trkpt>
      <trkpt lat="40.5043250" lon="-4.0534060">
        <ele>829.4</ele>
        <time>2021-05-08T08:02:25Z</time>
      </trkpt>
      <trkpt lat="40.5043700" lon="-4.0534250">
        <ele>829.6</ele>
        <time>2021-05-08T08:02:26Z</time>
      </trkpt>
      <trkpt lat="40.5044410" lon="-4.0534490">
        <ele>830.0</ele>
        <time>2021-05-08T08:02:28Z</time>
      </trkpt>
      <trkpt lat="40.5045100" lon="-4.0534760">
        <ele>830.3</ele>
        <time>2021-05-08T08:02:30Z</time>
      </trkpt>
      <trkpt lat="40.5045490" lon="-4.0534940">
        <ele>830.5</ele>
        <time>2021-05-08T08:02:31Z</time>
      </trkpt>
      <trkpt lat="40.5045800" lon="-4.0535080">
        <ele>830.6</ele>
        <time>2021-05-08T08:02:32Z</time>
      </trkpt>
      <trkpt lat="40.5046550" lon="-4.0535370">
        <ele>831.0</ele>
        <time>2021-05-08T08:02:34Z</time>
      </trkpt>
      <trkpt lat="40.5047080" lon="-4.0535560">
        <ele>831.2</ele>
        <time>2021-05-08T08:02:35Z</time>
      </trkpt>
      <trkpt lat="40.5047530" lon="-4.0535720">
        <ele>831.5</ele>
        <time>2021-05-08T08:02:36Z</time>
      </trkpt>
      <trkpt lat="40.5048110" lon="-4.0535920">
        <ele>831.7</ele>
        <time>2021-05-08T08:02:38Z</time>
      </trkpt>
      <trkpt lat="40.5048570" lon="-4.0536070">
        <ele>832.0</ele>
        <time>2021-05-08T08:02:39Z</time>
      </trkpt>
      <trkpt lat="40.5049290" lon="-4.0536380">
        <ele>832.3</ele>
        <time>2021-05-08T08:02:41Z</time>
      </trkpt>
      <trkpt lat="40.5049810" lon="-4.0536580">
        <ele>832.6</ele>
        <time>2021-05-08T08:02:42Z</time>
      </trkpt>
      <trkpt lat="40.5050190" lon="-4.0536730">
        <ele>832.8</ele>
        <time>2021-05-08T08:02:43Z</time>
      </trkpt>
      <trkpt lat="40.5050740" lon="-4.0536940">
        <ele>833.0</ele>
        <time>2021-05-08T08:02:45Z</time>
      </trkpt>
      <trkpt lat="40.5051430" lon="-4.0537160">
        <ele>833.4</ele>
        <time>2021-05-08T08:02:47Z</time>
      </trkpt>
      <trkpt lat="40.5051980" lon="-4.0537340">
        <ele>833.6</ele>
        <time>2021-05-08T08:02:48Z</time>
      </trkpt>
      <trkpt lat="40.5052460" lon="-4.0537520">
        <ele>833.8</ele>
        <time>2021-05-08T08:02:50Z</time>
      </trkpt>
      <trkpt lat="40.5052970" lon="-4.0537680">
        <ele>834.1</ele>
        <time>2021-05-08T08:02:51Z</time>
      </trkpt>
      <trkpt lat="40.5053660" lon="-4.0537890">
        <ele>834.4</ele>
        <time>2021-05-08T08:02:53Z</time>
      </trkpt>
      <trkpt lat="40.5054070" lon="-4.0538010">
        <ele>834.6</ele>
        <time>2021-05-08T08:02:54Z</time>
      </trkpt>
      <trkpt lat="40.5054470" lon="-4.0538150">
        <ele>834.7</ele>
        <time>2021-05-08T08:02:55Z</time>
      </trkpt>
      <trkpt lat="40.5055220" lon="-4.0538430">
        <ele>835.1</ele>
        <time>2021-05-08T08:02:57Z</time>
      </trkpt>
      <trkpt lat="40.5056100" lon="-4.0538740">
        <ele>835.4</ele>
        <time>2021-05-08T08:02:59Z</time>
      </trkpt>
      <trkpt lat="40.5056440" lon="-4.0538870">
        <ele>835.5</ele>
        <time>2021-05-08T08:03:00Z</time>
      </trkpt>
      <trkpt lat="40.5056940" lon="-4.0539100">
        <ele>835.7</ele>
        <time>2021-05-08T08:03:01Z</time>
      </trkpt>
      <trkpt lat="40.5057490" lon="-4.0539330">
        <ele>835.7</ele>
        <time>2021-05-08T08:03:03Z</time>
      </trkpt>
      <trkpt lat="40.5057980" lon="-4.0539530">
        <ele>835.8</ele>
        <time>2021-05-08T08:03:04Z</time>
      </trkpt>
      <trkpt lat="40.5058510" lon="-4.0539760">
        <ele>835.9</ele>
        <time>2021-05-08T08:03:06Z</time>
      </trkpt>
      <trkpt lat="40.5059030" lon="-4.0539920">
        <ele>836.1</ele>
        <time>2021-05-08T08:03:07Z</time>
      </trkpt>
      <trkpt lat="40.5059600" lon="-4.0540000">
        <ele>836.3</ele>
        <time>2021-05-08T08:03:09Z</time>
      </trkpt>
      <trkpt lat="40.5060330" lon="-4.0540270">
        <ele>836.7</ele>
        <time>2021-05-08T08:03:11Z</time>
      </trkpt>
      <trkpt lat="40.5060820" lon="-4.0540460">
        <ele>836.9</ele>
        <time>2021-05-08T08:03:12Z</time>
      </trkpt>
      <trkpt lat="40.5061400" lon="-4.0540710">
        <ele>837.2</ele>
        <time>2021-05-08T08:03:14Z</time>
      </trkpt>
      <trkpt lat="40.5061970" lon="-4.0540920">
        <ele>837.5</ele>
        <time>2021-05-08T08:03:15Z</time>
      </trkpt>
      <trkpt lat="40.5062330" lon="-4.0541050">
        <ele>837.6</ele>
        <time>2021-05-08T08:03:17Z</time>
      </trkpt>
      <trkpt lat="40.5062760" lon="-4.0541210">
        <ele>837.9</ele>
        <time>2021-05-08T08:03:18Z</time>
      </trkpt>
      <trkpt lat="40.5063130" lon="-4.0541370">
        <ele>838.1</ele>
        <time>2021-05-08T08:03:19Z</time>
      </trkpt>
      <trkpt lat="40.5063710" lon="-4.0541600">
        <ele>838.4</ele>
        <time>2021-05-08T08:03:21Z</time>
      </trkpt>
      <trkpt lat="40.5064070" lon="-4.0541740">
        <ele>838.5</ele>
        <time>2021-05-08T08:03:22Z</time>
      </trkpt>
      <trkpt lat="40.5064440" lon="-4.0541900">
        <ele>838.7</ele>
        <time>2021-05-08T08:03:23Z</time>
      </trkpt>
      <trkpt lat="40.5064830" lon="-4.0542040">
        <ele>838.9</ele>
        <time>2021-05-08T08:03:24Z</time>
      </trkpt>
      <trkpt lat="40.5065400" lon="-4.0542290">
        <ele>839.2</ele>
        <time>2021-05-08T08:03:26Z</time>
      </trkpt>
      <trkpt lat="40.5065770" lon="-4.0542440">
        <ele>839.4</ele>
        <time>2021-05-08T08:03:27Z</time>
      </trkpt>
      <trkpt lat="40.5066450" lon="-4.0542670">
        <ele>839.7</ele>
        <time>2021-05-08T08:03:29Z</time>
      </trkpt>
      <trkpt lat="40.5067050" lon="-4.0542880">
        <ele>840.0</ele>
        <time>2021-05-08T08:03:31Z</time>
      </trkpt>
      <trkpt lat="40.5067420" lon="-4.0543020">
        <ele>840.2</ele>
        <time>2021-05-08T08:03:32Z</time>
      </trkpt>
      <trkpt lat="40.5067740" lon="-4.0543130">
        <ele>840.4</ele>
        <time>2021-05-08T08:03:33Z</time>
      </trkpt>
      <trkpt lat="40.5068230" lon="-4.0543340">
        <ele>840.6</ele>
        <time>2021-05-08T08:03:34Z</time>
      </trkpt>
      <trkpt lat="40.5068690" lon="-4.0543550">
        <ele>840.9</ele>
        <time>2021-05-08T08:03:36Z</time>
      </trkpt>
      <trkpt lat="40.5069010" lon="-4.0543720">
        <ele>841.0</ele>
        <time>2021-05-08T08:03:37Z</time>
      </trkpt>
      <trkpt lat="40.5069600" lon="-4.0544010">
        <ele>841.3</ele>
        <time>2021-05-08T08:03:39Z</time>
      </trkpt>
      <trkpt lat="40.5069920" lon="-4.0544160">
        <ele>841.5</ele>
        <time>2021-05-08T08:03:40Z</time>
      </trkpt>
      <trkpt lat="40.5070240" lon="-4.0544370">
        <ele>841.7</ele>
        <time>2021-05-08T08:03:41Z</time>
      </trkpt>
      <trkpt lat="40.5070780" lon="-4.0544750">
        <ele>842.0</ele>
        <time>2021-05-08T08:03:43Z</time>
      </trkpt>
      <trkpt lat="40.5071090" lon="-4.0544950">
        <ele>842.1</ele>
        <time>2021-05-08T08:03:44Z</time>
      </trkpt>
      <trkpt lat="40.5071430" lon="-4.0545180">
        <ele>842.3</ele>
        <time>2021-05-08T08:03:45Z</time>
      </trkpt>
      <trkpt lat="40.5071730" lon="-4.0545420">
        <ele>842.5</ele>
        <time>2021-05-08T08:03:46Z</time>
      </trkpt>
      <trkpt lat="40.5072290" lon="-4.0545840">
        <ele>842.8</ele>
        <time>2021-05-08T08:03:48Z</time>
      </trkpt>
      <trkpt lat="40.5072640" lon="-4.0546150">
        <ele>843.0</ele>
        <time>2021-05-08T08:03:49Z</time>
      </trkpt>
      <trkpt lat="40.5073100" lon="-4.0546580">
        <ele>843.3</ele>
        <time>2021-05-08T08:03:50Z</time>
      </trkpt>
      <trkpt lat="40.5073530" lon="-4.0546980">
        <ele>843.6</ele>
        <time>2021-05-08T08:03:52Z</time>
      </trkpt>
      <trkpt lat="40.5074110" lon="-4.0547470">
        <ele>844.0</ele>
        <time>2021-05-08T08:03:54Z</time>
      </trkpt>
      <trkpt lat="40.5074520" lon="-4.0547850">
        <ele>844.2</ele>
        <time>2021-05-08T08:03:55Z</time>
      </trkpt>
      <trkpt lat="40.5074910" lon="-4.0548220">
        <ele>844.5</ele>
        <time>2021-05-08T08:03:57Z</time>
      </trkpt>
      <trkpt lat="40.5075200" lon="-4.0548490">
        <ele>844.6</ele>
        <time>2021-05-08T08:03:58Z</time>
      </trkpt>
      <trkpt lat="40.5075790" lon="-4.0549040">
        <ele>845.0</ele>
        <time>2021-05-08T08:04:00Z</time>
      </trkpt>
      <trkpt lat="40.5076050" lon="-4.0549330">
        <ele>845.2</ele>
        <time>2021-05-08T08:04:01Z</time>
      </trkpt>
      <trkpt lat="40.5076410" lon="-4.0549750">
        <ele>845.4</ele>
        <time>2021-05-08T08:04:02Z</time>
      </trkpt>
      <trkpt lat="40.5076660" lon="-4.0550060">
        <ele>845.5</ele>
        <time>2021-05-08T08:04:03Z</time>
      </trkpt>
      <trkpt lat="40.5077060" lon="-4.0550600">
        <ele>845.8</ele>
        <time>2021-05-08T08:04:05Z</time>
      </trkpt>
      <trkpt lat="40.5077420" lon="-4.0551020">
        <ele>846.0</ele>
        <time>2021-05-08T08:04:06Z</time>
      </trkpt>
      <trkpt lat="40.5077660" lon="-4.0551290">
        <ele>846.2</ele>
        <time>2021-05-08T08:04:07Z</time>
      </trkpt>
      <trkpt lat="40.5078000" lon="-4.0551760">
        <ele>846.4</ele>
        <time>2021-05-08T08:04:08Z</time>
      </trkpt>
      <trkpt lat="40.5078330" lon="-4.0552230">
        <ele>846.6</ele>
        <time>2021-05-08T08:04:10Z</time>
      </trkpt>
      <trkpt lat="40.5078590" lon="-4.0552570">
        <ele>846.8</ele>
        <time>2021-05-08T08:04:11Z</time>
      </trkpt>
      <trkpt lat="40.5078820" lon="-4.0552900">
        <ele>847.0</ele>
        <time>2021-05-08T08:04:12Z</time>
      </trkpt>
      <trkpt lat="40.5079080" lon="-4.0553210">
        <ele>847.1</ele>
        <time>2021-05-08T08:04:13Z</time>
      </trkpt>
      <trkpt lat="40.5079480" lon="-4.0553690">
        <ele>847.4</ele>
        <time>2021-05-08T08:04:14Z</time>
      </trkpt>
      <trkpt lat="40.5079830" lon="-4.0554100">
        <ele>847.6</ele>
        <time>2021-05-08T08:04:16Z</time>
      </trkpt>
      <trkpt lat="40.5080110" lon="-4.0554340">
        <ele>847.8</ele>
        <time>2021-05-08T08:04:17Z</time>
      </trkpt>
      <trkpt lat="40.5080380" lon="-4.0554550">
        <ele>847.9</ele>
        <time>2021-05-08T08:04:18Z</time>
      </trkpt>
      <trkpt lat="40.5080840" lon="-4.0554780">
        <ele>848.1</ele>
        <time>2021-05-08T08:04:19Z</time>
      </trkpt>
      <trkpt lat="40.5081180" lon="-4.0554870">
        <ele>848.2</ele>
        <time>2021-05-08T08:04:21Z</time>
      </trkpt>
      <trkpt lat="40.5081670" lon="-4.0554920">
        <ele>848.4</ele>
        <time>2021-05-08T08:04:22Z</time>
      </trkpt>
      <trkpt lat="40.5081990" lon="-4.0554970">
        <ele>848.5</ele>
        <time>2021-05-08T08:04:23Z</time>
      </trkpt>
      <trkpt lat="40.5082370" lon="-4.0555090">
        <ele>848.6</ele>
        <time>2021-05-08T08:04:24Z</time>
      </trkpt>
      <trkpt lat="40.5082760" lon="-4.0555330">
        <ele>848.8</ele>
        <time>2021-05-08T08:04:25Z</time>
      </trkpt>
      <trkpt lat="40.5083150" lon="-4.0555590">
        <ele>849.0</ele>
        <time>2021-05-08T08:04:26Z</time>
      </trkpt>
      <trkpt lat="40.5083540" lon="-4.0555880">
        <ele>849.1</ele>
        <time>2021-05-08T08:04:28Z</time>
      </trkpt>
      <trkpt lat="40.5083820" lon="-4.0556160">
        <ele>849.3</ele>
        <time>2021-05-08T08:04:29Z</time>
      </trkpt>
      <trkpt lat="40.5084050" lon="-4.0556440">
        <ele>849.4</ele>
        <time>2021-05-08T08:04:30Z</time>
      </trkpt>
      <trkpt lat="40.5084340" lon="-4.0556970">
        <ele>849.6</ele>
        <time>2021-05-08T08:04:31Z</time>
      </trkpt>
      <trkpt lat="40.5084500" lon="-4.0557420">
        <ele>849.8</ele>
        <time>2021-05-08T08:04:32Z</time>
      </trkpt>
      <trkpt lat="40.5084710" lon="-4.0558010">
        <ele>850.2</ele>
        <time>2021-05-08T08:04:34Z</time>
      </trkpt>
      <trkpt lat="40.5084870" lon="-4.0558540">
        <ele>850.5</ele>
        <time>2021-05-08T08:04:35Z</time>
      </trkpt>
      <trkpt lat="40.5084960" lon="-4.0559080">
        <ele>850.8</ele>
        <time>2021-05-08T08:04:36Z</time>
      </trkpt>
      <trkpt lat="40.5084970" lon="-4.0559830">
        <ele>851.1</ele>
        <time>2021-05-08T08:04:38Z</time>
      </trkpt>
      <trkpt lat="40.5084970" lon="-4.0560290">
        <ele>851.2</ele>
        <time>2021-05-08T08:04:39Z</time>
      </trkpt>
      <trkpt lat="40.5084920" lon="-4.0560840">
        <ele>851.3</ele>
        <time>2021-05-08T08:04:40Z</time>
      </trkpt>
      <trkpt lat="40.5084820" lon="-4.0561390">
        <ele>851.4</ele>
        <time>2021-05-08T08:04:41Z</time>
      </trkpt>
      <trkpt lat="40.5084550" lon="-4.0562360">
        <ele>851.5</ele>
        <time>2021-05-08T08:04:42Z</time>
      </trkpt>
      <trkpt lat="40.5084330" lon="-4.0562970">
        <ele>851.5</ele>
        <time>2021-05-08T08:04:44Z</time>
      </trkpt>
      <trkpt lat="40.5084100" lon="-4.0563400">
        <ele>851.6</ele>
        <time>2021-05-08T08:04:45Z</time>
      </trkpt>
      <trkpt lat="40.5083880" lon="-4.0563810">
        <ele>851.6</ele>
        <time>2021-05-08T08:04:46Z</time>
      </trkpt>
      <trkpt lat="40.5083510" lon="-4.0564360">
        <ele>851.7</ele>
        <time>2021-05-08T08:04:48Z</time>
      </trkpt>
      <trkpt lat="40.5083070" lon="-4.0565470">
        <ele>851.8</ele>
        <time>2021-05-08T08:04:49Z</time>
      </trkpt>
      <trkpt lat="40.5082950" lon="-4.0566100">
        <ele>851.9</ele>
        <time>2021-05-08T08:04:50Z</time>
      </trkpt>
      <trkpt lat="40.5082860" lon="-4.0566730">
        <ele>851.9</ele>
        <time>2021-05-08T08:04:51Z</time>
      </trkpt>
      <trkpt lat="40.5082780" lon="-4.0567940">
        <ele>852.2</ele>
        <time>2021-05-08T08:04:53Z</time>
      </trkpt>
      <trkpt lat="40.5082680" lon="-4.0568400">
        <ele>852.3</ele>
        <time>2021-05-08T08:04:54Z</time>
      </trkpt>
      <trkpt lat="40.5082490" lon="-4.0568890">
        <ele>852.4</ele>
        <time>2021-05-08T08:04:55Z</time>
      </trkpt>
      <trkpt lat="40.5082250" lon="-4.0569820">
        <ele>852.7</ele>
        <time>2021-05-08T08:04:57Z</time>
      </trkpt>
      <trkpt lat="40.5082290" lon="-4.0570870">
        <ele>852.9</ele>
        <time>2021-05-08T08:04:59Z</time>
      </trkpt>
      <trkpt lat="40.5082330" lon="-4.0571500">
        <ele>853.1</ele>
        <time>2021-05-08T08:05:00Z</time>
      </trkpt>
      <trkpt lat="40.5082370" lon="-4.0572050">
        <ele>853.2</ele>
        <time>2021-05-08T08:05:01Z</time>
      </trkpt>
      <trkpt lat="40.5082310" lon="-4.0572680">
        <ele>853.4</ele>
        <time>2021-05-08T08:05:02Z</time>
      </trkpt>
      <trkpt lat="40.5082240" lon="-4.0573270">
        <ele>853.5</ele>
        <time>2021-05-08T08:05:03Z</time>
      </trkpt>
      <trkpt lat="40.5082160" lon="-4.0573910">
        <ele>853.7</ele>
        <time>2021-05-08T08:05:04Z</time>
      </trkpt>
      <trkpt lat="40.5082080" lon="-4.0574540">
        <ele>853.9</ele>
        <time>2021-05-08T08:05:06Z</time>
      </trkpt>
      <trkpt lat="40.5081980" lon="-4.0575110">
        <ele>854.0</ele>
        <time>2021-05-08T08:05:07Z</time>
      </trkpt>
      <trkpt lat="40.5081730" lon="-4.0576250">
        <ele>854.3</ele>
        <time>2021-05-08T08:05:08Z</time>
      </trkpt>
      <trkpt lat="40.5081570" lon="-4.0576940">
        <ele>854.5</ele>
        <time>2021-05-08T08:05:10Z</time>
      </trkpt>
      <trkpt lat="40.5081300" lon="-4.0577880">
        <ele>854.8</ele>
        <time>2021-05-08T08:05:12Z</time>
      </trkpt>
      <trkpt lat="40.5081140" lon="-4.0578430">
        <ele>854.9</ele>
        <time>2021-05-08T08:05:13Z</time>
      </trkpt>
      <trkpt lat="40.5080960" lon="-4.0578980">
        <ele>855.1</ele>
        <time>2021-05-08T08:05:14Z</time>
      </trkpt>
      <trkpt lat="40.5080720" lon="-4.0579710">
        <ele>855.2</ele>
        <time>2021-05-08T08:05:16Z</time>
      </trkpt>
      <trkpt lat="40.5080480" lon="-4.0580370">
        <ele>855.3</ele>
        <time>2021-05-08T08:05:17Z</time>
      </trkpt>
      <trkpt lat="40.5080200" lon="-4.0581020">
        <ele>855.4</ele>
        <time>2021-05-08T08:05:19Z</time>
      </trkpt>
      <trkpt lat="40.5079960" lon="-4.0581570">
        <ele>855.5</ele>
        <time>2021-05-08T08:05:20Z</time>
      </trkpt>
      <trkpt lat="40.5079540" lon="-4.0582650">
        <ele>855.7</ele>
        <time>2021-05-08T08:05:22Z</time>
      </trkpt>
      <trkpt lat="40.5079190" lon="-4.0583480">
        <ele>855.9</ele>
        <time>2021-05-08T08:05:24Z</time>
      </trkpt>
      <trkpt lat="40.5078940" lon="-4.0584010">
        <ele>856.0</ele>
        <time>2021-05-08T08:05:25Z</time>
      </trkpt>
      <trkpt lat="40.5078660" lon="-4.0584570">
        <ele>856.1</ele>
        <time>2021-05-08T08:05:26Z</time>
      </trkpt>
      <trkpt lat="40.5078280" lon="-4.0585380">
        <ele>856.2</ele>
        <time>2021-05-08T08:05:28Z</time>
      </trkpt>
      <trkpt lat="40.5077930" lon="-4.0586120">
        <ele>856.4</ele>
        <time>2021-05-08T08:05:29Z</time>
      </trkpt>
      <trkpt lat="40.5077390" lon="-4.0587150">
        <ele>856.5</ele>
        <time>2021-05-08T08:05:31Z</time>
      </trkpt>
      <trkpt lat="40.5076790" lon="-4.0588230">
        <ele>856.7</ele>
        <time>2021-05-08T08:05:33Z</time>
      </trkpt>
      <trkpt lat="40.5076180" lon="-4.0589290">
        <ele>856.9</ele>
        <time>2021-05-08T08:05:35Z</time>
      </trkpt>
      <trkpt lat="40.5075890" lon="-4.0589830">
        <ele>857.0</ele>
        <time>2021-05-08T08:05:36Z</time>
      </trkpt>
      <trkpt lat="40.5075610" lon="-4.0590370">
        <ele>857.0</ele>
        <time>2021-05-08T08:05:37Z</time>
      </trkpt>
      <trkpt lat="40.5075000" lon="-4.0591380">
        <ele>857.2</ele>
        <time>2021-05-08T08:05:39Z</time>
      </trkpt>
      <trkpt lat="40.5074720" lon="-4.0591910">
        <ele>857.3</ele>
        <time>2021-05-08T08:05:40Z</time>
      </trkpt>
      <trkpt lat="40.5074140" lon="-4.0592970">
        <ele>857.5</ele>
        <time>2021-05-08T08:05:42Z</time>
      </trkpt>
      <trkpt lat="40.5073870" lon="-4.0593500">
        <ele>857.6</ele>
        <time>2021-05-08T08:05:43Z</time>
      </trkpt>
      <trkpt lat="40.5073580" lon="-4.0594040">
        <ele>857.7</ele>
        <time>2021-05-08T08:05:44Z</time>
      </trkpt>
      <trkpt lat="40.5073070" lon="-4.0595150">
        <ele>857.9</ele>
        <time>2021-05-08T08:05:46Z</time>
      </trkpt>
      <trkpt lat="40.5072790" lon="-4.0595730">
        <ele>857.9</ele>
        <time>2021-05-08T08:05:47Z</time>
      </trkpt>
      <trkpt lat="40.5072220" lon="-4.0596790">
        <ele>858.1</ele>
        <time>2021-05-08T08:05:49Z</time>
      </trkpt>
      <trkpt lat="40.5071690" lon="-4.0597820">
        <ele>858.3</ele>
        <time>2021-05-08T08:05:51Z</time>
      </trkpt>
      <trkpt lat="40.5071380" lon="-4.0598420">
        <ele>858.4</ele>
        <time>2021-05-08T08:05:52Z</time>
      </trkpt>
      <trkpt lat="40.5071070" lon="-4.0598960">
        <ele>858.5</ele>
        <time>2021-05-08T08:05:54Z</time>
      </trkpt>
      <trkpt lat="40.5070470" lon="-4.0599970">
        <ele>858.6</ele>
        <time>2021-05-08T08:05:55Z</time>
      </trkpt>
      <trkpt lat="40.5069820" lon="-4.0601140">
        <ele>858.8</ele>
        <time>2021-05-08T08:05:57Z</time>
      </trkpt>
      <trkpt lat="40.5069500" lon="-4.0601720">
        <ele>858.9</ele>
        <time>2021-05-08T08:05:58Z</time>
      </trkpt>
      <trkpt lat="40.5069170" lon="-4.0602320">
        <ele>859.0</ele>
        <time>2021-05-08T08:05:59Z</time>
      </trkpt>
      <trkpt lat="40.5068810" lon="-4.0602890">
        <ele>859.0</ele>
        <time>2021-05-08T08:06:00Z</time>
      </trkpt>
      <trkpt lat="40.5068210" lon="-4.0603970">
        <ele>859.1</ele>
        <time>2021-05-08T08:06:02Z</time>
      </trkpt>
      <trkpt lat="40.5067700" lon="-4.0605100">
        <ele>859.2</ele>
        <time>2021-05-08T08:06:04Z</time>
      </trkpt>
      <trkpt lat="40.5067190" lon="-4.0606190">
        <ele>859.2</ele>
        <time>2021-05-08T08:06:06Z</time>
      </trkpt>
      <trkpt lat="40.5066730" lon="-4.0607490">
        <ele>859.2</ele>
        <time>2021-05-08T08:06:08Z</time>
      </trkpt>
      <trkpt lat="40.5066310" lon="-4.0608850">
        <ele>859.2</ele>
        <time>2021-05-08T08:06:10Z</time>
      </trkpt>
      <trkpt lat="40.5066070" lon="-4.0609550">
        <ele>859.2</ele>
        <time>2021-05-08T08:06:11Z</time>
      </trkpt>
      <trkpt lat="40.5065630" lon="-4.0611010">
        <ele>859.2</ele>
        <time>2021-05-08T08:06:13Z</time>
      </trkpt>
      <trkpt lat="40.5065450" lon="-4.0611750">
        <ele>859.1</ele>
        <time>2021-05-08T08:06:14Z</time>
      </trkpt>
      <trkpt lat="40.5065150" lon="-4.0613230">
        <ele>859.0</ele>
        <time>2021-05-08T08:06:16Z</time>
      </trkpt>
      <trkpt lat="40.5065020" lon="-4.0613970">
        <ele>858.9</ele>
        <time>2021-05-08T08:06:17Z</time>
      </trkpt>
      <trkpt lat="40.5064870" lon="-4.0615620">
        <ele>858.7</ele>
        <time>2021-05-08T08:06:19Z</time>
      </trkpt>
      <trkpt lat="40.5064810" lon="-4.0617310">
        <ele>858.6</ele>
        <time>2021-05-08T08:06:21Z</time>
      </trkpt>
      <trkpt lat="40.5064790" lon="-4.0618190">
        <ele>858.5</ele>
        <time>2021-05-08T08:06:22Z</time>
      </trkpt>
      <trkpt lat="40.5064820" lon="-4.0619120">
        <ele>858.3</ele>
        <time>2021-05-08T08:06:23Z</time>
      </trkpt>
      <trkpt lat="40.5064880" lon="-4.0620040">
        <ele>858.1</ele>
        <time>2021-05-08T08:06:24Z</time>
      </trkpt>
      <trkpt lat="40.5064960" lon="-4.0620970">
        <ele>857.9</ele>
        <time>2021-05-08T08:06:25Z</time>
      </trkpt>
      <trkpt lat="40.5065230" lon="-4.0622850">
        <ele>857.5</ele>
        <time>2021-05-08T08:06:27Z</time>
      </trkpt>
      <trkpt lat="40.5065430" lon="-4.0623770">
        <ele>857.2</ele>
        <time>2021-05-08T08:06:28Z</time>
      </trkpt>
      <trkpt lat="40.5065960" lon="-4.0625650">
        <ele>856.8</ele>
        <time>2021-05-08T08:06:30Z</time>
      </trkpt>
      <trkpt lat="40.5066290" lon="-4.0626550">
        <ele>856.6</ele>
        <time>2021-05-08T08:06:31Z</time>
      </trkpt>
      <trkpt lat="40.5066650" lon="-4.0627430">
        <ele>856.3</ele>
        <time>2021-05-08T08:06:32Z</time>
      </trkpt>
      <trkpt lat="40.5067050" lon="-4.0628330">
        <ele>855.9</ele>
        <time>2021-05-08T08:06:33Z</time>
      </trkpt>
      <trkpt lat="40.5067980" lon="-4.0630230">
        <ele>855.1</ele>
        <time>2021-05-08T08:06:35Z</time>
      </trkpt>
      <trkpt lat="40.5068390" lon="-4.0630970">
        <ele>854.8</ele>
        <time>2021-05-08T08:06:36Z</time>
      </trkpt>
      <trkpt lat="40.5068930" lon="-4.0631830">
        <ele>854.3</ele>
        <time>2021-05-08T08:06:37Z</time>
      </trkpt>
      <trkpt lat="40.5069540" lon="-4.0632700">
        <ele>853.8</ele>
        <time>2021-05-08T08:06:38Z</time>
      </trkpt>
      <trkpt lat="40.5070860" lon="-4.0634400">
        <ele>852.7</ele>
        <time>2021-05-08T08:06:40Z</time>
      </trkpt>
      <trkpt lat="40.5071530" lon="-4.0635240">
        <ele>852.2</ele>
        <time>2021-05-08T08:06:41Z</time>
      </trkpt>
      <trkpt lat="40.5072220" lon="-4.0636090">
        <ele>851.6</ele>
        <time>2021-05-08T08:06:42Z</time>
      </trkpt>
      <trkpt lat="40.5072950" lon="-4.0636940">
        <ele>851.0</ele>
        <time>2021-05-08T08:06:43Z</time>
      </trkpt>
      <trkpt lat="40.5073680" lon="-4.0637790">
        <ele>850.5</ele>
        <time>2021-05-08T08:06:44Z</time>
      </trkpt>
      <trkpt lat="40.5075220" lon="-4.0639510">
        <ele>849.3</ele>
        <time>2021-05-08T08:06:46Z</time>
      </trkpt>
      <trkpt lat="40.5075980" lon="-4.0640460">
        <ele>848.6</ele>
        <time>2021-05-08T08:06:47Z</time>
      </trkpt>
      <trkpt lat="40.5077480" lon="-4.0642430">
        <ele>847.3</ele>
        <time>2021-05-08T08:06:49Z</time>
      </trkpt>
      <trkpt lat="40.5078260" lon="-4.0643450">
        <ele>846.6</ele>
        <time>2021-05-08T08:06:50Z</time>
      </trkpt>
      <trkpt lat="40.5079810" lon="-4.0645540">
        <ele>845.1</ele>
        <time>2021-05-08T08:06:52Z</time>
      </trkpt>
      <trkpt lat="40.5081410" lon="-4.0647670">
        <ele>843.7</ele>
        <time>2021-05-08T08:06:54Z</time>
      </trkpt>
      <trkpt lat="40.5082970" lon="-4.0649930">
        <ele>842.4</ele>
        <time>2021-05-08T08:06:56Z</time>
      </trkpt>
      <trkpt lat="40.5083700" lon="-4.0651080">
        <ele>841.9</ele>
        <time>2021-05-08T08:06:57Z</time>
      </trkpt>
      <trkpt lat="40.5084390" lon="-4.0652320">
        <ele>841.4</ele>
        <time>2021-05-08T08:06:58Z</time>
      </trkpt>
      <trkpt lat="40.5085030" lon="-4.0653600">
        <ele>841.0</ele>
        <time>2021-05-08T08:06:59Z</time>
      </trkpt>
      <trkpt lat="40.5085600" lon="-4.0654920">
        <ele>840.6</ele>
        <time>2021-05-08T08:07:00Z</time>
      </trkpt>
      <trkpt lat="40.5086490" lon="-4.0657660">
        <ele>840.0</ele>
        <time>2021-05-08T08:07:02Z</time>
      </trkpt>
      <trkpt lat="40.5086840" lon="-4.0659050">
        <ele>839.8</ele>
        <time>2021-05-08T08:07:03Z</time>
      </trkpt>
      <trkpt lat="40.5087340" lon="-4.0661830">
        <ele>839.7</ele>
        <time>2021-05-08T08:07:05Z</time>
      </trkpt>
      <trkpt lat="40.5087510" lon="-4.0663190">
        <ele>839.8</ele>
        <time>2021-05-08T08:07:06Z</time>
      </trkpt>
      <trkpt lat="40.5087720" lon="-4.0665810">
        <ele>839.9</ele>
        <time>2021-05-08T08:07:08Z</time>
      </trkpt>
      <trkpt lat="40.5087790" lon="-4.0668310">
        <ele>840.2</ele>
        <time>2021-05-08T08:07:10Z</time>
      </trkpt>
      <trkpt lat="40.5087730" lon="-4.0669500">
        <ele>840.4</ele>
        <time>2021-05-08T08:07:11Z</time>
      </trkpt>
      <trkpt lat="40.5087550" lon="-4.0671840">
        <ele>840.7</ele>
        <time>2021-05-08T08:07:13Z</time>
      </trkpt>
      <trkpt lat="40.5087450" lon="-4.0672890">
        <ele>840.8</ele>
        <time>2021-05-08T08:07:14Z</time>
      </trkpt>
      <trkpt lat="40.5087210" lon="-4.0674860">
        <ele>841.1</ele>
        <time>2021-05-08T08:07:16Z</time>
      </trkpt>
      <trkpt lat="40.5087090" lon="-4.0675770">
        <ele>841.3</ele>
        <time>2021-05-08T08:07:17Z</time>
      </trkpt>
      <trkpt lat="40.5086920" lon="-4.0677660">
        <ele>841.5</ele>
        <time>2021-05-08T08:07:19Z</time>
      </trkpt>
      <trkpt lat="40.5086800" lon="-4.0678550">
        <ele>841.6</ele>
        <time>2021-05-08T08:07:20Z</time>
      </trkpt>
      <trkpt lat="40.5086510" lon="-4.0680290">
        <ele>841.8</ele>
        <time>2021-05-08T08:07:22Z</time>
      </trkpt>
      <trkpt lat="40.5086340" lon="-4.0681110">
        <ele>841.9</ele>
        <time>2021-05-08T08:07:23Z</time>
      </trkpt>
      <trkpt lat="40.5086180" lon="-4.0681960">
        <ele>841.9</ele>
        <time>2021-05-08T08:07:24Z</time>
      </trkpt>
      <trkpt lat="40.5085930" lon="-4.0683550">
        <ele>842.0</ele>
        <time>2021-05-08T08:07:26Z</time>
      </trkpt>
      <trkpt lat="40.5085680" lon="-4.0685190">
        <ele>842.0</ele>
        <time>2021-05-08T08:07:28Z</time>
      </trkpt>
      <trkpt lat="40.5085420" lon="-4.0686860">
        <ele>841.9</ele>
        <time>2021-05-08T08:07:30Z</time>
      </trkpt>
      <trkpt lat="40.5085260" lon="-4.0687700">
        <ele>841.9</ele>
        <time>2021-05-08T08:07:31Z</time>
      </trkpt>
      <trkpt lat="40.5084970" lon="-4.0689340">
        <ele>841.9</ele>
        <time>2021-05-08T08:07:33Z</time>
      </trkpt>
      <trkpt lat="40.5084640" lon="-4.0691160">
        <ele>841.8</ele>
        <time>2021-05-08T08:07:35Z</time>
      </trkpt>
      <trkpt lat="40.5084540" lon="-4.0691870">
        <ele>841.7</ele>
        <time>2021-05-08T08:07:36Z</time>
      </trkpt>
      <trkpt lat="40.5084320" lon="-4.0693560">
        <ele>841.6</ele>
        <time>2021-05-08T08:07:38Z</time>
      </trkpt>
      <trkpt lat="40.5084180" lon="-4.0694480">
        <ele>841.5</ele>
        <time>2021-05-08T08:07:39Z</time>
      </trkpt>
      <trkpt lat="40.5083920" lon="-4.0696270">
        <ele>841.3</ele>
        <time>2021-05-08T08:07:41Z</time>
      </trkpt>
      <trkpt lat="40.5083810" lon="-4.0697180">
        <ele>841.2</ele>
        <time>2021-05-08T08:07:42Z</time>
      </trkpt>
      <trkpt lat="40.5083660" lon="-4.0699010">
        <ele>841.1</ele>
        <time>2021-05-08T08:07:44Z</time>
      </trkpt>
      <trkpt lat="40.5083550" lon="-4.0700900">
        <ele>840.9</ele>
        <time>2021-05-08T08:07:46Z</time>
      </trkpt>
      <trkpt lat="40.5083490" lon="-4.0702790">
        <ele>840.7</ele>
        <time>2021-05-08T08:07:48Z</time>
      </trkpt>
      <trkpt lat="40.5083480" lon="-4.0703760">
        <ele>840.6</ele>
        <time>2021-05-08T08:07:49Z</time>
      </trkpt>
      <trkpt lat="40.5083510" lon="-4.0705700">
        <ele>840.3</ele>
        <time>2021-05-08T08:07:51Z</time>
      </trkpt>
      <trkpt lat="40.5083610" lon="-4.0707600">
        <ele>840.0</ele>
        <time>2021-05-08T08:07:53Z</time>
      </trkpt>
      <trkpt lat="40.5083850" lon="-4.0709580">
        <ele>839.7</ele>
        <time>2021-05-08T08:07:55Z</time>
      </trkpt>
      <trkpt lat="40.5083960" lon="-4.0710360">
        <ele>839.6</ele>
        <time>2021-05-08T08:07:56Z</time>
      </trkpt>
      <trkpt lat="40.5084080" lon="-4.0711250">
        <ele>839.5</ele>
        <time>2021-05-08T08:07:57Z</time>
      </trkpt>
      <trkpt lat="40.5084370" lon="-4.0713120">
        <ele>839.3</ele>
        <time>2021-05-08T08:07:59Z</time>
      </trkpt>
      <trkpt lat="40.5084810" lon="-4.0714910">
        <ele>839.2</ele>
        <time>2021-05-08T08:08:01Z</time>
      </trkpt>
      <trkpt lat="40.5085340" lon="-4.0716580">
        <ele>839.0</ele>
        <time>2021-05-08T08:08:03Z</time>
      </trkpt>
      <trkpt lat="40.5085930" lon="-4.0718220">
        <ele>838.8</ele>
        <time>2021-05-08T08:08:05Z</time>
      </trkpt>
      <trkpt lat="40.5086530" lon="-4.0719870">
        <ele>838.6</ele>
        <time>2021-05-08T08:08:07Z</time>
      </trkpt>
      <trkpt lat="40.5087190" lon="-4.0721510">
        <ele>838.5</ele>
        <time>2021-05-08T08:08:09Z</time>
      </trkpt>
      <trkpt lat="40.5087910" lon="-4.0723030">
        <ele>838.4</ele>
        <time>2021-05-08T08:08:11Z</time>
      </trkpt>
      <trkpt lat="40.5088650" lon="-4.0724350">
        <ele>838.3</ele>
        <time>2021-05-08T08:08:13Z</time>
      </trkpt>
      <trkpt lat="40.5089440" lon="-4.0725720">
        <ele>838.4</ele>
        <time>2021-05-08T08:08:15Z</time>
      </trkpt>
      <trkpt lat="40.5089770" lon="-4.0726220">
        <ele>838.4</ele>
        <time>2021-05-08T08:08:16Z</time>
      </trkpt>
      <trkpt lat="40.5090610" lon="-4.0727390">
        <ele>838.4</ele>
        <time>2021-05-08T08:08:18Z</time>
      </trkpt>
      <trkpt lat="40.5091050" lon="-4.0727950">
        <ele>838.4</ele>
        <time>2021-05-08T08:08:19Z</time>
      </trkpt>
      <trkpt lat="40.5091940" lon="-4.0729080">
        <ele>838.5</ele>
        <time>2021-05-08T08:08:21Z</time>
      </trkpt>
      <trkpt lat="40.5092360" lon="-4.0729660">
        <ele>838.6</ele>
        <time>2021-05-08T08:08:22Z</time>
      </trkpt>
      <trkpt lat="40.5093200" lon="-4.0730700">
        <ele>838.6</ele>
        <time>2021-05-08T08:08:24Z</time>
      </trkpt>
      <trkpt lat="40.5094050" lon="-4.0731650">
        <ele>838.7</ele>
        <time>2021-05-08T08:08:26Z</time>
      </trkpt>
      <trkpt lat="40.5094880" lon="-4.0732580">
        <ele>838.7</ele>
        <time>2021-05-08T08:08:28Z</time>
      </trkpt>
      <trkpt lat="40.5095770" lon="-4.0733340">
        <ele>838.9</ele>
        <time>2021-05-08T08:08:30Z</time>
      </trkpt>
      <trkpt lat="40.5096210" lon="-4.0733710">
        <ele>839.0</ele>
        <time>2021-05-08T08:08:31Z</time>
      </trkpt>
      <trkpt lat="40.5097040" lon="-4.0734460">
        <ele>839.2</ele>
        <time>2021-05-08T08:08:33Z</time>
      </trkpt>
      <trkpt lat="40.5097910" lon="-4.0735210">
        <ele>839.4</ele>
        <time>2021-05-08T08:08:35Z</time>
      </trkpt>
      <trkpt lat="40.5098240" lon="-4.0735510">
        <ele>839.5</ele>
        <time>2021-05-08T08:08:36Z</time>
      </trkpt>
      <trkpt lat="40.5099010" lon="-4.0736230">
        <ele>839.7</ele>
        <time>2021-05-08T08:08:38Z</time>
      </trkpt>
      <trkpt lat="40.5099420" lon="-4.0736550">
        <ele>839.8</ele>
        <time>2021-05-08T08:08:39Z</time>
      </trkpt>
      <trkpt lat="40.5100240" lon="-4.0737150">
        <ele>840.0</ele>
        <time>2021-05-08T08:08:41Z</time>
      </trkpt>
      <trkpt lat="40.5101090" lon="-4.0737810">
        <ele>840.3</ele>
        <time>2021-05-08T08:08:43Z</time>
      </trkpt>
      <trkpt lat="40.5102110" lon="-4.0738600">
        <ele>840.7</ele>
        <time>2021-05-08T08:08:45Z</time>
      </trkpt>
      <trkpt lat="40.5102490" lon="-4.0738850">
        <ele>840.8</ele>
        <time>2021-05-08T08:08:46Z</time>
      </trkpt>
      <trkpt lat="40.5103370" lon="-4.0739440">
        <ele>841.1</ele>
        <time>2021-05-08T08:08:48Z</time>
      </trkpt>
      <trkpt lat="40.5104270" lon="-4.0740210">
        <ele>841.5</ele>
        <time>2021-05-08T08:08:50Z</time>
      </trkpt>
      <trkpt lat="40.5104740" lon="-4.0740550">
        <ele>841.7</ele>
        <time>2021-05-08T08:08:51Z</time>
      </trkpt>
      <trkpt lat="40.5105640" lon="-4.0741220">
        <ele>842.0</ele>
        <time>2021-05-08T08:08:53Z</time>
      </trkpt>
      <trkpt lat="40.5106090" lon="-4.0741560">
        <ele>842.2</ele>
        <time>2021-05-08T08:08:54Z</time>
      </trkpt>
      <trkpt lat="40.5106540" lon="-4.0741850">
        <ele>842.3</ele>
        <time>2021-05-08T08:08:55Z</time>
      </trkpt>
      <trkpt lat="40.5107400" lon="-4.0742450">
        <ele>842.6</ele>
        <time>2021-05-08T08:08:57Z</time>
      </trkpt>
      <trkpt lat="40.5108270" lon="-4.0743140">
        <ele>842.9</ele>
        <time>2021-05-08T08:08:59Z</time>
      </trkpt>
      <trkpt lat="40.5109140" lon="-4.0743830">
        <ele>843.2</ele>
        <time>2021-05-08T08:09:01Z</time>
      </trkpt>
      <trkpt lat="40.5109540" lon="-4.0744180">
        <ele>843.3</ele>
        <time>2021-05-08T08:09:02Z</time>
      </trkpt>
      <trkpt lat="40.5110390" lon="-4.0744820">
        <ele>843.6</ele>
        <time>2021-05-08T08:09:04Z</time>
      </trkpt>
      <trkpt lat="40.5110900" lon="-4.0745180">
        <ele>843.7</ele>
        <time>2021-05-08T08:09:05Z</time>
      </trkpt>
      <trkpt lat="40.5111660" lon="-4.0745750">
        <ele>843.9</ele>
        <time>2021-05-08T08:09:07Z</time>
      </trkpt>
      <trkpt lat="40.5112480" lon="-4.0746370">
        <ele>844.1</ele>
        <time>2021-05-08T08:09:09Z</time>
      </trkpt>
      <trkpt lat="40.5112890" lon="-4.0746660">
        <ele>844.2</ele>
        <time>2021-05-08T08:09:10Z</time>
      </trkpt>
      <trkpt lat="40.5113670" lon="-4.0747230">
        <ele>844.4</ele>
        <time>2021-05-08T08:09:12Z</time>
      </trkpt>
      <trkpt lat="40.5114070" lon="-4.0747540">
        <ele>844.5</ele>
        <time>2021-05-08T08:09:13Z</time>
      </trkpt>
      <trkpt lat="40.5114890" lon="-4.0748110">
        <ele>844.7</ele>
        <time>2021-05-08T08:09:15Z</time>
      </trkpt>
      <trkpt lat="40.5115720" lon="-4.0748700">
        <ele>844.8</ele>
        <time>2021-05-08T08:09:17Z</time>
      </trkpt>
      <trkpt lat="40.5116150" lon="-4.0749020">
        <ele>844.8</ele>
        <time>2021-05-08T08:09:18Z</time>
      </trkpt>
      <trkpt lat="40.5117040" lon="-4.0749770">
        <ele>844.9</ele>
        <time>2021-05-08T08:09:20Z</time>
      </trkpt>
      <trkpt lat="40.5117500" lon="-4.0750150">
        <ele>845.0</ele>
        <time>2021-05-08T08:09:21Z</time>
      </trkpt>
      <trkpt lat="40.5118380" lon="-4.0750870">
        <ele>845.2</ele>
        <time>2021-05-08T08:09:23Z</time>
      </trkpt>
      <trkpt lat="40.5119310" lon="-4.0751620">
        <ele>845.3</ele>
        <time>2021-05-08T08:09:25Z</time>
      </trkpt>
      <trkpt lat="40.5119660" lon="-4.0751910">
        <ele>845.3</ele>
        <time>2021-05-08T08:09:26Z</time>
      </trkpt>
      <trkpt lat="40.5120530" lon="-4.0752570">
        <ele>845.4</ele>
        <time>2021-05-08T08:09:28Z</time>
      </trkpt>
      <trkpt lat="40.5121380" lon="-4.0753190">
        <ele>845.5</ele>
        <time>2021-05-08T08:09:30Z</time>
      </trkpt>
      <trkpt lat="40.5122250" lon="-4.0753810">
        <ele>845.6</ele>
        <time>2021-05-08T08:09:32Z</time>
      </trkpt>
      <trkpt lat="40.5122670" lon="-4.0754160">
        <ele>845.7</ele>
        <time>2021-05-08T08:09:33Z</time>
      </trkpt>
      <trkpt lat="40.5123530" lon="-4.0754860">
        <ele>845.8</ele>
        <time>2021-05-08T08:09:35Z</time>
      </trkpt>
      <trkpt lat="40.5124370" lon="-4.0755530">
        <ele>846.0</ele>
        <time>2021-05-08T08:09:37Z</time>
      </trkpt>
      <trkpt lat="40.5125210" lon="-4.0756190">
        <ele>846.2</ele>
        <time>2021-05-08T08:09:39Z</time>
      </trkpt>
      <trkpt lat="40.5125660" lon="-4.0756520">
        <ele>846.3</ele>
        <time>2021-05-08T08:09:40Z</time>
      </trkpt>
      <trkpt lat="40.5126100" lon="-4.0756860">
        <ele>846.4</ele>
        <time>2021-05-08T08:09:41Z</time>
      </trkpt>
      <trkpt lat="40.5126970" lon="-4.0757510">
        <ele>846.7</ele>
        <time>2021-05-08T08:09:43Z</time>
      </trkpt>
      <trkpt lat="40.5127850" lon="-4.0758140">
        <ele>847.0</ele>
        <time>2021-05-08T08:09:45Z</time>
      </trkpt>
      <trkpt lat="40.5128270" lon="-4.0758440">
        <ele>847.1</ele>
        <time>2021-05-08T08:09:46Z</time>
      </trkpt>
      <trkpt lat="40.5128740" lon="-4.0758780">
        <ele>847.3</ele>
        <time>2021-05-08T08:09:47Z</time>
      </trkpt>
      <trkpt lat="40.5129510" lon="-4.0759320">
        <ele>847.7</ele>
        <time>2021-05-08T08:09:49Z</time>
      </trkpt>
      <trkpt lat="40.5129760" lon="-4.0759510">
        <ele>847.8</ele>
        <time>2021-05-08T08:09:50Z</time>
      </trkpt>
      <trkpt lat="40.5130240" lon="-4.0759850">
        <ele>848.0</ele>
        <time>2021-05-08T08:09:51Z</time>
      </trkpt>
      <trkpt lat="40.5130680" lon="-4.0760190">
        <ele>848.2</ele>
        <time>2021-05-08T08:09:52Z</time>
      </trkpt>
      <trkpt lat="40.5131340" lon="-4.0760700">
        <ele>848.6</ele>
        <time>2021-05-08T08:09:54Z</time>
      </trkpt>
      <trkpt lat="40.5131670" lon="-4.0760950">
        <ele>848.8</ele>
        <time>2021-05-08T08:09:55Z</time>
      </trkpt>
      <trkpt lat="40.5132450" lon="-4.0761490">
        <ele>849.2</ele>
        <time>2021-05-08T08:09:57Z</time>
      </trkpt>
      <trkpt lat="40.5132990" lon="-4.0761870">
        <ele>849.5</ele>
        <time>2021-05-08T08:09:58Z</time>
      </trkpt>
      <trkpt lat="40.5132740" lon="-4.0762200">
        <ele>849.7</ele>
        <time>2021-05-08T08:09:59Z</time>
      </trkpt>
      <trkpt lat="40.5133320" lon="-4.0762850">
        <ele>850.1</ele>
        <time>2021-05-08T08:10:01Z</time>
      </trkpt>
      <trkpt lat="40.5133780" lon="-4.0763100">
        <ele>850.3</ele>
        <time>2021-05-08T08:10:02Z</time>
      </trkpt>
      <trkpt lat="40.5134550" lon="-4.0763590">
        <ele>850.8</ele>
        <time>2021-05-08T08:10:04Z</time>
      </trkpt>
      <trkpt lat="40.5135600" lon="-4.0764220">
        <ele>851.4</ele>
        <time>2021-05-08T08:10:06Z</time>
      </trkpt>
      <trkpt lat="40.5136210" lon="-4.0764640">
        <ele>851.7</ele>
        <time>2021-05-08T08:10:08Z</time>
      </trkpt>
      <trkpt lat="40.5136570" lon="-4.0764910">
        <ele>851.9</ele>
        <time>2021-05-08T08:10:09Z</time>
      </trkpt>
      <trkpt lat="40.5137230" lon="-4.0765370">
        <ele>852.3</ele>
        <time>2021-05-08T08:10:10Z</time>
      </trkpt>
      <trkpt lat="40.5137630" lon="-4.0765710">
        <ele>852.6</ele>
        <time>2021-05-08T08:10:12Z</time>
      </trkpt>
      <trkpt lat="40.5138130" lon="-4.0766160">
        <ele>852.9</ele>
        <time>2021-05-08T08:10:13Z</time>
      </trkpt>
      <trkpt lat="40.5138700" lon="-4.0766630">
        <ele>853.3</ele>
        <time>2021-05-08T08:10:15Z</time>
      </trkpt>
      <trkpt lat="40.5139280" lon="-4.0767050">
        <ele>853.6</ele>
        <time>2021-05-08T08:10:17Z</time>
      </trkpt>
      <trkpt lat="40.5139660" lon="-4.0767380">
        <ele>853.9</ele>
        <time>2021-05-08T08:10:18Z</time>
      </trkpt>
      <trkpt lat="40.5140150" lon="-4.0767800">
        <ele>854.2</ele>
        <time>2021-05-08T08:10:19Z</time>
      </trkpt>
      <trkpt lat="40.5140620" lon="-4.0768230">
        <ele>854.5</ele>
        <time>2021-05-08T08:10:21Z</time>
      </trkpt>
      <trkpt lat="40.5141090" lon="-4.0768660">
        <ele>854.7</ele>
        <time>2021-05-08T08:10:22Z</time>
      </trkpt>
      <trkpt lat="40.5141400" lon="-4.0768980">
        <ele>854.9</ele>
        <time>2021-05-08T08:10:23Z</time>
      </trkpt>
      <trkpt lat="40.5141820" lon="-4.0769340">
        <ele>855.1</ele>
        <time>2021-05-08T08:10:25Z</time>
      </trkpt>
      <trkpt lat="40.5142490" lon="-4.0769990">
        <ele>855.5</ele>
        <time>2021-05-08T08:10:27Z</time>
      </trkpt>
      <trkpt lat="40.5142880" lon="-4.0770360">
        <ele>855.7</ele>
        <time>2021-05-08T08:10:28Z</time>
      </trkpt>
      <trkpt lat="40.5143370" lon="-4.0770840">
        <ele>855.9</ele>
        <time>2021-05-08T08:10:30Z</time>
      </trkpt>
      <trkpt lat="40.5143730" lon="-4.0771210">
        <ele>856.1</ele>
        <time>2021-05-08T08:10:31Z</time>
      </trkpt>
      <trkpt lat="40.5144040" lon="-4.0771570">
        <ele>856.3</ele>
        <time>2021-05-08T08:10:32Z</time>
      </trkpt>
      <trkpt lat="40.5144490" lon="-4.0772100">
        <ele>856.5</ele>
        <time>2021-05-08T08:10:33Z</time>
      </trkpt>
      <trkpt lat="40.5144870" lon="-4.0772500">
        <ele>856.7</ele>
        <time>2021-05-08T08:10:35Z</time>
      </trkpt>
      <trkpt lat="40.5145170" lon="-4.0772800">
        <ele>856.9</ele>
        <time>2021-05-08T08:10:36Z</time>
      </trkpt>
      <trkpt lat="40.5145710" lon="-4.0773370">
        <ele>857.1</ele>
        <time>2021-05-08T08:10:38Z</time>
      </trkpt>
      <trkpt lat="40.5146240" lon="-4.0773960">
        <ele>857.4</ele>
        <time>2021-05-08T08:10:40Z</time>
      </trkpt>
      <trkpt lat="40.5146570" lon="-4.0774330">
        <ele>857.5</ele>
        <time>2021-05-08T08:10:41Z</time>
      </trkpt>
      <trkpt lat="40.5146840" lon="-4.0774670">
        <ele>857.7</ele>
        <time>2021-05-08T08:10:42Z</time>
      </trkpt>
      <trkpt lat="40.5147210" lon="-4.0775040">
        <ele>857.8</ele>
        <time>2021-05-08T08:10:43Z</time>
      </trkpt>
      <trkpt lat="40.5147510" lon="-4.0775360">
        <ele>858.0</ele>
        <time>2021-05-08T08:10:44Z</time>
      </trkpt>
      <trkpt lat="40.5147960" lon="-4.0775880">
        <ele>858.2</ele>
        <time>2021-05-08T08:10:46Z</time>
      </trkpt>
      <trkpt lat="40.5148200" lon="-4.0776180">
        <ele>858.3</ele>
        <time>2021-05-08T08:10:47Z</time>
      </trkpt>
      <trkpt lat="40.5148610" lon="-4.0776710">
        <ele>858.6</ele>
        <time>2021-05-08T08:10:48Z</time>
      </trkpt>
      <trkpt lat="40.5148910" lon="-4.0777110">
        <ele>858.7</ele>
        <time>2021-05-08T08:10:50Z</time>
      </trkpt>
      <trkpt lat="40.5149330" lon="-4.0777630">
        <ele>858.9</ele>
        <time>2021-05-08T08:10:51Z</time>
      </trkpt>
      <trkpt lat="40.5149650" lon="-4.0778030">
        <ele>859.1</ele>
        <time>2021-05-08T08:10:52Z</time>
      </trkpt>
      <trkpt lat="40.5150120" lon="-4.0778680">
        <ele>859.3</ele>
        <time>2021-05-08T08:10:54Z</time>
      </trkpt>
      <trkpt lat="40.5150470" lon="-4.0779140">
        <ele>859.5</ele>
        <time>2021-05-08T08:10:55Z</time>
      </trkpt>
      <trkpt lat="40.5150930" lon="-4.0779800">
        <ele>859.8</ele>
        <time>2021-05-08T08:10:57Z</time>
      </trkpt>
      <trkpt lat="40.5151370" lon="-4.0780400">
        <ele>860.0</ele>
        <time>2021-05-08T08:10:58Z</time>
      </trkpt>
      <trkpt lat="40.5151650" lon="-4.0780790">
        <ele>860.1</ele>
        <time>2021-05-08T08:10:59Z</time>
      </trkpt>
      <trkpt lat="40.5151960" lon="-4.0781230">
        <ele>860.3</ele>
        <time>2021-05-08T08:11:01Z</time>
      </trkpt>
      <trkpt lat="40.5152260" lon="-4.0781650">
        <ele>860.4</ele>
        <time>2021-05-08T08:11:02Z</time>
      </trkpt>
      <trkpt lat="40.5152540" lon="-4.0782040">
        <ele>860.5</ele>
        <time>2021-05-08T08:11:03Z</time>
      </trkpt>
      <trkpt lat="40.5153090" lon="-4.0782880">
        <ele>860.7</ele>
        <time>2021-05-08T08:11:04Z</time>
      </trkpt>
      <trkpt lat="40.5153470" lon="-4.0783480">
        <ele>860.8</ele>
        <time>2021-05-08T08:11:06Z</time>
      </trkpt>
      <trkpt lat="40.5153750" lon="-4.0784040">
        <ele>860.9</ele>
        <time>2021-05-08T08:11:07Z</time>
      </trkpt>
      <trkpt lat="40.5154040" lon="-4.0784520">
        <ele>861.0</ele>
        <time>2021-05-08T08:11:08Z</time>
      </trkpt>
      <trkpt lat="40.5154600" lon="-4.0785460">
        <ele>861.1</ele>
        <time>2021-05-08T08:11:10Z</time>
      </trkpt>
      <trkpt lat="40.5154900" lon="-4.0785950">
        <ele>861.1</ele>
        <time>2021-05-08T08:11:11Z</time>
      </trkpt>
      <trkpt lat="40.5155490" lon="-4.0786980">
        <ele>861.1</ele>
        <time>2021-05-08T08:11:13Z</time>
      </trkpt>
      <trkpt lat="40.5155790" lon="-4.0787540">
        <ele>861.1</ele>
        <time>2021-05-08T08:11:14Z</time>
      </trkpt>
      <trkpt lat="40.5156360" lon="-4.0788580">
        <ele>861.1</ele>
        <time>2021-05-08T08:11:16Z</time>
      </trkpt>
      <trkpt lat="40.5156970" lon="-4.0789670">
        <ele>861.1</ele>
        <time>2021-05-08T08:11:18Z</time>
      </trkpt>
      <trkpt lat="40.5157290" lon="-4.0790230">
        <ele>861.1</ele>
        <time>2021-05-08T08:11:19Z</time>
      </trkpt>
      <trkpt lat="40.5157590" lon="-4.0790810">
        <ele>861.0</ele>
        <time>2021-05-08T08:11:20Z</time>
      </trkpt>
      <trkpt lat="40.5158200" lon="-4.0791990">
        <ele>861.0</ele>
        <time>2021-05-08T08:11:22Z</time>
      </trkpt>
      <trkpt lat="40.5158860" lon="-4.0793310">
        <ele>860.9</ele>
        <time>2021-05-08T08:11:24Z</time>
      </trkpt>
      <trkpt lat="40.5159410" lon="-4.0794440">
        <ele>860.9</ele>
        <time>2021-05-08T08:11:26Z</time>
      </trkpt>
      <trkpt lat="40.5160010" lon="-4.0795670">
        <ele>860.8</ele>
        <time>2021-05-08T08:11:28Z</time>
      </trkpt>
      <trkpt lat="40.5160320" lon="-4.0796310">
        <ele>860.7</ele>
        <time>2021-05-08T08:11:29Z</time>
      </trkpt>
      <trkpt lat="40.5160690" lon="-4.0796950">
        <ele>860.7</ele>
        <time>2021-05-08T08:11:30Z</time>
      </trkpt>
      <trkpt lat="40.5161310" lon="-4.0798220">
        <ele>860.6</ele>
        <time>2021-05-08T08:11:32Z</time>
      </trkpt>
      <trkpt lat="40.5161580" lon="-4.0798870">
        <ele>860.6</ele>
        <time>2021-05-08T08:11:33Z</time>
      </trkpt>
      <trkpt lat="40.5162210" lon="-4.0800200">
        <ele>860.6</ele>
        <time>2021-05-08T08:11:35Z</time>
      </trkpt>
      <trkpt lat="40.5163050" lon="-4.0801640">
        <ele>860.5</ele>
        <time>2021-05-08T08:11:37Z</time>
      </trkpt>
      <trkpt lat="40.5163770" lon="-4.0803000">
        <ele>860.5</ele>
        <time>2021-05-08T08:11:39Z</time>
      </trkpt>
      <trkpt lat="40.5164100" lon="-4.0803680">
        <ele>860.5</ele>
        <time>2021-05-08T08:11:40Z</time>
      </trkpt>
      <trkpt lat="40.5164710" lon="-4.0805000">
        <ele>860.6</ele>
        <time>2021-05-08T08:11:42Z</time>
      </trkpt>
      <trkpt lat="40.5165320" lon="-4.0806230">
        <ele>860.6</ele>
        <time>2021-05-08T08:11:44Z</time>
      </trkpt>
      <trkpt lat="40.5165860" lon="-4.0807460">
        <ele>860.7</ele>
        <time>2021-05-08T08:11:46Z</time>
      </trkpt>
      <trkpt lat="40.5166510" lon="-4.0808670">
        <ele>860.8</ele>
        <time>2021-05-08T08:11:48Z</time>
      </trkpt>
      <trkpt lat="40.5167190" lon="-4.0809790">
        <ele>860.9</ele>
        <time>2021-05-08T08:11:50Z</time>
      </trkpt>
      <trkpt lat="40.5167530" lon="-4.0810340">
        <ele>861.0</ele>
        <time>2021-05-08T08:11:51Z</time>
      </trkpt>
      <trkpt lat="40.5168170" lon="-4.0811450">
        <ele>861.1</ele>
        <time>2021-05-08T08:11:53Z</time>
      </trkpt>
      <trkpt lat="40.5168570" lon="-4.0811970">
        <ele>861.2</ele>
        <time>2021-05-08T08:11:54Z</time>
      </trkpt>
      <trkpt lat="40.5169300" lon="-4.0812990">
        <ele>861.4</ele>
        <time>2021-05-08T08:11:56Z</time>
      </trkpt>
      <trkpt lat="40.5169660" lon="-4.0813480">
        <ele>861.5</ele>
        <time>2021-05-08T08:11:57Z</time>
      </trkpt>
      <trkpt lat="40.5170370" lon="-4.0814410">
        <ele>861.7</ele>
        <time>2021-05-08T08:11:59Z</time>
      </trkpt>
      <trkpt lat="40.5171170" lon="-4.0815240">
        <ele>861.9</ele>
        <time>2021-05-08T08:12:01Z</time>
      </trkpt>
      <trkpt lat="40.5171590" lon="-4.0815620">
        <ele>861.9</ele>
        <time>2021-05-08T08:12:02Z</time>
      </trkpt>
      <trkpt lat="40.5171970" lon="-4.0816000">
        <ele>862.0</ele>
        <time>2021-05-08T08:12:03Z</time>
      </trkpt>
      <trkpt lat="40.5172850" lon="-4.0816700">
        <ele>862.1</ele>
        <time>2021-05-08T08:12:05Z</time>
      </trkpt>
      <trkpt lat="40.5173790" lon="-4.0817460">
        <ele>862.2</ele>
        <time>2021-05-08T08:12:07Z</time>
      </trkpt>
      <trkpt lat="40.5174720" lon="-4.0818140">
        <ele>862.4</ele>
        <time>2021-05-08T08:12:09Z</time>
      </trkpt>
      <trkpt lat="40.5175160" lon="-4.0818480">
        <ele>862.4</ele>
        <time>2021-05-08T08:12:10Z</time>
      </trkpt>
      <trkpt lat="40.5176020" lon="-4.0819160">
        <ele>862.6</ele>
        <time>2021-05-08T08:12:12Z</time>
      </trkpt>
      <trkpt lat="40.5176850" lon="-4.0819870">
        <ele>862.8</ele>
        <time>2021-05-08T08:12:14Z</time>
      </trkpt>
      <trkpt lat="40.5177280" lon="-4.0820200">
        <ele>862.9</ele>
        <time>2021-05-08T08:12:15Z</time>
      </trkpt>
      <trkpt lat="40.5177680" lon="-4.0820540">
        <ele>862.9</ele>
        <time>2021-05-08T08:12:16Z</time>
      </trkpt>
      <trkpt lat="40.5178420" lon="-4.0821200">
        <ele>863.2</ele>
        <time>2021-05-08T08:12:18Z</time>
      </trkpt>
      <trkpt lat="40.5179140" lon="-4.0821940">
        <ele>863.5</ele>
        <time>2021-05-08T08:12:20Z</time>
      </trkpt>
      <trkpt lat="40.5179860" lon="-4.0822570">
        <ele>863.9</ele>
        <time>2021-05-08T08:12:22Z</time>
      </trkpt>
      <trkpt lat="40.5180540" lon="-4.0823120">
        <ele>864.0</ele>
        <time>2021-05-08T08:12:24Z</time>
      </trkpt>
      <trkpt lat="40.5181150" lon="-4.0823570">
        <ele>864.1</ele>
        <time>2021-05-08T08:12:26Z</time>
      </trkpt>
      <trkpt lat="40.5181990" lon="-4.0824250">
        <ele>864.1</ele>
        <time>2021-05-08T08:12:28Z</time>
      </trkpt>
      <trkpt lat="40.5181720" lon="-4.0823980">
        <ele>864.2</ele>
        <time>2021-05-08T08:12:29Z</time>
      </trkpt>
      <trkpt lat="40.5182100" lon="-4.0824270">
        <ele>864.2</ele>
        <time>2021-05-08T08:12:30Z</time>
      </trkpt>
      <trkpt lat="40.5182630" lon="-4.0824720">
        <ele>864.3</ele>
        <time>2021-05-08T08:12:31Z</time>
      </trkpt>
      <trkpt lat="40.5183370" lon="-4.0825420">
        <ele>864.5</ele>
        <time>2021-05-08T08:12:33Z</time>
      </trkpt>
      <trkpt lat="40.5183980" lon="-4.0825910">
        <ele>864.7</ele>
        <time>2021-05-08T08:12:34Z</time>
      </trkpt>
      <trkpt lat="40.5184800" lon="-4.0826620">
        <ele>865.0</ele>
        <time>2021-05-08T08:12:36Z</time>
      </trkpt>
      <trkpt lat="40.5185150" lon="-4.0826970">
        <ele>865.1</ele>
        <time>2021-05-08T08:12:37Z</time>
      </trkpt>
      <trkpt lat="40.5185520" lon="-4.0827320">
        <ele>865.2</ele>
        <time>2021-05-08T08:12:38Z</time>
      </trkpt>
      <trkpt lat="40.5185860" lon="-4.0827590">
        <ele>865.4</ele>
        <time>2021-05-08T08:12:39Z</time>
      </trkpt>
      <trkpt lat="40.5186230" lon="-4.0827870">
        <ele>865.5</ele>
        <time>2021-05-08T08:12:40Z</time>
      </trkpt>
      <trkpt lat="40.5186760" lon="-4.0828280">
        <ele>865.7</ele>
        <time>2021-05-08T08:12:41Z</time>
      </trkpt>
      <trkpt lat="40.5187260" lon="-4.0828680">
        <ele>865.9</ele>
        <time>2021-05-08T08:12:43Z</time>
      </trkpt>
      <trkpt lat="40.5187620" lon="-4.0828970">
        <ele>866.0</ele>
        <time>2021-05-08T08:12:44Z</time>
      </trkpt>
      <trkpt lat="40.5188190" lon="-4.0829390">
        <ele>866.2</ele>
        <time>2021-05-08T08:12:45Z</time>
      </trkpt>
      <trkpt lat="40.5188600" lon="-4.0829730">
        <ele>866.3</ele>
        <time>2021-05-08T08:12:46Z</time>
      </trkpt>
      <trkpt lat="40.5189110" lon="-4.0830210">
        <ele>866.5</ele>
        <time>2021-05-08T08:12:48Z</time>
      </trkpt>
      <trkpt lat="40.5189520" lon="-4.0830530">
        <ele>866.7</ele>
        <time>2021-05-08T08:12:49Z</time>
      </trkpt>
      <trkpt lat="40.5189970" lon="-4.0830880">
        <ele>866.8</ele>
        <time>2021-05-08T08:12:50Z</time>
      </trkpt>
      <trkpt lat="40.5190510" lon="-4.0831390">
        <ele>867.0</ele>
        <time>2021-05-08T08:12:52Z</time>
      </trkpt>
      <trkpt lat="40.5191080" lon="-4.0831970">
        <ele>867.2</ele>
        <time>2021-05-08T08:12:53Z</time>
      </trkpt>
      <trkpt lat="40.5191380" lon="-4.0832270">
        <ele>867.4</ele>
        <time>2021-05-08T08:12:54Z</time>
      </trkpt>
      <trkpt lat="40.5192040" lon="-4.0832750">
        <ele>867.6</ele>
        <time>2021-05-08T08:12:56Z</time>
      </trkpt>
      <trkpt lat="40.5192440" lon="-4.0833130">
        <ele>867.8</ele>
        <time>2021-05-08T08:12:57Z</time>
      </trkpt>
      <trkpt lat="40.5192890" lon="-4.0833500">
        <ele>868.0</ele>
        <time>2021-05-08T08:12:58Z</time>
      </trkpt>
      <trkpt lat="40.5193370" lon="-4.0833970">
        <ele>868.3</ele>
        <time>2021-05-08T08:13:00Z</time>
      </trkpt>
      <trkpt lat="40.5193710" lon="-4.0834250">
        <ele>868.4</ele>
        <time>2021-05-08T08:13:01Z</time>
      </trkpt>
      <trkpt lat="40.5194260" lon="-4.0834680">
        <ele>868.6</ele>
        <time>2021-05-08T08:13:03Z</time>
      </trkpt>
      <trkpt lat="40.5194680" lon="-4.0835030">
        <ele>868.7</ele>
        <time>2021-05-08T08:13:04Z</time>
      </trkpt>
      <trkpt lat="40.5195040" lon="-4.0835310">
        <ele>868.9</ele>
        <time>2021-05-08T08:13:05Z</time>
      </trkpt>
      <trkpt lat="40.5195450" lon="-4.0835620">
        <ele>869.0</ele>
        <time>2021-05-08T08:13:06Z</time>
      </trkpt>
      <trkpt lat="40.5195920" lon="-4.0836010">
        <ele>869.1</ele>
        <time>2021-05-08T08:13:07Z</time>
      </trkpt>
      <trkpt lat="40.5196340" lon="-4.0836410">
        <ele>869.2</ele>
        <time>2021-05-08T08:13:09Z</time>
      </trkpt>
      <trkpt lat="40.5196900" lon="-4.0836880">
        <ele>869.3</ele>
        <time>2021-05-08T08:13:11Z</time>
      </trkpt>
      <trkpt lat="40.5197330" lon="-4.0837240">
        <ele>869.4</ele>
        <time>2021-05-08T08:13:12Z</time>
      </trkpt>
      <trkpt lat="40.5197710" lon="-4.0837500">
        <ele>869.5</ele>
        <time>2021-05-08T08:13:13Z</time>
      </trkpt>
      <trkpt lat="40.5198630" lon="-4.0838110">
        <ele>869.6</ele>
        <time>2021-05-08T08:13:15Z</time>
      </trkpt>
      <trkpt lat="40.5198980" lon="-4.0838410">
        <ele>869.7</ele>
        <time>2021-05-08T08:13:16Z</time>
      </trkpt>
      <trkpt lat="40.5199750" lon="-4.0839100">
        <ele>869.7</ele>
        <time>2021-05-08T08:13:18Z</time>
      </trkpt>
      <trkpt lat="40.5200160" lon="-4.0839460">
        <ele>869.8</ele>
        <time>2021-05-08T08:13:19Z</time>
      </trkpt>
      <trkpt lat="40.5200960" lon="-4.0840190">
        <ele>869.8</ele>
        <time>2021-05-08T08:13:21Z</time>
      </trkpt>
      <trkpt lat="40.5201770" lon="-4.0840860">
        <ele>869.9</ele>
        <time>2021-05-08T08:13:23Z</time>
      </trkpt>
      <trkpt lat="40.5202180" lon="-4.0841220">
        <ele>869.9</ele>
        <time>2021-05-08T08:13:24Z</time>
      </trkpt>
      <trkpt lat="40.5202620" lon="-4.0841570">
        <ele>870.0</ele>
        <time>2021-05-08T08:13:25Z</time>
      </trkpt>
      <trkpt lat="40.5203440" lon="-4.0842310">
        <ele>870.0</ele>
        <time>2021-05-08T08:13:27Z</time>
      </trkpt>
      <trkpt lat="40.5203930" lon="-4.0842640">
        <ele>870.1</ele>
        <time>2021-05-08T08:13:28Z</time>
      </trkpt>
      <trkpt lat="40.5204840" lon="-4.0843380">
        <ele>870.2</ele>
        <time>2021-05-08T08:13:30Z</time>
      </trkpt>
      <trkpt lat="40.5205720" lon="-4.0844100">
        <ele>870.3</ele>
        <time>2021-05-08T08:13:32Z</time>
      </trkpt>
      <trkpt lat="40.5206200" lon="-4.0844580">
        <ele>870.3</ele>
        <time>2021-05-08T08:13:33Z</time>
      </trkpt>
      <trkpt lat="40.5206960" lon="-4.0845260">
        <ele>870.4</ele>
        <time>2021-05-08T08:13:35Z</time>
      </trkpt>
      <trkpt lat="40.5207390" lon="-4.0845650">
        <ele>870.5</ele>
        <time>2021-05-08T08:13:36Z</time>
      </trkpt>
      <trkpt lat="40.5207830" lon="-4.0846030">
        <ele>870.5</ele>
        <time>2021-05-08T08:13:37Z</time>
      </trkpt>
      <trkpt lat="40.5208740" lon="-4.0846770">
        <ele>870.7</ele>
        <time>2021-05-08T08:13:39Z</time>
      </trkpt>
      <trkpt lat="40.5209660" lon="-4.0847470">
        <ele>870.8</ele>
        <time>2021-05-08T08:13:41Z</time>
      </trkpt>
      <trkpt lat="40.5210620" lon="-4.0848270">
        <ele>871.0</ele>
        <time>2021-05-08T08:13:43Z</time>
      </trkpt>
      <trkpt lat="40.5211090" lon="-4.0848670">
        <ele>871.1</ele>
        <time>2021-05-08T08:13:44Z</time>
      </trkpt>
      <trkpt lat="40.5211590" lon="-4.0849070">
        <ele>871.3</ele>
        <time>2021-05-08T08:13:45Z</time>
      </trkpt>
      <trkpt lat="40.5212510" lon="-4.0849870">
        <ele>871.5</ele>
        <time>2021-05-08T08:13:47Z</time>
      </trkpt>
      <trkpt lat="40.5213400" lon="-4.0850590">
        <ele>871.7</ele>
        <time>2021-05-08T08:13:49Z</time>
      </trkpt>
      <trkpt lat="40.5214320" lon="-4.0851270">
        <ele>871.9</ele>
        <time>2021-05-08T08:13:51Z</time>
      </trkpt>
      <trkpt lat="40.5214770" lon="-4.0851630">
        <ele>872.0</ele>
        <time>2021-05-08T08:13:52Z</time>
      </trkpt>
      <trkpt lat="40.5215670" lon="-4.0852340">
        <ele>872.2</ele>
        <time>2021-05-08T08:13:54Z</time>
      </trkpt>
      <trkpt lat="40.5216510" lon="-4.0853040">
        <ele>872.4</ele>
        <time>2021-05-08T08:13:56Z</time>
      </trkpt>
      <trkpt lat="40.5217360" lon="-4.0853760">
        <ele>872.6</ele>
        <time>2021-05-08T08:13:58Z</time>
      </trkpt>
      <trkpt lat="40.5217770" lon="-4.0854130">
        <ele>872.7</ele>
        <time>2021-05-08T08:13:59Z</time>
      </trkpt>
      <trkpt lat="40.5218170" lon="-4.0854490">
        <ele>872.8</ele>
        <time>2021-05-08T08:14:00Z</time>
      </trkpt>
      <trkpt lat="40.5219020" lon="-4.0855180">
        <ele>873.0</ele>
        <time>2021-05-08T08:14:02Z</time>
      </trkpt>
      <trkpt lat="40.5219440" lon="-4.0855520">
        <ele>873.1</ele>
        <time>2021-05-08T08:14:03Z</time>
      </trkpt>
      <trkpt lat="40.5219880" lon="-4.0855880">
        <ele>873.2</ele>
        <time>2021-05-08T08:14:04Z</time>
      </trkpt>
      <trkpt lat="40.5220740" lon="-4.0856580">
        <ele>873.4</ele>
        <time>2021-05-08T08:14:06Z</time>
      </trkpt>
      <trkpt lat="40.5221170" lon="-4.0856930">
        <ele>873.5</ele>
        <time>2021-05-08T08:14:07Z</time>
      </trkpt>
      <trkpt lat="40.5221620" lon="-4.0857320">
        <ele>873.6</ele>
        <time>2021-05-08T08:14:08Z</time>
      </trkpt>
      <trkpt lat="40.5222480" lon="-4.0858050">
        <ele>873.8</ele>
        <time>2021-05-08T08:14:10Z</time>
      </trkpt>
      <trkpt lat="40.5223350" lon="-4.0858780">
        <ele>874.0</ele>
        <time>2021-05-08T08:14:12Z</time>
      </trkpt>
      <trkpt lat="40.5223830" lon="-4.0859200">
        <ele>874.1</ele>
        <time>2021-05-08T08:14:13Z</time>
      </trkpt>
      <trkpt lat="40.5224180" lon="-4.0859480">
        <ele>874.3</ele>
        <time>2021-05-08T08:14:14Z</time>
      </trkpt>
      <trkpt lat="40.5224600" lon="-4.0859790">
        <ele>874.4</ele>
        <time>2021-05-08T08:14:15Z</time>
      </trkpt>
      <trkpt lat="40.5225460" lon="-4.0860510">
        <ele>874.7</ele>
        <time>2021-05-08T08:14:17Z</time>
      </trkpt>
      <trkpt lat="40.5225890" lon="-4.0860880">
        <ele>874.9</ele>
        <time>2021-05-08T08:14:18Z</time>
      </trkpt>
      <trkpt lat="40.5226670" lon="-4.0861560">
        <ele>875.2</ele>
        <time>2021-05-08T08:14:20Z</time>
      </trkpt>
      <trkpt lat="40.5227490" lon="-4.0862170">
        <ele>875.5</ele>
        <time>2021-05-08T08:14:22Z</time>
      </trkpt>
      <trkpt lat="40.5228280" lon="-4.0862760">
        <ele>875.8</ele>
        <time>2021-05-08T08:14:24Z</time>
      </trkpt>
      <trkpt lat="40.5228630" lon="-4.0863040">
        <ele>875.9</ele>
        <time>2021-05-08T08:14:25Z</time>
      </trkpt>
      <trkpt lat="40.5229400" lon="-4.0863680">
        <ele>876.1</ele>
        <time>2021-05-08T08:14:27Z</time>
      </trkpt>
      <trkpt lat="40.5229830" lon="-4.0864010">
        <ele>876.3</ele>
        <time>2021-05-08T08:14:28Z</time>
      </trkpt>
      <trkpt lat="40.5230240" lon="-4.0864350">
        <ele>876.4</ele>
        <time>2021-05-08T08:14:29Z</time>
      </trkpt>
      <trkpt lat="40.5230630" lon="-4.0864700">
        <ele>876.5</ele>
        <time>2021-05-08T08:14:30Z</time>
      </trkpt>
      <trkpt lat="40.5231060" lon="-4.0865080">
        <ele>876.7</ele>
        <time>2021-05-08T08:14:32Z</time>
      </trkpt>
      <trkpt lat="40.5231870" lon="-4.0865800">
        <ele>877.0</ele>
        <time>2021-05-08T08:14:33Z</time>
      </trkpt>
      <trkpt lat="40.5232700" lon="-4.0866510">
        <ele>877.2</ele>
        <time>2021-05-08T08:14:35Z</time>
      </trkpt>
      <trkpt lat="40.5233540" lon="-4.0867200">
        <ele>877.5</ele>
        <time>2021-05-08T08:14:37Z</time>
      </trkpt>
      <trkpt lat="40.5233960" lon="-4.0867550">
        <ele>877.6</ele>
        <time>2021-05-08T08:14:38Z</time>
      </trkpt>
      <trkpt lat="40.5234370" lon="-4.0867900">
        <ele>877.7</ele>
        <time>2021-05-08T08:14:39Z</time>
      </trkpt>
      <trkpt lat="40.5235170" lon="-4.0868530">
        <ele>877.9</ele>
        <time>2021-05-08T08:14:41Z</time>
      </trkpt>
      <trkpt lat="40.5235570" lon="-4.0868860">
        <ele>877.9</ele>
        <time>2021-05-08T08:14:42Z</time>
      </trkpt>
      <trkpt lat="40.5236350" lon="-4.0869510">
        <ele>878.1</ele>
        <time>2021-05-08T08:14:44Z</time>
      </trkpt>
      <trkpt lat="40.5236750" lon="-4.0869840">
        <ele>878.1</ele>
        <time>2021-05-08T08:14:45Z</time>
      </trkpt>
      <trkpt lat="40.5237540" lon="-4.0870520">
        <ele>878.2</ele>
        <time>2021-05-08T08:14:47Z</time>
      </trkpt>
      <trkpt lat="40.5237930" lon="-4.0870860">
        <ele>878.3</ele>
        <time>2021-05-08T08:14:48Z</time>
      </trkpt>
      <trkpt lat="40.5238750" lon="-4.0871560">
        <ele>878.5</ele>
        <time>2021-05-08T08:14:50Z</time>
      </trkpt>
      <trkpt lat="40.5239170" lon="-4.0871950">
        <ele>878.5</ele>
        <time>2021-05-08T08:14:51Z</time>
      </trkpt>
      <trkpt lat="40.5239600" lon="-4.0872310">
        <ele>878.6</ele>
        <time>2021-05-08T08:14:52Z</time>
      </trkpt>
      <trkpt lat="40.5240410" lon="-4.0872960">
        <ele>878.7</ele>
        <time>2021-05-08T08:14:54Z</time>
      </trkpt>
      <trkpt lat="40.5240790" lon="-4.0873270">
        <ele>878.7</ele>
        <time>2021-05-08T08:14:55Z</time>
      </trkpt>
      <trkpt lat="40.5241230" lon="-4.0873590">
        <ele>878.8</ele>
        <time>2021-05-08T08:14:56Z</time>
      </trkpt>
      <trkpt lat="40.5242060" lon="-4.0874220">
        <ele>878.8</ele>
        <time>2021-05-08T08:14:58Z</time>
      </trkpt>
      <trkpt lat="40.5242480" lon="-4.0874560">
        <ele>878.8</ele>
        <time>2021-05-08T08:14:59Z</time>
      </trkpt>
      <trkpt lat="40.5242910" lon="-4.0874930">
        <ele>878.8</ele>
        <time>2021-05-08T08:15:00Z</time>
      </trkpt>
      <trkpt lat="40.5243780" lon="-4.0875630">
        <ele>878.9</ele>
        <time>2021-05-08T08:15:02Z</time>
      </trkpt>
      <trkpt lat="40.5244210" lon="-4.0876010">
        <ele>878.9</ele>
        <time>2021-05-08T08:15:03Z</time>
      </trkpt>
      <trkpt lat="40.5244630" lon="-4.0876400">
        <ele>878.9</ele>
        <time>2021-05-08T08:15:04Z</time>
      </trkpt>
      <trkpt lat="40.5245450" lon="-4.0877130">
        <ele>879.0</ele>
        <time>2021-05-08T08:15:06Z</time>
      </trkpt>
      <trkpt lat="40.5245880" lon="-4.0877510">
        <ele>879.1</ele>
        <time>2021-05-08T08:15:07Z</time>
      </trkpt>
      <trkpt lat="40.5246320" lon="-4.0877870">
        <ele>879.1</ele>
        <time>2021-05-08T08:15:08Z</time>
      </trkpt>
      <trkpt lat="40.5247180" lon="-4.0878620">
        <ele>879.3</ele>
        <time>2021-05-08T08:15:10Z</time>
      </trkpt>
      <trkpt lat="40.5247600" lon="-4.0878990">
        <ele>879.3</ele>
        <time>2021-05-08T08:15:11Z</time>
      </trkpt>
      <trkpt lat="40.5248020" lon="-4.0879320">
        <ele>879.3</ele>
        <time>2021-05-08T08:15:12Z</time>
      </trkpt>
      <trkpt lat="40.5248890" lon="-4.0880010">
        <ele>879.4</ele>
        <time>2021-05-08T08:15:14Z</time>
      </trkpt>
      <trkpt lat="40.5249330" lon="-4.0880350">
        <ele>879.5</ele>
        <time>2021-05-08T08:15:15Z</time>
      </trkpt>
      <trkpt lat="40.5249770" lon="-4.0880680">
        <ele>879.5</ele>
        <time>2021-05-08T08:15:16Z</time>
      </trkpt>
      <trkpt lat="40.5250210" lon="-4.0881030">
        <ele>879.6</ele>
        <time>2021-05-08T08:15:17Z</time>
      </trkpt>
      <trkpt lat="40.5251100" lon="-4.0881780">
        <ele>879.7</ele>
        <time>2021-05-08T08:15:19Z</time>
      </trkpt>
      <trkpt lat="40.5251990" lon="-4.0882530">
        <ele>879.9</ele>
        <time>2021-05-08T08:15:21Z</time>
      </trkpt>
      <trkpt lat="40.5252850" lon="-4.0883230">
        <ele>880.0</ele>
        <time>2021-05-08T08:15:23Z</time>
      </trkpt>
      <trkpt lat="40.5253280" lon="-4.0883590">
        <ele>880.1</ele>
        <time>2021-05-08T08:15:24Z</time>
      </trkpt>
      <trkpt lat="40.5254120" lon="-4.0884240">
        <ele>880.4</ele>
        <time>2021-05-08T08:15:26Z</time>
      </trkpt>
      <trkpt lat="40.5254530" lon="-4.0884600">
        <ele>880.5</ele>
        <time>2021-05-08T08:15:27Z</time>
      </trkpt>
      <trkpt lat="40.5255360" lon="-4.0885320">
        <ele>880.7</ele>
        <time>2021-05-08T08:15:29Z</time>
      </trkpt>
      <trkpt lat="40.5256140" lon="-4.0885990">
        <ele>881.0</ele>
        <time>2021-05-08T08:15:31Z</time>
      </trkpt>
      <trkpt lat="40.5256520" lon="-4.0886300">
        <ele>881.1</ele>
        <time>2021-05-08T08:15:32Z</time>
      </trkpt>
      <trkpt lat="40.5257270" lon="-4.0887050">
        <ele>881.4</ele>
        <time>2021-05-08T08:15:34Z</time>
      </trkpt>
      <trkpt lat="40.5257660" lon="-4.0887420">
        <ele>881.6</ele>
        <time>2021-05-08T08:15:35Z</time>
      </trkpt>
      <trkpt lat="40.5258450" lon="-4.0888110">
        <ele>881.9</ele>
        <time>2021-05-08T08:15:37Z</time>
      </trkpt>
      <trkpt lat="40.5258850" lon="-4.0888450">
        <ele>882.0</ele>
        <time>2021-05-08T08:15:38Z</time>
      </trkpt>
      <trkpt lat="40.5259260" lon="-4.0888780">
        <ele>882.1</ele>
        <time>2021-05-08T08:15:39Z</time>
      </trkpt>
      <trkpt lat="40.5260090" lon="-4.0889450">
        <ele>882.4</ele>
        <time>2021-05-08T08:15:41Z</time>
      </trkpt>
      <trkpt lat="40.5260500" lon="-4.0889790">
        <ele>882.6</ele>
        <time>2021-05-08T08:15:42Z</time>
      </trkpt>
      <trkpt lat="40.5260920" lon="-4.0890120">
        <ele>882.8</ele>
        <time>2021-05-08T08:15:43Z</time>
      </trkpt>
      <trkpt lat="40.5261340" lon="-4.0890410">
        <ele>882.9</ele>
        <time>2021-05-08T08:15:44Z</time>
      </trkpt>
      <trkpt lat="40.5262150" lon="-4.0890980">
        <ele>883.2</ele>
        <time>2021-05-08T08:15:46Z</time>
      </trkpt>
      <trkpt lat="40.5262930" lon="-4.0891530">
        <ele>883.4</ele>
        <time>2021-05-08T08:15:48Z</time>
      </trkpt>
      <trkpt lat="40.5263670" lon="-4.0892200">
        <ele>883.7</ele>
        <time>2021-05-08T08:15:50Z</time>
      </trkpt>
      <trkpt lat="40.5264080" lon="-4.0892560">
        <ele>883.8</ele>
        <time>2021-05-08T08:15:51Z</time>
      </trkpt>
      <trkpt lat="40.5264930" lon="-4.0893330">
        <ele>884.1</ele>
        <time>2021-05-08T08:15:53Z</time>
      </trkpt>
      <trkpt lat="40.5265250" lon="-4.0893630">
        <ele>884.3</ele>
        <time>2021-05-08T08:15:54Z</time>
      </trkpt>
      <trkpt lat="40.5266000" lon="-4.0894370">
        <ele>884.6</ele>
        <time>2021-05-08T08:15:56Z</time>
      </trkpt>
      <trkpt lat="40.5266800" lon="-4.0895020">
        <ele>884.9</ele>
        <time>2021-05-08T08:15:58Z</time>
      </trkpt>
      <trkpt lat="40.5267590" lon="-4.0895690">
        <ele>885.2</ele>
        <time>2021-05-08T08:16:00Z</time>
      </trkpt>
      <trkpt lat="40.5268390" lon="-4.0896360">
        <ele>885.5</ele>
        <time>2021-05-08T08:16:02Z</time>
      </trkpt>
      <trkpt lat="40.5268810" lon="-4.0896660">
        <ele>885.7</ele>
        <time>2021-05-08T08:16:03Z</time>
      </trkpt>
      <trkpt lat="40.5269210" lon="-4.0896990">
        <ele>885.9</ele>
        <time>2021-05-08T08:16:04Z</time>
      </trkpt>
      <trkpt lat="40.5270030" lon="-4.0897630">
        <ele>886.2</ele>
        <time>2021-05-08T08:16:06Z</time>
      </trkpt>
      <trkpt lat="40.5270830" lon="-4.0898270">
        <ele>886.5</ele>
        <time>2021-05-08T08:16:08Z</time>
      </trkpt>
      <trkpt lat="40.5271630" lon="-4.0898980">
        <ele>886.9</ele>
        <time>2021-05-08T08:16:10Z</time>
      </trkpt>
      <trkpt lat="40.5272030" lon="-4.0899340">
        <ele>887.0</ele>
        <time>2021-05-08T08:16:11Z</time>
      </trkpt>
      <trkpt lat="40.5272430" lon="-4.0899660">
        <ele>887.2</ele>
        <time>2021-05-08T08:16:12Z</time>
      </trkpt>
      <trkpt lat="40.5272880" lon="-4.0900060">
        <ele>887.4</ele>
        <time>2021-05-08T08:16:13Z</time>
      </trkpt>
      <trkpt lat="40.5273550" lon="-4.0900690">
        <ele>887.7</ele>
        <time>2021-05-08T08:16:15Z</time>
      </trkpt>
      <trkpt lat="40.5273920" lon="-4.0901020">
        <ele>887.9</ele>
        <time>2021-05-08T08:16:16Z</time>
      </trkpt>
      <trkpt lat="40.5274700" lon="-4.0901590">
        <ele>888.2</ele>
        <time>2021-05-08T08:16:18Z</time>
      </trkpt>
      <trkpt lat="40.5275360" lon="-4.0902180">
        <ele>888.6</ele>
        <time>2021-05-08T08:16:20Z</time>
      </trkpt>
      <trkpt lat="40.5276000" lon="-4.0902700">
        <ele>888.9</ele>
        <time>2021-05-08T08:16:22Z</time>
      </trkpt>
      <trkpt lat="40.5276470" lon="-4.0903110">
        <ele>889.1</ele>
        <time>2021-05-08T08:16:23Z</time>
      </trkpt>
      <trkpt lat="40.5276510" lon="-4.0903460">
        <ele>889.2</ele>
        <time>2021-05-08T08:16:24Z</time>
      </trkpt>
      <trkpt lat="40.5276950" lon="-4.0904170">
        <ele>889.5</ele>
        <time>2021-05-08T08:16:26Z</time>
      </trkpt>
      <trkpt lat="40.5277470" lon="-4.0904400">
        <ele>889.8</ele>
        <time>2021-05-08T08:16:27Z</time>
      </trkpt>
      <trkpt lat="40.5277920" lon="-4.0904660">
        <ele>890.0</ele>
        <time>2021-05-08T08:16:28Z</time>
      </trkpt>
      <trkpt lat="40.5278710" lon="-4.0905180">
        <ele>890.3</ele>
        <time>2021-05-08T08:16:30Z</time>
      </trkpt>
      <trkpt lat="40.5279480" lon="-4.0905720">
        <ele>890.7</ele>
        <time>2021-05-08T08:16:31Z</time>
      </trkpt>
      <trkpt lat="40.5280030" lon="-4.0906160">
        <ele>891.0</ele>
        <time>2021-05-08T08:16:33Z</time>
      </trkpt>
      <trkpt lat="40.5280380" lon="-4.0906450">
        <ele>891.1</ele>
        <time>2021-05-08T08:16:34Z</time>
      </trkpt>
      <trkpt lat="40.5281040" lon="-4.0906960">
        <ele>891.4</ele>
        <time>2021-05-08T08:16:36Z</time>
      </trkpt>
      <trkpt lat="40.5281750" lon="-4.0907530">
        <ele>891.8</ele>
        <time>2021-05-08T08:16:38Z</time>
      </trkpt>
      <trkpt lat="40.5282210" lon="-4.0907910">
        <ele>892.0</ele>
        <time>2021-05-08T08:16:39Z</time>
      </trkpt>
      <trkpt lat="40.5282580" lon="-4.0908230">
        <ele>892.2</ele>
        <time>2021-05-08T08:16:40Z</time>
      </trkpt>
      <trkpt lat="40.5282960" lon="-4.0908530">
        <ele>892.4</ele>
        <time>2021-05-08T08:16:41Z</time>
      </trkpt>
      <trkpt lat="40.5283340" lon="-4.0908860">
        <ele>892.6</ele>
        <time>2021-05-08T08:16:42Z</time>
      </trkpt>
      <trkpt lat="40.5283810" lon="-4.0909250">
        <ele>892.8</ele>
        <time>2021-05-08T08:16:43Z</time>
      </trkpt>
      <trkpt lat="40.5284280" lon="-4.0909620">
        <ele>893.0</ele>
        <time>2021-05-08T08:16:44Z</time>
      </trkpt>
      <trkpt lat="40.5284770" lon="-4.0910010">
        <ele>893.3</ele>
        <time>2021-05-08T08:16:46Z</time>
      </trkpt>
      <trkpt lat="40.5285140" lon="-4.0910300">
        <ele>893.4</ele>
        <time>2021-05-08T08:16:47Z</time>
      </trkpt>
      <trkpt lat="40.5285510" lon="-4.0910580">
        <ele>893.6</ele>
        <time>2021-05-08T08:16:48Z</time>
      </trkpt>
      <trkpt lat="40.5286210" lon="-4.0911120">
        <ele>893.9</ele>
        <time>2021-05-08T08:16:50Z</time>
      </trkpt>
      <trkpt lat="40.5287080" lon="-4.0911750">
        <ele>894.3</ele>
        <time>2021-05-08T08:16:52Z</time>
      </trkpt>
      <trkpt lat="40.5287370" lon="-4.0911950">
        <ele>894.4</ele>
        <time>2021-05-08T08:16:53Z</time>
      </trkpt>
      <trkpt lat="40.5287890" lon="-4.0912330">
        <ele>894.5</ele>
        <time>2021-05-08T08:16:54Z</time>
      </trkpt>
      <trkpt lat="40.5288360" lon="-4.0912670">
        <ele>894.6</ele>
        <time>2021-05-08T08:16:56Z</time>
      </trkpt>
      <trkpt lat="40.5289010" lon="-4.0913120">
        <ele>894.8</ele>
        <time>2021-05-08T08:16:58Z</time>
      </trkpt>
      <trkpt lat="40.5289370" lon="-4.0913350">
        <ele>894.9</ele>
        <time>2021-05-08T08:16:59Z</time>
      </trkpt>
      <trkpt lat="40.5289720" lon="-4.0913580">
        <ele>895.0</ele>
        <time>2021-05-08T08:17:00Z</time>
      </trkpt>
      <trkpt lat="40.5290110" lon="-4.0913810">
        <ele>895.1</ele>
        <time>2021-05-08T08:17:01Z</time>
      </trkpt>
      <trkpt lat="40.5290580" lon="-4.0914120">
        <ele>895.2</ele>
        <time>2021-05-08T08:17:02Z</time>
      </trkpt>
      <trkpt lat="40.5291110" lon="-4.0914390">
        <ele>895.3</ele>
        <time>2021-05-08T08:17:04Z</time>
      </trkpt>
      <trkpt lat="40.5291820" lon="-4.0914800">
        <ele>895.5</ele>
        <time>2021-05-08T08:17:06Z</time>
      </trkpt>
      <trkpt lat="40.5292340" lon="-4.0915100">
        <ele>895.6</ele>
        <time>2021-05-08T08:17:07Z</time>
      </trkpt>
      <trkpt lat="40.5292890" lon="-4.0915400">
        <ele>895.7</ele>
        <time>2021-05-08T08:17:09Z</time>
      </trkpt>
      <trkpt lat="40.5293890" lon="-4.0915990">
        <ele>895.8</ele>
        <time>2021-05-08T08:17:11Z</time>
      </trkpt>
      <trkpt lat="40.5294160" lon="-4.0916190">
        <ele>895.9</ele>
        <time>2021-05-08T08:17:12Z</time>
      </trkpt>
      <trkpt lat="40.5294790" lon="-4.0916670">
        <ele>895.9</ele>
        <time>2021-05-08T08:17:14Z</time>
      </trkpt>
      <trkpt lat="40.5295260" lon="-4.0916980">
        <ele>896.0</ele>
        <time>2021-05-08T08:17:15Z</time>
      </trkpt>
      <trkpt lat="40.5295860" lon="-4.0917380">
        <ele>896.0</ele>
        <time>2021-05-08T08:17:17Z</time>
      </trkpt>
      <trkpt lat="40.5296280" lon="-4.0917690">
        <ele>896.0</ele>
        <time>2021-05-08T08:17:18Z</time>
      </trkpt>
      <trkpt lat="40.5296650" lon="-4.0917980">
        <ele>896.1</ele>
        <time>2021-05-08T08:17:19Z</time>
      </trkpt>
      <trkpt lat="40.5297430" lon="-4.0918630">
        <ele>896.1</ele>
        <time>2021-05-08T08:17:21Z</time>
      </trkpt>
      <trkpt lat="40.5298210" lon="-4.0919310">
        <ele>896.2</ele>
        <time>2021-05-08T08:17:23Z</time>
      </trkpt>
      <trkpt lat="40.5298580" lon="-4.0919620">
        <ele>896.2</ele>
        <time>2021-05-08T08:17:24Z</time>
      </trkpt>
      <trkpt lat="40.5299330" lon="-4.0920220">
        <ele>896.3</ele>
        <time>2021-05-08T08:17:26Z</time>
      </trkpt>
      <trkpt lat="40.5300080" lon="-4.0920970">
        <ele>896.3</ele>
        <time>2021-05-08T08:17:28Z</time>
      </trkpt>
      <trkpt lat="40.5300460" lon="-4.0921380">
        <ele>896.3</ele>
        <time>2021-05-08T08:17:29Z</time>
      </trkpt>
      <trkpt lat="40.5301240" lon="-4.0922120">
        <ele>896.4</ele>
        <time>2021-05-08T08:17:31Z</time>
      </trkpt>
      <trkpt lat="40.5301650" lon="-4.0922430">
        <ele>896.5</ele>
        <time>2021-05-08T08:17:32Z</time>
      </trkpt>
      <trkpt lat="40.5302500" lon="-4.0922980">
        <ele>896.6</ele>
        <time>2021-05-08T08:17:34Z</time>
      </trkpt>
      <trkpt lat="40.5303380" lon="-4.0923650">
        <ele>896.7</ele>
        <time>2021-05-08T08:17:36Z</time>
      </trkpt>
      <trkpt lat="40.5304220" lon="-4.0924390">
        <ele>896.8</ele>
        <time>2021-05-08T08:17:38Z</time>
      </trkpt>
      <trkpt lat="40.5304640" lon="-4.0924730">
        <ele>896.9</ele>
        <time>2021-05-08T08:17:39Z</time>
      </trkpt>
      <trkpt lat="40.5305510" lon="-4.0925490">
        <ele>897.1</ele>
        <time>2021-05-08T08:17:41Z</time>
      </trkpt>
      <trkpt lat="40.5306330" lon="-4.0926280">
        <ele>897.3</ele>
        <time>2021-05-08T08:17:43Z</time>
      </trkpt>
      <trkpt lat="40.5306730" lon="-4.0926690">
        <ele>897.4</ele>
        <time>2021-05-08T08:17:44Z</time>
      </trkpt>
      <trkpt lat="40.5307140" lon="-4.0927060">
        <ele>897.5</ele>
        <time>2021-05-08T08:17:45Z</time>
      </trkpt>
      <trkpt lat="40.5308010" lon="-4.0927750">
        <ele>897.7</ele>
        <time>2021-05-08T08:17:47Z</time>
      </trkpt>
      <trkpt lat="40.5308430" lon="-4.0928070">
        <ele>897.8</ele>
        <time>2021-05-08T08:17:48Z</time>
      </trkpt>
      <trkpt lat="40.5308830" lon="-4.0928400">
        <ele>897.9</ele>
        <time>2021-05-08T08:17:49Z</time>
      </trkpt>
      <trkpt lat="40.5309600" lon="-4.0929090">
        <ele>898.1</ele>
        <time>2021-05-08T08:17:51Z</time>
      </trkpt>
      <trkpt lat="40.5310410" lon="-4.0929790">
        <ele>898.3</ele>
        <time>2021-05-08T08:17:53Z</time>
      </trkpt>
      <trkpt lat="40.5311190" lon="-4.0930450">
        <ele>898.4</ele>
        <time>2021-05-08T08:17:55Z</time>
      </trkpt>
      <trkpt lat="40.5312040" lon="-4.0931090">
        <ele>898.6</ele>
        <time>2021-05-08T08:17:57Z</time>
      </trkpt>
      <trkpt lat="40.5312380" lon="-4.0931330">
        <ele>898.6</ele>
        <time>2021-05-08T08:17:58Z</time>
      </trkpt>
      <trkpt lat="40.5313130" lon="-4.0932000">
        <ele>898.7</ele>
        <time>2021-05-08T08:18:00Z</time>
      </trkpt>
      <trkpt lat="40.5313890" lon="-4.0932750">
        <ele>898.8</ele>
        <time>2021-05-08T08:18:02Z</time>
      </trkpt>
      <trkpt lat="40.5314290" lon="-4.0933110">
        <ele>898.9</ele>
        <time>2021-05-08T08:18:03Z</time>
      </trkpt>
      <trkpt lat="40.5314690" lon="-4.0933490">
        <ele>898.9</ele>
        <time>2021-05-08T08:18:04Z</time>
      </trkpt>
      <trkpt lat="40.5315480" lon="-4.0934200">
        <ele>899.0</ele>
        <time>2021-05-08T08:18:06Z</time>
      </trkpt>
      <trkpt lat="40.5315880" lon="-4.0934530">
        <ele>899.1</ele>
        <time>2021-05-08T08:18:07Z</time>
      </trkpt>
      <trkpt lat="40.5316690" lon="-4.0935180">
        <ele>899.2</ele>
        <time>2021-05-08T08:18:09Z</time>
      </trkpt>
      <trkpt lat="40.5317080" lon="-4.0935520">
        <ele>899.2</ele>
        <time>2021-05-08T08:18:10Z</time>
      </trkpt>
      <trkpt lat="40.5317470" lon="-4.0935890">
        <ele>899.3</ele>
        <time>2021-05-08T08:18:11Z</time>
      </trkpt>
      <trkpt lat="40.5318270" lon="-4.0936630">
        <ele>899.4</ele>
        <time>2021-05-08T08:18:13Z</time>
      </trkpt>
      <trkpt lat="40.5318680" lon="-4.0937020">
        <ele>899.4</ele>
        <time>2021-05-08T08:18:14Z</time>
      </trkpt>
      <trkpt lat="40.5319520" lon="-4.0937880">
        <ele>899.5</ele>
        <time>2021-05-08T08:18:16Z</time>
      </trkpt>
      <trkpt lat="40.5320360" lon="-4.0938700">
        <ele>899.6</ele>
        <time>2021-05-08T08:18:18Z</time>
      </trkpt>
      <trkpt lat="40.5320780" lon="-4.0939070">
        <ele>899.6</ele>
        <time>2021-05-08T08:18:19Z</time>
      </trkpt>
      <trkpt lat="40.5321630" lon="-4.0939870">
        <ele>899.7</ele>
        <time>2021-05-08T08:18:21Z</time>
      </trkpt>
      <trkpt lat="40.5322050" lon="-4.0940250">
        <ele>899.8</ele>
        <time>2021-05-08T08:18:22Z</time>
      </trkpt>
      <trkpt lat="40.5322880" lon="-4.0941020">
        <ele>900.0</ele>
        <time>2021-05-08T08:18:24Z</time>
      </trkpt>
      <trkpt lat="40.5323280" lon="-4.0941400">
        <ele>900.0</ele>
        <time>2021-05-08T08:18:25Z</time>
      </trkpt>
      <trkpt lat="40.5323680" lon="-4.0941740">
        <ele>900.1</ele>
        <time>2021-05-08T08:18:26Z</time>
      </trkpt>
      <trkpt lat="40.5324460" lon="-4.0942420">
        <ele>900.2</ele>
        <time>2021-05-08T08:18:28Z</time>
      </trkpt>
      <trkpt lat="40.5325280" lon="-4.0943100">
        <ele>900.4</ele>
        <time>2021-05-08T08:18:30Z</time>
      </trkpt>
      <trkpt lat="40.5326060" lon="-4.0943770">
        <ele>900.6</ele>
        <time>2021-05-08T08:18:32Z</time>
      </trkpt>
      <trkpt lat="40.5326840" lon="-4.0944470">
        <ele>900.8</ele>
        <time>2021-05-08T08:18:34Z</time>
      </trkpt>
      <trkpt lat="40.5327230" lon="-4.0944830">
        <ele>900.9</ele>
        <time>2021-05-08T08:18:35Z</time>
      </trkpt>
      <trkpt lat="40.5328010" lon="-4.0945610">
        <ele>901.2</ele>
        <time>2021-05-08T08:18:37Z</time>
      </trkpt>
      <trkpt lat="40.5328310" lon="-4.0945970">
        <ele>901.3</ele>
        <time>2021-05-08T08:18:38Z</time>
      </trkpt>
      <trkpt lat="40.5329040" lon="-4.0946670">
        <ele>901.6</ele>
        <time>2021-05-08T08:18:40Z</time>
      </trkpt>
      <trkpt lat="40.5329430" lon="-4.0947000">
        <ele>901.7</ele>
        <time>2021-05-08T08:18:41Z</time>
      </trkpt>
      <trkpt lat="40.5330180" lon="-4.0947590">
        <ele>901.9</ele>
        <time>2021-05-08T08:18:43Z</time>
      </trkpt>
      <trkpt lat="40.5330560" lon="-4.0947880">
        <ele>902.1</ele>
        <time>2021-05-08T08:18:44Z</time>
      </trkpt>
      <trkpt lat="40.5331250" lon="-4.0948550">
        <ele>902.4</ele>
        <time>2021-05-08T08:18:46Z</time>
      </trkpt>
      <trkpt lat="40.5331670" lon="-4.0948910">
        <ele>902.6</ele>
        <time>2021-05-08T08:18:47Z</time>
      </trkpt>
      <trkpt lat="40.5332040" lon="-4.0949260">
        <ele>902.8</ele>
        <time>2021-05-08T08:18:48Z</time>
      </trkpt>
      <trkpt lat="40.5332610" lon="-4.0949950">
        <ele>903.2</ele>
        <time>2021-05-08T08:18:50Z</time>
      </trkpt>
      <trkpt lat="40.5332970" lon="-4.0949840">
        <ele>903.4</ele>
        <time>2021-05-08T08:18:51Z</time>
      </trkpt>
      <trkpt lat="40.5333190" lon="-4.0949820">
        <ele>903.5</ele>
        <time>2021-05-08T08:18:52Z</time>
      </trkpt>
      <trkpt lat="40.5333900" lon="-4.0950800">
        <ele>903.9</ele>
        <time>2021-05-08T08:18:54Z</time>
      </trkpt>
      <trkpt lat="40.5334240" lon="-4.0951300">
        <ele>904.2</ele>
        <time>2021-05-08T08:18:55Z</time>
      </trkpt>
      <trkpt lat="40.5334800" lon="-4.0952040">
        <ele>904.5</ele>
        <time>2021-05-08T08:18:57Z</time>
      </trkpt>
      <trkpt lat="40.5335230" lon="-4.0952550">
        <ele>904.8</ele>
        <time>2021-05-08T08:18:58Z</time>
      </trkpt>
      <trkpt lat="40.5335800" lon="-4.0953170">
        <ele>905.1</ele>
        <time>2021-05-08T08:19:00Z</time>
      </trkpt>
      <trkpt lat="40.5336150" lon="-4.0953570">
        <ele>905.3</ele>
        <time>2021-05-08T08:19:01Z</time>
      </trkpt>
      <trkpt lat="40.5336490" lon="-4.0953980">
        <ele>905.5</ele>
        <time>2021-05-08T08:19:02Z</time>
      </trkpt>
      <trkpt lat="40.5336850" lon="-4.0954400">
        <ele>905.7</ele>
        <time>2021-05-08T08:19:03Z</time>
      </trkpt>
      <trkpt lat="40.5337300" lon="-4.0954930">
        <ele>905.9</ele>
        <time>2021-05-08T08:19:04Z</time>
      </trkpt>
      <trkpt lat="40.5337700" lon="-4.0955270">
        <ele>906.1</ele>
        <time>2021-05-08T08:19:05Z</time>
      </trkpt>
      <trkpt lat="40.5338100" lon="-4.0955640">
        <ele>906.3</ele>
        <time>2021-05-08T08:19:07Z</time>
      </trkpt>
      <trkpt lat="40.5338590" lon="-4.0956210">
        <ele>906.5</ele>
        <time>2021-05-08T08:19:08Z</time>
      </trkpt>
      <trkpt lat="40.5338960" lon="-4.0956620">
        <ele>906.6</ele>
        <time>2021-05-08T08:19:09Z</time>
      </trkpt>
      <trkpt lat="40.5339400" lon="-4.0957130">
        <ele>906.7</ele>
        <time>2021-05-08T08:19:11Z</time>
      </trkpt>
      <trkpt lat="40.5339970" lon="-4.0957780">
        <ele>906.8</ele>
        <time>2021-05-08T08:19:13Z</time>
      </trkpt>
      <trkpt lat="40.5340380" lon="-4.0958270">
        <ele>906.8</ele>
        <time>2021-05-08T08:19:14Z</time>
      </trkpt>
      <trkpt lat="40.5340720" lon="-4.0958710">
        <ele>906.9</ele>
        <time>2021-05-08T08:19:15Z</time>
      </trkpt>
      <trkpt lat="40.5341330" lon="-4.0959660">
        <ele>906.8</ele>
        <time>2021-05-08T08:19:17Z</time>
      </trkpt>
      <trkpt lat="40.5341990" lon="-4.0960710">
        <ele>906.7</ele>
        <time>2021-05-08T08:19:19Z</time>
      </trkpt>
      <trkpt lat="40.5342270" lon="-4.0961160">
        <ele>906.7</ele>
        <time>2021-05-08T08:19:20Z</time>
      </trkpt>
      <trkpt lat="40.5342870" lon="-4.0962100">
        <ele>906.5</ele>
        <time>2021-05-08T08:19:22Z</time>
      </trkpt>
      <trkpt lat="40.5343490" lon="-4.0962930">
        <ele>906.3</ele>
        <time>2021-05-08T08:19:24Z</time>
      </trkpt>
      <trkpt lat="40.5343790" lon="-4.0963360">
        <ele>906.2</ele>
        <time>2021-05-08T08:19:25Z</time>
      </trkpt>
      <trkpt lat="40.5344500" lon="-4.0964280">
        <ele>906.0</ele>
        <time>2021-05-08T08:19:27Z</time>
      </trkpt>
      <trkpt lat="40.5345220" lon="-4.0965350">
        <ele>905.7</ele>
        <time>2021-05-08T08:19:29Z</time>
      </trkpt>
      <trkpt lat="40.5345930" lon="-4.0966460">
        <ele>905.4</ele>
        <time>2021-05-08T08:19:31Z</time>
      </trkpt>
      <trkpt lat="40.5346320" lon="-4.0966970">
        <ele>905.3</ele>
        <time>2021-05-08T08:19:32Z</time>
      </trkpt>
      <trkpt lat="40.5347110" lon="-4.0968020">
        <ele>905.0</ele>
        <time>2021-05-08T08:19:34Z</time>
      </trkpt>
      <trkpt lat="40.5347930" lon="-4.0969160">
        <ele>904.6</ele>
        <time>2021-05-08T08:19:36Z</time>
      </trkpt>
      <trkpt lat="40.5348770" lon="-4.0970310">
        <ele>904.3</ele>
        <time>2021-05-08T08:19:38Z</time>
      </trkpt>
      <trkpt lat="40.5349190" lon="-4.0970930">
        <ele>904.1</ele>
        <time>2021-05-08T08:19:39Z</time>
      </trkpt>
      <trkpt lat="40.5349560" lon="-4.0971450">
        <ele>903.9</ele>
        <time>2021-05-08T08:19:40Z</time>
      </trkpt>
      <trkpt lat="40.5349950" lon="-4.0972040">
        <ele>903.8</ele>
        <time>2021-05-08T08:19:41Z</time>
      </trkpt>
      <trkpt lat="40.5350350" lon="-4.0972680">
        <ele>903.6</ele>
        <time>2021-05-08T08:19:42Z</time>
      </trkpt>
      <trkpt lat="40.5351240" lon="-4.0973970">
        <ele>903.3</ele>
        <time>2021-05-08T08:19:44Z</time>
      </trkpt>
      <trkpt lat="40.5352120" lon="-4.0975310">
        <ele>903.0</ele>
        <time>2021-05-08T08:19:46Z</time>
      </trkpt>
      <trkpt lat="40.5352550" lon="-4.0976000">
        <ele>903.0</ele>
        <time>2021-05-08T08:19:47Z</time>
      </trkpt>
      <trkpt lat="40.5353460" lon="-4.0977240">
        <ele>902.9</ele>
        <time>2021-05-08T08:19:49Z</time>
      </trkpt>
      <trkpt lat="40.5353960" lon="-4.0977890">
        <ele>902.8</ele>
        <time>2021-05-08T08:19:50Z</time>
      </trkpt>
      <trkpt lat="40.5354380" lon="-4.0978540">
        <ele>902.8</ele>
        <time>2021-05-08T08:19:51Z</time>
      </trkpt>
      <trkpt lat="40.5355210" lon="-4.0979870">
        <ele>902.8</ele>
        <time>2021-05-08T08:19:53Z</time>
      </trkpt>
      <trkpt lat="40.5355620" lon="-4.0980460">
        <ele>902.8</ele>
        <time>2021-05-08T08:19:54Z</time>
      </trkpt>
      <trkpt lat="40.5356480" lon="-4.0981630">
        <ele>902.9</ele>
        <time>2021-05-08T08:19:56Z</time>
      </trkpt>
      <trkpt lat="40.5356870" lon="-4.0982280">
        <ele>903.0</ele>
        <time>2021-05-08T08:19:57Z</time>
      </trkpt>
      <trkpt lat="40.5357290" lon="-4.0982860">
        <ele>903.0</ele>
        <time>2021-05-08T08:19:58Z</time>
      </trkpt>
      <trkpt lat="40.5358020" lon="-4.0983950">
        <ele>903.1</ele>
        <time>2021-05-08T08:20:00Z</time>
      </trkpt>
      <trkpt lat="40.5358810" lon="-4.0985120">
        <ele>903.1</ele>
        <time>2021-05-08T08:20:02Z</time>
      </trkpt>
      <trkpt lat="40.5359510" lon="-4.0986080">
        <ele>903.1</ele>
        <time>2021-05-08T08:20:04Z</time>
      </trkpt>
      <trkpt lat="40.5359920" lon="-4.0986610">
        <ele>903.1</ele>
        <time>2021-05-08T08:20:05Z</time>
      </trkpt>
      <trkpt lat="40.5360660" lon="-4.0987700">
        <ele>903.0</ele>
        <time>2021-05-08T08:20:07Z</time>
      </trkpt>
      <trkpt lat="40.5361040" lon="-4.0988270">
        <ele>903.0</ele>
        <time>2021-05-08T08:20:08Z</time>
      </trkpt>
      <trkpt lat="40.5361450" lon="-4.0988790">
        <ele>902.9</ele>
        <time>2021-05-08T08:20:09Z</time>
      </trkpt>
      <trkpt lat="40.5362230" lon="-4.0989860">
        <ele>902.8</ele>
        <time>2021-05-08T08:20:11Z</time>
      </trkpt>
      <trkpt lat="40.5362630" lon="-4.0990380">
        <ele>902.7</ele>
        <time>2021-05-08T08:20:12Z</time>
      </trkpt>
      <trkpt lat="40.5363440" lon="-4.0991490">
        <ele>902.5</ele>
        <time>2021-05-08T08:20:14Z</time>
      </trkpt>
      <trkpt lat="40.5363830" lon="-4.0992060">
        <ele>902.5</ele>
        <time>2021-05-08T08:20:15Z</time>
      </trkpt>
      <trkpt lat="40.5364650" lon="-4.0993320">
        <ele>902.3</ele>
        <time>2021-05-08T08:20:17Z</time>
      </trkpt>
      <trkpt lat="40.5365450" lon="-4.0994550">
        <ele>902.1</ele>
        <time>2021-05-08T08:20:19Z</time>
      </trkpt>
      <trkpt lat="40.5365860" lon="-4.0995170">
        <ele>901.9</ele>
        <time>2021-05-08T08:20:20Z</time>
      </trkpt>
      <trkpt lat="40.5366840" lon="-4.0996490">
        <ele>901.6</ele>
        <time>2021-05-08T08:20:22Z</time>
      </trkpt>
      <trkpt lat="40.5367180" lon="-4.0996950">
        <ele>901.5</ele>
        <time>2021-05-08T08:20:23Z</time>
      </trkpt>
      <trkpt lat="40.5367970" lon="-4.0998150">
        <ele>901.3</ele>
        <time>2021-05-08T08:20:25Z</time>
      </trkpt>
      <trkpt lat="40.5368380" lon="-4.0998730">
        <ele>901.1</ele>
        <time>2021-05-08T08:20:26Z</time>
      </trkpt>
      <trkpt lat="40.5369210" lon="-4.0999880">
        <ele>900.9</ele>
        <time>2021-05-08T08:20:28Z</time>
      </trkpt>
      <trkpt lat="40.5370060" lon="-4.1001110">
        <ele>900.7</ele>
        <time>2021-05-08T08:20:30Z</time>
      </trkpt>
      <trkpt lat="40.5370470" lon="-4.1001710">
        <ele>900.6</ele>
        <time>2021-05-08T08:20:31Z</time>
      </trkpt>
      <trkpt lat="40.5371310" lon="-4.1002910">
        <ele>900.3</ele>
        <time>2021-05-08T08:20:33Z</time>
      </trkpt>
      <trkpt lat="40.5371750" lon="-4.1003520">
        <ele>900.2</ele>
        <time>2021-05-08T08:20:34Z</time>
      </trkpt>
      <trkpt lat="40.5372630" lon="-4.1004850">
        <ele>899.8</ele>
        <time>2021-05-08T08:20:36Z</time>
      </trkpt>
      <trkpt lat="40.5373100" lon="-4.1005560">
        <ele>899.6</ele>
        <time>2021-05-08T08:20:37Z</time>
      </trkpt>
      <trkpt lat="40.5373590" lon="-4.1006290">
        <ele>899.5</ele>
        <time>2021-05-08T08:20:38Z</time>
      </trkpt>
      <trkpt lat="40.5374100" lon="-4.1007050">
        <ele>899.3</ele>
        <time>2021-05-08T08:20:39Z</time>
      </trkpt>
      <trkpt lat="40.5375170" lon="-4.1008710">
        <ele>899.1</ele>
        <time>2021-05-08T08:20:41Z</time>
      </trkpt>
      <trkpt lat="40.5375670" lon="-4.1009390">
        <ele>899.1</ele>
        <time>2021-05-08T08:20:42Z</time>
      </trkpt>
      <trkpt lat="40.5376190" lon="-4.1010100">
        <ele>899.1</ele>
        <time>2021-05-08T08:20:43Z</time>
      </trkpt>
      <trkpt lat="40.5377200" lon="-4.1011570">
        <ele>899.2</ele>
        <time>2021-05-08T08:20:45Z</time>
      </trkpt>
      <trkpt lat="40.5378170" lon="-4.1012940">
        <ele>899.3</ele>
        <time>2021-05-08T08:20:47Z</time>
      </trkpt>
      <trkpt lat="40.5379220" lon="-4.1014020">
        <ele>899.3</ele>
        <time>2021-05-08T08:20:49Z</time>
      </trkpt>
      <trkpt lat="40.5379760" lon="-4.1014530">
        <ele>899.4</ele>
        <time>2021-05-08T08:20:50Z</time>
      </trkpt>
      <trkpt lat="40.5380290" lon="-4.1015010">
        <ele>899.4</ele>
        <time>2021-05-08T08:20:51Z</time>
      </trkpt>
      <trkpt lat="40.5381390" lon="-4.1015830">
        <ele>899.5</ele>
        <time>2021-05-08T08:20:53Z</time>
      </trkpt>
      <trkpt lat="40.5381960" lon="-4.1016210">
        <ele>899.7</ele>
        <time>2021-05-08T08:20:54Z</time>
      </trkpt>
      <trkpt lat="40.5382530" lon="-4.1016530">
        <ele>899.8</ele>
        <time>2021-05-08T08:20:55Z</time>
      </trkpt>
      <trkpt lat="40.5383080" lon="-4.1016790">
        <ele>899.9</ele>
        <time>2021-05-08T08:20:56Z</time>
      </trkpt>
      <trkpt lat="40.5384160" lon="-4.1017240">
        <ele>900.2</ele>
        <time>2021-05-08T08:20:58Z</time>
      </trkpt>
      <trkpt lat="40.5384720" lon="-4.1017410">
        <ele>900.4</ele>
        <time>2021-05-08T08:20:59Z</time>
      </trkpt>
      <trkpt lat="40.5385250" lon="-4.1017550">
        <ele>900.6</ele>
        <time>2021-05-08T08:21:00Z</time>
      </trkpt>
      <trkpt lat="40.5386230" lon="-4.1017770">
        <ele>900.9</ele>
        <time>2021-05-08T08:21:02Z</time>
      </trkpt>
      <trkpt lat="40.5387210" lon="-4.1018030">
        <ele>901.3</ele>
        <time>2021-05-08T08:21:04Z</time>
      </trkpt>
      <trkpt lat="40.5387700" lon="-4.1018150">
        <ele>901.4</ele>
        <time>2021-05-08T08:21:05Z</time>
      </trkpt>
      <trkpt lat="40.5388650" lon="-4.1018410">
        <ele>901.7</ele>
        <time>2021-05-08T08:21:07Z</time>
      </trkpt>
      <trkpt lat="40.5389590" lon="-4.1018780">
        <ele>901.9</ele>
        <time>2021-05-08T08:21:09Z</time>
      </trkpt>
      <trkpt lat="40.5390080" lon="-4.1018970">
        <ele>902.0</ele>
        <time>2021-05-08T08:21:10Z</time>
      </trkpt>
      <trkpt lat="40.5390570" lon="-4.1019150">
        <ele>902.1</ele>
        <time>2021-05-08T08:21:11Z</time>
      </trkpt>
      <trkpt lat="40.5391060" lon="-4.1019310">
        <ele>902.2</ele>
        <time>2021-05-08T08:21:12Z</time>
      </trkpt>
      <trkpt lat="40.5392100" lon="-4.1019580">
        <ele>902.4</ele>
        <time>2021-05-08T08:21:14Z</time>
      </trkpt>
      <trkpt lat="40.5392660" lon="-4.1019720">
        <ele>902.5</ele>
        <time>2021-05-08T08:21:15Z</time>
      </trkpt>
      <trkpt lat="40.5393650" lon="-4.1020030">
        <ele>902.7</ele>
        <time>2021-05-08T08:21:17Z</time>
      </trkpt>
      <trkpt lat="40.5394120" lon="-4.1020170">
        <ele>902.9</ele>
        <time>2021-05-08T08:21:18Z</time>
      </trkpt>
      <trkpt lat="40.5394620" lon="-4.1020310">
        <ele>903.0</ele>
        <time>2021-05-08T08:21:19Z</time>
      </trkpt>
      <trkpt lat="40.5395680" lon="-4.1020610">
        <ele>903.2</ele>
        <time>2021-05-08T08:21:21Z</time>
      </trkpt>
      <trkpt lat="40.5396180" lon="-4.1020800">
        <ele>903.3</ele>
        <time>2021-05-08T08:21:22Z</time>
      </trkpt>
      <trkpt lat="40.5396680" lon="-4.1020990">
        <ele>903.4</ele>
        <time>2021-05-08T08:21:23Z</time>
      </trkpt>
      <trkpt lat="40.5397150" lon="-4.1021170">
        <ele>903.5</ele>
        <time>2021-05-08T08:21:24Z</time>
      </trkpt>
      <trkpt lat="40.5398080" lon="-4.1021600">
        <ele>903.6</ele>
        <time>2021-05-08T08:21:26Z</time>
      </trkpt>
      <trkpt lat="40.5399050" lon="-4.1022160">
        <ele>903.7</ele>
        <time>2021-05-08T08:21:28Z</time>
      </trkpt>
      <trkpt lat="40.5399530" lon="-4.1022380">
        <ele>903.7</ele>
        <time>2021-05-08T08:21:29Z</time>
      </trkpt>
      <trkpt lat="40.5400430" lon="-4.1022890">
        <ele>903.7</ele>
        <time>2021-05-08T08:21:31Z</time>
      </trkpt>
      <trkpt lat="40.5401360" lon="-4.1023620">
        <ele>903.8</ele>
        <time>2021-05-08T08:21:33Z</time>
      </trkpt>
      <trkpt lat="40.5402350" lon="-4.1024500">
        <ele>903.8</ele>
        <time>2021-05-08T08:21:35Z</time>
      </trkpt>
      <trkpt lat="40.5403310" lon="-4.1025300">
        <ele>903.8</ele>
        <time>2021-05-08T08:21:37Z</time>
      </trkpt>
      <trkpt lat="40.5403790" lon="-4.1025750">
        <ele>903.8</ele>
        <time>2021-05-08T08:21:38Z</time>
      </trkpt>
      <trkpt lat="40.5404310" lon="-4.1026160">
        <ele>903.8</ele>
        <time>2021-05-08T08:21:39Z</time>
      </trkpt>
      <trkpt lat="40.5405220" lon="-4.1027040">
        <ele>903.8</ele>
        <time>2021-05-08T08:21:41Z</time>
      </trkpt>
      <trkpt lat="40.5405640" lon="-4.1027520">
        <ele>903.9</ele>
        <time>2021-05-08T08:21:42Z</time>
      </trkpt>
      <trkpt lat="40.5406500" lon="-4.1028420">
        <ele>903.9</ele>
        <time>2021-05-08T08:21:44Z</time>
      </trkpt>
      <trkpt lat="40.5406910" lon="-4.1028870">
        <ele>903.9</ele>
        <time>2021-05-08T08:21:45Z</time>
      </trkpt>
      <trkpt lat="40.5407710" lon="-4.1029700">
        <ele>903.9</ele>
        <time>2021-05-08T08:21:47Z</time>
      </trkpt>
      <trkpt lat="40.5408490" lon="-4.1030490">
        <ele>903.9</ele>
        <time>2021-05-08T08:21:49Z</time>
      </trkpt>
      <trkpt lat="40.5408900" lon="-4.1030950">
        <ele>903.9</ele>
        <time>2021-05-08T08:21:50Z</time>
      </trkpt>
      <trkpt lat="40.5409320" lon="-4.1031400">
        <ele>903.9</ele>
        <time>2021-05-08T08:21:51Z</time>
      </trkpt>
      <trkpt lat="40.5410160" lon="-4.1032240">
        <ele>903.9</ele>
        <time>2021-05-08T08:21:53Z</time>
      </trkpt>
      <trkpt lat="40.5410590" lon="-4.1032650">
        <ele>903.9</ele>
        <time>2021-05-08T08:21:54Z</time>
      </trkpt>
      <trkpt lat="40.5411030" lon="-4.1033070">
        <ele>903.8</ele>
        <time>2021-05-08T08:21:55Z</time>
      </trkpt>
      <trkpt lat="40.5411930" lon="-4.1033970">
        <ele>903.8</ele>
        <time>2021-05-08T08:21:57Z</time>
      </trkpt>
      <trkpt lat="40.5412820" lon="-4.1034940">
        <ele>903.7</ele>
        <time>2021-05-08T08:21:59Z</time>
      </trkpt>
      <trkpt lat="40.5413710" lon="-4.1035980">
        <ele>903.7</ele>
        <time>2021-05-08T08:22:01Z</time>
      </trkpt>
      <trkpt lat="40.5414630" lon="-4.1037020">
        <ele>903.7</ele>
        <time>2021-05-08T08:22:03Z</time>
      </trkpt>
      <trkpt lat="40.5415060" lon="-4.1037570">
        <ele>903.7</ele>
        <time>2021-05-08T08:22:04Z</time>
      </trkpt>
      <trkpt lat="40.5415870" lon="-4.1038770">
        <ele>903.6</ele>
        <time>2021-05-08T08:22:06Z</time>
      </trkpt>
      <trkpt lat="40.5416250" lon="-4.1039400">
        <ele>903.6</ele>
        <time>2021-05-08T08:22:07Z</time>
      </trkpt>
      <trkpt lat="40.5416990" lon="-4.1040660">
        <ele>903.6</ele>
        <time>2021-05-08T08:22:09Z</time>
      </trkpt>
      <trkpt lat="40.5417350" lon="-4.1041320">
        <ele>903.5</ele>
        <time>2021-05-08T08:22:10Z</time>
      </trkpt>
      <trkpt lat="40.5418040" lon="-4.1042610">
        <ele>903.5</ele>
        <time>2021-05-08T08:22:12Z</time>
      </trkpt>
      <trkpt lat="40.5418380" lon="-4.1043180">
        <ele>903.5</ele>
        <time>2021-05-08T08:22:13Z</time>
      </trkpt>
      <trkpt lat="40.5418730" lon="-4.1043720">
        <ele>903.5</ele>
        <time>2021-05-08T08:22:14Z</time>
      </trkpt>
      <trkpt lat="40.5419070" lon="-4.1044320">
        <ele>903.4</ele>
        <time>2021-05-08T08:22:15Z</time>
      </trkpt>
      <trkpt lat="40.5419400" lon="-4.1044920">
        <ele>903.4</ele>
        <time>2021-05-08T08:22:16Z</time>
      </trkpt>
      <trkpt lat="40.5420030" lon="-4.1046090">
        <ele>903.4</ele>
        <time>2021-05-08T08:22:18Z</time>
      </trkpt>
      <trkpt lat="40.5420360" lon="-4.1046710">
        <ele>903.3</ele>
        <time>2021-05-08T08:22:19Z</time>
      </trkpt>
      <trkpt lat="40.5421030" lon="-4.1048030">
        <ele>903.2</ele>
        <time>2021-05-08T08:22:21Z</time>
      </trkpt>
      <trkpt lat="40.5421650" lon="-4.1049420">
        <ele>903.2</ele>
        <time>2021-05-08T08:22:23Z</time>
      </trkpt>
      <trkpt lat="40.5422000" lon="-4.1050100">
        <ele>903.1</ele>
        <time>2021-05-08T08:22:24Z</time>
      </trkpt>
      <trkpt lat="40.5422350" lon="-4.1050840">
        <ele>903.1</ele>
        <time>2021-05-08T08:22:25Z</time>
      </trkpt>
      <trkpt lat="40.5423050" lon="-4.1052090">
        <ele>903.1</ele>
        <time>2021-05-08T08:22:27Z</time>
      </trkpt>
      <trkpt lat="40.5423870" lon="-4.1053430">
        <ele>903.2</ele>
        <time>2021-05-08T08:22:29Z</time>
      </trkpt>
      <trkpt lat="40.5424620" lon="-4.1054720">
        <ele>903.3</ele>
        <time>2021-05-08T08:22:31Z</time>
      </trkpt>
      <trkpt lat="40.5424970" lon="-4.1055410">
        <ele>903.3</ele>
        <time>2021-05-08T08:22:32Z</time>
      </trkpt>
      <trkpt lat="40.5425680" lon="-4.1056750">
        <ele>903.4</ele>
        <time>2021-05-08T08:22:34Z</time>
      </trkpt>
      <trkpt lat="40.5426050" lon="-4.1057440">
        <ele>903.5</ele>
        <time>2021-05-08T08:22:35Z</time>
      </trkpt>
      <trkpt lat="40.5426390" lon="-4.1058120">
        <ele>903.5</ele>
        <time>2021-05-08T08:22:36Z</time>
      </trkpt>
      <trkpt lat="40.5427060" lon="-4.1059450">
        <ele>903.6</ele>
        <time>2021-05-08T08:22:38Z</time>
      </trkpt>
      <trkpt lat="40.5427420" lon="-4.1060080">
        <ele>903.7</ele>
        <time>2021-05-08T08:22:39Z</time>
      </trkpt>
      <trkpt lat="40.5428090" lon="-4.1061380">
        <ele>903.8</ele>
        <time>2021-05-08T08:22:41Z</time>
      </trkpt>
      <trkpt lat="40.5428770" lon="-4.1062730">
        <ele>904.0</ele>
        <time>2021-05-08T08:22:43Z</time>
      </trkpt>
      <trkpt lat="40.5429070" lon="-4.1063390">
        <ele>904.1</ele>
        <time>2021-05-08T08:22:44Z</time>
      </trkpt>
      <trkpt lat="40.5429380" lon="-4.1064030">
        <ele>904.2</ele>
        <time>2021-05-08T08:22:45Z</time>
      </trkpt>
      <trkpt lat="40.5430030" lon="-4.1065270">
        <ele>904.4</ele>
        <time>2021-05-08T08:22:47Z</time>
      </trkpt>
      <trkpt lat="40.5430360" lon="-4.1065910">
        <ele>904.5</ele>
        <time>2021-05-08T08:22:48Z</time>
      </trkpt>
      <trkpt lat="40.5431000" lon="-4.1067140">
        <ele>904.6</ele>
        <time>2021-05-08T08:22:50Z</time>
      </trkpt>
      <trkpt lat="40.5431310" lon="-4.1067760">
        <ele>904.7</ele>
        <time>2021-05-08T08:22:51Z</time>
      </trkpt>
      <trkpt lat="40.5431890" lon="-4.1069040">
        <ele>904.9</ele>
        <time>2021-05-08T08:22:53Z</time>
      </trkpt>
      <trkpt lat="40.5432160" lon="-4.1069710">
        <ele>904.9</ele>
        <time>2021-05-08T08:22:54Z</time>
      </trkpt>
      <trkpt lat="40.5432410" lon="-4.1070380">
        <ele>904.9</ele>
        <time>2021-05-08T08:22:55Z</time>
      </trkpt>
      <trkpt lat="40.5432830" lon="-4.1071880">
        <ele>904.8</ele>
        <time>2021-05-08T08:22:57Z</time>
      </trkpt>
      <trkpt lat="40.5433000" lon="-4.1072670">
        <ele>904.7</ele>
        <time>2021-05-08T08:22:58Z</time>
      </trkpt>
      <trkpt lat="40.5433330" lon="-4.1074230">
        <ele>904.5</ele>
        <time>2021-05-08T08:23:00Z</time>
      </trkpt>
      <trkpt lat="40.5433690" lon="-4.1075930">
        <ele>904.3</ele>
        <time>2021-05-08T08:23:02Z</time>
      </trkpt>
      <trkpt lat="40.5433880" lon="-4.1076690">
        <ele>904.1</ele>
        <time>2021-05-08T08:23:03Z</time>
      </trkpt>
      <trkpt lat="40.5434070" lon="-4.1077510">
        <ele>904.0</ele>
        <time>2021-05-08T08:23:04Z</time>
      </trkpt>
      <trkpt lat="40.5434500" lon="-4.1079080">
        <ele>903.7</ele>
        <time>2021-05-08T08:23:06Z</time>
      </trkpt>
      <trkpt lat="40.5434720" lon="-4.1079910">
        <ele>903.5</ele>
        <time>2021-05-08T08:23:07Z</time>
      </trkpt>
      <trkpt lat="40.5434950" lon="-4.1080730">
        <ele>903.3</ele>
        <time>2021-05-08T08:23:08Z</time>
      </trkpt>
      <trkpt lat="40.5435350" lon="-4.1082460">
        <ele>902.9</ele>
        <time>2021-05-08T08:23:10Z</time>
      </trkpt>
      <trkpt lat="40.5435750" lon="-4.1084280">
        <ele>902.5</ele>
        <time>2021-05-08T08:23:12Z</time>
      </trkpt>
      <trkpt lat="40.5436180" lon="-4.1086090">
        <ele>902.0</ele>
        <time>2021-05-08T08:23:14Z</time>
      </trkpt>
      <trkpt lat="40.5436700" lon="-4.1087890">
        <ele>901.5</ele>
        <time>2021-05-08T08:23:16Z</time>
      </trkpt>
      <trkpt lat="40.5436960" lon="-4.1088770">
        <ele>901.4</ele>
        <time>2021-05-08T08:23:17Z</time>
      </trkpt>
      <trkpt lat="40.5437220" lon="-4.1089680">
        <ele>901.2</ele>
        <time>2021-05-08T08:23:18Z</time>
      </trkpt>
      <trkpt lat="40.5437740" lon="-4.1091520">
        <ele>900.9</ele>
        <time>2021-05-08T08:23:20Z</time>
      </trkpt>
      <trkpt lat="40.5438240" lon="-4.1093480">
        <ele>900.6</ele>
        <time>2021-05-08T08:23:22Z</time>
      </trkpt>
      <trkpt lat="40.5438480" lon="-4.1094530">
        <ele>900.5</ele>
        <time>2021-05-08T08:23:23Z</time>
      </trkpt>
      <trkpt lat="40.5438970" lon="-4.1096470">
        <ele>900.3</ele>
        <time>2021-05-08T08:23:25Z</time>
      </trkpt>
      <trkpt lat="40.5439200" lon="-4.1097490">
        <ele>900.2</ele>
        <time>2021-05-08T08:23:26Z</time>
      </trkpt>
      <trkpt lat="40.5439670" lon="-4.1099430">
        <ele>900.1</ele>
        <time>2021-05-08T08:23:28Z</time>
      </trkpt>
      <trkpt lat="40.5440100" lon="-4.1101400">
        <ele>900.0</ele>
        <time>2021-05-08T08:23:30Z</time>
      </trkpt>
      <trkpt lat="40.5440310" lon="-4.1102380">
        <ele>900.1</ele>
        <time>2021-05-08T08:23:31Z</time>
      </trkpt>
      <trkpt lat="40.5440620" lon="-4.1104290">
        <ele>900.0</ele>
        <time>2021-05-08T08:23:33Z</time>
      </trkpt>
      <trkpt lat="40.5440730" lon="-4.1105240">
        <ele>900.0</ele>
        <time>2021-05-08T08:23:34Z</time>
      </trkpt>
      <trkpt lat="40.5440810" lon="-4.1106160">
        <ele>900.0</ele>
        <time>2021-05-08T08:23:35Z</time>
      </trkpt>
      <trkpt lat="40.5440970" lon="-4.1107980">
        <ele>900.0</ele>
        <time>2021-05-08T08:23:37Z</time>
      </trkpt>
      <trkpt lat="40.5441120" lon="-4.1109740">
        <ele>900.0</ele>
        <time>2021-05-08T08:23:39Z</time>
      </trkpt>
      <trkpt lat="40.5441360" lon="-4.1111390">
        <ele>900.1</ele>
        <time>2021-05-08T08:23:41Z</time>
      </trkpt>
      <trkpt lat="40.5441620" lon="-4.1113040">
        <ele>900.1</ele>
        <time>2021-05-08T08:23:43Z</time>
      </trkpt>
      <trkpt lat="40.5441930" lon="-4.1114650">
        <ele>900.2</ele>
        <time>2021-05-08T08:23:45Z</time>
      </trkpt>
      <trkpt lat="40.5442200" lon="-4.1115350">
        <ele>900.3</ele>
        <time>2021-05-08T08:23:46Z</time>
      </trkpt>
      <trkpt lat="40.5443130" lon="-4.1116320">
        <ele>900.3</ele>
        <time>2021-05-08T08:23:48Z</time>
      </trkpt>
      <trkpt lat="40.5443670" lon="-4.1116600">
        <ele>900.5</ele>
        <time>2021-05-08T08:23:49Z</time>
      </trkpt>
      <trkpt lat="40.5444470" lon="-4.1117310">
        <ele>900.6</ele>
        <time>2021-05-08T08:23:51Z</time>
      </trkpt>
      <trkpt lat="40.5444800" lon="-4.1117880">
        <ele>900.7</ele>
        <time>2021-05-08T08:23:52Z</time>
      </trkpt>
      <trkpt lat="40.5445090" lon="-4.1118490">
        <ele>900.7</ele>
        <time>2021-05-08T08:23:53Z</time>
      </trkpt>
      <trkpt lat="40.5445310" lon="-4.1119700">
        <ele>900.8</ele>
        <time>2021-05-08T08:23:55Z</time>
      </trkpt>
      <trkpt lat="40.5445310" lon="-4.1120260">
        <ele>900.8</ele>
        <time>2021-05-08T08:23:56Z</time>
      </trkpt>
      <trkpt lat="40.5445320" lon="-4.1121420">
        <ele>901.0</ele>
        <time>2021-05-08T08:23:58Z</time>
      </trkpt>
      <trkpt lat="40.5445550" lon="-4.1122700">
        <ele>901.1</ele>
        <time>2021-05-08T08:24:00Z</time>
      </trkpt>
      <trkpt lat="40.5445840" lon="-4.1123670">
        <ele>901.3</ele>
        <time>2021-05-08T08:24:02Z</time>
      </trkpt>
      <trkpt lat="40.5446230" lon="-4.1124650">
        <ele>901.5</ele>
        <time>2021-05-08T08:24:03Z</time>
      </trkpt>
      <trkpt lat="40.5446530" lon="-4.1125280">
        <ele>901.6</ele>
        <time>2021-05-08T08:24:04Z</time>
      </trkpt>
      <trkpt lat="40.5446830" lon="-4.1125840">
        <ele>901.7</ele>
        <time>2021-05-08T08:24:05Z</time>
      </trkpt>
      <trkpt lat="40.5447470" lon="-4.1126840">
        <ele>902.0</ele>
        <time>2021-05-08T08:24:07Z</time>
      </trkpt>
      <trkpt lat="40.5448160" lon="-4.1127800">
        <ele>902.1</ele>
        <time>2021-05-08T08:24:09Z</time>
      </trkpt>
      <trkpt lat="40.5448990" lon="-4.1128660">
        <ele>902.2</ele>
        <time>2021-05-08T08:24:11Z</time>
      </trkpt>
      <trkpt lat="40.5449400" lon="-4.1129040">
        <ele>902.2</ele>
        <time>2021-05-08T08:24:12Z</time>
      </trkpt>
      <trkpt lat="40.5449800" lon="-4.1129460">
        <ele>902.3</ele>
        <time>2021-05-08T08:24:13Z</time>
      </trkpt>
      <trkpt lat="40.5450210" lon="-4.1129900">
        <ele>902.3</ele>
        <time>2021-05-08T08:24:14Z</time>
      </trkpt>
      <trkpt lat="40.5450630" lon="-4.1130340">
        <ele>902.4</ele>
        <time>2021-05-08T08:24:15Z</time>
      </trkpt>
      <trkpt lat="40.5451510" lon="-4.1131180">
        <ele>902.5</ele>
        <time>2021-05-08T08:24:17Z</time>
      </trkpt>
      <trkpt lat="40.5451990" lon="-4.1131590">
        <ele>902.5</ele>
        <time>2021-05-08T08:24:18Z</time>
      </trkpt>
      <trkpt lat="40.5452460" lon="-4.1131990">
        <ele>902.6</ele>
        <time>2021-05-08T08:24:19Z</time>
      </trkpt>
      <trkpt lat="40.5452930" lon="-4.1132390">
        <ele>902.7</ele>
        <time>2021-05-08T08:24:20Z</time>
      </trkpt>
      <trkpt lat="40.5453660" lon="-4.1133020">
        <ele>902.7</ele>
        <time>2021-05-08T08:24:22Z</time>
      </trkpt>
      <trkpt lat="40.5454310" lon="-4.1133580">
        <ele>902.8</ele>
        <time>2021-05-08T08:24:23Z</time>
      </trkpt>
      <trkpt lat="40.5455270" lon="-4.1134390">
        <ele>902.9</ele>
        <time>2021-05-08T08:24:25Z</time>
      </trkpt>
      <trkpt lat="40.5456180" lon="-4.1135170">
        <ele>903.0</ele>
        <time>2021-05-08T08:24:27Z</time>
      </trkpt>
      <trkpt lat="40.5457090" lon="-4.1135870">
        <ele>903.1</ele>
        <time>2021-05-08T08:24:29Z</time>
      </trkpt>
      <trkpt lat="40.5457560" lon="-4.1136190">
        <ele>903.1</ele>
        <time>2021-05-08T08:24:30Z</time>
      </trkpt>
      <trkpt lat="40.5458560" lon="-4.1137030">
        <ele>903.1</ele>
        <time>2021-05-08T08:24:32Z</time>
      </trkpt>
      <trkpt lat="40.5459570" lon="-4.1137920">
        <ele>903.1</ele>
        <time>2021-05-08T08:24:34Z</time>
      </trkpt>
      <trkpt lat="40.5460610" lon="-4.1138720">
        <ele>903.2</ele>
        <time>2021-05-08T08:24:36Z</time>
      </trkpt>
      <trkpt lat="40.5461590" lon="-4.1139620">
        <ele>903.2</ele>
        <time>2021-05-08T08:24:38Z</time>
      </trkpt>
      <trkpt lat="40.5462070" lon="-4.1140080">
        <ele>903.2</ele>
        <time>2021-05-08T08:24:39Z</time>
      </trkpt>
      <trkpt lat="40.5463100" lon="-4.1140950">
        <ele>903.2</ele>
        <time>2021-05-08T08:24:41Z</time>
      </trkpt>
      <trkpt lat="40.5463580" lon="-4.1141360">
        <ele>903.2</ele>
        <time>2021-05-08T08:24:42Z</time>
      </trkpt>
      <trkpt lat="40.5464120" lon="-4.1141810">
        <ele>903.2</ele>
        <time>2021-05-08T08:24:43Z</time>
      </trkpt>
      <trkpt lat="40.5465090" lon="-4.1142650">
        <ele>903.2</ele>
        <time>2021-05-08T08:24:45Z</time>
      </trkpt>
      <trkpt lat="40.5466010" lon="-4.1143450">
        <ele>903.2</ele>
        <time>2021-05-08T08:24:47Z</time>
      </trkpt>
      <trkpt lat="40.5466470" lon="-4.1143870">
        <ele>903.2</ele>
        <time>2021-05-08T08:24:48Z</time>
      </trkpt>
      <trkpt lat="40.5467530" lon="-4.1144750">
        <ele>903.1</ele>
        <time>2021-05-08T08:24:50Z</time>
      </trkpt>
      <trkpt lat="40.5468670" lon="-4.1145710">
        <ele>903.0</ele>
        <time>2021-05-08T08:24:52Z</time>
      </trkpt>
      <trkpt lat="40.5469200" lon="-4.1146180">
        <ele>903.0</ele>
        <time>2021-05-08T08:24:53Z</time>
      </trkpt>
      <trkpt lat="40.5470360" lon="-4.1147150">
        <ele>902.9</ele>
        <time>2021-05-08T08:24:55Z</time>
      </trkpt>
      <trkpt lat="40.5470980" lon="-4.1147640">
        <ele>902.9</ele>
        <time>2021-05-08T08:24:56Z</time>
      </trkpt>
      <trkpt lat="40.5472130" lon="-4.1148610">
        <ele>902.9</ele>
        <time>2021-05-08T08:24:58Z</time>
      </trkpt>
      <trkpt lat="40.5472680" lon="-4.1149120">
        <ele>903.0</ele>
        <time>2021-05-08T08:24:59Z</time>
      </trkpt>
      <trkpt lat="40.5473210" lon="-4.1149610">
        <ele>903.0</ele>
        <time>2021-05-08T08:25:00Z</time>
      </trkpt>
      <trkpt lat="40.5474340" lon="-4.1150570">
        <ele>903.1</ele>
        <time>2021-05-08T08:25:02Z</time>
      </trkpt>
      <trkpt lat="40.5474910" lon="-4.1151010">
        <ele>903.1</ele>
        <time>2021-05-08T08:25:03Z</time>
      </trkpt>
      <trkpt lat="40.5475430" lon="-4.1151430">
        <ele>903.2</ele>
        <time>2021-05-08T08:25:04Z</time>
      </trkpt>
      <trkpt lat="40.5476490" lon="-4.1152330">
        <ele>903.4</ele>
        <time>2021-05-08T08:25:06Z</time>
      </trkpt>
      <trkpt lat="40.5477000" lon="-4.1152760">
        <ele>903.5</ele>
        <time>2021-05-08T08:25:07Z</time>
      </trkpt>
      <trkpt lat="40.5478040" lon="-4.1153620">
        <ele>903.5</ele>
        <time>2021-05-08T08:25:09Z</time>
      </trkpt>
      <trkpt lat="40.5479050" lon="-4.1154500">
        <ele>903.6</ele>
        <time>2021-05-08T08:25:11Z</time>
      </trkpt>
      <trkpt lat="40.5480100" lon="-4.1155290">
        <ele>903.7</ele>
        <time>2021-05-08T08:25:13Z</time>
      </trkpt>
      <trkpt lat="40.5481180" lon="-4.1156110">
        <ele>903.8</ele>
        <time>2021-05-08T08:25:15Z</time>
      </trkpt>
      <trkpt lat="40.5481730" lon="-4.1156480">
        <ele>903.9</ele>
        <time>2021-05-08T08:25:16Z</time>
      </trkpt>
      <trkpt lat="40.5482920" lon="-4.1157010">
        <ele>904.1</ele>
        <time>2021-05-08T08:25:18Z</time>
      </trkpt>
      <trkpt lat="40.5484120" lon="-4.1157500">
        <ele>904.3</ele>
        <time>2021-05-08T08:25:20Z</time>
      </trkpt>
      <trkpt lat="40.5484720" lon="-4.1157710">
        <ele>904.5</ele>
        <time>2021-05-08T08:25:21Z</time>
      </trkpt>
      <trkpt lat="40.5485240" lon="-4.1157880">
        <ele>904.7</ele>
        <time>2021-05-08T08:25:22Z</time>
      </trkpt>
      <trkpt lat="40.5486400" lon="-4.1158270">
        <ele>905.1</ele>
        <time>2021-05-08T08:25:24Z</time>
      </trkpt>
      <trkpt lat="40.5487480" lon="-4.1158610">
        <ele>905.7</ele>
        <time>2021-05-08T08:25:26Z</time>
      </trkpt>
      <trkpt lat="40.5487990" lon="-4.1158720">
        <ele>905.9</ele>
        <time>2021-05-08T08:25:27Z</time>
      </trkpt>
      <trkpt lat="40.5488980" lon="-4.1158890">
        <ele>906.4</ele>
        <time>2021-05-08T08:25:29Z</time>
      </trkpt>
      <trkpt lat="40.5489990" lon="-4.1158950">
        <ele>906.9</ele>
        <time>2021-05-08T08:25:31Z</time>
      </trkpt>
      <trkpt lat="40.5490500" lon="-4.1158940">
        <ele>907.1</ele>
        <time>2021-05-08T08:25:32Z</time>
      </trkpt>
      <trkpt lat="40.5491500" lon="-4.1158890">
        <ele>907.5</ele>
        <time>2021-05-08T08:25:34Z</time>
      </trkpt>
      <trkpt lat="40.5492430" lon="-4.1158860">
        <ele>907.8</ele>
        <time>2021-05-08T08:25:36Z</time>
      </trkpt>
      <trkpt lat="40.5492860" lon="-4.1158830">
        <ele>907.9</ele>
        <time>2021-05-08T08:25:37Z</time>
      </trkpt>
      <trkpt lat="40.5493590" lon="-4.1158740">
        <ele>908.2</ele>
        <time>2021-05-08T08:25:39Z</time>
      </trkpt>
      <trkpt lat="40.5493970" lon="-4.1158690">
        <ele>908.2</ele>
        <time>2021-05-08T08:25:40Z</time>
      </trkpt>
      <trkpt lat="40.5494850" lon="-4.1158640">
        <ele>908.4</ele>
        <time>2021-05-08T08:25:42Z</time>
      </trkpt>
      <trkpt lat="40.5495200" lon="-4.1158620">
        <ele>908.5</ele>
        <time>2021-05-08T08:25:43Z</time>
      </trkpt>
      <trkpt lat="40.5496190" lon="-4.1158520">
        <ele>908.6</ele>
        <time>2021-05-08T08:25:45Z</time>
      </trkpt>
      <trkpt lat="40.5496990" lon="-4.1158480">
        <ele>908.7</ele>
        <time>2021-05-08T08:25:47Z</time>
      </trkpt>
      <trkpt lat="40.5498060" lon="-4.1158410">
        <ele>909.0</ele>
        <time>2021-05-08T08:25:49Z</time>
      </trkpt>
      <trkpt lat="40.5499020" lon="-4.1158340">
        <ele>909.1</ele>
        <time>2021-05-08T08:25:51Z</time>
      </trkpt>
      <trkpt lat="40.5500020" lon="-4.1158280">
        <ele>909.3</ele>
        <time>2021-05-08T08:25:53Z</time>
      </trkpt>
      <trkpt lat="40.5501030" lon="-4.1158200">
        <ele>909.4</ele>
        <time>2021-05-08T08:25:55Z</time>
      </trkpt>
      <trkpt lat="40.5501520" lon="-4.1158140">
        <ele>909.5</ele>
        <time>2021-05-08T08:25:56Z</time>
      </trkpt>
      <trkpt lat="40.5502530" lon="-4.1158070">
        <ele>909.8</ele>
        <time>2021-05-08T08:25:58Z</time>
      </trkpt>
      <trkpt lat="40.5503010" lon="-4.1158040">
        <ele>909.9</ele>
        <time>2021-05-08T08:25:59Z</time>
      </trkpt>
      <trkpt lat="40.5503930" lon="-4.1157930">
        <ele>910.2</ele>
        <time>2021-05-08T08:26:01Z</time>
      </trkpt>
      <trkpt lat="40.5504370" lon="-4.1157910">
        <ele>910.4</ele>
        <time>2021-05-08T08:26:02Z</time>
      </trkpt>
      <trkpt lat="40.5505250" lon="-4.1157800">
        <ele>910.7</ele>
        <time>2021-05-08T08:26:04Z</time>
      </trkpt>
      <trkpt lat="40.5505970" lon="-4.1157730">
        <ele>911.0</ele>
        <time>2021-05-08T08:26:06Z</time>
      </trkpt>
      <trkpt lat="40.5506910" lon="-4.1157670">
        <ele>911.4</ele>
        <time>2021-05-08T08:26:08Z</time>
      </trkpt>
      <trkpt lat="40.5507430" lon="-4.1157660">
        <ele>911.7</ele>
        <time>2021-05-08T08:26:09Z</time>
      </trkpt>
      <trkpt lat="40.5507950" lon="-4.1157650">
        <ele>912.0</ele>
        <time>2021-05-08T08:26:11Z</time>
      </trkpt>
      <trkpt lat="40.5508620" lon="-4.1157650">
        <ele>912.3</ele>
        <time>2021-05-08T08:26:12Z</time>
      </trkpt>
      <trkpt lat="40.5508920" lon="-4.1157640">
        <ele>912.4</ele>
        <time>2021-05-08T08:26:13Z</time>
      </trkpt>
      <trkpt lat="40.5509700" lon="-4.1157590">
        <ele>912.8</ele>
        <time>2021-05-08T08:26:15Z</time>
      </trkpt>
      <trkpt lat="40.5510470" lon="-4.1157550">
        <ele>913.2</ele>
        <time>2021-05-08T08:26:17Z</time>
      </trkpt>
      <trkpt lat="40.5511200" lon="-4.1157560">
        <ele>913.4</ele>
        <time>2021-05-08T08:26:19Z</time>
      </trkpt>
      <trkpt lat="40.5511880" lon="-4.1157530">
        <ele>913.7</ele>
        <time>2021-05-08T08:26:21Z</time>
      </trkpt>
      <trkpt lat="40.5512660" lon="-4.1157520">
        <ele>914.0</ele>
        <time>2021-05-08T08:26:23Z</time>
      </trkpt>
      <trkpt lat="40.5513060" lon="-4.1157500">
        <ele>914.1</ele>
        <time>2021-05-08T08:26:24Z</time>
      </trkpt>
      <trkpt lat="40.5513770" lon="-4.1157460">
        <ele>914.3</ele>
        <time>2021-05-08T08:26:26Z</time>
      </trkpt>
      <trkpt lat="40.5514620" lon="-4.1157420">
        <ele>914.6</ele>
        <time>2021-05-08T08:26:28Z</time>
      </trkpt>
      <trkpt lat="40.5515190" lon="-4.1157390">
        <ele>914.7</ele>
        <time>2021-05-08T08:26:29Z</time>
      </trkpt>
      <trkpt lat="40.5515770" lon="-4.1157370">
        <ele>914.7</ele>
        <time>2021-05-08T08:26:31Z</time>
      </trkpt>
      <trkpt lat="40.5516520" lon="-4.1157310">
        <ele>914.8</ele>
        <time>2021-05-08T08:26:33Z</time>
      </trkpt>
      <trkpt lat="40.5517010" lon="-4.1157260">
        <ele>914.8</ele>
        <time>2021-05-08T08:26:34Z</time>
      </trkpt>
      <trkpt lat="40.5517520" lon="-4.1157200">
        <ele>914.7</ele>
        <time>2021-05-08T08:26:35Z</time>
      </trkpt>
      <trkpt lat="40.5518310" lon="-4.1157150">
        <ele>914.7</ele>
        <time>2021-05-08T08:26:37Z</time>
      </trkpt>
      <trkpt lat="40.5518810" lon="-4.1157110">
        <ele>914.7</ele>
        <time>2021-05-08T08:26:38Z</time>
      </trkpt>
      <trkpt lat="40.5519300" lon="-4.1157050">
        <ele>914.7</ele>
        <time>2021-05-08T08:26:39Z</time>
      </trkpt>
      <trkpt lat="40.5520280" lon="-4.1156980">
        <ele>914.7</ele>
        <time>2021-05-08T08:26:41Z</time>
      </trkpt>
      <trkpt lat="40.5520750" lon="-4.1156930">
        <ele>914.7</ele>
        <time>2021-05-08T08:26:42Z</time>
      </trkpt>
      <trkpt lat="40.5521710" lon="-4.1156860">
        <ele>914.7</ele>
        <time>2021-05-08T08:26:44Z</time>
      </trkpt>
      <trkpt lat="40.5522720" lon="-4.1156780">
        <ele>914.7</ele>
        <time>2021-05-08T08:26:46Z</time>
      </trkpt>
      <trkpt lat="40.5523230" lon="-4.1156760">
        <ele>914.7</ele>
        <time>2021-05-08T08:26:47Z</time>
      </trkpt>
      <trkpt lat="40.5523760" lon="-4.1156740">
        <ele>914.6</ele>
        <time>2021-05-08T08:26:48Z</time>
      </trkpt>
      <trkpt lat="40.5524770" lon="-4.1156730">
        <ele>914.6</ele>
        <time>2021-05-08T08:26:50Z</time>
      </trkpt>
      <trkpt lat="40.5525840" lon="-4.1156740">
        <ele>914.4</ele>
        <time>2021-05-08T08:26:52Z</time>
      </trkpt>
      <trkpt lat="40.5526880" lon="-4.1156890">
        <ele>914.4</ele>
        <time>2021-05-08T08:26:54Z</time>
      </trkpt>
      <trkpt lat="40.5527440" lon="-4.1156970">
        <ele>914.3</ele>
        <time>2021-05-08T08:26:55Z</time>
      </trkpt>
      <trkpt lat="40.5528570" lon="-4.1157100">
        <ele>914.2</ele>
        <time>2021-05-08T08:26:57Z</time>
      </trkpt>
      <trkpt lat="40.5529660" lon="-4.1157360">
        <ele>914.1</ele>
        <time>2021-05-08T08:26:59Z</time>
      </trkpt>
      <trkpt lat="40.5530240" lon="-4.1157510">
        <ele>914.0</ele>
        <time>2021-05-08T08:27:00Z</time>
      </trkpt>
      <trkpt lat="40.5531400" lon="-4.1157930">
        <ele>914.0</ele>
        <time>2021-05-08T08:27:02Z</time>
      </trkpt>
      <trkpt lat="40.5532590" lon="-4.1158470">
        <ele>913.9</ele>
        <time>2021-05-08T08:27:04Z</time>
      </trkpt>
      <trkpt lat="40.5533220" lon="-4.1158710">
        <ele>913.9</ele>
        <time>2021-05-08T08:27:05Z</time>
      </trkpt>
      <trkpt lat="40.5534320" lon="-4.1159280">
        <ele>914.0</ele>
        <time>2021-05-08T08:27:07Z</time>
      </trkpt>
      <trkpt lat="40.5535440" lon="-4.1159950">
        <ele>914.1</ele>
        <time>2021-05-08T08:27:09Z</time>
      </trkpt>
      <trkpt lat="40.5536520" lon="-4.1160620">
        <ele>914.2</ele>
        <time>2021-05-08T08:27:11Z</time>
      </trkpt>
      <trkpt lat="40.5537570" lon="-4.1161410">
        <ele>914.4</ele>
        <time>2021-05-08T08:27:13Z</time>
      </trkpt>
      <trkpt lat="40.5538590" lon="-4.1162220">
        <ele>914.6</ele>
        <time>2021-05-08T08:27:15Z</time>
      </trkpt>
      <trkpt lat="40.5539570" lon="-4.1163130">
        <ele>914.9</ele>
        <time>2021-05-08T08:27:17Z</time>
      </trkpt>
      <trkpt lat="40.5540030" lon="-4.1163580">
        <ele>915.0</ele>
        <time>2021-05-08T08:27:18Z</time>
      </trkpt>
      <trkpt lat="40.5540960" lon="-4.1164530">
        <ele>915.2</ele>
        <time>2021-05-08T08:27:20Z</time>
      </trkpt>
      <trkpt lat="40.5541860" lon="-4.1165520">
        <ele>915.4</ele>
        <time>2021-05-08T08:27:22Z</time>
      </trkpt>
      <trkpt lat="40.5542270" lon="-4.1166000">
        <ele>915.6</ele>
        <time>2021-05-08T08:27:23Z</time>
      </trkpt>
      <trkpt lat="40.5543060" lon="-4.1166900">
        <ele>915.8</ele>
        <time>2021-05-08T08:27:25Z</time>
      </trkpt>
      <trkpt lat="40.5543470" lon="-4.1167360">
        <ele>916.0</ele>
        <time>2021-05-08T08:27:26Z</time>
      </trkpt>
      <trkpt lat="40.5544270" lon="-4.1168220">
        <ele>916.1</ele>
        <time>2021-05-08T08:27:28Z</time>
      </trkpt>
      <trkpt lat="40.5544670" lon="-4.1168620">
        <ele>916.2</ele>
        <time>2021-05-08T08:27:29Z</time>
      </trkpt>
      <trkpt lat="40.5545560" lon="-4.1169330">
        <ele>916.3</ele>
        <time>2021-05-08T08:27:31Z</time>
      </trkpt>
      <trkpt lat="40.5546520" lon="-4.1170070">
        <ele>916.3</ele>
        <time>2021-05-08T08:27:33Z</time>
      </trkpt>
      <trkpt lat="40.5547520" lon="-4.1170770">
        <ele>916.3</ele>
        <time>2021-05-08T08:27:35Z</time>
      </trkpt>
      <trkpt lat="40.5548550" lon="-4.1171450">
        <ele>916.2</ele>
        <time>2021-05-08T08:27:37Z</time>
      </trkpt>
      <trkpt lat="40.5549060" lon="-4.1171810">
        <ele>916.1</ele>
        <time>2021-05-08T08:27:38Z</time>
      </trkpt>
      <trkpt lat="40.5550120" lon="-4.1172540">
        <ele>916.0</ele>
        <time>2021-05-08T08:27:40Z</time>
      </trkpt>
      <trkpt lat="40.5550660" lon="-4.1172890">
        <ele>916.0</ele>
        <time>2021-05-08T08:27:41Z</time>
      </trkpt>
      <trkpt lat="40.5551810" lon="-4.1173530">
        <ele>915.9</ele>
        <time>2021-05-08T08:27:43Z</time>
      </trkpt>
      <trkpt lat="40.5552440" lon="-4.1173790">
        <ele>915.8</ele>
        <time>2021-05-08T08:27:44Z</time>
      </trkpt>
      <trkpt lat="40.5553710" lon="-4.1174250">
        <ele>915.6</ele>
        <time>2021-05-08T08:27:46Z</time>
      </trkpt>
      <trkpt lat="40.5555030" lon="-4.1174600">
        <ele>915.4</ele>
        <time>2021-05-08T08:27:48Z</time>
      </trkpt>
      <trkpt lat="40.5555710" lon="-4.1174770">
        <ele>915.4</ele>
        <time>2021-05-08T08:27:49Z</time>
      </trkpt>
      <trkpt lat="40.5556390" lon="-4.1174940">
        <ele>915.3</ele>
        <time>2021-05-08T08:27:50Z</time>
      </trkpt>
      <trkpt lat="40.5557060" lon="-4.1175120">
        <ele>915.2</ele>
        <time>2021-05-08T08:27:51Z</time>
      </trkpt>
      <trkpt lat="40.5558390" lon="-4.1175460">
        <ele>915.1</ele>
        <time>2021-05-08T08:27:53Z</time>
      </trkpt>
      <trkpt lat="40.5559690" lon="-4.1175810">
        <ele>915.1</ele>
        <time>2021-05-08T08:27:55Z</time>
      </trkpt>
      <trkpt lat="40.5560310" lon="-4.1176000">
        <ele>915.1</ele>
        <time>2021-05-08T08:27:56Z</time>
      </trkpt>
      <trkpt lat="40.5560980" lon="-4.1176210">
        <ele>915.0</ele>
        <time>2021-05-08T08:27:57Z</time>
      </trkpt>
      <trkpt lat="40.5562250" lon="-4.1176600">
        <ele>914.9</ele>
        <time>2021-05-08T08:27:59Z</time>
      </trkpt>
      <trkpt lat="40.5563500" lon="-4.1177010">
        <ele>914.8</ele>
        <time>2021-05-08T08:28:01Z</time>
      </trkpt>
      <trkpt lat="40.5564130" lon="-4.1177200">
        <ele>914.8</ele>
        <time>2021-05-08T08:28:02Z</time>
      </trkpt>
      <trkpt lat="40.5564760" lon="-4.1177390">
        <ele>914.8</ele>
        <time>2021-05-08T08:28:03Z</time>
      </trkpt>
      <trkpt lat="40.5566050" lon="-4.1177770">
        <ele>914.7</ele>
        <time>2021-05-08T08:28:05Z</time>
      </trkpt>
      <trkpt lat="40.5567300" lon="-4.1178210">
        <ele>914.7</ele>
        <time>2021-05-08T08:28:07Z</time>
      </trkpt>
      <trkpt lat="40.5568580" lon="-4.1178670">
        <ele>914.6</ele>
        <time>2021-05-08T08:28:09Z</time>
      </trkpt>
      <trkpt lat="40.5569820" lon="-4.1179120">
        <ele>914.5</ele>
        <time>2021-05-08T08:28:11Z</time>
      </trkpt>
      <trkpt lat="40.5570500" lon="-4.1179330">
        <ele>914.5</ele>
        <time>2021-05-08T08:28:12Z</time>
      </trkpt>
      <trkpt lat="40.5571940" lon="-4.1179750">
        <ele>914.4</ele>
        <time>2021-05-08T08:28:14Z</time>
      </trkpt>
      <trkpt lat="40.5572620" lon="-4.1179940">
        <ele>914.3</ele>
        <time>2021-05-08T08:28:15Z</time>
      </trkpt>
      <trkpt lat="40.5574010" lon="-4.1180290">
        <ele>914.3</ele>
        <time>2021-05-08T08:28:17Z</time>
      </trkpt>
      <trkpt lat="40.5575420" lon="-4.1180760">
        <ele>914.4</ele>
        <time>2021-05-08T08:28:19Z</time>
      </trkpt>
      <trkpt lat="40.5576680" lon="-4.1181210">
        <ele>914.6</ele>
        <time>2021-05-08T08:28:21Z</time>
      </trkpt>
      <trkpt lat="40.5577240" lon="-4.1181470">
        <ele>914.7</ele>
        <time>2021-05-08T08:28:22Z</time>
      </trkpt>
      <trkpt lat="40.5577800" lon="-4.1181750">
        <ele>914.7</ele>
        <time>2021-05-08T08:28:23Z</time>
      </trkpt>
      <trkpt lat="40.5578350" lon="-4.1182050">
        <ele>914.7</ele>
        <time>2021-05-08T08:28:24Z</time>
      </trkpt>
      <trkpt lat="40.5579510" lon="-4.1182700">
        <ele>914.6</ele>
        <time>2021-05-08T08:28:26Z</time>
      </trkpt>
      <trkpt lat="40.5580100" lon="-4.1183060">
        <ele>914.6</ele>
        <time>2021-05-08T08:28:27Z</time>
      </trkpt>
      <trkpt lat="40.5581280" lon="-4.1183860">
        <ele>914.5</ele>
        <time>2021-05-08T08:28:29Z</time>
      </trkpt>
      <trkpt lat="40.5581880" lon="-4.1184310">
        <ele>914.5</ele>
        <time>2021-05-08T08:28:30Z</time>
      </trkpt>
      <trkpt lat="40.5582500" lon="-4.1184820">
        <ele>914.4</ele>
        <time>2021-05-08T08:28:31Z</time>
      </trkpt>
      <trkpt lat="40.5583730" lon="-4.1186010">
        <ele>914.2</ele>
        <time>2021-05-08T08:28:33Z</time>
      </trkpt>
      <trkpt lat="40.5584910" lon="-4.1187180">
        <ele>914.1</ele>
        <time>2021-05-08T08:28:35Z</time>
      </trkpt>
      <trkpt lat="40.5585560" lon="-4.1187850">
        <ele>914.1</ele>
        <time>2021-05-08T08:28:36Z</time>
      </trkpt>
      <trkpt lat="40.5586540" lon="-4.1188940">
        <ele>914.0</ele>
        <time>2021-05-08T08:28:38Z</time>
      </trkpt>
      <trkpt lat="40.5587100" lon="-4.1189470">
        <ele>914.0</ele>
        <time>2021-05-08T08:28:39Z</time>
      </trkpt>
      <trkpt lat="40.5588220" lon="-4.1190460">
        <ele>914.0</ele>
        <time>2021-05-08T08:28:41Z</time>
      </trkpt>
      <trkpt lat="40.5588760" lon="-4.1190940">
        <ele>914.0</ele>
        <time>2021-05-08T08:28:42Z</time>
      </trkpt>
      <trkpt lat="40.5589290" lon="-4.1191420">
        <ele>914.1</ele>
        <time>2021-05-08T08:28:43Z</time>
      </trkpt>
      <trkpt lat="40.5589820" lon="-4.1191870">
        <ele>914.1</ele>
        <time>2021-05-08T08:28:44Z</time>
      </trkpt>
      <trkpt lat="40.5590880" lon="-4.1192650">
        <ele>914.2</ele>
        <time>2021-05-08T08:28:46Z</time>
      </trkpt>
      <trkpt lat="40.5591990" lon="-4.1193410">
        <ele>914.2</ele>
        <time>2021-05-08T08:28:48Z</time>
      </trkpt>
      <trkpt lat="40.5593190" lon="-4.1194160">
        <ele>914.1</ele>
        <time>2021-05-08T08:28:50Z</time>
      </trkpt>
      <trkpt lat="40.5593850" lon="-4.1194500">
        <ele>914.0</ele>
        <time>2021-05-08T08:28:51Z</time>
      </trkpt>
      <trkpt lat="40.5595070" lon="-4.1195170">
        <ele>913.8</ele>
        <time>2021-05-08T08:28:53Z</time>
      </trkpt>
      <trkpt lat="40.5596330" lon="-4.1195690">
        <ele>913.5</ele>
        <time>2021-05-08T08:28:55Z</time>
      </trkpt>
      <trkpt lat="40.5596910" lon="-4.1195870">
        <ele>913.4</ele>
        <time>2021-05-08T08:28:56Z</time>
      </trkpt>
      <trkpt lat="40.5598310" lon="-4.1196200">
        <ele>913.0</ele>
        <time>2021-05-08T08:28:58Z</time>
      </trkpt>
      <trkpt lat="40.5599000" lon="-4.1196320">
        <ele>912.8</ele>
        <time>2021-05-08T08:28:59Z</time>
      </trkpt>
      <trkpt lat="40.5600330" lon="-4.1196460">
        <ele>912.5</ele>
        <time>2021-05-08T08:29:01Z</time>
      </trkpt>
      <trkpt lat="40.5601100" lon="-4.1196490">
        <ele>912.2</ele>
        <time>2021-05-08T08:29:02Z</time>
      </trkpt>
      <trkpt lat="40.5601880" lon="-4.1196490">
        <ele>912.0</ele>
        <time>2021-05-08T08:29:03Z</time>
      </trkpt>
      <trkpt lat="40.5603440" lon="-4.1196460">
        <ele>911.6</ele>
        <time>2021-05-08T08:29:05Z</time>
      </trkpt>
      <trkpt lat="40.5604210" lon="-4.1196400">
        <ele>911.5</ele>
        <time>2021-05-08T08:29:06Z</time>
      </trkpt>
      <trkpt lat="40.5604980" lon="-4.1196310">
        <ele>911.3</ele>
        <time>2021-05-08T08:29:07Z</time>
      </trkpt>
      <trkpt lat="40.5606480" lon="-4.1196030">
        <ele>910.8</ele>
        <time>2021-05-08T08:29:09Z</time>
      </trkpt>
      <trkpt lat="40.5607940" lon="-4.1195650">
        <ele>910.4</ele>
        <time>2021-05-08T08:29:11Z</time>
      </trkpt>
      <trkpt lat="40.5609390" lon="-4.1195180">
        <ele>910.0</ele>
        <time>2021-05-08T08:29:13Z</time>
      </trkpt>
      <trkpt lat="40.5610740" lon="-4.1194710">
        <ele>909.7</ele>
        <time>2021-05-08T08:29:15Z</time>
      </trkpt>
      <trkpt lat="40.5612110" lon="-4.1194280">
        <ele>909.5</ele>
        <time>2021-05-08T08:29:17Z</time>
      </trkpt>
      <trkpt lat="40.5613430" lon="-4.1193920">
        <ele>909.3</ele>
        <time>2021-05-08T08:29:19Z</time>
      </trkpt>
      <trkpt lat="40.5614800" lon="-4.1193510">
        <ele>909.1</ele>
        <time>2021-05-08T08:29:21Z</time>
      </trkpt>
      <trkpt lat="40.5616130" lon="-4.1193220">
        <ele>908.9</ele>
        <time>2021-05-08T08:29:23Z</time>
      </trkpt>
      <trkpt lat="40.5616810" lon="-4.1193090">
        <ele>908.8</ele>
        <time>2021-05-08T08:29:24Z</time>
      </trkpt>
      <trkpt lat="40.5618270" lon="-4.1192870">
        <ele>908.6</ele>
        <time>2021-05-08T08:29:26Z</time>
      </trkpt>
      <trkpt lat="40.5619010" lon="-4.1192830">
        <ele>908.5</ele>
        <time>2021-05-08T08:29:27Z</time>
      </trkpt>
      <trkpt lat="40.5619740" lon="-4.1192850">
        <ele>908.5</ele>
        <time>2021-05-08T08:29:28Z</time>
      </trkpt>
      <trkpt lat="40.5621210" lon="-4.1193070">
        <ele>908.4</ele>
        <time>2021-05-08T08:29:30Z</time>
      </trkpt>
      <trkpt lat="40.5621940" lon="-4.1193230">
        <ele>908.4</ele>
        <time>2021-05-08T08:29:31Z</time>
      </trkpt>
      <trkpt lat="40.5623470" lon="-4.1193670">
        <ele>908.5</ele>
        <time>2021-05-08T08:29:33Z</time>
      </trkpt>
      <trkpt lat="40.5624240" lon="-4.1193920">
        <ele>908.6</ele>
        <time>2021-05-08T08:29:34Z</time>
      </trkpt>
      <trkpt lat="40.5625730" lon="-4.1194470">
        <ele>908.8</ele>
        <time>2021-05-08T08:29:36Z</time>
      </trkpt>
      <trkpt lat="40.5626340" lon="-4.1194750">
        <ele>908.8</ele>
        <time>2021-05-08T08:29:37Z</time>
      </trkpt>
      <trkpt lat="40.5627010" lon="-4.1195060">
        <ele>908.9</ele>
        <time>2021-05-08T08:29:38Z</time>
      </trkpt>
      <trkpt lat="40.5628330" lon="-4.1195840">
        <ele>909.1</ele>
        <time>2021-05-08T08:29:40Z</time>
      </trkpt>
      <trkpt lat="40.5629030" lon="-4.1196310">
        <ele>909.1</ele>
        <time>2021-05-08T08:29:41Z</time>
      </trkpt>
      <trkpt lat="40.5630380" lon="-4.1197330">
        <ele>909.3</ele>
        <time>2021-05-08T08:29:43Z</time>
      </trkpt>
      <trkpt lat="40.5631020" lon="-4.1197860">
        <ele>909.4</ele>
        <time>2021-05-08T08:29:44Z</time>
      </trkpt>
      <trkpt lat="40.5631640" lon="-4.1198400">
        <ele>909.5</ele>
        <time>2021-05-08T08:29:45Z</time>
      </trkpt>
      <trkpt lat="40.5632800" lon="-4.1199550">
        <ele>909.7</ele>
        <time>2021-05-08T08:29:47Z</time>
      </trkpt>
      <trkpt lat="40.5634000" lon="-4.1200910">
        <ele>910.0</ele>
        <time>2021-05-08T08:29:49Z</time>
      </trkpt>
      <trkpt lat="40.5635070" lon="-4.1202200">
        <ele>910.2</ele>
        <time>2021-05-08T08:29:51Z</time>
      </trkpt>
      <trkpt lat="40.5635580" lon="-4.1202830">
        <ele>910.4</ele>
        <time>2021-05-08T08:29:52Z</time>
      </trkpt>
      <trkpt lat="40.5636060" lon="-4.1203490">
        <ele>910.5</ele>
        <time>2021-05-08T08:29:53Z</time>
      </trkpt>
      <trkpt lat="40.5636990" lon="-4.1204920">
        <ele>910.8</ele>
        <time>2021-05-08T08:29:55Z</time>
      </trkpt>
      <trkpt lat="40.5637500" lon="-4.1205710">
        <ele>911.0</ele>
        <time>2021-05-08T08:29:56Z</time>
      </trkpt>
      <trkpt lat="40.5638230" lon="-4.1207120">
        <ele>911.2</ele>
        <time>2021-05-08T08:29:58Z</time>
      </trkpt>
      <trkpt lat="40.5638640" lon="-4.1207870">
        <ele>911.3</ele>
        <time>2021-05-08T08:29:59Z</time>
      </trkpt>
      <trkpt lat="40.5639050" lon="-4.1208590">
        <ele>911.5</ele>
        <time>2021-05-08T08:30:00Z</time>
      </trkpt>
      <trkpt lat="40.5639740" lon="-4.1210070">
        <ele>911.7</ele>
        <time>2021-05-08T08:30:02Z</time>
      </trkpt>
      <trkpt lat="40.5640050" lon="-4.1210800">
        <ele>911.8</ele>
        <time>2021-05-08T08:30:03Z</time>
      </trkpt>
      <trkpt lat="40.5640640" lon="-4.1212290">
        <ele>912.1</ele>
        <time>2021-05-08T08:30:05Z</time>
      </trkpt>
      <trkpt lat="40.5640920" lon="-4.1213020">
        <ele>912.2</ele>
        <time>2021-05-08T08:30:06Z</time>
      </trkpt>
      <trkpt lat="40.5641170" lon="-4.1213770">
        <ele>912.2</ele>
        <time>2021-05-08T08:30:07Z</time>
      </trkpt>
      <trkpt lat="40.5641740" lon="-4.1215120">
        <ele>912.4</ele>
        <time>2021-05-08T08:30:09Z</time>
      </trkpt>
      <trkpt lat="40.5642020" lon="-4.1215780">
        <ele>912.5</ele>
        <time>2021-05-08T08:30:10Z</time>
      </trkpt>
      <trkpt lat="40.5642290" lon="-4.1216460">
        <ele>912.6</ele>
        <time>2021-05-08T08:30:11Z</time>
      </trkpt>
      <trkpt lat="40.5642810" lon="-4.1217760">
        <ele>912.9</ele>
        <time>2021-05-08T08:30:13Z</time>
      </trkpt>
      <trkpt lat="40.5643300" lon="-4.1219020">
        <ele>913.2</ele>
        <time>2021-05-08T08:30:15Z</time>
      </trkpt>
      <trkpt lat="40.5643580" lon="-4.1219660">
        <ele>913.3</ele>
        <time>2021-05-08T08:30:16Z</time>
      </trkpt>
      <trkpt lat="40.5644070" lon="-4.1220740">
        <ele>913.5</ele>
        <time>2021-05-08T08:30:18Z</time>
      </trkpt>
      <trkpt lat="40.5644340" lon="-4.1221270">
        <ele>913.6</ele>
        <time>2021-05-08T08:30:19Z</time>
      </trkpt>
      <trkpt lat="40.5644850" lon="-4.1222200">
        <ele>913.8</ele>
        <time>2021-05-08T08:30:21Z</time>
      </trkpt>
      <trkpt lat="40.5645120" lon="-4.1222680">
        <ele>914.0</ele>
        <time>2021-05-08T08:30:22Z</time>
      </trkpt>
      <trkpt lat="40.5645700" lon="-4.1223670">
        <ele>914.2</ele>
        <time>2021-05-08T08:30:24Z</time>
      </trkpt>
      <trkpt lat="40.5646240" lon="-4.1224600">
        <ele>914.3</ele>
        <time>2021-05-08T08:30:26Z</time>
      </trkpt>
      <trkpt lat="40.5646520" lon="-4.1225030">
        <ele>914.4</ele>
        <time>2021-05-08T08:30:27Z</time>
      </trkpt>
      <trkpt lat="40.5647010" lon="-4.1225820">
        <ele>914.6</ele>
        <time>2021-05-08T08:30:29Z</time>
      </trkpt>
      <trkpt lat="40.5647500" lon="-4.1226650">
        <ele>914.8</ele>
        <time>2021-05-08T08:30:31Z</time>
      </trkpt>
      <trkpt lat="40.5647830" lon="-4.1227140">
        <ele>914.9</ele>
        <time>2021-05-08T08:30:32Z</time>
      </trkpt>
      <trkpt lat="40.5648200" lon="-4.1227620">
        <ele>915.0</ele>
        <time>2021-05-08T08:30:33Z</time>
      </trkpt>
      <trkpt lat="40.5648870" lon="-4.1228420">
        <ele>915.2</ele>
        <time>2021-05-08T08:30:35Z</time>
      </trkpt>
      <trkpt lat="40.5649440" lon="-4.1229070">
        <ele>915.3</ele>
        <time>2021-05-08T08:30:37Z</time>
      </trkpt>
      <trkpt lat="40.5649790" lon="-4.1229440">
        <ele>915.4</ele>
        <time>2021-05-08T08:30:38Z</time>
      </trkpt>
      <trkpt lat="40.5650340" lon="-4.1230000">
        <ele>915.5</ele>
        <time>2021-05-08T08:30:40Z</time>
      </trkpt>
      <trkpt lat="40.5650730" lon="-4.1230360">
        <ele>915.6</ele>
        <time>2021-05-08T08:30:41Z</time>
      </trkpt>
      <trkpt lat="40.5651450" lon="-4.1230960">
        <ele>915.7</ele>
        <time>2021-05-08T08:30:43Z</time>
      </trkpt>
      <trkpt lat="40.5652340" lon="-4.1231620">
        <ele>915.9</ele>
        <time>2021-05-08T08:30:45Z</time>
      </trkpt>
      <trkpt lat="40.5653210" lon="-4.1232250">
        <ele>916.1</ele>
        <time>2021-05-08T08:30:47Z</time>
      </trkpt>
      <trkpt lat="40.5653420" lon="-4.1232410">
        <ele>916.2</ele>
        <time>2021-05-08T08:30:48Z</time>
      </trkpt>
      <trkpt lat="40.5654260" lon="-4.1232930">
        <ele>916.4</ele>
        <time>2021-05-08T08:30:50Z</time>
      </trkpt>
      <trkpt lat="40.5654780" lon="-4.1233220">
        <ele>916.5</ele>
        <time>2021-05-08T08:30:51Z</time>
      </trkpt>
      <trkpt lat="40.5655690" lon="-4.1233670">
        <ele>916.8</ele>
        <time>2021-05-08T08:30:53Z</time>
      </trkpt>
      <trkpt lat="40.5656050" lon="-4.1233830">
        <ele>916.9</ele>
        <time>2021-05-08T08:30:54Z</time>
      </trkpt>
      <trkpt lat="40.5656390" lon="-4.1233960">
        <ele>917.0</ele>
        <time>2021-05-08T08:30:55Z</time>
      </trkpt>
      <trkpt lat="40.5657250" lon="-4.1234250">
        <ele>917.3</ele>
        <time>2021-05-08T08:30:57Z</time>
      </trkpt>
      <trkpt lat="40.5657790" lon="-4.1234460">
        <ele>917.5</ele>
        <time>2021-05-08T08:30:58Z</time>
      </trkpt>
      <trkpt lat="40.5658570" lon="-4.1234820">
        <ele>917.8</ele>
        <time>2021-05-08T08:31:00Z</time>
      </trkpt>
      <trkpt lat="40.5659200" lon="-4.1235040">
        <ele>918.1</ele>
        <time>2021-05-08T08:31:01Z</time>
      </trkpt>
      <trkpt lat="40.5659960" lon="-4.1235230">
        <ele>918.4</ele>
        <time>2021-05-08T08:31:03Z</time>
      </trkpt>
      <trkpt lat="40.5660760" lon="-4.1235350">
        <ele>918.8</ele>
        <time>2021-05-08T08:31:05Z</time>
      </trkpt>
      <trkpt lat="40.5661170" lon="-4.1235380">
        <ele>918.9</ele>
        <time>2021-05-08T08:31:06Z</time>
      </trkpt>
      <trkpt lat="40.5661580" lon="-4.1235380">
        <ele>919.1</ele>
        <time>2021-05-08T08:31:07Z</time>
      </trkpt>
      <trkpt lat="40.5662270" lon="-4.1235410">
        <ele>919.4</ele>
        <time>2021-05-08T08:31:08Z</time>
      </trkpt>
      <trkpt lat="40.5662790" lon="-4.1235390">
        <ele>919.7</ele>
        <time>2021-05-08T08:31:09Z</time>
      </trkpt>
      <trkpt lat="40.5663320" lon="-4.1235390">
        <ele>919.9</ele>
        <time>2021-05-08T08:31:11Z</time>
      </trkpt>
      <trkpt lat="40.5664060" lon="-4.1235460">
        <ele>920.3</ele>
        <time>2021-05-08T08:31:13Z</time>
      </trkpt>
      <trkpt lat="40.5664670" lon="-4.1235480">
        <ele>920.6</ele>
        <time>2021-05-08T08:31:14Z</time>
      </trkpt>
      <trkpt lat="40.5665230" lon="-4.1235460">
        <ele>920.9</ele>
        <time>2021-05-08T08:31:16Z</time>
      </trkpt>
      <trkpt lat="40.5665770" lon="-4.1235480">
        <ele>921.2</ele>
        <time>2021-05-08T08:31:17Z</time>
      </trkpt>
      <trkpt lat="40.5666280" lon="-4.1235500">
        <ele>921.5</ele>
        <time>2021-05-08T08:31:19Z</time>
      </trkpt>
      <trkpt lat="40.5666770" lon="-4.1235490">
        <ele>921.7</ele>
        <time>2021-05-08T08:31:20Z</time>
      </trkpt>
      <trkpt lat="40.5667590" lon="-4.1235470">
        <ele>922.1</ele>
        <time>2021-05-08T08:31:22Z</time>
      </trkpt>
      <trkpt lat="40.5668100" lon="-4.1235430">
        <ele>922.4</ele>
        <time>2021-05-08T08:31:23Z</time>
      </trkpt>
      <trkpt lat="40.5668620" lon="-4.1235470">
        <ele>922.6</ele>
        <time>2021-05-08T08:31:24Z</time>
      </trkpt>
      <trkpt lat="40.5669170" lon="-4.1235520">
        <ele>922.9</ele>
        <time>2021-05-08T08:31:26Z</time>
      </trkpt>
      <trkpt lat="40.5669630" lon="-4.1235500">
        <ele>923.1</ele>
        <time>2021-05-08T08:31:27Z</time>
      </trkpt>
      <trkpt lat="40.5670280" lon="-4.1235470">
        <ele>923.4</ele>
        <time>2021-05-08T08:31:28Z</time>
      </trkpt>
      <trkpt lat="40.5670930" lon="-4.1235490">
        <ele>923.7</ele>
        <time>2021-05-08T08:31:30Z</time>
      </trkpt>
      <trkpt lat="40.5671420" lon="-4.1235510">
        <ele>923.9</ele>
        <time>2021-05-08T08:31:31Z</time>
      </trkpt>
      <trkpt lat="40.5672010" lon="-4.1235570">
        <ele>924.1</ele>
        <time>2021-05-08T08:31:32Z</time>
      </trkpt>
      <trkpt lat="40.5672540" lon="-4.1235600">
        <ele>924.3</ele>
        <time>2021-05-08T08:31:34Z</time>
      </trkpt>
      <trkpt lat="40.5672940" lon="-4.1235610">
        <ele>924.5</ele>
        <time>2021-05-08T08:31:35Z</time>
      </trkpt>
      <trkpt lat="40.5673570" lon="-4.1235640">
        <ele>924.7</ele>
        <time>2021-05-08T08:31:36Z</time>
      </trkpt>
      <trkpt lat="40.5674080" lon="-4.1235640">
        <ele>925.0</ele>
        <time>2021-05-08T08:31:38Z</time>
      </trkpt>
      <trkpt lat="40.5674480" lon="-4.1235660">
        <ele>925.1</ele>
        <time>2021-05-08T08:31:39Z</time>
      </trkpt>
      <trkpt lat="40.5674820" lon="-4.1235640">
        <ele>925.3</ele>
        <time>2021-05-08T08:31:40Z</time>
      </trkpt>
      <trkpt lat="40.5675150" lon="-4.1235640">
        <ele>925.4</ele>
        <time>2021-05-08T08:31:41Z</time>
      </trkpt>
      <trkpt lat="40.5675880" lon="-4.1235720">
        <ele>925.7</ele>
        <time>2021-05-08T08:31:43Z</time>
      </trkpt>
      <trkpt lat="40.5676230" lon="-4.1235740">
        <ele>925.8</ele>
        <time>2021-05-08T08:31:44Z</time>
      </trkpt>
      <trkpt lat="40.5677080" lon="-4.1235820">
        <ele>926.0</ele>
        <time>2021-05-08T08:31:46Z</time>
      </trkpt>
      <trkpt lat="40.5677380" lon="-4.1235870">
        <ele>926.1</ele>
        <time>2021-05-08T08:31:47Z</time>
      </trkpt>
      <trkpt lat="40.5677840" lon="-4.1235900">
        <ele>926.2</ele>
        <time>2021-05-08T08:31:48Z</time>
      </trkpt>
      <trkpt lat="40.5678270" lon="-4.1235950">
        <ele>926.3</ele>
        <time>2021-05-08T08:31:50Z</time>
      </trkpt>
      <trkpt lat="40.5678680" lon="-4.1235990">
        <ele>926.3</ele>
        <time>2021-05-08T08:31:51Z</time>
      </trkpt>
      <trkpt lat="40.5679050" lon="-4.1236020">
        <ele>926.4</ele>
        <time>2021-05-08T08:31:52Z</time>
      </trkpt>
      <trkpt lat="40.5679830" lon="-4.1236040">
        <ele>926.5</ele>
        <time>2021-05-08T08:31:54Z</time>
      </trkpt>
      <trkpt lat="40.5680260" lon="-4.1236050">
        <ele>926.6</ele>
        <time>2021-05-08T08:31:55Z</time>
      </trkpt>
      <trkpt lat="40.5681070" lon="-4.1236030">
        <ele>926.6</ele>
        <time>2021-05-08T08:31:57Z</time>
      </trkpt>
      <trkpt lat="40.5681470" lon="-4.1236030">
        <ele>926.6</ele>
        <time>2021-05-08T08:31:58Z</time>
      </trkpt>
      <trkpt lat="40.5682020" lon="-4.1236050">
        <ele>926.6</ele>
        <time>2021-05-08T08:31:59Z</time>
      </trkpt>
      <trkpt lat="40.5683030" lon="-4.1236110">
        <ele>926.6</ele>
        <time>2021-05-08T08:32:01Z</time>
      </trkpt>
      <trkpt lat="40.5683960" lon="-4.1236100">
        <ele>926.5</ele>
        <time>2021-05-08T08:32:03Z</time>
      </trkpt>
      <trkpt lat="40.5684940" lon="-4.1236110">
        <ele>926.4</ele>
        <time>2021-05-08T08:32:05Z</time>
      </trkpt>
      <trkpt lat="40.5685360" lon="-4.1236110">
        <ele>926.3</ele>
        <time>2021-05-08T08:32:06Z</time>
      </trkpt>
      <trkpt lat="40.5686410" lon="-4.1236090">
        <ele>926.0</ele>
        <time>2021-05-08T08:32:08Z</time>
      </trkpt>
      <trkpt lat="40.5687500" lon="-4.1235990">
        <ele>925.7</ele>
        <time>2021-05-08T08:32:10Z</time>
      </trkpt>
      <trkpt lat="40.5688080" lon="-4.1235890">
        <ele>925.6</ele>
        <time>2021-05-08T08:32:11Z</time>
      </trkpt>
      <trkpt lat="40.5689280" lon="-4.1235760">
        <ele>925.4</ele>
        <time>2021-05-08T08:32:13Z</time>
      </trkpt>
      <trkpt lat="40.5689860" lon="-4.1235670">
        <ele>925.3</ele>
        <time>2021-05-08T08:32:14Z</time>
      </trkpt>
      <trkpt lat="40.5691130" lon="-4.1235420">
        <ele>924.8</ele>
        <time>2021-05-08T08:32:16Z</time>
      </trkpt>
      <trkpt lat="40.5691790" lon="-4.1235290">
        <ele>924.5</ele>
        <time>2021-05-08T08:32:17Z</time>
      </trkpt>
      <trkpt lat="40.5692460" lon="-4.1235160">
        <ele>924.2</ele>
        <time>2021-05-08T08:32:18Z</time>
      </trkpt>
      <trkpt lat="40.5693130" lon="-4.1235020">
        <ele>923.9</ele>
        <time>2021-05-08T08:32:19Z</time>
      </trkpt>
      <trkpt lat="40.5694580" lon="-4.1234790">
        <ele>923.2</ele>
        <time>2021-05-08T08:32:21Z</time>
      </trkpt>
      <trkpt lat="40.5695320" lon="-4.1234630">
        <ele>922.9</ele>
        <time>2021-05-08T08:32:22Z</time>
      </trkpt>
      <trkpt lat="40.5696840" lon="-4.1234300">
        <ele>922.2</ele>
        <time>2021-05-08T08:32:24Z</time>
      </trkpt>
      <trkpt lat="40.5697610" lon="-4.1234110">
        <ele>921.9</ele>
        <time>2021-05-08T08:32:25Z</time>
      </trkpt>
      <trkpt lat="40.5698380" lon="-4.1233910">
        <ele>921.5</ele>
        <time>2021-05-08T08:32:26Z</time>
      </trkpt>
      <trkpt lat="40.5699180" lon="-4.1233710">
        <ele>921.2</ele>
        <time>2021-05-08T08:32:27Z</time>
      </trkpt>
      <trkpt lat="40.5700790" lon="-4.1233320">
        <ele>920.5</ele>
        <time>2021-05-08T08:32:29Z</time>
      </trkpt>
      <trkpt lat="40.5701640" lon="-4.1233100">
        <ele>920.2</ele>
        <time>2021-05-08T08:32:30Z</time>
      </trkpt>
      <trkpt lat="40.5702440" lon="-4.1232880">
        <ele>919.8</ele>
        <time>2021-05-08T08:32:31Z</time>
      </trkpt>
      <trkpt lat="40.5704080" lon="-4.1232410">
        <ele>919.2</ele>
        <time>2021-05-08T08:32:33Z</time>
      </trkpt>
      <trkpt lat="40.5704920" lon="-4.1232200">
        <ele>918.9</ele>
        <time>2021-05-08T08:32:34Z</time>
      </trkpt>
      <trkpt lat="40.5706610" lon="-4.1231840">
        <ele>918.3</ele>
        <time>2021-05-08T08:32:36Z</time>
      </trkpt>
      <trkpt lat="40.5707470" lon="-4.1231670">
        <ele>918.1</ele>
        <time>2021-05-08T08:32:37Z</time>
      </trkpt>
      <trkpt lat="40.5709130" lon="-4.1231410">
        <ele>917.5</ele>
        <time>2021-05-08T08:32:39Z</time>
      </trkpt>
      <trkpt lat="40.5710840" lon="-4.1231210">
        <ele>917.0</ele>
        <time>2021-05-08T08:32:41Z</time>
      </trkpt>
      <trkpt lat="40.5712490" lon="-4.1231030">
        <ele>916.5</ele>
        <time>2021-05-08T08:32:43Z</time>
      </trkpt>
      <trkpt lat="40.5713330" lon="-4.1230980">
        <ele>916.2</ele>
        <time>2021-05-08T08:32:44Z</time>
      </trkpt>
      <trkpt lat="40.5715060" lon="-4.1231000">
        <ele>915.6</ele>
        <time>2021-05-08T08:32:46Z</time>
      </trkpt>
      <trkpt lat="40.5716000" lon="-4.1231040">
        <ele>915.3</ele>
        <time>2021-05-08T08:32:47Z</time>
      </trkpt>
      <trkpt lat="40.5717850" lon="-4.1231110">
        <ele>914.5</ele>
        <time>2021-05-08T08:32:49Z</time>
      </trkpt>
      <trkpt lat="40.5719650" lon="-4.1231330">
        <ele>913.6</ele>
        <time>2021-05-08T08:32:51Z</time>
      </trkpt>
      <trkpt lat="40.5721410" lon="-4.1231700">
        <ele>912.6</ele>
        <time>2021-05-08T08:32:53Z</time>
      </trkpt>
      <trkpt lat="40.5723280" lon="-4.1232140">
        <ele>911.5</ele>
        <time>2021-05-08T08:32:55Z</time>
      </trkpt>
      <trkpt lat="40.5724240" lon="-4.1232430">
        <ele>910.9</ele>
        <time>2021-05-08T08:32:56Z</time>
      </trkpt>
      <trkpt lat="40.5726290" lon="-4.1233140">
        <ele>909.6</ele>
        <time>2021-05-08T08:32:58Z</time>
      </trkpt>
      <trkpt lat="40.5727370" lon="-4.1233490">
        <ele>908.9</ele>
        <time>2021-05-08T08:32:59Z</time>
      </trkpt>
      <trkpt lat="40.5728470" lon="-4.1233840">
        <ele>908.2</ele>
        <time>2021-05-08T08:33:00Z</time>
      </trkpt>
      <trkpt lat="40.5730710" lon="-4.1234580">
        <ele>906.8</ele>
        <time>2021-05-08T08:33:02Z</time>
      </trkpt>
      <trkpt lat="40.5732930" lon="-4.1235400">
        <ele>905.4</ele>
        <time>2021-05-08T08:33:04Z</time>
      </trkpt>
      <trkpt lat="40.5735350" lon="-4.1236220">
        <ele>903.7</ele>
        <time>2021-05-08T08:33:06Z</time>
      </trkpt>
      <trkpt lat="40.5736330" lon="-4.1236520">
        <ele>903.0</ele>
        <time>2021-05-08T08:33:07Z</time>
      </trkpt>
      <trkpt lat="40.5737460" lon="-4.1236890">
        <ele>902.3</ele>
        <time>2021-05-08T08:33:08Z</time>
      </trkpt>
      <trkpt lat="40.5739820" lon="-4.1237680">
        <ele>900.7</ele>
        <time>2021-05-08T08:33:10Z</time>
      </trkpt>
      <trkpt lat="40.5741020" lon="-4.1238070">
        <ele>899.9</ele>
        <time>2021-05-08T08:33:11Z</time>
      </trkpt>
      <trkpt lat="40.5743430" lon="-4.1238890">
        <ele>898.2</ele>
        <time>2021-05-08T08:33:13Z</time>
      </trkpt>
      <trkpt lat="40.5745750" lon="-4.1239600">
        <ele>896.6</ele>
        <time>2021-05-08T08:33:15Z</time>
      </trkpt>
      <trkpt lat="40.5746860" lon="-4.1239900">
        <ele>895.9</ele>
        <time>2021-05-08T08:33:16Z</time>
      </trkpt>
      <trkpt lat="40.5748840" lon="-4.1240500">
        <ele>894.5</ele>
        <time>2021-05-08T08:33:18Z</time>
      </trkpt>
      <trkpt lat="40.5749760" lon="-4.1240820">
        <ele>893.9</ele>
        <time>2021-05-08T08:33:19Z</time>
      </trkpt>
      <trkpt lat="40.5750630" lon="-4.1241100">
        <ele>893.4</ele>
        <time>2021-05-08T08:33:20Z</time>
      </trkpt>
      <trkpt lat="40.5751440" lon="-4.1241360">
        <ele>892.9</ele>
        <time>2021-05-08T08:33:21Z</time>
      </trkpt>
      <trkpt lat="40.5753000" lon="-4.1241880">
        <ele>892.2</ele>
        <time>2021-05-08T08:33:23Z</time>
      </trkpt>
      <trkpt lat="40.5753740" lon="-4.1242110">
        <ele>892.0</ele>
        <time>2021-05-08T08:33:24Z</time>
      </trkpt>
      <trkpt lat="40.5754470" lon="-4.1242290">
        <ele>891.7</ele>
        <time>2021-05-08T08:33:25Z</time>
      </trkpt>
      <trkpt lat="40.5755940" lon="-4.1242470">
        <ele>891.2</ele>
        <time>2021-05-08T08:33:27Z</time>
      </trkpt>
      <trkpt lat="40.5757400" lon="-4.1242360">
        <ele>890.7</ele>
        <time>2021-05-08T08:33:29Z</time>
      </trkpt>
      <trkpt lat="40.5758660" lon="-4.1241820">
        <ele>890.9</ele>
        <time>2021-05-08T08:33:31Z</time>
      </trkpt>
      <trkpt lat="40.5758970" lon="-4.1241390">
        <ele>890.8</ele>
        <time>2021-05-08T08:33:32Z</time>
      </trkpt>
      <trkpt lat="40.5758990" lon="-4.1241130">
        <ele>890.8</ele>
        <time>2021-05-08T08:33:34Z</time>
      </trkpt>
      <trkpt lat="40.5758940" lon="-4.1241260">
        <ele>890.8</ele>
        <time>2021-05-08T08:33:36Z</time>
      </trkpt>
      <trkpt lat="40.5758920" lon="-4.1241270">
        <ele>890.8</ele>
        <time>2021-05-08T08:33:38Z</time>
      </trkpt>
      <trkpt lat="40.5758960" lon="-4.1241260">
        <ele>890.8</ele>
        <time>2021-05-08T08:33:39Z</time>
      </trkpt>
      <trkpt lat="40.5759180" lon="-4.1240880">
        <ele>890.7</ele>
        <time>2021-05-08T08:33:41Z</time>
      </trkpt>
      <trkpt lat="40.5759670" lon="-4.1240100">
        <ele>890.5</ele>
        <time>2021-05-08T08:33:43Z</time>
      </trkpt>
      <trkpt lat="40.5759970" lon="-4.1239810">
        <ele>890.5</ele>
        <time>2021-05-08T08:33:44Z</time>
      </trkpt>
      <trkpt lat="40.5760440" lon="-4.1239520">
        <ele>890.4</ele>
        <time>2021-05-08T08:33:45Z</time>
      </trkpt>
      <trkpt lat="40.5761530" lon="-4.1239080">
        <ele>890.2</ele>
        <time>2021-05-08T08:33:47Z</time>
      </trkpt>
      <trkpt lat="40.5761670" lon="-4.1239080">
        <ele>890.1</ele>
        <time>2021-05-08T08:33:48Z</time>
      </trkpt>
      <trkpt lat="40.5762280" lon="-4.1239110">
        <ele>890.0</ele>
        <time>2021-05-08T08:33:50Z</time>
      </trkpt>
      <trkpt lat="40.5762990" lon="-4.1239130">
        <ele>889.9</ele>
        <time>2021-05-08T08:33:52Z</time>
      </trkpt>
      <trkpt lat="40.5763400" lon="-4.1238990">
        <ele>889.8</ele>
        <time>2021-05-08T08:33:53Z</time>
      </trkpt>
      <trkpt lat="40.5764250" lon="-4.1238630">
        <ele>889.6</ele>
        <time>2021-05-08T08:33:54Z</time>
      </trkpt>
      <trkpt lat="40.5765090" lon="-4.1237950">
        <ele>889.4</ele>
        <time>2021-05-08T08:33:56Z</time>
      </trkpt>
      <trkpt lat="40.5766000" lon="-4.1237160">
        <ele>889.3</ele>
        <time>2021-05-08T08:33:58Z</time>
      </trkpt>
      <trkpt lat="40.5766420" lon="-4.1236770">
        <ele>889.2</ele>
        <time>2021-05-08T08:33:59Z</time>
      </trkpt>
      <trkpt lat="40.5767260" lon="-4.1236000">
        <ele>889.0</ele>
        <time>2021-05-08T08:34:01Z</time>
      </trkpt>
      <trkpt lat="40.5767680" lon="-4.1235540">
        <ele>888.9</ele>
        <time>2021-05-08T08:34:02Z</time>
      </trkpt>
      <trkpt lat="40.5768560" lon="-4.1234650">
        <ele>888.7</ele>
        <time>2021-05-08T08:34:04Z</time>
      </trkpt>
      <trkpt lat="40.5769030" lon="-4.1234220">
        <ele>888.6</ele>
        <time>2021-05-08T08:34:05Z</time>
      </trkpt>
      <trkpt lat="40.5769480" lon="-4.1233780">
        <ele>888.5</ele>
        <time>2021-05-08T08:34:06Z</time>
      </trkpt>
      <trkpt lat="40.5770390" lon="-4.1233060">
        <ele>888.2</ele>
        <time>2021-05-08T08:34:08Z</time>
      </trkpt>
      <trkpt lat="40.5770880" lon="-4.1232700">
        <ele>888.1</ele>
        <time>2021-05-08T08:34:09Z</time>
      </trkpt>
      <trkpt lat="40.5771890" lon="-4.1231900">
        <ele>887.9</ele>
        <time>2021-05-08T08:34:11Z</time>
      </trkpt>
      <trkpt lat="40.5772370" lon="-4.1231460">
        <ele>887.8</ele>
        <time>2021-05-08T08:34:12Z</time>
      </trkpt>
      <trkpt lat="40.5773410" lon="-4.1230650">
        <ele>887.5</ele>
        <time>2021-05-08T08:34:14Z</time>
      </trkpt>
      <trkpt lat="40.5773940" lon="-4.1230280">
        <ele>887.4</ele>
        <time>2021-05-08T08:34:15Z</time>
      </trkpt>
      <trkpt lat="40.5774490" lon="-4.1229910">
        <ele>887.3</ele>
        <time>2021-05-08T08:34:16Z</time>
      </trkpt>
      <trkpt lat="40.5775590" lon="-4.1229220">
        <ele>887.0</ele>
        <time>2021-05-08T08:34:18Z</time>
      </trkpt>
      <trkpt lat="40.5776090" lon="-4.1228840">
        <ele>886.9</ele>
        <time>2021-05-08T08:34:19Z</time>
      </trkpt>
      <trkpt lat="40.5777070" lon="-4.1228090">
        <ele>886.7</ele>
        <time>2021-05-08T08:34:21Z</time>
      </trkpt>
      <trkpt lat="40.5777590" lon="-4.1227720">
        <ele>886.6</ele>
        <time>2021-05-08T08:34:22Z</time>
      </trkpt>
      <trkpt lat="40.5778570" lon="-4.1226920">
        <ele>886.4</ele>
        <time>2021-05-08T08:34:24Z</time>
      </trkpt>
      <trkpt lat="40.5779580" lon="-4.1226060">
        <ele>886.1</ele>
        <time>2021-05-08T08:34:26Z</time>
      </trkpt>
      <trkpt lat="40.5780080" lon="-4.1225620">
        <ele>886.0</ele>
        <time>2021-05-08T08:34:27Z</time>
      </trkpt>
      <trkpt lat="40.5781150" lon="-4.1224700">
        <ele>885.7</ele>
        <time>2021-05-08T08:34:29Z</time>
      </trkpt>
      <trkpt lat="40.5782300" lon="-4.1223840">
        <ele>885.4</ele>
        <time>2021-05-08T08:34:31Z</time>
      </trkpt>
      <trkpt lat="40.5783500" lon="-4.1222980">
        <ele>885.2</ele>
        <time>2021-05-08T08:34:33Z</time>
      </trkpt>
      <trkpt lat="40.5784680" lon="-4.1222040">
        <ele>884.9</ele>
        <time>2021-05-08T08:34:35Z</time>
      </trkpt>
      <trkpt lat="40.5785350" lon="-4.1221500">
        <ele>884.8</ele>
        <time>2021-05-08T08:34:36Z</time>
      </trkpt>
      <trkpt lat="40.5786340" lon="-4.1220720">
        <ele>884.7</ele>
        <time>2021-05-08T08:34:38Z</time>
      </trkpt>
      <trkpt lat="40.5786890" lon="-4.1220280">
        <ele>884.6</ele>
        <time>2021-05-08T08:34:39Z</time>
      </trkpt>
      <trkpt lat="40.5787460" lon="-4.1219840">
        <ele>884.6</ele>
        <time>2021-05-08T08:34:40Z</time>
      </trkpt>
      <trkpt lat="40.5788010" lon="-4.1219440">
        <ele>884.5</ele>
        <time>2021-05-08T08:34:41Z</time>
      </trkpt>
      <trkpt lat="40.5789150" lon="-4.1218610">
        <ele>884.4</ele>
        <time>2021-05-08T08:34:43Z</time>
      </trkpt>
      <trkpt lat="40.5789730" lon="-4.1218170">
        <ele>884.4</ele>
        <time>2021-05-08T08:34:44Z</time>
      </trkpt>
      <trkpt lat="40.5790870" lon="-4.1217330">
        <ele>884.3</ele>
        <time>2021-05-08T08:34:46Z</time>
      </trkpt>
      <trkpt lat="40.5791430" lon="-4.1216910">
        <ele>884.3</ele>
        <time>2021-05-08T08:34:47Z</time>
      </trkpt>
      <trkpt lat="40.5792490" lon="-4.1216100">
        <ele>884.2</ele>
        <time>2021-05-08T08:34:49Z</time>
      </trkpt>
      <trkpt lat="40.5792990" lon="-4.1215720">
        <ele>884.2</ele>
        <time>2021-05-08T08:34:50Z</time>
      </trkpt>
      <trkpt lat="40.5793510" lon="-4.1215320">
        <ele>884.1</ele>
        <time>2021-05-08T08:34:51Z</time>
      </trkpt>
      <trkpt lat="40.5794060" lon="-4.1214880">
        <ele>884.1</ele>
        <time>2021-05-08T08:34:52Z</time>
      </trkpt>
      <trkpt lat="40.5794630" lon="-4.1214420">
        <ele>884.1</ele>
        <time>2021-05-08T08:34:53Z</time>
      </trkpt>
      <trkpt lat="40.5795630" lon="-4.1213660">
        <ele>884.0</ele>
        <time>2021-05-08T08:34:55Z</time>
      </trkpt>
      <trkpt lat="40.5796410" lon="-4.1213140">
        <ele>883.9</ele>
        <time>2021-05-08T08:34:56Z</time>
      </trkpt>
      <trkpt lat="40.5797590" lon="-4.1212270">
        <ele>883.8</ele>
        <time>2021-05-08T08:34:58Z</time>
      </trkpt>
      <trkpt lat="40.5798140" lon="-4.1211830">
        <ele>883.8</ele>
        <time>2021-05-08T08:34:59Z</time>
      </trkpt>
      <trkpt lat="40.5798660" lon="-4.1211380">
        <ele>883.7</ele>
        <time>2021-05-08T08:35:00Z</time>
      </trkpt>
      <trkpt lat="40.5799710" lon="-4.1210520">
        <ele>883.6</ele>
        <time>2021-05-08T08:35:02Z</time>
      </trkpt>
      <trkpt lat="40.5800210" lon="-4.1210100">
        <ele>883.6</ele>
        <time>2021-05-08T08:35:03Z</time>
      </trkpt>
      <trkpt lat="40.5800670" lon="-4.1209730">
        <ele>883.5</ele>
        <time>2021-05-08T08:35:04Z</time>
      </trkpt>
      <trkpt lat="40.5801610" lon="-4.1209050">
        <ele>883.4</ele>
        <time>2021-05-08T08:35:06Z</time>
      </trkpt>
      <trkpt lat="40.5802560" lon="-4.1208300">
        <ele>883.2</ele>
        <time>2021-05-08T08:35:08Z</time>
      </trkpt>
      <trkpt lat="40.5803580" lon="-4.1207430">
        <ele>883.0</ele>
        <time>2021-05-08T08:35:10Z</time>
      </trkpt>
      <trkpt lat="40.5804080" lon="-4.1207010">
        <ele>882.9</ele>
        <time>2021-05-08T08:35:11Z</time>
      </trkpt>
      <trkpt lat="40.5804570" lon="-4.1206590">
        <ele>882.8</ele>
        <time>2021-05-08T08:35:12Z</time>
      </trkpt>
      <trkpt lat="40.5805580" lon="-4.1205780">
        <ele>882.7</ele>
        <time>2021-05-08T08:35:14Z</time>
      </trkpt>
      <trkpt lat="40.5806730" lon="-4.1204900">
        <ele>882.5</ele>
        <time>2021-05-08T08:35:16Z</time>
      </trkpt>
      <trkpt lat="40.5807700" lon="-4.1204190">
        <ele>882.2</ele>
        <time>2021-05-08T08:35:18Z</time>
      </trkpt>
      <trkpt lat="40.5808260" lon="-4.1203740">
        <ele>882.1</ele>
        <time>2021-05-08T08:35:19Z</time>
      </trkpt>
      <trkpt lat="40.5809390" lon="-4.1202870">
        <ele>881.8</ele>
        <time>2021-05-08T08:35:21Z</time>
      </trkpt>
      <trkpt lat="40.5810470" lon="-4.1202030">
        <ele>881.5</ele>
        <time>2021-05-08T08:35:23Z</time>
      </trkpt>
      <trkpt lat="40.5811590" lon="-4.1201180">
        <ele>881.3</ele>
        <time>2021-05-08T08:35:25Z</time>
      </trkpt>
      <trkpt lat="40.5812160" lon="-4.1200750">
        <ele>881.1</ele>
        <time>2021-05-08T08:35:26Z</time>
      </trkpt>
      <trkpt lat="40.5813250" lon="-4.1199880">
        <ele>880.9</ele>
        <time>2021-05-08T08:35:28Z</time>
      </trkpt>
      <trkpt lat="40.5813780" lon="-4.1199480">
        <ele>880.7</ele>
        <time>2021-05-08T08:35:29Z</time>
      </trkpt>
      <trkpt lat="40.5814840" lon="-4.1198640">
        <ele>880.5</ele>
        <time>2021-05-08T08:35:31Z</time>
      </trkpt>
      <trkpt lat="40.5815360" lon="-4.1198200">
        <ele>880.4</ele>
        <time>2021-05-08T08:35:32Z</time>
      </trkpt>
      <trkpt lat="40.5816350" lon="-4.1197260">
        <ele>880.3</ele>
        <time>2021-05-08T08:35:34Z</time>
      </trkpt>
      <trkpt lat="40.5817340" lon="-4.1196030">
        <ele>880.1</ele>
        <time>2021-05-08T08:35:36Z</time>
      </trkpt>
      <trkpt lat="40.5817710" lon="-4.1195470">
        <ele>880.0</ele>
        <time>2021-05-08T08:35:37Z</time>
      </trkpt>
      <trkpt lat="40.5818380" lon="-4.1194400">
        <ele>879.9</ele>
        <time>2021-05-08T08:35:39Z</time>
      </trkpt>
      <trkpt lat="40.5818630" lon="-4.1193640">
        <ele>879.8</ele>
        <time>2021-05-08T08:35:41Z</time>
      </trkpt>
      <trkpt lat="40.5818680" lon="-4.1192840">
        <ele>879.7</ele>
        <time>2021-05-08T08:35:43Z</time>
      </trkpt>
      <trkpt lat="40.5818990" lon="-4.1191340">
        <ele>879.6</ele>
        <time>2021-05-08T08:35:45Z</time>
      </trkpt>
      <trkpt lat="40.5819330" lon="-4.1190690">
        <ele>879.4</ele>
        <time>2021-05-08T08:35:46Z</time>
      </trkpt>
      <trkpt lat="40.5820270" lon="-4.1189580">
        <ele>879.2</ele>
        <time>2021-05-08T08:35:48Z</time>
      </trkpt>
      <trkpt lat="40.5820950" lon="-4.1189240">
        <ele>879.1</ele>
        <time>2021-05-08T08:35:49Z</time>
      </trkpt>
      <trkpt lat="40.5822370" lon="-4.1189190">
        <ele>878.9</ele>
        <time>2021-05-08T08:35:51Z</time>
      </trkpt>
      <trkpt lat="40.5822980" lon="-4.1189270">
        <ele>878.9</ele>
        <time>2021-05-08T08:35:52Z</time>
      </trkpt>
      <trkpt lat="40.5823910" lon="-4.1189880">
        <ele>878.9</ele>
        <time>2021-05-08T08:35:54Z</time>
      </trkpt>
      <trkpt lat="40.5824290" lon="-4.1190340">
        <ele>878.9</ele>
        <time>2021-05-08T08:35:55Z</time>
      </trkpt>
      <trkpt lat="40.5824630" lon="-4.1190900">
        <ele>878.9</ele>
        <time>2021-05-08T08:35:56Z</time>
      </trkpt>
      <trkpt lat="40.5825130" lon="-4.1192250">
        <ele>879.0</ele>
        <time>2021-05-08T08:35:58Z</time>
      </trkpt>
      <trkpt lat="40.5825240" lon="-4.1193030">
        <ele>879.1</ele>
        <time>2021-05-08T08:35:59Z</time>
      </trkpt>
      <trkpt lat="40.5825260" lon="-4.1194440">
        <ele>879.1</ele>
        <time>2021-05-08T08:36:01Z</time>
      </trkpt>
      <trkpt lat="40.5825210" lon="-4.1195110">
        <ele>879.2</ele>
        <time>2021-05-08T08:36:02Z</time>
      </trkpt>
      <trkpt lat="40.5824830" lon="-4.1196310">
        <ele>879.3</ele>
        <time>2021-05-08T08:36:04Z</time>
      </trkpt>
      <trkpt lat="40.5824510" lon="-4.1196850">
        <ele>879.3</ele>
        <time>2021-05-08T08:36:05Z</time>
      </trkpt>
      <trkpt lat="40.5824050" lon="-4.1198100">
        <ele>879.4</ele>
        <time>2021-05-08T08:36:07Z</time>
      </trkpt>
      <trkpt lat="40.5823910" lon="-4.1198770">
        <ele>879.5</ele>
        <time>2021-05-08T08:36:08Z</time>
      </trkpt>
      <trkpt lat="40.5823850" lon="-4.1199460">
        <ele>879.5</ele>
        <time>2021-05-08T08:36:09Z</time>
      </trkpt>
      <trkpt lat="40.5823880" lon="-4.1200820">
        <ele>879.8</ele>
        <time>2021-05-08T08:36:11Z</time>
      </trkpt>
      <trkpt lat="40.5823930" lon="-4.1201540">
        <ele>880.0</ele>
        <time>2021-05-08T08:36:12Z</time>
      </trkpt>
      <trkpt lat="40.5824000" lon="-4.1202200">
        <ele>880.1</ele>
        <time>2021-05-08T08:36:13Z</time>
      </trkpt>
      <trkpt lat="40.5824290" lon="-4.1203520">
        <ele>880.6</ele>
        <time>2021-05-08T08:36:15Z</time>
      </trkpt>
      <trkpt lat="40.5824490" lon="-4.1204200">
        <ele>880.8</ele>
        <time>2021-05-08T08:36:16Z</time>
      </trkpt>
      <trkpt lat="40.5824640" lon="-4.1204670">
        <ele>881.0</ele>
        <time>2021-05-08T08:36:17Z</time>
      </trkpt>
      <trkpt lat="40.5824960" lon="-4.1205680">
        <ele>881.4</ele>
        <time>2021-05-08T08:36:19Z</time>
      </trkpt>
      <trkpt lat="40.5825330" lon="-4.1206590">
        <ele>881.8</ele>
        <time>2021-05-08T08:36:21Z</time>
      </trkpt>
      <trkpt lat="40.5825550" lon="-4.1207110">
        <ele>882.1</ele>
        <time>2021-05-08T08:36:22Z</time>
      </trkpt>
      <trkpt lat="40.5825530" lon="-4.1207990">
        <ele>882.5</ele>
        <time>2021-05-08T08:36:24Z</time>
      </trkpt>
      <trkpt lat="40.5825890" lon="-4.1208530">
        <ele>882.8</ele>
        <time>2021-05-08T08:36:25Z</time>
      </trkpt>
      <trkpt lat="40.5826330" lon="-4.1209200">
        <ele>883.3</ele>
        <time>2021-05-08T08:36:26Z</time>
      </trkpt>
      <trkpt lat="40.5826620" lon="-4.1209740">
        <ele>883.6</ele>
        <time>2021-05-08T08:36:28Z</time>
      </trkpt>
      <trkpt lat="40.5826840" lon="-4.1210130">
        <ele>883.8</ele>
        <time>2021-05-08T08:36:29Z</time>
      </trkpt>
      <trkpt lat="40.5827190" lon="-4.1210470">
        <ele>884.1</ele>
        <time>2021-05-08T08:36:30Z</time>
      </trkpt>
      <trkpt lat="40.5827400" lon="-4.1210870">
        <ele>884.4</ele>
        <time>2021-05-08T08:36:31Z</time>
      </trkpt>
      <trkpt lat="40.5827540" lon="-4.1211330">
        <ele>884.6</ele>
        <time>2021-05-08T08:36:32Z</time>
      </trkpt>
      <trkpt lat="40.5827850" lon="-4.1212110">
        <ele>885.1</ele>
        <time>2021-05-08T08:36:34Z</time>
      </trkpt>
      <trkpt lat="40.5828060" lon="-4.1212580">
        <ele>885.4</ele>
        <time>2021-05-08T08:36:35Z</time>
      </trkpt>
      <trkpt lat="40.5828390" lon="-4.1213440">
        <ele>885.9</ele>
        <time>2021-05-08T08:36:37Z</time>
      </trkpt>
      <trkpt lat="40.5828680" lon="-4.1214160">
        <ele>886.3</ele>
        <time>2021-05-08T08:36:38Z</time>
      </trkpt>
      <trkpt lat="40.5828910" lon="-4.1214680">
        <ele>886.6</ele>
        <time>2021-05-08T08:36:40Z</time>
      </trkpt>
      <trkpt lat="40.5829180" lon="-4.1215250">
        <ele>887.0</ele>
        <time>2021-05-08T08:36:41Z</time>
      </trkpt>
      <trkpt lat="40.5829470" lon="-4.1215910">
        <ele>887.4</ele>
        <time>2021-05-08T08:36:43Z</time>
      </trkpt>
      <trkpt lat="40.5829780" lon="-4.1216570">
        <ele>887.8</ele>
        <time>2021-05-08T08:36:45Z</time>
      </trkpt>
      <trkpt lat="40.5829990" lon="-4.1217010">
        <ele>888.1</ele>
        <time>2021-05-08T08:36:46Z</time>
      </trkpt>
      <trkpt lat="40.5830320" lon="-4.1217780">
        <ele>888.5</ele>
        <time>2021-05-08T08:36:48Z</time>
      </trkpt>
      <trkpt lat="40.5830520" lon="-4.1218260">
        <ele>888.8</ele>
        <time>2021-05-08T08:36:49Z</time>
      </trkpt>
      <trkpt lat="40.5830750" lon="-4.1218730">
        <ele>889.1</ele>
        <time>2021-05-08T08:36:51Z</time>
      </trkpt>
      <trkpt lat="40.5830980" lon="-4.1219180">
        <ele>889.3</ele>
        <time>2021-05-08T08:36:52Z</time>
      </trkpt>
      <trkpt lat="40.5831260" lon="-4.1219770">
        <ele>889.7</ele>
        <time>2021-05-08T08:36:53Z</time>
      </trkpt>
      <trkpt lat="40.5831490" lon="-4.1220230">
        <ele>889.9</ele>
        <time>2021-05-08T08:36:55Z</time>
      </trkpt>
      <trkpt lat="40.5831830" lon="-4.1220940">
        <ele>890.3</ele>
        <time>2021-05-08T08:36:57Z</time>
      </trkpt>
      <trkpt lat="40.5832210" lon="-4.1221620">
        <ele>890.6</ele>
        <time>2021-05-08T08:36:59Z</time>
      </trkpt>
      <trkpt lat="40.5832380" lon="-4.1221930">
        <ele>890.8</ele>
        <time>2021-05-08T08:37:00Z</time>
      </trkpt>
      <trkpt lat="40.5832660" lon="-4.1222300">
        <ele>891.0</ele>
        <time>2021-05-08T08:37:01Z</time>
      </trkpt>
      <trkpt lat="40.5833000" lon="-4.1222750">
        <ele>891.3</ele>
        <time>2021-05-08T08:37:03Z</time>
      </trkpt>
      <trkpt lat="40.5833440" lon="-4.1223120">
        <ele>891.5</ele>
        <time>2021-05-08T08:37:05Z</time>
      </trkpt>
      <trkpt lat="40.5833710" lon="-4.1223350">
        <ele>891.7</ele>
        <time>2021-05-08T08:37:06Z</time>
      </trkpt>
      <trkpt lat="40.5834150" lon="-4.1223780">
        <ele>892.0</ele>
        <time>2021-05-08T08:37:08Z</time>
      </trkpt>
      <trkpt lat="40.5834460" lon="-4.1224120">
        <ele>892.2</ele>
        <time>2021-05-08T08:37:09Z</time>
      </trkpt>
      <trkpt lat="40.5834740" lon="-4.1224410">
        <ele>892.4</ele>
        <time>2021-05-08T08:37:11Z</time>
      </trkpt>
      <trkpt lat="40.5835090" lon="-4.1224790">
        <ele>892.7</ele>
        <time>2021-05-08T08:37:12Z</time>
      </trkpt>
      <trkpt lat="40.5835400" lon="-4.1225100">
        <ele>892.9</ele>
        <time>2021-05-08T08:37:14Z</time>
      </trkpt>
      <trkpt lat="40.5835650" lon="-4.1225310">
        <ele>893.1</ele>
        <time>2021-05-08T08:37:15Z</time>
      </trkpt>
      <trkpt lat="40.5836090" lon="-4.1225750">
        <ele>893.4</ele>
        <time>2021-05-08T08:37:17Z</time>
      </trkpt>
      <trkpt lat="40.5836450" lon="-4.1226050">
        <ele>893.7</ele>
        <time>2021-05-08T08:37:18Z</time>
      </trkpt>
      <trkpt lat="40.5836700" lon="-4.1226310">
        <ele>893.9</ele>
        <time>2021-05-08T08:37:19Z</time>
      </trkpt>
      <trkpt lat="40.5836990" lon="-4.1226650">
        <ele>894.1</ele>
        <time>2021-05-08T08:37:21Z</time>
      </trkpt>
      <trkpt lat="40.5837390" lon="-4.1227100">
        <ele>894.4</ele>
        <time>2021-05-08T08:37:23Z</time>
      </trkpt>
      <trkpt lat="40.5837700" lon="-4.1227480">
        <ele>894.6</ele>
        <time>2021-05-08T08:37:24Z</time>
      </trkpt>
      <trkpt lat="40.5838010" lon="-4.1227880">
        <ele>894.8</ele>
        <time>2021-05-08T08:37:26Z</time>
      </trkpt>
      <trkpt lat="40.5838210" lon="-4.1228150">
        <ele>895.0</ele>
        <time>2021-05-08T08:37:27Z</time>
      </trkpt>
      <trkpt lat="40.5838460" lon="-4.1228490">
        <ele>895.2</ele>
        <time>2021-05-08T08:37:28Z</time>
      </trkpt>
      <trkpt lat="40.5838700" lon="-4.1228820">
        <ele>895.4</ele>
        <time>2021-05-08T08:37:29Z</time>
      </trkpt>
      <trkpt lat="40.5838970" lon="-4.1229210">
        <ele>895.6</ele>
        <time>2021-05-08T08:37:30Z</time>
      </trkpt>
      <trkpt lat="40.5839200" lon="-4.1229640">
        <ele>895.8</ele>
        <time>2021-05-08T08:37:32Z</time>
      </trkpt>
      <trkpt lat="40.5839470" lon="-4.1230170">
        <ele>896.0</ele>
        <time>2021-05-08T08:37:33Z</time>
      </trkpt>
      <trkpt lat="40.5839740" lon="-4.1230710">
        <ele>896.2</ele>
        <time>2021-05-08T08:37:35Z</time>
      </trkpt>
      <trkpt lat="40.5839970" lon="-4.1231210">
        <ele>896.4</ele>
        <time>2021-05-08T08:37:36Z</time>
      </trkpt>
      <trkpt lat="40.5840320" lon="-4.1232040">
        <ele>896.7</ele>
        <time>2021-05-08T08:37:38Z</time>
      </trkpt>
      <trkpt lat="40.5840530" lon="-4.1232540">
        <ele>896.9</ele>
        <time>2021-05-08T08:37:39Z</time>
      </trkpt>
      <trkpt lat="40.5840790" lon="-4.1233200">
        <ele>897.1</ele>
        <time>2021-05-08T08:37:41Z</time>
      </trkpt>
      <trkpt lat="40.5840930" lon="-4.1233610">
        <ele>897.3</ele>
        <time>2021-05-08T08:37:42Z</time>
      </trkpt>
      <trkpt lat="40.5841220" lon="-4.1234450">
        <ele>897.5</ele>
        <time>2021-05-08T08:37:44Z</time>
      </trkpt>
      <trkpt lat="40.5841410" lon="-4.1234950">
        <ele>897.7</ele>
        <time>2021-05-08T08:37:45Z</time>
      </trkpt>
      <trkpt lat="40.5841620" lon="-4.1235470">
        <ele>897.9</ele>
        <time>2021-05-08T08:37:46Z</time>
      </trkpt>
      <trkpt lat="40.5841840" lon="-4.1236050">
        <ele>898.2</ele>
        <time>2021-05-08T08:37:48Z</time>
      </trkpt>
      <trkpt lat="40.5842000" lon="-4.1236460">
        <ele>898.3</ele>
        <time>2021-05-08T08:37:49Z</time>
      </trkpt>
      <trkpt lat="40.5842150" lon="-4.1236870">
        <ele>898.5</ele>
        <time>2021-05-08T08:37:50Z</time>
      </trkpt>
      <trkpt lat="40.5842300" lon="-4.1237300">
        <ele>898.7</ele>
        <time>2021-05-08T08:37:51Z</time>
      </trkpt>
      <trkpt lat="40.5842580" lon="-4.1238020">
        <ele>898.9</ele>
        <time>2021-05-08T08:37:53Z</time>
      </trkpt>
      <trkpt lat="40.5842750" lon="-4.1238430">
        <ele>899.1</ele>
        <time>2021-05-08T08:37:54Z</time>
      </trkpt>
      <trkpt lat="40.5842930" lon="-4.1238840">
        <ele>899.3</ele>
        <time>2021-05-08T08:37:55Z</time>
      </trkpt>
      <trkpt lat="40.5843040" lon="-4.1239450">
        <ele>899.5</ele>
        <time>2021-05-08T08:37:56Z</time>
      </trkpt>
      <trkpt lat="40.5843300" lon="-4.1240010">
        <ele>899.7</ele>
        <time>2021-05-08T08:37:58Z</time>
      </trkpt>
      <trkpt lat="40.5843620" lon="-4.1240750">
        <ele>900.0</ele>
        <time>2021-05-08T08:38:00Z</time>
      </trkpt>
      <trkpt lat="40.5843780" lon="-4.1241190">
        <ele>900.2</ele>
        <time>2021-05-08T08:38:01Z</time>
      </trkpt>
      <trkpt lat="40.5843940" lon="-4.1241620">
        <ele>900.4</ele>
        <time>2021-05-08T08:38:02Z</time>
      </trkpt>
      <trkpt lat="40.5844130" lon="-4.1242220">
        <ele>900.6</ele>
        <time>2021-05-08T08:38:03Z</time>
      </trkpt>
      <trkpt lat="40.5844300" lon="-4.1242680">
        <ele>900.8</ele>
        <time>2021-05-08T08:38:04Z</time>
      </trkpt>
      <trkpt lat="40.5844490" lon="-4.1243170">
        <ele>901.0</ele>
        <time>2021-05-08T08:38:05Z</time>
      </trkpt>
      <trkpt lat="40.5844680" lon="-4.1243700">
        <ele>901.2</ele>
        <time>2021-05-08T08:38:07Z</time>
      </trkpt>
      <trkpt lat="40.5844810" lon="-4.1244140">
        <ele>901.4</ele>
        <time>2021-05-08T08:38:08Z</time>
      </trkpt>
      <trkpt lat="40.5844940" lon="-4.1244580">
        <ele>901.6</ele>
        <time>2021-05-08T08:38:09Z</time>
      </trkpt>
      <trkpt lat="40.5845070" lon="-4.1245020">
        <ele>901.7</ele>
        <time>2021-05-08T08:38:10Z</time>
      </trkpt>
      <trkpt lat="40.5845290" lon="-4.1245890">
        <ele>902.1</ele>
        <time>2021-05-08T08:38:12Z</time>
      </trkpt>
      <trkpt lat="40.5845390" lon="-4.1246350">
        <ele>902.2</ele>
        <time>2021-05-08T08:38:13Z</time>
      </trkpt>
      <trkpt lat="40.5845540" lon="-4.1247150">
        <ele>902.5</ele>
        <time>2021-05-08T08:38:15Z</time>
      </trkpt>
      <trkpt lat="40.5845520" lon="-4.1247740">
        <ele>902.7</ele>
        <time>2021-05-08T08:38:16Z</time>
      </trkpt>
      <trkpt lat="40.5845680" lon="-4.1248380">
        <ele>902.9</ele>
        <time>2021-05-08T08:38:18Z</time>
      </trkpt>
      <trkpt lat="40.5845770" lon="-4.1248850">
        <ele>903.0</ele>
        <time>2021-05-08T08:38:19Z</time>
      </trkpt>
      <trkpt lat="40.5845840" lon="-4.1249250">
        <ele>903.2</ele>
        <time>2021-05-08T08:38:20Z</time>
      </trkpt>
      <trkpt lat="40.5845910" lon="-4.1249650">
        <ele>903.3</ele>
        <time>2021-05-08T08:38:21Z</time>
      </trkpt>
      <trkpt lat="40.5846040" lon="-4.1250330">
        <ele>903.5</ele>
        <time>2021-05-08T08:38:22Z</time>
      </trkpt>
      <trkpt lat="40.5846170" lon="-4.1250940">
        <ele>903.7</ele>
        <time>2021-05-08T08:38:24Z</time>
      </trkpt>
      <trkpt lat="40.5846250" lon="-4.1251380">
        <ele>903.8</ele>
        <time>2021-05-08T08:38:25Z</time>
      </trkpt>
      <trkpt lat="40.5846330" lon="-4.1251830">
        <ele>904.0</ele>
        <time>2021-05-08T08:38:26Z</time>
      </trkpt>
      <trkpt lat="40.5846460" lon="-4.1252410">
        <ele>904.2</ele>
        <time>2021-05-08T08:38:27Z</time>
      </trkpt>
      <trkpt lat="40.5846580" lon="-4.1252860">
        <ele>904.3</ele>
        <time>2021-05-08T08:38:28Z</time>
      </trkpt>
      <trkpt lat="40.5846740" lon="-4.1253480">
        <ele>904.5</ele>
        <time>2021-05-08T08:38:30Z</time>
      </trkpt>
      <trkpt lat="40.5846820" lon="-4.1253950">
        <ele>904.6</ele>
        <time>2021-05-08T08:38:31Z</time>
      </trkpt>
      <trkpt lat="40.5846950" lon="-4.1254530">
        <ele>904.7</ele>
        <time>2021-05-08T08:38:32Z</time>
      </trkpt>
      <trkpt lat="40.5847100" lon="-4.1255120">
        <ele>904.9</ele>
        <time>2021-05-08T08:38:34Z</time>
      </trkpt>
      <trkpt lat="40.5847230" lon="-4.1255530">
        <ele>904.9</ele>
        <time>2021-05-08T08:38:35Z</time>
      </trkpt>
      <trkpt lat="40.5847390" lon="-4.1255930">
        <ele>904.9</ele>
        <time>2021-05-08T08:38:36Z</time>
      </trkpt>
      <trkpt lat="40.5847620" lon="-4.1256470">
        <ele>905.0</ele>
        <time>2021-05-08T08:38:37Z</time>
      </trkpt>
      <trkpt lat="40.5847900" lon="-4.1257050">
        <ele>905.1</ele>
        <time>2021-05-08T08:38:39Z</time>
      </trkpt>
      <trkpt lat="40.5848130" lon="-4.1257440">
        <ele>905.1</ele>
        <time>2021-05-08T08:38:40Z</time>
      </trkpt>
      <trkpt lat="40.5848590" lon="-4.1258270">
        <ele>905.2</ele>
        <time>2021-05-08T08:38:42Z</time>
      </trkpt>
      <trkpt lat="40.5848970" lon="-4.1258840">
        <ele>905.3</ele>
        <time>2021-05-08T08:38:43Z</time>
      </trkpt>
      <trkpt lat="40.5849320" lon="-4.1259370">
        <ele>905.3</ele>
        <time>2021-05-08T08:38:45Z</time>
      </trkpt>
      <trkpt lat="40.5849960" lon="-4.1260010">
        <ele>905.3</ele>
        <time>2021-05-08T08:38:47Z</time>
      </trkpt>
      <trkpt lat="40.5850360" lon="-4.1260360">
        <ele>905.3</ele>
        <time>2021-05-08T08:38:48Z</time>
      </trkpt>
      <trkpt lat="40.5850770" lon="-4.1260650">
        <ele>905.4</ele>
        <time>2021-05-08T08:38:50Z</time>
      </trkpt>
      <trkpt lat="40.5851160" lon="-4.1260940">
        <ele>905.4</ele>
        <time>2021-05-08T08:38:51Z</time>
      </trkpt>
      <trkpt lat="40.5851620" lon="-4.1261320">
        <ele>905.4</ele>
        <time>2021-05-08T08:38:52Z</time>
      </trkpt>
      <trkpt lat="40.5852260" lon="-4.1261840">
        <ele>905.4</ele>
        <time>2021-05-08T08:38:54Z</time>
      </trkpt>
      <trkpt lat="40.5852780" lon="-4.1262260">
        <ele>905.4</ele>
        <time>2021-05-08T08:38:55Z</time>
      </trkpt>
      <trkpt lat="40.5853340" lon="-4.1262840">
        <ele>905.4</ele>
        <time>2021-05-08T08:38:57Z</time>
      </trkpt>
      <trkpt lat="40.5853580" lon="-4.1263140">
        <ele>905.4</ele>
        <time>2021-05-08T08:38:58Z</time>
      </trkpt>
      <trkpt lat="40.5853990" lon="-4.1263430">
        <ele>905.4</ele>
        <time>2021-05-08T08:38:59Z</time>
      </trkpt>
      <trkpt lat="40.5854530" lon="-4.1263690">
        <ele>905.4</ele>
        <time>2021-05-08T08:39:00Z</time>
      </trkpt>
      <trkpt lat="40.5855020" lon="-4.1263940">
        <ele>905.4</ele>
        <time>2021-05-08T08:39:01Z</time>
      </trkpt>
      <trkpt lat="40.5855870" lon="-4.1264550">
        <ele>905.4</ele>
        <time>2021-05-08T08:39:03Z</time>
      </trkpt>
      <trkpt lat="40.5856280" lon="-4.1264910">
        <ele>905.4</ele>
        <time>2021-05-08T08:39:04Z</time>
      </trkpt>
      <trkpt lat="40.5857080" lon="-4.1265690">
        <ele>905.4</ele>
        <time>2021-05-08T08:39:06Z</time>
      </trkpt>
      <trkpt lat="40.5857510" lon="-4.1266050">
        <ele>905.4</ele>
        <time>2021-05-08T08:39:07Z</time>
      </trkpt>
      <trkpt lat="40.5858370" lon="-4.1266760">
        <ele>905.4</ele>
        <time>2021-05-08T08:39:09Z</time>
      </trkpt>
      <trkpt lat="40.5858790" lon="-4.1267160">
        <ele>905.4</ele>
        <time>2021-05-08T08:39:10Z</time>
      </trkpt>
      <trkpt lat="40.5859620" lon="-4.1267900">
        <ele>905.4</ele>
        <time>2021-05-08T08:39:12Z</time>
      </trkpt>
      <trkpt lat="40.5860470" lon="-4.1268690">
        <ele>905.4</ele>
        <time>2021-05-08T08:39:14Z</time>
      </trkpt>
      <trkpt lat="40.5861330" lon="-4.1269460">
        <ele>905.5</ele>
        <time>2021-05-08T08:39:16Z</time>
      </trkpt>
      <trkpt lat="40.5862080" lon="-4.1270310">
        <ele>905.5</ele>
        <time>2021-05-08T08:39:18Z</time>
      </trkpt>
      <trkpt lat="40.5862490" lon="-4.1270760">
        <ele>905.5</ele>
        <time>2021-05-08T08:39:19Z</time>
      </trkpt>
      <trkpt lat="40.5862920" lon="-4.1271200">
        <ele>905.5</ele>
        <time>2021-05-08T08:39:20Z</time>
      </trkpt>
      <trkpt lat="40.5863320" lon="-4.1271620">
        <ele>905.5</ele>
        <time>2021-05-08T08:39:21Z</time>
      </trkpt>
      <trkpt lat="40.5863660" lon="-4.1272050">
        <ele>905.5</ele>
        <time>2021-05-08T08:39:22Z</time>
      </trkpt>
      <trkpt lat="40.5864370" lon="-4.1273130">
        <ele>905.5</ele>
        <time>2021-05-08T08:39:24Z</time>
      </trkpt>
      <trkpt lat="40.5865010" lon="-4.1274320">
        <ele>905.6</ele>
        <time>2021-05-08T08:39:26Z</time>
      </trkpt>
      <trkpt lat="40.5865340" lon="-4.1274940">
        <ele>905.6</ele>
        <time>2021-05-08T08:39:27Z</time>
      </trkpt>
      <trkpt lat="40.5865700" lon="-4.1275560">
        <ele>905.6</ele>
        <time>2021-05-08T08:39:28Z</time>
      </trkpt>
      <trkpt lat="40.5866040" lon="-4.1276200">
        <ele>905.7</ele>
        <time>2021-05-08T08:39:29Z</time>
      </trkpt>
      <trkpt lat="40.5866700" lon="-4.1277440">
        <ele>905.7</ele>
        <time>2021-05-08T08:39:31Z</time>
      </trkpt>
      <trkpt lat="40.5866980" lon="-4.1278040">
        <ele>905.8</ele>
        <time>2021-05-08T08:39:32Z</time>
      </trkpt>
      <trkpt lat="40.5867480" lon="-4.1279290">
        <ele>905.8</ele>
        <time>2021-05-08T08:39:34Z</time>
      </trkpt>
      <trkpt lat="40.5867740" lon="-4.1279910">
        <ele>905.9</ele>
        <time>2021-05-08T08:39:35Z</time>
      </trkpt>
      <trkpt lat="40.5868240" lon="-4.1281090">
        <ele>906.0</ele>
        <time>2021-05-08T08:39:37Z</time>
      </trkpt>
      <trkpt lat="40.5868730" lon="-4.1282240">
        <ele>906.1</ele>
        <time>2021-05-08T08:39:39Z</time>
      </trkpt>
      <trkpt lat="40.5869370" lon="-4.1283370">
        <ele>906.3</ele>
        <time>2021-05-08T08:39:41Z</time>
      </trkpt>
      <trkpt lat="40.5869690" lon="-4.1283840">
        <ele>906.3</ele>
        <time>2021-05-08T08:39:42Z</time>
      </trkpt>
      <trkpt lat="40.5870130" lon="-4.1284460">
        <ele>906.4</ele>
        <time>2021-05-08T08:39:44Z</time>
      </trkpt>
      <trkpt lat="40.5870710" lon="-4.1285020">
        <ele>906.4</ele>
        <time>2021-05-08T08:39:46Z</time>
      </trkpt>
      <trkpt lat="40.5871340" lon="-4.1285520">
        <ele>906.5</ele>
        <time>2021-05-08T08:39:48Z</time>
      </trkpt>
      <trkpt lat="40.5871290" lon="-4.1285510">
        <ele>906.5</ele>
        <time>2021-05-08T08:39:49Z</time>
      </trkpt>
      <trkpt lat="40.5871560" lon="-4.1285770">
        <ele>906.6</ele>
        <time>2021-05-08T08:39:51Z</time>
      </trkpt>
      <trkpt lat="40.5871650" lon="-4.1285720">
        <ele>906.6</ele>
        <time>2021-05-08T08:39:53Z</time>
      </trkpt>
      <trkpt lat="40.5871640" lon="-4.1285710">
        <ele>906.6</ele>
        <time>2021-05-08T08:39:54Z</time>
      </trkpt>
      <trkpt lat="40.5871650" lon="-4.1285710">
        <ele>906.6</ele>
        <time>2021-05-08T08:39:55Z</time>
      </trkpt>
      <trkpt lat="40.5871650" lon="-4.1285700">
        <ele>906.6</ele>
        <time>2021-05-08T08:39:57Z</time>
      </trkpt>
      <trkpt lat="40.5871640" lon="-4.1285700">
        <ele>906.6</ele>
        <time>2021-05-08T08:39:59Z</time>
      </trkpt>
      <trkpt lat="40.5871640" lon="-4.1285690">
        <ele>906.6</ele>
        <time>2021-05-08T08:40:00Z</time>
      </trkpt>
      <trkpt lat="40.5871660" lon="-4.1285680">
        <ele>906.6</ele>
        <time>2021-05-08T08:40:01Z</time>
      </trkpt>
      <trkpt lat="40.5871980" lon="-4.1285870">
        <ele>906.6</ele>
        <time>2021-05-08T08:40:04Z</time>
      </trkpt>
      <trkpt lat="40.5872290" lon="-4.1286190">
        <ele>906.7</ele>
        <time>2021-05-08T08:40:05Z</time>
      </trkpt>
      <trkpt lat="40.5872690" lon="-4.1286680">
        <ele>906.7</ele>
        <time>2021-05-08T08:40:07Z</time>
      </trkpt>
      <trkpt lat="40.5873130" lon="-4.1287130">
        <ele>906.8</ele>
        <time>2021-05-08T08:40:08Z</time>
      </trkpt>
      <trkpt lat="40.5873530" lon="-4.1287640">
        <ele>906.9</ele>
        <time>2021-05-08T08:40:10Z</time>
      </trkpt>
      <trkpt lat="40.5873800" lon="-4.1287970">
        <ele>907.0</ele>
        <time>2021-05-08T08:40:11Z</time>
      </trkpt>
      <trkpt lat="40.5874360" lon="-4.1288580">
        <ele>907.1</ele>
        <time>2021-05-08T08:40:13Z</time>
      </trkpt>
      <trkpt lat="40.5874650" lon="-4.1288910">
        <ele>907.2</ele>
        <time>2021-05-08T08:40:14Z</time>
      </trkpt>
      <trkpt lat="40.5875080" lon="-4.1289430">
        <ele>907.3</ele>
        <time>2021-05-08T08:40:15Z</time>
      </trkpt>
      <trkpt lat="40.5875450" lon="-4.1289850">
        <ele>907.4</ele>
        <time>2021-05-08T08:40:17Z</time>
      </trkpt>
      <trkpt lat="40.5875840" lon="-4.1290240">
        <ele>907.6</ele>
        <time>2021-05-08T08:40:18Z</time>
      </trkpt>
      <trkpt lat="40.5876160" lon="-4.1290570">
        <ele>907.6</ele>
        <time>2021-05-08T08:40:19Z</time>
      </trkpt>
      <trkpt lat="40.5876680" lon="-4.1291080">
        <ele>907.8</ele>
        <time>2021-05-08T08:40:20Z</time>
      </trkpt>
      <trkpt lat="40.5877080" lon="-4.1291440">
        <ele>907.9</ele>
        <time>2021-05-08T08:40:22Z</time>
      </trkpt>
      <trkpt lat="40.5877550" lon="-4.1291860">
        <ele>908.0</ele>
        <time>2021-05-08T08:40:23Z</time>
      </trkpt>
      <trkpt lat="40.5877890" lon="-4.1292130">
        <ele>908.1</ele>
        <time>2021-05-08T08:40:24Z</time>
      </trkpt>
      <trkpt lat="40.5878230" lon="-4.1292330">
        <ele>908.1</ele>
        <time>2021-05-08T08:40:25Z</time>
      </trkpt>
      <trkpt lat="40.5879070" lon="-4.1292670">
        <ele>908.2</ele>
        <time>2021-05-08T08:40:27Z</time>
      </trkpt>
      <trkpt lat="40.5879480" lon="-4.1292810">
        <ele>908.3</ele>
        <time>2021-05-08T08:40:28Z</time>
      </trkpt>
      <trkpt lat="40.5880290" lon="-4.1293050">
        <ele>908.4</ele>
        <time>2021-05-08T08:40:30Z</time>
      </trkpt>
      <trkpt lat="40.5880690" lon="-4.1293140">
        <ele>908.5</ele>
        <time>2021-05-08T08:40:31Z</time>
      </trkpt>
      <trkpt lat="40.5881540" lon="-4.1293220">
        <ele>908.6</ele>
        <time>2021-05-08T08:40:33Z</time>
      </trkpt>
      <trkpt lat="40.5882540" lon="-4.1293320">
        <ele>908.8</ele>
        <time>2021-05-08T08:40:35Z</time>
      </trkpt>
      <trkpt lat="40.5882880" lon="-4.1293380">
        <ele>908.8</ele>
        <time>2021-05-08T08:40:36Z</time>
      </trkpt>
      <trkpt lat="40.5883730" lon="-4.1293470">
        <ele>909.0</ele>
        <time>2021-05-08T08:40:38Z</time>
      </trkpt>
      <trkpt lat="40.5884730" lon="-4.1293540">
        <ele>909.1</ele>
        <time>2021-05-08T08:40:40Z</time>
      </trkpt>
      <trkpt lat="40.5885190" lon="-4.1293570">
        <ele>909.2</ele>
        <time>2021-05-08T08:40:41Z</time>
      </trkpt>
      <trkpt lat="40.5886010" lon="-4.1293600">
        <ele>909.3</ele>
        <time>2021-05-08T08:40:43Z</time>
      </trkpt>
      <trkpt lat="40.5886440" lon="-4.1293620">
        <ele>909.4</ele>
        <time>2021-05-08T08:40:44Z</time>
      </trkpt>
      <trkpt lat="40.5886880" lon="-4.1293640">
        <ele>909.5</ele>
        <time>2021-05-08T08:40:45Z</time>
      </trkpt>
      <trkpt lat="40.5887590" lon="-4.1293620">
        <ele>909.5</ele>
        <time>2021-05-08T08:40:47Z</time>
      </trkpt>
      <trkpt lat="40.5888490" lon="-4.1293600">
        <ele>909.6</ele>
        <time>2021-05-08T08:40:49Z</time>
      </trkpt>
      <trkpt lat="40.5889240" lon="-4.1293610">
        <ele>909.6</ele>
        <time>2021-05-08T08:40:51Z</time>
      </trkpt>
      <trkpt lat="40.5890110" lon="-4.1293620">
        <ele>909.7</ele>
        <time>2021-05-08T08:40:53Z</time>
      </trkpt>
      <trkpt lat="40.5890560" lon="-4.1293700">
        <ele>909.7</ele>
        <time>2021-05-08T08:40:54Z</time>
      </trkpt>
      <trkpt lat="40.5891190" lon="-4.1293840">
        <ele>909.8</ele>
        <time>2021-05-08T08:40:55Z</time>
      </trkpt>
      <trkpt lat="40.5892300" lon="-4.1293950">
        <ele>909.9</ele>
        <time>2021-05-08T08:40:57Z</time>
      </trkpt>
      <trkpt lat="40.5892840" lon="-4.1294000">
        <ele>910.0</ele>
        <time>2021-05-08T08:40:58Z</time>
      </trkpt>
      <trkpt lat="40.5893830" lon="-4.1294070">
        <ele>910.2</ele>
        <time>2021-05-08T08:41:00Z</time>
      </trkpt>
      <trkpt lat="40.5894320" lon="-4.1294060">
        <ele>910.3</ele>
        <time>2021-05-08T08:41:01Z</time>
      </trkpt>
      <trkpt lat="40.5894800" lon="-4.1294010">
        <ele>910.4</ele>
        <time>2021-05-08T08:41:02Z</time>
      </trkpt>
      <trkpt lat="40.5895670" lon="-4.1293910">
        <ele>910.6</ele>
        <time>2021-05-08T08:41:04Z</time>
      </trkpt>
      <trkpt lat="40.5896490" lon="-4.1293750">
        <ele>910.8</ele>
        <time>2021-05-08T08:41:06Z</time>
      </trkpt>
      <trkpt lat="40.5897090" lon="-4.1293590">
        <ele>910.9</ele>
        <time>2021-05-08T08:41:08Z</time>
      </trkpt>
      <trkpt lat="40.5897560" lon="-4.1293520">
        <ele>911.1</ele>
        <time>2021-05-08T08:41:09Z</time>
      </trkpt>
      <trkpt lat="40.5898370" lon="-4.1293370">
        <ele>912.0</ele>
        <time>2021-05-08T08:41:11Z</time>
      </trkpt>
      <trkpt lat="40.5898770" lon="-4.1293400">
        <ele>912.4</ele>
        <time>2021-05-08T08:41:12Z</time>
      </trkpt>
      <trkpt lat="40.5899530" lon="-4.1293820">
        <ele>913.1</ele>
        <time>2021-05-08T08:41:14Z</time>
      </trkpt>
      <trkpt lat="40.5899750" lon="-4.1294230">
        <ele>913.2</ele>
        <time>2021-05-08T08:41:15Z</time>
      </trkpt>
      <trkpt lat="40.5900130" lon="-4.1294920">
        <ele>913.3</ele>
        <time>2021-05-08T08:41:17Z</time>
      </trkpt>
      <trkpt lat="40.5900340" lon="-4.1295820">
        <ele>913.5</ele>
        <time>2021-05-08T08:41:19Z</time>
      </trkpt>
      <trkpt lat="40.5900290" lon="-4.1296900">
        <ele>913.8</ele>
        <time>2021-05-08T08:41:21Z</time>
      </trkpt>
      <trkpt lat="40.5900230" lon="-4.1297820">
        <ele>914.0</ele>
        <time>2021-05-08T08:41:23Z</time>
      </trkpt>
      <trkpt lat="40.5900290" lon="-4.1298390">
        <ele>914.2</ele>
        <time>2021-05-08T08:41:24Z</time>
      </trkpt>
      <trkpt lat="40.5900610" lon="-4.1299550">
        <ele>914.5</ele>
        <time>2021-05-08T08:41:26Z</time>
      </trkpt>
      <trkpt lat="40.5900780" lon="-4.1300130">
        <ele>914.7</ele>
        <time>2021-05-08T08:41:27Z</time>
      </trkpt>
      <trkpt lat="40.5900950" lon="-4.1300630">
        <ele>914.8</ele>
        <time>2021-05-08T08:41:28Z</time>
      </trkpt>
      <trkpt lat="40.5901200" lon="-4.1301520">
        <ele>915.0</ele>
        <time>2021-05-08T08:41:30Z</time>
      </trkpt>
      <trkpt lat="40.5901480" lon="-4.1302400">
        <ele>915.3</ele>
        <time>2021-05-08T08:41:32Z</time>
      </trkpt>
      <trkpt lat="40.5901710" lon="-4.1303300">
        <ele>915.5</ele>
        <time>2021-05-08T08:41:34Z</time>
      </trkpt>
      <trkpt lat="40.5901920" lon="-4.1303890">
        <ele>915.7</ele>
        <time>2021-05-08T08:41:35Z</time>
      </trkpt>
      <trkpt lat="40.5902160" lon="-4.1304630">
        <ele>915.9</ele>
        <time>2021-05-08T08:41:37Z</time>
      </trkpt>
      <trkpt lat="40.5902310" lon="-4.1305170">
        <ele>916.0</ele>
        <time>2021-05-08T08:41:38Z</time>
      </trkpt>
      <trkpt lat="40.5902430" lon="-4.1305580">
        <ele>916.2</ele>
        <time>2021-05-08T08:41:39Z</time>
      </trkpt>
      <trkpt lat="40.5902680" lon="-4.1306370">
        <ele>916.4</ele>
        <time>2021-05-08T08:41:41Z</time>
      </trkpt>
      <trkpt lat="40.5902850" lon="-4.1306940">
        <ele>916.5</ele>
        <time>2021-05-08T08:41:42Z</time>
      </trkpt>
      <trkpt lat="40.5903080" lon="-4.1307710">
        <ele>916.8</ele>
        <time>2021-05-08T08:41:44Z</time>
      </trkpt>
      <trkpt lat="40.5903320" lon="-4.1308320">
        <ele>916.9</ele>
        <time>2021-05-08T08:41:45Z</time>
      </trkpt>
      <trkpt lat="40.5903680" lon="-4.1308870">
        <ele>917.2</ele>
        <time>2021-05-08T08:41:47Z</time>
      </trkpt>
      <trkpt lat="40.5903950" lon="-4.1309250">
        <ele>917.3</ele>
        <time>2021-05-08T08:41:48Z</time>
      </trkpt>
      <trkpt lat="40.5904180" lon="-4.1309630">
        <ele>917.5</ele>
        <time>2021-05-08T08:41:49Z</time>
      </trkpt>
      <trkpt lat="40.5904310" lon="-4.1310200">
        <ele>917.7</ele>
        <time>2021-05-08T08:41:50Z</time>
      </trkpt>
      <trkpt lat="40.5904520" lon="-4.1311000">
        <ele>918.1</ele>
        <time>2021-05-08T08:41:52Z</time>
      </trkpt>
      <trkpt lat="40.5904700" lon="-4.1311510">
        <ele>918.3</ele>
        <time>2021-05-08T08:41:53Z</time>
      </trkpt>
      <trkpt lat="40.5904870" lon="-4.1311960">
        <ele>918.5</ele>
        <time>2021-05-08T08:41:54Z</time>
      </trkpt>
      <trkpt lat="40.5905140" lon="-4.1312760">
        <ele>919.0</ele>
        <time>2021-05-08T08:41:56Z</time>
      </trkpt>
      <trkpt lat="40.5905290" lon="-4.1313230">
        <ele>919.2</ele>
        <time>2021-05-08T08:41:57Z</time>
      </trkpt>
      <trkpt lat="40.5905480" lon="-4.1313810">
        <ele>919.6</ele>
        <time>2021-05-08T08:41:58Z</time>
      </trkpt>
      <trkpt lat="40.5905690" lon="-4.1314410">
        <ele>919.9</ele>
        <time>2021-05-08T08:42:00Z</time>
      </trkpt>
      <trkpt lat="40.5905910" lon="-4.1315040">
        <ele>920.3</ele>
        <time>2021-05-08T08:42:01Z</time>
      </trkpt>
      <trkpt lat="40.5906020" lon="-4.1315600">
        <ele>920.6</ele>
        <time>2021-05-08T08:42:03Z</time>
      </trkpt>
      <trkpt lat="40.5906110" lon="-4.1316010">
        <ele>920.9</ele>
        <time>2021-05-08T08:42:04Z</time>
      </trkpt>
      <trkpt lat="40.5906220" lon="-4.1316390">
        <ele>921.1</ele>
        <time>2021-05-08T08:42:05Z</time>
      </trkpt>
      <trkpt lat="40.5906390" lon="-4.1317010">
        <ele>921.5</ele>
        <time>2021-05-08T08:42:07Z</time>
      </trkpt>
      <trkpt lat="40.5906500" lon="-4.1317360">
        <ele>921.7</ele>
        <time>2021-05-08T08:42:08Z</time>
      </trkpt>
      <trkpt lat="40.5906600" lon="-4.1317740">
        <ele>922.0</ele>
        <time>2021-05-08T08:42:09Z</time>
      </trkpt>
      <trkpt lat="40.5906760" lon="-4.1318360">
        <ele>922.4</ele>
        <time>2021-05-08T08:42:11Z</time>
      </trkpt>
      <trkpt lat="40.5906890" lon="-4.1318890">
        <ele>922.7</ele>
        <time>2021-05-08T08:42:12Z</time>
      </trkpt>
      <trkpt lat="40.5907030" lon="-4.1319420">
        <ele>923.1</ele>
        <time>2021-05-08T08:42:14Z</time>
      </trkpt>
      <trkpt lat="40.5907170" lon="-4.1319950">
        <ele>923.4</ele>
        <time>2021-05-08T08:42:15Z</time>
      </trkpt>
      <trkpt lat="40.5907320" lon="-4.1320450">
        <ele>923.8</ele>
        <time>2021-05-08T08:42:17Z</time>
      </trkpt>
      <trkpt lat="40.5907500" lon="-4.1320980">
        <ele>924.1</ele>
        <time>2021-05-08T08:42:19Z</time>
      </trkpt>
      <trkpt lat="40.5907610" lon="-4.1321360">
        <ele>924.4</ele>
        <time>2021-05-08T08:42:20Z</time>
      </trkpt>
      <trkpt lat="40.5907710" lon="-4.1321690">
        <ele>924.6</ele>
        <time>2021-05-08T08:42:21Z</time>
      </trkpt>
      <trkpt lat="40.5907840" lon="-4.1322360">
        <ele>925.0</ele>
        <time>2021-05-08T08:42:23Z</time>
      </trkpt>
      <trkpt lat="40.5908040" lon="-4.1322930">
        <ele>925.4</ele>
        <time>2021-05-08T08:42:25Z</time>
      </trkpt>
      <trkpt lat="40.5908160" lon="-4.1323270">
        <ele>925.7</ele>
        <time>2021-05-08T08:42:26Z</time>
      </trkpt>
      <trkpt lat="40.5908300" lon="-4.1323910">
        <ele>926.1</ele>
        <time>2021-05-08T08:42:28Z</time>
      </trkpt>
      <trkpt lat="40.5908480" lon="-4.1324440">
        <ele>926.5</ele>
        <time>2021-05-08T08:42:30Z</time>
      </trkpt>
      <trkpt lat="40.5908620" lon="-4.1324800">
        <ele>926.8</ele>
        <time>2021-05-08T08:42:31Z</time>
      </trkpt>
      <trkpt lat="40.5908790" lon="-4.1325380">
        <ele>927.2</ele>
        <time>2021-05-08T08:42:33Z</time>
      </trkpt>
      <trkpt lat="40.5908910" lon="-4.1325790">
        <ele>927.5</ele>
        <time>2021-05-08T08:42:34Z</time>
      </trkpt>
      <trkpt lat="40.5908930" lon="-4.1325940">
        <ele>927.6</ele>
        <time>2021-05-08T08:42:35Z</time>
      </trkpt>
      <trkpt lat="40.5909110" lon="-4.1326470">
        <ele>928.0</ele>
        <time>2021-05-08T08:42:37Z</time>
      </trkpt>
      <trkpt lat="40.5909210" lon="-4.1326810">
        <ele>928.2</ele>
        <time>2021-05-08T08:42:38Z</time>
      </trkpt>
      <trkpt lat="40.5909340" lon="-4.1327280">
        <ele>928.5</ele>
        <time>2021-05-08T08:42:39Z</time>
      </trkpt>
      <trkpt lat="40.5909390" lon="-4.1327430">
        <ele>928.6</ele>
        <time>2021-05-08T08:42:40Z</time>
      </trkpt>
      <trkpt lat="40.5909540" lon="-4.1327830">
        <ele>928.9</ele>
        <time>2021-05-08T08:42:41Z</time>
      </trkpt>
      <trkpt lat="40.5909670" lon="-4.1328280">
        <ele>929.2</ele>
        <time>2021-05-08T08:42:43Z</time>
      </trkpt>
      <trkpt lat="40.5909770" lon="-4.1328730">
        <ele>929.5</ele>
        <time>2021-05-08T08:42:44Z</time>
      </trkpt>
      <trkpt lat="40.5909900" lon="-4.1329160">
        <ele>929.8</ele>
        <time>2021-05-08T08:42:46Z</time>
      </trkpt>
      <trkpt lat="40.5910010" lon="-4.1329460">
        <ele>930.0</ele>
        <time>2021-05-08T08:42:47Z</time>
      </trkpt>
      <trkpt lat="40.5910170" lon="-4.1330000">
        <ele>930.3</ele>
        <time>2021-05-08T08:42:49Z</time>
      </trkpt>
      <trkpt lat="40.5910310" lon="-4.1330460">
        <ele>930.7</ele>
        <time>2021-05-08T08:42:50Z</time>
      </trkpt>
      <trkpt lat="40.5910350" lon="-4.1330610">
        <ele>930.7</ele>
        <time>2021-05-08T08:42:51Z</time>
      </trkpt>
      <trkpt lat="40.5910550" lon="-4.1331150">
        <ele>931.1</ele>
        <time>2021-05-08T08:42:53Z</time>
      </trkpt>
      <trkpt lat="40.5910680" lon="-4.1331520">
        <ele>931.4</ele>
        <time>2021-05-08T08:42:54Z</time>
      </trkpt>
      <trkpt lat="40.5910780" lon="-4.1331870">
        <ele>931.6</ele>
        <time>2021-05-08T08:42:55Z</time>
      </trkpt>
      <trkpt lat="40.5910890" lon="-4.1332260">
        <ele>931.9</ele>
        <time>2021-05-08T08:42:57Z</time>
      </trkpt>
      <trkpt lat="40.5910970" lon="-4.1332690">
        <ele>932.1</ele>
        <time>2021-05-08T08:42:58Z</time>
      </trkpt>
      <trkpt lat="40.5911070" lon="-4.1333200">
        <ele>932.5</ele>
        <time>2021-05-08T08:43:00Z</time>
      </trkpt>
      <trkpt lat="40.5911100" lon="-4.1333600">
        <ele>932.7</ele>
        <time>2021-05-08T08:43:01Z</time>
      </trkpt>
      <trkpt lat="40.5911120" lon="-4.1334200">
        <ele>933.1</ele>
        <time>2021-05-08T08:43:03Z</time>
      </trkpt>
      <trkpt lat="40.5911080" lon="-4.1334590">
        <ele>933.3</ele>
        <time>2021-05-08T08:43:04Z</time>
      </trkpt>
      <trkpt lat="40.5911050" lon="-4.1334990">
        <ele>933.6</ele>
        <time>2021-05-08T08:43:05Z</time>
      </trkpt>
      <trkpt lat="40.5910990" lon="-4.1335450">
        <ele>933.8</ele>
        <time>2021-05-08T08:43:07Z</time>
      </trkpt>
      <trkpt lat="40.5910930" lon="-4.1335930">
        <ele>934.1</ele>
        <time>2021-05-08T08:43:08Z</time>
      </trkpt>
      <trkpt lat="40.5910910" lon="-4.1336080">
        <ele>934.2</ele>
        <time>2021-05-08T08:43:09Z</time>
      </trkpt>
      <trkpt lat="40.5910780" lon="-4.1336670">
        <ele>934.5</ele>
        <time>2021-05-08T08:43:11Z</time>
      </trkpt>
      <trkpt lat="40.5910750" lon="-4.1336860">
        <ele>934.6</ele>
        <time>2021-05-08T08:43:12Z</time>
      </trkpt>
      <trkpt lat="40.5910720" lon="-4.1337050">
        <ele>934.8</ele>
        <time>2021-05-08T08:43:13Z</time>
      </trkpt>
      <trkpt lat="40.5910620" lon="-4.1337540">
        <ele>935.0</ele>
        <time>2021-05-08T08:43:14Z</time>
      </trkpt>
      <trkpt lat="40.5910580" lon="-4.1337750">
        <ele>935.2</ele>
        <time>2021-05-08T08:43:15Z</time>
      </trkpt>
      <trkpt lat="40.5910390" lon="-4.1338320">
        <ele>935.5</ele>
        <time>2021-05-08T08:43:17Z</time>
      </trkpt>
      <trkpt lat="40.5910310" lon="-4.1338530">
        <ele>935.6</ele>
        <time>2021-05-08T08:43:18Z</time>
      </trkpt>
      <trkpt lat="40.5910240" lon="-4.1338730">
        <ele>935.7</ele>
        <time>2021-05-08T08:43:19Z</time>
      </trkpt>
      <trkpt lat="40.5910040" lon="-4.1339360">
        <ele>936.1</ele>
        <time>2021-05-08T08:43:21Z</time>
      </trkpt>
      <trkpt lat="40.5909940" lon="-4.1339860">
        <ele>936.3</ele>
        <time>2021-05-08T08:43:22Z</time>
      </trkpt>
      <trkpt lat="40.5909890" lon="-4.1340180">
        <ele>936.5</ele>
        <time>2021-05-08T08:43:23Z</time>
      </trkpt>
      <trkpt lat="40.5909900" lon="-4.1340540">
        <ele>936.7</ele>
        <time>2021-05-08T08:43:25Z</time>
      </trkpt>
      <trkpt lat="40.5910010" lon="-4.1341050">
        <ele>936.9</ele>
        <time>2021-05-08T08:43:26Z</time>
      </trkpt>
      <trkpt lat="40.5910180" lon="-4.1341530">
        <ele>937.2</ele>
        <time>2021-05-08T08:43:28Z</time>
      </trkpt>
      <trkpt lat="40.5910340" lon="-4.1341950">
        <ele>937.4</ele>
        <time>2021-05-08T08:43:29Z</time>
      </trkpt>
      <trkpt lat="40.5910460" lon="-4.1342380">
        <ele>937.6</ele>
        <time>2021-05-08T08:43:31Z</time>
      </trkpt>
      <trkpt lat="40.5910540" lon="-4.1342950">
        <ele>937.7</ele>
        <time>2021-05-08T08:43:33Z</time>
      </trkpt>
      <trkpt lat="40.5910530" lon="-4.1343340">
        <ele>937.8</ele>
        <time>2021-05-08T08:43:34Z</time>
      </trkpt>
      <trkpt lat="40.5910420" lon="-4.1343770">
        <ele>937.9</ele>
        <time>2021-05-08T08:43:35Z</time>
      </trkpt>
      <trkpt lat="40.5910300" lon="-4.1344170">
        <ele>937.9</ele>
        <time>2021-05-08T08:43:37Z</time>
      </trkpt>
      <trkpt lat="40.5910130" lon="-4.1344480">
        <ele>938.0</ele>
        <time>2021-05-08T08:43:38Z</time>
      </trkpt>
      <trkpt lat="40.5909940" lon="-4.1344720">
        <ele>938.1</ele>
        <time>2021-05-08T08:43:39Z</time>
      </trkpt>
      <trkpt lat="40.5909470" lon="-4.1345020">
        <ele>938.2</ele>
        <time>2021-05-08T08:43:41Z</time>
      </trkpt>
      <trkpt lat="40.5909150" lon="-4.1345100">
        <ele>938.4</ele>
        <time>2021-05-08T08:43:42Z</time>
      </trkpt>
      <trkpt lat="40.5908870" lon="-4.1345160">
        <ele>938.4</ele>
        <time>2021-05-08T08:43:43Z</time>
      </trkpt>
      <trkpt lat="40.5908560" lon="-4.1345190">
        <ele>938.5</ele>
        <time>2021-05-08T08:43:44Z</time>
      </trkpt>
      <trkpt lat="40.5907980" lon="-4.1345320">
        <ele>938.9</ele>
        <time>2021-05-08T08:43:46Z</time>
      </trkpt>
      <trkpt lat="40.5907730" lon="-4.1345480">
        <ele>939.0</ele>
        <time>2021-05-08T08:43:47Z</time>
      </trkpt>
      <trkpt lat="40.5907480" lon="-4.1345650">
        <ele>939.2</ele>
        <time>2021-05-08T08:43:48Z</time>
      </trkpt>
      <trkpt lat="40.5907050" lon="-4.1346040">
        <ele>939.4</ele>
        <time>2021-05-08T08:43:50Z</time>
      </trkpt>
      <trkpt lat="40.5906860" lon="-4.1346320">
        <ele>939.6</ele>
        <time>2021-05-08T08:43:51Z</time>
      </trkpt>
      <trkpt lat="40.5906490" lon="-4.1346710">
        <ele>939.9</ele>
        <time>2021-05-08T08:43:53Z</time>
      </trkpt>
      <trkpt lat="40.5906370" lon="-4.1347100">
        <ele>940.1</ele>
        <time>2021-05-08T08:43:54Z</time>
      </trkpt>
      <trkpt lat="40.5906150" lon="-4.1347750">
        <ele>940.4</ele>
        <time>2021-05-08T08:43:56Z</time>
      </trkpt>
      <trkpt lat="40.5905980" lon="-4.1348250">
        <ele>940.8</ele>
        <time>2021-05-08T08:43:57Z</time>
      </trkpt>
      <trkpt lat="40.5905910" lon="-4.1348450">
        <ele>940.9</ele>
        <time>2021-05-08T08:43:58Z</time>
      </trkpt>
      <trkpt lat="40.5905770" lon="-4.1348750">
        <ele>941.1</ele>
        <time>2021-05-08T08:43:59Z</time>
      </trkpt>
      <trkpt lat="40.5905600" lon="-4.1349170">
        <ele>941.3</ele>
        <time>2021-05-08T08:44:01Z</time>
      </trkpt>
      <trkpt lat="40.5905380" lon="-4.1349650">
        <ele>941.6</ele>
        <time>2021-05-08T08:44:02Z</time>
      </trkpt>
      <trkpt lat="40.5905290" lon="-4.1349830">
        <ele>941.7</ele>
        <time>2021-05-08T08:44:03Z</time>
      </trkpt>
      <trkpt lat="40.5905100" lon="-4.1350160">
        <ele>942.0</ele>
        <time>2021-05-08T08:44:05Z</time>
      </trkpt>
      <trkpt lat="40.5904920" lon="-4.1350560">
        <ele>942.2</ele>
        <time>2021-05-08T08:44:06Z</time>
      </trkpt>
      <trkpt lat="40.5904620" lon="-4.1351150">
        <ele>942.6</ele>
        <time>2021-05-08T08:44:08Z</time>
      </trkpt>
      <trkpt lat="40.5904410" lon="-4.1351530">
        <ele>942.9</ele>
        <time>2021-05-08T08:44:10Z</time>
      </trkpt>
      <trkpt lat="40.5904210" lon="-4.1351940">
        <ele>943.2</ele>
        <time>2021-05-08T08:44:11Z</time>
      </trkpt>
      <trkpt lat="40.5904130" lon="-4.1352080">
        <ele>943.3</ele>
        <time>2021-05-08T08:44:12Z</time>
      </trkpt>
      <trkpt lat="40.5903930" lon="-4.1352500">
        <ele>943.5</ele>
        <time>2021-05-08T08:44:13Z</time>
      </trkpt>
      <trkpt lat="40.5903840" lon="-4.1352690">
        <ele>943.7</ele>
        <time>2021-05-08T08:44:14Z</time>
      </trkpt>
      <trkpt lat="40.5903650" lon="-4.1353120">
        <ele>944.0</ele>
        <time>2021-05-08T08:44:16Z</time>
      </trkpt>
      <trkpt lat="40.5903560" lon="-4.1353260">
        <ele>944.1</ele>
        <time>2021-05-08T08:44:17Z</time>
      </trkpt>
      <trkpt lat="40.5903390" lon="-4.1353540">
        <ele>944.3</ele>
        <time>2021-05-08T08:44:18Z</time>
      </trkpt>
      <trkpt lat="40.5903240" lon="-4.1353810">
        <ele>944.5</ele>
        <time>2021-05-08T08:44:19Z</time>
      </trkpt>
      <trkpt lat="40.5903050" lon="-4.1354150">
        <ele>944.7</ele>
        <time>2021-05-08T08:44:21Z</time>
      </trkpt>
      <trkpt lat="40.5902760" lon="-4.1354660">
        <ele>945.1</ele>
        <time>2021-05-08T08:44:23Z</time>
      </trkpt>
      <trkpt lat="40.5902580" lon="-4.1355020">
        <ele>945.3</ele>
        <time>2021-05-08T08:44:24Z</time>
      </trkpt>
      <trkpt lat="40.5902420" lon="-4.1355290">
        <ele>945.5</ele>
        <time>2021-05-08T08:44:25Z</time>
      </trkpt>
      <trkpt lat="40.5902220" lon="-4.1355640">
        <ele>945.8</ele>
        <time>2021-05-08T08:44:27Z</time>
      </trkpt>
      <trkpt lat="40.5902040" lon="-4.1355990">
        <ele>946.1</ele>
        <time>2021-05-08T08:44:28Z</time>
      </trkpt>
      <trkpt lat="40.5901850" lon="-4.1356390">
        <ele>946.4</ele>
        <time>2021-05-08T08:44:29Z</time>
      </trkpt>
      <trkpt lat="40.5901610" lon="-4.1356830">
        <ele>946.7</ele>
        <time>2021-05-08T08:44:31Z</time>
      </trkpt>
      <trkpt lat="40.5901450" lon="-4.1357150">
        <ele>946.9</ele>
        <time>2021-05-08T08:44:32Z</time>
      </trkpt>
      <trkpt lat="40.5901150" lon="-4.1357780">
        <ele>947.4</ele>
        <time>2021-05-08T08:44:34Z</time>
      </trkpt>
      <trkpt lat="40.5900970" lon="-4.1358170">
        <ele>947.6</ele>
        <time>2021-05-08T08:44:35Z</time>
      </trkpt>
      <trkpt lat="40.5900780" lon="-4.1358540">
        <ele>947.9</ele>
        <time>2021-05-08T08:44:36Z</time>
      </trkpt>
      <trkpt lat="40.5900610" lon="-4.1358930">
        <ele>948.2</ele>
        <time>2021-05-08T08:44:38Z</time>
      </trkpt>
      <trkpt lat="40.5900470" lon="-4.1359230">
        <ele>948.4</ele>
        <time>2021-05-08T08:44:39Z</time>
      </trkpt>
      <trkpt lat="40.5900230" lon="-4.1359680">
        <ele>948.8</ele>
        <time>2021-05-08T08:44:41Z</time>
      </trkpt>
      <trkpt lat="40.5900060" lon="-4.1360040">
        <ele>949.0</ele>
        <time>2021-05-08T08:44:42Z</time>
      </trkpt>
      <trkpt lat="40.5899930" lon="-4.1360360">
        <ele>949.3</ele>
        <time>2021-05-08T08:44:43Z</time>
      </trkpt>
      <trkpt lat="40.5899800" lon="-4.1360690">
        <ele>949.5</ele>
        <time>2021-05-08T08:44:44Z</time>
      </trkpt>
      <trkpt lat="40.5899680" lon="-4.1361040">
        <ele>949.7</ele>
        <time>2021-05-08T08:44:45Z</time>
      </trkpt>
      <trkpt lat="40.5899570" lon="-4.1361370">
        <ele>949.9</ele>
        <time>2021-05-08T08:44:46Z</time>
      </trkpt>
      <trkpt lat="40.5899390" lon="-4.1361730">
        <ele>950.2</ele>
        <time>2021-05-08T08:44:47Z</time>
      </trkpt>
      <trkpt lat="40.5899120" lon="-4.1362300">
        <ele>950.6</ele>
        <time>2021-05-08T08:44:49Z</time>
      </trkpt>
      <trkpt lat="40.5898950" lon="-4.1362700">
        <ele>950.9</ele>
        <time>2021-05-08T08:44:50Z</time>
      </trkpt>
      <trkpt lat="40.5898640" lon="-4.1363290">
        <ele>951.3</ele>
        <time>2021-05-08T08:44:52Z</time>
      </trkpt>
      <trkpt lat="40.5898530" lon="-4.1363530">
        <ele>951.5</ele>
        <time>2021-05-08T08:44:53Z</time>
      </trkpt>
      <trkpt lat="40.5898410" lon="-4.1363760">
        <ele>951.6</ele>
        <time>2021-05-08T08:44:54Z</time>
      </trkpt>
      <trkpt lat="40.5898170" lon="-4.1364240">
        <ele>952.0</ele>
        <time>2021-05-08T08:44:56Z</time>
      </trkpt>
      <trkpt lat="40.5898080" lon="-4.1364410">
        <ele>952.1</ele>
        <time>2021-05-08T08:44:57Z</time>
      </trkpt>
      <trkpt lat="40.5897980" lon="-4.1364570">
        <ele>952.2</ele>
        <time>2021-05-08T08:44:58Z</time>
      </trkpt>
      <trkpt lat="40.5897760" lon="-4.1365000">
        <ele>952.5</ele>
        <time>2021-05-08T08:44:59Z</time>
      </trkpt>
      <trkpt lat="40.5897680" lon="-4.1365170">
        <ele>952.6</ele>
        <time>2021-05-08T08:45:00Z</time>
      </trkpt>
      <trkpt lat="40.5897460" lon="-4.1365690">
        <ele>953.0</ele>
        <time>2021-05-08T08:45:02Z</time>
      </trkpt>
      <trkpt lat="40.5897380" lon="-4.1365850">
        <ele>953.1</ele>
        <time>2021-05-08T08:45:03Z</time>
      </trkpt>
      <trkpt lat="40.5897290" lon="-4.1366020">
        <ele>953.2</ele>
        <time>2021-05-08T08:45:04Z</time>
      </trkpt>
      <trkpt lat="40.5897170" lon="-4.1366240">
        <ele>953.4</ele>
        <time>2021-05-08T08:45:05Z</time>
      </trkpt>
      <trkpt lat="40.5896940" lon="-4.1366650">
        <ele>953.7</ele>
        <time>2021-05-08T08:45:07Z</time>
      </trkpt>
      <trkpt lat="40.5896770" lon="-4.1367100">
        <ele>954.0</ele>
        <time>2021-05-08T08:45:08Z</time>
      </trkpt>
      <trkpt lat="40.5896720" lon="-4.1367240">
        <ele>954.1</ele>
        <time>2021-05-08T08:45:09Z</time>
      </trkpt>
      <trkpt lat="40.5896450" lon="-4.1367840">
        <ele>954.5</ele>
        <time>2021-05-08T08:45:11Z</time>
      </trkpt>
      <trkpt lat="40.5896210" lon="-4.1368340">
        <ele>954.9</ele>
        <time>2021-05-08T08:45:13Z</time>
      </trkpt>
      <trkpt lat="40.5896030" lon="-4.1368790">
        <ele>955.2</ele>
        <time>2021-05-08T08:45:14Z</time>
      </trkpt>
      <trkpt lat="40.5895870" lon="-4.1369230">
        <ele>955.5</ele>
        <time>2021-05-08T08:45:16Z</time>
      </trkpt>
      <trkpt lat="40.5895580" lon="-4.1369620">
        <ele>955.8</ele>
        <time>2021-05-08T08:45:18Z</time>
      </trkpt>
      <trkpt lat="40.5895400" lon="-4.1369900">
        <ele>956.0</ele>
        <time>2021-05-08T08:45:19Z</time>
      </trkpt>
      <trkpt lat="40.5895270" lon="-4.1370130">
        <ele>956.2</ele>
        <time>2021-05-08T08:45:20Z</time>
      </trkpt>
      <trkpt lat="40.5894960" lon="-4.1370620">
        <ele>956.6</ele>
        <time>2021-05-08T08:45:22Z</time>
      </trkpt>
      <trkpt lat="40.5894760" lon="-4.1370960">
        <ele>956.9</ele>
        <time>2021-05-08T08:45:23Z</time>
      </trkpt>
      <trkpt lat="40.5894710" lon="-4.1371060">
        <ele>956.9</ele>
        <time>2021-05-08T08:45:24Z</time>
      </trkpt>
      <trkpt lat="40.5894550" lon="-4.1371510">
        <ele>957.2</ele>
        <time>2021-05-08T08:45:25Z</time>
      </trkpt>
      <trkpt lat="40.5894460" lon="-4.1371690">
        <ele>957.4</ele>
        <time>2021-05-08T08:45:26Z</time>
      </trkpt>
      <trkpt lat="40.5894300" lon="-4.1371970">
        <ele>957.6</ele>
        <time>2021-05-08T08:45:27Z</time>
      </trkpt>
      <trkpt lat="40.5894140" lon="-4.1372320">
        <ele>957.8</ele>
        <time>2021-05-08T08:45:29Z</time>
      </trkpt>
      <trkpt lat="40.5893930" lon="-4.1372790">
        <ele>958.2</ele>
        <time>2021-05-08T08:45:31Z</time>
      </trkpt>
      <trkpt lat="40.5893710" lon="-4.1373260">
        <ele>958.5</ele>
        <time>2021-05-08T08:45:32Z</time>
      </trkpt>
      <trkpt lat="40.5893630" lon="-4.1373450">
        <ele>958.6</ele>
        <time>2021-05-08T08:45:33Z</time>
      </trkpt>
      <trkpt lat="40.5893370" lon="-4.1374030">
        <ele>959.0</ele>
        <time>2021-05-08T08:45:35Z</time>
      </trkpt>
      <trkpt lat="40.5893280" lon="-4.1374220">
        <ele>959.2</ele>
        <time>2021-05-08T08:45:36Z</time>
      </trkpt>
      <trkpt lat="40.5893200" lon="-4.1374400">
        <ele>959.3</ele>
        <time>2021-05-08T08:45:37Z</time>
      </trkpt>
      <trkpt lat="40.5893000" lon="-4.1374770">
        <ele>959.6</ele>
        <time>2021-05-08T08:45:38Z</time>
      </trkpt>
      <trkpt lat="40.5892870" lon="-4.1375090">
        <ele>959.8</ele>
        <time>2021-05-08T08:45:40Z</time>
      </trkpt>
      <trkpt lat="40.5892710" lon="-4.1375400">
        <ele>960.1</ele>
        <time>2021-05-08T08:45:41Z</time>
      </trkpt>
      <trkpt lat="40.5892530" lon="-4.1375780">
        <ele>960.4</ele>
        <time>2021-05-08T08:45:42Z</time>
      </trkpt>
      <trkpt lat="40.5892460" lon="-4.1375900">
        <ele>960.5</ele>
        <time>2021-05-08T08:45:43Z</time>
      </trkpt>
      <trkpt lat="40.5892340" lon="-4.1376130">
        <ele>960.6</ele>
        <time>2021-05-08T08:45:44Z</time>
      </trkpt>
      <trkpt lat="40.5892230" lon="-4.1376410">
        <ele>961.0</ele>
        <time>2021-05-08T08:45:46Z</time>
      </trkpt>
      <trkpt lat="40.5892140" lon="-4.1376740">
        <ele>961.2</ele>
        <time>2021-05-08T08:45:47Z</time>
      </trkpt>
      <trkpt lat="40.5891980" lon="-4.1377280">
        <ele>961.5</ele>
        <time>2021-05-08T08:45:49Z</time>
      </trkpt>
      <trkpt lat="40.5891860" lon="-4.1377850">
        <ele>961.8</ele>
        <time>2021-05-08T08:45:51Z</time>
      </trkpt>
      <trkpt lat="40.5891760" lon="-4.1378430">
        <ele>962.2</ele>
        <time>2021-05-08T08:45:53Z</time>
      </trkpt>
      <trkpt lat="40.5891720" lon="-4.1378680">
        <ele>962.3</ele>
        <time>2021-05-08T08:45:54Z</time>
      </trkpt>
      <trkpt lat="40.5891650" lon="-4.1379210">
        <ele>962.6</ele>
        <time>2021-05-08T08:45:56Z</time>
      </trkpt>
      <trkpt lat="40.5891600" lon="-4.1379520">
        <ele>962.8</ele>
        <time>2021-05-08T08:45:57Z</time>
      </trkpt>
      <trkpt lat="40.5891610" lon="-4.1380070">
        <ele>963.2</ele>
        <time>2021-05-08T08:45:59Z</time>
      </trkpt>
      <trkpt lat="40.5891590" lon="-4.1380290">
        <ele>963.3</ele>
        <time>2021-05-08T08:46:00Z</time>
      </trkpt>
      <trkpt lat="40.5891530" lon="-4.1380700">
        <ele>963.6</ele>
        <time>2021-05-08T08:46:02Z</time>
      </trkpt>
      <trkpt lat="40.5891580" lon="-4.1381130">
        <ele>963.8</ele>
        <time>2021-05-08T08:46:03Z</time>
      </trkpt>
      <trkpt lat="40.5891600" lon="-4.1381280">
        <ele>963.9</ele>
        <time>2021-05-08T08:46:04Z</time>
      </trkpt>
      <trkpt lat="40.5891630" lon="-4.1381560">
        <ele>964.1</ele>
        <time>2021-05-08T08:46:05Z</time>
      </trkpt>
      <trkpt lat="40.5891670" lon="-4.1382020">
        <ele>964.7</ele>
        <time>2021-05-08T08:46:07Z</time>
      </trkpt>
      <trkpt lat="40.5891720" lon="-4.1382510">
        <ele>965.1</ele>
        <time>2021-05-08T08:46:08Z</time>
      </trkpt>
      <trkpt lat="40.5891730" lon="-4.1382680">
        <ele>965.2</ele>
        <time>2021-05-08T08:46:09Z</time>
      </trkpt>
      <trkpt lat="40.5891800" lon="-4.1383280">
        <ele>965.7</ele>
        <time>2021-05-08T08:46:11Z</time>
      </trkpt>
      <trkpt lat="40.5891890" lon="-4.1383600">
        <ele>966.0</ele>
        <time>2021-05-08T08:46:12Z</time>
      </trkpt>
      <trkpt lat="40.5892040" lon="-4.1383960">
        <ele>966.3</ele>
        <time>2021-05-08T08:46:14Z</time>
      </trkpt>
      <trkpt lat="40.5892110" lon="-4.1384190">
        <ele>966.5</ele>
        <time>2021-05-08T08:46:15Z</time>
      </trkpt>
      <trkpt lat="40.5892220" lon="-4.1384630">
        <ele>966.9</ele>
        <time>2021-05-08T08:46:17Z</time>
      </trkpt>
      <trkpt lat="40.5892270" lon="-4.1384920">
        <ele>967.1</ele>
        <time>2021-05-08T08:46:18Z</time>
      </trkpt>
      <trkpt lat="40.5892320" lon="-4.1385260">
        <ele>967.4</ele>
        <time>2021-05-08T08:46:20Z</time>
      </trkpt>
      <trkpt lat="40.5892370" lon="-4.1385500">
        <ele>967.6</ele>
        <time>2021-05-08T08:46:21Z</time>
      </trkpt>
      <trkpt lat="40.5892550" lon="-4.1385990">
        <ele>968.0</ele>
        <time>2021-05-08T08:46:23Z</time>
      </trkpt>
      <trkpt lat="40.5892620" lon="-4.1386230">
        <ele>968.3</ele>
        <time>2021-05-08T08:46:24Z</time>
      </trkpt>
      <trkpt lat="40.5892740" lon="-4.1386700">
        <ele>968.7</ele>
        <time>2021-05-08T08:46:26Z</time>
      </trkpt>
      <trkpt lat="40.5892780" lon="-4.1386950">
        <ele>968.9</ele>
        <time>2021-05-08T08:46:27Z</time>
      </trkpt>
      <trkpt lat="40.5892870" lon="-4.1387410">
        <ele>969.3</ele>
        <time>2021-05-08T08:46:29Z</time>
      </trkpt>
      <trkpt lat="40.5893050" lon="-4.1387920">
        <ele>969.7</ele>
        <time>2021-05-08T08:46:31Z</time>
      </trkpt>
      <trkpt lat="40.5893130" lon="-4.1388200">
        <ele>970.0</ele>
        <time>2021-05-08T08:46:32Z</time>
      </trkpt>
      <trkpt lat="40.5893290" lon="-4.1388680">
        <ele>970.4</ele>
        <time>2021-05-08T08:46:34Z</time>
      </trkpt>
      <trkpt lat="40.5893440" lon="-4.1389220">
        <ele>970.9</ele>
        <time>2021-05-08T08:46:36Z</time>
      </trkpt>
      <trkpt lat="40.5893530" lon="-4.1389550">
        <ele>971.2</ele>
        <time>2021-05-08T08:46:37Z</time>
      </trkpt>
      <trkpt lat="40.5893650" lon="-4.1389960">
        <ele>971.5</ele>
        <time>2021-05-08T08:46:39Z</time>
      </trkpt>
      <trkpt lat="40.5893790" lon="-4.1390310">
        <ele>971.8</ele>
        <time>2021-05-08T08:46:40Z</time>
      </trkpt>
      <trkpt lat="40.5893890" lon="-4.1390600">
        <ele>972.1</ele>
        <time>2021-05-08T08:46:41Z</time>
      </trkpt>
      <trkpt lat="40.5894030" lon="-4.1391040">
        <ele>972.5</ele>
        <time>2021-05-08T08:46:43Z</time>
      </trkpt>
      <trkpt lat="40.5894170" lon="-4.1391590">
        <ele>972.9</ele>
        <time>2021-05-08T08:46:45Z</time>
      </trkpt>
      <trkpt lat="40.5894280" lon="-4.1392010">
        <ele>973.3</ele>
        <time>2021-05-08T08:46:46Z</time>
      </trkpt>
      <trkpt lat="40.5894580" lon="-4.1392430">
        <ele>973.8</ele>
        <time>2021-05-08T08:46:48Z</time>
      </trkpt>
      <trkpt lat="40.5894690" lon="-4.1392680">
        <ele>974.0</ele>
        <time>2021-05-08T08:46:49Z</time>
      </trkpt>
      <trkpt lat="40.5894780" lon="-4.1393160">
        <ele>974.3</ele>
        <time>2021-05-08T08:46:51Z</time>
      </trkpt>
      <trkpt lat="40.5894850" lon="-4.1393590">
        <ele>974.2</ele>
        <time>2021-05-08T08:46:52Z</time>
      </trkpt>
      <trkpt lat="40.5894870" lon="-4.1393720">
        <ele>974.2</ele>
        <time>2021-05-08T08:46:53Z</time>
      </trkpt>
      <trkpt lat="40.5894960" lon="-4.1394200">
        <ele>974.3</ele>
        <time>2021-05-08T08:46:55Z</time>
      </trkpt>
      <trkpt lat="40.5895020" lon="-4.1394450">
        <ele>974.5</ele>
        <time>2021-05-08T08:46:56Z</time>
      </trkpt>
      <trkpt lat="40.5895130" lon="-4.1394980">
        <ele>974.9</ele>
        <time>2021-05-08T08:46:58Z</time>
      </trkpt>
      <trkpt lat="40.5895240" lon="-4.1395500">
        <ele>975.3</ele>
        <time>2021-05-08T08:47:00Z</time>
      </trkpt>
      <trkpt lat="40.5895310" lon="-4.1396020">
        <ele>975.7</ele>
        <time>2021-05-08T08:47:02Z</time>
      </trkpt>
      <trkpt lat="40.5895450" lon="-4.1396440">
        <ele>976.1</ele>
        <time>2021-05-08T08:47:03Z</time>
      </trkpt>
      <trkpt lat="40.5895470" lon="-4.1396580">
        <ele>976.2</ele>
        <time>2021-05-08T08:47:04Z</time>
      </trkpt>
      <trkpt lat="40.5895530" lon="-4.1396940">
        <ele>976.5</ele>
        <time>2021-05-08T08:47:05Z</time>
      </trkpt>
      <trkpt lat="40.5895620" lon="-4.1397300">
        <ele>976.8</ele>
        <time>2021-05-08T08:47:06Z</time>
      </trkpt>
      <trkpt lat="40.5895760" lon="-4.1397690">
        <ele>977.2</ele>
        <time>2021-05-08T08:47:08Z</time>
      </trkpt>
      <trkpt lat="40.5895800" lon="-4.1397810">
        <ele>977.3</ele>
        <time>2021-05-08T08:47:09Z</time>
      </trkpt>
      <trkpt lat="40.5895920" lon="-4.1398230">
        <ele>977.6</ele>
        <time>2021-05-08T08:47:10Z</time>
      </trkpt>
      <trkpt lat="40.5895950" lon="-4.1398370">
        <ele>977.7</ele>
        <time>2021-05-08T08:47:11Z</time>
      </trkpt>
      <trkpt lat="40.5896010" lon="-4.1398640">
        <ele>978.0</ele>
        <time>2021-05-08T08:47:12Z</time>
      </trkpt>
      <trkpt lat="40.5896140" lon="-4.1399160">
        <ele>978.4</ele>
        <time>2021-05-08T08:47:14Z</time>
      </trkpt>
      <trkpt lat="40.5896240" lon="-4.1399630">
        <ele>978.8</ele>
        <time>2021-05-08T08:47:15Z</time>
      </trkpt>
      <trkpt lat="40.5896290" lon="-4.1399810">
        <ele>978.9</ele>
        <time>2021-05-08T08:47:16Z</time>
      </trkpt>
      <trkpt lat="40.5896360" lon="-4.1400130">
        <ele>979.2</ele>
        <time>2021-05-08T08:47:17Z</time>
      </trkpt>
      <trkpt lat="40.5896450" lon="-4.1400500">
        <ele>979.5</ele>
        <time>2021-05-08T08:47:19Z</time>
      </trkpt>
      <trkpt lat="40.5896560" lon="-4.1400870">
        <ele>979.8</ele>
        <time>2021-05-08T08:47:20Z</time>
      </trkpt>
      <trkpt lat="40.5896640" lon="-4.1401170">
        <ele>980.0</ele>
        <time>2021-05-08T08:47:21Z</time>
      </trkpt>
      <trkpt lat="40.5896770" lon="-4.1401540">
        <ele>980.4</ele>
        <time>2021-05-08T08:47:23Z</time>
      </trkpt>
      <trkpt lat="40.5896890" lon="-4.1401910">
        <ele>980.7</ele>
        <time>2021-05-08T08:47:24Z</time>
      </trkpt>
      <trkpt lat="40.5896920" lon="-4.1402040">
        <ele>980.8</ele>
        <time>2021-05-08T08:47:25Z</time>
      </trkpt>
      <trkpt lat="40.5897050" lon="-4.1402440">
        <ele>981.2</ele>
        <time>2021-05-08T08:47:26Z</time>
      </trkpt>
      <trkpt lat="40.5897150" lon="-4.1402810">
        <ele>981.5</ele>
        <time>2021-05-08T08:47:28Z</time>
      </trkpt>
      <trkpt lat="40.5897280" lon="-4.1403050">
        <ele>981.7</ele>
        <time>2021-05-08T08:47:29Z</time>
      </trkpt>
      <trkpt lat="40.5897380" lon="-4.1403490">
        <ele>982.1</ele>
        <time>2021-05-08T08:47:31Z</time>
      </trkpt>
      <trkpt lat="40.5897430" lon="-4.1403750">
        <ele>982.3</ele>
        <time>2021-05-08T08:47:32Z</time>
      </trkpt>
      <trkpt lat="40.5897510" lon="-4.1404130">
        <ele>982.6</ele>
        <time>2021-05-08T08:47:34Z</time>
      </trkpt>
      <trkpt lat="40.5897630" lon="-4.1404590">
        <ele>983.0</ele>
        <time>2021-05-08T08:47:35Z</time>
      </trkpt>
      <trkpt lat="40.5897670" lon="-4.1404720">
        <ele>983.1</ele>
        <time>2021-05-08T08:47:36Z</time>
      </trkpt>
      <trkpt lat="40.5897780" lon="-4.1405110">
        <ele>983.4</ele>
        <time>2021-05-08T08:47:37Z</time>
      </trkpt>
      <trkpt lat="40.5897800" lon="-4.1405240">
        <ele>983.5</ele>
        <time>2021-05-08T08:47:38Z</time>
      </trkpt>
      <trkpt lat="40.5897880" lon="-4.1405540">
        <ele>983.6</ele>
        <time>2021-05-08T08:47:40Z</time>
      </trkpt>
      <trkpt lat="40.5898000" lon="-4.1405990">
        <ele>983.7</ele>
        <time>2021-05-08T08:47:42Z</time>
      </trkpt>
      <trkpt lat="40.5898160" lon="-4.1406410">
        <ele>983.7</ele>
        <time>2021-05-08T08:47:44Z</time>
      </trkpt>
      <trkpt lat="40.5898310" lon="-4.1406910">
        <ele>983.9</ele>
        <time>2021-05-08T08:47:45Z</time>
      </trkpt>
      <trkpt lat="40.5898380" lon="-4.1407130">
        <ele>984.1</ele>
        <time>2021-05-08T08:47:46Z</time>
      </trkpt>
      <trkpt lat="40.5898500" lon="-4.1407580">
        <ele>984.5</ele>
        <time>2021-05-08T08:47:48Z</time>
      </trkpt>
      <trkpt lat="40.5898520" lon="-4.1407720">
        <ele>984.6</ele>
        <time>2021-05-08T08:47:49Z</time>
      </trkpt>
      <trkpt lat="40.5898690" lon="-4.1408160">
        <ele>985.0</ele>
        <time>2021-05-08T08:47:51Z</time>
      </trkpt>
      <trkpt lat="40.5898820" lon="-4.1408800">
        <ele>985.5</ele>
        <time>2021-05-08T08:47:53Z</time>
      </trkpt>
      <trkpt lat="40.5898850" lon="-4.1408990">
        <ele>985.7</ele>
        <time>2021-05-08T08:47:54Z</time>
      </trkpt>
      <trkpt lat="40.5898890" lon="-4.1409190">
        <ele>985.8</ele>
        <time>2021-05-08T08:47:55Z</time>
      </trkpt>
      <trkpt lat="40.5899010" lon="-4.1409630">
        <ele>986.2</ele>
        <time>2021-05-08T08:47:56Z</time>
      </trkpt>
      <trkpt lat="40.5899050" lon="-4.1409820">
        <ele>986.4</ele>
        <time>2021-05-08T08:47:57Z</time>
      </trkpt>
      <trkpt lat="40.5899210" lon="-4.1410380">
        <ele>986.9</ele>
        <time>2021-05-08T08:47:59Z</time>
      </trkpt>
      <trkpt lat="40.5899270" lon="-4.1410560">
        <ele>987.0</ele>
        <time>2021-05-08T08:48:00Z</time>
      </trkpt>
      <trkpt lat="40.5899330" lon="-4.1410730">
        <ele>987.2</ele>
        <time>2021-05-08T08:48:01Z</time>
      </trkpt>
      <trkpt lat="40.5899430" lon="-4.1411160">
        <ele>987.6</ele>
        <time>2021-05-08T08:48:03Z</time>
      </trkpt>
      <trkpt lat="40.5899480" lon="-4.1411560">
        <ele>987.9</ele>
        <time>2021-05-08T08:48:04Z</time>
      </trkpt>
      <trkpt lat="40.5899530" lon="-4.1411900">
        <ele>988.2</ele>
        <time>2021-05-08T08:48:05Z</time>
      </trkpt>
      <trkpt lat="40.5899590" lon="-4.1412230">
        <ele>988.5</ele>
        <time>2021-05-08T08:48:07Z</time>
      </trkpt>
      <trkpt lat="40.5899610" lon="-4.1412750">
        <ele>988.9</ele>
        <time>2021-05-08T08:48:08Z</time>
      </trkpt>
      <trkpt lat="40.5899610" lon="-4.1412960">
        <ele>989.1</ele>
        <time>2021-05-08T08:48:09Z</time>
      </trkpt>
      <trkpt lat="40.5899620" lon="-4.1413390">
        <ele>989.4</ele>
        <time>2021-05-08T08:48:11Z</time>
      </trkpt>
      <trkpt lat="40.5899610" lon="-4.1413660">
        <ele>989.6</ele>
        <time>2021-05-08T08:48:12Z</time>
      </trkpt>
      <trkpt lat="40.5899590" lon="-4.1414220">
        <ele>990.0</ele>
        <time>2021-05-08T08:48:14Z</time>
      </trkpt>
      <trkpt lat="40.5899540" lon="-4.1414660">
        <ele>990.3</ele>
        <time>2021-05-08T08:48:15Z</time>
      </trkpt>
      <trkpt lat="40.5899470" lon="-4.1415300">
        <ele>990.7</ele>
        <time>2021-05-08T08:48:17Z</time>
      </trkpt>
      <trkpt lat="40.5899450" lon="-4.1415540">
        <ele>990.9</ele>
        <time>2021-05-08T08:48:18Z</time>
      </trkpt>
      <trkpt lat="40.5899420" lon="-4.1415780">
        <ele>991.1</ele>
        <time>2021-05-08T08:48:19Z</time>
      </trkpt>
      <trkpt lat="40.5899360" lon="-4.1416260">
        <ele>991.4</ele>
        <time>2021-05-08T08:48:21Z</time>
      </trkpt>
      <trkpt lat="40.5899340" lon="-4.1416420">
        <ele>991.5</ele>
        <time>2021-05-08T08:48:22Z</time>
      </trkpt>
      <trkpt lat="40.5899270" lon="-4.1416910">
        <ele>991.9</ele>
        <time>2021-05-08T08:48:24Z</time>
      </trkpt>
      <trkpt lat="40.5899180" lon="-4.1417460">
        <ele>992.2</ele>
        <time>2021-05-08T08:48:25Z</time>
      </trkpt>
      <trkpt lat="40.5899140" lon="-4.1417660">
        <ele>992.4</ele>
        <time>2021-05-08T08:48:26Z</time>
      </trkpt>
      <trkpt lat="40.5899090" lon="-4.1417950">
        <ele>992.5</ele>
        <time>2021-05-08T08:48:27Z</time>
      </trkpt>
      <trkpt lat="40.5899010" lon="-4.1418300">
        <ele>992.8</ele>
        <time>2021-05-08T08:48:29Z</time>
      </trkpt>
      <trkpt lat="40.5898870" lon="-4.1418830">
        <ele>993.1</ele>
        <time>2021-05-08T08:48:30Z</time>
      </trkpt>
      <trkpt lat="40.5898830" lon="-4.1419030">
        <ele>993.3</ele>
        <time>2021-05-08T08:48:31Z</time>
      </trkpt>
      <trkpt lat="40.5898730" lon="-4.1419540">
        <ele>993.8</ele>
        <time>2021-05-08T08:48:33Z</time>
      </trkpt>
      <trkpt lat="40.5898690" lon="-4.1419700">
        <ele>994.0</ele>
        <time>2021-05-08T08:48:34Z</time>
      </trkpt>
      <trkpt lat="40.5898560" lon="-4.1420160">
        <ele>994.5</ele>
        <time>2021-05-08T08:48:35Z</time>
      </trkpt>
      <trkpt lat="40.5898520" lon="-4.1420290">
        <ele>994.6</ele>
        <time>2021-05-08T08:48:36Z</time>
      </trkpt>
      <trkpt lat="40.5898340" lon="-4.1420900">
        <ele>995.3</ele>
        <time>2021-05-08T08:48:38Z</time>
      </trkpt>
      <trkpt lat="40.5898280" lon="-4.1421070">
        <ele>995.5</ele>
        <time>2021-05-08T08:48:39Z</time>
      </trkpt>
      <trkpt lat="40.5898230" lon="-4.1421250">
        <ele>995.7</ele>
        <time>2021-05-08T08:48:40Z</time>
      </trkpt>
      <trkpt lat="40.5898080" lon="-4.1421720">
        <ele>996.2</ele>
        <time>2021-05-08T08:48:42Z</time>
      </trkpt>
      <trkpt lat="40.5897920" lon="-4.1422240">
        <ele>996.8</ele>
        <time>2021-05-08T08:48:44Z</time>
      </trkpt>
      <trkpt lat="40.5897750" lon="-4.1422660">
        <ele>997.3</ele>
        <time>2021-05-08T08:48:46Z</time>
      </trkpt>
      <trkpt lat="40.5897570" lon="-4.1423030">
        <ele>997.4</ele>
        <time>2021-05-08T08:48:47Z</time>
      </trkpt>
      <trkpt lat="40.5897520" lon="-4.1423140">
        <ele>997.3</ele>
        <time>2021-05-08T08:48:48Z</time>
      </trkpt>
      <trkpt lat="40.5897440" lon="-4.1423360">
        <ele>997.3</ele>
        <time>2021-05-08T08:48:49Z</time>
      </trkpt>
      <trkpt lat="40.5897250" lon="-4.1423840">
        <ele>997.7</ele>
        <time>2021-05-08T08:48:51Z</time>
      </trkpt>
      <trkpt lat="40.5897100" lon="-4.1424350">
        <ele>998.1</ele>
        <time>2021-05-08T08:48:52Z</time>
      </trkpt>
      <trkpt lat="40.5897040" lon="-4.1424570">
        <ele>998.3</ele>
        <time>2021-05-08T08:48:53Z</time>
      </trkpt>
      <trkpt lat="40.5896910" lon="-4.1424990">
        <ele>998.6</ele>
        <time>2021-05-08T08:48:55Z</time>
      </trkpt>
      <trkpt lat="40.5896740" lon="-4.1425490">
        <ele>999.0</ele>
        <time>2021-05-08T08:48:57Z</time>
      </trkpt>
      <trkpt lat="40.5896590" lon="-4.1425950">
        <ele>999.4</ele>
        <time>2021-05-08T08:48:59Z</time>
      </trkpt>
      <trkpt lat="40.5896450" lon="-4.1426340">
        <ele>999.7</ele>
        <time>2021-05-08T08:49:01Z</time>
      </trkpt>
      <trkpt lat="40.5896380" lon="-4.1426620">
        <ele>999.9</ele>
        <time>2021-05-08T08:49:02Z</time>
      </trkpt>
      <trkpt lat="40.5896310" lon="-4.1426950">
        <ele>1000.1</ele>
        <time>2021-05-08T08:49:04Z</time>
      </trkpt>
      <trkpt lat="40.5896190" lon="-4.1427330">
        <ele>1000.4</ele>
        <time>2021-05-08T08:49:05Z</time>
      </trkpt>
      <trkpt lat="40.5896140" lon="-4.1427450">
        <ele>1000.5</ele>
        <time>2021-05-08T08:49:06Z</time>
      </trkpt>
      <trkpt lat="40.5896080" lon="-4.1427830">
        <ele>1000.8</ele>
        <time>2021-05-08T08:49:07Z</time>
      </trkpt>
      <trkpt lat="40.5896070" lon="-4.1427960">
        <ele>1000.9</ele>
        <time>2021-05-08T08:49:08Z</time>
      </trkpt>
      <trkpt lat="40.5895990" lon="-4.1428260">
        <ele>1001.1</ele>
        <time>2021-05-08T08:49:09Z</time>
      </trkpt>
      <trkpt lat="40.5895890" lon="-4.1428610">
        <ele>1001.4</ele>
        <time>2021-05-08T08:49:11Z</time>
      </trkpt>
      <trkpt lat="40.5895780" lon="-4.1429040">
        <ele>1001.7</ele>
        <time>2021-05-08T08:49:12Z</time>
      </trkpt>
      <trkpt lat="40.5895730" lon="-4.1429200">
        <ele>1001.9</ele>
        <time>2021-05-08T08:49:13Z</time>
      </trkpt>
      <trkpt lat="40.5895640" lon="-4.1429570">
        <ele>1002.1</ele>
        <time>2021-05-08T08:49:14Z</time>
      </trkpt>
      <trkpt lat="40.5895510" lon="-4.1429970">
        <ele>1002.4</ele>
        <time>2021-05-08T08:49:16Z</time>
      </trkpt>
      <trkpt lat="40.5895420" lon="-4.1430370">
        <ele>1002.7</ele>
        <time>2021-05-08T08:49:17Z</time>
      </trkpt>
      <trkpt lat="40.5895260" lon="-4.1430900">
        <ele>1003.2</ele>
        <time>2021-05-08T08:49:19Z</time>
      </trkpt>
      <trkpt lat="40.5895210" lon="-4.1431090">
        <ele>1003.3</ele>
        <time>2021-05-08T08:49:20Z</time>
      </trkpt>
      <trkpt lat="40.5895160" lon="-4.1431280">
        <ele>1003.4</ele>
        <time>2021-05-08T08:49:21Z</time>
      </trkpt>
      <trkpt lat="40.5895000" lon="-4.1431920">
        <ele>1003.9</ele>
        <time>2021-05-08T08:49:23Z</time>
      </trkpt>
      <trkpt lat="40.5894930" lon="-4.1432110">
        <ele>1004.1</ele>
        <time>2021-05-08T08:49:24Z</time>
      </trkpt>
      <trkpt lat="40.5894870" lon="-4.1432310">
        <ele>1004.2</ele>
        <time>2021-05-08T08:49:25Z</time>
      </trkpt>
      <trkpt lat="40.5894750" lon="-4.1432660">
        <ele>1004.5</ele>
        <time>2021-05-08T08:49:26Z</time>
      </trkpt>
      <trkpt lat="40.5894650" lon="-4.1433060">
        <ele>1004.8</ele>
        <time>2021-05-08T08:49:27Z</time>
      </trkpt>
      <trkpt lat="40.5894530" lon="-4.1433410">
        <ele>1005.1</ele>
        <time>2021-05-08T08:49:29Z</time>
      </trkpt>
      <trkpt lat="40.5894420" lon="-4.1433710">
        <ele>1005.4</ele>
        <time>2021-05-08T08:49:30Z</time>
      </trkpt>
      <trkpt lat="40.5894270" lon="-4.1434180">
        <ele>1005.7</ele>
        <time>2021-05-08T08:49:32Z</time>
      </trkpt>
      <trkpt lat="40.5894140" lon="-4.1434560">
        <ele>1006.1</ele>
        <time>2021-05-08T08:49:33Z</time>
      </trkpt>
      <trkpt lat="40.5894070" lon="-4.1434970">
        <ele>1006.4</ele>
        <time>2021-05-08T08:49:34Z</time>
      </trkpt>
      <trkpt lat="40.5894060" lon="-4.1435120">
        <ele>1006.5</ele>
        <time>2021-05-08T08:49:35Z</time>
      </trkpt>
      <trkpt lat="40.5894090" lon="-4.1435580">
        <ele>1006.7</ele>
        <time>2021-05-08T08:49:37Z</time>
      </trkpt>
      <trkpt lat="40.5894110" lon="-4.1435760">
        <ele>1006.8</ele>
        <time>2021-05-08T08:49:38Z</time>
      </trkpt>
      <trkpt lat="40.5894310" lon="-4.1436250">
        <ele>1007.0</ele>
        <time>2021-05-08T08:49:40Z</time>
      </trkpt>
      <trkpt lat="40.5894380" lon="-4.1436410">
        <ele>1007.1</ele>
        <time>2021-05-08T08:49:41Z</time>
      </trkpt>
      <trkpt lat="40.5894460" lon="-4.1436560">
        <ele>1007.2</ele>
        <time>2021-05-08T08:49:42Z</time>
      </trkpt>
      <trkpt lat="40.5894670" lon="-4.1436880">
        <ele>1007.5</ele>
        <time>2021-05-08T08:49:43Z</time>
      </trkpt>
      <trkpt lat="40.5894740" lon="-4.1437010">
        <ele>1007.5</ele>
        <time>2021-05-08T08:49:44Z</time>
      </trkpt>
      <trkpt lat="40.5894850" lon="-4.1437310">
        <ele>1008.6</ele>
        <time>2021-05-08T08:49:45Z</time>
      </trkpt>
      <trkpt lat="40.5895030" lon="-4.1437590">
        <ele>1008.7</ele>
        <time>2021-05-08T08:49:47Z</time>
      </trkpt>
      <trkpt lat="40.5895230" lon="-4.1437940">
        <ele>1009.1</ele>
        <time>2021-05-08T08:49:49Z</time>
      </trkpt>
      <trkpt lat="40.5895280" lon="-4.1438180">
        <ele>1009.4</ele>
        <time>2021-05-08T08:49:50Z</time>
      </trkpt>
      <trkpt lat="40.5895340" lon="-4.1438650">
        <ele>1009.8</ele>
        <time>2021-05-08T08:49:52Z</time>
      </trkpt>
      <trkpt lat="40.5895450" lon="-4.1438880">
        <ele>1010.1</ele>
        <time>2021-05-08T08:49:53Z</time>
      </trkpt>
      <trkpt lat="40.5895650" lon="-4.1439270">
        <ele>1010.5</ele>
        <time>2021-05-08T08:49:55Z</time>
      </trkpt>
      <trkpt lat="40.5895790" lon="-4.1439530">
        <ele>1010.8</ele>
        <time>2021-05-08T08:49:56Z</time>
      </trkpt>
      <trkpt lat="40.5895900" lon="-4.1439820">
        <ele>1011.1</ele>
        <time>2021-05-08T08:49:58Z</time>
      </trkpt>
      <trkpt lat="40.5896000" lon="-4.1440070">
        <ele>1011.4</ele>
        <time>2021-05-08T08:49:59Z</time>
      </trkpt>
      <trkpt lat="40.5896130" lon="-4.1440490">
        <ele>1011.8</ele>
        <time>2021-05-08T08:50:01Z</time>
      </trkpt>
      <trkpt lat="40.5896230" lon="-4.1440840">
        <ele>1012.2</ele>
        <time>2021-05-08T08:50:02Z</time>
      </trkpt>
      <trkpt lat="40.5896350" lon="-4.1441230">
        <ele>1012.6</ele>
        <time>2021-05-08T08:50:04Z</time>
      </trkpt>
      <trkpt lat="40.5896380" lon="-4.1441320">
        <ele>1012.6</ele>
        <time>2021-05-08T08:50:05Z</time>
      </trkpt>
      <trkpt lat="40.5896570" lon="-4.1441820">
        <ele>1013.2</ele>
        <time>2021-05-08T08:50:07Z</time>
      </trkpt>
      <trkpt lat="40.5896630" lon="-4.1441980">
        <ele>1013.3</ele>
        <time>2021-05-08T08:50:09Z</time>
      </trkpt>
      <trkpt lat="40.5896690" lon="-4.1442150">
        <ele>1013.5</ele>
        <time>2021-05-08T08:50:10Z</time>
      </trkpt>
      <trkpt lat="40.5896820" lon="-4.1442470">
        <ele>1013.9</ele>
        <time>2021-05-08T08:50:11Z</time>
      </trkpt>
      <trkpt lat="40.5896880" lon="-4.1442600">
        <ele>1014.0</ele>
        <time>2021-05-08T08:50:12Z</time>
      </trkpt>
      <trkpt lat="40.5896980" lon="-4.1442830">
        <ele>1014.3</ele>
        <time>2021-05-08T08:50:13Z</time>
      </trkpt>
      <trkpt lat="40.5897090" lon="-4.1443150">
        <ele>1014.6</ele>
        <time>2021-05-08T08:50:15Z</time>
      </trkpt>
      <trkpt lat="40.5897180" lon="-4.1443520">
        <ele>1015.0</ele>
        <time>2021-05-08T08:50:16Z</time>
      </trkpt>
      <trkpt lat="40.5897180" lon="-4.1443880">
        <ele>1015.3</ele>
        <time>2021-05-08T08:50:18Z</time>
      </trkpt>
      <trkpt lat="40.5897180" lon="-4.1444000">
        <ele>1015.5</ele>
        <time>2021-05-08T08:50:19Z</time>
      </trkpt>
      <trkpt lat="40.5897250" lon="-4.1444200">
        <ele>1015.7</ele>
        <time>2021-05-08T08:50:20Z</time>
      </trkpt>
      <trkpt lat="40.5897370" lon="-4.1444530">
        <ele>1016.0</ele>
        <time>2021-05-08T08:50:22Z</time>
      </trkpt>
      <trkpt lat="40.5897450" lon="-4.1444870">
        <ele>1016.4</ele>
        <time>2021-05-08T08:50:23Z</time>
      </trkpt>
      <trkpt lat="40.5897480" lon="-4.1445000">
        <ele>1016.5</ele>
        <time>2021-05-08T08:50:24Z</time>
      </trkpt>
      <trkpt lat="40.5897590" lon="-4.1445350">
        <ele>1016.9</ele>
        <time>2021-05-08T08:50:26Z</time>
      </trkpt>
      <trkpt lat="40.5897650" lon="-4.1445650">
        <ele>1017.2</ele>
        <time>2021-05-08T08:50:27Z</time>
      </trkpt>
      <trkpt lat="40.5897760" lon="-4.1446070">
        <ele>1017.5</ele>
        <time>2021-05-08T08:50:29Z</time>
      </trkpt>
      <trkpt lat="40.5897910" lon="-4.1446500">
        <ele>1017.8</ele>
        <time>2021-05-08T08:50:31Z</time>
      </trkpt>
      <trkpt lat="40.5897990" lon="-4.1446860">
        <ele>1018.0</ele>
        <time>2021-05-08T08:50:32Z</time>
      </trkpt>
      <trkpt lat="40.5898010" lon="-4.1446970">
        <ele>1018.1</ele>
        <time>2021-05-08T08:50:33Z</time>
      </trkpt>
      <trkpt lat="40.5898130" lon="-4.1447510">
        <ele>1018.4</ele>
        <time>2021-05-08T08:50:35Z</time>
      </trkpt>
      <trkpt lat="40.5898150" lon="-4.1447690">
        <ele>1018.5</ele>
        <time>2021-05-08T08:50:36Z</time>
      </trkpt>
      <trkpt lat="40.5898180" lon="-4.1447860">
        <ele>1018.6</ele>
        <time>2021-05-08T08:50:37Z</time>
      </trkpt>
      <trkpt lat="40.5898220" lon="-4.1448200">
        <ele>1018.8</ele>
        <time>2021-05-08T08:50:38Z</time>
      </trkpt>
      <trkpt lat="40.5898300" lon="-4.1448630">
        <ele>1019.1</ele>
        <time>2021-05-08T08:50:40Z</time>
      </trkpt>
      <trkpt lat="40.5898390" lon="-4.1449090">
        <ele>1019.3</ele>
        <time>2021-05-08T08:50:41Z</time>
      </trkpt>
      <trkpt lat="40.5898410" lon="-4.1449260">
        <ele>1019.4</ele>
        <time>2021-05-08T08:50:42Z</time>
      </trkpt>
      <trkpt lat="40.5898540" lon="-4.1449730">
        <ele>1019.7</ele>
        <time>2021-05-08T08:50:43Z</time>
      </trkpt>
      <trkpt lat="40.5898580" lon="-4.1449910">
        <ele>1019.8</ele>
        <time>2021-05-08T08:50:44Z</time>
      </trkpt>
      <trkpt lat="40.5898750" lon="-4.1450430">
        <ele>1020.1</ele>
        <time>2021-05-08T08:50:46Z</time>
      </trkpt>
      <trkpt lat="40.5898850" lon="-4.1450570">
        <ele>1020.2</ele>
        <time>2021-05-08T08:50:47Z</time>
      </trkpt>
      <trkpt lat="40.5898950" lon="-4.1450720">
        <ele>1020.3</ele>
        <time>2021-05-08T08:50:48Z</time>
      </trkpt>
      <trkpt lat="40.5899090" lon="-4.1451000">
        <ele>1020.5</ele>
        <time>2021-05-08T08:50:49Z</time>
      </trkpt>
      <trkpt lat="40.5899200" lon="-4.1451320">
        <ele>1020.7</ele>
        <time>2021-05-08T08:50:51Z</time>
      </trkpt>
      <trkpt lat="40.5899140" lon="-4.1451760">
        <ele>1020.9</ele>
        <time>2021-05-08T08:50:52Z</time>
      </trkpt>
      <trkpt lat="40.5899080" lon="-4.1451900">
        <ele>1021.0</ele>
        <time>2021-05-08T08:50:53Z</time>
      </trkpt>
      <trkpt lat="40.5898920" lon="-4.1452020">
        <ele>1021.2</ele>
        <time>2021-05-08T08:50:54Z</time>
      </trkpt>
      <trkpt lat="40.5898760" lon="-4.1452040">
        <ele>1021.3</ele>
        <time>2021-05-08T08:50:55Z</time>
      </trkpt>
      <trkpt lat="40.5898720" lon="-4.1452190">
        <ele>1021.4</ele>
        <time>2021-05-08T08:50:57Z</time>
      </trkpt>
      <trkpt lat="40.5898790" lon="-4.1452420">
        <ele>1021.6</ele>
        <time>2021-05-08T08:50:59Z</time>
      </trkpt>
      <trkpt lat="40.5898860" lon="-4.1452650">
        <ele>1021.7</ele>
        <time>2021-05-08T08:55:34Z</time>
      </trkpt>
      <trkpt lat="40.5898930" lon="-4.1452880">
        <ele>1021.9</ele>
        <time>2021-05-08T08:55:36Z</time>
      </trkpt>
      <trkpt lat="40.5899000" lon="-4.1453110">
        <ele>1022.0</ele>
        <time>2021-05-08T08:55:37Z</time>
      </trkpt>
      <trkpt lat="40.5899070" lon="-4.1453340">
        <ele>1023.0</ele>
        <time>2021-05-08T08:55:39Z</time>
      </trkpt>
      <trkpt lat="40.5899140" lon="-4.1453570">
        <ele>1023.2</ele>
        <time>2021-05-08T08:55:40Z</time>
      </trkpt>
      <trkpt lat="40.5899100" lon="-4.1453980">
        <ele>1023.5</ele>
        <time>2021-05-08T08:55:41Z</time>
      </trkpt>
      <trkpt lat="40.5899080" lon="-4.1454170">
        <ele>1023.9</ele>
        <time>2021-05-08T08:55:42Z</time>
      </trkpt>
      <trkpt lat="40.5899020" lon="-4.1454440">
        <ele>1023.5</ele>
        <time>2021-05-08T08:55:44Z</time>
      </trkpt>
      <trkpt lat="40.5898700" lon="-4.1454600">
        <ele>1023.4</ele>
        <time>2021-05-08T08:55:46Z</time>
      </trkpt>
      <trkpt lat="40.5898400" lon="-4.1454740">
        <ele>1023.1</ele>
        <time>2021-05-08T08:55:47Z</time>
      </trkpt>
      <trkpt lat="40.5898310" lon="-4.1454790">
        <ele>1023.3</ele>
        <time>2021-05-08T08:55:48Z</time>
      </trkpt>
      <trkpt lat="40.5898210" lon="-4.1455220">
        <ele>1023.7</ele>
        <time>2021-05-08T08:55:49Z</time>
      </trkpt>
      <trkpt lat="40.5898190" lon="-4.1455410">
        <ele>1023.8</ele>
        <time>2021-05-08T08:55:50Z</time>
      </trkpt>
      <trkpt lat="40.5898220" lon="-4.1455690">
        <ele>1023.9</ele>
        <time>2021-05-08T08:55:51Z</time>
      </trkpt>
      <trkpt lat="40.5898300" lon="-4.1456000">
        <ele>1024.1</ele>
        <time>2021-05-08T08:55:53Z</time>
      </trkpt>
      <trkpt lat="40.5898400" lon="-4.1456400">
        <ele>1024.4</ele>
        <time>2021-05-08T08:55:54Z</time>
      </trkpt>
      <trkpt lat="40.5898430" lon="-4.1456560">
        <ele>1024.4</ele>
        <time>2021-05-08T08:55:55Z</time>
      </trkpt>
      <trkpt lat="40.5898250" lon="-4.1456890">
        <ele>1024.7</ele>
        <time>2021-05-08T08:55:57Z</time>
      </trkpt>
      <trkpt lat="40.5898160" lon="-4.1456960">
        <ele>1024.7</ele>
        <time>2021-05-08T08:55:58Z</time>
      </trkpt>
      <trkpt lat="40.5897970" lon="-4.1457260">
        <ele>1024.9</ele>
        <time>2021-05-08T08:55:59Z</time>
      </trkpt>
      <trkpt lat="40.5897940" lon="-4.1457420">
        <ele>1025.0</ele>
        <time>2021-05-08T08:56:00Z</time>
      </trkpt>
      <trkpt lat="40.5898220" lon="-4.1457980">
        <ele>1025.3</ele>
        <time>2021-05-08T08:56:02Z</time>
      </trkpt>
      <trkpt lat="40.5898320" lon="-4.1458170">
        <ele>1025.4</ele>
        <time>2021-05-08T08:56:03Z</time>
      </trkpt>
      <trkpt lat="40.5898420" lon="-4.1458350">
        <ele>1025.5</ele>
        <time>2021-05-08T08:56:04Z</time>
      </trkpt>
      <trkpt lat="40.5898560" lon="-4.1458760">
        <ele>1025.7</ele>
        <time>2021-05-08T08:56:06Z</time>
      </trkpt>
      <trkpt lat="40.5898660" lon="-4.1459270">
        <ele>1025.9</ele>
        <time>2021-05-08T08:56:08Z</time>
      </trkpt>
      <trkpt lat="40.5898770" lon="-4.1459810">
        <ele>1026.2</ele>
        <time>2021-05-08T08:56:09Z</time>
      </trkpt>
      <trkpt lat="40.5898800" lon="-4.1460030">
        <ele>1026.3</ele>
        <time>2021-05-08T08:56:10Z</time>
      </trkpt>
      <trkpt lat="40.5898860" lon="-4.1460450">
        <ele>1026.5</ele>
        <time>2021-05-08T08:56:11Z</time>
      </trkpt>
      <trkpt lat="40.5898930" lon="-4.1460920">
        <ele>1026.7</ele>
        <time>2021-05-08T08:56:13Z</time>
      </trkpt>
      <trkpt lat="40.5899020" lon="-4.1461510">
        <ele>1026.9</ele>
        <time>2021-05-08T08:56:15Z</time>
      </trkpt>
      <trkpt lat="40.5899110" lon="-4.1461930">
        <ele>1027.1</ele>
        <time>2021-05-08T08:56:16Z</time>
      </trkpt>
      <trkpt lat="40.5899210" lon="-4.1462490">
        <ele>1027.3</ele>
        <time>2021-05-08T08:56:17Z</time>
      </trkpt>
      <trkpt lat="40.5899270" lon="-4.1462960">
        <ele>1027.5</ele>
        <time>2021-05-08T08:56:19Z</time>
      </trkpt>
      <trkpt lat="40.5899390" lon="-4.1463410">
        <ele>1027.6</ele>
        <time>2021-05-08T08:56:20Z</time>
      </trkpt>
      <trkpt lat="40.5899470" lon="-4.1463810">
        <ele>1027.8</ele>
        <time>2021-05-08T08:56:21Z</time>
      </trkpt>
      <trkpt lat="40.5899530" lon="-4.1464200">
        <ele>1027.9</ele>
        <time>2021-05-08T08:56:23Z</time>
      </trkpt>
      <trkpt lat="40.5899560" lon="-4.1464570">
        <ele>1028.1</ele>
        <time>2021-05-08T08:56:24Z</time>
      </trkpt>
      <trkpt lat="40.5899610" lon="-4.1464990">
        <ele>1028.2</ele>
        <time>2021-05-08T08:56:25Z</time>
      </trkpt>
      <trkpt lat="40.5899700" lon="-4.1465510">
        <ele>1028.4</ele>
        <time>2021-05-08T08:56:26Z</time>
      </trkpt>
      <trkpt lat="40.5899790" lon="-4.1465880">
        <ele>1028.5</ele>
        <time>2021-05-08T08:56:28Z</time>
      </trkpt>
      <trkpt lat="40.5899860" lon="-4.1466210">
        <ele>1028.6</ele>
        <time>2021-05-08T08:56:29Z</time>
      </trkpt>
      <trkpt lat="40.5899940" lon="-4.1466770">
        <ele>1028.7</ele>
        <time>2021-05-08T08:56:31Z</time>
      </trkpt>
      <trkpt lat="40.5899980" lon="-4.1467240">
        <ele>1028.8</ele>
        <time>2021-05-08T08:56:32Z</time>
      </trkpt>
      <trkpt lat="40.5900020" lon="-4.1467570">
        <ele>1028.8</ele>
        <time>2021-05-08T08:56:33Z</time>
      </trkpt>
      <trkpt lat="40.5900190" lon="-4.1467880">
        <ele>1028.8</ele>
        <time>2021-05-08T08:56:35Z</time>
      </trkpt>
      <trkpt lat="40.5900410" lon="-4.1468180">
        <ele>1028.8</ele>
        <time>2021-05-08T08:56:36Z</time>
      </trkpt>
      <trkpt lat="40.5900650" lon="-4.1468420">
        <ele>1028.9</ele>
        <time>2021-05-08T08:56:37Z</time>
      </trkpt>
      <trkpt lat="40.5904480" lon="-4.1481190">
        <ele>1028.9</ele>
        <time>2021-05-08T08:58:19Z</time>
      </trkpt>
      <trkpt lat="40.5904410" lon="-4.1480830">
        <ele>1028.9</ele>
        <time>2021-05-08T08:58:20Z</time>
      </trkpt>
      <trkpt lat="40.5904300" lon="-4.1480240">
        <ele>1028.9</ele>
        <time>2021-05-08T08:58:22Z</time>
      </trkpt>
      <trkpt lat="40.5904130" lon="-4.1479420">
        <ele>1029.0</ele>
        <time>2021-05-08T08:58:24Z</time>
      </trkpt>
      <trkpt lat="40.5904040" lon="-4.1478850">
        <ele>1029.0</ele>
        <time>2021-05-08T08:58:25Z</time>
      </trkpt>
      <trkpt lat="40.5903920" lon="-4.1478310">
        <ele>1029.0</ele>
        <time>2021-05-08T08:58:26Z</time>
      </trkpt>
      <trkpt lat="40.5903810" lon="-4.1477630">
        <ele>1029.0</ele>
        <time>2021-05-08T08:58:27Z</time>
      </trkpt>
      <trkpt lat="40.5903730" lon="-4.1476990">
        <ele>1029.0</ele>
        <time>2021-05-08T08:58:29Z</time>
      </trkpt>
      <trkpt lat="40.5903690" lon="-4.1476490">
        <ele>1029.0</ele>
        <time>2021-05-08T08:58:30Z</time>
      </trkpt>
      <trkpt lat="40.5903600" lon="-4.1475810">
        <ele>1029.0</ele>
        <time>2021-05-08T08:58:32Z</time>
      </trkpt>
      <trkpt lat="40.5903850" lon="-4.1475460">
        <ele>1029.4</ele>
        <time>2021-05-08T08:58:33Z</time>
      </trkpt>
      <trkpt lat="40.5904370" lon="-4.1475350">
        <ele>1030.0</ele>
        <time>2021-05-08T08:58:35Z</time>
      </trkpt>
      <trkpt lat="40.5905120" lon="-4.1475360">
        <ele>1030.9</ele>
        <time>2021-05-08T08:58:37Z</time>
      </trkpt>
      <trkpt lat="40.5905650" lon="-4.1475350">
        <ele>1031.7</ele>
        <time>2021-05-08T08:58:39Z</time>
      </trkpt>
      <trkpt lat="40.5905990" lon="-4.1475310">
        <ele>1032.3</ele>
        <time>2021-05-08T08:58:40Z</time>
      </trkpt>
      <trkpt lat="40.5906280" lon="-4.1475240">
        <ele>1032.8</ele>
        <time>2021-05-08T08:58:41Z</time>
      </trkpt>
      <trkpt lat="40.5906680" lon="-4.1475150">
        <ele>1033.5</ele>
        <time>2021-05-08T08:58:42Z</time>
      </trkpt>
      <trkpt lat="40.5907010" lon="-4.1475100">
        <ele>1034.1</ele>
        <time>2021-05-08T08:58:43Z</time>
      </trkpt>
      <trkpt lat="40.5907370" lon="-4.1475060">
        <ele>1034.7</ele>
        <time>2021-05-08T08:58:44Z</time>
      </trkpt>
      <trkpt lat="40.5907660" lon="-4.1475050">
        <ele>1035.2</ele>
        <time>2021-05-08T08:58:46Z</time>
      </trkpt>
      <trkpt lat="40.5908010" lon="-4.1475010">
        <ele>1035.7</ele>
        <time>2021-05-08T08:58:47Z</time>
      </trkpt>
      <trkpt lat="40.5908290" lon="-4.1475020">
        <ele>1036.2</ele>
        <time>2021-05-08T08:58:48Z</time>
      </trkpt>
      <trkpt lat="40.5908380" lon="-4.1475090">
        <ele>1036.2</ele>
        <time>2021-05-08T08:58:50Z</time>
      </trkpt>
      <trkpt lat="40.5908300" lon="-4.1475130">
        <ele>1036.0</ele>
        <time>2021-05-08T08:58:51Z</time>
      </trkpt>
      <trkpt lat="40.5908300" lon="-4.1475080">
        <ele>1036.1</ele>
        <time>2021-05-08T08:58:52Z</time>
      </trkpt>
      <trkpt lat="40.5908360" lon="-4.1474990">
        <ele>1036.1</ele>
        <time>2021-05-08T08:58:54Z</time>
      </trkpt>
      <trkpt lat="40.5908400" lon="-4.1475010">
        <ele>1036.1</ele>
        <time>2021-05-08T08:58:55Z</time>
      </trkpt>
      <trkpt lat="40.5908500" lon="-4.1474880">
        <ele>1036.1</ele>
        <time>2021-05-08T08:58:57Z</time>
      </trkpt>
      <trkpt lat="40.5908490" lon="-4.1474840">
        <ele>1036.1</ele>
        <time>2021-05-08T08:58:59Z</time>
      </trkpt>
      <trkpt lat="40.5897540" lon="-4.1493920">
        <ele>1032.9</ele>
        <time>2021-05-08T10:36:36Z</time>
      </trkpt>
      <trkpt lat="40.5897550" lon="-4.1493790">
        <ele>1032.9</ele>
        <time>2021-05-08T10:36:38Z</time>
      </trkpt>
      <trkpt lat="40.5897570" lon="-4.1493640">
        <ele>1032.8</ele>
        <time>2021-05-08T10:36:39Z</time>
      </trkpt>
      <trkpt lat="40.5897590" lon="-4.1493480">
        <ele>1032.5</ele>
        <time>2021-05-08T10:36:40Z</time>
      </trkpt>
      <trkpt lat="40.5897610" lon="-4.1493330">
        <ele>1032.5</ele>
        <time>2021-05-08T10:36:41Z</time>
      </trkpt>
      <trkpt lat="40.5897630" lon="-4.1493180">
        <ele>1032.5</ele>
        <time>2021-05-08T10:36:42Z</time>
      </trkpt>
      <trkpt lat="40.5897880" lon="-4.1492840">
        <ele>1032.3</ele>
        <time>2021-05-08T10:36:44Z</time>
      </trkpt>
      <trkpt lat="40.5898070" lon="-4.1492670">
        <ele>1032.1</ele>
        <time>2021-05-08T10:36:45Z</time>
      </trkpt>
      <trkpt lat="40.5898450" lon="-4.1492240">
        <ele>1032.1</ele>
        <time>2021-05-08T10:36:47Z</time>
      </trkpt>
      <trkpt lat="40.5898660" lon="-4.1492010">
        <ele>1032.0</ele>
        <time>2021-05-08T10:36:48Z</time>
      </trkpt>
      <trkpt lat="40.5898920" lon="-4.1491750">
        <ele>1031.9</ele>
        <time>2021-05-08T10:36:49Z</time>
      </trkpt>
      <trkpt lat="40.5899260" lon="-4.1491530">
        <ele>1032.0</ele>
        <time>2021-05-08T10:36:51Z</time>
      </trkpt>
      <trkpt lat="40.5899360" lon="-4.1491440">
        <ele>1032.0</ele>
        <time>2021-05-08T10:36:52Z</time>
      </trkpt>
      <trkpt lat="40.5899570" lon="-4.1491150">
        <ele>1031.9</ele>
        <time>2021-05-08T10:36:53Z</time>
      </trkpt>
      <trkpt lat="40.5899820" lon="-4.1490970">
        <ele>1031.8</ele>
        <time>2021-05-08T10:36:54Z</time>
      </trkpt>
      <trkpt lat="40.5900190" lon="-4.1490650">
        <ele>1031.9</ele>
        <time>2021-05-08T10:36:56Z</time>
      </trkpt>
      <trkpt lat="40.5900550" lon="-4.1490120">
        <ele>1031.7</ele>
        <time>2021-05-08T10:36:58Z</time>
      </trkpt>
      <trkpt lat="40.5900850" lon="-4.1489780">
        <ele>1031.8</ele>
        <time>2021-05-08T10:36:59Z</time>
      </trkpt>
      <trkpt lat="40.5901090" lon="-4.1489520">
        <ele>1031.7</ele>
        <time>2021-05-08T10:37:00Z</time>
      </trkpt>
      <trkpt lat="40.5901490" lon="-4.1489000">
        <ele>1031.6</ele>
        <time>2021-05-08T10:37:02Z</time>
      </trkpt>
      <trkpt lat="40.5901810" lon="-4.1488590">
        <ele>1031.5</ele>
        <time>2021-05-08T10:37:03Z</time>
      </trkpt>
      <trkpt lat="40.5902050" lon="-4.1488120">
        <ele>1031.5</ele>
        <time>2021-05-08T10:37:04Z</time>
      </trkpt>
      <trkpt lat="40.5902250" lon="-4.1487720">
        <ele>1031.4</ele>
        <time>2021-05-08T10:37:05Z</time>
      </trkpt>
      <trkpt lat="40.5902440" lon="-4.1487400">
        <ele>1031.4</ele>
        <time>2021-05-08T10:37:06Z</time>
      </trkpt>
      <trkpt lat="40.5902610" lon="-4.1486990">
        <ele>1031.4</ele>
        <time>2021-05-08T10:37:07Z</time>
      </trkpt>
      <trkpt lat="40.5902690" lon="-4.1486530">
        <ele>1031.4</ele>
        <time>2021-05-08T10:37:08Z</time>
      </trkpt>
      <trkpt lat="40.5902790" lon="-4.1486080">
        <ele>1031.4</ele>
        <time>2021-05-08T10:37:10Z</time>
      </trkpt>
      <trkpt lat="40.5902700" lon="-4.1485750">
        <ele>1031.4</ele>
        <time>2021-05-08T10:37:11Z</time>
      </trkpt>
      <trkpt lat="40.5902560" lon="-4.1485270">
        <ele>1031.4</ele>
        <time>2021-05-08T10:37:12Z</time>
      </trkpt>
      <trkpt lat="40.5902480" lon="-4.1484750">
        <ele>1031.4</ele>
        <time>2021-05-08T10:37:13Z</time>
      </trkpt>
      <trkpt lat="40.5902450" lon="-4.1484580">
        <ele>1031.4</ele>
        <time>2021-05-08T10:37:14Z</time>
      </trkpt>
      <trkpt lat="40.5902390" lon="-4.1484160">
        <ele>1031.4</ele>
        <time>2021-05-08T10:37:16Z</time>
      </trkpt>
      <trkpt lat="40.5902310" lon="-4.1483520">
        <ele>1031.4</ele>
        <time>2021-05-08T10:37:17Z</time>
      </trkpt>
      <trkpt lat="40.5902270" lon="-4.1482970">
        <ele>1031.4</ele>
        <time>2021-05-08T10:37:19Z</time>
      </trkpt>
      <trkpt lat="40.5902170" lon="-4.1482440">
        <ele>1031.5</ele>
        <time>2021-05-08T10:37:20Z</time>
      </trkpt>
      <trkpt lat="40.5902100" lon="-4.1481940">
        <ele>1031.5</ele>
        <time>2021-05-08T10:37:22Z</time>
      </trkpt>
      <trkpt lat="40.5902040" lon="-4.1481420">
        <ele>1031.4</ele>
        <time>2021-05-08T10:37:23Z</time>
      </trkpt>
      <trkpt lat="40.5901950" lon="-4.1480920">
        <ele>1031.4</ele>
        <time>2021-05-08T10:37:24Z</time>
      </trkpt>
      <trkpt lat="40.5901970" lon="-4.1480480">
        <ele>1031.4</ele>
        <time>2021-05-08T10:37:25Z</time>
      </trkpt>
      <trkpt lat="40.5902050" lon="-4.1479870">
        <ele>1031.4</ele>
        <time>2021-05-08T10:37:27Z</time>
      </trkpt>
      <trkpt lat="40.5901920" lon="-4.1479080">
        <ele>1031.3</ele>
        <time>2021-05-08T10:37:29Z</time>
      </trkpt>
      <trkpt lat="40.5901810" lon="-4.1478540">
        <ele>1031.2</ele>
        <time>2021-05-08T10:37:30Z</time>
      </trkpt>
      <trkpt lat="40.5901640" lon="-4.1477960">
        <ele>1031.1</ele>
        <time>2021-05-08T10:37:31Z</time>
      </trkpt>
      <trkpt lat="40.5901460" lon="-4.1477280">
        <ele>1031.0</ele>
        <time>2021-05-08T10:37:33Z</time>
      </trkpt>
      <trkpt lat="40.5901330" lon="-4.1476560">
        <ele>1030.8</ele>
        <time>2021-05-08T10:37:34Z</time>
      </trkpt>
      <trkpt lat="40.5901220" lon="-4.1475870">
        <ele>1030.7</ele>
        <time>2021-05-08T10:37:36Z</time>
      </trkpt>
      <trkpt lat="40.5901090" lon="-4.1475120">
        <ele>1030.7</ele>
        <time>2021-05-08T10:37:37Z</time>
      </trkpt>
      <trkpt lat="40.5901010" lon="-4.1474400">
        <ele>1030.5</ele>
        <time>2021-05-08T10:37:39Z</time>
      </trkpt>
      <trkpt lat="40.5900980" lon="-4.1473560">
        <ele>1030.4</ele>
        <time>2021-05-08T10:37:40Z</time>
      </trkpt>
      <trkpt lat="40.5900920" lon="-4.1472900">
        <ele>1030.2</ele>
        <time>2021-05-08T10:37:42Z</time>
      </trkpt>
      <trkpt lat="40.5900850" lon="-4.1472180">
        <ele>1030.1</ele>
        <time>2021-05-08T10:37:44Z</time>
      </trkpt>
      <trkpt lat="40.5900810" lon="-4.1471650">
        <ele>1030.0</ele>
        <time>2021-05-08T10:37:45Z</time>
      </trkpt>
      <trkpt lat="40.5900790" lon="-4.1471130">
        <ele>1029.9</ele>
        <time>2021-05-08T10:37:46Z</time>
      </trkpt>
      <trkpt lat="40.5900740" lon="-4.1470700">
        <ele>1029.8</ele>
        <time>2021-05-08T10:37:47Z</time>
      </trkpt>
      <trkpt lat="40.5900690" lon="-4.1470320">
        <ele>1029.7</ele>
        <time>2021-05-08T10:37:48Z</time>
      </trkpt>
      <trkpt lat="40.5900640" lon="-4.1469810">
        <ele>1029.4</ele>
        <time>2021-05-08T10:37:50Z</time>
      </trkpt>
      <trkpt lat="40.5900610" lon="-4.1469420">
        <ele>1029.3</ele>
        <time>2021-05-08T10:37:51Z</time>
      </trkpt>
      <trkpt lat="40.5900580" lon="-4.1468900">
        <ele>1029.2</ele>
        <time>2021-05-08T10:37:52Z</time>
      </trkpt>
      <trkpt lat="40.5900510" lon="-4.1468400">
        <ele>1029.2</ele>
        <time>2021-05-08T10:37:53Z</time>
      </trkpt>
      <trkpt lat="40.5900320" lon="-4.1467840">
        <ele>1028.9</ele>
        <time>2021-05-08T10:37:55Z</time>
      </trkpt>
      <trkpt lat="40.5900190" lon="-4.1467470">
        <ele>1028.8</ele>
        <time>2021-05-08T10:37:56Z</time>
      </trkpt>
      <trkpt lat="40.5900020" lon="-4.1467020">
        <ele>1028.7</ele>
        <time>2021-05-08T10:37:57Z</time>
      </trkpt>
      <trkpt lat="40.5899950" lon="-4.1466810">
        <ele>1028.6</ele>
        <time>2021-05-08T10:37:59Z</time>
      </trkpt>
      <trkpt lat="40.5899810" lon="-4.1466640">
        <ele>1028.6</ele>
        <time>2021-05-08T10:38:00Z</time>
      </trkpt>
      <trkpt lat="40.5899700" lon="-4.1466500">
        <ele>1028.5</ele>
        <time>2021-05-08T10:38:01Z</time>
      </trkpt>
      <trkpt lat="40.5899530" lon="-4.1466160">
        <ele>1028.4</ele>
        <time>2021-05-08T10:38:03Z</time>
      </trkpt>
      <trkpt lat="40.5899400" lon="-4.1465860">
        <ele>1028.3</ele>
        <time>2021-05-08T10:38:04Z</time>
      </trkpt>
      <trkpt lat="40.5899300" lon="-4.1465480">
        <ele>1028.2</ele>
        <time>2021-05-08T10:38:06Z</time>
      </trkpt>
      <trkpt lat="40.5899320" lon="-4.1464990">
        <ele>1028.0</ele>
        <time>2021-05-08T10:38:07Z</time>
      </trkpt>
      <trkpt lat="40.5899340" lon="-4.1464510">
        <ele>1027.8</ele>
        <time>2021-05-08T10:38:08Z</time>
      </trkpt>
      <trkpt lat="40.5899300" lon="-4.1463820">
        <ele>1027.6</ele>
        <time>2021-05-08T10:38:10Z</time>
      </trkpt>
      <trkpt lat="40.5898860" lon="-4.1462840">
        <ele>1027.1</ele>
        <time>2021-05-08T10:38:11Z</time>
      </trkpt>
      <trkpt lat="40.5898440" lon="-4.1461240">
        <ele>1026.4</ele>
        <time>2021-05-08T10:38:13Z</time>
      </trkpt>
      <trkpt lat="40.5898290" lon="-4.1460420">
        <ele>1026.0</ele>
        <time>2021-05-08T10:38:14Z</time>
      </trkpt>
      <trkpt lat="40.5898130" lon="-4.1459530">
        <ele>1025.6</ele>
        <time>2021-05-08T10:38:15Z</time>
      </trkpt>
      <trkpt lat="40.5897930" lon="-4.1458470">
        <ele>1025.1</ele>
        <time>2021-05-08T10:38:16Z</time>
      </trkpt>
      <trkpt lat="40.5897710" lon="-4.1457060">
        <ele>1024.4</ele>
        <time>2021-05-08T10:38:18Z</time>
      </trkpt>
      <trkpt lat="40.5897430" lon="-4.1455630">
        <ele>1023.5</ele>
        <time>2021-05-08T10:38:20Z</time>
      </trkpt>
      <trkpt lat="40.5897400" lon="-4.1454860">
        <ele>1023.0</ele>
        <time>2021-05-08T10:38:22Z</time>
      </trkpt>
      <trkpt lat="40.5897400" lon="-4.1454380">
        <ele>1022.6</ele>
        <time>2021-05-08T10:38:23Z</time>
      </trkpt>
      <trkpt lat="40.5897570" lon="-4.1453620">
        <ele>1022.1</ele>
        <time>2021-05-08T10:38:25Z</time>
      </trkpt>
      <trkpt lat="40.5897650" lon="-4.1453170">
        <ele>1021.8</ele>
        <time>2021-05-08T10:38:26Z</time>
      </trkpt>
      <trkpt lat="40.5897610" lon="-4.1452500">
        <ele>1021.3</ele>
        <time>2021-05-08T10:38:28Z</time>
      </trkpt>
      <trkpt lat="40.5897540" lon="-4.1452050">
        <ele>1020.9</ele>
        <time>2021-05-08T10:38:29Z</time>
      </trkpt>
      <trkpt lat="40.5897510" lon="-4.1451940">
        <ele>1020.9</ele>
        <time>2021-05-08T10:38:30Z</time>
      </trkpt>
      <trkpt lat="40.5897450" lon="-4.1451750">
        <ele>1020.7</ele>
        <time>2021-05-08T10:38:31Z</time>
      </trkpt>
      <trkpt lat="40.5897360" lon="-4.1451460">
        <ele>1020.5</ele>
        <time>2021-05-08T10:38:33Z</time>
      </trkpt>
      <trkpt lat="40.5897270" lon="-4.1451300">
        <ele>1020.3</ele>
        <time>2021-05-08T10:38:34Z</time>
      </trkpt>
      <trkpt lat="40.5897200" lon="-4.1451090">
        <ele>1020.2</ele>
        <time>2021-05-08T10:38:35Z</time>
      </trkpt>
      <trkpt lat="40.5897270" lon="-4.1450560">
        <ele>1019.8</ele>
        <time>2021-05-08T10:38:36Z</time>
      </trkpt>
      <trkpt lat="40.5897330" lon="-4.1450330">
        <ele>1019.6</ele>
        <time>2021-05-08T10:38:37Z</time>
      </trkpt>
      <trkpt lat="40.5897060" lon="-4.1449440">
        <ele>1018.9</ele>
        <time>2021-05-08T10:38:39Z</time>
      </trkpt>
      <trkpt lat="40.5896770" lon="-4.1448810">
        <ele>1018.4</ele>
        <time>2021-05-08T10:38:40Z</time>
      </trkpt>
      <trkpt lat="40.5896480" lon="-4.1448050">
        <ele>1016.7</ele>
        <time>2021-05-08T10:38:41Z</time>
      </trkpt>
      <trkpt lat="40.5895940" lon="-4.1446240">
        <ele>1015.2</ele>
        <time>2021-05-08T10:38:43Z</time>
      </trkpt>
      <trkpt lat="40.5895350" lon="-4.1444170">
        <ele>1013.5</ele>
        <time>2021-05-08T10:38:45Z</time>
      </trkpt>
      <trkpt lat="40.5894710" lon="-4.1442230">
        <ele>1011.9</ele>
        <time>2021-05-08T10:38:47Z</time>
      </trkpt>
      <trkpt lat="40.5894420" lon="-4.1441280">
        <ele>1011.1</ele>
        <time>2021-05-08T10:38:48Z</time>
      </trkpt>
      <trkpt lat="40.5894180" lon="-4.1440390">
        <ele>1010.4</ele>
        <time>2021-05-08T10:38:49Z</time>
      </trkpt>
      <trkpt lat="40.5894020" lon="-4.1439470">
        <ele>1009.7</ele>
        <time>2021-05-08T10:38:50Z</time>
      </trkpt>
      <trkpt lat="40.5893870" lon="-4.1437620">
        <ele>1008.3</ele>
        <time>2021-05-08T10:38:52Z</time>
      </trkpt>
      <trkpt lat="40.5893920" lon="-4.1436770">
        <ele>1007.7</ele>
        <time>2021-05-08T10:38:53Z</time>
      </trkpt>
      <trkpt lat="40.5894110" lon="-4.1435050">
        <ele>1006.4</ele>
        <time>2021-05-08T10:38:55Z</time>
      </trkpt>
      <trkpt lat="40.5894400" lon="-4.1433910">
        <ele>1005.5</ele>
        <time>2021-05-08T10:38:57Z</time>
      </trkpt>
      <trkpt lat="40.5894810" lon="-4.1432590">
        <ele>1004.4</ele>
        <time>2021-05-08T10:38:58Z</time>
      </trkpt>
      <trkpt lat="40.5895060" lon="-4.1431760">
        <ele>1003.8</ele>
        <time>2021-05-08T10:38:59Z</time>
      </trkpt>
      <trkpt lat="40.5895300" lon="-4.1431030">
        <ele>1003.2</ele>
        <time>2021-05-08T10:39:00Z</time>
      </trkpt>
      <trkpt lat="40.5895740" lon="-4.1429780">
        <ele>1002.2</ele>
        <time>2021-05-08T10:39:02Z</time>
      </trkpt>
      <trkpt lat="40.5895930" lon="-4.1429160">
        <ele>1001.8</ele>
        <time>2021-05-08T10:39:03Z</time>
      </trkpt>
      <trkpt lat="40.5896340" lon="-4.1427810">
        <ele>1000.7</ele>
        <time>2021-05-08T10:39:05Z</time>
      </trkpt>
      <trkpt lat="40.5896760" lon="-4.1426320">
        <ele>999.6</ele>
        <time>2021-05-08T10:39:07Z</time>
      </trkpt>
      <trkpt lat="40.5896960" lon="-4.1425500">
        <ele>998.9</ele>
        <time>2021-05-08T10:39:08Z</time>
      </trkpt>
      <trkpt lat="40.5897190" lon="-4.1424700">
        <ele>998.3</ele>
        <time>2021-05-08T10:39:09Z</time>
      </trkpt>
      <trkpt lat="40.5897610" lon="-4.1423190">
        <ele>997.3</ele>
        <time>2021-05-08T10:39:11Z</time>
      </trkpt>
      <trkpt lat="40.5898110" lon="-4.1421530">
        <ele>996.0</ele>
        <time>2021-05-08T10:39:13Z</time>
      </trkpt>
      <trkpt lat="40.5898730" lon="-4.1419600">
        <ele>993.9</ele>
        <time>2021-05-08T10:39:15Z</time>
      </trkpt>
      <trkpt lat="40.5899130" lon="-4.1418260">
        <ele>992.7</ele>
        <time>2021-05-08T10:39:17Z</time>
      </trkpt>
      <trkpt lat="40.5899440" lon="-4.1416770">
        <ele>991.7</ele>
        <time>2021-05-08T10:39:18Z</time>
      </trkpt>
      <trkpt lat="40.5899650" lon="-4.1414720">
        <ele>990.3</ele>
        <time>2021-05-08T10:39:20Z</time>
      </trkpt>
      <trkpt lat="40.5899690" lon="-4.1413710">
        <ele>989.7</ele>
        <time>2021-05-08T10:39:21Z</time>
      </trkpt>
      <trkpt lat="40.5899670" lon="-4.1412720">
        <ele>988.9</ele>
        <time>2021-05-08T10:39:22Z</time>
      </trkpt>
      <trkpt lat="40.5899570" lon="-4.1411900">
        <ele>988.2</ele>
        <time>2021-05-08T10:39:23Z</time>
      </trkpt>
      <trkpt lat="40.5899120" lon="-4.1410400">
        <ele>986.9</ele>
        <time>2021-05-08T10:39:25Z</time>
      </trkpt>
      <trkpt lat="40.5898520" lon="-4.1408800">
        <ele>985.4</ele>
        <time>2021-05-08T10:39:27Z</time>
      </trkpt>
      <trkpt lat="40.5897970" lon="-4.1407030">
        <ele>983.9</ele>
        <time>2021-05-08T10:39:29Z</time>
      </trkpt>
      <trkpt lat="40.5897390" lon="-4.1405040">
        <ele>983.2</ele>
        <time>2021-05-08T10:39:31Z</time>
      </trkpt>
      <trkpt lat="40.5896760" lon="-4.1402760">
        <ele>981.3</ele>
        <time>2021-05-08T10:39:33Z</time>
      </trkpt>
      <trkpt lat="40.5896040" lon="-4.1400290">
        <ele>979.2</ele>
        <time>2021-05-08T10:39:35Z</time>
      </trkpt>
      <trkpt lat="40.5895660" lon="-4.1399000">
        <ele>978.1</ele>
        <time>2021-05-08T10:39:36Z</time>
      </trkpt>
      <trkpt lat="40.5895360" lon="-4.1397920">
        <ele>977.2</ele>
        <time>2021-05-08T10:39:37Z</time>
      </trkpt>
      <trkpt lat="40.5894690" lon="-4.1395260">
        <ele>974.9</ele>
        <time>2021-05-08T10:39:39Z</time>
      </trkpt>
      <trkpt lat="40.5894000" lon="-4.1392810">
        <ele>973.9</ele>
        <time>2021-05-08T10:39:41Z</time>
      </trkpt>
      <trkpt lat="40.5893680" lon="-4.1391600">
        <ele>972.8</ele>
        <time>2021-05-08T10:39:42Z</time>
      </trkpt>
      <trkpt lat="40.5893360" lon="-4.1390420">
        <ele>971.8</ele>
        <time>2021-05-08T10:39:43Z</time>
      </trkpt>
      <trkpt lat="40.5892770" lon="-4.1388090">
        <ele>969.8</ele>
        <time>2021-05-08T10:39:45Z</time>
      </trkpt>
      <trkpt lat="40.5892430" lon="-4.1386950">
        <ele>968.7</ele>
        <time>2021-05-08T10:39:46Z</time>
      </trkpt>
      <trkpt lat="40.5892100" lon="-4.1385830">
        <ele>967.7</ele>
        <time>2021-05-08T10:39:47Z</time>
      </trkpt>
      <trkpt lat="40.5891510" lon="-4.1383600">
        <ele>965.8</ele>
        <time>2021-05-08T10:39:49Z</time>
      </trkpt>
      <trkpt lat="40.5891220" lon="-4.1382510">
        <ele>964.9</ele>
        <time>2021-05-08T10:39:50Z</time>
      </trkpt>
      <trkpt lat="40.5890820" lon="-4.1380690">
        <ele>963.6</ele>
        <time>2021-05-08T10:39:52Z</time>
      </trkpt>
      <trkpt lat="40.5890550" lon="-4.1379920">
        <ele>963.1</ele>
        <time>2021-05-08T10:39:54Z</time>
      </trkpt>
      <trkpt lat="40.5890490" lon="-4.1379910">
        <ele>963.0</ele>
        <time>2021-05-08T10:39:55Z</time>
      </trkpt>
      <trkpt lat="40.5890580" lon="-4.1379990">
        <ele>962.9</ele>
        <time>2021-05-08T10:39:57Z</time>
      </trkpt>
      <trkpt lat="40.5890600" lon="-4.1380060">
        <ele>962.9</ele>
        <time>2021-05-08T10:39:59Z</time>
      </trkpt>
      <trkpt lat="40.5890620" lon="-4.1380080">
        <ele>962.9</ele>
        <time>2021-05-08T10:40:00Z</time>
      </trkpt>
      <trkpt lat="40.5890660" lon="-4.1380060">
        <ele>962.9</ele>
        <time>2021-05-08T10:40:01Z</time>
      </trkpt>
      <trkpt lat="40.5890750" lon="-4.1379940">
        <ele>962.8</ele>
        <time>2021-05-08T10:40:03Z</time>
      </trkpt>
      <trkpt lat="40.5890640" lon="-4.1379580">
        <ele>962.5</ele>
        <time>2021-05-08T10:40:04Z</time>
      </trkpt>
      <trkpt lat="40.5890500" lon="-4.1379050">
        <ele>962.2</ele>
        <time>2021-05-08T10:40:05Z</time>
      </trkpt>
      <trkpt lat="40.5890380" lon="-4.1378430">
        <ele>961.9</ele>
        <time>2021-05-08T10:40:06Z</time>
      </trkpt>
      <trkpt lat="40.5890200" lon="-4.1377720">
        <ele>961.4</ele>
        <time>2021-05-08T10:40:08Z</time>
      </trkpt>
      <trkpt lat="40.5889990" lon="-4.1377200">
        <ele>961.1</ele>
        <time>2021-05-08T10:40:09Z</time>
      </trkpt>
      <trkpt lat="40.5889850" lon="-4.1376750">
        <ele>960.8</ele>
        <time>2021-05-08T10:40:11Z</time>
      </trkpt>
      <trkpt lat="40.5889810" lon="-4.1376590">
        <ele>960.7</ele>
        <time>2021-05-08T10:40:12Z</time>
      </trkpt>
      <trkpt lat="40.5889650" lon="-4.1376090">
        <ele>960.4</ele>
        <time>2021-05-08T10:40:13Z</time>
      </trkpt>
      <trkpt lat="40.5889470" lon="-4.1375610">
        <ele>960.0</ele>
        <time>2021-05-08T10:40:15Z</time>
      </trkpt>
      <trkpt lat="40.5889330" lon="-4.1375190">
        <ele>959.7</ele>
        <time>2021-05-08T10:40:16Z</time>
      </trkpt>
      <trkpt lat="40.5889110" lon="-4.1374880">
        <ele>959.4</ele>
        <time>2021-05-08T10:40:17Z</time>
      </trkpt>
      <trkpt lat="40.5888960" lon="-4.1374710">
        <ele>959.2</ele>
        <time>2021-05-08T10:40:18Z</time>
      </trkpt>
      <trkpt lat="40.5888910" lon="-4.1374400">
        <ele>958.9</ele>
        <time>2021-05-08T10:40:20Z</time>
      </trkpt>
      <trkpt lat="40.5888960" lon="-4.1374360">
        <ele>958.9</ele>
        <time>2021-05-08T10:40:21Z</time>
      </trkpt>
      <trkpt lat="40.5888960" lon="-4.1374310">
        <ele>958.9</ele>
        <time>2021-05-08T10:40:22Z</time>
      </trkpt>
      <trkpt lat="40.5888970" lon="-4.1374270">
        <ele>958.8</ele>
        <time>2021-05-08T10:40:23Z</time>
      </trkpt>
      <trkpt lat="40.5888970" lon="-4.1374220">
        <ele>958.8</ele>
        <time>2021-05-08T10:40:25Z</time>
      </trkpt>
      <trkpt lat="40.5888980" lon="-4.1374180">
        <ele>958.8</ele>
        <time>2021-05-08T10:40:26Z</time>
      </trkpt>
      <trkpt lat="40.5888980" lon="-4.1374130">
        <ele>958.7</ele>
        <time>2021-05-08T10:40:27Z</time>
      </trkpt>
      <trkpt lat="40.5888990" lon="-4.1374090">
        <ele>958.7</ele>
        <time>2021-05-08T10:40:28Z</time>
      </trkpt>
      <trkpt lat="40.5888990" lon="-4.1374040">
        <ele>958.6</ele>
        <time>2021-05-08T10:40:29Z</time>
      </trkpt>
      <trkpt lat="40.5889000" lon="-4.1374000">
        <ele>958.6</ele>
        <time>2021-05-08T10:40:30Z</time>
      </trkpt>
      <trkpt lat="40.5889000" lon="-4.1373950">
        <ele>958.6</ele>
        <time>2021-05-08T10:40:32Z</time>
      </trkpt>
      <trkpt lat="40.5889010" lon="-4.1373910">
        <ele>958.5</ele>
        <time>2021-05-08T10:40:33Z</time>
      </trkpt>
      <trkpt lat="40.5888770" lon="-4.1373060">
        <ele>957.9</ele>
        <time>2021-05-08T10:40:35Z</time>
      </trkpt>
      <trkpt lat="40.5888570" lon="-4.1372430">
        <ele>957.4</ele>
        <time>2021-05-08T10:40:36Z</time>
      </trkpt>
      <trkpt lat="40.5888390" lon="-4.1371790">
        <ele>956.9</ele>
        <time>2021-05-08T10:40:37Z</time>
      </trkpt>
      <trkpt lat="40.5888020" lon="-4.1370280">
        <ele>955.7</ele>
        <time>2021-05-08T10:40:39Z</time>
      </trkpt>
      <trkpt lat="40.5887840" lon="-4.1369470">
        <ele>955.1</ele>
        <time>2021-05-08T10:40:40Z</time>
      </trkpt>
      <trkpt lat="40.5887550" lon="-4.1368290">
        <ele>954.3</ele>
        <time>2021-05-08T10:40:42Z</time>
      </trkpt>
      <trkpt lat="40.5887200" lon="-4.1366830">
        <ele>953.2</ele>
        <time>2021-05-08T10:40:43Z</time>
      </trkpt>
      <trkpt lat="40.5886950" lon="-4.1365860">
        <ele>952.6</ele>
        <time>2021-05-08T10:40:44Z</time>
      </trkpt>
      <trkpt lat="40.5886660" lon="-4.1364930">
        <ele>951.9</ele>
        <time>2021-05-08T10:40:45Z</time>
      </trkpt>
      <trkpt lat="40.5886110" lon="-4.1363080">
        <ele>950.6</ele>
        <time>2021-05-08T10:40:47Z</time>
      </trkpt>
      <trkpt lat="40.5885820" lon="-4.1362080">
        <ele>949.9</ele>
        <time>2021-05-08T10:40:48Z</time>
      </trkpt>
      <trkpt lat="40.5885100" lon="-4.1359920">
        <ele>948.3</ele>
        <time>2021-05-08T10:40:50Z</time>
      </trkpt>
      <trkpt lat="40.5884640" lon="-4.1358780">
        <ele>947.4</ele>
        <time>2021-05-08T10:40:51Z</time>
      </trkpt>
      <trkpt lat="40.5884120" lon="-4.1357650">
        <ele>946.6</ele>
        <time>2021-05-08T10:40:52Z</time>
      </trkpt>
      <trkpt lat="40.5883560" lon="-4.1356520">
        <ele>945.7</ele>
        <time>2021-05-08T10:40:53Z</time>
      </trkpt>
      <trkpt lat="40.5882170" lon="-4.1354440">
        <ele>944.1</ele>
        <time>2021-05-08T10:40:55Z</time>
      </trkpt>
      <trkpt lat="40.5880600" lon="-4.1352460">
        <ele>942.6</ele>
        <time>2021-05-08T10:40:57Z</time>
      </trkpt>
      <trkpt lat="40.5879820" lon="-4.1351590">
        <ele>942.0</ele>
        <time>2021-05-08T10:40:58Z</time>
      </trkpt>
      <trkpt lat="40.5878260" lon="-4.1349900">
        <ele>941.1</ele>
        <time>2021-05-08T10:41:00Z</time>
      </trkpt>
      <trkpt lat="40.5877250" lon="-4.1348740">
        <ele>940.5</ele>
        <time>2021-05-08T10:41:02Z</time>
      </trkpt>
      <trkpt lat="40.5875950" lon="-4.1347390">
        <ele>940.0</ele>
        <time>2021-05-08T10:41:03Z</time>
      </trkpt>
      <trkpt lat="40.5874310" lon="-4.1346030">
        <ele>939.9</ele>
        <time>2021-05-08T10:41:05Z</time>
      </trkpt>
      <trkpt lat="40.5872530" lon="-4.1345220">
        <ele>939.3</ele>
        <time>2021-05-08T10:41:07Z</time>
      </trkpt>
      <trkpt lat="40.5871590" lon="-4.1344920">
        <ele>938.8</ele>
        <time>2021-05-08T10:41:08Z</time>
      </trkpt>
      <trkpt lat="40.5869810" lon="-4.1344640">
        <ele>937.9</ele>
        <time>2021-05-08T10:41:10Z</time>
      </trkpt>
      <trkpt lat="40.5868100" lon="-4.1345010">
        <ele>937.1</ele>
        <time>2021-05-08T10:41:12Z</time>
      </trkpt>
      <trkpt lat="40.5866640" lon="-4.1345520">
        <ele>936.4</ele>
        <time>2021-05-08T10:41:14Z</time>
      </trkpt>
      <trkpt lat="40.5865620" lon="-4.1345940">
        <ele>936.0</ele>
        <time>2021-05-08T10:41:16Z</time>
      </trkpt>
      <trkpt lat="40.5864590" lon="-4.1346210">
        <ele>935.6</ele>
        <time>2021-05-08T10:41:18Z</time>
      </trkpt>
      <trkpt lat="40.5863970" lon="-4.1346380">
        <ele>935.4</ele>
        <time>2021-05-08T10:41:19Z</time>
      </trkpt>
      <trkpt lat="40.5863320" lon="-4.1346520">
        <ele>935.1</ele>
        <time>2021-05-08T10:41:20Z</time>
      </trkpt>
      <trkpt lat="40.5862440" lon="-4.1346670">
        <ele>934.8</ele>
        <time>2021-05-08T10:41:21Z</time>
      </trkpt>
      <trkpt lat="40.5861320" lon="-4.1346750">
        <ele>934.4</ele>
        <time>2021-05-08T10:41:23Z</time>
      </trkpt>
      <trkpt lat="40.5859980" lon="-4.1346800">
        <ele>934.0</ele>
        <time>2021-05-08T10:41:25Z</time>
      </trkpt>
      <trkpt lat="40.5859400" lon="-4.1346800">
        <ele>933.9</ele>
        <time>2021-05-08T10:41:26Z</time>
      </trkpt>
      <trkpt lat="40.5858680" lon="-4.1346750">
        <ele>933.7</ele>
        <time>2021-05-08T10:41:28Z</time>
      </trkpt>
      <trkpt lat="40.5858350" lon="-4.1346630">
        <ele>933.6</ele>
        <time>2021-05-08T10:41:29Z</time>
      </trkpt>
      <trkpt lat="40.5858270" lon="-4.1346580">
        <ele>933.6</ele>
        <time>2021-05-08T10:41:30Z</time>
      </trkpt>
      <trkpt lat="40.5858020" lon="-4.1346480">
        <ele>933.5</ele>
        <time>2021-05-08T10:41:32Z</time>
      </trkpt>
      <trkpt lat="40.5857920" lon="-4.1346460">
        <ele>933.5</ele>
        <time>2021-05-08T10:41:33Z</time>
      </trkpt>
      <trkpt lat="40.5857820" lon="-4.1346430">
        <ele>933.5</ele>
        <time>2021-05-08T10:41:35Z</time>
      </trkpt>
      <trkpt lat="40.5857720" lon="-4.1346400">
        <ele>933.4</ele>
        <time>2021-05-08T10:41:37Z</time>
      </trkpt>
      <trkpt lat="40.5857630" lon="-4.1346370">
        <ele>933.4</ele>
        <time>2021-05-08T10:41:38Z</time>
      </trkpt>
      <trkpt lat="40.5857530" lon="-4.1346350">
        <ele>933.4</ele>
        <time>2021-05-08T10:41:39Z</time>
      </trkpt>
      <trkpt lat="40.5857430" lon="-4.1346320">
        <ele>933.3</ele>
        <time>2021-05-08T10:41:41Z</time>
      </trkpt>
      <trkpt lat="40.5857330" lon="-4.1346290">
        <ele>933.3</ele>
        <time>2021-05-08T10:41:42Z</time>
      </trkpt>
      <trkpt lat="40.5857230" lon="-4.1346270">
        <ele>933.3</ele>
        <time>2021-05-08T10:41:56Z</time>
      </trkpt>
      <trkpt lat="40.5857130" lon="-4.1346240">
        <ele>933.3</ele>
        <time>2021-05-08T10:41:57Z</time>
      </trkpt>
      <trkpt lat="40.5856490" lon="-4.1346180">
        <ele>933.1</ele>
        <time>2021-05-08T10:41:59Z</time>
      </trkpt>
      <trkpt lat="40.5856090" lon="-4.1346120">
        <ele>932.9</ele>
        <time>2021-05-08T10:42:00Z</time>
      </trkpt>
      <trkpt lat="40.5855530" lon="-4.1345830">
        <ele>932.7</ele>
        <time>2021-05-08T10:42:01Z</time>
      </trkpt>
      <trkpt lat="40.5855030" lon="-4.1345470">
        <ele>932.6</ele>
        <time>2021-05-08T10:42:02Z</time>
      </trkpt>
      <trkpt lat="40.5854570" lon="-4.1345080">
        <ele>932.5</ele>
        <time>2021-05-08T10:42:03Z</time>
      </trkpt>
      <trkpt lat="40.5853930" lon="-4.1344560">
        <ele>932.3</ele>
        <time>2021-05-08T10:42:05Z</time>
      </trkpt>
      <trkpt lat="40.5853310" lon="-4.1343950">
        <ele>932.1</ele>
        <time>2021-05-08T10:42:06Z</time>
      </trkpt>
      <trkpt lat="40.5852500" lon="-4.1342970">
        <ele>931.7</ele>
        <time>2021-05-08T10:42:08Z</time>
      </trkpt>
      <trkpt lat="40.5851770" lon="-4.1341910">
        <ele>931.2</ele>
        <time>2021-05-08T10:42:10Z</time>
      </trkpt>
      <trkpt lat="40.5851390" lon="-4.1341320">
        <ele>930.9</ele>
        <time>2021-05-08T10:42:11Z</time>
      </trkpt>
      <trkpt lat="40.5850650" lon="-4.1340030">
        <ele>930.2</ele>
        <time>2021-05-08T10:42:13Z</time>
      </trkpt>
      <trkpt lat="40.5850280" lon="-4.1339360">
        <ele>929.8</ele>
        <time>2021-05-08T10:42:14Z</time>
      </trkpt>
      <trkpt lat="40.5849910" lon="-4.1338630">
        <ele>929.3</ele>
        <time>2021-05-08T10:42:15Z</time>
      </trkpt>
      <trkpt lat="40.5849530" lon="-4.1337810">
        <ele>928.7</ele>
        <time>2021-05-08T10:42:16Z</time>
      </trkpt>
      <trkpt lat="40.5849130" lon="-4.1336920">
        <ele>928.1</ele>
        <time>2021-05-08T10:42:17Z</time>
      </trkpt>
      <trkpt lat="40.5848240" lon="-4.1335050">
        <ele>926.7</ele>
        <time>2021-05-08T10:42:19Z</time>
      </trkpt>
      <trkpt lat="40.5847730" lon="-4.1334030">
        <ele>925.9</ele>
        <time>2021-05-08T10:42:20Z</time>
      </trkpt>
      <trkpt lat="40.5846680" lon="-4.1332010">
        <ele>924.4</ele>
        <time>2021-05-08T10:42:22Z</time>
      </trkpt>
      <trkpt lat="40.5845550" lon="-4.1329860">
        <ele>922.7</ele>
        <time>2021-05-08T10:42:24Z</time>
      </trkpt>
      <trkpt lat="40.5844350" lon="-4.1327520">
        <ele>920.4</ele>
        <time>2021-05-08T10:42:26Z</time>
      </trkpt>
      <trkpt lat="40.5843110" lon="-4.1325110">
        <ele>918.5</ele>
        <time>2021-05-08T10:42:28Z</time>
      </trkpt>
      <trkpt lat="40.5842420" lon="-4.1323900">
        <ele>917.9</ele>
        <time>2021-05-08T10:42:29Z</time>
      </trkpt>
      <trkpt lat="40.5841070" lon="-4.1321490">
        <ele>917.2</ele>
        <time>2021-05-08T10:42:31Z</time>
      </trkpt>
      <trkpt lat="40.5839300" lon="-4.1318230">
        <ele>917.1</ele>
        <time>2021-05-08T10:42:34Z</time>
      </trkpt>
      <trkpt lat="40.5838710" lon="-4.1315900">
        <ele>917.2</ele>
        <time>2021-05-08T10:42:36Z</time>
      </trkpt>
      <trkpt lat="40.5837480" lon="-4.1314000">
        <ele>917.4</ele>
        <time>2021-05-08T10:42:38Z</time>
      </trkpt>
      <trkpt lat="40.5836300" lon="-4.1312380">
        <ele>917.5</ele>
        <time>2021-05-08T10:42:40Z</time>
      </trkpt>
      <trkpt lat="40.5835330" lon="-4.1311150">
        <ele>917.5</ele>
        <time>2021-05-08T10:42:42Z</time>
      </trkpt>
      <trkpt lat="40.5834850" lon="-4.1310540">
        <ele>917.5</ele>
        <time>2021-05-08T10:42:43Z</time>
      </trkpt>
      <trkpt lat="40.5834030" lon="-4.1309270">
        <ele>917.4</ele>
        <time>2021-05-08T10:42:45Z</time>
      </trkpt>
      <trkpt lat="40.5833630" lon="-4.1308600">
        <ele>917.3</ele>
        <time>2021-05-08T10:42:46Z</time>
      </trkpt>
      <trkpt lat="40.5832800" lon="-4.1307230">
        <ele>917.1</ele>
        <time>2021-05-08T10:42:48Z</time>
      </trkpt>
      <trkpt lat="40.5832390" lon="-4.1306560">
        <ele>916.8</ele>
        <time>2021-05-08T10:42:49Z</time>
      </trkpt>
      <trkpt lat="40.5831990" lon="-4.1305900">
        <ele>916.6</ele>
        <time>2021-05-08T10:42:50Z</time>
      </trkpt>
      <trkpt lat="40.5831270" lon="-4.1304660">
        <ele>916.6</ele>
        <time>2021-05-08T10:42:52Z</time>
      </trkpt>
      <trkpt lat="40.5831010" lon="-4.1304090">
        <ele>916.5</ele>
        <time>2021-05-08T10:42:53Z</time>
      </trkpt>
      <trkpt lat="40.5830560" lon="-4.1303360">
        <ele>916.5</ele>
        <time>2021-05-08T10:42:55Z</time>
      </trkpt>
      <trkpt lat="40.5830340" lon="-4.1303050">
        <ele>916.5</ele>
        <time>2021-05-08T10:42:56Z</time>
      </trkpt>
      <trkpt lat="40.5829950" lon="-4.1302450">
        <ele>916.4</ele>
        <time>2021-05-08T10:42:58Z</time>
      </trkpt>
      <trkpt lat="40.5829810" lon="-4.1302240">
        <ele>916.4</ele>
        <time>2021-05-08T10:42:59Z</time>
      </trkpt>
      <trkpt lat="40.5829640" lon="-4.1301930">
        <ele>916.4</ele>
        <time>2021-05-08T10:43:01Z</time>
      </trkpt>
      <trkpt lat="40.5829580" lon="-4.1301650">
        <ele>916.3</ele>
        <time>2021-05-08T10:43:02Z</time>
      </trkpt>
      <trkpt lat="40.5829530" lon="-4.1301610">
        <ele>916.3</ele>
        <time>2021-05-08T10:43:04Z</time>
      </trkpt>
      <trkpt lat="40.5828650" lon="-4.1301020">
        <ele>916.2</ele>
        <time>2021-05-08T10:50:25Z</time>
      </trkpt>
      <trkpt lat="40.5828650" lon="-4.1301020">
        <ele>916.2</ele>
        <time>2021-05-08T10:50:26Z</time>
      </trkpt>
      <trkpt lat="40.5828560" lon="-4.1300850">
        <ele>916.2</ele>
        <time>2021-05-08T10:50:28Z</time>
      </trkpt>
      <trkpt lat="40.5828660" lon="-4.1300920">
        <ele>916.2</ele>
        <time>2021-05-08T10:50:30Z</time>
      </trkpt>
      <trkpt lat="40.5828780" lon="-4.1301080">
        <ele>916.1</ele>
        <time>2021-05-08T10:50:31Z</time>
      </trkpt>
      <trkpt lat="40.5828780" lon="-4.1301110">
        <ele>916.1</ele>
        <time>2021-05-08T10:50:32Z</time>
      </trkpt>
      <trkpt lat="40.5828540" lon="-4.1300280">
        <ele>916.0</ele>
        <time>2021-05-08T10:50:34Z</time>
      </trkpt>
      <trkpt lat="40.5828510" lon="-4.1299880">
        <ele>916.0</ele>
        <time>2021-05-08T10:50:35Z</time>
      </trkpt>
      <trkpt lat="40.5828490" lon="-4.1299320">
        <ele>916.0</ele>
        <time>2021-05-08T10:50:37Z</time>
      </trkpt>
      <trkpt lat="40.5828350" lon="-4.1298860">
        <ele>915.9</ele>
        <time>2021-05-08T10:50:38Z</time>
      </trkpt>
      <trkpt lat="40.5828280" lon="-4.1298720">
        <ele>915.8</ele>
        <time>2021-05-08T10:50:39Z</time>
      </trkpt>
      <trkpt lat="40.5827950" lon="-4.1298200">
        <ele>915.7</ele>
        <time>2021-05-08T10:50:41Z</time>
      </trkpt>
      <trkpt lat="40.5827750" lon="-4.1297940">
        <ele>915.7</ele>
        <time>2021-05-08T10:50:42Z</time>
      </trkpt>
      <trkpt lat="40.5827400" lon="-4.1297290">
        <ele>915.5</ele>
        <time>2021-05-08T10:50:44Z</time>
      </trkpt>
      <trkpt lat="40.5827100" lon="-4.1296730">
        <ele>915.4</ele>
        <time>2021-05-08T10:50:45Z</time>
      </trkpt>
      <trkpt lat="40.5826860" lon="-4.1296310">
        <ele>915.3</ele>
        <time>2021-05-08T10:50:47Z</time>
      </trkpt>
      <trkpt lat="40.5826480" lon="-4.1295690">
        <ele>915.1</ele>
        <time>2021-05-08T10:50:49Z</time>
      </trkpt>
      <trkpt lat="40.5826180" lon="-4.1295160">
        <ele>915.0</ele>
        <time>2021-05-08T10:50:51Z</time>
      </trkpt>
      <trkpt lat="40.5826010" lon="-4.1294860">
        <ele>915.0</ele>
        <time>2021-05-08T10:50:52Z</time>
      </trkpt>
      <trkpt lat="40.5825950" lon="-4.1294690">
        <ele>915.0</ele>
        <time>2021-05-08T10:50:53Z</time>
      </trkpt>
      <trkpt lat="40.5825800" lon="-4.1294320">
        <ele>914.9</ele>
        <time>2021-05-08T10:50:55Z</time>
      </trkpt>
      <trkpt lat="40.5825650" lon="-4.1294060">
        <ele>914.8</ele>
        <time>2021-05-08T10:50:56Z</time>
      </trkpt>
      <trkpt lat="40.5825320" lon="-4.1293470">
        <ele>914.7</ele>
        <time>2021-05-08T10:50:58Z</time>
      </trkpt>
      <trkpt lat="40.5825160" lon="-4.1293130">
        <ele>914.7</ele>
        <time>2021-05-08T10:50:59Z</time>
      </trkpt>
      <trkpt lat="40.5824880" lon="-4.1292510">
        <ele>914.5</ele>
        <time>2021-05-08T10:51:01Z</time>
      </trkpt>
      <trkpt lat="40.5824660" lon="-4.1292090">
        <ele>914.4</ele>
        <time>2021-05-08T10:51:02Z</time>
      </trkpt>
      <trkpt lat="40.5824240" lon="-4.1291370">
        <ele>914.3</ele>
        <time>2021-05-08T10:51:04Z</time>
      </trkpt>
      <trkpt lat="40.5823810" lon="-4.1290660">
        <ele>914.1</ele>
        <time>2021-05-08T10:51:06Z</time>
      </trkpt>
      <trkpt lat="40.5823300" lon="-4.1289930">
        <ele>913.9</ele>
        <time>2021-05-08T10:51:08Z</time>
      </trkpt>
      <trkpt lat="40.5823060" lon="-4.1289520">
        <ele>913.9</ele>
        <time>2021-05-08T10:51:09Z</time>
      </trkpt>
      <trkpt lat="40.5822830" lon="-4.1289100">
        <ele>913.8</ele>
        <time>2021-05-08T10:51:10Z</time>
      </trkpt>
      <trkpt lat="40.5822500" lon="-4.1288590">
        <ele>913.7</ele>
        <time>2021-05-08T10:51:11Z</time>
      </trkpt>
      <trkpt lat="40.5822010" lon="-4.1287790">
        <ele>913.5</ele>
        <time>2021-05-08T10:51:13Z</time>
      </trkpt>
      <trkpt lat="40.5821620" lon="-4.1286970">
        <ele>913.3</ele>
        <time>2021-05-08T10:51:15Z</time>
      </trkpt>
      <trkpt lat="40.5821380" lon="-4.1286530">
        <ele>913.2</ele>
        <time>2021-05-08T10:51:16Z</time>
      </trkpt>
      <trkpt lat="40.5820950" lon="-4.1285750">
        <ele>913.0</ele>
        <time>2021-05-08T10:51:17Z</time>
      </trkpt>
      <trkpt lat="40.5820620" lon="-4.1285100">
        <ele>912.7</ele>
        <time>2021-05-08T10:51:19Z</time>
      </trkpt>
      <trkpt lat="40.5820260" lon="-4.1284450">
        <ele>912.5</ele>
        <time>2021-05-08T10:51:20Z</time>
      </trkpt>
      <trkpt lat="40.5819940" lon="-4.1283900">
        <ele>912.3</ele>
        <time>2021-05-08T10:51:21Z</time>
      </trkpt>
      <trkpt lat="40.5819330" lon="-4.1282830">
        <ele>911.9</ele>
        <time>2021-05-08T10:51:23Z</time>
      </trkpt>
      <trkpt lat="40.5819020" lon="-4.1282280">
        <ele>911.7</ele>
        <time>2021-05-08T10:51:24Z</time>
      </trkpt>
      <trkpt lat="40.5818400" lon="-4.1281040">
        <ele>911.2</ele>
        <time>2021-05-08T10:51:26Z</time>
      </trkpt>
      <trkpt lat="40.5817710" lon="-4.1279750">
        <ele>910.8</ele>
        <time>2021-05-08T10:51:28Z</time>
      </trkpt>
      <trkpt lat="40.5817390" lon="-4.1279050">
        <ele>910.5</ele>
        <time>2021-05-08T10:51:29Z</time>
      </trkpt>
      <trkpt lat="40.5816810" lon="-4.1277520">
        <ele>909.9</ele>
        <time>2021-05-08T10:51:31Z</time>
      </trkpt>
      <trkpt lat="40.5816320" lon="-4.1275960">
        <ele>909.2</ele>
        <time>2021-05-08T10:51:33Z</time>
      </trkpt>
      <trkpt lat="40.5816010" lon="-4.1274250">
        <ele>908.4</ele>
        <time>2021-05-08T10:51:35Z</time>
      </trkpt>
      <trkpt lat="40.5816060" lon="-4.1273280">
        <ele>908.0</ele>
        <time>2021-05-08T10:51:36Z</time>
      </trkpt>
      <trkpt lat="40.5816320" lon="-4.1271150">
        <ele>906.9</ele>
        <time>2021-05-08T10:51:38Z</time>
      </trkpt>
      <trkpt lat="40.5816480" lon="-4.1270070">
        <ele>906.4</ele>
        <time>2021-05-08T10:51:39Z</time>
      </trkpt>
      <trkpt lat="40.5816760" lon="-4.1267830">
        <ele>905.4</ele>
        <time>2021-05-08T10:51:41Z</time>
      </trkpt>
      <trkpt lat="40.5817210" lon="-4.1265610">
        <ele>904.3</ele>
        <time>2021-05-08T10:51:43Z</time>
      </trkpt>
      <trkpt lat="40.5817510" lon="-4.1264440">
        <ele>903.8</ele>
        <time>2021-05-08T10:51:44Z</time>
      </trkpt>
      <trkpt lat="40.5818150" lon="-4.1262040">
        <ele>902.8</ele>
        <time>2021-05-08T10:51:46Z</time>
      </trkpt>
      <trkpt lat="40.5818810" lon="-4.1259670">
        <ele>901.8</ele>
        <time>2021-05-08T10:51:48Z</time>
      </trkpt>
      <trkpt lat="40.5819460" lon="-4.1257250">
        <ele>900.9</ele>
        <time>2021-05-08T10:51:50Z</time>
      </trkpt>
      <trkpt lat="40.5819750" lon="-4.1256080">
        <ele>900.4</ele>
        <time>2021-05-08T10:51:51Z</time>
      </trkpt>
      <trkpt lat="40.5820260" lon="-4.1254030">
        <ele>899.6</ele>
        <time>2021-05-08T10:51:53Z</time>
      </trkpt>
      <trkpt lat="40.5820490" lon="-4.1253130">
        <ele>899.2</ele>
        <time>2021-05-08T10:51:54Z</time>
      </trkpt>
      <trkpt lat="40.5820910" lon="-4.1251410">
        <ele>898.6</ele>
        <time>2021-05-08T10:51:56Z</time>
      </trkpt>
      <trkpt lat="40.5821070" lon="-4.1250680">
        <ele>898.3</ele>
        <time>2021-05-08T10:51:57Z</time>
      </trkpt>
      <trkpt lat="40.5821330" lon="-4.1249560">
        <ele>897.9</ele>
        <time>2021-05-08T10:51:59Z</time>
      </trkpt>
      <trkpt lat="40.5821630" lon="-4.1248760">
        <ele>897.5</ele>
        <time>2021-05-08T10:52:01Z</time>
      </trkpt>
      <trkpt lat="40.5821930" lon="-4.1247790">
        <ele>897.4</ele>
        <time>2021-05-08T10:52:03Z</time>
      </trkpt>
      <trkpt lat="40.5822000" lon="-4.1247400">
        <ele>897.4</ele>
        <time>2021-05-08T10:52:04Z</time>
      </trkpt>
      <trkpt lat="40.5822140" lon="-4.1246660">
        <ele>897.4</ele>
        <time>2021-05-08T10:52:05Z</time>
      </trkpt>
      <trkpt lat="40.5822150" lon="-4.1245300">
        <ele>897.3</ele>
        <time>2021-05-08T10:52:07Z</time>
      </trkpt>
      <trkpt lat="40.5822020" lon="-4.1244980">
        <ele>897.3</ele>
        <time>2021-05-08T10:52:08Z</time>
      </trkpt>
      <trkpt lat="40.5821360" lon="-4.1244280">
        <ele>897.3</ele>
        <time>2021-05-08T10:52:10Z</time>
      </trkpt>
      <trkpt lat="40.5820830" lon="-4.1244060">
        <ele>897.0</ele>
        <time>2021-05-08T10:52:12Z</time>
      </trkpt>
      <trkpt lat="40.5820840" lon="-4.1243600">
        <ele>896.8</ele>
        <time>2021-05-08T10:52:13Z</time>
      </trkpt>
      <trkpt lat="40.5820860" lon="-4.1243450">
        <ele>896.8</ele>
        <time>2021-05-08T10:52:14Z</time>
      </trkpt>
      <trkpt lat="40.5820950" lon="-4.1242540">
        <ele>896.4</ele>
        <time>2021-05-08T10:52:16Z</time>
      </trkpt>
      <trkpt lat="40.5820890" lon="-4.1241970">
        <ele>896.1</ele>
        <time>2021-05-08T10:52:17Z</time>
      </trkpt>
      <trkpt lat="40.5820830" lon="-4.1241290">
        <ele>895.9</ele>
        <time>2021-05-08T10:52:19Z</time>
      </trkpt>
      <trkpt lat="40.5820790" lon="-4.1241100">
        <ele>895.8</ele>
        <time>2021-05-08T10:52:20Z</time>
      </trkpt>
      <trkpt lat="40.5820770" lon="-4.1241070">
        <ele>895.8</ele>
        <time>2021-05-08T10:53:59Z</time>
      </trkpt>
      <trkpt lat="40.5820750" lon="-4.1241030">
        <ele>895.8</ele>
        <time>2021-05-08T10:54:00Z</time>
      </trkpt>
      <trkpt lat="40.5820740" lon="-4.1241000">
        <ele>895.7</ele>
        <time>2021-05-08T10:54:01Z</time>
      </trkpt>
      <trkpt lat="40.5820720" lon="-4.1240960">
        <ele>895.7</ele>
        <time>2021-05-08T10:54:03Z</time>
      </trkpt>
      <trkpt lat="40.5820700" lon="-4.1240930">
        <ele>895.7</ele>
        <time>2021-05-08T10:54:04Z</time>
      </trkpt>
      <trkpt lat="40.5820680" lon="-4.1240890">
        <ele>895.7</ele>
        <time>2021-05-08T10:54:06Z</time>
      </trkpt>
      <trkpt lat="40.5820660" lon="-4.1240860">
        <ele>895.7</ele>
        <time>2021-05-08T10:54:07Z</time>
      </trkpt>
      <trkpt lat="40.5820720" lon="-4.1240510">
        <ele>895.5</ele>
        <time>2021-05-08T10:54:08Z</time>
      </trkpt>
      <trkpt lat="40.5820860" lon="-4.1240060">
        <ele>895.3</ele>
        <time>2021-05-08T10:54:09Z</time>
      </trkpt>
      <trkpt lat="40.5820950" lon="-4.1239550">
        <ele>895.1</ele>
        <time>2021-05-08T10:54:11Z</time>
      </trkpt>
      <trkpt lat="40.5821010" lon="-4.1238870">
        <ele>894.9</ele>
        <time>2021-05-08T10:54:12Z</time>
      </trkpt>
      <trkpt lat="40.5821120" lon="-4.1238150">
        <ele>894.6</ele>
        <time>2021-05-08T10:54:14Z</time>
      </trkpt>
      <trkpt lat="40.5821210" lon="-4.1237460">
        <ele>894.3</ele>
        <time>2021-05-08T10:54:16Z</time>
      </trkpt>
      <trkpt lat="40.5821290" lon="-4.1236900">
        <ele>894.1</ele>
        <time>2021-05-08T10:54:17Z</time>
      </trkpt>
      <trkpt lat="40.5821420" lon="-4.1236200">
        <ele>893.9</ele>
        <time>2021-05-08T10:54:19Z</time>
      </trkpt>
      <trkpt lat="40.5821450" lon="-4.1235770">
        <ele>893.7</ele>
        <time>2021-05-08T10:54:20Z</time>
      </trkpt>
      <trkpt lat="40.5821380" lon="-4.1235290">
        <ele>893.6</ele>
        <time>2021-05-08T10:54:21Z</time>
      </trkpt>
      <trkpt lat="40.5821340" lon="-4.1234570">
        <ele>893.3</ele>
        <time>2021-05-08T10:54:22Z</time>
      </trkpt>
      <trkpt lat="40.5821340" lon="-4.1234050">
        <ele>893.1</ele>
        <time>2021-05-08T10:54:23Z</time>
      </trkpt>
      <trkpt lat="40.5821380" lon="-4.1233650">
        <ele>893.0</ele>
        <time>2021-05-08T10:54:24Z</time>
      </trkpt>
      <trkpt lat="40.5821450" lon="-4.1232980">
        <ele>892.7</ele>
        <time>2021-05-08T10:54:26Z</time>
      </trkpt>
      <trkpt lat="40.5821480" lon="-4.1232680">
        <ele>892.6</ele>
        <time>2021-05-08T10:54:27Z</time>
      </trkpt>
      <trkpt lat="40.5821500" lon="-4.1232380">
        <ele>892.5</ele>
        <time>2021-05-08T10:54:28Z</time>
      </trkpt>
      <trkpt lat="40.5821480" lon="-4.1231640">
        <ele>892.2</ele>
        <time>2021-05-08T10:54:30Z</time>
      </trkpt>
      <trkpt lat="40.5821410" lon="-4.1230620">
        <ele>891.8</ele>
        <time>2021-05-08T10:54:32Z</time>
      </trkpt>
      <trkpt lat="40.5821420" lon="-4.1229800">
        <ele>891.5</ele>
        <time>2021-05-08T10:54:33Z</time>
      </trkpt>
      <trkpt lat="40.5821480" lon="-4.1229150">
        <ele>891.3</ele>
        <time>2021-05-08T10:54:34Z</time>
      </trkpt>
      <trkpt lat="40.5821500" lon="-4.1228350">
        <ele>891.1</ele>
        <time>2021-05-08T10:54:35Z</time>
      </trkpt>
      <trkpt lat="40.5821610" lon="-4.1227390">
        <ele>890.8</ele>
        <time>2021-05-08T10:54:36Z</time>
      </trkpt>
      <trkpt lat="40.5821710" lon="-4.1226620">
        <ele>890.5</ele>
        <time>2021-05-08T10:54:38Z</time>
      </trkpt>
      <trkpt lat="40.5821790" lon="-4.1225980">
        <ele>890.3</ele>
        <time>2021-05-08T10:54:39Z</time>
      </trkpt>
      <trkpt lat="40.5821900" lon="-4.1225540">
        <ele>890.1</ele>
        <time>2021-05-08T10:54:40Z</time>
      </trkpt>
      <trkpt lat="40.5822330" lon="-4.1225400">
        <ele>889.9</ele>
        <time>2021-05-08T10:54:42Z</time>
      </trkpt>
      <trkpt lat="40.5822670" lon="-4.1225360">
        <ele>888.4</ele>
        <time>2021-05-08T10:54:43Z</time>
      </trkpt>
      <trkpt lat="40.5822830" lon="-4.1225240">
        <ele>888.3</ele>
        <time>2021-05-08T10:54:44Z</time>
      </trkpt>
      <trkpt lat="40.5823010" lon="-4.1225030">
        <ele>888.1</ele>
        <time>2021-05-08T10:54:46Z</time>
      </trkpt>
      <trkpt lat="40.5823110" lon="-4.1224870">
        <ele>888.0</ele>
        <time>2021-05-08T10:54:47Z</time>
      </trkpt>
      <trkpt lat="40.5823210" lon="-4.1224640">
        <ele>887.9</ele>
        <time>2021-05-08T10:54:48Z</time>
      </trkpt>
      <trkpt lat="40.5823200" lon="-4.1223960">
        <ele>887.7</ele>
        <time>2021-05-08T10:54:49Z</time>
      </trkpt>
      <trkpt lat="40.5823250" lon="-4.1223330">
        <ele>887.4</ele>
        <time>2021-05-08T10:54:51Z</time>
      </trkpt>
      <trkpt lat="40.5823310" lon="-4.1222560">
        <ele>887.1</ele>
        <time>2021-05-08T10:54:52Z</time>
      </trkpt>
      <trkpt lat="40.5823360" lon="-4.1221720">
        <ele>886.8</ele>
        <time>2021-05-08T10:54:53Z</time>
      </trkpt>
      <trkpt lat="40.5823430" lon="-4.1220420">
        <ele>886.2</ele>
        <time>2021-05-08T10:54:55Z</time>
      </trkpt>
      <trkpt lat="40.5823460" lon="-4.1219700">
        <ele>886.0</ele>
        <time>2021-05-08T10:54:56Z</time>
      </trkpt>
      <trkpt lat="40.5823480" lon="-4.1218960">
        <ele>885.7</ele>
        <time>2021-05-08T10:54:57Z</time>
      </trkpt>
      <trkpt lat="40.5823510" lon="-4.1217460">
        <ele>885.1</ele>
        <time>2021-05-08T10:54:59Z</time>
      </trkpt>
      <trkpt lat="40.5823530" lon="-4.1216660">
        <ele>884.7</ele>
        <time>2021-05-08T10:55:00Z</time>
      </trkpt>
      <trkpt lat="40.5823580" lon="-4.1215020">
        <ele>884.1</ele>
        <time>2021-05-08T10:55:02Z</time>
      </trkpt>
      <trkpt lat="40.5823640" lon="-4.1213260">
        <ele>883.6</ele>
        <time>2021-05-08T10:55:04Z</time>
      </trkpt>
      <trkpt lat="40.5823670" lon="-4.1212340">
        <ele>883.3</ele>
        <time>2021-05-08T10:55:05Z</time>
      </trkpt>
      <trkpt lat="40.5823740" lon="-4.1210500">
        <ele>882.9</ele>
        <time>2021-05-08T10:55:07Z</time>
      </trkpt>
      <trkpt lat="40.5823780" lon="-4.1208620">
        <ele>882.9</ele>
        <time>2021-05-08T10:55:09Z</time>
      </trkpt>
      <trkpt lat="40.5823760" lon="-4.1207610">
        <ele>882.8</ele>
        <time>2021-05-08T10:55:10Z</time>
      </trkpt>
      <trkpt lat="40.5823710" lon="-4.1206640">
        <ele>882.4</ele>
        <time>2021-05-08T10:55:11Z</time>
      </trkpt>
      <trkpt lat="40.5823580" lon="-4.1204800">
        <ele>881.7</ele>
        <time>2021-05-08T10:55:13Z</time>
      </trkpt>
      <trkpt lat="40.5823500" lon="-4.1203850">
        <ele>881.4</ele>
        <time>2021-05-08T10:55:14Z</time>
      </trkpt>
      <trkpt lat="40.5823300" lon="-4.1202000">
        <ele>880.9</ele>
        <time>2021-05-08T10:55:16Z</time>
      </trkpt>
      <trkpt lat="40.5823190" lon="-4.1201090">
        <ele>880.7</ele>
        <time>2021-05-08T10:55:17Z</time>
      </trkpt>
      <trkpt lat="40.5822860" lon="-4.1199440">
        <ele>880.3</ele>
        <time>2021-05-08T10:55:19Z</time>
      </trkpt>
      <trkpt lat="40.5822330" lon="-4.1198100">
        <ele>880.1</ele>
        <time>2021-05-08T10:55:21Z</time>
      </trkpt>
      <trkpt lat="40.5821860" lon="-4.1197620">
        <ele>879.9</ele>
        <time>2021-05-08T10:55:22Z</time>
      </trkpt>
      <trkpt lat="40.5820570" lon="-4.1197300">
        <ele>879.9</ele>
        <time>2021-05-08T10:55:24Z</time>
      </trkpt>
      <trkpt lat="40.5819900" lon="-4.1197320">
        <ele>879.9</ele>
        <time>2021-05-08T10:55:25Z</time>
      </trkpt>
      <trkpt lat="40.5818640" lon="-4.1197490">
        <ele>879.9</ele>
        <time>2021-05-08T10:55:27Z</time>
      </trkpt>
      <trkpt lat="40.5817560" lon="-4.1198000">
        <ele>880.0</ele>
        <time>2021-05-08T10:55:29Z</time>
      </trkpt>
      <trkpt lat="40.5816980" lon="-4.1198250">
        <ele>880.1</ele>
        <time>2021-05-08T10:55:30Z</time>
      </trkpt>
      <trkpt lat="40.5815850" lon="-4.1198660">
        <ele>880.3</ele>
        <time>2021-05-08T10:55:32Z</time>
      </trkpt>
      <trkpt lat="40.5815320" lon="-4.1198970">
        <ele>880.5</ele>
        <time>2021-05-08T10:55:33Z</time>
      </trkpt>
      <trkpt lat="40.5814450" lon="-4.1199640">
        <ele>880.6</ele>
        <time>2021-05-08T10:55:35Z</time>
      </trkpt>
      <trkpt lat="40.5813670" lon="-4.1200310">
        <ele>880.8</ele>
        <time>2021-05-08T10:55:37Z</time>
      </trkpt>
      <trkpt lat="40.5812880" lon="-4.1200960">
        <ele>881.0</ele>
        <time>2021-05-08T10:55:39Z</time>
      </trkpt>
      <trkpt lat="40.5812100" lon="-4.1201530">
        <ele>881.2</ele>
        <time>2021-05-08T10:55:41Z</time>
      </trkpt>
      <trkpt lat="40.5811370" lon="-4.1202190">
        <ele>881.4</ele>
        <time>2021-05-08T10:55:43Z</time>
      </trkpt>
      <trkpt lat="40.5810970" lon="-4.1202510">
        <ele>881.5</ele>
        <time>2021-05-08T10:55:44Z</time>
      </trkpt>
      <trkpt lat="40.5810380" lon="-4.1202590">
        <ele>881.6</ele>
        <time>2021-05-08T10:55:46Z</time>
      </trkpt>
      <trkpt lat="40.5810030" lon="-4.1202150">
        <ele>881.7</ele>
        <time>2021-05-08T10:55:48Z</time>
      </trkpt>
      <trkpt lat="40.5809530" lon="-4.1202740">
        <ele>881.8</ele>
        <time>2021-05-08T10:55:49Z</time>
      </trkpt>
      <trkpt lat="40.5808700" lon="-4.1203720">
        <ele>882.0</ele>
        <time>2021-05-08T10:55:51Z</time>
      </trkpt>
      <trkpt lat="40.5808230" lon="-4.1204230">
        <ele>882.2</ele>
        <time>2021-05-08T10:55:52Z</time>
      </trkpt>
      <trkpt lat="40.5807660" lon="-4.1204850">
        <ele>882.3</ele>
        <time>2021-05-08T10:55:53Z</time>
      </trkpt>
      <trkpt lat="40.5807180" lon="-4.1205290">
        <ele>882.5</ele>
        <time>2021-05-08T10:55:54Z</time>
      </trkpt>
      <trkpt lat="40.5806720" lon="-4.1205640">
        <ele>882.5</ele>
        <time>2021-05-08T10:55:55Z</time>
      </trkpt>
      <trkpt lat="40.5806230" lon="-4.1205990">
        <ele>882.6</ele>
        <time>2021-05-08T10:55:57Z</time>
      </trkpt>
      <trkpt lat="40.5805830" lon="-4.1206360">
        <ele>882.7</ele>
        <time>2021-05-08T10:55:58Z</time>
      </trkpt>
      <trkpt lat="40.5805450" lon="-4.1206670">
        <ele>882.8</ele>
        <time>2021-05-08T10:55:59Z</time>
      </trkpt>
      <trkpt lat="40.5804740" lon="-4.1207250">
        <ele>882.9</ele>
        <time>2021-05-08T10:56:01Z</time>
      </trkpt>
      <trkpt lat="40.5804250" lon="-4.1207720">
        <ele>883.0</ele>
        <time>2021-05-08T10:56:02Z</time>
      </trkpt>
      <trkpt lat="40.5804240" lon="-4.1207820">
        <ele>883.0</ele>
        <time>2021-05-08T10:56:03Z</time>
      </trkpt>
      <trkpt lat="40.5803450" lon="-4.1208390">
        <ele>883.1</ele>
        <time>2021-05-08T10:56:05Z</time>
      </trkpt>
      <trkpt lat="40.5802970" lon="-4.1208750">
        <ele>883.2</ele>
        <time>2021-05-08T10:56:06Z</time>
      </trkpt>
      <trkpt lat="40.5802430" lon="-4.1209150">
        <ele>883.3</ele>
        <time>2021-05-08T10:56:07Z</time>
      </trkpt>
      <trkpt lat="40.5801410" lon="-4.1209910">
        <ele>883.4</ele>
        <time>2021-05-08T10:56:09Z</time>
      </trkpt>
      <trkpt lat="40.5800980" lon="-4.1210230">
        <ele>883.5</ele>
        <time>2021-05-08T10:56:10Z</time>
      </trkpt>
      <trkpt lat="40.5800570" lon="-4.1210530">
        <ele>883.6</ele>
        <time>2021-05-08T10:56:11Z</time>
      </trkpt>
      <trkpt lat="40.5800150" lon="-4.1210870">
        <ele>883.6</ele>
        <time>2021-05-08T10:56:12Z</time>
      </trkpt>
      <trkpt lat="40.5799750" lon="-4.1211180">
        <ele>883.7</ele>
        <time>2021-05-08T10:56:13Z</time>
      </trkpt>
      <trkpt lat="40.5798930" lon="-4.1211820">
        <ele>883.7</ele>
        <time>2021-05-08T10:56:15Z</time>
      </trkpt>
      <trkpt lat="40.5798130" lon="-4.1212370">
        <ele>883.8</ele>
        <time>2021-05-08T10:56:17Z</time>
      </trkpt>
      <trkpt lat="40.5797750" lon="-4.1212680">
        <ele>883.8</ele>
        <time>2021-05-08T10:56:18Z</time>
      </trkpt>
      <trkpt lat="40.5797100" lon="-4.1213180">
        <ele>883.9</ele>
        <time>2021-05-08T10:56:20Z</time>
      </trkpt>
      <trkpt lat="40.5796690" lon="-4.1213540">
        <ele>883.9</ele>
        <time>2021-05-08T10:56:21Z</time>
      </trkpt>
      <trkpt lat="40.5795870" lon="-4.1214250">
        <ele>884.0</ele>
        <time>2021-05-08T10:56:23Z</time>
      </trkpt>
      <trkpt lat="40.5795450" lon="-4.1214530">
        <ele>884.0</ele>
        <time>2021-05-08T10:56:24Z</time>
      </trkpt>
      <trkpt lat="40.5794590" lon="-4.1215140">
        <ele>884.1</ele>
        <time>2021-05-08T10:56:26Z</time>
      </trkpt>
      <trkpt lat="40.5794130" lon="-4.1215480">
        <ele>884.1</ele>
        <time>2021-05-08T10:56:27Z</time>
      </trkpt>
      <trkpt lat="40.5793270" lon="-4.1216090">
        <ele>884.2</ele>
        <time>2021-05-08T10:56:29Z</time>
      </trkpt>
      <trkpt lat="40.5792440" lon="-4.1216750">
        <ele>884.2</ele>
        <time>2021-05-08T10:56:31Z</time>
      </trkpt>
      <trkpt lat="40.5792030" lon="-4.1217100">
        <ele>884.2</ele>
        <time>2021-05-08T10:56:32Z</time>
      </trkpt>
      <trkpt lat="40.5791620" lon="-4.1217420">
        <ele>884.3</ele>
        <time>2021-05-08T10:56:33Z</time>
      </trkpt>
      <trkpt lat="40.5790750" lon="-4.1218120">
        <ele>884.3</ele>
        <time>2021-05-08T10:56:35Z</time>
      </trkpt>
      <trkpt lat="40.5789940" lon="-4.1218850">
        <ele>884.4</ele>
        <time>2021-05-08T10:56:37Z</time>
      </trkpt>
      <trkpt lat="40.5789100" lon="-4.1219570">
        <ele>884.5</ele>
        <time>2021-05-08T10:56:39Z</time>
      </trkpt>
      <trkpt lat="40.5788710" lon="-4.1219920">
        <ele>884.5</ele>
        <time>2021-05-08T10:56:40Z</time>
      </trkpt>
      <trkpt lat="40.5788280" lon="-4.1220250">
        <ele>884.5</ele>
        <time>2021-05-08T10:56:41Z</time>
      </trkpt>
      <trkpt lat="40.5787840" lon="-4.1220560">
        <ele>884.6</ele>
        <time>2021-05-08T10:56:42Z</time>
      </trkpt>
      <trkpt lat="40.5787000" lon="-4.1221270">
        <ele>884.7</ele>
        <time>2021-05-08T10:56:44Z</time>
      </trkpt>
      <trkpt lat="40.5786570" lon="-4.1221610">
        <ele>884.7</ele>
        <time>2021-05-08T10:56:45Z</time>
      </trkpt>
      <trkpt lat="40.5786120" lon="-4.1221960">
        <ele>884.8</ele>
        <time>2021-05-08T10:56:47Z</time>
      </trkpt>
      <trkpt lat="40.5785270" lon="-4.1222640">
        <ele>884.9</ele>
        <time>2021-05-08T10:56:48Z</time>
      </trkpt>
      <trkpt lat="40.5784390" lon="-4.1223330">
        <ele>885.1</ele>
        <time>2021-05-08T10:56:50Z</time>
      </trkpt>
      <trkpt lat="40.5783960" lon="-4.1223660">
        <ele>885.1</ele>
        <time>2021-05-08T10:56:51Z</time>
      </trkpt>
      <trkpt lat="40.5783130" lon="-4.1224250">
        <ele>885.3</ele>
        <time>2021-05-08T10:56:53Z</time>
      </trkpt>
      <trkpt lat="40.5782680" lon="-4.1224540">
        <ele>885.4</ele>
        <time>2021-05-08T10:56:54Z</time>
      </trkpt>
      <trkpt lat="40.5781840" lon="-4.1225150">
        <ele>885.6</ele>
        <time>2021-05-08T10:56:56Z</time>
      </trkpt>
      <trkpt lat="40.5781060" lon="-4.1225740">
        <ele>885.8</ele>
        <time>2021-05-08T10:56:58Z</time>
      </trkpt>
      <trkpt lat="40.5780370" lon="-4.1226250">
        <ele>886.0</ele>
        <time>2021-05-08T10:57:00Z</time>
      </trkpt>
      <trkpt lat="40.5779940" lon="-4.1226590">
        <ele>886.1</ele>
        <time>2021-05-08T10:57:01Z</time>
      </trkpt>
      <trkpt lat="40.5779240" lon="-4.1227140">
        <ele>886.3</ele>
        <time>2021-05-08T10:57:03Z</time>
      </trkpt>
      <trkpt lat="40.5778870" lon="-4.1227460">
        <ele>886.4</ele>
        <time>2021-05-08T10:57:04Z</time>
      </trkpt>
      <trkpt lat="40.5778620" lon="-4.1227900">
        <ele>886.4</ele>
        <time>2021-05-08T10:57:05Z</time>
      </trkpt>
      <trkpt lat="40.5778610" lon="-4.1228250">
        <ele>886.5</ele>
        <time>2021-05-08T10:57:06Z</time>
      </trkpt>
      <trkpt lat="40.5777760" lon="-4.1228780">
        <ele>886.6</ele>
        <time>2021-05-08T10:57:08Z</time>
      </trkpt>
      <trkpt lat="40.5777240" lon="-4.1229250">
        <ele>886.8</ele>
        <time>2021-05-08T10:57:09Z</time>
      </trkpt>
      <trkpt lat="40.5776520" lon="-4.1229740">
        <ele>886.9</ele>
        <time>2021-05-08T10:57:11Z</time>
      </trkpt>
      <trkpt lat="40.5776010" lon="-4.1230000">
        <ele>887.0</ele>
        <time>2021-05-08T10:57:12Z</time>
      </trkpt>
      <trkpt lat="40.5775460" lon="-4.1230350">
        <ele>887.2</ele>
        <time>2021-05-08T10:57:13Z</time>
      </trkpt>
      <trkpt lat="40.5775030" lon="-4.1230630">
        <ele>887.3</ele>
        <time>2021-05-08T10:57:15Z</time>
      </trkpt>
      <trkpt lat="40.5774590" lon="-4.1230970">
        <ele>887.4</ele>
        <time>2021-05-08T10:57:16Z</time>
      </trkpt>
      <trkpt lat="40.5774240" lon="-4.1231270">
        <ele>887.5</ele>
        <time>2021-05-08T10:57:17Z</time>
      </trkpt>
      <trkpt lat="40.5773550" lon="-4.1231740">
        <ele>887.6</ele>
        <time>2021-05-08T10:57:19Z</time>
      </trkpt>
      <trkpt lat="40.5773200" lon="-4.1231990">
        <ele>887.7</ele>
        <time>2021-05-08T10:57:20Z</time>
      </trkpt>
      <trkpt lat="40.5772390" lon="-4.1232590">
        <ele>887.9</ele>
        <time>2021-05-08T10:57:21Z</time>
      </trkpt>
      <trkpt lat="40.5771950" lon="-4.1232860">
        <ele>888.0</ele>
        <time>2021-05-08T10:57:23Z</time>
      </trkpt>
      <trkpt lat="40.5771560" lon="-4.1233200">
        <ele>888.1</ele>
        <time>2021-05-08T10:57:24Z</time>
      </trkpt>
      <trkpt lat="40.5770980" lon="-4.1233650">
        <ele>888.2</ele>
        <time>2021-05-08T10:57:26Z</time>
      </trkpt>
      <trkpt lat="40.5770690" lon="-4.1233940">
        <ele>888.3</ele>
        <time>2021-05-08T10:57:27Z</time>
      </trkpt>
      <trkpt lat="40.5770050" lon="-4.1234460">
        <ele>888.4</ele>
        <time>2021-05-08T10:57:29Z</time>
      </trkpt>
      <trkpt lat="40.5769700" lon="-4.1234730">
        <ele>888.5</ele>
        <time>2021-05-08T10:57:30Z</time>
      </trkpt>
      <trkpt lat="40.5769030" lon="-4.1235270">
        <ele>888.7</ele>
        <time>2021-05-08T10:57:32Z</time>
      </trkpt>
      <trkpt lat="40.5768650" lon="-4.1235630">
        <ele>888.8</ele>
        <time>2021-05-08T10:57:33Z</time>
      </trkpt>
      <trkpt lat="40.5768170" lon="-4.1236140">
        <ele>888.9</ele>
        <time>2021-05-08T10:57:35Z</time>
      </trkpt>
      <trkpt lat="40.5767780" lon="-4.1236670">
        <ele>889.0</ele>
        <time>2021-05-08T10:57:36Z</time>
      </trkpt>
      <trkpt lat="40.5767410" lon="-4.1237110">
        <ele>889.1</ele>
        <time>2021-05-08T10:57:37Z</time>
      </trkpt>
      <trkpt lat="40.5766890" lon="-4.1237740">
        <ele>889.3</ele>
        <time>2021-05-08T10:57:39Z</time>
      </trkpt>
      <trkpt lat="40.5766230" lon="-4.1238650">
        <ele>889.4</ele>
        <time>2021-05-08T10:57:41Z</time>
      </trkpt>
      <trkpt lat="40.5765980" lon="-4.1239030">
        <ele>889.5</ele>
        <time>2021-05-08T10:57:42Z</time>
      </trkpt>
      <trkpt lat="40.5765580" lon="-4.1239700">
        <ele>889.6</ele>
        <time>2021-05-08T10:57:44Z</time>
      </trkpt>
      <trkpt lat="40.5765380" lon="-4.1240160">
        <ele>889.7</ele>
        <time>2021-05-08T10:57:45Z</time>
      </trkpt>
      <trkpt lat="40.5765130" lon="-4.1240960">
        <ele>889.8</ele>
        <time>2021-05-08T10:57:46Z</time>
      </trkpt>
      <trkpt lat="40.5765020" lon="-4.1241590">
        <ele>889.8</ele>
        <time>2021-05-08T10:57:48Z</time>
      </trkpt>
      <trkpt lat="40.5765020" lon="-4.1242110">
        <ele>889.9</ele>
        <time>2021-05-08T10:57:49Z</time>
      </trkpt>
      <trkpt lat="40.5765220" lon="-4.1243220">
        <ele>890.1</ele>
        <time>2021-05-08T10:57:51Z</time>
      </trkpt>
      <trkpt lat="40.5765260" lon="-4.1244300">
        <ele>890.1</ele>
        <time>2021-05-08T10:57:53Z</time>
      </trkpt>
      <trkpt lat="40.5765110" lon="-4.1245090">
        <ele>890.2</ele>
        <time>2021-05-08T10:57:54Z</time>
      </trkpt>
      <trkpt lat="40.5764670" lon="-4.1246020">
        <ele>890.4</ele>
        <time>2021-05-08T10:57:56Z</time>
      </trkpt>
      <trkpt lat="40.5764350" lon="-4.1246500">
        <ele>890.4</ele>
        <time>2021-05-08T10:57:57Z</time>
      </trkpt>
      <trkpt lat="40.5763600" lon="-4.1247260">
        <ele>890.5</ele>
        <time>2021-05-08T10:57:59Z</time>
      </trkpt>
      <trkpt lat="40.5762720" lon="-4.1247730">
        <ele>890.6</ele>
        <time>2021-05-08T10:58:01Z</time>
      </trkpt>
      <trkpt lat="40.5761730" lon="-4.1247770">
        <ele>890.7</ele>
        <time>2021-05-08T10:58:03Z</time>
      </trkpt>
      <trkpt lat="40.5761290" lon="-4.1247700">
        <ele>890.7</ele>
        <time>2021-05-08T10:58:04Z</time>
      </trkpt>
      <trkpt lat="40.5760630" lon="-4.1247390">
        <ele>890.8</ele>
        <time>2021-05-08T10:58:06Z</time>
      </trkpt>
      <trkpt lat="40.5760200" lon="-4.1247130">
        <ele>890.9</ele>
        <time>2021-05-08T10:58:07Z</time>
      </trkpt>
      <trkpt lat="40.5759520" lon="-4.1246430">
        <ele>891.0</ele>
        <time>2021-05-08T10:58:09Z</time>
      </trkpt>
      <trkpt lat="40.5759210" lon="-4.1246000">
        <ele>891.0</ele>
        <time>2021-05-08T10:58:10Z</time>
      </trkpt>
      <trkpt lat="40.5758890" lon="-4.1245580">
        <ele>891.1</ele>
        <time>2021-05-08T10:58:11Z</time>
      </trkpt>
      <trkpt lat="40.5758190" lon="-4.1245000">
        <ele>891.2</ele>
        <time>2021-05-08T10:58:13Z</time>
      </trkpt>
      <trkpt lat="40.5757730" lon="-4.1244670">
        <ele>891.3</ele>
        <time>2021-05-08T10:58:14Z</time>
      </trkpt>
      <trkpt lat="40.5756960" lon="-4.1244180">
        <ele>891.4</ele>
        <time>2021-05-08T10:58:16Z</time>
      </trkpt>
      <trkpt lat="40.5756510" lon="-4.1243920">
        <ele>891.5</ele>
        <time>2021-05-08T10:58:17Z</time>
      </trkpt>
      <trkpt lat="40.5756060" lon="-4.1243690">
        <ele>891.6</ele>
        <time>2021-05-08T10:58:18Z</time>
      </trkpt>
      <trkpt lat="40.5755150" lon="-4.1243340">
        <ele>891.7</ele>
        <time>2021-05-08T10:58:20Z</time>
      </trkpt>
      <trkpt lat="40.5754690" lon="-4.1243170">
        <ele>891.8</ele>
        <time>2021-05-08T10:58:21Z</time>
      </trkpt>
      <trkpt lat="40.5753780" lon="-4.1242840">
        <ele>892.1</ele>
        <time>2021-05-08T10:58:23Z</time>
      </trkpt>
      <trkpt lat="40.5753160" lon="-4.1242360">
        <ele>892.2</ele>
        <time>2021-05-08T10:58:25Z</time>
      </trkpt>
      <trkpt lat="40.5752260" lon="-4.1242160">
        <ele>892.5</ele>
        <time>2021-05-08T10:58:27Z</time>
      </trkpt>
      <trkpt lat="40.5751810" lon="-4.1242030">
        <ele>892.6</ele>
        <time>2021-05-08T10:58:28Z</time>
      </trkpt>
      <trkpt lat="40.5751030" lon="-4.1241780">
        <ele>893.1</ele>
        <time>2021-05-08T10:58:30Z</time>
      </trkpt>
      <trkpt lat="40.5750620" lon="-4.1241660">
        <ele>893.3</ele>
        <time>2021-05-08T10:58:31Z</time>
      </trkpt>
      <trkpt lat="40.5749900" lon="-4.1241450">
        <ele>893.8</ele>
        <time>2021-05-08T10:58:32Z</time>
      </trkpt>
      <trkpt lat="40.5749520" lon="-4.1241340">
        <ele>894.0</ele>
        <time>2021-05-08T10:58:33Z</time>
      </trkpt>
      <trkpt lat="40.5749120" lon="-4.1241270">
        <ele>894.3</ele>
        <time>2021-05-08T10:58:35Z</time>
      </trkpt>
      <trkpt lat="40.5748690" lon="-4.1241140">
        <ele>894.6</ele>
        <time>2021-05-08T10:58:36Z</time>
      </trkpt>
      <trkpt lat="40.5747990" lon="-4.1240900">
        <ele>895.0</ele>
        <time>2021-05-08T10:58:38Z</time>
      </trkpt>
      <trkpt lat="40.5747700" lon="-4.1240800">
        <ele>895.2</ele>
        <time>2021-05-08T10:58:39Z</time>
      </trkpt>
      <trkpt lat="40.5747430" lon="-4.1240720">
        <ele>895.4</ele>
        <time>2021-05-08T10:58:40Z</time>
      </trkpt>
      <trkpt lat="40.5747120" lon="-4.1240640">
        <ele>895.6</ele>
        <time>2021-05-08T10:58:41Z</time>
      </trkpt>
      <trkpt lat="40.5746580" lon="-4.1240460">
        <ele>896.0</ele>
        <time>2021-05-08T10:58:43Z</time>
      </trkpt>
      <trkpt lat="40.5746230" lon="-4.1240330">
        <ele>896.3</ele>
        <time>2021-05-08T10:58:44Z</time>
      </trkpt>
      <trkpt lat="40.5745770" lon="-4.1240170">
        <ele>896.6</ele>
        <time>2021-05-08T10:58:46Z</time>
      </trkpt>
      <trkpt lat="40.5745000" lon="-4.1239910">
        <ele>897.1</ele>
        <time>2021-05-08T10:58:48Z</time>
      </trkpt>
      <trkpt lat="40.5744310" lon="-4.1239630">
        <ele>897.6</ele>
        <time>2021-05-08T10:58:50Z</time>
      </trkpt>
      <trkpt lat="40.5743990" lon="-4.1239530">
        <ele>897.8</ele>
        <time>2021-05-08T10:58:51Z</time>
      </trkpt>
      <trkpt lat="40.5743510" lon="-4.1239400">
        <ele>898.1</ele>
        <time>2021-05-08T10:58:53Z</time>
      </trkpt>
      <trkpt lat="40.5743120" lon="-4.1239250">
        <ele>898.4</ele>
        <time>2021-05-08T10:58:54Z</time>
      </trkpt>
      <trkpt lat="40.5742800" lon="-4.1239150">
        <ele>898.6</ele>
        <time>2021-05-08T10:58:55Z</time>
      </trkpt>
      <trkpt lat="40.5742180" lon="-4.1238970">
        <ele>899.0</ele>
        <time>2021-05-08T10:58:57Z</time>
      </trkpt>
      <trkpt lat="40.5741720" lon="-4.1238800">
        <ele>899.4</ele>
        <time>2021-05-08T10:58:58Z</time>
      </trkpt>
      <trkpt lat="40.5741400" lon="-4.1238690">
        <ele>899.6</ele>
        <time>2021-05-08T10:59:00Z</time>
      </trkpt>
      <trkpt lat="40.5741020" lon="-4.1238560">
        <ele>899.8</ele>
        <time>2021-05-08T10:59:01Z</time>
      </trkpt>
      <trkpt lat="40.5740620" lon="-4.1238380">
        <ele>900.1</ele>
        <time>2021-05-08T10:59:02Z</time>
      </trkpt>
      <trkpt lat="40.5740330" lon="-4.1238240">
        <ele>900.3</ele>
        <time>2021-05-08T10:59:03Z</time>
      </trkpt>
      <trkpt lat="40.5739750" lon="-4.1238070">
        <ele>900.7</ele>
        <time>2021-05-08T10:59:05Z</time>
      </trkpt>
      <trkpt lat="40.5739180" lon="-4.1237900">
        <ele>901.1</ele>
        <time>2021-05-08T10:59:07Z</time>
      </trkpt>
      <trkpt lat="40.5738880" lon="-4.1237820">
        <ele>901.3</ele>
        <time>2021-05-08T10:59:08Z</time>
      </trkpt>
      <trkpt lat="40.5738340" lon="-4.1237690">
        <ele>901.7</ele>
        <time>2021-05-08T10:59:10Z</time>
      </trkpt>
      <trkpt lat="40.5738040" lon="-4.1237640">
        <ele>901.8</ele>
        <time>2021-05-08T10:59:11Z</time>
      </trkpt>
      <trkpt lat="40.5737670" lon="-4.1237550">
        <ele>902.1</ele>
        <time>2021-05-08T10:59:12Z</time>
      </trkpt>
      <trkpt lat="40.5737090" lon="-4.1237340">
        <ele>902.5</ele>
        <time>2021-05-08T10:59:14Z</time>
      </trkpt>
      <trkpt lat="40.5736630" lon="-4.1237250">
        <ele>902.8</ele>
        <time>2021-05-08T10:59:16Z</time>
      </trkpt>
      <trkpt lat="40.5736230" lon="-4.1237150">
        <ele>903.0</ele>
        <time>2021-05-08T10:59:17Z</time>
      </trkpt>
      <trkpt lat="40.5735280" lon="-4.1236780">
        <ele>903.7</ele>
        <time>2021-05-08T10:59:20Z</time>
      </trkpt>
      <trkpt lat="40.5734770" lon="-4.1236530">
        <ele>904.1</ele>
        <time>2021-05-08T10:59:22Z</time>
      </trkpt>
      <trkpt lat="40.5734470" lon="-4.1236470">
        <ele>904.3</ele>
        <time>2021-05-08T10:59:23Z</time>
      </trkpt>
      <trkpt lat="40.5734200" lon="-4.1236420">
        <ele>904.5</ele>
        <time>2021-05-08T10:59:24Z</time>
      </trkpt>
      <trkpt lat="40.5733690" lon="-4.1236280">
        <ele>904.8</ele>
        <time>2021-05-08T10:59:26Z</time>
      </trkpt>
      <trkpt lat="40.5733410" lon="-4.1236180">
        <ele>905.0</ele>
        <time>2021-05-08T10:59:27Z</time>
      </trkpt>
      <trkpt lat="40.5732840" lon="-4.1235940">
        <ele>905.4</ele>
        <time>2021-05-08T10:59:29Z</time>
      </trkpt>
      <trkpt lat="40.5732370" lon="-4.1235780">
        <ele>905.7</ele>
        <time>2021-05-08T10:59:31Z</time>
      </trkpt>
      <trkpt lat="40.5732010" lon="-4.1235690">
        <ele>905.9</ele>
        <time>2021-05-08T10:59:32Z</time>
      </trkpt>
      <trkpt lat="40.5731730" lon="-4.1235570">
        <ele>906.1</ele>
        <time>2021-05-08T10:59:33Z</time>
      </trkpt>
      <trkpt lat="40.5731240" lon="-4.1235420">
        <ele>906.5</ele>
        <time>2021-05-08T10:59:35Z</time>
      </trkpt>
      <trkpt lat="40.5730870" lon="-4.1235300">
        <ele>906.7</ele>
        <time>2021-05-08T10:59:36Z</time>
      </trkpt>
      <trkpt lat="40.5730570" lon="-4.1235230">
        <ele>906.9</ele>
        <time>2021-05-08T10:59:37Z</time>
      </trkpt>
      <trkpt lat="40.5730090" lon="-4.1235050">
        <ele>907.2</ele>
        <time>2021-05-08T10:59:39Z</time>
      </trkpt>
      <trkpt lat="40.5729640" lon="-4.1234870">
        <ele>907.5</ele>
        <time>2021-05-08T10:59:40Z</time>
      </trkpt>
      <trkpt lat="40.5729420" lon="-4.1234790">
        <ele>907.6</ele>
        <time>2021-05-08T10:59:41Z</time>
      </trkpt>
      <trkpt lat="40.5728980" lon="-4.1234660">
        <ele>907.9</ele>
        <time>2021-05-08T10:59:43Z</time>
      </trkpt>
      <trkpt lat="40.5728670" lon="-4.1234560">
        <ele>908.1</ele>
        <time>2021-05-08T10:59:44Z</time>
      </trkpt>
      <trkpt lat="40.5728380" lon="-4.1234480">
        <ele>908.3</ele>
        <time>2021-05-08T10:59:45Z</time>
      </trkpt>
      <trkpt lat="40.5727970" lon="-4.1234300">
        <ele>908.5</ele>
        <time>2021-05-08T10:59:46Z</time>
      </trkpt>
      <trkpt lat="40.5727590" lon="-4.1234240">
        <ele>908.8</ele>
        <time>2021-05-08T10:59:48Z</time>
      </trkpt>
      <trkpt lat="40.5727300" lon="-4.1234170">
        <ele>908.9</ele>
        <time>2021-05-08T10:59:49Z</time>
      </trkpt>
      <trkpt lat="40.5726950" lon="-4.1234080">
        <ele>909.2</ele>
        <time>2021-05-08T10:59:50Z</time>
      </trkpt>
      <trkpt lat="40.5726470" lon="-4.1233990">
        <ele>909.4</ele>
        <time>2021-05-08T10:59:52Z</time>
      </trkpt>
      <trkpt lat="40.5725940" lon="-4.1233790">
        <ele>909.8</ele>
        <time>2021-05-08T10:59:54Z</time>
      </trkpt>
      <trkpt lat="40.5725520" lon="-4.1233660">
        <ele>910.1</ele>
        <time>2021-05-08T10:59:55Z</time>
      </trkpt>
      <trkpt lat="40.5725100" lon="-4.1233520">
        <ele>910.3</ele>
        <time>2021-05-08T10:59:57Z</time>
      </trkpt>
      <trkpt lat="40.5724700" lon="-4.1233420">
        <ele>910.6</ele>
        <time>2021-05-08T10:59:58Z</time>
      </trkpt>
      <trkpt lat="40.5724340" lon="-4.1233310">
        <ele>910.8</ele>
        <time>2021-05-08T10:59:59Z</time>
      </trkpt>
      <trkpt lat="40.5724020" lon="-4.1233220">
        <ele>911.0</ele>
        <time>2021-05-08T11:00:01Z</time>
      </trkpt>
      <trkpt lat="40.5723620" lon="-4.1233130">
        <ele>911.2</ele>
        <time>2021-05-08T11:00:02Z</time>
      </trkpt>
      <trkpt lat="40.5723230" lon="-4.1233050">
        <ele>911.5</ele>
        <time>2021-05-08T11:00:03Z</time>
      </trkpt>
      <trkpt lat="40.5722870" lon="-4.1232950">
        <ele>911.7</ele>
        <time>2021-05-08T11:00:04Z</time>
      </trkpt>
      <trkpt lat="40.5722530" lon="-4.1232870">
        <ele>911.9</ele>
        <time>2021-05-08T11:00:06Z</time>
      </trkpt>
      <trkpt lat="40.5722110" lon="-4.1232810">
        <ele>912.2</ele>
        <time>2021-05-08T11:00:07Z</time>
      </trkpt>
      <trkpt lat="40.5721770" lon="-4.1232740">
        <ele>912.4</ele>
        <time>2021-05-08T11:00:08Z</time>
      </trkpt>
      <trkpt lat="40.5721300" lon="-4.1232690">
        <ele>912.6</ele>
        <time>2021-05-08T11:00:10Z</time>
      </trkpt>
      <trkpt lat="40.5720930" lon="-4.1232640">
        <ele>912.8</ele>
        <time>2021-05-08T11:00:11Z</time>
      </trkpt>
      <trkpt lat="40.5720630" lon="-4.1232560">
        <ele>913.0</ele>
        <time>2021-05-08T11:00:12Z</time>
      </trkpt>
      <trkpt lat="40.5720110" lon="-4.1232460">
        <ele>913.3</ele>
        <time>2021-05-08T11:00:14Z</time>
      </trkpt>
      <trkpt lat="40.5719810" lon="-4.1232440">
        <ele>913.4</ele>
        <time>2021-05-08T11:00:15Z</time>
      </trkpt>
      <trkpt lat="40.5719530" lon="-4.1232380">
        <ele>913.6</ele>
        <time>2021-05-08T11:00:16Z</time>
      </trkpt>
      <trkpt lat="40.5718930" lon="-4.1232270">
        <ele>913.9</ele>
        <time>2021-05-08T11:00:18Z</time>
      </trkpt>
      <trkpt lat="40.5718650" lon="-4.1232220">
        <ele>914.1</ele>
        <time>2021-05-08T11:00:19Z</time>
      </trkpt>
      <trkpt lat="40.5718150" lon="-4.1232180">
        <ele>914.3</ele>
        <time>2021-05-08T11:00:21Z</time>
      </trkpt>
      <trkpt lat="40.5717640" lon="-4.1232110">
        <ele>914.6</ele>
        <time>2021-05-08T11:00:23Z</time>
      </trkpt>
      <trkpt lat="40.5717360" lon="-4.1232060">
        <ele>914.7</ele>
        <time>2021-05-08T11:00:24Z</time>
      </trkpt>
      <trkpt lat="40.5716790" lon="-4.1231960">
        <ele>914.9</ele>
        <time>2021-05-08T11:00:26Z</time>
      </trkpt>
      <trkpt lat="40.5716200" lon="-4.1231970">
        <ele>915.2</ele>
        <time>2021-05-08T11:00:28Z</time>
      </trkpt>
      <trkpt lat="40.5715920" lon="-4.1231940">
        <ele>915.3</ele>
        <time>2021-05-08T11:00:29Z</time>
      </trkpt>
      <trkpt lat="40.5715640" lon="-4.1231910">
        <ele>915.4</ele>
        <time>2021-05-08T11:00:30Z</time>
      </trkpt>
      <trkpt lat="40.5715050" lon="-4.1231920">
        <ele>915.6</ele>
        <time>2021-05-08T11:00:32Z</time>
      </trkpt>
      <trkpt lat="40.5714450" lon="-4.1231940">
        <ele>915.8</ele>
        <time>2021-05-08T11:00:34Z</time>
      </trkpt>
      <trkpt lat="40.5713870" lon="-4.1231980">
        <ele>916.0</ele>
        <time>2021-05-08T11:00:36Z</time>
      </trkpt>
      <trkpt lat="40.5713300" lon="-4.1231980">
        <ele>916.2</ele>
        <time>2021-05-08T11:00:37Z</time>
      </trkpt>
      <trkpt lat="40.5712750" lon="-4.1231970">
        <ele>916.4</ele>
        <time>2021-05-08T11:00:39Z</time>
      </trkpt>
      <trkpt lat="40.5712460" lon="-4.1232000">
        <ele>916.5</ele>
        <time>2021-05-08T11:00:40Z</time>
      </trkpt>
      <trkpt lat="40.5712160" lon="-4.1232000">
        <ele>916.6</ele>
        <time>2021-05-08T11:00:41Z</time>
      </trkpt>
      <trkpt lat="40.5711400" lon="-4.1232060">
        <ele>916.8</ele>
        <time>2021-05-08T11:00:43Z</time>
      </trkpt>
      <trkpt lat="40.5710970" lon="-4.1232090">
        <ele>917.0</ele>
        <time>2021-05-08T11:00:44Z</time>
      </trkpt>
      <trkpt lat="40.5710800" lon="-4.1232090">
        <ele>917.0</ele>
        <time>2021-05-08T11:00:45Z</time>
      </trkpt>
      <trkpt lat="40.5710290" lon="-4.1232110">
        <ele>917.2</ele>
        <time>2021-05-08T11:00:47Z</time>
      </trkpt>
      <trkpt lat="40.5709990" lon="-4.1232100">
        <ele>917.3</ele>
        <time>2021-05-08T11:00:48Z</time>
      </trkpt>
      <trkpt lat="40.5709690" lon="-4.1232130">
        <ele>917.4</ele>
        <time>2021-05-08T11:00:49Z</time>
      </trkpt>
      <trkpt lat="40.5709320" lon="-4.1232170">
        <ele>917.5</ele>
        <time>2021-05-08T11:00:50Z</time>
      </trkpt>
      <trkpt lat="40.5708780" lon="-4.1232250">
        <ele>917.6</ele>
        <time>2021-05-08T11:00:52Z</time>
      </trkpt>
      <trkpt lat="40.5708440" lon="-4.1232310">
        <ele>917.7</ele>
        <time>2021-05-08T11:00:53Z</time>
      </trkpt>
      <trkpt lat="40.5707850" lon="-4.1232420">
        <ele>917.9</ele>
        <time>2021-05-08T11:00:55Z</time>
      </trkpt>
      <trkpt lat="40.5707460" lon="-4.1232500">
        <ele>918.0</ele>
        <time>2021-05-08T11:00:56Z</time>
      </trkpt>
      <trkpt lat="40.5706780" lon="-4.1232650">
        <ele>918.3</ele>
        <time>2021-05-08T11:00:58Z</time>
      </trkpt>
      <trkpt lat="40.5706230" lon="-4.1232750">
        <ele>918.4</ele>
        <time>2021-05-08T11:00:59Z</time>
      </trkpt>
      <trkpt lat="40.5705760" lon="-4.1232810">
        <ele>918.6</ele>
        <time>2021-05-08T11:01:01Z</time>
      </trkpt>
      <trkpt lat="40.5704870" lon="-4.1233000">
        <ele>918.9</ele>
        <time>2021-05-08T11:01:03Z</time>
      </trkpt>
      <trkpt lat="40.5704570" lon="-4.1233080">
        <ele>919.0</ele>
        <time>2021-05-08T11:01:04Z</time>
      </trkpt>
      <trkpt lat="40.5704280" lon="-4.1233120">
        <ele>919.1</ele>
        <time>2021-05-08T11:01:05Z</time>
      </trkpt>
      <trkpt lat="40.5703710" lon="-4.1233270">
        <ele>919.3</ele>
        <time>2021-05-08T11:01:07Z</time>
      </trkpt>
      <trkpt lat="40.5703300" lon="-4.1233360">
        <ele>919.5</ele>
        <time>2021-05-08T11:01:08Z</time>
      </trkpt>
      <trkpt lat="40.5702910" lon="-4.1233440">
        <ele>919.6</ele>
        <time>2021-05-08T11:01:09Z</time>
      </trkpt>
      <trkpt lat="40.5702280" lon="-4.1233670">
        <ele>919.9</ele>
        <time>2021-05-08T11:01:11Z</time>
      </trkpt>
      <trkpt lat="40.5701610" lon="-4.1233860">
        <ele>920.2</ele>
        <time>2021-05-08T11:01:13Z</time>
      </trkpt>
      <trkpt lat="40.5701020" lon="-4.1234010">
        <ele>920.4</ele>
        <time>2021-05-08T11:01:15Z</time>
      </trkpt>
      <trkpt lat="40.5700630" lon="-4.1234060">
        <ele>920.6</ele>
        <time>2021-05-08T11:01:16Z</time>
      </trkpt>
      <trkpt lat="40.5700310" lon="-4.1234140">
        <ele>920.7</ele>
        <time>2021-05-08T11:01:17Z</time>
      </trkpt>
      <trkpt lat="40.5699640" lon="-4.1234290">
        <ele>921.0</ele>
        <time>2021-05-08T11:01:19Z</time>
      </trkpt>
      <trkpt lat="40.5699370" lon="-4.1234500">
        <ele>921.1</ele>
        <time>2021-05-08T11:01:20Z</time>
      </trkpt>
      <trkpt lat="40.5699130" lon="-4.1234660">
        <ele>921.2</ele>
        <time>2021-05-08T11:01:21Z</time>
      </trkpt>
      <trkpt lat="40.5698810" lon="-4.1234730">
        <ele>921.4</ele>
        <time>2021-05-08T11:01:22Z</time>
      </trkpt>
      <trkpt lat="40.5698240" lon="-4.1234870">
        <ele>921.6</ele>
        <time>2021-05-08T11:01:24Z</time>
      </trkpt>
      <trkpt lat="40.5697930" lon="-4.1234900">
        <ele>921.7</ele>
        <time>2021-05-08T11:01:25Z</time>
      </trkpt>
      <trkpt lat="40.5697490" lon="-4.1234820">
        <ele>921.9</ele>
        <time>2021-05-08T11:01:27Z</time>
      </trkpt>
      <trkpt lat="40.5697160" lon="-4.1234850">
        <ele>922.1</ele>
        <time>2021-05-08T11:01:28Z</time>
      </trkpt>
      <trkpt lat="40.5697040" lon="-4.1234880">
        <ele>922.1</ele>
        <time>2021-05-08T11:01:29Z</time>
      </trkpt>
      <trkpt lat="40.5696820" lon="-4.1234970">
        <ele>922.2</ele>
        <time>2021-05-08T11:01:30Z</time>
      </trkpt>
      <trkpt lat="40.5696440" lon="-4.1235070">
        <ele>922.4</ele>
        <time>2021-05-08T11:01:32Z</time>
      </trkpt>
      <trkpt lat="40.5696240" lon="-4.1235110">
        <ele>922.5</ele>
        <time>2021-05-08T11:01:33Z</time>
      </trkpt>
      <trkpt lat="40.5695930" lon="-4.1235200">
        <ele>922.6</ele>
        <time>2021-05-08T11:01:35Z</time>
      </trkpt>
      <trkpt lat="40.5695430" lon="-4.1235280">
        <ele>922.8</ele>
        <time>2021-05-08T11:01:37Z</time>
      </trkpt>
      <trkpt lat="40.5695030" lon="-4.1235380">
        <ele>923.0</ele>
        <time>2021-05-08T11:01:38Z</time>
      </trkpt>
      <trkpt lat="40.5694880" lon="-4.1235440">
        <ele>923.1</ele>
        <time>2021-05-08T11:01:39Z</time>
      </trkpt>
      <trkpt lat="40.5694460" lon="-4.1235580">
        <ele>923.3</ele>
        <time>2021-05-08T11:01:41Z</time>
      </trkpt>
      <trkpt lat="40.5694090" lon="-4.1235680">
        <ele>923.5</ele>
        <time>2021-05-08T11:01:42Z</time>
      </trkpt>
      <trkpt lat="40.5693770" lon="-4.1235780">
        <ele>923.6</ele>
        <time>2021-05-08T11:01:43Z</time>
      </trkpt>
      <trkpt lat="40.5693360" lon="-4.1235900">
        <ele>923.8</ele>
        <time>2021-05-08T11:01:44Z</time>
      </trkpt>
      <trkpt lat="40.5692980" lon="-4.1235980">
        <ele>924.0</ele>
        <time>2021-05-08T11:01:46Z</time>
      </trkpt>
      <trkpt lat="40.5692650" lon="-4.1236070">
        <ele>924.1</ele>
        <time>2021-05-08T11:01:47Z</time>
      </trkpt>
      <trkpt lat="40.5692040" lon="-4.1236230">
        <ele>924.4</ele>
        <time>2021-05-08T11:01:49Z</time>
      </trkpt>
      <trkpt lat="40.5691760" lon="-4.1236270">
        <ele>924.6</ele>
        <time>2021-05-08T11:01:50Z</time>
      </trkpt>
      <trkpt lat="40.5691410" lon="-4.1236310">
        <ele>924.7</ele>
        <time>2021-05-08T11:01:51Z</time>
      </trkpt>
      <trkpt lat="40.5690820" lon="-4.1236360">
        <ele>925.0</ele>
        <time>2021-05-08T11:01:53Z</time>
      </trkpt>
      <trkpt lat="40.5690280" lon="-4.1236390">
        <ele>925.2</ele>
        <time>2021-05-08T11:01:55Z</time>
      </trkpt>
      <trkpt lat="40.5689870" lon="-4.1236470">
        <ele>925.3</ele>
        <time>2021-05-08T11:01:56Z</time>
      </trkpt>
      <trkpt lat="40.5689460" lon="-4.1236620">
        <ele>925.4</ele>
        <time>2021-05-08T11:01:58Z</time>
      </trkpt>
      <trkpt lat="40.5688960" lon="-4.1236710">
        <ele>925.5</ele>
        <time>2021-05-08T11:02:00Z</time>
      </trkpt>
      <trkpt lat="40.5688650" lon="-4.1236770">
        <ele>925.5</ele>
        <time>2021-05-08T11:02:01Z</time>
      </trkpt>
      <trkpt lat="40.5688250" lon="-4.1236700">
        <ele>925.6</ele>
        <time>2021-05-08T11:02:02Z</time>
      </trkpt>
      <trkpt lat="40.5688100" lon="-4.1236720">
        <ele>925.6</ele>
        <time>2021-05-08T11:02:04Z</time>
      </trkpt>
      <trkpt lat="40.5688160" lon="-4.1236770">
        <ele>925.6</ele>
        <time>2021-05-08T11:02:05Z</time>
      </trkpt>
      <trkpt lat="40.5688180" lon="-4.1236840">
        <ele>925.6</ele>
        <time>2021-05-08T11:02:07Z</time>
      </trkpt>
      <trkpt lat="40.5688120" lon="-4.1236850">
        <ele>925.6</ele>
        <time>2021-05-08T11:02:08Z</time>
      </trkpt>
      <trkpt lat="40.5688050" lon="-4.1236850">
        <ele>925.6</ele>
        <time>2021-05-08T11:02:09Z</time>
      </trkpt>
      <trkpt lat="40.5688030" lon="-4.1236760">
        <ele>925.6</ele>
        <time>2021-05-08T11:02:11Z</time>
      </trkpt>
      <trkpt lat="40.5687940" lon="-4.1236540">
        <ele>925.6</ele>
        <time>2021-05-08T11:02:13Z</time>
      </trkpt>
      <trkpt lat="40.5687890" lon="-4.1236320">
        <ele>925.7</ele>
        <time>2021-05-08T11:02:14Z</time>
      </trkpt>
      <trkpt lat="40.5687570" lon="-4.1236050">
        <ele>925.7</ele>
        <time>2021-05-08T11:02:16Z</time>
      </trkpt>
      <trkpt lat="40.5687050" lon="-4.1236060">
        <ele>925.9</ele>
        <time>2021-05-08T11:02:17Z</time>
      </trkpt>
      <trkpt lat="40.5686780" lon="-4.1236100">
        <ele>925.9</ele>
        <time>2021-05-08T11:02:18Z</time>
      </trkpt>
      <trkpt lat="40.5686220" lon="-4.1236220">
        <ele>926.1</ele>
        <time>2021-05-08T11:02:20Z</time>
      </trkpt>
      <trkpt lat="40.5685450" lon="-4.1236370">
        <ele>926.3</ele>
        <time>2021-05-08T11:02:21Z</time>
      </trkpt>
      <trkpt lat="40.5684290" lon="-4.1236520">
        <ele>926.5</ele>
        <time>2021-05-08T11:02:23Z</time>
      </trkpt>
      <trkpt lat="40.5683720" lon="-4.1236530">
        <ele>926.6</ele>
        <time>2021-05-08T11:02:24Z</time>
      </trkpt>
      <trkpt lat="40.5682630" lon="-4.1236490">
        <ele>926.6</ele>
        <time>2021-05-08T11:02:26Z</time>
      </trkpt>
      <trkpt lat="40.5681600" lon="-4.1236390">
        <ele>926.6</ele>
        <time>2021-05-08T11:02:28Z</time>
      </trkpt>
      <trkpt lat="40.5680540" lon="-4.1236300">
        <ele>926.6</ele>
        <time>2021-05-08T11:02:30Z</time>
      </trkpt>
      <trkpt lat="40.5679470" lon="-4.1236190">
        <ele>926.5</ele>
        <time>2021-05-08T11:02:32Z</time>
      </trkpt>
      <trkpt lat="40.5678410" lon="-4.1236110">
        <ele>926.3</ele>
        <time>2021-05-08T11:02:34Z</time>
      </trkpt>
      <trkpt lat="40.5677820" lon="-4.1236070">
        <ele>926.2</ele>
        <time>2021-05-08T11:02:35Z</time>
      </trkpt>
      <trkpt lat="40.5676630" lon="-4.1236030">
        <ele>925.9</ele>
        <time>2021-05-08T11:02:37Z</time>
      </trkpt>
      <trkpt lat="40.5675330" lon="-4.1235960">
        <ele>925.5</ele>
        <time>2021-05-08T11:02:39Z</time>
      </trkpt>
      <trkpt lat="40.5674000" lon="-4.1235920">
        <ele>924.9</ele>
        <time>2021-05-08T11:02:41Z</time>
      </trkpt>
      <trkpt lat="40.5673280" lon="-4.1235840">
        <ele>924.6</ele>
        <time>2021-05-08T11:02:42Z</time>
      </trkpt>
      <trkpt lat="40.5672530" lon="-4.1235760">
        <ele>924.3</ele>
        <time>2021-05-08T11:02:43Z</time>
      </trkpt>
      <trkpt lat="40.5670990" lon="-4.1235600">
        <ele>923.7</ele>
        <time>2021-05-08T11:02:45Z</time>
      </trkpt>
      <trkpt lat="40.5670190" lon="-4.1235530">
        <ele>923.3</ele>
        <time>2021-05-08T11:02:46Z</time>
      </trkpt>
      <trkpt lat="40.5668600" lon="-4.1235570">
        <ele>922.6</ele>
        <time>2021-05-08T11:02:48Z</time>
      </trkpt>
      <trkpt lat="40.5666950" lon="-4.1235570">
        <ele>921.8</ele>
        <time>2021-05-08T11:02:50Z</time>
      </trkpt>
      <trkpt lat="40.5665190" lon="-4.1235600">
        <ele>920.9</ele>
        <time>2021-05-08T11:02:52Z</time>
      </trkpt>
      <trkpt lat="40.5663400" lon="-4.1235610">
        <ele>920.0</ele>
        <time>2021-05-08T11:02:54Z</time>
      </trkpt>
      <trkpt lat="40.5662500" lon="-4.1235600">
        <ele>919.5</ele>
        <time>2021-05-08T11:02:55Z</time>
      </trkpt>
      <trkpt lat="40.5661580" lon="-4.1235590">
        <ele>919.1</ele>
        <time>2021-05-08T11:02:56Z</time>
      </trkpt>
      <trkpt lat="40.5659730" lon="-4.1235430">
        <ele>918.3</ele>
        <time>2021-05-08T11:02:58Z</time>
      </trkpt>
      <trkpt lat="40.5657900" lon="-4.1235030">
        <ele>917.5</ele>
        <time>2021-05-08T11:03:00Z</time>
      </trkpt>
      <trkpt lat="40.5656080" lon="-4.1234300">
        <ele>916.9</ele>
        <time>2021-05-08T11:03:02Z</time>
      </trkpt>
      <trkpt lat="40.5654300" lon="-4.1233470">
        <ele>916.4</ele>
        <time>2021-05-08T11:03:04Z</time>
      </trkpt>
      <trkpt lat="40.5652630" lon="-4.1232390">
        <ele>916.0</ele>
        <time>2021-05-08T11:03:06Z</time>
      </trkpt>
      <trkpt lat="40.5651850" lon="-4.1231780">
        <ele>915.8</ele>
        <time>2021-05-08T11:03:07Z</time>
      </trkpt>
      <trkpt lat="40.5651110" lon="-4.1231100">
        <ele>915.7</ele>
        <time>2021-05-08T11:03:08Z</time>
      </trkpt>
      <trkpt lat="40.5650400" lon="-4.1230420">
        <ele>915.5</ele>
        <time>2021-05-08T11:03:09Z</time>
      </trkpt>
      <trkpt lat="40.5649000" lon="-4.1228990">
        <ele>915.2</ele>
        <time>2021-05-08T11:03:11Z</time>
      </trkpt>
      <trkpt lat="40.5648300" lon="-4.1228220">
        <ele>915.0</ele>
        <time>2021-05-08T11:03:12Z</time>
      </trkpt>
      <trkpt lat="40.5647660" lon="-4.1227440">
        <ele>914.8</ele>
        <time>2021-05-08T11:03:13Z</time>
      </trkpt>
      <trkpt lat="40.5647070" lon="-4.1226620">
        <ele>914.7</ele>
        <time>2021-05-08T11:03:14Z</time>
      </trkpt>
      <trkpt lat="40.5645950" lon="-4.1224910">
        <ele>914.3</ele>
        <time>2021-05-08T11:03:16Z</time>
      </trkpt>
      <trkpt lat="40.5644840" lon="-4.1223060">
        <ele>913.9</ele>
        <time>2021-05-08T11:03:18Z</time>
      </trkpt>
      <trkpt lat="40.5644300" lon="-4.1222100">
        <ele>913.7</ele>
        <time>2021-05-08T11:03:19Z</time>
      </trkpt>
      <trkpt lat="40.5643290" lon="-4.1219990">
        <ele>913.2</ele>
        <time>2021-05-08T11:03:21Z</time>
      </trkpt>
      <trkpt lat="40.5642870" lon="-4.1218940">
        <ele>913.0</ele>
        <time>2021-05-08T11:03:22Z</time>
      </trkpt>
      <trkpt lat="40.5642430" lon="-4.1217830">
        <ele>912.8</ele>
        <time>2021-05-08T11:03:23Z</time>
      </trkpt>
      <trkpt lat="40.5641970" lon="-4.1216730">
        <ele>912.6</ele>
        <time>2021-05-08T11:03:24Z</time>
      </trkpt>
      <trkpt lat="40.5641020" lon="-4.1214580">
        <ele>912.3</ele>
        <time>2021-05-08T11:03:26Z</time>
      </trkpt>
      <trkpt lat="40.5640140" lon="-4.1212460">
        <ele>912.0</ele>
        <time>2021-05-08T11:03:28Z</time>
      </trkpt>
      <trkpt lat="40.5639710" lon="-4.1211380">
        <ele>911.8</ele>
        <time>2021-05-08T11:03:29Z</time>
      </trkpt>
      <trkpt lat="40.5638850" lon="-4.1209280">
        <ele>911.5</ele>
        <time>2021-05-08T11:03:31Z</time>
      </trkpt>
      <trkpt lat="40.5637820" lon="-4.1207320">
        <ele>911.1</ele>
        <time>2021-05-08T11:03:33Z</time>
      </trkpt>
      <trkpt lat="40.5637300" lon="-4.1206400">
        <ele>911.0</ele>
        <time>2021-05-08T11:03:34Z</time>
      </trkpt>
      <trkpt lat="40.5636250" lon="-4.1204540">
        <ele>910.6</ele>
        <time>2021-05-08T11:03:36Z</time>
      </trkpt>
      <trkpt lat="40.5635070" lon="-4.1202820">
        <ele>910.3</ele>
        <time>2021-05-08T11:03:38Z</time>
      </trkpt>
      <trkpt lat="40.5634450" lon="-4.1202000">
        <ele>910.1</ele>
        <time>2021-05-08T11:03:39Z</time>
      </trkpt>
      <trkpt lat="40.5633170" lon="-4.1200510">
        <ele>909.8</ele>
        <time>2021-05-08T11:03:41Z</time>
      </trkpt>
      <trkpt lat="40.5631950" lon="-4.1199190">
        <ele>909.6</ele>
        <time>2021-05-08T11:03:43Z</time>
      </trkpt>
      <trkpt lat="40.5631300" lon="-4.1198520">
        <ele>909.5</ele>
        <time>2021-05-08T11:03:44Z</time>
      </trkpt>
      <trkpt lat="40.5629980" lon="-4.1197370">
        <ele>909.3</ele>
        <time>2021-05-08T11:03:46Z</time>
      </trkpt>
      <trkpt lat="40.5629290" lon="-4.1196830">
        <ele>909.2</ele>
        <time>2021-05-08T11:03:47Z</time>
      </trkpt>
      <trkpt lat="40.5628600" lon="-4.1196360">
        <ele>909.1</ele>
        <time>2021-05-08T11:03:48Z</time>
      </trkpt>
      <trkpt lat="40.5627170" lon="-4.1195520">
        <ele>908.9</ele>
        <time>2021-05-08T11:03:50Z</time>
      </trkpt>
      <trkpt lat="40.5626390" lon="-4.1195150">
        <ele>908.9</ele>
        <time>2021-05-08T11:03:51Z</time>
      </trkpt>
      <trkpt lat="40.5624860" lon="-4.1194630">
        <ele>908.7</ele>
        <time>2021-05-08T11:03:53Z</time>
      </trkpt>
      <trkpt lat="40.5623300" lon="-4.1194230">
        <ele>908.5</ele>
        <time>2021-05-08T11:03:55Z</time>
      </trkpt>
      <trkpt lat="40.5622530" lon="-4.1194070">
        <ele>908.4</ele>
        <time>2021-05-08T11:03:56Z</time>
      </trkpt>
      <trkpt lat="40.5621030" lon="-4.1193810">
        <ele>908.4</ele>
        <time>2021-05-08T11:03:58Z</time>
      </trkpt>
      <trkpt lat="40.5620290" lon="-4.1193720">
        <ele>908.4</ele>
        <time>2021-05-08T11:03:59Z</time>
      </trkpt>
      <trkpt lat="40.5619570" lon="-4.1193680">
        <ele>908.5</ele>
        <time>2021-05-08T11:04:00Z</time>
      </trkpt>
      <trkpt lat="40.5618080" lon="-4.1193720">
        <ele>908.6</ele>
        <time>2021-05-08T11:04:02Z</time>
      </trkpt>
      <trkpt lat="40.5617530" lon="-4.1193770">
        <ele>908.7</ele>
        <time>2021-05-08T11:04:03Z</time>
      </trkpt>
      <trkpt lat="40.5616180" lon="-4.1194010">
        <ele>908.9</ele>
        <time>2021-05-08T11:04:05Z</time>
      </trkpt>
      <trkpt lat="40.5615530" lon="-4.1194140">
        <ele>908.9</ele>
        <time>2021-05-08T11:04:06Z</time>
      </trkpt>
      <trkpt lat="40.5614880" lon="-4.1194310">
        <ele>909.0</ele>
        <time>2021-05-08T11:04:07Z</time>
      </trkpt>
      <trkpt lat="40.5613600" lon="-4.1194650">
        <ele>909.2</ele>
        <time>2021-05-08T11:04:09Z</time>
      </trkpt>
      <trkpt lat="40.5612340" lon="-4.1195040">
        <ele>909.4</ele>
        <time>2021-05-08T11:04:11Z</time>
      </trkpt>
      <trkpt lat="40.5611090" lon="-4.1195500">
        <ele>909.6</ele>
        <time>2021-05-08T11:04:13Z</time>
      </trkpt>
      <trkpt lat="40.5609960" lon="-4.1195920">
        <ele>909.9</ele>
        <time>2021-05-08T11:04:15Z</time>
      </trkpt>
      <trkpt lat="40.5609450" lon="-4.1196110">
        <ele>910.0</ele>
        <time>2021-05-08T11:04:16Z</time>
      </trkpt>
      <trkpt lat="40.5608970" lon="-4.1196280">
        <ele>910.1</ele>
        <time>2021-05-08T11:04:17Z</time>
      </trkpt>
      <trkpt lat="40.5607970" lon="-4.1196630">
        <ele>910.4</ele>
        <time>2021-05-08T11:04:19Z</time>
      </trkpt>
      <trkpt lat="40.5606950" lon="-4.1196890">
        <ele>910.7</ele>
        <time>2021-05-08T11:04:21Z</time>
      </trkpt>
      <trkpt lat="40.5606460" lon="-4.1196960">
        <ele>910.8</ele>
        <time>2021-05-08T11:04:22Z</time>
      </trkpt>
      <trkpt lat="40.5605530" lon="-4.1197080">
        <ele>911.1</ele>
        <time>2021-05-08T11:04:24Z</time>
      </trkpt>
      <trkpt lat="40.5604620" lon="-4.1197140">
        <ele>911.3</ele>
        <time>2021-05-08T11:04:26Z</time>
      </trkpt>
      <trkpt lat="40.5603730" lon="-4.1197200">
        <ele>911.5</ele>
        <time>2021-05-08T11:04:28Z</time>
      </trkpt>
      <trkpt lat="40.5603270" lon="-4.1197230">
        <ele>911.6</ele>
        <time>2021-05-08T11:04:29Z</time>
      </trkpt>
      <trkpt lat="40.5602790" lon="-4.1197220">
        <ele>911.8</ele>
        <time>2021-05-08T11:04:30Z</time>
      </trkpt>
      <trkpt lat="40.5601770" lon="-4.1197080">
        <ele>912.0</ele>
        <time>2021-05-08T11:04:32Z</time>
      </trkpt>
      <trkpt lat="40.5601230" lon="-4.1197030">
        <ele>912.2</ele>
        <time>2021-05-08T11:04:33Z</time>
      </trkpt>
      <trkpt lat="40.5600730" lon="-4.1196990">
        <ele>912.3</ele>
        <time>2021-05-08T11:04:34Z</time>
      </trkpt>
      <trkpt lat="40.5599940" lon="-4.1196830">
        <ele>912.5</ele>
        <time>2021-05-08T11:04:36Z</time>
      </trkpt>
      <trkpt lat="40.5599150" lon="-4.1196670">
        <ele>912.7</ele>
        <time>2021-05-08T11:04:38Z</time>
      </trkpt>
      <trkpt lat="40.5598640" lon="-4.1196550">
        <ele>912.8</ele>
        <time>2021-05-08T11:04:39Z</time>
      </trkpt>
      <trkpt lat="40.5597920" lon="-4.1196340">
        <ele>913.0</ele>
        <time>2021-05-08T11:04:41Z</time>
      </trkpt>
      <trkpt lat="40.5597460" lon="-4.1196220">
        <ele>913.2</ele>
        <time>2021-05-08T11:04:42Z</time>
      </trkpt>
      <trkpt lat="40.5597320" lon="-4.1195850">
        <ele>913.2</ele>
        <time>2021-05-08T11:04:43Z</time>
      </trkpt>
      <trkpt lat="40.5596520" lon="-4.1195770">
        <ele>913.4</ele>
        <time>2021-05-08T11:04:45Z</time>
      </trkpt>
      <trkpt lat="40.5595690" lon="-4.1195680">
        <ele>913.6</ele>
        <time>2021-05-08T11:04:46Z</time>
      </trkpt>
      <trkpt lat="40.5594800" lon="-4.1195580">
        <ele>913.8</ele>
        <time>2021-05-08T11:04:48Z</time>
      </trkpt>
      <trkpt lat="40.5594310" lon="-4.1195360">
        <ele>913.9</ele>
        <time>2021-05-08T11:04:49Z</time>
      </trkpt>
      <trkpt lat="40.5593910" lon="-4.1195130">
        <ele>914.0</ele>
        <time>2021-05-08T11:04:50Z</time>
      </trkpt>
      <trkpt lat="40.5593030" lon="-4.1194590">
        <ele>914.1</ele>
        <time>2021-05-08T11:04:52Z</time>
      </trkpt>
      <trkpt lat="40.5592600" lon="-4.1194320">
        <ele>914.1</ele>
        <time>2021-05-08T11:04:53Z</time>
      </trkpt>
      <trkpt lat="40.5592200" lon="-4.1194040">
        <ele>914.2</ele>
        <time>2021-05-08T11:04:54Z</time>
      </trkpt>
      <trkpt lat="40.5591430" lon="-4.1193460">
        <ele>914.2</ele>
        <time>2021-05-08T11:04:56Z</time>
      </trkpt>
      <trkpt lat="40.5590620" lon="-4.1192820">
        <ele>914.2</ele>
        <time>2021-05-08T11:04:58Z</time>
      </trkpt>
      <trkpt lat="40.5590210" lon="-4.1192490">
        <ele>914.1</ele>
        <time>2021-05-08T11:04:59Z</time>
      </trkpt>
      <trkpt lat="40.5589380" lon="-4.1191800">
        <ele>914.1</ele>
        <time>2021-05-08T11:05:01Z</time>
      </trkpt>
      <trkpt lat="40.5588960" lon="-4.1191430">
        <ele>914.0</ele>
        <time>2021-05-08T11:05:02Z</time>
      </trkpt>
      <trkpt lat="40.5588110" lon="-4.1190640">
        <ele>914.0</ele>
        <time>2021-05-08T11:05:04Z</time>
      </trkpt>
      <trkpt lat="40.5587290" lon="-4.1189840">
        <ele>913.9</ele>
        <time>2021-05-08T11:05:06Z</time>
      </trkpt>
      <trkpt lat="40.5586840" lon="-4.1189410">
        <ele>913.8</ele>
        <time>2021-05-08T11:05:07Z</time>
      </trkpt>
      <trkpt lat="40.5585920" lon="-4.1188480">
        <ele>913.7</ele>
        <time>2021-05-08T11:05:09Z</time>
      </trkpt>
      <trkpt lat="40.5585480" lon="-4.1188070">
        <ele>913.7</ele>
        <time>2021-05-08T11:05:10Z</time>
      </trkpt>
      <trkpt lat="40.5584490" lon="-4.1187170">
        <ele>913.7</ele>
        <time>2021-05-08T11:05:12Z</time>
      </trkpt>
      <trkpt lat="40.5583570" lon="-4.1186380">
        <ele>913.7</ele>
        <time>2021-05-08T11:05:14Z</time>
      </trkpt>
      <trkpt lat="40.5582660" lon="-4.1185580">
        <ele>913.7</ele>
        <time>2021-05-08T11:05:16Z</time>
      </trkpt>
      <trkpt lat="40.5581730" lon="-4.1184880">
        <ele>913.8</ele>
        <time>2021-05-08T11:05:18Z</time>
      </trkpt>
      <trkpt lat="40.5581260" lon="-4.1184550">
        <ele>913.9</ele>
        <time>2021-05-08T11:05:19Z</time>
      </trkpt>
      <trkpt lat="40.5580350" lon="-4.1183950">
        <ele>914.0</ele>
        <time>2021-05-08T11:05:21Z</time>
      </trkpt>
      <trkpt lat="40.5579900" lon="-4.1183680">
        <ele>914.1</ele>
        <time>2021-05-08T11:05:22Z</time>
      </trkpt>
      <trkpt lat="40.5578920" lon="-4.1183180">
        <ele>914.2</ele>
        <time>2021-05-08T11:05:24Z</time>
      </trkpt>
      <trkpt lat="40.5578410" lon="-4.1182920">
        <ele>914.2</ele>
        <time>2021-05-08T11:05:25Z</time>
      </trkpt>
      <trkpt lat="40.5577930" lon="-4.1182680">
        <ele>914.3</ele>
        <time>2021-05-08T11:05:26Z</time>
      </trkpt>
      <trkpt lat="40.5577430" lon="-4.1182490">
        <ele>914.3</ele>
        <time>2021-05-08T11:05:27Z</time>
      </trkpt>
      <trkpt lat="40.5576300" lon="-4.1182120">
        <ele>914.4</ele>
        <time>2021-05-08T11:05:29Z</time>
      </trkpt>
      <trkpt lat="40.5575190" lon="-4.1181690">
        <ele>914.5</ele>
        <time>2021-05-08T11:05:31Z</time>
      </trkpt>
      <trkpt lat="40.5574020" lon="-4.1181320">
        <ele>914.5</ele>
        <time>2021-05-08T11:05:33Z</time>
      </trkpt>
      <trkpt lat="40.5572920" lon="-4.1180890">
        <ele>914.6</ele>
        <time>2021-05-08T11:05:35Z</time>
      </trkpt>
      <trkpt lat="40.5572400" lon="-4.1180650">
        <ele>914.6</ele>
        <time>2021-05-08T11:05:36Z</time>
      </trkpt>
      <trkpt lat="40.5571870" lon="-4.1180470">
        <ele>914.7</ele>
        <time>2021-05-08T11:05:37Z</time>
      </trkpt>
      <trkpt lat="40.5570790" lon="-4.1180140">
        <ele>914.7</ele>
        <time>2021-05-08T11:05:39Z</time>
      </trkpt>
      <trkpt lat="40.5570240" lon="-4.1179990">
        <ele>914.7</ele>
        <time>2021-05-08T11:05:40Z</time>
      </trkpt>
      <trkpt lat="40.5569090" lon="-4.1179590">
        <ele>914.9</ele>
        <time>2021-05-08T11:05:42Z</time>
      </trkpt>
      <trkpt lat="40.5567970" lon="-4.1179160">
        <ele>915.0</ele>
        <time>2021-05-08T11:05:44Z</time>
      </trkpt>
      <trkpt lat="40.5566900" lon="-4.1178800">
        <ele>915.1</ele>
        <time>2021-05-08T11:05:46Z</time>
      </trkpt>
      <trkpt lat="40.5565840" lon="-4.1178490">
        <ele>915.2</ele>
        <time>2021-05-08T11:05:48Z</time>
      </trkpt>
      <trkpt lat="40.5565280" lon="-4.1178310">
        <ele>915.3</ele>
        <time>2021-05-08T11:05:49Z</time>
      </trkpt>
      <trkpt lat="40.5564230" lon="-4.1178020">
        <ele>915.3</ele>
        <time>2021-05-08T11:05:51Z</time>
      </trkpt>
      <trkpt lat="40.5563150" lon="-4.1177680">
        <ele>915.3</ele>
        <time>2021-05-08T11:05:53Z</time>
      </trkpt>
      <trkpt lat="40.5562590" lon="-4.1177480">
        <ele>915.3</ele>
        <time>2021-05-08T11:05:54Z</time>
      </trkpt>
      <trkpt lat="40.5562060" lon="-4.1177330">
        <ele>915.3</ele>
        <time>2021-05-08T11:05:55Z</time>
      </trkpt>
      <trkpt lat="40.5561530" lon="-4.1177180">
        <ele>915.3</ele>
        <time>2021-05-08T11:05:56Z</time>
      </trkpt>
      <trkpt lat="40.5560990" lon="-4.1177040">
        <ele>915.3</ele>
        <time>2021-05-08T11:05:57Z</time>
      </trkpt>
      <trkpt lat="40.5560440" lon="-4.1176870">
        <ele>915.3</ele>
        <time>2021-05-08T11:05:58Z</time>
      </trkpt>
      <trkpt lat="40.5559300" lon="-4.1176500">
        <ele>915.3</ele>
        <time>2021-05-08T11:06:00Z</time>
      </trkpt>
      <trkpt lat="40.5558150" lon="-4.1176180">
        <ele>915.3</ele>
        <time>2021-05-08T11:06:02Z</time>
      </trkpt>
      <trkpt lat="40.5557600" lon="-4.1175980">
        <ele>915.3</ele>
        <time>2021-05-08T11:06:03Z</time>
      </trkpt>
      <trkpt lat="40.5556490" lon="-4.1175600">
        <ele>915.3</ele>
        <time>2021-05-08T11:06:05Z</time>
      </trkpt>
      <trkpt lat="40.5555460" lon="-4.1175230">
        <ele>915.3</ele>
        <time>2021-05-08T11:06:07Z</time>
      </trkpt>
      <trkpt lat="40.5554950" lon="-4.1175050">
        <ele>915.4</ele>
        <time>2021-05-08T11:06:08Z</time>
      </trkpt>
      <trkpt lat="40.5553940" lon="-4.1174660">
        <ele>915.5</ele>
        <time>2021-05-08T11:06:10Z</time>
      </trkpt>
      <trkpt lat="40.5553020" lon="-4.1174350">
        <ele>915.6</ele>
        <time>2021-05-08T11:06:12Z</time>
      </trkpt>
      <trkpt lat="40.5552550" lon="-4.1174200">
        <ele>915.6</ele>
        <time>2021-05-08T11:06:13Z</time>
      </trkpt>
      <trkpt lat="40.5551580" lon="-4.1173830">
        <ele>915.8</ele>
        <time>2021-05-08T11:06:15Z</time>
      </trkpt>
      <trkpt lat="40.5550600" lon="-4.1173370">
        <ele>915.9</ele>
        <time>2021-05-08T11:06:17Z</time>
      </trkpt>
      <trkpt lat="40.5549630" lon="-4.1172780">
        <ele>916.1</ele>
        <time>2021-05-08T11:06:19Z</time>
      </trkpt>
      <trkpt lat="40.5548710" lon="-4.1172190">
        <ele>916.1</ele>
        <time>2021-05-08T11:06:21Z</time>
      </trkpt>
      <trkpt lat="40.5548290" lon="-4.1171840">
        <ele>916.2</ele>
        <time>2021-05-08T11:06:22Z</time>
      </trkpt>
      <trkpt lat="40.5547430" lon="-4.1171140">
        <ele>916.3</ele>
        <time>2021-05-08T11:06:24Z</time>
      </trkpt>
      <trkpt lat="40.5546550" lon="-4.1170490">
        <ele>916.3</ele>
        <time>2021-05-08T11:06:26Z</time>
      </trkpt>
      <trkpt lat="40.5546110" lon="-4.1170110">
        <ele>916.3</ele>
        <time>2021-05-08T11:06:27Z</time>
      </trkpt>
      <trkpt lat="40.5545280" lon="-4.1169380">
        <ele>916.2</ele>
        <time>2021-05-08T11:06:29Z</time>
      </trkpt>
      <trkpt lat="40.5544840" lon="-4.1168940">
        <ele>916.2</ele>
        <time>2021-05-08T11:06:30Z</time>
      </trkpt>
      <trkpt lat="40.5544460" lon="-4.1168510">
        <ele>916.1</ele>
        <time>2021-05-08T11:06:31Z</time>
      </trkpt>
      <trkpt lat="40.5543560" lon="-4.1167570">
        <ele>916.0</ele>
        <time>2021-05-08T11:06:33Z</time>
      </trkpt>
      <trkpt lat="40.5542620" lon="-4.1166570">
        <ele>915.7</ele>
        <time>2021-05-08T11:06:35Z</time>
      </trkpt>
      <trkpt lat="40.5541720" lon="-4.1165530">
        <ele>915.4</ele>
        <time>2021-05-08T11:06:37Z</time>
      </trkpt>
      <trkpt lat="40.5540760" lon="-4.1164480">
        <ele>915.2</ele>
        <time>2021-05-08T11:06:39Z</time>
      </trkpt>
      <trkpt lat="40.5539740" lon="-4.1163490">
        <ele>914.9</ele>
        <time>2021-05-08T11:06:41Z</time>
      </trkpt>
      <trkpt lat="40.5539220" lon="-4.1162970">
        <ele>914.8</ele>
        <time>2021-05-08T11:06:42Z</time>
      </trkpt>
      <trkpt lat="40.5538680" lon="-4.1162500">
        <ele>914.7</ele>
        <time>2021-05-08T11:06:43Z</time>
      </trkpt>
      <trkpt lat="40.5537560" lon="-4.1161620">
        <ele>914.4</ele>
        <time>2021-05-08T11:06:45Z</time>
      </trkpt>
      <trkpt lat="40.5537000" lon="-4.1161220">
        <ele>914.3</ele>
        <time>2021-05-08T11:06:46Z</time>
      </trkpt>
      <trkpt lat="40.5536440" lon="-4.1160820">
        <ele>914.2</ele>
        <time>2021-05-08T11:06:47Z</time>
      </trkpt>
      <trkpt lat="40.5535870" lon="-4.1160430">
        <ele>914.1</ele>
        <time>2021-05-08T11:06:48Z</time>
      </trkpt>
      <trkpt lat="40.5535270" lon="-4.1160080">
        <ele>914.0</ele>
        <time>2021-05-08T11:06:49Z</time>
      </trkpt>
      <trkpt lat="40.5534060" lon="-4.1159490">
        <ele>914.0</ele>
        <time>2021-05-08T11:06:51Z</time>
      </trkpt>
      <trkpt lat="40.5532830" lon="-4.1158950">
        <ele>913.9</ele>
        <time>2021-05-08T11:06:53Z</time>
      </trkpt>
      <trkpt lat="40.5532210" lon="-4.1158700">
        <ele>913.9</ele>
        <time>2021-05-08T11:06:54Z</time>
      </trkpt>
      <trkpt lat="40.5531600" lon="-4.1158480">
        <ele>913.9</ele>
        <time>2021-05-08T11:06:55Z</time>
      </trkpt>
      <trkpt lat="40.5530990" lon="-4.1158290">
        <ele>914.0</ele>
        <time>2021-05-08T11:06:56Z</time>
      </trkpt>
      <trkpt lat="40.5529760" lon="-4.1158020">
        <ele>914.1</ele>
        <time>2021-05-08T11:06:58Z</time>
      </trkpt>
      <trkpt lat="40.5529160" lon="-4.1157910">
        <ele>914.1</ele>
        <time>2021-05-08T11:06:59Z</time>
      </trkpt>
      <trkpt lat="40.5527990" lon="-4.1157750">
        <ele>914.2</ele>
        <time>2021-05-08T11:07:01Z</time>
      </trkpt>
      <trkpt lat="40.5527410" lon="-4.1157690">
        <ele>914.3</ele>
        <time>2021-05-08T11:07:02Z</time>
      </trkpt>
      <trkpt lat="40.5526810" lon="-4.1157640">
        <ele>914.3</ele>
        <time>2021-05-08T11:07:03Z</time>
      </trkpt>
      <trkpt lat="40.5525650" lon="-4.1157620">
        <ele>914.5</ele>
        <time>2021-05-08T11:07:05Z</time>
      </trkpt>
      <trkpt lat="40.5524430" lon="-4.1157610">
        <ele>914.6</ele>
        <time>2021-05-08T11:07:07Z</time>
      </trkpt>
      <trkpt lat="40.5523300" lon="-4.1157660">
        <ele>914.7</ele>
        <time>2021-05-08T11:07:09Z</time>
      </trkpt>
      <trkpt lat="40.5522100" lon="-4.1157730">
        <ele>914.7</ele>
        <time>2021-05-08T11:07:11Z</time>
      </trkpt>
      <trkpt lat="40.5520880" lon="-4.1157820">
        <ele>914.7</ele>
        <time>2021-05-08T11:07:13Z</time>
      </trkpt>
      <trkpt lat="40.5519650" lon="-4.1157910">
        <ele>914.7</ele>
        <time>2021-05-08T11:07:15Z</time>
      </trkpt>
      <trkpt lat="40.5518460" lon="-4.1158030">
        <ele>914.7</ele>
        <time>2021-05-08T11:07:17Z</time>
      </trkpt>
      <trkpt lat="40.5517250" lon="-4.1158150">
        <ele>914.8</ele>
        <time>2021-05-08T11:07:19Z</time>
      </trkpt>
      <trkpt lat="40.5516680" lon="-4.1158190">
        <ele>914.8</ele>
        <time>2021-05-08T11:07:20Z</time>
      </trkpt>
      <trkpt lat="40.5516110" lon="-4.1158220">
        <ele>914.7</ele>
        <time>2021-05-08T11:07:21Z</time>
      </trkpt>
      <trkpt lat="40.5515530" lon="-4.1158260">
        <ele>914.7</ele>
        <time>2021-05-08T11:07:22Z</time>
      </trkpt>
      <trkpt lat="40.5514420" lon="-4.1158320">
        <ele>914.5</ele>
        <time>2021-05-08T11:07:24Z</time>
      </trkpt>
      <trkpt lat="40.5513240" lon="-4.1158370">
        <ele>914.1</ele>
        <time>2021-05-08T11:07:26Z</time>
      </trkpt>
      <trkpt lat="40.5512030" lon="-4.1158410">
        <ele>913.7</ele>
        <time>2021-05-08T11:07:28Z</time>
      </trkpt>
      <trkpt lat="40.5511370" lon="-4.1158460">
        <ele>913.5</ele>
        <time>2021-05-08T11:07:29Z</time>
      </trkpt>
      <trkpt lat="40.5510080" lon="-4.1158530">
        <ele>913.0</ele>
        <time>2021-05-08T11:07:31Z</time>
      </trkpt>
      <trkpt lat="40.5508750" lon="-4.1158560">
        <ele>912.3</ele>
        <time>2021-05-08T11:07:33Z</time>
      </trkpt>
      <trkpt lat="40.5508010" lon="-4.1158600">
        <ele>912.0</ele>
        <time>2021-05-08T11:07:34Z</time>
      </trkpt>
      <trkpt lat="40.5507230" lon="-4.1158640">
        <ele>911.6</ele>
        <time>2021-05-08T11:07:35Z</time>
      </trkpt>
      <trkpt lat="40.5506450" lon="-4.1158690">
        <ele>911.2</ele>
        <time>2021-05-08T11:07:36Z</time>
      </trkpt>
      <trkpt lat="40.5504830" lon="-4.1158800">
        <ele>910.5</ele>
        <time>2021-05-08T11:07:38Z</time>
      </trkpt>
      <trkpt lat="40.5504030" lon="-4.1158870">
        <ele>910.3</ele>
        <time>2021-05-08T11:07:39Z</time>
      </trkpt>
      <trkpt lat="40.5502390" lon="-4.1158990">
        <ele>909.7</ele>
        <time>2021-05-08T11:07:41Z</time>
      </trkpt>
      <trkpt lat="40.5501540" lon="-4.1159070">
        <ele>909.5</ele>
        <time>2021-05-08T11:07:42Z</time>
      </trkpt>
      <trkpt lat="40.5499880" lon="-4.1159240">
        <ele>909.2</ele>
        <time>2021-05-08T11:07:44Z</time>
      </trkpt>
      <trkpt lat="40.5498330" lon="-4.1159350">
        <ele>909.0</ele>
        <time>2021-05-08T11:07:46Z</time>
      </trkpt>
      <trkpt lat="40.5496830" lon="-4.1159450">
        <ele>908.7</ele>
        <time>2021-05-08T11:07:48Z</time>
      </trkpt>
      <trkpt lat="40.5496080" lon="-4.1159520">
        <ele>908.6</ele>
        <time>2021-05-08T11:07:49Z</time>
      </trkpt>
      <trkpt lat="40.5494650" lon="-4.1159630">
        <ele>908.4</ele>
        <time>2021-05-08T11:07:51Z</time>
      </trkpt>
      <trkpt lat="40.5493930" lon="-4.1159650">
        <ele>908.2</ele>
        <time>2021-05-08T11:07:52Z</time>
      </trkpt>
      <trkpt lat="40.5492560" lon="-4.1159700">
        <ele>907.8</ele>
        <time>2021-05-08T11:07:54Z</time>
      </trkpt>
      <trkpt lat="40.5491160" lon="-4.1159710">
        <ele>907.4</ele>
        <time>2021-05-08T11:07:56Z</time>
      </trkpt>
      <trkpt lat="40.5489690" lon="-4.1159610">
        <ele>906.7</ele>
        <time>2021-05-08T11:07:58Z</time>
      </trkpt>
      <trkpt lat="40.5488930" lon="-4.1159510">
        <ele>906.4</ele>
        <time>2021-05-08T11:07:59Z</time>
      </trkpt>
      <trkpt lat="40.5488130" lon="-4.1159350">
        <ele>906.0</ele>
        <time>2021-05-08T11:08:00Z</time>
      </trkpt>
      <trkpt lat="40.5486520" lon="-4.1158960">
        <ele>905.2</ele>
        <time>2021-05-08T11:08:02Z</time>
      </trkpt>
      <trkpt lat="40.5485670" lon="-4.1158730">
        <ele>904.8</ele>
        <time>2021-05-08T11:08:03Z</time>
      </trkpt>
      <trkpt lat="40.5484810" lon="-4.1158420">
        <ele>904.5</ele>
        <time>2021-05-08T11:08:04Z</time>
      </trkpt>
      <trkpt lat="40.5483100" lon="-4.1157690">
        <ele>904.1</ele>
        <time>2021-05-08T11:08:06Z</time>
      </trkpt>
      <trkpt lat="40.5482300" lon="-4.1157230">
        <ele>903.9</ele>
        <time>2021-05-08T11:08:07Z</time>
      </trkpt>
      <trkpt lat="40.5481520" lon="-4.1156680">
        <ele>903.8</ele>
        <time>2021-05-08T11:08:08Z</time>
      </trkpt>
      <trkpt lat="40.5480780" lon="-4.1156160">
        <ele>903.8</ele>
        <time>2021-05-08T11:08:09Z</time>
      </trkpt>
      <trkpt lat="40.5480140" lon="-4.1155690">
        <ele>903.7</ele>
        <time>2021-05-08T11:08:10Z</time>
      </trkpt>
      <trkpt lat="40.5478680" lon="-4.1154490">
        <ele>903.6</ele>
        <time>2021-05-08T11:08:12Z</time>
      </trkpt>
      <trkpt lat="40.5477300" lon="-4.1153340">
        <ele>903.5</ele>
        <time>2021-05-08T11:08:14Z</time>
      </trkpt>
      <trkpt lat="40.5476610" lon="-4.1152740">
        <ele>903.4</ele>
        <time>2021-05-08T11:08:15Z</time>
      </trkpt>
      <trkpt lat="40.5475340" lon="-4.1151530">
        <ele>903.2</ele>
        <time>2021-05-08T11:08:17Z</time>
      </trkpt>
      <trkpt lat="40.5474710" lon="-4.1150890">
        <ele>903.1</ele>
        <time>2021-05-08T11:08:18Z</time>
      </trkpt>
      <trkpt lat="40.5474080" lon="-4.1150260">
        <ele>903.0</ele>
        <time>2021-05-08T11:08:19Z</time>
      </trkpt>
      <trkpt lat="40.5472790" lon="-4.1149080">
        <ele>903.0</ele>
        <time>2021-05-08T11:08:21Z</time>
      </trkpt>
      <trkpt lat="40.5471490" lon="-4.1147920">
        <ele>902.9</ele>
        <time>2021-05-08T11:08:23Z</time>
      </trkpt>
      <trkpt lat="40.5470160" lon="-4.1146810">
        <ele>902.9</ele>
        <time>2021-05-08T11:08:25Z</time>
      </trkpt>
      <trkpt lat="40.5469480" lon="-4.1146280">
        <ele>903.0</ele>
        <time>2021-05-08T11:08:26Z</time>
      </trkpt>
      <trkpt lat="40.5468830" lon="-4.1145770">
        <ele>903.0</ele>
        <time>2021-05-08T11:08:27Z</time>
      </trkpt>
      <trkpt lat="40.5468200" lon="-4.1145240">
        <ele>903.1</ele>
        <time>2021-05-08T11:08:28Z</time>
      </trkpt>
      <trkpt lat="40.5467330" lon="-4.1144500">
        <ele>903.1</ele>
        <time>2021-05-08T11:08:30Z</time>
      </trkpt>
      <trkpt lat="40.5466390" lon="-4.1143710">
        <ele>903.2</ele>
        <time>2021-05-08T11:08:31Z</time>
      </trkpt>
      <trkpt lat="40.5465100" lon="-4.1142730">
        <ele>903.2</ele>
        <time>2021-05-08T11:08:33Z</time>
      </trkpt>
      <trkpt lat="40.5463910" lon="-4.1141770">
        <ele>903.2</ele>
        <time>2021-05-08T11:08:35Z</time>
      </trkpt>
      <trkpt lat="40.5462750" lon="-4.1140820">
        <ele>903.2</ele>
        <time>2021-05-08T11:08:37Z</time>
      </trkpt>
      <trkpt lat="40.5461570" lon="-4.1139770">
        <ele>903.2</ele>
        <time>2021-05-08T11:08:39Z</time>
      </trkpt>
      <trkpt lat="40.5461000" lon="-4.1139240">
        <ele>903.2</ele>
        <time>2021-05-08T11:08:40Z</time>
      </trkpt>
      <trkpt lat="40.5459830" lon="-4.1138330">
        <ele>903.2</ele>
        <time>2021-05-08T11:08:42Z</time>
      </trkpt>
      <trkpt lat="40.5458810" lon="-4.1137420">
        <ele>903.1</ele>
        <time>2021-05-08T11:08:44Z</time>
      </trkpt>
      <trkpt lat="40.5457840" lon="-4.1136450">
        <ele>903.1</ele>
        <time>2021-05-08T11:08:46Z</time>
      </trkpt>
      <trkpt lat="40.5456830" lon="-4.1135540">
        <ele>903.1</ele>
        <time>2021-05-08T11:08:48Z</time>
      </trkpt>
      <trkpt lat="40.5456320" lon="-4.1135110">
        <ele>903.0</ele>
        <time>2021-05-08T11:08:49Z</time>
      </trkpt>
      <trkpt lat="40.5455340" lon="-4.1134260">
        <ele>902.9</ele>
        <time>2021-05-08T11:08:51Z</time>
      </trkpt>
      <trkpt lat="40.5454850" lon="-4.1133810">
        <ele>902.9</ele>
        <time>2021-05-08T11:08:52Z</time>
      </trkpt>
      <trkpt lat="40.5453860" lon="-4.1132890">
        <ele>902.8</ele>
        <time>2021-05-08T11:08:54Z</time>
      </trkpt>
      <trkpt lat="40.5453320" lon="-4.1132460">
        <ele>902.7</ele>
        <time>2021-05-08T11:08:55Z</time>
      </trkpt>
      <trkpt lat="40.5452800" lon="-4.1132020">
        <ele>902.6</ele>
        <time>2021-05-08T11:08:56Z</time>
      </trkpt>
      <trkpt lat="40.5451750" lon="-4.1131180">
        <ele>902.5</ele>
        <time>2021-05-08T11:08:58Z</time>
      </trkpt>
      <trkpt lat="40.5450660" lon="-4.1130300">
        <ele>902.4</ele>
        <time>2021-05-08T11:09:00Z</time>
      </trkpt>
      <trkpt lat="40.5449630" lon="-4.1129390">
        <ele>902.3</ele>
        <time>2021-05-08T11:09:02Z</time>
      </trkpt>
      <trkpt lat="40.5448640" lon="-4.1128530">
        <ele>902.2</ele>
        <time>2021-05-08T11:09:04Z</time>
      </trkpt>
      <trkpt lat="40.5447680" lon="-4.1127680">
        <ele>902.1</ele>
        <time>2021-05-08T11:09:06Z</time>
      </trkpt>
      <trkpt lat="40.5447210" lon="-4.1127190">
        <ele>902.1</ele>
        <time>2021-05-08T11:09:07Z</time>
      </trkpt>
      <trkpt lat="40.5446790" lon="-4.1126680">
        <ele>902.1</ele>
        <time>2021-05-08T11:09:08Z</time>
      </trkpt>
      <trkpt lat="40.5446020" lon="-4.1125560">
        <ele>902.0</ele>
        <time>2021-05-08T11:09:10Z</time>
      </trkpt>
      <trkpt lat="40.5445660" lon="-4.1124990">
        <ele>902.0</ele>
        <time>2021-05-08T11:09:11Z</time>
      </trkpt>
      <trkpt lat="40.5445280" lon="-4.1124400">
        <ele>902.0</ele>
        <time>2021-05-08T11:09:12Z</time>
      </trkpt>
      <trkpt lat="40.5444610" lon="-4.1123280">
        <ele>901.8</ele>
        <time>2021-05-08T11:09:14Z</time>
      </trkpt>
      <trkpt lat="40.5444220" lon="-4.1122810">
        <ele>901.7</ele>
        <time>2021-05-08T11:09:15Z</time>
      </trkpt>
      <trkpt lat="40.5443730" lon="-4.1122550">
        <ele>901.5</ele>
        <time>2021-05-08T11:09:16Z</time>
      </trkpt>
      <trkpt lat="40.5442460" lon="-4.1122410">
        <ele>901.3</ele>
        <time>2021-05-08T11:09:18Z</time>
      </trkpt>
      <trkpt lat="40.5441790" lon="-4.1122170">
        <ele>901.0</ele>
        <time>2021-05-08T11:09:19Z</time>
      </trkpt>
      <trkpt lat="40.5440580" lon="-4.1121090">
        <ele>900.1</ele>
        <time>2021-05-08T11:09:21Z</time>
      </trkpt>
      <trkpt lat="40.5440230" lon="-4.1120240">
        <ele>900.1</ele>
        <time>2021-05-08T11:09:22Z</time>
      </trkpt>
      <trkpt lat="40.5440270" lon="-4.1118240">
        <ele>900.0</ele>
        <time>2021-05-08T11:09:24Z</time>
      </trkpt>
      <trkpt lat="40.5440720" lon="-4.1116470">
        <ele>899.9</ele>
        <time>2021-05-08T11:09:26Z</time>
      </trkpt>
      <trkpt lat="40.5440880" lon="-4.1115610">
        <ele>899.9</ele>
        <time>2021-05-08T11:09:27Z</time>
      </trkpt>
      <trkpt lat="40.5440930" lon="-4.1113950">
        <ele>899.9</ele>
        <time>2021-05-08T11:09:29Z</time>
      </trkpt>
      <trkpt lat="40.5440920" lon="-4.1113190">
        <ele>899.9</ele>
        <time>2021-05-08T11:09:30Z</time>
      </trkpt>
      <trkpt lat="40.5440840" lon="-4.1111850">
        <ele>899.9</ele>
        <time>2021-05-08T11:09:32Z</time>
      </trkpt>
      <trkpt lat="40.5440780" lon="-4.1111170">
        <ele>899.9</ele>
        <time>2021-05-08T11:09:33Z</time>
      </trkpt>
      <trkpt lat="40.5440690" lon="-4.1109780">
        <ele>899.9</ele>
        <time>2021-05-08T11:09:35Z</time>
      </trkpt>
      <trkpt lat="40.5440650" lon="-4.1108290">
        <ele>899.9</ele>
        <time>2021-05-08T11:09:37Z</time>
      </trkpt>
      <trkpt lat="40.5440530" lon="-4.1106800">
        <ele>900.0</ele>
        <time>2021-05-08T11:09:39Z</time>
      </trkpt>
      <trkpt lat="40.5440310" lon="-4.1105360">
        <ele>900.0</ele>
        <time>2021-05-08T11:09:41Z</time>
      </trkpt>
      <trkpt lat="40.5440110" lon="-4.1103840">
        <ele>900.1</ele>
        <time>2021-05-08T11:09:43Z</time>
      </trkpt>
      <trkpt lat="40.5439790" lon="-4.1102400">
        <ele>900.1</ele>
        <time>2021-05-08T11:09:45Z</time>
      </trkpt>
      <trkpt lat="40.5439440" lon="-4.1100910">
        <ele>900.0</ele>
        <time>2021-05-08T11:09:47Z</time>
      </trkpt>
      <trkpt lat="40.5439230" lon="-4.1100160">
        <ele>900.0</ele>
        <time>2021-05-08T11:09:48Z</time>
      </trkpt>
      <trkpt lat="40.5439030" lon="-4.1099450">
        <ele>900.1</ele>
        <time>2021-05-08T11:09:49Z</time>
      </trkpt>
      <trkpt lat="40.5438590" lon="-4.1098070">
        <ele>900.2</ele>
        <time>2021-05-08T11:09:51Z</time>
      </trkpt>
      <trkpt lat="40.5438280" lon="-4.1096680">
        <ele>900.3</ele>
        <time>2021-05-08T11:09:53Z</time>
      </trkpt>
      <trkpt lat="40.5437980" lon="-4.1095340">
        <ele>900.4</ele>
        <time>2021-05-08T11:09:55Z</time>
      </trkpt>
      <trkpt lat="40.5437790" lon="-4.1094690">
        <ele>900.5</ele>
        <time>2021-05-08T11:09:56Z</time>
      </trkpt>
      <trkpt lat="40.5437440" lon="-4.1093400">
        <ele>900.7</ele>
        <time>2021-05-08T11:09:58Z</time>
      </trkpt>
      <trkpt lat="40.5437290" lon="-4.1092720">
        <ele>900.8</ele>
        <time>2021-05-08T11:09:59Z</time>
      </trkpt>
      <trkpt lat="40.5436980" lon="-4.1091400">
        <ele>900.9</ele>
        <time>2021-05-08T11:10:01Z</time>
      </trkpt>
      <trkpt lat="40.5436850" lon="-4.1090740">
        <ele>901.0</ele>
        <time>2021-05-08T11:10:02Z</time>
      </trkpt>
      <trkpt lat="40.5436720" lon="-4.1090070">
        <ele>901.2</ele>
        <time>2021-05-08T11:10:03Z</time>
      </trkpt>
      <trkpt lat="40.5436450" lon="-4.1088740">
        <ele>901.4</ele>
        <time>2021-05-08T11:10:05Z</time>
      </trkpt>
      <trkpt lat="40.5436270" lon="-4.1088070">
        <ele>901.5</ele>
        <time>2021-05-08T11:10:06Z</time>
      </trkpt>
      <trkpt lat="40.5436080" lon="-4.1087340">
        <ele>901.7</ele>
        <time>2021-05-08T11:10:07Z</time>
      </trkpt>
      <trkpt lat="40.5435690" lon="-4.1085980">
        <ele>902.0</ele>
        <time>2021-05-08T11:10:09Z</time>
      </trkpt>
      <trkpt lat="40.5435470" lon="-4.1085300">
        <ele>902.2</ele>
        <time>2021-05-08T11:10:10Z</time>
      </trkpt>
      <trkpt lat="40.5435020" lon="-4.1083930">
        <ele>902.6</ele>
        <time>2021-05-08T11:10:12Z</time>
      </trkpt>
      <trkpt lat="40.5434620" lon="-4.1082600">
        <ele>903.0</ele>
        <time>2021-05-08T11:10:14Z</time>
      </trkpt>
      <trkpt lat="40.5434280" lon="-4.1081250">
        <ele>903.3</ele>
        <time>2021-05-08T11:10:16Z</time>
      </trkpt>
      <trkpt lat="40.5434110" lon="-4.1080560">
        <ele>903.4</ele>
        <time>2021-05-08T11:10:17Z</time>
      </trkpt>
      <trkpt lat="40.5433950" lon="-4.1079890">
        <ele>903.6</ele>
        <time>2021-05-08T11:10:18Z</time>
      </trkpt>
      <trkpt lat="40.5433650" lon="-4.1078530">
        <ele>903.9</ele>
        <time>2021-05-08T11:10:20Z</time>
      </trkpt>
      <trkpt lat="40.5433480" lon="-4.1077840">
        <ele>904.0</ele>
        <time>2021-05-08T11:10:21Z</time>
      </trkpt>
      <trkpt lat="40.5433310" lon="-4.1077220">
        <ele>904.1</ele>
        <time>2021-05-08T11:10:22Z</time>
      </trkpt>
      <trkpt lat="40.5432980" lon="-4.1075900">
        <ele>904.3</ele>
        <time>2021-05-08T11:10:24Z</time>
      </trkpt>
      <trkpt lat="40.5432610" lon="-4.1074560">
        <ele>904.5</ele>
        <time>2021-05-08T11:10:26Z</time>
      </trkpt>
      <trkpt lat="40.5432480" lon="-4.1073890">
        <ele>904.6</ele>
        <time>2021-05-08T11:10:27Z</time>
      </trkpt>
      <trkpt lat="40.5432310" lon="-4.1073270">
        <ele>904.7</ele>
        <time>2021-05-08T11:10:28Z</time>
      </trkpt>
      <trkpt lat="40.5432110" lon="-4.1072620">
        <ele>904.8</ele>
        <time>2021-05-08T11:10:30Z</time>
      </trkpt>
      <trkpt lat="40.5431740" lon="-4.1071360">
        <ele>904.9</ele>
        <time>2021-05-08T11:10:31Z</time>
      </trkpt>
      <trkpt lat="40.5431560" lon="-4.1070690">
        <ele>904.9</ele>
        <time>2021-05-08T11:10:32Z</time>
      </trkpt>
      <trkpt lat="40.5431180" lon="-4.1069360">
        <ele>904.9</ele>
        <time>2021-05-08T11:10:34Z</time>
      </trkpt>
      <trkpt lat="40.5430940" lon="-4.1068770">
        <ele>904.8</ele>
        <time>2021-05-08T11:10:35Z</time>
      </trkpt>
      <trkpt lat="40.5430670" lon="-4.1068200">
        <ele>904.7</ele>
        <time>2021-05-08T11:10:36Z</time>
      </trkpt>
      <trkpt lat="40.5430360" lon="-4.1067610">
        <ele>904.7</ele>
        <time>2021-05-08T11:10:37Z</time>
      </trkpt>
      <trkpt lat="40.5430040" lon="-4.1066970">
        <ele>904.6</ele>
        <time>2021-05-08T11:10:38Z</time>
      </trkpt>
      <trkpt lat="40.5429370" lon="-4.1065660">
        <ele>904.4</ele>
        <time>2021-05-08T11:10:40Z</time>
      </trkpt>
      <trkpt lat="40.5429000" lon="-4.1064970">
        <ele>904.3</ele>
        <time>2021-05-08T11:10:41Z</time>
      </trkpt>
      <trkpt lat="40.5428340" lon="-4.1063500">
        <ele>904.0</ele>
        <time>2021-05-08T11:10:43Z</time>
      </trkpt>
      <trkpt lat="40.5428010" lon="-4.1062780">
        <ele>904.0</ele>
        <time>2021-05-08T11:10:44Z</time>
      </trkpt>
      <trkpt lat="40.5427300" lon="-4.1061390">
        <ele>903.8</ele>
        <time>2021-05-08T11:10:46Z</time>
      </trkpt>
      <trkpt lat="40.5426590" lon="-4.1060070">
        <ele>903.6</ele>
        <time>2021-05-08T11:10:48Z</time>
      </trkpt>
      <trkpt lat="40.5426220" lon="-4.1059370">
        <ele>903.6</ele>
        <time>2021-05-08T11:10:50Z</time>
      </trkpt>
      <trkpt lat="40.5425590" lon="-4.1058130">
        <ele>903.5</ele>
        <time>2021-05-08T11:10:51Z</time>
      </trkpt>
      <trkpt lat="40.5425260" lon="-4.1057500">
        <ele>903.4</ele>
        <time>2021-05-08T11:10:52Z</time>
      </trkpt>
      <trkpt lat="40.5424590" lon="-4.1056300">
        <ele>903.3</ele>
        <time>2021-05-08T11:10:54Z</time>
      </trkpt>
      <trkpt lat="40.5423890" lon="-4.1055030">
        <ele>903.3</ele>
        <time>2021-05-08T11:10:56Z</time>
      </trkpt>
      <trkpt lat="40.5423510" lon="-4.1054390">
        <ele>903.2</ele>
        <time>2021-05-08T11:10:57Z</time>
      </trkpt>
      <trkpt lat="40.5423160" lon="-4.1053740">
        <ele>903.2</ele>
        <time>2021-05-08T11:10:58Z</time>
      </trkpt>
      <trkpt lat="40.5422520" lon="-4.1052380">
        <ele>903.1</ele>
        <time>2021-05-08T11:11:00Z</time>
      </trkpt>
      <trkpt lat="40.5422200" lon="-4.1051680">
        <ele>903.1</ele>
        <time>2021-05-08T11:11:01Z</time>
      </trkpt>
      <trkpt lat="40.5421890" lon="-4.1051040">
        <ele>903.1</ele>
        <time>2021-05-08T11:11:02Z</time>
      </trkpt>
      <trkpt lat="40.5421580" lon="-4.1050400">
        <ele>903.1</ele>
        <time>2021-05-08T11:11:03Z</time>
      </trkpt>
      <trkpt lat="40.5420920" lon="-4.1049100">
        <ele>903.2</ele>
        <time>2021-05-08T11:11:05Z</time>
      </trkpt>
      <trkpt lat="40.5420230" lon="-4.1047900">
        <ele>903.3</ele>
        <time>2021-05-08T11:11:07Z</time>
      </trkpt>
      <trkpt lat="40.5419570" lon="-4.1046740">
        <ele>903.4</ele>
        <time>2021-05-08T11:11:09Z</time>
      </trkpt>
      <trkpt lat="40.5419250" lon="-4.1046140">
        <ele>903.4</ele>
        <time>2021-05-08T11:11:10Z</time>
      </trkpt>
      <trkpt lat="40.5418660" lon="-4.1044980">
        <ele>903.4</ele>
        <time>2021-05-08T11:11:12Z</time>
      </trkpt>
      <trkpt lat="40.5418370" lon="-4.1044390">
        <ele>903.4</ele>
        <time>2021-05-08T11:11:13Z</time>
      </trkpt>
      <trkpt lat="40.5417790" lon="-4.1043200">
        <ele>903.5</ele>
        <time>2021-05-08T11:11:15Z</time>
      </trkpt>
      <trkpt lat="40.5417200" lon="-4.1041980">
        <ele>903.5</ele>
        <time>2021-05-08T11:11:17Z</time>
      </trkpt>
      <trkpt lat="40.5416570" lon="-4.1040780">
        <ele>903.6</ele>
        <time>2021-05-08T11:11:19Z</time>
      </trkpt>
      <trkpt lat="40.5416220" lon="-4.1040170">
        <ele>903.6</ele>
        <time>2021-05-08T11:11:20Z</time>
      </trkpt>
      <trkpt lat="40.5415480" lon="-4.1038940">
        <ele>903.6</ele>
        <time>2021-05-08T11:11:22Z</time>
      </trkpt>
      <trkpt lat="40.5415090" lon="-4.1038330">
        <ele>903.6</ele>
        <time>2021-05-08T11:11:23Z</time>
      </trkpt>
      <trkpt lat="40.5414670" lon="-4.1037740">
        <ele>903.7</ele>
        <time>2021-05-08T11:11:24Z</time>
      </trkpt>
      <trkpt lat="40.5413790" lon="-4.1036550">
        <ele>903.7</ele>
        <time>2021-05-08T11:11:26Z</time>
      </trkpt>
      <trkpt lat="40.5412840" lon="-4.1035550">
        <ele>903.7</ele>
        <time>2021-05-08T11:11:28Z</time>
      </trkpt>
      <trkpt lat="40.5412120" lon="-4.1034780">
        <ele>903.8</ele>
        <time>2021-05-08T11:11:30Z</time>
      </trkpt>
      <trkpt lat="40.5411450" lon="-4.1034170">
        <ele>903.8</ele>
        <time>2021-05-08T11:11:31Z</time>
      </trkpt>
      <trkpt lat="40.5410960" lon="-4.1033680">
        <ele>903.8</ele>
        <time>2021-05-08T11:11:32Z</time>
      </trkpt>
      <trkpt lat="40.5410480" lon="-4.1033220">
        <ele>903.9</ele>
        <time>2021-05-08T11:11:33Z</time>
      </trkpt>
      <trkpt lat="40.5409580" lon="-4.1032280">
        <ele>903.9</ele>
        <time>2021-05-08T11:11:35Z</time>
      </trkpt>
      <trkpt lat="40.5409120" lon="-4.1031820">
        <ele>903.9</ele>
        <time>2021-05-08T11:11:36Z</time>
      </trkpt>
      <trkpt lat="40.5408220" lon="-4.1030920">
        <ele>903.9</ele>
        <time>2021-05-08T11:11:38Z</time>
      </trkpt>
      <trkpt lat="40.5407310" lon="-4.1029970">
        <ele>903.9</ele>
        <time>2021-05-08T11:11:40Z</time>
      </trkpt>
      <trkpt lat="40.5406850" lon="-4.1029500">
        <ele>903.9</ele>
        <time>2021-05-08T11:11:41Z</time>
      </trkpt>
      <trkpt lat="40.5405930" lon="-4.1028570">
        <ele>903.9</ele>
        <time>2021-05-08T11:11:43Z</time>
      </trkpt>
      <trkpt lat="40.5405450" lon="-4.1028090">
        <ele>903.9</ele>
        <time>2021-05-08T11:11:44Z</time>
      </trkpt>
      <trkpt lat="40.5404950" lon="-4.1027620">
        <ele>903.8</ele>
        <time>2021-05-08T11:11:45Z</time>
      </trkpt>
      <trkpt lat="40.5404450" lon="-4.1027160">
        <ele>903.8</ele>
        <time>2021-05-08T11:11:46Z</time>
      </trkpt>
      <trkpt lat="40.5403410" lon="-4.1026190">
        <ele>903.8</ele>
        <time>2021-05-08T11:11:48Z</time>
      </trkpt>
      <trkpt lat="40.5402870" lon="-4.1025710">
        <ele>903.8</ele>
        <time>2021-05-08T11:11:49Z</time>
      </trkpt>
      <trkpt lat="40.5401840" lon="-4.1024830">
        <ele>903.8</ele>
        <time>2021-05-08T11:11:51Z</time>
      </trkpt>
      <trkpt lat="40.5400810" lon="-4.1023950">
        <ele>903.7</ele>
        <time>2021-05-08T11:11:53Z</time>
      </trkpt>
      <trkpt lat="40.5400280" lon="-4.1023510">
        <ele>903.7</ele>
        <time>2021-05-08T11:11:54Z</time>
      </trkpt>
      <trkpt lat="40.5399160" lon="-4.1022710">
        <ele>903.7</ele>
        <time>2021-05-08T11:11:56Z</time>
      </trkpt>
      <trkpt lat="40.5398030" lon="-4.1022070">
        <ele>903.6</ele>
        <time>2021-05-08T11:11:58Z</time>
      </trkpt>
      <trkpt lat="40.5396790" lon="-4.1021590">
        <ele>903.4</ele>
        <time>2021-05-08T11:12:00Z</time>
      </trkpt>
      <trkpt lat="40.5396130" lon="-4.1021380">
        <ele>903.3</ele>
        <time>2021-05-08T11:12:01Z</time>
      </trkpt>
      <trkpt lat="40.5394780" lon="-4.1020940">
        <ele>903.0</ele>
        <time>2021-05-08T11:12:03Z</time>
      </trkpt>
      <trkpt lat="40.5393430" lon="-4.1020530">
        <ele>902.8</ele>
        <time>2021-05-08T11:12:05Z</time>
      </trkpt>
      <trkpt lat="40.5392740" lon="-4.1020330">
        <ele>902.6</ele>
        <time>2021-05-08T11:12:06Z</time>
      </trkpt>
      <trkpt lat="40.5391350" lon="-4.1019950">
        <ele>902.3</ele>
        <time>2021-05-08T11:12:08Z</time>
      </trkpt>
      <trkpt lat="40.5389990" lon="-4.1019570">
        <ele>902.0</ele>
        <time>2021-05-08T11:12:10Z</time>
      </trkpt>
      <trkpt lat="40.5388570" lon="-4.1019220">
        <ele>901.7</ele>
        <time>2021-05-08T11:12:12Z</time>
      </trkpt>
      <trkpt lat="40.5388010" lon="-4.1019060">
        <ele>901.6</ele>
        <time>2021-05-08T11:12:13Z</time>
      </trkpt>
      <trkpt lat="40.5386640" lon="-4.1018640">
        <ele>901.2</ele>
        <time>2021-05-08T11:12:15Z</time>
      </trkpt>
      <trkpt lat="40.5385940" lon="-4.1018440">
        <ele>900.9</ele>
        <time>2021-05-08T11:12:16Z</time>
      </trkpt>
      <trkpt lat="40.5385220" lon="-4.1018240">
        <ele>900.6</ele>
        <time>2021-05-08T11:12:17Z</time>
      </trkpt>
      <trkpt lat="40.5383700" lon="-4.1017800">
        <ele>900.2</ele>
        <time>2021-05-08T11:12:19Z</time>
      </trkpt>
      <trkpt lat="40.5382950" lon="-4.1017520">
        <ele>900.0</ele>
        <time>2021-05-08T11:12:20Z</time>
      </trkpt>
      <trkpt lat="40.5381450" lon="-4.1016720">
        <ele>899.6</ele>
        <time>2021-05-08T11:12:22Z</time>
      </trkpt>
      <trkpt lat="40.5380710" lon="-4.1016230">
        <ele>899.5</ele>
        <time>2021-05-08T11:12:23Z</time>
      </trkpt>
      <trkpt lat="40.5380020" lon="-4.1015690">
        <ele>899.4</ele>
        <time>2021-05-08T11:12:24Z</time>
      </trkpt>
      <trkpt lat="40.5378830" lon="-4.1014490">
        <ele>899.3</ele>
        <time>2021-05-08T11:12:26Z</time>
      </trkpt>
      <trkpt lat="40.5378300" lon="-4.1013840">
        <ele>899.3</ele>
        <time>2021-05-08T11:12:27Z</time>
      </trkpt>
      <trkpt lat="40.5377270" lon="-4.1012550">
        <ele>899.2</ele>
        <time>2021-05-08T11:12:29Z</time>
      </trkpt>
      <trkpt lat="40.5376240" lon="-4.1011190">
        <ele>899.1</ele>
        <time>2021-05-08T11:12:31Z</time>
      </trkpt>
      <trkpt lat="40.5375790" lon="-4.1010530">
        <ele>899.1</ele>
        <time>2021-05-08T11:12:32Z</time>
      </trkpt>
      <trkpt lat="40.5374780" lon="-4.1009070">
        <ele>899.1</ele>
        <time>2021-05-08T11:12:34Z</time>
      </trkpt>
      <trkpt lat="40.5373770" lon="-4.1007800">
        <ele>899.3</ele>
        <time>2021-05-08T11:12:36Z</time>
      </trkpt>
      <trkpt lat="40.5372780" lon="-4.1006480">
        <ele>899.6</ele>
        <time>2021-05-08T11:12:38Z</time>
      </trkpt>
      <trkpt lat="40.5372270" lon="-4.1005750">
        <ele>899.8</ele>
        <time>2021-05-08T11:12:39Z</time>
      </trkpt>
      <trkpt lat="40.5371400" lon="-4.1004340">
        <ele>900.1</ele>
        <time>2021-05-08T11:12:41Z</time>
      </trkpt>
      <trkpt lat="40.5370510" lon="-4.1003060">
        <ele>900.5</ele>
        <time>2021-05-08T11:12:43Z</time>
      </trkpt>
      <trkpt lat="40.5369660" lon="-4.1001880">
        <ele>900.7</ele>
        <time>2021-05-08T11:12:45Z</time>
      </trkpt>
      <trkpt lat="40.5368860" lon="-4.1000680">
        <ele>900.9</ele>
        <time>2021-05-08T11:12:47Z</time>
      </trkpt>
      <trkpt lat="40.5368460" lon="-4.1000110">
        <ele>901.0</ele>
        <time>2021-05-08T11:12:48Z</time>
      </trkpt>
      <trkpt lat="40.5367630" lon="-4.0998990">
        <ele>901.2</ele>
        <time>2021-05-08T11:12:50Z</time>
      </trkpt>
      <trkpt lat="40.5366800" lon="-4.0997790">
        <ele>901.5</ele>
        <time>2021-05-08T11:12:52Z</time>
      </trkpt>
      <trkpt lat="40.5366080" lon="-4.0996800">
        <ele>901.7</ele>
        <time>2021-05-08T11:12:54Z</time>
      </trkpt>
      <trkpt lat="40.5365690" lon="-4.0996260">
        <ele>901.8</ele>
        <time>2021-05-08T11:12:55Z</time>
      </trkpt>
      <trkpt lat="40.5364930" lon="-4.0995190">
        <ele>902.1</ele>
        <time>2021-05-08T11:12:57Z</time>
      </trkpt>
      <trkpt lat="40.5364560" lon="-4.0994660">
        <ele>902.2</ele>
        <time>2021-05-08T11:12:58Z</time>
      </trkpt>
      <trkpt lat="40.5363800" lon="-4.0993590">
        <ele>902.3</ele>
        <time>2021-05-08T11:13:00Z</time>
      </trkpt>
      <trkpt lat="40.5363400" lon="-4.0993120">
        <ele>902.4</ele>
        <time>2021-05-08T11:13:01Z</time>
      </trkpt>
      <trkpt lat="40.5362650" lon="-4.0992070">
        <ele>902.6</ele>
        <time>2021-05-08T11:13:03Z</time>
      </trkpt>
      <trkpt lat="40.5361990" lon="-4.0990970">
        <ele>902.7</ele>
        <time>2021-05-08T11:13:05Z</time>
      </trkpt>
      <trkpt lat="40.5361310" lon="-4.0989880">
        <ele>902.9</ele>
        <time>2021-05-08T11:13:07Z</time>
      </trkpt>
      <trkpt lat="40.5360940" lon="-4.0989350">
        <ele>902.9</ele>
        <time>2021-05-08T11:13:08Z</time>
      </trkpt>
      <trkpt lat="40.5360600" lon="-4.0988830">
        <ele>903.0</ele>
        <time>2021-05-08T11:13:09Z</time>
      </trkpt>
      <trkpt lat="40.5359910" lon="-4.0987770">
        <ele>903.0</ele>
        <time>2021-05-08T11:13:11Z</time>
      </trkpt>
      <trkpt lat="40.5359170" lon="-4.0986720">
        <ele>903.1</ele>
        <time>2021-05-08T11:13:13Z</time>
      </trkpt>
      <trkpt lat="40.5358450" lon="-4.0985680">
        <ele>903.1</ele>
        <time>2021-05-08T11:13:15Z</time>
      </trkpt>
      <trkpt lat="40.5358100" lon="-4.0985110">
        <ele>903.1</ele>
        <time>2021-05-08T11:13:16Z</time>
      </trkpt>
      <trkpt lat="40.5357400" lon="-4.0983960">
        <ele>903.0</ele>
        <time>2021-05-08T11:13:18Z</time>
      </trkpt>
      <trkpt lat="40.5356590" lon="-4.0982920">
        <ele>903.0</ele>
        <time>2021-05-08T11:13:20Z</time>
      </trkpt>
      <trkpt lat="40.5355770" lon="-4.0981850">
        <ele>902.9</ele>
        <time>2021-05-08T11:13:22Z</time>
      </trkpt>
      <trkpt lat="40.5355350" lon="-4.0981250">
        <ele>902.8</ele>
        <time>2021-05-08T11:13:23Z</time>
      </trkpt>
      <trkpt lat="40.5354510" lon="-4.0980050">
        <ele>902.8</ele>
        <time>2021-05-08T11:13:25Z</time>
      </trkpt>
      <trkpt lat="40.5354120" lon="-4.0979460">
        <ele>902.8</ele>
        <time>2021-05-08T11:13:26Z</time>
      </trkpt>
      <trkpt lat="40.5353310" lon="-4.0978240">
        <ele>902.8</ele>
        <time>2021-05-08T11:13:28Z</time>
      </trkpt>
      <trkpt lat="40.5352880" lon="-4.0977650">
        <ele>902.9</ele>
        <time>2021-05-08T11:13:29Z</time>
      </trkpt>
      <trkpt lat="40.5352460" lon="-4.0977020">
        <ele>902.9</ele>
        <time>2021-05-08T11:13:30Z</time>
      </trkpt>
      <trkpt lat="40.5351650" lon="-4.0975800">
        <ele>903.0</ele>
        <time>2021-05-08T11:13:32Z</time>
      </trkpt>
      <trkpt lat="40.5351240" lon="-4.0975140">
        <ele>903.1</ele>
        <time>2021-05-08T11:13:33Z</time>
      </trkpt>
      <trkpt lat="40.5350480" lon="-4.0974070">
        <ele>903.4</ele>
        <time>2021-05-08T11:13:35Z</time>
      </trkpt>
      <trkpt lat="40.5350090" lon="-4.0973460">
        <ele>903.5</ele>
        <time>2021-05-08T11:13:36Z</time>
      </trkpt>
      <trkpt lat="40.5349360" lon="-4.0972350">
        <ele>903.8</ele>
        <time>2021-05-08T11:13:38Z</time>
      </trkpt>
      <trkpt lat="40.5348980" lon="-4.0971810">
        <ele>904.0</ele>
        <time>2021-05-08T11:13:39Z</time>
      </trkpt>
      <trkpt lat="40.5348570" lon="-4.0971280">
        <ele>904.2</ele>
        <time>2021-05-08T11:13:40Z</time>
      </trkpt>
      <trkpt lat="40.5347780" lon="-4.0970130">
        <ele>904.5</ele>
        <time>2021-05-08T11:13:42Z</time>
      </trkpt>
      <trkpt lat="40.5346970" lon="-4.0968950">
        <ele>904.9</ele>
        <time>2021-05-08T11:13:44Z</time>
      </trkpt>
      <trkpt lat="40.5346560" lon="-4.0968330">
        <ele>905.0</ele>
        <time>2021-05-08T11:13:45Z</time>
      </trkpt>
      <trkpt lat="40.5345720" lon="-4.0967060">
        <ele>905.4</ele>
        <time>2021-05-08T11:13:47Z</time>
      </trkpt>
      <trkpt lat="40.5345260" lon="-4.0966460">
        <ele>905.6</ele>
        <time>2021-05-08T11:13:48Z</time>
      </trkpt>
      <trkpt lat="40.5344370" lon="-4.0965210">
        <ele>905.9</ele>
        <time>2021-05-08T11:13:50Z</time>
      </trkpt>
      <trkpt lat="40.5343560" lon="-4.0963990">
        <ele>906.2</ele>
        <time>2021-05-08T11:13:52Z</time>
      </trkpt>
      <trkpt lat="40.5343140" lon="-4.0963370">
        <ele>906.4</ele>
        <time>2021-05-08T11:13:53Z</time>
      </trkpt>
      <trkpt lat="40.5342470" lon="-4.0962280">
        <ele>906.6</ele>
        <time>2021-05-08T11:13:55Z</time>
      </trkpt>
      <trkpt lat="40.5342110" lon="-4.0961740">
        <ele>906.7</ele>
        <time>2021-05-08T11:13:56Z</time>
      </trkpt>
      <trkpt lat="40.5341400" lon="-4.0960650">
        <ele>906.8</ele>
        <time>2021-05-08T11:13:58Z</time>
      </trkpt>
      <trkpt lat="40.5340640" lon="-4.0959620">
        <ele>906.9</ele>
        <time>2021-05-08T11:14:00Z</time>
      </trkpt>
      <trkpt lat="40.5339810" lon="-4.0958630">
        <ele>906.8</ele>
        <time>2021-05-08T11:14:02Z</time>
      </trkpt>
      <trkpt lat="40.5339020" lon="-4.0957640">
        <ele>906.7</ele>
        <time>2021-05-08T11:14:04Z</time>
      </trkpt>
      <trkpt lat="40.5338640" lon="-4.0957150">
        <ele>906.6</ele>
        <time>2021-05-08T11:14:05Z</time>
      </trkpt>
      <trkpt lat="40.5337830" lon="-4.0956250">
        <ele>906.3</ele>
        <time>2021-05-08T11:14:07Z</time>
      </trkpt>
      <trkpt lat="40.5336940" lon="-4.0955380">
        <ele>905.9</ele>
        <time>2021-05-08T11:14:09Z</time>
      </trkpt>
      <trkpt lat="40.5336480" lon="-4.0954950">
        <ele>905.6</ele>
        <time>2021-05-08T11:14:10Z</time>
      </trkpt>
      <trkpt lat="40.5336000" lon="-4.0954500">
        <ele>905.4</ele>
        <time>2021-05-08T11:14:11Z</time>
      </trkpt>
      <trkpt lat="40.5335350" lon="-4.0953840">
        <ele>905.0</ele>
        <time>2021-05-08T11:14:12Z</time>
      </trkpt>
      <trkpt lat="40.5334570" lon="-4.0953050">
        <ele>904.6</ele>
        <time>2021-05-08T11:14:14Z</time>
      </trkpt>
      <trkpt lat="40.5333510" lon="-4.0951880">
        <ele>904.0</ele>
        <time>2021-05-08T11:14:16Z</time>
      </trkpt>
      <trkpt lat="40.5332440" lon="-4.0950600">
        <ele>903.3</ele>
        <time>2021-05-08T11:14:18Z</time>
      </trkpt>
      <trkpt lat="40.5331890" lon="-4.0949980">
        <ele>903.0</ele>
        <time>2021-05-08T11:14:19Z</time>
      </trkpt>
      <trkpt lat="40.5330770" lon="-4.0948750">
        <ele>902.3</ele>
        <time>2021-05-08T11:14:21Z</time>
      </trkpt>
      <trkpt lat="40.5329630" lon="-4.0947590">
        <ele>901.8</ele>
        <time>2021-05-08T11:14:23Z</time>
      </trkpt>
      <trkpt lat="40.5328400" lon="-4.0946500">
        <ele>901.4</ele>
        <time>2021-05-08T11:14:25Z</time>
      </trkpt>
      <trkpt lat="40.5327840" lon="-4.0946000">
        <ele>901.2</ele>
        <time>2021-05-08T11:14:26Z</time>
      </trkpt>
      <trkpt lat="40.5327270" lon="-4.0945500">
        <ele>901.0</ele>
        <time>2021-05-08T11:14:27Z</time>
      </trkpt>
      <trkpt lat="40.5326130" lon="-4.0944460">
        <ele>900.7</ele>
        <time>2021-05-08T11:14:29Z</time>
      </trkpt>
      <trkpt lat="40.5325550" lon="-4.0943950">
        <ele>900.5</ele>
        <time>2021-05-08T11:14:30Z</time>
      </trkpt>
      <trkpt lat="40.5324440" lon="-4.0942910">
        <ele>900.3</ele>
        <time>2021-05-08T11:14:32Z</time>
      </trkpt>
      <trkpt lat="40.5323330" lon="-4.0941830">
        <ele>900.1</ele>
        <time>2021-05-08T11:14:34Z</time>
      </trkpt>
      <trkpt lat="40.5322160" lon="-4.0940750">
        <ele>899.9</ele>
        <time>2021-05-08T11:14:36Z</time>
      </trkpt>
      <trkpt lat="40.5320970" lon="-4.0939760">
        <ele>899.7</ele>
        <time>2021-05-08T11:14:38Z</time>
      </trkpt>
      <trkpt lat="40.5319800" lon="-4.0938690">
        <ele>899.5</ele>
        <time>2021-05-08T11:14:40Z</time>
      </trkpt>
      <trkpt lat="40.5318620" lon="-4.0937650">
        <ele>899.5</ele>
        <time>2021-05-08T11:14:42Z</time>
      </trkpt>
      <trkpt lat="40.5317410" lon="-4.0936650">
        <ele>899.3</ele>
        <time>2021-05-08T11:14:44Z</time>
      </trkpt>
      <trkpt lat="40.5316820" lon="-4.0936120">
        <ele>899.2</ele>
        <time>2021-05-08T11:14:45Z</time>
      </trkpt>
      <trkpt lat="40.5315730" lon="-4.0935010">
        <ele>899.1</ele>
        <time>2021-05-08T11:14:47Z</time>
      </trkpt>
      <trkpt lat="40.5314640" lon="-4.0933960">
        <ele>898.9</ele>
        <time>2021-05-08T11:14:49Z</time>
      </trkpt>
      <trkpt lat="40.5313530" lon="-4.0932940">
        <ele>898.8</ele>
        <time>2021-05-08T11:14:51Z</time>
      </trkpt>
      <trkpt lat="40.5312970" lon="-4.0932450">
        <ele>898.7</ele>
        <time>2021-05-08T11:14:52Z</time>
      </trkpt>
      <trkpt lat="40.5311830" lon="-4.0931400">
        <ele>898.6</ele>
        <time>2021-05-08T11:14:54Z</time>
      </trkpt>
      <trkpt lat="40.5311230" lon="-4.0930840">
        <ele>898.5</ele>
        <time>2021-05-08T11:14:55Z</time>
      </trkpt>
      <trkpt lat="40.5310620" lon="-4.0930270">
        <ele>898.4</ele>
        <time>2021-05-08T11:14:56Z</time>
      </trkpt>
      <trkpt lat="40.5309390" lon="-4.0929180">
        <ele>898.1</ele>
        <time>2021-05-08T11:14:58Z</time>
      </trkpt>
      <trkpt lat="40.5308160" lon="-4.0928100">
        <ele>897.8</ele>
        <time>2021-05-08T11:15:00Z</time>
      </trkpt>
      <trkpt lat="40.5306930" lon="-4.0926980">
        <ele>897.5</ele>
        <time>2021-05-08T11:15:02Z</time>
      </trkpt>
      <trkpt lat="40.5306300" lon="-4.0926430">
        <ele>897.3</ele>
        <time>2021-05-08T11:15:03Z</time>
      </trkpt>
      <trkpt lat="40.5305690" lon="-4.0925900">
        <ele>897.2</ele>
        <time>2021-05-08T11:15:04Z</time>
      </trkpt>
      <trkpt lat="40.5304410" lon="-4.0924870">
        <ele>896.9</ele>
        <time>2021-05-08T11:15:06Z</time>
      </trkpt>
      <trkpt lat="40.5303740" lon="-4.0924330">
        <ele>896.8</ele>
        <time>2021-05-08T11:15:07Z</time>
      </trkpt>
      <trkpt lat="40.5302470" lon="-4.0923240">
        <ele>896.6</ele>
        <time>2021-05-08T11:15:09Z</time>
      </trkpt>
      <trkpt lat="40.5301840" lon="-4.0922670">
        <ele>896.5</ele>
        <time>2021-05-08T11:15:10Z</time>
      </trkpt>
      <trkpt lat="40.5301220" lon="-4.0922100">
        <ele>896.4</ele>
        <time>2021-05-08T11:15:11Z</time>
      </trkpt>
      <trkpt lat="40.5299990" lon="-4.0920920">
        <ele>896.3</ele>
        <time>2021-05-08T11:15:13Z</time>
      </trkpt>
      <trkpt lat="40.5298830" lon="-4.0919960">
        <ele>896.2</ele>
        <time>2021-05-08T11:15:15Z</time>
      </trkpt>
      <trkpt lat="40.5298200" lon="-4.0919460">
        <ele>896.2</ele>
        <time>2021-05-08T11:15:16Z</time>
      </trkpt>
      <trkpt lat="40.5296930" lon="-4.0918480">
        <ele>896.1</ele>
        <time>2021-05-08T11:15:18Z</time>
      </trkpt>
      <trkpt lat="40.5295660" lon="-4.0917540">
        <ele>896.0</ele>
        <time>2021-05-08T11:15:20Z</time>
      </trkpt>
      <trkpt lat="40.5294420" lon="-4.0916690">
        <ele>895.9</ele>
        <time>2021-05-08T11:15:22Z</time>
      </trkpt>
      <trkpt lat="40.5293800" lon="-4.0916290">
        <ele>895.8</ele>
        <time>2021-05-08T11:15:23Z</time>
      </trkpt>
      <trkpt lat="40.5292480" lon="-4.0915510">
        <ele>895.6</ele>
        <time>2021-05-08T11:15:25Z</time>
      </trkpt>
      <trkpt lat="40.5291810" lon="-4.0915100">
        <ele>895.5</ele>
        <time>2021-05-08T11:15:26Z</time>
      </trkpt>
      <trkpt lat="40.5291160" lon="-4.0914680">
        <ele>895.3</ele>
        <time>2021-05-08T11:15:27Z</time>
      </trkpt>
      <trkpt lat="40.5289810" lon="-4.0913870">
        <ele>895.0</ele>
        <time>2021-05-08T11:15:29Z</time>
      </trkpt>
      <trkpt lat="40.5289100" lon="-4.0913410">
        <ele>894.8</ele>
        <time>2021-05-08T11:15:30Z</time>
      </trkpt>
      <trkpt lat="40.5288400" lon="-4.0912950">
        <ele>894.7</ele>
        <time>2021-05-08T11:15:31Z</time>
      </trkpt>
      <trkpt lat="40.5287710" lon="-4.0912520">
        <ele>894.5</ele>
        <time>2021-05-08T11:15:32Z</time>
      </trkpt>
      <trkpt lat="40.5286370" lon="-4.0911650">
        <ele>894.0</ele>
        <time>2021-05-08T11:15:34Z</time>
      </trkpt>
      <trkpt lat="40.5285720" lon="-4.0911160">
        <ele>893.7</ele>
        <time>2021-05-08T11:15:35Z</time>
      </trkpt>
      <trkpt lat="40.5284370" lon="-4.0910070">
        <ele>893.1</ele>
        <time>2021-05-08T11:15:37Z</time>
      </trkpt>
      <trkpt lat="40.5283040" lon="-4.0908860">
        <ele>892.4</ele>
        <time>2021-05-08T11:15:39Z</time>
      </trkpt>
      <trkpt lat="40.5281630" lon="-4.0907710">
        <ele>891.7</ele>
        <time>2021-05-08T11:15:41Z</time>
      </trkpt>
      <trkpt lat="40.5280250" lon="-4.0906520">
        <ele>891.0</ele>
        <time>2021-05-08T11:15:43Z</time>
      </trkpt>
      <trkpt lat="40.5279520" lon="-4.0905840">
        <ele>890.7</ele>
        <time>2021-05-08T11:15:44Z</time>
      </trkpt>
      <trkpt lat="40.5278040" lon="-4.0904550">
        <ele>889.9</ele>
        <time>2021-05-08T11:15:46Z</time>
      </trkpt>
      <trkpt lat="40.5277270" lon="-4.0903910">
        <ele>889.6</ele>
        <time>2021-05-08T11:15:47Z</time>
      </trkpt>
      <trkpt lat="40.5275760" lon="-4.0902580">
        <ele>888.8</ele>
        <time>2021-05-08T11:15:49Z</time>
      </trkpt>
      <trkpt lat="40.5274250" lon="-4.0901290">
        <ele>888.0</ele>
        <time>2021-05-08T11:15:51Z</time>
      </trkpt>
      <trkpt lat="40.5273500" lon="-4.0900660">
        <ele>887.7</ele>
        <time>2021-05-08T11:15:52Z</time>
      </trkpt>
      <trkpt lat="40.5272010" lon="-4.0899430">
        <ele>887.0</ele>
        <time>2021-05-08T11:15:54Z</time>
      </trkpt>
      <trkpt lat="40.5270510" lon="-4.0898130">
        <ele>886.4</ele>
        <time>2021-05-08T11:15:56Z</time>
      </trkpt>
      <trkpt lat="40.5269040" lon="-4.0896890">
        <ele>885.8</ele>
        <time>2021-05-08T11:15:58Z</time>
      </trkpt>
      <trkpt lat="40.5268290" lon="-4.0896270">
        <ele>885.5</ele>
        <time>2021-05-08T11:15:59Z</time>
      </trkpt>
      <trkpt lat="40.5266790" lon="-4.0895030">
        <ele>884.9</ele>
        <time>2021-05-08T11:16:01Z</time>
      </trkpt>
      <trkpt lat="40.5265330" lon="-4.0893760">
        <ele>884.3</ele>
        <time>2021-05-08T11:16:03Z</time>
      </trkpt>
      <trkpt lat="40.5264570" lon="-4.0893100">
        <ele>884.0</ele>
        <time>2021-05-08T11:16:04Z</time>
      </trkpt>
      <trkpt lat="40.5262950" lon="-4.0891750">
        <ele>883.4</ele>
        <time>2021-05-08T11:16:06Z</time>
      </trkpt>
      <trkpt lat="40.5262110" lon="-4.0891010">
        <ele>883.2</ele>
        <time>2021-05-08T11:16:07Z</time>
      </trkpt>
      <trkpt lat="40.5261240" lon="-4.0890270">
        <ele>882.9</ele>
        <time>2021-05-08T11:16:08Z</time>
      </trkpt>
      <trkpt lat="40.5259450" lon="-4.0888740">
        <ele>882.2</ele>
        <time>2021-05-08T11:16:10Z</time>
      </trkpt>
      <trkpt lat="40.5258550" lon="-4.0887970">
        <ele>881.9</ele>
        <time>2021-05-08T11:16:11Z</time>
      </trkpt>
      <trkpt lat="40.5256780" lon="-4.0886470">
        <ele>881.2</ele>
        <time>2021-05-08T11:16:13Z</time>
      </trkpt>
      <trkpt lat="40.5255960" lon="-4.0885760">
        <ele>880.9</ele>
        <time>2021-05-08T11:16:14Z</time>
      </trkpt>
      <trkpt lat="40.5254310" lon="-4.0884340">
        <ele>880.4</ele>
        <time>2021-05-08T11:16:16Z</time>
      </trkpt>
      <trkpt lat="40.5252660" lon="-4.0882970">
        <ele>880.0</ele>
        <time>2021-05-08T11:16:18Z</time>
      </trkpt>
      <trkpt lat="40.5251090" lon="-4.0881700">
        <ele>879.7</ele>
        <time>2021-05-08T11:16:20Z</time>
      </trkpt>
      <trkpt lat="40.5250330" lon="-4.0881080">
        <ele>879.6</ele>
        <time>2021-05-08T11:16:21Z</time>
      </trkpt>
      <trkpt lat="40.5248870" lon="-4.0879890">
        <ele>879.4</ele>
        <time>2021-05-08T11:16:23Z</time>
      </trkpt>
      <trkpt lat="40.5248160" lon="-4.0879290">
        <ele>879.4</ele>
        <time>2021-05-08T11:16:24Z</time>
      </trkpt>
      <trkpt lat="40.5247470" lon="-4.0878710">
        <ele>879.3</ele>
        <time>2021-05-08T11:16:25Z</time>
      </trkpt>
      <trkpt lat="40.5246780" lon="-4.0878160">
        <ele>879.2</ele>
        <time>2021-05-08T11:16:26Z</time>
      </trkpt>
      <trkpt lat="40.5245380" lon="-4.0877090">
        <ele>879.0</ele>
        <time>2021-05-08T11:16:28Z</time>
      </trkpt>
      <trkpt lat="40.5244660" lon="-4.0876540">
        <ele>878.9</ele>
        <time>2021-05-08T11:16:29Z</time>
      </trkpt>
      <trkpt lat="40.5243280" lon="-4.0875370">
        <ele>878.8</ele>
        <time>2021-05-08T11:16:31Z</time>
      </trkpt>
      <trkpt lat="40.5241910" lon="-4.0874280">
        <ele>878.8</ele>
        <time>2021-05-08T11:16:33Z</time>
      </trkpt>
      <trkpt lat="40.5241270" lon="-4.0873770">
        <ele>878.8</ele>
        <time>2021-05-08T11:16:34Z</time>
      </trkpt>
      <trkpt lat="40.5239970" lon="-4.0872720">
        <ele>878.6</ele>
        <time>2021-05-08T11:16:36Z</time>
      </trkpt>
      <trkpt lat="40.5238690" lon="-4.0871610">
        <ele>878.5</ele>
        <time>2021-05-08T11:16:38Z</time>
      </trkpt>
      <trkpt lat="40.5238050" lon="-4.0871050">
        <ele>878.3</ele>
        <time>2021-05-08T11:16:39Z</time>
      </trkpt>
      <trkpt lat="40.5236740" lon="-4.0869960">
        <ele>878.1</ele>
        <time>2021-05-08T11:16:41Z</time>
      </trkpt>
      <trkpt lat="40.5235390" lon="-4.0868880">
        <ele>877.9</ele>
        <time>2021-05-08T11:16:43Z</time>
      </trkpt>
      <trkpt lat="40.5234080" lon="-4.0867770">
        <ele>877.6</ele>
        <time>2021-05-08T11:16:45Z</time>
      </trkpt>
      <trkpt lat="40.5232720" lon="-4.0866640">
        <ele>877.2</ele>
        <time>2021-05-08T11:16:47Z</time>
      </trkpt>
      <trkpt lat="40.5232030" lon="-4.0866070">
        <ele>877.0</ele>
        <time>2021-05-08T11:16:48Z</time>
      </trkpt>
      <trkpt lat="40.5231370" lon="-4.0865530">
        <ele>876.8</ele>
        <time>2021-05-08T11:16:49Z</time>
      </trkpt>
      <trkpt lat="40.5230020" lon="-4.0864470">
        <ele>876.4</ele>
        <time>2021-05-08T11:16:51Z</time>
      </trkpt>
      <trkpt lat="40.5229300" lon="-4.0863880">
        <ele>876.1</ele>
        <time>2021-05-08T11:16:52Z</time>
      </trkpt>
      <trkpt lat="40.5227950" lon="-4.0862700">
        <ele>875.7</ele>
        <time>2021-05-08T11:16:54Z</time>
      </trkpt>
      <trkpt lat="40.5227280" lon="-4.0862110">
        <ele>875.4</ele>
        <time>2021-05-08T11:16:55Z</time>
      </trkpt>
      <trkpt lat="40.5226570" lon="-4.0861510">
        <ele>875.1</ele>
        <time>2021-05-08T11:16:56Z</time>
      </trkpt>
      <trkpt lat="40.5225090" lon="-4.0860360">
        <ele>874.6</ele>
        <time>2021-05-08T11:16:58Z</time>
      </trkpt>
      <trkpt lat="40.5224390" lon="-4.0859770">
        <ele>874.3</ele>
        <time>2021-05-08T11:16:59Z</time>
      </trkpt>
      <trkpt lat="40.5223690" lon="-4.0859160">
        <ele>874.1</ele>
        <time>2021-05-08T11:17:00Z</time>
      </trkpt>
      <trkpt lat="40.5222250" lon="-4.0857990">
        <ele>873.7</ele>
        <time>2021-05-08T11:17:02Z</time>
      </trkpt>
      <trkpt lat="40.5220840" lon="-4.0856860">
        <ele>873.4</ele>
        <time>2021-05-08T11:17:04Z</time>
      </trkpt>
      <trkpt lat="40.5220150" lon="-4.0856310">
        <ele>873.3</ele>
        <time>2021-05-08T11:17:05Z</time>
      </trkpt>
      <trkpt lat="40.5218780" lon="-4.0855210">
        <ele>873.0</ele>
        <time>2021-05-08T11:17:07Z</time>
      </trkpt>
      <trkpt lat="40.5217380" lon="-4.0854010">
        <ele>872.7</ele>
        <time>2021-05-08T11:17:09Z</time>
      </trkpt>
      <trkpt lat="40.5215940" lon="-4.0852840">
        <ele>872.3</ele>
        <time>2021-05-08T11:17:11Z</time>
      </trkpt>
      <trkpt lat="40.5214460" lon="-4.0851600">
        <ele>872.0</ele>
        <time>2021-05-08T11:17:13Z</time>
      </trkpt>
      <trkpt lat="40.5213030" lon="-4.0850390">
        <ele>871.6</ele>
        <time>2021-05-08T11:17:15Z</time>
      </trkpt>
      <trkpt lat="40.5211570" lon="-4.0849170">
        <ele>871.3</ele>
        <time>2021-05-08T11:17:17Z</time>
      </trkpt>
      <trkpt lat="40.5210860" lon="-4.0848570">
        <ele>871.1</ele>
        <time>2021-05-08T11:17:18Z</time>
      </trkpt>
      <trkpt lat="40.5209460" lon="-4.0847370">
        <ele>870.8</ele>
        <time>2021-05-08T11:17:20Z</time>
      </trkpt>
      <trkpt lat="40.5208740" lon="-4.0846770">
        <ele>870.7</ele>
        <time>2021-05-08T11:17:21Z</time>
      </trkpt>
      <trkpt lat="40.5207290" lon="-4.0845550">
        <ele>870.5</ele>
        <time>2021-05-08T11:17:23Z</time>
      </trkpt>
      <trkpt lat="40.5206530" lon="-4.0844920">
        <ele>870.4</ele>
        <time>2021-05-08T11:17:24Z</time>
      </trkpt>
      <trkpt lat="40.5204960" lon="-4.0843690">
        <ele>870.2</ele>
        <time>2021-05-08T11:17:26Z</time>
      </trkpt>
      <trkpt lat="40.5203420" lon="-4.0842430">
        <ele>870.0</ele>
        <time>2021-05-08T11:17:28Z</time>
      </trkpt>
      <trkpt lat="40.5201920" lon="-4.0841170">
        <ele>869.9</ele>
        <time>2021-05-08T11:17:30Z</time>
      </trkpt>
      <trkpt lat="40.5201200" lon="-4.0840510">
        <ele>869.9</ele>
        <time>2021-05-08T11:17:31Z</time>
      </trkpt>
      <trkpt lat="40.5199800" lon="-4.0839340">
        <ele>869.7</ele>
        <time>2021-05-08T11:17:33Z</time>
      </trkpt>
      <trkpt lat="40.5198520" lon="-4.0838290">
        <ele>869.6</ele>
        <time>2021-05-08T11:17:35Z</time>
      </trkpt>
      <trkpt lat="40.5197870" lon="-4.0837830">
        <ele>869.5</ele>
        <time>2021-05-08T11:17:36Z</time>
      </trkpt>
      <trkpt lat="40.5196650" lon="-4.0836830">
        <ele>869.3</ele>
        <time>2021-05-08T11:17:38Z</time>
      </trkpt>
      <trkpt lat="40.5195510" lon="-4.0835750">
        <ele>869.0</ele>
        <time>2021-05-08T11:17:40Z</time>
      </trkpt>
      <trkpt lat="40.5194340" lon="-4.0834720">
        <ele>868.6</ele>
        <time>2021-05-08T11:17:42Z</time>
      </trkpt>
      <trkpt lat="40.5193750" lon="-4.0834200">
        <ele>868.4</ele>
        <time>2021-05-08T11:17:43Z</time>
      </trkpt>
      <trkpt lat="40.5193180" lon="-4.0833670">
        <ele>868.2</ele>
        <time>2021-05-08T11:17:44Z</time>
      </trkpt>
      <trkpt lat="40.5191950" lon="-4.0832620">
        <ele>867.6</ele>
        <time>2021-05-08T11:17:46Z</time>
      </trkpt>
      <trkpt lat="40.5190680" lon="-4.0831580">
        <ele>867.1</ele>
        <time>2021-05-08T11:17:48Z</time>
      </trkpt>
      <trkpt lat="40.5190040" lon="-4.0831050">
        <ele>866.9</ele>
        <time>2021-05-08T11:17:49Z</time>
      </trkpt>
      <trkpt lat="40.5188730" lon="-4.0830000">
        <ele>866.4</ele>
        <time>2021-05-08T11:17:51Z</time>
      </trkpt>
      <trkpt lat="40.5188050" lon="-4.0829460">
        <ele>866.2</ele>
        <time>2021-05-08T11:17:52Z</time>
      </trkpt>
      <trkpt lat="40.5186730" lon="-4.0828310">
        <ele>865.7</ele>
        <time>2021-05-08T11:17:54Z</time>
      </trkpt>
      <trkpt lat="40.5185370" lon="-4.0827150">
        <ele>865.2</ele>
        <time>2021-05-08T11:17:56Z</time>
      </trkpt>
      <trkpt lat="40.5183910" lon="-4.0825900">
        <ele>864.7</ele>
        <time>2021-05-08T11:17:58Z</time>
      </trkpt>
      <trkpt lat="40.5183180" lon="-4.0825270">
        <ele>864.4</ele>
        <time>2021-05-08T11:17:59Z</time>
      </trkpt>
      <trkpt lat="40.5181690" lon="-4.0823990">
        <ele>864.1</ele>
        <time>2021-05-08T11:18:01Z</time>
      </trkpt>
      <trkpt lat="40.5180940" lon="-4.0823360">
        <ele>864.1</ele>
        <time>2021-05-08T11:18:02Z</time>
      </trkpt>
      <trkpt lat="40.5179530" lon="-4.0822090">
        <ele>863.7</ele>
        <time>2021-05-08T11:18:04Z</time>
      </trkpt>
      <trkpt lat="40.5178000" lon="-4.0820740">
        <ele>863.0</ele>
        <time>2021-05-08T11:18:06Z</time>
      </trkpt>
      <trkpt lat="40.5176340" lon="-4.0819360">
        <ele>862.7</ele>
        <time>2021-05-08T11:18:08Z</time>
      </trkpt>
      <trkpt lat="40.5174570" lon="-4.0818020">
        <ele>862.3</ele>
        <time>2021-05-08T11:18:10Z</time>
      </trkpt>
      <trkpt lat="40.5172870" lon="-4.0816680">
        <ele>862.1</ele>
        <time>2021-05-08T11:18:12Z</time>
      </trkpt>
      <trkpt lat="40.5172040" lon="-4.0816000">
        <ele>862.0</ele>
        <time>2021-05-08T11:18:13Z</time>
      </trkpt>
      <trkpt lat="40.5171300" lon="-4.0815330">
        <ele>861.9</ele>
        <time>2021-05-08T11:18:14Z</time>
      </trkpt>
      <trkpt lat="40.5169930" lon="-4.0813840">
        <ele>861.6</ele>
        <time>2021-05-08T11:18:16Z</time>
      </trkpt>
      <trkpt lat="40.5168700" lon="-4.0812230">
        <ele>861.2</ele>
        <time>2021-05-08T11:18:18Z</time>
      </trkpt>
      <trkpt lat="40.5168100" lon="-4.0811430">
        <ele>861.1</ele>
        <time>2021-05-08T11:18:19Z</time>
      </trkpt>
      <trkpt lat="40.5166960" lon="-4.0809850">
        <ele>860.9</ele>
        <time>2021-05-08T11:18:21Z</time>
      </trkpt>
      <trkpt lat="40.5166410" lon="-4.0809070">
        <ele>860.8</ele>
        <time>2021-05-08T11:18:22Z</time>
      </trkpt>
      <trkpt lat="40.5165450" lon="-4.0807450">
        <ele>860.7</ele>
        <time>2021-05-08T11:18:24Z</time>
      </trkpt>
      <trkpt lat="40.5165020" lon="-4.0806630">
        <ele>860.6</ele>
        <time>2021-05-08T11:18:25Z</time>
      </trkpt>
      <trkpt lat="40.5164180" lon="-4.0804980">
        <ele>860.5</ele>
        <time>2021-05-08T11:18:27Z</time>
      </trkpt>
      <trkpt lat="40.5163350" lon="-4.0803340">
        <ele>860.5</ele>
        <time>2021-05-08T11:18:29Z</time>
      </trkpt>
      <trkpt lat="40.5162950" lon="-4.0802500">
        <ele>860.5</ele>
        <time>2021-05-08T11:18:30Z</time>
      </trkpt>
      <trkpt lat="40.5162570" lon="-4.0801680">
        <ele>860.5</ele>
        <time>2021-05-08T11:18:31Z</time>
      </trkpt>
      <trkpt lat="40.5161770" lon="-4.0800060">
        <ele>860.6</ele>
        <time>2021-05-08T11:18:33Z</time>
      </trkpt>
      <trkpt lat="40.5161380" lon="-4.0799240">
        <ele>860.6</ele>
        <time>2021-05-08T11:18:34Z</time>
      </trkpt>
      <trkpt lat="40.5160600" lon="-4.0797650">
        <ele>860.7</ele>
        <time>2021-05-08T11:18:36Z</time>
      </trkpt>
      <trkpt lat="40.5159860" lon="-4.0796070">
        <ele>860.8</ele>
        <time>2021-05-08T11:18:38Z</time>
      </trkpt>
      <trkpt lat="40.5159130" lon="-4.0794520">
        <ele>860.9</ele>
        <time>2021-05-08T11:18:40Z</time>
      </trkpt>
      <trkpt lat="40.5158380" lon="-4.0793020">
        <ele>860.9</ele>
        <time>2021-05-08T11:18:42Z</time>
      </trkpt>
      <trkpt lat="40.5157650" lon="-4.0791480">
        <ele>861.0</ele>
        <time>2021-05-08T11:18:44Z</time>
      </trkpt>
      <trkpt lat="40.5157270" lon="-4.0790720">
        <ele>861.1</ele>
        <time>2021-05-08T11:18:45Z</time>
      </trkpt>
      <trkpt lat="40.5156540" lon="-4.0789300">
        <ele>861.1</ele>
        <time>2021-05-08T11:18:47Z</time>
      </trkpt>
      <trkpt lat="40.5156170" lon="-4.0788580">
        <ele>861.1</ele>
        <time>2021-05-08T11:18:48Z</time>
      </trkpt>
      <trkpt lat="40.5155420" lon="-4.0787200">
        <ele>861.1</ele>
        <time>2021-05-08T11:18:50Z</time>
      </trkpt>
      <trkpt lat="40.5154660" lon="-4.0785810">
        <ele>861.1</ele>
        <time>2021-05-08T11:18:52Z</time>
      </trkpt>
      <trkpt lat="40.5154270" lon="-4.0785130">
        <ele>861.0</ele>
        <time>2021-05-08T11:18:53Z</time>
      </trkpt>
      <trkpt lat="40.5153480" lon="-4.0783790">
        <ele>860.8</ele>
        <time>2021-05-08T11:18:55Z</time>
      </trkpt>
      <trkpt lat="40.5152620" lon="-4.0782440">
        <ele>860.6</ele>
        <time>2021-05-08T11:18:57Z</time>
      </trkpt>
      <trkpt lat="40.5151730" lon="-4.0781170">
        <ele>860.2</ele>
        <time>2021-05-08T11:18:59Z</time>
      </trkpt>
      <trkpt lat="40.5150830" lon="-4.0779920">
        <ele>859.8</ele>
        <time>2021-05-08T11:19:01Z</time>
      </trkpt>
      <trkpt lat="40.5150360" lon="-4.0779250">
        <ele>859.5</ele>
        <time>2021-05-08T11:19:02Z</time>
      </trkpt>
      <trkpt lat="40.5149880" lon="-4.0778600">
        <ele>859.3</ele>
        <time>2021-05-08T11:19:03Z</time>
      </trkpt>
      <trkpt lat="40.5149370" lon="-4.0777910">
        <ele>859.0</ele>
        <time>2021-05-08T11:19:04Z</time>
      </trkpt>
      <trkpt lat="40.5148350" lon="-4.0776550">
        <ele>858.4</ele>
        <time>2021-05-08T11:19:06Z</time>
      </trkpt>
      <trkpt lat="40.5147250" lon="-4.0775260">
        <ele>857.9</ele>
        <time>2021-05-08T11:19:08Z</time>
      </trkpt>
      <trkpt lat="40.5146690" lon="-4.0774620">
        <ele>857.6</ele>
        <time>2021-05-08T11:19:09Z</time>
      </trkpt>
      <trkpt lat="40.5145590" lon="-4.0773320">
        <ele>857.1</ele>
        <time>2021-05-08T11:19:11Z</time>
      </trkpt>
      <trkpt lat="40.5144450" lon="-4.0772080">
        <ele>856.5</ele>
        <time>2021-05-08T11:19:13Z</time>
      </trkpt>
      <trkpt lat="40.5143230" lon="-4.0770840">
        <ele>855.9</ele>
        <time>2021-05-08T11:19:15Z</time>
      </trkpt>
      <trkpt lat="40.5142010" lon="-4.0769630">
        <ele>855.2</ele>
        <time>2021-05-08T11:19:17Z</time>
      </trkpt>
      <trkpt lat="40.5141390" lon="-4.0769030">
        <ele>854.9</ele>
        <time>2021-05-08T11:19:18Z</time>
      </trkpt>
      <trkpt lat="40.5140070" lon="-4.0767920">
        <ele>854.1</ele>
        <time>2021-05-08T11:19:20Z</time>
      </trkpt>
      <trkpt lat="40.5138790" lon="-4.0766710">
        <ele>853.3</ele>
        <time>2021-05-08T11:19:22Z</time>
      </trkpt>
      <trkpt lat="40.5137440" lon="-4.0765590">
        <ele>852.4</ele>
        <time>2021-05-08T11:19:24Z</time>
      </trkpt>
      <trkpt lat="40.5136710" lon="-4.0765030">
        <ele>852.0</ele>
        <time>2021-05-08T11:19:25Z</time>
      </trkpt>
      <trkpt lat="40.5135190" lon="-4.0763800">
        <ele>851.0</ele>
        <time>2021-05-08T11:19:27Z</time>
      </trkpt>
      <trkpt lat="40.5134400" lon="-4.0763170">
        <ele>850.5</ele>
        <time>2021-05-08T11:19:28Z</time>
      </trkpt>
      <trkpt lat="40.5132810" lon="-4.0761960">
        <ele>849.6</ele>
        <time>2021-05-08T11:19:30Z</time>
      </trkpt>
      <trkpt lat="40.5132010" lon="-4.0761360">
        <ele>849.1</ele>
        <time>2021-05-08T11:19:31Z</time>
      </trkpt>
      <trkpt lat="40.5130390" lon="-4.0760140">
        <ele>848.2</ele>
        <time>2021-05-08T11:19:33Z</time>
      </trkpt>
      <trkpt lat="40.5129600" lon="-4.0759530">
        <ele>847.8</ele>
        <time>2021-05-08T11:19:34Z</time>
      </trkpt>
      <trkpt lat="40.5128790" lon="-4.0758930">
        <ele>847.4</ele>
        <time>2021-05-08T11:19:35Z</time>
      </trkpt>
      <trkpt lat="40.5127970" lon="-4.0758300">
        <ele>847.1</ele>
        <time>2021-05-08T11:19:36Z</time>
      </trkpt>
      <trkpt lat="40.5127150" lon="-4.0757650">
        <ele>846.8</ele>
        <time>2021-05-08T11:19:37Z</time>
      </trkpt>
      <trkpt lat="40.5125510" lon="-4.0756410">
        <ele>846.3</ele>
        <time>2021-05-08T11:19:39Z</time>
      </trkpt>
      <trkpt lat="40.5123860" lon="-4.0755190">
        <ele>845.9</ele>
        <time>2021-05-08T11:19:41Z</time>
      </trkpt>
      <trkpt lat="40.5123040" lon="-4.0754580">
        <ele>845.8</ele>
        <time>2021-05-08T11:19:42Z</time>
      </trkpt>
      <trkpt lat="40.5121430" lon="-4.0753420">
        <ele>845.5</ele>
        <time>2021-05-08T11:19:44Z</time>
      </trkpt>
      <trkpt lat="40.5120640" lon="-4.0752860">
        <ele>845.5</ele>
        <time>2021-05-08T11:19:45Z</time>
      </trkpt>
      <trkpt lat="40.5119860" lon="-4.0752340">
        <ele>845.4</ele>
        <time>2021-05-08T11:19:46Z</time>
      </trkpt>
      <trkpt lat="40.5118350" lon="-4.0751250">
        <ele>845.2</ele>
        <time>2021-05-08T11:19:48Z</time>
      </trkpt>
      <trkpt lat="40.5116910" lon="-4.0750210">
        <ele>845.0</ele>
        <time>2021-05-08T11:19:50Z</time>
      </trkpt>
      <trkpt lat="40.5115520" lon="-4.0749160">
        <ele>844.8</ele>
        <time>2021-05-08T11:19:52Z</time>
      </trkpt>
      <trkpt lat="40.5114190" lon="-4.0748200">
        <ele>844.6</ele>
        <time>2021-05-08T11:19:54Z</time>
      </trkpt>
      <trkpt lat="40.5112910" lon="-4.0747220">
        <ele>844.3</ele>
        <time>2021-05-08T11:19:56Z</time>
      </trkpt>
      <trkpt lat="40.5111630" lon="-4.0746220">
        <ele>843.9</ele>
        <time>2021-05-08T11:19:58Z</time>
      </trkpt>
      <trkpt lat="40.5110990" lon="-4.0745730">
        <ele>843.8</ele>
        <time>2021-05-08T11:19:59Z</time>
      </trkpt>
      <trkpt lat="40.5109690" lon="-4.0744720">
        <ele>843.4</ele>
        <time>2021-05-08T11:20:01Z</time>
      </trkpt>
      <trkpt lat="40.5108390" lon="-4.0743720">
        <ele>843.0</ele>
        <time>2021-05-08T11:20:03Z</time>
      </trkpt>
      <trkpt lat="40.5107040" lon="-4.0742740">
        <ele>842.6</ele>
        <time>2021-05-08T11:20:05Z</time>
      </trkpt>
      <trkpt lat="40.5105620" lon="-4.0741740">
        <ele>842.1</ele>
        <time>2021-05-08T11:20:07Z</time>
      </trkpt>
      <trkpt lat="40.5104880" lon="-4.0741230">
        <ele>841.8</ele>
        <time>2021-05-08T11:20:08Z</time>
      </trkpt>
      <trkpt lat="40.5103400" lon="-4.0740260">
        <ele>841.2</ele>
        <time>2021-05-08T11:20:10Z</time>
      </trkpt>
      <trkpt lat="40.5102680" lon="-4.0739780">
        <ele>841.0</ele>
        <time>2021-05-08T11:20:11Z</time>
      </trkpt>
      <trkpt lat="40.5101230" lon="-4.0738740">
        <ele>840.5</ele>
        <time>2021-05-08T11:20:13Z</time>
      </trkpt>
      <trkpt lat="40.5099770" lon="-4.0737630">
        <ele>840.0</ele>
        <time>2021-05-08T11:20:15Z</time>
      </trkpt>
      <trkpt lat="40.5098960" lon="-4.0736940">
        <ele>839.7</ele>
        <time>2021-05-08T11:20:16Z</time>
      </trkpt>
      <trkpt lat="40.5098330" lon="-4.0736470">
        <ele>839.6</ele>
        <time>2021-05-08T11:20:17Z</time>
      </trkpt>
      <trkpt lat="40.5097620" lon="-4.0735900">
        <ele>839.4</ele>
        <time>2021-05-08T11:20:18Z</time>
      </trkpt>
      <trkpt lat="40.5096240" lon="-4.0734590">
        <ele>839.1</ele>
        <time>2021-05-08T11:20:20Z</time>
      </trkpt>
      <trkpt lat="40.5095590" lon="-4.0733930">
        <ele>838.9</ele>
        <time>2021-05-08T11:20:21Z</time>
      </trkpt>
      <trkpt lat="40.5094940" lon="-4.0733220">
        <ele>838.8</ele>
        <time>2021-05-08T11:20:22Z</time>
      </trkpt>
      <trkpt lat="40.5094300" lon="-4.0732490">
        <ele>838.7</ele>
        <time>2021-05-08T11:20:23Z</time>
      </trkpt>
      <trkpt lat="40.5093090" lon="-4.0731180">
        <ele>838.6</ele>
        <time>2021-05-08T11:20:25Z</time>
      </trkpt>
      <trkpt lat="40.5092510" lon="-4.0730500">
        <ele>838.6</ele>
        <time>2021-05-08T11:20:26Z</time>
      </trkpt>
      <trkpt lat="40.5091960" lon="-4.0729840">
        <ele>838.5</ele>
        <time>2021-05-08T11:20:27Z</time>
      </trkpt>
      <trkpt lat="40.5091400" lon="-4.0729160">
        <ele>838.5</ele>
        <time>2021-05-08T11:20:28Z</time>
      </trkpt>
      <trkpt lat="40.5090370" lon="-4.0727660">
        <ele>838.4</ele>
        <time>2021-05-08T11:20:30Z</time>
      </trkpt>
      <trkpt lat="40.5089840" lon="-4.0726880">
        <ele>838.4</ele>
        <time>2021-05-08T11:20:31Z</time>
      </trkpt>
      <trkpt lat="40.5088890" lon="-4.0725270">
        <ele>838.3</ele>
        <time>2021-05-08T11:20:33Z</time>
      </trkpt>
      <trkpt lat="40.5088010" lon="-4.0723640">
        <ele>838.4</ele>
        <time>2021-05-08T11:20:35Z</time>
      </trkpt>
      <trkpt lat="40.5087530" lon="-4.0722710">
        <ele>838.4</ele>
        <time>2021-05-08T11:20:36Z</time>
      </trkpt>
      <trkpt lat="40.5087200" lon="-4.0722010">
        <ele>838.5</ele>
        <time>2021-05-08T11:20:37Z</time>
      </trkpt>
      <trkpt lat="40.5086480" lon="-4.0720320">
        <ele>838.6</ele>
        <time>2021-05-08T11:20:39Z</time>
      </trkpt>
      <trkpt lat="40.5086120" lon="-4.0719440">
        <ele>838.7</ele>
        <time>2021-05-08T11:20:40Z</time>
      </trkpt>
      <trkpt lat="40.5085780" lon="-4.0718540">
        <ele>838.8</ele>
        <time>2021-05-08T11:20:41Z</time>
      </trkpt>
      <trkpt lat="40.5085150" lon="-4.0716820">
        <ele>839.0</ele>
        <time>2021-05-08T11:20:43Z</time>
      </trkpt>
      <trkpt lat="40.5084650" lon="-4.0715090">
        <ele>839.2</ele>
        <time>2021-05-08T11:20:45Z</time>
      </trkpt>
      <trkpt lat="40.5084410" lon="-4.0714130">
        <ele>839.3</ele>
        <time>2021-05-08T11:20:46Z</time>
      </trkpt>
      <trkpt lat="40.5084190" lon="-4.0713210">
        <ele>839.3</ele>
        <time>2021-05-08T11:20:47Z</time>
      </trkpt>
      <trkpt lat="40.5083810" lon="-4.0711410">
        <ele>839.5</ele>
        <time>2021-05-08T11:20:49Z</time>
      </trkpt>
      <trkpt lat="40.5083520" lon="-4.0709600">
        <ele>839.8</ele>
        <time>2021-05-08T11:20:51Z</time>
      </trkpt>
      <trkpt lat="40.5083400" lon="-4.0708710">
        <ele>839.9</ele>
        <time>2021-05-08T11:20:52Z</time>
      </trkpt>
      <trkpt lat="40.5083170" lon="-4.0706910">
        <ele>840.1</ele>
        <time>2021-05-08T11:20:54Z</time>
      </trkpt>
      <trkpt lat="40.5083160" lon="-4.0705830">
        <ele>840.3</ele>
        <time>2021-05-08T11:20:55Z</time>
      </trkpt>
      <trkpt lat="40.5083130" lon="-4.0704070">
        <ele>840.5</ele>
        <time>2021-05-08T11:20:57Z</time>
      </trkpt>
      <trkpt lat="40.5083130" lon="-4.0703140">
        <ele>840.6</ele>
        <time>2021-05-08T11:20:58Z</time>
      </trkpt>
      <trkpt lat="40.5083180" lon="-4.0701360">
        <ele>840.8</ele>
        <time>2021-05-08T11:21:00Z</time>
      </trkpt>
      <trkpt lat="40.5083230" lon="-4.0700450">
        <ele>840.9</ele>
        <time>2021-05-08T11:21:01Z</time>
      </trkpt>
      <trkpt lat="40.5083350" lon="-4.0698710">
        <ele>841.1</ele>
        <time>2021-05-08T11:21:03Z</time>
      </trkpt>
      <trkpt lat="40.5083540" lon="-4.0696900">
        <ele>841.3</ele>
        <time>2021-05-08T11:21:05Z</time>
      </trkpt>
      <trkpt lat="40.5083780" lon="-4.0695130">
        <ele>841.5</ele>
        <time>2021-05-08T11:21:07Z</time>
      </trkpt>
      <trkpt lat="40.5083900" lon="-4.0694280">
        <ele>841.5</ele>
        <time>2021-05-08T11:21:08Z</time>
      </trkpt>
      <trkpt lat="40.5084000" lon="-4.0693420">
        <ele>841.6</ele>
        <time>2021-05-08T11:21:09Z</time>
      </trkpt>
      <trkpt lat="40.5084270" lon="-4.0691700">
        <ele>841.7</ele>
        <time>2021-05-08T11:21:11Z</time>
      </trkpt>
      <trkpt lat="40.5084540" lon="-4.0690010">
        <ele>841.8</ele>
        <time>2021-05-08T11:21:13Z</time>
      </trkpt>
      <trkpt lat="40.5084830" lon="-4.0688350">
        <ele>841.9</ele>
        <time>2021-05-08T11:21:15Z</time>
      </trkpt>
      <trkpt lat="40.5085090" lon="-4.0686740">
        <ele>841.9</ele>
        <time>2021-05-08T11:21:17Z</time>
      </trkpt>
      <trkpt lat="40.5085200" lon="-4.0685960">
        <ele>842.0</ele>
        <time>2021-05-08T11:21:18Z</time>
      </trkpt>
      <trkpt lat="40.5085460" lon="-4.0684440">
        <ele>842.0</ele>
        <time>2021-05-08T11:21:20Z</time>
      </trkpt>
      <trkpt lat="40.5085720" lon="-4.0682930">
        <ele>841.9</ele>
        <time>2021-05-08T11:21:22Z</time>
      </trkpt>
      <trkpt lat="40.5086010" lon="-4.0681390">
        <ele>841.9</ele>
        <time>2021-05-08T11:21:24Z</time>
      </trkpt>
      <trkpt lat="40.5086150" lon="-4.0680620">
        <ele>841.8</ele>
        <time>2021-05-08T11:21:25Z</time>
      </trkpt>
      <trkpt lat="40.5086370" lon="-4.0679070">
        <ele>841.7</ele>
        <time>2021-05-08T11:21:27Z</time>
      </trkpt>
      <trkpt lat="40.5086600" lon="-4.0677580">
        <ele>841.5</ele>
        <time>2021-05-08T11:21:29Z</time>
      </trkpt>
      <trkpt lat="40.5086670" lon="-4.0676800">
        <ele>841.4</ele>
        <time>2021-05-08T11:21:30Z</time>
      </trkpt>
      <trkpt lat="40.5086810" lon="-4.0675350">
        <ele>841.2</ele>
        <time>2021-05-08T11:21:32Z</time>
      </trkpt>
      <trkpt lat="40.5086990" lon="-4.0673910">
        <ele>841.0</ele>
        <time>2021-05-08T11:21:34Z</time>
      </trkpt>
      <trkpt lat="40.5087200" lon="-4.0672360">
        <ele>840.8</ele>
        <time>2021-05-08T11:21:36Z</time>
      </trkpt>
      <trkpt lat="40.5087260" lon="-4.0671700">
        <ele>840.7</ele>
        <time>2021-05-08T11:21:37Z</time>
      </trkpt>
      <trkpt lat="40.5087320" lon="-4.0670910">
        <ele>840.6</ele>
        <time>2021-05-08T11:21:38Z</time>
      </trkpt>
      <trkpt lat="40.5087410" lon="-4.0669270">
        <ele>840.4</ele>
        <time>2021-05-08T11:21:40Z</time>
      </trkpt>
      <trkpt lat="40.5087440" lon="-4.0667690">
        <ele>840.2</ele>
        <time>2021-05-08T11:21:42Z</time>
      </trkpt>
      <trkpt lat="40.5087420" lon="-4.0666850">
        <ele>840.1</ele>
        <time>2021-05-08T11:21:43Z</time>
      </trkpt>
      <trkpt lat="40.5087340" lon="-4.0665170">
        <ele>839.9</ele>
        <time>2021-05-08T11:21:45Z</time>
      </trkpt>
      <trkpt lat="40.5087180" lon="-4.0663490">
        <ele>839.8</ele>
        <time>2021-05-08T11:21:47Z</time>
      </trkpt>
      <trkpt lat="40.5087070" lon="-4.0662690">
        <ele>839.8</ele>
        <time>2021-05-08T11:21:48Z</time>
      </trkpt>
      <trkpt lat="40.5086800" lon="-4.0661150">
        <ele>839.7</ele>
        <time>2021-05-08T11:21:50Z</time>
      </trkpt>
      <trkpt lat="40.5086430" lon="-4.0659700">
        <ele>839.8</ele>
        <time>2021-05-08T11:21:52Z</time>
      </trkpt>
      <trkpt lat="40.5086220" lon="-4.0658960">
        <ele>839.8</ele>
        <time>2021-05-08T11:21:53Z</time>
      </trkpt>
      <trkpt lat="40.5085800" lon="-4.0657600">
        <ele>840.0</ele>
        <time>2021-05-08T11:21:55Z</time>
      </trkpt>
      <trkpt lat="40.5085510" lon="-4.0656870">
        <ele>840.1</ele>
        <time>2021-05-08T11:21:56Z</time>
      </trkpt>
      <trkpt lat="40.5085290" lon="-4.0656330">
        <ele>840.2</ele>
        <time>2021-05-08T11:21:57Z</time>
      </trkpt>
      <trkpt lat="40.5085050" lon="-4.0655750">
        <ele>840.3</ele>
        <time>2021-05-08T11:21:58Z</time>
      </trkpt>
      <trkpt lat="40.5084610" lon="-4.0654520">
        <ele>840.6</ele>
        <time>2021-05-08T11:22:00Z</time>
      </trkpt>
      <trkpt lat="40.5084190" lon="-4.0653320">
        <ele>841.0</ele>
        <time>2021-05-08T11:22:02Z</time>
      </trkpt>
      <trkpt lat="40.5083970" lon="-4.0652710">
        <ele>841.2</ele>
        <time>2021-05-08T11:22:03Z</time>
      </trkpt>
      <trkpt lat="40.5083730" lon="-4.0652130">
        <ele>841.3</ele>
        <time>2021-05-08T11:22:04Z</time>
      </trkpt>
      <trkpt lat="40.5083200" lon="-4.0651060">
        <ele>841.7</ele>
        <time>2021-05-08T11:22:06Z</time>
      </trkpt>
      <trkpt lat="40.5082910" lon="-4.0650550">
        <ele>842.0</ele>
        <time>2021-05-08T11:22:07Z</time>
      </trkpt>
      <trkpt lat="40.5082310" lon="-4.0649620">
        <ele>842.4</ele>
        <time>2021-05-08T11:22:09Z</time>
      </trkpt>
      <trkpt lat="40.5082000" lon="-4.0649160">
        <ele>842.7</ele>
        <time>2021-05-08T11:22:10Z</time>
      </trkpt>
      <trkpt lat="40.5081370" lon="-4.0648200">
        <ele>843.2</ele>
        <time>2021-05-08T11:22:12Z</time>
      </trkpt>
      <trkpt lat="40.5081040" lon="-4.0647720">
        <ele>843.4</ele>
        <time>2021-05-08T11:22:13Z</time>
      </trkpt>
      <trkpt lat="40.5080390" lon="-4.0646790">
        <ele>844.0</ele>
        <time>2021-05-08T11:22:15Z</time>
      </trkpt>
      <trkpt lat="40.5079880" lon="-4.0646110">
        <ele>844.4</ele>
        <time>2021-05-08T11:22:17Z</time>
      </trkpt>
      <trkpt lat="40.5079230" lon="-4.0645330">
        <ele>845.0</ele>
        <time>2021-05-08T11:22:19Z</time>
      </trkpt>
      <trkpt lat="40.5078570" lon="-4.0644520">
        <ele>845.6</ele>
        <time>2021-05-08T11:22:21Z</time>
      </trkpt>
      <trkpt lat="40.5079080" lon="-4.0644190">
        <ele>845.9</ele>
        <time>2021-05-08T11:22:22Z</time>
      </trkpt>
      <trkpt lat="40.5078670" lon="-4.0643700">
        <ele>846.3</ele>
        <time>2021-05-08T11:22:23Z</time>
      </trkpt>
      <trkpt lat="40.5078070" lon="-4.0643160">
        <ele>846.8</ele>
        <time>2021-05-08T11:22:25Z</time>
      </trkpt>
      <trkpt lat="40.5077430" lon="-4.0642580">
        <ele>847.3</ele>
        <time>2021-05-08T11:22:26Z</time>
      </trkpt>
      <trkpt lat="40.5077060" lon="-4.0642230">
        <ele>847.6</ele>
        <time>2021-05-08T11:22:27Z</time>
      </trkpt>
      <trkpt lat="40.5076520" lon="-4.0641580">
        <ele>848.1</ele>
        <time>2021-05-08T11:22:28Z</time>
      </trkpt>
      <trkpt lat="40.5076270" lon="-4.0641240">
        <ele>848.3</ele>
        <time>2021-05-08T11:22:29Z</time>
      </trkpt>
      <trkpt lat="40.5075950" lon="-4.0640840">
        <ele>848.5</ele>
        <time>2021-05-08T11:22:30Z</time>
      </trkpt>
      <trkpt lat="40.5075550" lon="-4.0640340">
        <ele>848.9</ele>
        <time>2021-05-08T11:22:32Z</time>
      </trkpt>
      <trkpt lat="40.5075070" lon="-4.0639800">
        <ele>849.2</ele>
        <time>2021-05-08T11:22:34Z</time>
      </trkpt>
      <trkpt lat="40.5074840" lon="-4.0639600">
        <ele>849.4</ele>
        <time>2021-05-08T11:22:35Z</time>
      </trkpt>
      <trkpt lat="40.5074350" lon="-4.0639040">
        <ele>849.8</ele>
        <time>2021-05-08T11:22:37Z</time>
      </trkpt>
      <trkpt lat="40.5073990" lon="-4.0638680">
        <ele>850.0</ele>
        <time>2021-05-08T11:22:38Z</time>
      </trkpt>
      <trkpt lat="40.5073670" lon="-4.0638340">
        <ele>850.3</ele>
        <time>2021-05-08T11:22:40Z</time>
      </trkpt>
      <trkpt lat="40.5073300" lon="-4.0637930">
        <ele>850.6</ele>
        <time>2021-05-08T11:22:41Z</time>
      </trkpt>
      <trkpt lat="40.5072960" lon="-4.0637530">
        <ele>850.8</ele>
        <time>2021-05-08T11:22:43Z</time>
      </trkpt>
      <trkpt lat="40.5072470" lon="-4.0637010">
        <ele>851.2</ele>
        <time>2021-05-08T11:22:45Z</time>
      </trkpt>
      <trkpt lat="40.5072160" lon="-4.0636670">
        <ele>851.4</ele>
        <time>2021-05-08T11:22:46Z</time>
      </trkpt>
      <trkpt lat="40.5071860" lon="-4.0636300">
        <ele>851.7</ele>
        <time>2021-05-08T11:22:48Z</time>
      </trkpt>
      <trkpt lat="40.5071420" lon="-4.0635800">
        <ele>852.0</ele>
        <time>2021-05-08T11:22:49Z</time>
      </trkpt>
      <trkpt lat="40.5071050" lon="-4.0635430">
        <ele>852.3</ele>
        <time>2021-05-08T11:22:51Z</time>
      </trkpt>
      <trkpt lat="40.5070820" lon="-4.0635140">
        <ele>852.5</ele>
        <time>2021-05-08T11:22:52Z</time>
      </trkpt>
      <trkpt lat="40.5070600" lon="-4.0634840">
        <ele>852.7</ele>
        <time>2021-05-08T11:22:53Z</time>
      </trkpt>
      <trkpt lat="40.5070360" lon="-4.0634580">
        <ele>852.9</ele>
        <time>2021-05-08T11:22:54Z</time>
      </trkpt>
      <trkpt lat="40.5069960" lon="-4.0634100">
        <ele>853.2</ele>
        <time>2021-05-08T11:22:56Z</time>
      </trkpt>
      <trkpt lat="40.5069560" lon="-4.0633550">
        <ele>853.5</ele>
        <time>2021-05-08T11:22:58Z</time>
      </trkpt>
      <trkpt lat="40.5069360" lon="-4.0633290">
        <ele>853.7</ele>
        <time>2021-05-08T11:22:59Z</time>
      </trkpt>
      <trkpt lat="40.5069090" lon="-4.0632930">
        <ele>853.9</ele>
        <time>2021-05-08T11:23:00Z</time>
      </trkpt>
      <trkpt lat="40.5068820" lon="-4.0632510">
        <ele>854.1</ele>
        <time>2021-05-08T11:23:02Z</time>
      </trkpt>
      <trkpt lat="40.5068600" lon="-4.0632120">
        <ele>854.3</ele>
        <time>2021-05-08T11:23:03Z</time>
      </trkpt>
      <trkpt lat="40.5068390" lon="-4.0631770">
        <ele>854.5</ele>
        <time>2021-05-08T11:23:04Z</time>
      </trkpt>
      <trkpt lat="40.5068070" lon="-4.0631210">
        <ele>854.8</ele>
        <time>2021-05-08T11:23:05Z</time>
      </trkpt>
      <trkpt lat="40.5067780" lon="-4.0630720">
        <ele>855.0</ele>
        <time>2021-05-08T11:23:07Z</time>
      </trkpt>
      <trkpt lat="40.5067610" lon="-4.0630400">
        <ele>855.2</ele>
        <time>2021-05-08T11:23:08Z</time>
      </trkpt>
      <trkpt lat="40.5067450" lon="-4.0630040">
        <ele>855.3</ele>
        <time>2021-05-08T11:23:09Z</time>
      </trkpt>
      <trkpt lat="40.5067290" lon="-4.0629720">
        <ele>855.5</ele>
        <time>2021-05-08T11:23:10Z</time>
      </trkpt>
      <trkpt lat="40.5067090" lon="-4.0629270">
        <ele>855.7</ele>
        <time>2021-05-08T11:23:11Z</time>
      </trkpt>
      <trkpt lat="40.5066860" lon="-4.0628600">
        <ele>855.9</ele>
        <time>2021-05-08T11:23:13Z</time>
      </trkpt>
      <trkpt lat="40.5066710" lon="-4.0628220">
        <ele>856.0</ele>
        <time>2021-05-08T11:23:14Z</time>
      </trkpt>
      <trkpt lat="40.5066440" lon="-4.0627530">
        <ele>856.3</ele>
        <time>2021-05-08T11:23:16Z</time>
      </trkpt>
      <trkpt lat="40.5066280" lon="-4.0627140">
        <ele>856.4</ele>
        <time>2021-05-08T11:23:17Z</time>
      </trkpt>
      <trkpt lat="40.5066140" lon="-4.0626750">
        <ele>856.5</ele>
        <time>2021-05-08T11:23:18Z</time>
      </trkpt>
      <trkpt lat="40.5066020" lon="-4.0626360">
        <ele>856.7</ele>
        <time>2021-05-08T11:23:19Z</time>
      </trkpt>
      <trkpt lat="40.5065770" lon="-4.0625560">
        <ele>856.9</ele>
        <time>2021-05-08T11:23:21Z</time>
      </trkpt>
      <trkpt lat="40.5065540" lon="-4.0624910">
        <ele>857.0</ele>
        <time>2021-05-08T11:23:23Z</time>
      </trkpt>
      <trkpt lat="40.5065430" lon="-4.0624380">
        <ele>857.1</ele>
        <time>2021-05-08T11:23:24Z</time>
      </trkpt>
      <trkpt lat="40.5065220" lon="-4.0623440">
        <ele>857.3</ele>
        <time>2021-05-08T11:23:26Z</time>
      </trkpt>
      <trkpt lat="40.5065100" lon="-4.0622810">
        <ele>857.5</ele>
        <time>2021-05-08T11:23:27Z</time>
      </trkpt>
      <trkpt lat="40.5065010" lon="-4.0622380">
        <ele>857.6</ele>
        <time>2021-05-08T11:23:28Z</time>
      </trkpt>
      <trkpt lat="40.5064910" lon="-4.0621710">
        <ele>857.7</ele>
        <time>2021-05-08T11:23:30Z</time>
      </trkpt>
      <trkpt lat="40.5064830" lon="-4.0621020">
        <ele>857.9</ele>
        <time>2021-05-08T11:23:31Z</time>
      </trkpt>
      <trkpt lat="40.5064770" lon="-4.0620470">
        <ele>858.0</ele>
        <time>2021-05-08T11:23:32Z</time>
      </trkpt>
      <trkpt lat="40.5064650" lon="-4.0619740">
        <ele>858.2</ele>
        <time>2021-05-08T11:23:34Z</time>
      </trkpt>
      <trkpt lat="40.5064560" lon="-4.0618920">
        <ele>858.3</ele>
        <time>2021-05-08T11:23:36Z</time>
      </trkpt>
      <trkpt lat="40.5064500" lon="-4.0618330">
        <ele>858.4</ele>
        <time>2021-05-08T11:23:37Z</time>
      </trkpt>
      <trkpt lat="40.5064450" lon="-4.0617380">
        <ele>858.6</ele>
        <time>2021-05-08T11:23:39Z</time>
      </trkpt>
      <trkpt lat="40.5064440" lon="-4.0616790">
        <ele>858.6</ele>
        <time>2021-05-08T11:23:40Z</time>
      </trkpt>
      <trkpt lat="40.5064460" lon="-4.0616250">
        <ele>858.7</ele>
        <time>2021-05-08T11:23:41Z</time>
      </trkpt>
      <trkpt lat="40.5064490" lon="-4.0615170">
        <ele>858.8</ele>
        <time>2021-05-08T11:23:43Z</time>
      </trkpt>
      <trkpt lat="40.5064560" lon="-4.0614310">
        <ele>858.9</ele>
        <time>2021-05-08T11:23:44Z</time>
      </trkpt>
      <trkpt lat="40.5064650" lon="-4.0613440">
        <ele>859.0</ele>
        <time>2021-05-08T11:23:46Z</time>
      </trkpt>
      <trkpt lat="40.5064740" lon="-4.0612900">
        <ele>859.0</ele>
        <time>2021-05-08T11:23:47Z</time>
      </trkpt>
      <trkpt lat="40.5064920" lon="-4.0611870">
        <ele>859.1</ele>
        <time>2021-05-08T11:23:49Z</time>
      </trkpt>
      <trkpt lat="40.5065070" lon="-4.0611140">
        <ele>859.2</ele>
        <time>2021-05-08T11:23:50Z</time>
      </trkpt>
      <trkpt lat="40.5065350" lon="-4.0610170">
        <ele>859.2</ele>
        <time>2021-05-08T11:23:52Z</time>
      </trkpt>
      <trkpt lat="40.5065540" lon="-4.0609250">
        <ele>859.2</ele>
        <time>2021-05-08T11:23:54Z</time>
      </trkpt>
      <trkpt lat="40.5065670" lon="-4.0608590">
        <ele>859.2</ele>
        <time>2021-05-08T11:23:55Z</time>
      </trkpt>
      <trkpt lat="40.5065940" lon="-4.0607670">
        <ele>859.2</ele>
        <time>2021-05-08T11:23:57Z</time>
      </trkpt>
      <trkpt lat="40.5066120" lon="-4.0607150">
        <ele>859.2</ele>
        <time>2021-05-08T11:23:58Z</time>
      </trkpt>
      <trkpt lat="40.5066340" lon="-4.0606640">
        <ele>859.2</ele>
        <time>2021-05-08T11:23:59Z</time>
      </trkpt>
      <trkpt lat="40.5066620" lon="-4.0606020">
        <ele>859.2</ele>
        <time>2021-05-08T11:24:00Z</time>
      </trkpt>
      <trkpt lat="40.5066900" lon="-4.0605310">
        <ele>859.2</ele>
        <time>2021-05-08T11:24:02Z</time>
      </trkpt>
      <trkpt lat="40.5067110" lon="-4.0604840">
        <ele>859.2</ele>
        <time>2021-05-08T11:24:03Z</time>
      </trkpt>
      <trkpt lat="40.5067410" lon="-4.0604260">
        <ele>859.1</ele>
        <time>2021-05-08T11:24:04Z</time>
      </trkpt>
      <trkpt lat="40.5067650" lon="-4.0603770">
        <ele>859.1</ele>
        <time>2021-05-08T11:24:05Z</time>
      </trkpt>
      <trkpt lat="40.5067890" lon="-4.0603290">
        <ele>859.1</ele>
        <time>2021-05-08T11:24:06Z</time>
      </trkpt>
      <trkpt lat="40.5068150" lon="-4.0602740">
        <ele>859.0</ele>
        <time>2021-05-08T11:24:07Z</time>
      </trkpt>
      <trkpt lat="40.5068380" lon="-4.0602230">
        <ele>859.0</ele>
        <time>2021-05-08T11:24:08Z</time>
      </trkpt>
      <trkpt lat="40.5068650" lon="-4.0601660">
        <ele>858.9</ele>
        <time>2021-05-08T11:24:09Z</time>
      </trkpt>
      <trkpt lat="40.5068970" lon="-4.0601060">
        <ele>858.8</ele>
        <time>2021-05-08T11:24:11Z</time>
      </trkpt>
      <trkpt lat="40.5069420" lon="-4.0600300">
        <ele>858.7</ele>
        <time>2021-05-08T11:24:12Z</time>
      </trkpt>
      <trkpt lat="40.5069610" lon="-4.0599980">
        <ele>858.7</ele>
        <time>2021-05-08T11:24:13Z</time>
      </trkpt>
      <trkpt lat="40.5069870" lon="-4.0599430">
        <ele>858.6</ele>
        <time>2021-05-08T11:24:14Z</time>
      </trkpt>
      <trkpt lat="40.5070380" lon="-4.0598410">
        <ele>858.4</ele>
        <time>2021-05-08T11:24:16Z</time>
      </trkpt>
      <trkpt lat="40.5070670" lon="-4.0597910">
        <ele>858.3</ele>
        <time>2021-05-08T11:24:17Z</time>
      </trkpt>
      <trkpt lat="40.5070940" lon="-4.0597410">
        <ele>858.3</ele>
        <time>2021-05-08T11:24:18Z</time>
      </trkpt>
      <trkpt lat="40.5071220" lon="-4.0596890">
        <ele>858.2</ele>
        <time>2021-05-08T11:24:19Z</time>
      </trkpt>
      <trkpt lat="40.5071820" lon="-4.0595740">
        <ele>858.0</ele>
        <time>2021-05-08T11:24:21Z</time>
      </trkpt>
      <trkpt lat="40.5072140" lon="-4.0595140">
        <ele>857.9</ele>
        <time>2021-05-08T11:24:22Z</time>
      </trkpt>
      <trkpt lat="40.5072760" lon="-4.0593940">
        <ele>857.7</ele>
        <time>2021-05-08T11:24:24Z</time>
      </trkpt>
      <trkpt lat="40.5073450" lon="-4.0592720">
        <ele>857.5</ele>
        <time>2021-05-08T11:24:26Z</time>
      </trkpt>
      <trkpt lat="40.5074140" lon="-4.0591410">
        <ele>857.3</ele>
        <time>2021-05-08T11:24:28Z</time>
      </trkpt>
      <trkpt lat="40.5074860" lon="-4.0590140">
        <ele>857.1</ele>
        <time>2021-05-08T11:24:30Z</time>
      </trkpt>
      <trkpt lat="40.5075700" lon="-4.0588730">
        <ele>856.8</ele>
        <time>2021-05-08T11:24:32Z</time>
      </trkpt>
      <trkpt lat="40.5076000" lon="-4.0588170">
        <ele>856.7</ele>
        <time>2021-05-08T11:24:33Z</time>
      </trkpt>
      <trkpt lat="40.5076710" lon="-4.0586870">
        <ele>856.5</ele>
        <time>2021-05-08T11:24:35Z</time>
      </trkpt>
      <trkpt lat="40.5077110" lon="-4.0586210">
        <ele>856.4</ele>
        <time>2021-05-08T11:24:36Z</time>
      </trkpt>
      <trkpt lat="40.5077820" lon="-4.0584890">
        <ele>856.2</ele>
        <time>2021-05-08T11:24:38Z</time>
      </trkpt>
      <trkpt lat="40.5078170" lon="-4.0584170">
        <ele>856.1</ele>
        <time>2021-05-08T11:24:39Z</time>
      </trkpt>
      <trkpt lat="40.5078860" lon="-4.0582760">
        <ele>855.8</ele>
        <time>2021-05-08T11:24:41Z</time>
      </trkpt>
      <trkpt lat="40.5079190" lon="-4.0582030">
        <ele>855.7</ele>
        <time>2021-05-08T11:24:42Z</time>
      </trkpt>
      <trkpt lat="40.5079530" lon="-4.0581300">
        <ele>855.5</ele>
        <time>2021-05-08T11:24:43Z</time>
      </trkpt>
      <trkpt lat="40.5080210" lon="-4.0579810">
        <ele>855.3</ele>
        <time>2021-05-08T11:24:45Z</time>
      </trkpt>
      <trkpt lat="40.5080740" lon="-4.0578240">
        <ele>854.9</ele>
        <time>2021-05-08T11:24:47Z</time>
      </trkpt>
      <trkpt lat="40.5081000" lon="-4.0577410">
        <ele>854.7</ele>
        <time>2021-05-08T11:24:48Z</time>
      </trkpt>
      <trkpt lat="40.5081230" lon="-4.0576570">
        <ele>854.5</ele>
        <time>2021-05-08T11:24:49Z</time>
      </trkpt>
      <trkpt lat="40.5081450" lon="-4.0575700">
        <ele>854.3</ele>
        <time>2021-05-08T11:24:50Z</time>
      </trkpt>
      <trkpt lat="40.5081620" lon="-4.0574830">
        <ele>854.1</ele>
        <time>2021-05-08T11:24:51Z</time>
      </trkpt>
      <trkpt lat="40.5081770" lon="-4.0573820">
        <ele>853.8</ele>
        <time>2021-05-08T11:24:52Z</time>
      </trkpt>
      <trkpt lat="40.5081790" lon="-4.0572250">
        <ele>853.3</ele>
        <time>2021-05-08T11:24:54Z</time>
      </trkpt>
      <trkpt lat="40.5081690" lon="-4.0570300">
        <ele>852.7</ele>
        <time>2021-05-08T11:24:56Z</time>
      </trkpt>
      <trkpt lat="40.5081590" lon="-4.0569290">
        <ele>852.4</ele>
        <time>2021-05-08T11:24:57Z</time>
      </trkpt>
      <trkpt lat="40.5081430" lon="-4.0568310">
        <ele>852.1</ele>
        <time>2021-05-08T11:24:58Z</time>
      </trkpt>
      <trkpt lat="40.5080950" lon="-4.0566390">
        <ele>851.5</ele>
        <time>2021-05-08T11:25:00Z</time>
      </trkpt>
      <trkpt lat="40.5080520" lon="-4.0565520">
        <ele>851.0</ele>
        <time>2021-05-08T11:25:01Z</time>
      </trkpt>
      <trkpt lat="40.5079200" lon="-4.0564280">
        <ele>850.4</ele>
        <time>2021-05-08T11:25:03Z</time>
      </trkpt>
      <trkpt lat="40.5077940" lon="-4.0563010">
        <ele>849.6</ele>
        <time>2021-05-08T11:25:05Z</time>
      </trkpt>
      <trkpt lat="40.5077500" lon="-4.0562090">
        <ele>849.4</ele>
        <time>2021-05-08T11:25:06Z</time>
      </trkpt>
      <trkpt lat="40.5077220" lon="-4.0561060">
        <ele>849.1</ele>
        <time>2021-05-08T11:25:07Z</time>
      </trkpt>
      <trkpt lat="40.5077140" lon="-4.0558710">
        <ele>848.7</ele>
        <time>2021-05-08T11:25:09Z</time>
      </trkpt>
      <trkpt lat="40.5077340" lon="-4.0557520">
        <ele>848.5</ele>
        <time>2021-05-08T11:25:10Z</time>
      </trkpt>
      <trkpt lat="40.5077630" lon="-4.0556400">
        <ele>848.3</ele>
        <time>2021-05-08T11:25:11Z</time>
      </trkpt>
      <trkpt lat="40.5077670" lon="-4.0554200">
        <ele>847.4</ele>
        <time>2021-05-08T11:25:13Z</time>
      </trkpt>
      <trkpt lat="40.5077400" lon="-4.0553120">
        <ele>846.9</ele>
        <time>2021-05-08T11:25:14Z</time>
      </trkpt>
      <trkpt lat="40.5076920" lon="-4.0552150">
        <ele>846.5</ele>
        <time>2021-05-08T11:25:15Z</time>
      </trkpt>
      <trkpt lat="40.5076350" lon="-4.0551210">
        <ele>845.9</ele>
        <time>2021-05-08T11:25:16Z</time>
      </trkpt>
      <trkpt lat="40.5075180" lon="-4.0549430">
        <ele>844.9</ele>
        <time>2021-05-08T11:25:18Z</time>
      </trkpt>
      <trkpt lat="40.5074550" lon="-4.0548600">
        <ele>844.5</ele>
        <time>2021-05-08T11:25:19Z</time>
      </trkpt>
      <trkpt lat="40.5073890" lon="-4.0547830">
        <ele>844.0</ele>
        <time>2021-05-08T11:25:20Z</time>
      </trkpt>
      <trkpt lat="40.5072420" lon="-4.0546450">
        <ele>843.0</ele>
        <time>2021-05-08T11:25:22Z</time>
      </trkpt>
      <trkpt lat="40.5071640" lon="-4.0545830">
        <ele>842.5</ele>
        <time>2021-05-08T11:25:23Z</time>
      </trkpt>
      <trkpt lat="40.5069970" lon="-4.0544750">
        <ele>841.6</ele>
        <time>2021-05-08T11:25:25Z</time>
      </trkpt>
      <trkpt lat="40.5068130" lon="-4.0543890">
        <ele>840.7</ele>
        <time>2021-05-08T11:25:27Z</time>
      </trkpt>
      <trkpt lat="40.5066350" lon="-4.0543110">
        <ele>839.7</ele>
        <time>2021-05-08T11:25:29Z</time>
      </trkpt>
      <trkpt lat="40.5064630" lon="-4.0542470">
        <ele>838.9</ele>
        <time>2021-05-08T11:25:31Z</time>
      </trkpt>
      <trkpt lat="40.5062900" lon="-4.0541940">
        <ele>838.0</ele>
        <time>2021-05-08T11:25:33Z</time>
      </trkpt>
      <trkpt lat="40.5062020" lon="-4.0541700">
        <ele>837.6</ele>
        <time>2021-05-08T11:25:34Z</time>
      </trkpt>
      <trkpt lat="40.5060260" lon="-4.0541060">
        <ele>836.7</ele>
        <time>2021-05-08T11:25:36Z</time>
      </trkpt>
      <trkpt lat="40.5059420" lon="-4.0540720">
        <ele>836.3</ele>
        <time>2021-05-08T11:25:37Z</time>
      </trkpt>
      <trkpt lat="40.5057770" lon="-4.0540130">
        <ele>835.8</ele>
        <time>2021-05-08T11:25:39Z</time>
      </trkpt>
      <trkpt lat="40.5056960" lon="-4.0539880">
        <ele>835.7</ele>
        <time>2021-05-08T11:25:40Z</time>
      </trkpt>
      <trkpt lat="40.5056130" lon="-4.0539590">
        <ele>835.5</ele>
        <time>2021-05-08T11:25:41Z</time>
      </trkpt>
      <trkpt lat="40.5055320" lon="-4.0539300">
        <ele>835.2</ele>
        <time>2021-05-08T11:25:42Z</time>
      </trkpt>
      <trkpt lat="40.5053710" lon="-4.0538730">
        <ele>834.5</ele>
        <time>2021-05-08T11:25:44Z</time>
      </trkpt>
      <trkpt lat="40.5052050" lon="-4.0538130">
        <ele>833.7</ele>
        <time>2021-05-08T11:25:46Z</time>
      </trkpt>
      <trkpt lat="40.5051220" lon="-4.0537810">
        <ele>833.3</ele>
        <time>2021-05-08T11:25:47Z</time>
      </trkpt>
      <trkpt lat="40.5049560" lon="-4.0537220">
        <ele>832.6</ele>
        <time>2021-05-08T11:25:49Z</time>
      </trkpt>
      <trkpt lat="40.5048270" lon="-4.0536740">
        <ele>831.9</ele>
        <time>2021-05-08T11:25:51Z</time>
      </trkpt>
      <trkpt lat="40.5047100" lon="-4.0536330">
        <ele>831.3</ele>
        <time>2021-05-08T11:25:52Z</time>
      </trkpt>
      <trkpt lat="40.5046240" lon="-4.0536020">
        <ele>830.9</ele>
        <time>2021-05-08T11:25:53Z</time>
      </trkpt>
      <trkpt lat="40.5044580" lon="-4.0535380">
        <ele>830.1</ele>
        <time>2021-05-08T11:25:55Z</time>
      </trkpt>
      <trkpt lat="40.5043770" lon="-4.0535020">
        <ele>829.8</ele>
        <time>2021-05-08T11:25:56Z</time>
      </trkpt>
      <trkpt lat="40.5042150" lon="-4.0534350">
        <ele>829.0</ele>
        <time>2021-05-08T11:25:58Z</time>
      </trkpt>
      <trkpt lat="40.5041340" lon="-4.0534030">
        <ele>828.7</ele>
        <time>2021-05-08T11:25:59Z</time>
      </trkpt>
      <trkpt lat="40.5039690" lon="-4.0533440">
        <ele>828.1</ele>
        <time>2021-05-08T11:26:01Z</time>
      </trkpt>
      <trkpt lat="40.5038840" lon="-4.0533110">
        <ele>827.7</ele>
        <time>2021-05-08T11:26:02Z</time>
      </trkpt>
      <trkpt lat="40.5037110" lon="-4.0532440">
        <ele>827.1</ele>
        <time>2021-05-08T11:26:04Z</time>
      </trkpt>
      <trkpt lat="40.5035410" lon="-4.0531730">
        <ele>826.5</ele>
        <time>2021-05-08T11:26:06Z</time>
      </trkpt>
      <trkpt lat="40.5034540" lon="-4.0531310">
        <ele>826.2</ele>
        <time>2021-05-08T11:26:07Z</time>
      </trkpt>
      <trkpt lat="40.5032860" lon="-4.0530360">
        <ele>825.7</ele>
        <time>2021-05-08T11:26:09Z</time>
      </trkpt>
      <trkpt lat="40.5031230" lon="-4.0529480">
        <ele>825.2</ele>
        <time>2021-05-08T11:26:11Z</time>
      </trkpt>
      <trkpt lat="40.5030320" lon="-4.0528980">
        <ele>825.0</ele>
        <time>2021-05-08T11:26:12Z</time>
      </trkpt>
      <trkpt lat="40.5029660" lon="-4.0528660">
        <ele>824.8</ele>
        <time>2021-05-08T11:26:13Z</time>
      </trkpt>
      <trkpt lat="40.5028090" lon="-4.0527820">
        <ele>824.4</ele>
        <time>2021-05-08T11:26:15Z</time>
      </trkpt>
      <trkpt lat="40.5027340" lon="-4.0527380">
        <ele>824.2</ele>
        <time>2021-05-08T11:26:16Z</time>
      </trkpt>
      <trkpt lat="40.5026620" lon="-4.0526920">
        <ele>824.1</ele>
        <time>2021-05-08T11:26:17Z</time>
      </trkpt>
      <trkpt lat="40.5025180" lon="-4.0525940">
        <ele>823.9</ele>
        <time>2021-05-08T11:26:19Z</time>
      </trkpt>
      <trkpt lat="40.5023740" lon="-4.0524920">
        <ele>823.6</ele>
        <time>2021-05-08T11:26:21Z</time>
      </trkpt>
      <trkpt lat="40.5022990" lon="-4.0524500">
        <ele>823.4</ele>
        <time>2021-05-08T11:26:22Z</time>
      </trkpt>
      <trkpt lat="40.5021440" lon="-4.0523670">
        <ele>823.0</ele>
        <time>2021-05-08T11:26:24Z</time>
      </trkpt>
      <trkpt lat="40.5019900" lon="-4.0522780">
        <ele>822.6</ele>
        <time>2021-05-08T11:26:26Z</time>
      </trkpt>
      <trkpt lat="40.5019130" lon="-4.0522340">
        <ele>822.4</ele>
        <time>2021-05-08T11:26:27Z</time>
      </trkpt>
      <trkpt lat="40.5018360" lon="-4.0521890">
        <ele>822.2</ele>
        <time>2021-05-08T11:26:28Z</time>
      </trkpt>
      <trkpt lat="40.5017580" lon="-4.0521470">
        <ele>822.0</ele>
        <time>2021-05-08T11:26:29Z</time>
      </trkpt>
      <trkpt lat="40.5016790" lon="-4.0521010">
        <ele>821.9</ele>
        <time>2021-05-08T11:26:31Z</time>
      </trkpt>
      <trkpt lat="40.5014940" lon="-4.0519980">
        <ele>821.5</ele>
        <time>2021-05-08T11:26:32Z</time>
      </trkpt>
      <trkpt lat="40.5014560" lon="-4.0519780">
        <ele>821.4</ele>
        <time>2021-05-08T11:26:33Z</time>
      </trkpt>
      <trkpt lat="40.5013820" lon="-4.0519410">
        <ele>821.3</ele>
        <time>2021-05-08T11:26:34Z</time>
      </trkpt>
      <trkpt lat="40.5012320" lon="-4.0518700">
        <ele>821.0</ele>
        <time>2021-05-08T11:26:36Z</time>
      </trkpt>
      <trkpt lat="40.5011560" lon="-4.0518370">
        <ele>820.9</ele>
        <time>2021-05-08T11:26:37Z</time>
      </trkpt>
      <trkpt lat="40.5010770" lon="-4.0518050">
        <ele>820.7</ele>
        <time>2021-05-08T11:26:38Z</time>
      </trkpt>
      <trkpt lat="40.5009150" lon="-4.0517560">
        <ele>820.4</ele>
        <time>2021-05-08T11:26:40Z</time>
      </trkpt>
      <trkpt lat="40.5007440" lon="-4.0517230">
        <ele>820.1</ele>
        <time>2021-05-08T11:26:42Z</time>
      </trkpt>
      <trkpt lat="40.5005760" lon="-4.0517000">
        <ele>819.8</ele>
        <time>2021-05-08T11:26:44Z</time>
      </trkpt>
      <trkpt lat="40.5004960" lon="-4.0516920">
        <ele>819.7</ele>
        <time>2021-05-08T11:26:45Z</time>
      </trkpt>
      <trkpt lat="40.5003320" lon="-4.0516850">
        <ele>819.5</ele>
        <time>2021-05-08T11:26:47Z</time>
      </trkpt>
      <trkpt lat="40.5001610" lon="-4.0516880">
        <ele>819.3</ele>
        <time>2021-05-08T11:26:49Z</time>
      </trkpt>
      <trkpt lat="40.4999980" lon="-4.0516880">
        <ele>819.1</ele>
        <time>2021-05-08T11:26:51Z</time>
      </trkpt>
      <trkpt lat="40.4998480" lon="-4.0516910">
        <ele>818.9</ele>
        <time>2021-05-08T11:26:53Z</time>
      </trkpt>
      <trkpt lat="40.4998100" lon="-4.0516830">
        <ele>818.9</ele>
        <time>2021-05-08T11:26:55Z</time>
      </trkpt>
      <trkpt lat="40.4997940" lon="-4.0516820">
        <ele>818.9</ele>
        <time>2021-05-08T11:26:56Z</time>
      </trkpt>
      <trkpt lat="40.4996520" lon="-4.0516740">
        <ele>818.7</ele>
        <time>2021-05-08T11:26:58Z</time>
      </trkpt>
      <trkpt lat="40.4994280" lon="-4.0516550">
        <ele>818.6</ele>
        <time>2021-05-08T11:27:00Z</time>
      </trkpt>
      <trkpt lat="40.4992320" lon="-4.0516360">
        <ele>818.4</ele>
        <time>2021-05-08T11:27:02Z</time>
      </trkpt>
      <trkpt lat="40.4991510" lon="-4.0516280">
        <ele>818.2</ele>
        <time>2021-05-08T11:27:03Z</time>
      </trkpt>
      <trkpt lat="40.4989960" lon="-4.0516060">
        <ele>818.0</ele>
        <time>2021-05-08T11:27:05Z</time>
      </trkpt>
      <trkpt lat="40.4988480" lon="-4.0515820">
        <ele>817.7</ele>
        <time>2021-05-08T11:27:07Z</time>
      </trkpt>
      <trkpt lat="40.4987740" lon="-4.0515690">
        <ele>817.7</ele>
        <time>2021-05-08T11:27:08Z</time>
      </trkpt>
      <trkpt lat="40.4986980" lon="-4.0515560">
        <ele>817.6</ele>
        <time>2021-05-08T11:27:09Z</time>
      </trkpt>
      <trkpt lat="40.4986250" lon="-4.0515440">
        <ele>817.5</ele>
        <time>2021-05-08T11:27:10Z</time>
      </trkpt>
      <trkpt lat="40.4984820" lon="-4.0515200">
        <ele>817.4</ele>
        <time>2021-05-08T11:27:12Z</time>
      </trkpt>
      <trkpt lat="40.4984120" lon="-4.0515080">
        <ele>817.3</ele>
        <time>2021-05-08T11:27:13Z</time>
      </trkpt>
      <trkpt lat="40.4982760" lon="-4.0514860">
        <ele>817.1</ele>
        <time>2021-05-08T11:27:15Z</time>
      </trkpt>
      <trkpt lat="40.4981340" lon="-4.0514570">
        <ele>816.8</ele>
        <time>2021-05-08T11:27:17Z</time>
      </trkpt>
      <trkpt lat="40.4979840" lon="-4.0514270">
        <ele>816.5</ele>
        <time>2021-05-08T11:27:19Z</time>
      </trkpt>
      <trkpt lat="40.4979060" lon="-4.0514110">
        <ele>816.4</ele>
        <time>2021-05-08T11:27:20Z</time>
      </trkpt>
      <trkpt lat="40.4978230" lon="-4.0513910">
        <ele>816.2</ele>
        <time>2021-05-08T11:27:21Z</time>
      </trkpt>
      <trkpt lat="40.4976540" lon="-4.0513550">
        <ele>815.9</ele>
        <time>2021-05-08T11:27:23Z</time>
      </trkpt>
      <trkpt lat="40.4974860" lon="-4.0513190">
        <ele>815.6</ele>
        <time>2021-05-08T11:27:25Z</time>
      </trkpt>
      <trkpt lat="40.4973190" lon="-4.0512880">
        <ele>815.3</ele>
        <time>2021-05-08T11:27:27Z</time>
      </trkpt>
      <trkpt lat="40.4972370" lon="-4.0512710">
        <ele>815.3</ele>
        <time>2021-05-08T11:27:28Z</time>
      </trkpt>
      <trkpt lat="40.4970690" lon="-4.0512380">
        <ele>815.0</ele>
        <time>2021-05-08T11:27:30Z</time>
      </trkpt>
      <trkpt lat="40.4969080" lon="-4.0512080">
        <ele>814.6</ele>
        <time>2021-05-08T11:27:32Z</time>
      </trkpt>
      <trkpt lat="40.4968290" lon="-4.0511910">
        <ele>814.4</ele>
        <time>2021-05-08T11:27:33Z</time>
      </trkpt>
      <trkpt lat="40.4967480" lon="-4.0511740">
        <ele>814.2</ele>
        <time>2021-05-08T11:27:34Z</time>
      </trkpt>
      <trkpt lat="40.4965900" lon="-4.0511420">
        <ele>813.8</ele>
        <time>2021-05-08T11:27:36Z</time>
      </trkpt>
      <trkpt lat="40.4964360" lon="-4.0511050">
        <ele>813.4</ele>
        <time>2021-05-08T11:27:38Z</time>
      </trkpt>
      <trkpt lat="40.4962890" lon="-4.0510790">
        <ele>813.1</ele>
        <time>2021-05-08T11:27:40Z</time>
      </trkpt>
      <trkpt lat="40.4961390" lon="-4.0510520">
        <ele>812.8</ele>
        <time>2021-05-08T11:27:42Z</time>
      </trkpt>
      <trkpt lat="40.4960650" lon="-4.0510380">
        <ele>812.7</ele>
        <time>2021-05-08T11:27:43Z</time>
      </trkpt>
      <trkpt lat="40.4959160" lon="-4.0510030">
        <ele>812.5</ele>
        <time>2021-05-08T11:27:45Z</time>
      </trkpt>
      <trkpt lat="40.4957710" lon="-4.0509740">
        <ele>812.3</ele>
        <time>2021-05-08T11:27:47Z</time>
      </trkpt>
      <trkpt lat="40.4956980" lon="-4.0509580">
        <ele>812.3</ele>
        <time>2021-05-08T11:27:48Z</time>
      </trkpt>
      <trkpt lat="40.4956230" lon="-4.0509450">
        <ele>812.2</ele>
        <time>2021-05-08T11:27:49Z</time>
      </trkpt>
      <trkpt lat="40.4954820" lon="-4.0509180">
        <ele>812.2</ele>
        <time>2021-05-08T11:27:51Z</time>
      </trkpt>
      <trkpt lat="40.4954120" lon="-4.0509040">
        <ele>812.2</ele>
        <time>2021-05-08T11:27:52Z</time>
      </trkpt>
      <trkpt lat="40.4952730" lon="-4.0508780">
        <ele>812.3</ele>
        <time>2021-05-08T11:27:54Z</time>
      </trkpt>
      <trkpt lat="40.4952030" lon="-4.0508590">
        <ele>812.3</ele>
        <time>2021-05-08T11:27:55Z</time>
      </trkpt>
      <trkpt lat="40.4951360" lon="-4.0508440">
        <ele>812.4</ele>
        <time>2021-05-08T11:27:56Z</time>
      </trkpt>
      <trkpt lat="40.4950700" lon="-4.0508340">
        <ele>812.5</ele>
        <time>2021-05-08T11:27:57Z</time>
      </trkpt>
      <trkpt lat="40.4950040" lon="-4.0508210">
        <ele>812.5</ele>
        <time>2021-05-08T11:27:58Z</time>
      </trkpt>
      <trkpt lat="40.4948700" lon="-4.0507970">
        <ele>812.6</ele>
        <time>2021-05-08T11:28:00Z</time>
      </trkpt>
      <trkpt lat="40.4947510" lon="-4.0507660">
        <ele>812.8</ele>
        <time>2021-05-08T11:28:02Z</time>
      </trkpt>
      <trkpt lat="40.4946910" lon="-4.0507490">
        <ele>812.8</ele>
        <time>2021-05-08T11:28:03Z</time>
      </trkpt>
      <trkpt lat="40.4946220" lon="-4.0507260">
        <ele>812.8</ele>
        <time>2021-05-08T11:28:04Z</time>
      </trkpt>
      <trkpt lat="40.4945120" lon="-4.0506940">
        <ele>812.8</ele>
        <time>2021-05-08T11:28:06Z</time>
      </trkpt>
      <trkpt lat="40.4944490" lon="-4.0506760">
        <ele>812.7</ele>
        <time>2021-05-08T11:28:07Z</time>
      </trkpt>
      <trkpt lat="40.4943140" lon="-4.0506350">
        <ele>812.6</ele>
        <time>2021-05-08T11:28:09Z</time>
      </trkpt>
      <trkpt lat="40.4941800" lon="-4.0505940">
        <ele>812.4</ele>
        <time>2021-05-08T11:28:11Z</time>
      </trkpt>
      <trkpt lat="40.4940470" lon="-4.0505570">
        <ele>812.2</ele>
        <time>2021-05-08T11:28:13Z</time>
      </trkpt>
      <trkpt lat="40.4939180" lon="-4.0505110">
        <ele>812.0</ele>
        <time>2021-05-08T11:28:15Z</time>
      </trkpt>
      <trkpt lat="40.4937840" lon="-4.0504690">
        <ele>811.7</ele>
        <time>2021-05-08T11:28:17Z</time>
      </trkpt>
      <trkpt lat="40.4937130" lon="-4.0504470">
        <ele>811.6</ele>
        <time>2021-05-08T11:28:18Z</time>
      </trkpt>
      <trkpt lat="40.4936430" lon="-4.0504310">
        <ele>811.5</ele>
        <time>2021-05-08T11:28:19Z</time>
      </trkpt>
      <trkpt lat="40.4935750" lon="-4.0504140">
        <ele>811.3</ele>
        <time>2021-05-08T11:28:20Z</time>
      </trkpt>
      <trkpt lat="40.4934330" lon="-4.0503720">
        <ele>811.0</ele>
        <time>2021-05-08T11:28:22Z</time>
      </trkpt>
      <trkpt lat="40.4933630" lon="-4.0503490">
        <ele>810.8</ele>
        <time>2021-05-08T11:28:23Z</time>
      </trkpt>
      <trkpt lat="40.4932180" lon="-4.0503030">
        <ele>810.4</ele>
        <time>2021-05-08T11:28:25Z</time>
      </trkpt>
      <trkpt lat="40.4930740" lon="-4.0502610">
        <ele>810.1</ele>
        <time>2021-05-08T11:28:27Z</time>
      </trkpt>
      <trkpt lat="40.4930000" lon="-4.0502420">
        <ele>810.0</ele>
        <time>2021-05-08T11:28:28Z</time>
      </trkpt>
      <trkpt lat="40.4928560" lon="-4.0502030">
        <ele>809.8</ele>
        <time>2021-05-08T11:28:30Z</time>
      </trkpt>
      <trkpt lat="40.4927150" lon="-4.0501630">
        <ele>809.7</ele>
        <time>2021-05-08T11:28:32Z</time>
      </trkpt>
      <trkpt lat="40.4926430" lon="-4.0501400">
        <ele>809.6</ele>
        <time>2021-05-08T11:28:33Z</time>
      </trkpt>
      <trkpt lat="40.4925020" lon="-4.0500970">
        <ele>809.5</ele>
        <time>2021-05-08T11:28:35Z</time>
      </trkpt>
      <trkpt lat="40.4924340" lon="-4.0500760">
        <ele>809.4</ele>
        <time>2021-05-08T11:28:36Z</time>
      </trkpt>
      <trkpt lat="40.4923630" lon="-4.0500550">
        <ele>809.4</ele>
        <time>2021-05-08T11:28:37Z</time>
      </trkpt>
      <trkpt lat="40.4922890" lon="-4.0500320">
        <ele>809.4</ele>
        <time>2021-05-08T11:28:38Z</time>
      </trkpt>
      <trkpt lat="40.4921460" lon="-4.0499960">
        <ele>809.4</ele>
        <time>2021-05-08T11:28:40Z</time>
      </trkpt>
      <trkpt lat="40.4920750" lon="-4.0499750">
        <ele>809.4</ele>
        <time>2021-05-08T11:28:41Z</time>
      </trkpt>
      <trkpt lat="40.4919350" lon="-4.0499240">
        <ele>809.5</ele>
        <time>2021-05-08T11:28:43Z</time>
      </trkpt>
      <trkpt lat="40.4918040" lon="-4.0498620">
        <ele>809.6</ele>
        <time>2021-05-08T11:28:45Z</time>
      </trkpt>
      <trkpt lat="40.4916760" lon="-4.0498010">
        <ele>809.8</ele>
        <time>2021-05-08T11:28:47Z</time>
      </trkpt>
      <trkpt lat="40.4916150" lon="-4.0497700">
        <ele>809.9</ele>
        <time>2021-05-08T11:28:48Z</time>
      </trkpt>
      <trkpt lat="40.4915540" lon="-4.0497370">
        <ele>810.0</ele>
        <time>2021-05-08T11:28:49Z</time>
      </trkpt>
      <trkpt lat="40.4914960" lon="-4.0497090">
        <ele>810.1</ele>
        <time>2021-05-08T11:28:50Z</time>
      </trkpt>
      <trkpt lat="40.4913890" lon="-4.0496560">
        <ele>810.2</ele>
        <time>2021-05-08T11:28:52Z</time>
      </trkpt>
      <trkpt lat="40.4913370" lon="-4.0496290">
        <ele>810.2</ele>
        <time>2021-05-08T11:28:53Z</time>
      </trkpt>
      <trkpt lat="40.4912830" lon="-4.0496000">
        <ele>810.2</ele>
        <time>2021-05-08T11:28:54Z</time>
      </trkpt>
      <trkpt lat="40.4911780" lon="-4.0495350">
        <ele>810.2</ele>
        <time>2021-05-08T11:28:56Z</time>
      </trkpt>
      <trkpt lat="40.4910740" lon="-4.0494730">
        <ele>810.2</ele>
        <time>2021-05-08T11:28:58Z</time>
      </trkpt>
      <trkpt lat="40.4909690" lon="-4.0494100">
        <ele>810.2</ele>
        <time>2021-05-08T11:29:00Z</time>
      </trkpt>
      <trkpt lat="40.4908630" lon="-4.0493420">
        <ele>810.2</ele>
        <time>2021-05-08T11:29:02Z</time>
      </trkpt>
      <trkpt lat="40.4908100" lon="-4.0493120">
        <ele>810.2</ele>
        <time>2021-05-08T11:29:03Z</time>
      </trkpt>
      <trkpt lat="40.4906990" lon="-4.0492480">
        <ele>810.2</ele>
        <time>2021-05-08T11:29:05Z</time>
      </trkpt>
      <trkpt lat="40.4905850" lon="-4.0491780">
        <ele>810.2</ele>
        <time>2021-05-08T11:29:07Z</time>
      </trkpt>
      <trkpt lat="40.4905270" lon="-4.0491450">
        <ele>810.2</ele>
        <time>2021-05-08T11:29:08Z</time>
      </trkpt>
      <trkpt lat="40.4904660" lon="-4.0491110">
        <ele>810.1</ele>
        <time>2021-05-08T11:29:09Z</time>
      </trkpt>
      <trkpt lat="40.4903450" lon="-4.0490450">
        <ele>810.1</ele>
        <time>2021-05-08T11:29:11Z</time>
      </trkpt>
      <trkpt lat="40.4902210" lon="-4.0489770">
        <ele>810.1</ele>
        <time>2021-05-08T11:29:13Z</time>
      </trkpt>
      <trkpt lat="40.4901600" lon="-4.0489430">
        <ele>810.1</ele>
        <time>2021-05-08T11:29:14Z</time>
      </trkpt>
      <trkpt lat="40.4900980" lon="-4.0489100">
        <ele>810.0</ele>
        <time>2021-05-08T11:29:15Z</time>
      </trkpt>
      <trkpt lat="40.4899750" lon="-4.0488400">
        <ele>809.9</ele>
        <time>2021-05-08T11:29:17Z</time>
      </trkpt>
      <trkpt lat="40.4899110" lon="-4.0488030">
        <ele>809.9</ele>
        <time>2021-05-08T11:29:18Z</time>
      </trkpt>
      <trkpt lat="40.4897810" lon="-4.0487240">
        <ele>809.7</ele>
        <time>2021-05-08T11:29:20Z</time>
      </trkpt>
      <trkpt lat="40.4897150" lon="-4.0486890">
        <ele>809.7</ele>
        <time>2021-05-08T11:29:21Z</time>
      </trkpt>
      <trkpt lat="40.4896490" lon="-4.0486520">
        <ele>809.6</ele>
        <time>2021-05-08T11:29:22Z</time>
      </trkpt>
      <trkpt lat="40.4895840" lon="-4.0486160">
        <ele>809.5</ele>
        <time>2021-05-08T11:29:23Z</time>
      </trkpt>
      <trkpt lat="40.4894550" lon="-4.0485390">
        <ele>809.3</ele>
        <time>2021-05-08T11:29:25Z</time>
      </trkpt>
      <trkpt lat="40.4893220" lon="-4.0484550">
        <ele>809.2</ele>
        <time>2021-05-08T11:29:27Z</time>
      </trkpt>
      <trkpt lat="40.4891880" lon="-4.0483730">
        <ele>809.0</ele>
        <time>2021-05-08T11:29:29Z</time>
      </trkpt>
      <trkpt lat="40.4891210" lon="-4.0483310">
        <ele>809.0</ele>
        <time>2021-05-08T11:29:30Z</time>
      </trkpt>
      <trkpt lat="40.4890550" lon="-4.0482900">
        <ele>808.9</ele>
        <time>2021-05-08T11:29:31Z</time>
      </trkpt>
      <trkpt lat="40.4889200" lon="-4.0482070">
        <ele>808.8</ele>
        <time>2021-05-08T11:29:33Z</time>
      </trkpt>
      <trkpt lat="40.4888510" lon="-4.0481660">
        <ele>808.7</ele>
        <time>2021-05-08T11:29:34Z</time>
      </trkpt>
      <trkpt lat="40.4887150" lon="-4.0480880">
        <ele>808.5</ele>
        <time>2021-05-08T11:29:36Z</time>
      </trkpt>
      <trkpt lat="40.4885760" lon="-4.0480010">
        <ele>808.3</ele>
        <time>2021-05-08T11:29:38Z</time>
      </trkpt>
      <trkpt lat="40.4884300" lon="-4.0479070">
        <ele>808.0</ele>
        <time>2021-05-08T11:29:40Z</time>
      </trkpt>
      <trkpt lat="40.4882870" lon="-4.0478110">
        <ele>807.7</ele>
        <time>2021-05-08T11:29:42Z</time>
      </trkpt>
      <trkpt lat="40.4882150" lon="-4.0477550">
        <ele>807.6</ele>
        <time>2021-05-08T11:29:43Z</time>
      </trkpt>
      <trkpt lat="40.4881330" lon="-4.0476860">
        <ele>807.6</ele>
        <time>2021-05-08T11:29:44Z</time>
      </trkpt>
      <trkpt lat="40.4880040" lon="-4.0475750">
        <ele>807.4</ele>
        <time>2021-05-08T11:29:46Z</time>
      </trkpt>
      <trkpt lat="40.4879360" lon="-4.0475110">
        <ele>807.3</ele>
        <time>2021-05-08T11:29:47Z</time>
      </trkpt>
      <trkpt lat="40.4878720" lon="-4.0474440">
        <ele>807.1</ele>
        <time>2021-05-08T11:29:48Z</time>
      </trkpt>
      <trkpt lat="40.4878100" lon="-4.0473730">
        <ele>807.0</ele>
        <time>2021-05-08T11:29:49Z</time>
      </trkpt>
      <trkpt lat="40.4876940" lon="-4.0472290">
        <ele>806.6</ele>
        <time>2021-05-08T11:29:51Z</time>
      </trkpt>
      <trkpt lat="40.4875910" lon="-4.0470770">
        <ele>806.2</ele>
        <time>2021-05-08T11:29:53Z</time>
      </trkpt>
      <trkpt lat="40.4875420" lon="-4.0469930">
        <ele>805.9</ele>
        <time>2021-05-08T11:29:54Z</time>
      </trkpt>
      <trkpt lat="40.4874500" lon="-4.0468170">
        <ele>805.3</ele>
        <time>2021-05-08T11:29:56Z</time>
      </trkpt>
      <trkpt lat="40.4873650" lon="-4.0466330">
        <ele>804.5</ele>
        <time>2021-05-08T11:29:58Z</time>
      </trkpt>
      <trkpt lat="40.4873230" lon="-4.0465370">
        <ele>804.1</ele>
        <time>2021-05-08T11:29:59Z</time>
      </trkpt>
      <trkpt lat="40.4872800" lon="-4.0464350">
        <ele>803.5</ele>
        <time>2021-05-08T11:30:00Z</time>
      </trkpt>
      <trkpt lat="40.4871990" lon="-4.0462170">
        <ele>802.6</ele>
        <time>2021-05-08T11:30:02Z</time>
      </trkpt>
      <trkpt lat="40.4871580" lon="-4.0461010">
        <ele>802.1</ele>
        <time>2021-05-08T11:30:03Z</time>
      </trkpt>
      <trkpt lat="40.4870740" lon="-4.0458550">
        <ele>801.3</ele>
        <time>2021-05-08T11:30:05Z</time>
      </trkpt>
      <trkpt lat="40.4870300" lon="-4.0457300">
        <ele>800.9</ele>
        <time>2021-05-08T11:30:06Z</time>
      </trkpt>
      <trkpt lat="40.4869850" lon="-4.0456080">
        <ele>800.6</ele>
        <time>2021-05-08T11:30:07Z</time>
      </trkpt>
      <trkpt lat="40.4868970" lon="-4.0453770">
        <ele>800.1</ele>
        <time>2021-05-08T11:30:09Z</time>
      </trkpt>
      <trkpt lat="40.4868140" lon="-4.0451470">
        <ele>799.6</ele>
        <time>2021-05-08T11:30:11Z</time>
      </trkpt>
      <trkpt lat="40.4867350" lon="-4.0449180">
        <ele>799.0</ele>
        <time>2021-05-08T11:30:13Z</time>
      </trkpt>
      <trkpt lat="40.4866630" lon="-4.0446880">
        <ele>798.5</ele>
        <time>2021-05-08T11:30:15Z</time>
      </trkpt>
      <trkpt lat="40.4865920" lon="-4.0444610">
        <ele>798.0</ele>
        <time>2021-05-08T11:30:17Z</time>
      </trkpt>
      <trkpt lat="40.4865540" lon="-4.0443450">
        <ele>797.7</ele>
        <time>2021-05-08T11:30:18Z</time>
      </trkpt>
      <trkpt lat="40.4864800" lon="-4.0441180">
        <ele>797.0</ele>
        <time>2021-05-08T11:30:20Z</time>
      </trkpt>
      <trkpt lat="40.4864050" lon="-4.0438900">
        <ele>796.3</ele>
        <time>2021-05-08T11:30:22Z</time>
      </trkpt>
      <trkpt lat="40.4863670" lon="-4.0437740">
        <ele>796.0</ele>
        <time>2021-05-08T11:30:23Z</time>
      </trkpt>
      <trkpt lat="40.4862880" lon="-4.0435350">
        <ele>795.0</ele>
        <time>2021-05-08T11:30:25Z</time>
      </trkpt>
      <trkpt lat="40.4862070" lon="-4.0432910">
        <ele>794.1</ele>
        <time>2021-05-08T11:30:27Z</time>
      </trkpt>
      <trkpt lat="40.4861240" lon="-4.0430490">
        <ele>793.2</ele>
        <time>2021-05-08T11:30:29Z</time>
      </trkpt>
      <trkpt lat="40.4860820" lon="-4.0429280">
        <ele>792.7</ele>
        <time>2021-05-08T11:30:30Z</time>
      </trkpt>
      <trkpt lat="40.4860330" lon="-4.0428070">
        <ele>792.2</ele>
        <time>2021-05-08T11:30:31Z</time>
      </trkpt>
      <trkpt lat="40.4859240" lon="-4.0425750">
        <ele>791.1</ele>
        <time>2021-05-08T11:30:33Z</time>
      </trkpt>
      <trkpt lat="40.4857970" lon="-4.0423600">
        <ele>789.8</ele>
        <time>2021-05-08T11:30:35Z</time>
      </trkpt>
      <trkpt lat="40.4856400" lon="-4.0421680">
        <ele>788.4</ele>
        <time>2021-05-08T11:30:37Z</time>
      </trkpt>
      <trkpt lat="40.4854530" lon="-4.0420090">
        <ele>786.9</ele>
        <time>2021-05-08T11:30:39Z</time>
      </trkpt>
      <trkpt lat="40.4852470" lon="-4.0418760">
        <ele>785.1</ele>
        <time>2021-05-08T11:30:41Z</time>
      </trkpt>
      <trkpt lat="40.4851360" lon="-4.0418280">
        <ele>784.2</ele>
        <time>2021-05-08T11:30:42Z</time>
      </trkpt>
      <trkpt lat="40.4849010" lon="-4.0417740">
        <ele>782.3</ele>
        <time>2021-05-08T11:30:44Z</time>
      </trkpt>
      <trkpt lat="40.4846650" lon="-4.0417670">
        <ele>780.7</ele>
        <time>2021-05-08T11:30:46Z</time>
      </trkpt>
      <trkpt lat="40.4845480" lon="-4.0417810">
        <ele>779.9</ele>
        <time>2021-05-08T11:30:47Z</time>
      </trkpt>
      <trkpt lat="40.4843080" lon="-4.0418370">
        <ele>778.1</ele>
        <time>2021-05-08T11:30:49Z</time>
      </trkpt>
      <trkpt lat="40.4841870" lon="-4.0418740">
        <ele>777.1</ele>
        <time>2021-05-08T11:30:50Z</time>
      </trkpt>
      <trkpt lat="40.4839400" lon="-4.0419520">
        <ele>775.3</ele>
        <time>2021-05-08T11:30:52Z</time>
      </trkpt>
      <trkpt lat="40.4836900" lon="-4.0420180">
        <ele>773.5</ele>
        <time>2021-05-08T11:30:54Z</time>
      </trkpt>
      <trkpt lat="40.4835610" lon="-4.0420390">
        <ele>772.5</ele>
        <time>2021-05-08T11:30:55Z</time>
      </trkpt>
      <trkpt lat="40.4834320" lon="-4.0420440">
        <ele>771.5</ele>
        <time>2021-05-08T11:30:56Z</time>
      </trkpt>
      <trkpt lat="40.4831730" lon="-4.0420190">
        <ele>769.5</ele>
        <time>2021-05-08T11:30:58Z</time>
      </trkpt>
      <trkpt lat="40.4829040" lon="-4.0419470">
        <ele>767.5</ele>
        <time>2021-05-08T11:31:00Z</time>
      </trkpt>
      <trkpt lat="40.4827710" lon="-4.0418870">
        <ele>766.5</ele>
        <time>2021-05-08T11:31:01Z</time>
      </trkpt>
      <trkpt lat="40.4825170" lon="-4.0417030">
        <ele>764.3</ele>
        <time>2021-05-08T11:31:03Z</time>
      </trkpt>
      <trkpt lat="40.4823880" lon="-4.0415660">
        <ele>763.0</ele>
        <time>2021-05-08T11:31:04Z</time>
      </trkpt>
      <trkpt lat="40.4822110" lon="-4.0413220">
        <ele>761.1</ele>
        <time>2021-05-08T11:31:06Z</time>
      </trkpt>
      <trkpt lat="40.4821260" lon="-4.0411650">
        <ele>760.0</ele>
        <time>2021-05-08T11:31:07Z</time>
      </trkpt>
      <trkpt lat="40.4819890" lon="-4.0408190">
        <ele>757.8</ele>
        <time>2021-05-08T11:31:09Z</time>
      </trkpt>
      <trkpt lat="40.4818840" lon="-4.0404580">
        <ele>755.8</ele>
        <time>2021-05-08T11:31:11Z</time>
      </trkpt>
      <trkpt lat="40.4818050" lon="-4.0400970">
        <ele>753.9</ele>
        <time>2021-05-08T11:31:13Z</time>
      </trkpt>
      <trkpt lat="40.4817160" lon="-4.0397360">
        <ele>751.8</ele>
        <time>2021-05-08T11:31:15Z</time>
      </trkpt>
      <trkpt lat="40.4816600" lon="-4.0395560">
        <ele>750.7</ele>
        <time>2021-05-08T11:31:16Z</time>
      </trkpt>
      <trkpt lat="40.4815900" lon="-4.0393840">
        <ele>749.6</ele>
        <time>2021-05-08T11:31:17Z</time>
      </trkpt>
      <trkpt lat="40.4814130" lon="-4.0390630">
        <ele>747.3</ele>
        <time>2021-05-08T11:31:19Z</time>
      </trkpt>
      <trkpt lat="40.4811990" lon="-4.0387890">
        <ele>745.1</ele>
        <time>2021-05-08T11:31:21Z</time>
      </trkpt>
      <trkpt lat="40.4809710" lon="-4.0385540">
        <ele>743.2</ele>
        <time>2021-05-08T11:31:23Z</time>
      </trkpt>
      <trkpt lat="40.4807520" lon="-4.0383100">
        <ele>741.4</ele>
        <time>2021-05-08T11:31:25Z</time>
      </trkpt>
      <trkpt lat="40.4806510" lon="-4.0381710">
        <ele>740.4</ele>
        <time>2021-05-08T11:31:26Z</time>
      </trkpt>
      <trkpt lat="40.4804880" lon="-4.0378650">
        <ele>738.3</ele>
        <time>2021-05-08T11:31:28Z</time>
      </trkpt>
      <trkpt lat="40.4804210" lon="-4.0376950">
        <ele>737.1</ele>
        <time>2021-05-08T11:31:29Z</time>
      </trkpt>
      <trkpt lat="40.4803190" lon="-4.0373330">
        <ele>735.0</ele>
        <time>2021-05-08T11:31:31Z</time>
      </trkpt>
      <trkpt lat="40.4802310" lon="-4.0369680">
        <ele>732.9</ele>
        <time>2021-05-08T11:31:33Z</time>
      </trkpt>
      <trkpt lat="40.4801810" lon="-4.0367940">
        <ele>732.0</ele>
        <time>2021-05-08T11:31:34Z</time>
      </trkpt>
      <trkpt lat="40.4801260" lon="-4.0366220">
        <ele>731.1</ele>
        <time>2021-05-08T11:31:35Z</time>
      </trkpt>
      <trkpt lat="40.4800650" lon="-4.0364510">
        <ele>730.2</ele>
        <time>2021-05-08T11:31:36Z</time>
      </trkpt>
      <trkpt lat="40.4799180" lon="-4.0361110">
        <ele>728.1</ele>
        <time>2021-05-08T11:31:38Z</time>
      </trkpt>
      <trkpt lat="40.4798350" lon="-4.0359490">
        <ele>726.9</ele>
        <time>2021-05-08T11:31:39Z</time>
      </trkpt>
      <trkpt lat="40.4796470" lon="-4.0356490">
        <ele>724.7</ele>
        <time>2021-05-08T11:31:41Z</time>
      </trkpt>
      <trkpt lat="40.4794550" lon="-4.0353620">
        <ele>722.6</ele>
        <time>2021-05-08T11:31:43Z</time>
      </trkpt>
      <trkpt lat="40.4793620" lon="-4.0352190">
        <ele>721.6</ele>
        <time>2021-05-08T11:31:44Z</time>
      </trkpt>
      <trkpt lat="40.4791650" lon="-4.0349240">
        <ele>719.5</ele>
        <time>2021-05-08T11:31:46Z</time>
      </trkpt>
      <trkpt lat="40.4789640" lon="-4.0346420">
        <ele>717.3</ele>
        <time>2021-05-08T11:31:48Z</time>
      </trkpt>
      <trkpt lat="40.4788600" lon="-4.0345060">
        <ele>716.0</ele>
        <time>2021-05-08T11:31:49Z</time>
      </trkpt>
      <trkpt lat="40.4787520" lon="-4.0343680">
        <ele>714.9</ele>
        <time>2021-05-08T11:31:50Z</time>
      </trkpt>
      <trkpt lat="40.4785270" lon="-4.0341100">
        <ele>712.9</ele>
        <time>2021-05-08T11:31:52Z</time>
      </trkpt>
      <trkpt lat="40.4782870" lon="-4.0338860">
        <ele>711.0</ele>
        <time>2021-05-08T11:31:54Z</time>
      </trkpt>
      <trkpt lat="40.4780510" lon="-4.0336680">
        <ele>709.1</ele>
        <time>2021-05-08T11:31:56Z</time>
      </trkpt>
      <trkpt lat="40.4779360" lon="-4.0335490">
        <ele>708.0</ele>
        <time>2021-05-08T11:31:57Z</time>
      </trkpt>
      <trkpt lat="40.4777380" lon="-4.0332790">
        <ele>706.1</ele>
        <time>2021-05-08T11:31:59Z</time>
      </trkpt>
      <trkpt lat="40.4775900" lon="-4.0329590">
        <ele>704.2</ele>
        <time>2021-05-08T11:32:01Z</time>
      </trkpt>
      <trkpt lat="40.4774920" lon="-4.0326060">
        <ele>702.3</ele>
        <time>2021-05-08T11:32:03Z</time>
      </trkpt>
      <trkpt lat="40.4774580" lon="-4.0324010">
        <ele>701.1</ele>
        <time>2021-05-08T11:32:04Z</time>
      </trkpt>
      <trkpt lat="40.4774560" lon="-4.0320680">
        <ele>699.2</ele>
        <time>2021-05-08T11:32:06Z</time>
      </trkpt>
      <trkpt lat="40.4774910" lon="-4.0316930">
        <ele>697.0</ele>
        <time>2021-05-08T11:32:08Z</time>
      </trkpt>
      <trkpt lat="40.4775460" lon="-4.0313240">
        <ele>694.9</ele>
        <time>2021-05-08T11:32:10Z</time>
      </trkpt>
      <trkpt lat="40.4775750" lon="-4.0311400">
        <ele>693.9</ele>
        <time>2021-05-08T11:32:11Z</time>
      </trkpt>
      <trkpt lat="40.4776020" lon="-4.0309560">
        <ele>692.8</ele>
        <time>2021-05-08T11:32:12Z</time>
      </trkpt>
      <trkpt lat="40.4776270" lon="-4.0307730">
        <ele>691.7</ele>
        <time>2021-05-08T11:32:13Z</time>
      </trkpt>
      <trkpt lat="40.4776450" lon="-4.0305870">
        <ele>690.7</ele>
        <time>2021-05-08T11:32:14Z</time>
      </trkpt>
      <trkpt lat="40.4776640" lon="-4.0302140">
        <ele>688.7</ele>
        <time>2021-05-08T11:32:16Z</time>
      </trkpt>
      <trkpt lat="40.4776500" lon="-4.0298380">
        <ele>686.8</ele>
        <time>2021-05-08T11:32:18Z</time>
      </trkpt>
      <trkpt lat="40.4776170" lon="-4.0294680">
        <ele>684.9</ele>
        <time>2021-05-08T11:32:20Z</time>
      </trkpt>
      <trkpt lat="40.4776010" lon="-4.0292810">
        <ele>683.9</ele>
        <time>2021-05-08T11:32:21Z</time>
      </trkpt>
      <trkpt lat="40.4775770" lon="-4.0288970">
        <ele>681.9</ele>
        <time>2021-05-08T11:32:23Z</time>
      </trkpt>
      <trkpt lat="40.4775700" lon="-4.0285100">
        <ele>679.7</ele>
        <time>2021-05-08T11:32:25Z</time>
      </trkpt>
      <trkpt lat="40.4775780" lon="-4.0283180">
        <ele>678.7</ele>
        <time>2021-05-08T11:32:26Z</time>
      </trkpt>
      <trkpt lat="40.4775950" lon="-4.0281180">
        <ele>677.7</ele>
        <time>2021-05-08T11:32:27Z</time>
      </trkpt>
      <trkpt lat="40.4776150" lon="-4.0279170">
        <ele>676.7</ele>
        <time>2021-05-08T11:32:28Z</time>
      </trkpt>
      <trkpt lat="40.4776680" lon="-4.0275240">
        <ele>675.1</ele>
        <time>2021-05-08T11:32:30Z</time>
      </trkpt>
      <trkpt lat="40.4776960" lon="-4.0273310">
        <ele>674.3</ele>
        <time>2021-05-08T11:32:31Z</time>
      </trkpt>
      <trkpt lat="40.4777500" lon="-4.0269520">
        <ele>672.9</ele>
        <time>2021-05-08T11:32:33Z</time>
      </trkpt>
      <trkpt lat="40.4777960" lon="-4.0265920">
        <ele>671.8</ele>
        <time>2021-05-08T11:32:35Z</time>
      </trkpt>
      <trkpt lat="40.4778130" lon="-4.0264190">
        <ele>671.4</ele>
        <time>2021-05-08T11:32:36Z</time>
      </trkpt>
      <trkpt lat="40.4778280" lon="-4.0262450">
        <ele>670.9</ele>
        <time>2021-05-08T11:32:37Z</time>
      </trkpt>
      <trkpt lat="40.4778440" lon="-4.0259070">
        <ele>670.1</ele>
        <time>2021-05-08T11:32:39Z</time>
      </trkpt>
      <trkpt lat="40.4778460" lon="-4.0257420">
        <ele>669.7</ele>
        <time>2021-05-08T11:32:40Z</time>
      </trkpt>
      <trkpt lat="40.4778480" lon="-4.0254180">
        <ele>669.1</ele>
        <time>2021-05-08T11:32:42Z</time>
      </trkpt>
      <trkpt lat="40.4778470" lon="-4.0252600">
        <ele>668.8</ele>
        <time>2021-05-08T11:32:43Z</time>
      </trkpt>
      <trkpt lat="40.4778300" lon="-4.0249680">
        <ele>668.4</ele>
        <time>2021-05-08T11:32:45Z</time>
      </trkpt>
      <trkpt lat="40.4777960" lon="-4.0246710">
        <ele>668.0</ele>
        <time>2021-05-08T11:32:47Z</time>
      </trkpt>
      <trkpt lat="40.4777790" lon="-4.0245240">
        <ele>667.8</ele>
        <time>2021-05-08T11:32:48Z</time>
      </trkpt>
      <trkpt lat="40.4777460" lon="-4.0242420">
        <ele>667.5</ele>
        <time>2021-05-08T11:32:50Z</time>
      </trkpt>
      <trkpt lat="40.4777020" lon="-4.0239680">
        <ele>667.1</ele>
        <time>2021-05-08T11:32:52Z</time>
      </trkpt>
      <trkpt lat="40.4776530" lon="-4.0237080">
        <ele>666.7</ele>
        <time>2021-05-08T11:32:54Z</time>
      </trkpt>
      <trkpt lat="40.4775970" lon="-4.0234500">
        <ele>666.4</ele>
        <time>2021-05-08T11:32:56Z</time>
      </trkpt>
      <trkpt lat="40.4775660" lon="-4.0233200">
        <ele>666.2</ele>
        <time>2021-05-08T11:32:57Z</time>
      </trkpt>
      <trkpt lat="40.4775330" lon="-4.0231970">
        <ele>666.1</ele>
        <time>2021-05-08T11:32:58Z</time>
      </trkpt>
      <trkpt lat="40.4774670" lon="-4.0229590">
        <ele>665.8</ele>
        <time>2021-05-08T11:33:00Z</time>
      </trkpt>
      <trkpt lat="40.4773940" lon="-4.0227390">
        <ele>665.6</ele>
        <time>2021-05-08T11:33:02Z</time>
      </trkpt>
      <trkpt lat="40.4773580" lon="-4.0226290">
        <ele>665.5</ele>
        <time>2021-05-08T11:33:03Z</time>
      </trkpt>
      <trkpt lat="40.4772890" lon="-4.0224200">
        <ele>665.4</ele>
        <time>2021-05-08T11:33:05Z</time>
      </trkpt>
      <trkpt lat="40.4772570" lon="-4.0223240">
        <ele>665.3</ele>
        <time>2021-05-08T11:33:06Z</time>
      </trkpt>
      <trkpt lat="40.4772200" lon="-4.0222270">
        <ele>665.3</ele>
        <time>2021-05-08T11:33:07Z</time>
      </trkpt>
      <trkpt lat="40.4771470" lon="-4.0220440">
        <ele>665.3</ele>
        <time>2021-05-08T11:33:09Z</time>
      </trkpt>
      <trkpt lat="40.4770800" lon="-4.0218770">
        <ele>665.2</ele>
        <time>2021-05-08T11:33:11Z</time>
      </trkpt>
      <trkpt lat="40.4770450" lon="-4.0217950">
        <ele>665.3</ele>
        <time>2021-05-08T11:33:12Z</time>
      </trkpt>
      <trkpt lat="40.4769760" lon="-4.0216400">
        <ele>665.3</ele>
        <time>2021-05-08T11:33:14Z</time>
      </trkpt>
      <trkpt lat="40.4769410" lon="-4.0215680">
        <ele>665.4</ele>
        <time>2021-05-08T11:33:15Z</time>
      </trkpt>
      <trkpt lat="40.4769070" lon="-4.0214990">
        <ele>665.4</ele>
        <time>2021-05-08T11:33:16Z</time>
      </trkpt>
      <trkpt lat="40.4768370" lon="-4.0213610">
        <ele>665.6</ele>
        <time>2021-05-08T11:33:18Z</time>
      </trkpt>
      <trkpt lat="40.4768020" lon="-4.0212960">
        <ele>665.7</ele>
        <time>2021-05-08T11:33:19Z</time>
      </trkpt>
      <trkpt lat="40.4767290" lon="-4.0211660">
        <ele>665.9</ele>
        <time>2021-05-08T11:33:21Z</time>
      </trkpt>
      <trkpt lat="40.4766910" lon="-4.0211050">
        <ele>666.0</ele>
        <time>2021-05-08T11:33:22Z</time>
      </trkpt>
      <trkpt lat="40.4766530" lon="-4.0210440">
        <ele>666.1</ele>
        <time>2021-05-08T11:33:23Z</time>
      </trkpt>
      <trkpt lat="40.4765790" lon="-4.0209210">
        <ele>666.2</ele>
        <time>2021-05-08T11:33:25Z</time>
      </trkpt>
      <trkpt lat="40.4765400" lon="-4.0208630">
        <ele>666.3</ele>
        <time>2021-05-08T11:33:26Z</time>
      </trkpt>
      <trkpt lat="40.4764630" lon="-4.0207440">
        <ele>666.3</ele>
        <time>2021-05-08T11:33:28Z</time>
      </trkpt>
      <trkpt lat="40.4763880" lon="-4.0206310">
        <ele>666.4</ele>
        <time>2021-05-08T11:33:30Z</time>
      </trkpt>
      <trkpt lat="40.4763070" lon="-4.0205120">
        <ele>666.3</ele>
        <time>2021-05-08T11:33:32Z</time>
      </trkpt>
      <trkpt lat="40.4762650" lon="-4.0204520">
        <ele>666.3</ele>
        <time>2021-05-08T11:33:33Z</time>
      </trkpt>
      <trkpt lat="40.4762230" lon="-4.0203910">
        <ele>666.2</ele>
        <time>2021-05-08T11:33:34Z</time>
      </trkpt>
      <trkpt lat="40.4761340" lon="-4.0202700">
        <ele>666.0</ele>
        <time>2021-05-08T11:33:36Z</time>
      </trkpt>
      <trkpt lat="40.4760900" lon="-4.0202090">
        <ele>665.9</ele>
        <time>2021-05-08T11:33:37Z</time>
      </trkpt>
      <trkpt lat="40.4760440" lon="-4.0201450">
        <ele>665.8</ele>
        <time>2021-05-08T11:33:38Z</time>
      </trkpt>
      <trkpt lat="40.4759520" lon="-4.0200130">
        <ele>665.6</ele>
        <time>2021-05-08T11:33:40Z</time>
      </trkpt>
      <trkpt lat="40.4759040" lon="-4.0199480">
        <ele>665.4</ele>
        <time>2021-05-08T11:33:41Z</time>
      </trkpt>
      <trkpt lat="40.4758040" lon="-4.0198250">
        <ele>665.1</ele>
        <time>2021-05-08T11:33:43Z</time>
      </trkpt>
      <trkpt lat="40.4757040" lon="-4.0196980">
        <ele>664.7</ele>
        <time>2021-05-08T11:33:45Z</time>
      </trkpt>
      <trkpt lat="40.4756050" lon="-4.0195660">
        <ele>664.3</ele>
        <time>2021-05-08T11:33:47Z</time>
      </trkpt>
      <trkpt lat="40.4755540" lon="-4.0195000">
        <ele>664.1</ele>
        <time>2021-05-08T11:33:48Z</time>
      </trkpt>
      <trkpt lat="40.4754450" lon="-4.0193680">
        <ele>663.6</ele>
        <time>2021-05-08T11:33:50Z</time>
      </trkpt>
      <trkpt lat="40.4753880" lon="-4.0193020">
        <ele>663.4</ele>
        <time>2021-05-08T11:33:51Z</time>
      </trkpt>
      <trkpt lat="40.4753340" lon="-4.0192360">
        <ele>663.1</ele>
        <time>2021-05-08T11:33:52Z</time>
      </trkpt>
      <trkpt lat="40.4752230" lon="-4.0191050">
        <ele>662.6</ele>
        <time>2021-05-08T11:33:54Z</time>
      </trkpt>
      <trkpt lat="40.4751130" lon="-4.0189700">
        <ele>662.2</ele>
        <time>2021-05-08T11:33:56Z</time>
      </trkpt>
      <trkpt lat="40.4750610" lon="-4.0189080">
        <ele>662.0</ele>
        <time>2021-05-08T11:33:57Z</time>
      </trkpt>
      <trkpt lat="40.4749550" lon="-4.0187830">
        <ele>661.5</ele>
        <time>2021-05-08T11:33:58Z</time>
      </trkpt>
      <trkpt lat="40.4749020" lon="-4.0187220">
        <ele>661.4</ele>
        <time>2021-05-08T11:34:00Z</time>
      </trkpt>
      <trkpt lat="40.4748000" lon="-4.0186060">
        <ele>661.1</ele>
        <time>2021-05-08T11:34:02Z</time>
      </trkpt>
      <trkpt lat="40.4747460" lon="-4.0185500">
        <ele>660.9</ele>
        <time>2021-05-08T11:34:03Z</time>
      </trkpt>
      <trkpt lat="40.4746940" lon="-4.0184930">
        <ele>660.8</ele>
        <time>2021-05-08T11:34:04Z</time>
      </trkpt>
      <trkpt lat="40.4746410" lon="-4.0184390">
        <ele>660.7</ele>
        <time>2021-05-08T11:34:05Z</time>
      </trkpt>
      <trkpt lat="40.4745400" lon="-4.0183300">
        <ele>660.5</ele>
        <time>2021-05-08T11:34:07Z</time>
      </trkpt>
      <trkpt lat="40.4744370" lon="-4.0182300">
        <ele>660.4</ele>
        <time>2021-05-08T11:34:09Z</time>
      </trkpt>
      <trkpt lat="40.4743330" lon="-4.0181260">
        <ele>660.3</ele>
        <time>2021-05-08T11:34:11Z</time>
      </trkpt>
      <trkpt lat="40.4742810" lon="-4.0180730">
        <ele>660.2</ele>
        <time>2021-05-08T11:34:12Z</time>
      </trkpt>
      <trkpt lat="40.4741770" lon="-4.0179750">
        <ele>660.1</ele>
        <time>2021-05-08T11:34:14Z</time>
      </trkpt>
      <trkpt lat="40.4741250" lon="-4.0179290">
        <ele>660.1</ele>
        <time>2021-05-08T11:34:15Z</time>
      </trkpt>
      <trkpt lat="40.4740230" lon="-4.0178350">
        <ele>660.1</ele>
        <time>2021-05-08T11:34:17Z</time>
      </trkpt>
      <trkpt lat="40.4739740" lon="-4.0177870">
        <ele>660.1</ele>
        <time>2021-05-08T11:34:18Z</time>
      </trkpt>
      <trkpt lat="40.4738680" lon="-4.0176840">
        <ele>660.0</ele>
        <time>2021-05-08T11:34:20Z</time>
      </trkpt>
      <trkpt lat="40.4737760" lon="-4.0176050">
        <ele>660.1</ele>
        <time>2021-05-08T11:34:22Z</time>
      </trkpt>
      <trkpt lat="40.4737250" lon="-4.0175640">
        <ele>660.2</ele>
        <time>2021-05-08T11:34:23Z</time>
      </trkpt>
      <trkpt lat="40.4736250" lon="-4.0174810">
        <ele>660.4</ele>
        <time>2021-05-08T11:34:25Z</time>
      </trkpt>
      <trkpt lat="40.4735800" lon="-4.0174450">
        <ele>660.6</ele>
        <time>2021-05-08T11:34:26Z</time>
      </trkpt>
      <trkpt lat="40.4734930" lon="-4.0173710">
        <ele>660.9</ele>
        <time>2021-05-08T11:34:28Z</time>
      </trkpt>
      <trkpt lat="40.4734100" lon="-4.0173030">
        <ele>661.2</ele>
        <time>2021-05-08T11:34:30Z</time>
      </trkpt>
      <trkpt lat="40.4733740" lon="-4.0172710">
        <ele>661.3</ele>
        <time>2021-05-08T11:34:31Z</time>
      </trkpt>
      <trkpt lat="40.4733100" lon="-4.0172190">
        <ele>661.5</ele>
        <time>2021-05-08T11:34:33Z</time>
      </trkpt>
      <trkpt lat="40.4732410" lon="-4.0171730">
        <ele>661.8</ele>
        <time>2021-05-08T11:34:35Z</time>
      </trkpt>
      <trkpt lat="40.4732050" lon="-4.0171470">
        <ele>661.9</ele>
        <time>2021-05-08T11:34:36Z</time>
      </trkpt>
      <trkpt lat="40.4731280" lon="-4.0170900">
        <ele>662.2</ele>
        <time>2021-05-08T11:34:38Z</time>
      </trkpt>
      <trkpt lat="40.4730590" lon="-4.0170310">
        <ele>662.4</ele>
        <time>2021-05-08T11:34:40Z</time>
      </trkpt>
      <trkpt lat="40.4730200" lon="-4.0169980">
        <ele>662.6</ele>
        <time>2021-05-08T11:34:41Z</time>
      </trkpt>
      <trkpt lat="40.4729830" lon="-4.0169690">
        <ele>662.7</ele>
        <time>2021-05-08T11:34:42Z</time>
      </trkpt>
      <trkpt lat="40.4729280" lon="-4.0169290">
        <ele>662.9</ele>
        <time>2021-05-08T11:34:44Z</time>
      </trkpt>
      <trkpt lat="40.4728720" lon="-4.0168860">
        <ele>663.1</ele>
        <time>2021-05-08T11:34:45Z</time>
      </trkpt>
      <trkpt lat="40.4728340" lon="-4.0168570">
        <ele>663.3</ele>
        <time>2021-05-08T11:34:46Z</time>
      </trkpt>
      <trkpt lat="40.4727720" lon="-4.0168080">
        <ele>663.5</ele>
        <time>2021-05-08T11:34:48Z</time>
      </trkpt>
      <trkpt lat="40.4727400" lon="-4.0167870">
        <ele>663.6</ele>
        <time>2021-05-08T11:34:49Z</time>
      </trkpt>
      <trkpt lat="40.4726860" lon="-4.0167470">
        <ele>663.8</ele>
        <time>2021-05-08T11:34:51Z</time>
      </trkpt>
      <trkpt lat="40.4726590" lon="-4.0167250">
        <ele>663.9</ele>
        <time>2021-05-08T11:34:52Z</time>
      </trkpt>
      <trkpt lat="40.4725970" lon="-4.0166630">
        <ele>664.1</ele>
        <time>2021-05-08T11:34:54Z</time>
      </trkpt>
      <trkpt lat="40.4725690" lon="-4.0166310">
        <ele>664.2</ele>
        <time>2021-05-08T11:34:55Z</time>
      </trkpt>
      <trkpt lat="40.4725100" lon="-4.0165640">
        <ele>664.3</ele>
        <time>2021-05-08T11:34:57Z</time>
      </trkpt>
      <trkpt lat="40.4724800" lon="-4.0165260">
        <ele>664.4</ele>
        <time>2021-05-08T11:34:58Z</time>
      </trkpt>
      <trkpt lat="40.4724510" lon="-4.0164890">
        <ele>664.5</ele>
        <time>2021-05-08T11:34:59Z</time>
      </trkpt>
      <trkpt lat="40.4724250" lon="-4.0164570">
        <ele>664.5</ele>
        <time>2021-05-08T11:35:01Z</time>
      </trkpt>
      <trkpt lat="40.4723780" lon="-4.0163900">
        <ele>664.6</ele>
        <time>2021-05-08T11:35:02Z</time>
      </trkpt>
      <trkpt lat="40.4723510" lon="-4.0163480">
        <ele>664.7</ele>
        <time>2021-05-08T11:35:03Z</time>
      </trkpt>
      <trkpt lat="40.4723060" lon="-4.0162850">
        <ele>664.7</ele>
        <time>2021-05-08T11:35:05Z</time>
      </trkpt>
      <trkpt lat="40.4722750" lon="-4.0162340">
        <ele>664.8</ele>
        <time>2021-05-08T11:35:06Z</time>
      </trkpt>
      <trkpt lat="40.4722260" lon="-4.0161620">
        <ele>664.8</ele>
        <time>2021-05-08T11:35:08Z</time>
      </trkpt>
      <trkpt lat="40.4721940" lon="-4.0161150">
        <ele>664.9</ele>
        <time>2021-05-08T11:35:09Z</time>
      </trkpt>
      <trkpt lat="40.4721350" lon="-4.0160300">
        <ele>664.9</ele>
        <time>2021-05-08T11:35:11Z</time>
      </trkpt>
      <trkpt lat="40.4721110" lon="-4.0159970">
        <ele>665.0</ele>
        <time>2021-05-08T11:35:12Z</time>
      </trkpt>
      <trkpt lat="40.4720500" lon="-4.0159060">
        <ele>665.0</ele>
        <time>2021-05-08T11:35:14Z</time>
      </trkpt>
      <trkpt lat="40.4720320" lon="-4.0158770">
        <ele>665.0</ele>
        <time>2021-05-08T11:35:15Z</time>
      </trkpt>
      <trkpt lat="40.4720060" lon="-4.0158360">
        <ele>665.0</ele>
        <time>2021-05-08T11:35:16Z</time>
      </trkpt>
      <trkpt lat="40.4719510" lon="-4.0157490">
        <ele>665.1</ele>
        <time>2021-05-08T11:35:18Z</time>
      </trkpt>
      <trkpt lat="40.4719170" lon="-4.0157000">
        <ele>665.1</ele>
        <time>2021-05-08T11:35:19Z</time>
      </trkpt>
      <trkpt lat="40.4718420" lon="-4.0155950">
        <ele>665.2</ele>
        <time>2021-05-08T11:35:21Z</time>
      </trkpt>
      <trkpt lat="40.4718000" lon="-4.0155380">
        <ele>665.2</ele>
        <time>2021-05-08T11:35:23Z</time>
      </trkpt>
      <trkpt lat="40.4717670" lon="-4.0155000">
        <ele>665.2</ele>
        <time>2021-05-08T11:35:24Z</time>
      </trkpt>
      <trkpt lat="40.4717360" lon="-4.0154620">
        <ele>665.2</ele>
        <time>2021-05-08T11:35:25Z</time>
      </trkpt>
      <trkpt lat="40.4716910" lon="-4.0154070">
        <ele>665.3</ele>
        <time>2021-05-08T11:35:26Z</time>
      </trkpt>
      <trkpt lat="40.4716560" lon="-4.0153640">
        <ele>665.3</ele>
        <time>2021-05-08T11:35:27Z</time>
      </trkpt>
      <trkpt lat="40.4716200" lon="-4.0153220">
        <ele>665.3</ele>
        <time>2021-05-08T11:35:28Z</time>
      </trkpt>
      <trkpt lat="40.4715800" lon="-4.0152790">
        <ele>665.3</ele>
        <time>2021-05-08T11:35:30Z</time>
      </trkpt>
      <trkpt lat="40.4715300" lon="-4.0152270">
        <ele>665.3</ele>
        <time>2021-05-08T11:35:31Z</time>
      </trkpt>
      <trkpt lat="40.4714830" lon="-4.0151800">
        <ele>665.3</ele>
        <time>2021-05-08T11:35:33Z</time>
      </trkpt>
      <trkpt lat="40.4714500" lon="-4.0151560">
        <ele>665.3</ele>
        <time>2021-05-08T11:35:34Z</time>
      </trkpt>
      <trkpt lat="40.4714140" lon="-4.0151330">
        <ele>665.3</ele>
        <time>2021-05-08T11:35:35Z</time>
      </trkpt>
      <trkpt lat="40.4713300" lon="-4.0151040">
        <ele>665.3</ele>
        <time>2021-05-08T11:35:37Z</time>
      </trkpt>
      <trkpt lat="40.4712440" lon="-4.0150970">
        <ele>665.4</ele>
        <time>2021-05-08T11:35:39Z</time>
      </trkpt>
      <trkpt lat="40.4711670" lon="-4.0151190">
        <ele>665.4</ele>
        <time>2021-05-08T11:35:40Z</time>
      </trkpt>
      <trkpt lat="40.4711210" lon="-4.0151330">
        <ele>665.4</ele>
        <time>2021-05-08T11:35:42Z</time>
      </trkpt>
      <trkpt lat="40.4710700" lon="-4.0151450">
        <ele>665.5</ele>
        <time>2021-05-08T11:35:43Z</time>
      </trkpt>
      <trkpt lat="40.4710220" lon="-4.0151430">
        <ele>665.5</ele>
        <time>2021-05-08T11:35:44Z</time>
      </trkpt>
      <trkpt lat="40.4709660" lon="-4.0151240">
        <ele>665.5</ele>
        <time>2021-05-08T11:35:45Z</time>
      </trkpt>
      <trkpt lat="40.4709160" lon="-4.0151030">
        <ele>665.5</ele>
        <time>2021-05-08T11:35:46Z</time>
      </trkpt>
      <trkpt lat="40.4708680" lon="-4.0150710">
        <ele>665.6</ele>
        <time>2021-05-08T11:35:48Z</time>
      </trkpt>
      <trkpt lat="40.4708170" lon="-4.0150270">
        <ele>665.6</ele>
        <time>2021-05-08T11:35:49Z</time>
      </trkpt>
      <trkpt lat="40.4707570" lon="-4.0149280">
        <ele>665.7</ele>
        <time>2021-05-08T11:35:51Z</time>
      </trkpt>
      <trkpt lat="40.4707170" lon="-4.0147990">
        <ele>665.8</ele>
        <time>2021-05-08T11:35:53Z</time>
      </trkpt>
      <trkpt lat="40.4707060" lon="-4.0146710">
        <ele>665.8</ele>
        <time>2021-05-08T11:35:55Z</time>
      </trkpt>
      <trkpt lat="40.4707050" lon="-4.0146140">
        <ele>665.8</ele>
        <time>2021-05-08T11:35:56Z</time>
      </trkpt>
      <trkpt lat="40.4707110" lon="-4.0145570">
        <ele>665.8</ele>
        <time>2021-05-08T11:35:57Z</time>
      </trkpt>
      <trkpt lat="40.4707320" lon="-4.0144290">
        <ele>665.8</ele>
        <time>2021-05-08T11:35:59Z</time>
      </trkpt>
      <trkpt lat="40.4707760" lon="-4.0143200">
        <ele>665.8</ele>
        <time>2021-05-08T11:36:01Z</time>
      </trkpt>
      <trkpt lat="40.4708060" lon="-4.0142740">
        <ele>665.8</ele>
        <time>2021-05-08T11:36:02Z</time>
      </trkpt>
      <trkpt lat="40.4708790" lon="-4.0141920">
        <ele>665.8</ele>
        <time>2021-05-08T11:36:04Z</time>
      </trkpt>
      <trkpt lat="40.4709130" lon="-4.0141510">
        <ele>665.8</ele>
        <time>2021-05-08T11:36:05Z</time>
      </trkpt>
      <trkpt lat="40.4709670" lon="-4.0140440">
        <ele>665.6</ele>
        <time>2021-05-08T11:36:07Z</time>
      </trkpt>
      <trkpt lat="40.4709960" lon="-4.0139090">
        <ele>665.3</ele>
        <time>2021-05-08T11:36:09Z</time>
      </trkpt>
      <trkpt lat="40.4710060" lon="-4.0137430">
        <ele>664.9</ele>
        <time>2021-05-08T11:36:11Z</time>
      </trkpt>
      <trkpt lat="40.4709880" lon="-4.0135620">
        <ele>664.5</ele>
        <time>2021-05-08T11:36:13Z</time>
      </trkpt>
      <trkpt lat="40.4709750" lon="-4.0134700">
        <ele>664.2</ele>
        <time>2021-05-08T11:36:14Z</time>
      </trkpt>
      <trkpt lat="40.4709500" lon="-4.0132780">
        <ele>663.8</ele>
        <time>2021-05-08T11:36:16Z</time>
      </trkpt>
      <trkpt lat="40.4709330" lon="-4.0131830">
        <ele>663.6</ele>
        <time>2021-05-08T11:36:17Z</time>
      </trkpt>
      <trkpt lat="40.4708920" lon="-4.0129940">
        <ele>663.3</ele>
        <time>2021-05-08T11:36:19Z</time>
      </trkpt>
      <trkpt lat="40.4708460" lon="-4.0128190">
        <ele>663.1</ele>
        <time>2021-05-08T11:36:21Z</time>
      </trkpt>
      <trkpt lat="40.4708210" lon="-4.0127360">
        <ele>662.9</ele>
        <time>2021-05-08T11:36:22Z</time>
      </trkpt>
      <trkpt lat="40.4707940" lon="-4.0126570">
        <ele>662.8</ele>
        <time>2021-05-08T11:36:23Z</time>
      </trkpt>
      <trkpt lat="40.4707660" lon="-4.0125790">
        <ele>662.7</ele>
        <time>2021-05-08T11:36:24Z</time>
      </trkpt>
      <trkpt lat="40.4707060" lon="-4.0124280">
        <ele>662.5</ele>
        <time>2021-05-08T11:36:26Z</time>
      </trkpt>
      <trkpt lat="40.4706460" lon="-4.0122820">
        <ele>662.4</ele>
        <time>2021-05-08T11:36:28Z</time>
      </trkpt>
      <trkpt lat="40.4705900" lon="-4.0121410">
        <ele>662.3</ele>
        <time>2021-05-08T11:36:30Z</time>
      </trkpt>
      <trkpt lat="40.4705630" lon="-4.0120690">
        <ele>662.3</ele>
        <time>2021-05-08T11:36:31Z</time>
      </trkpt>
      <trkpt lat="40.4704990" lon="-4.0119280">
        <ele>662.2</ele>
        <time>2021-05-08T11:36:33Z</time>
      </trkpt>
      <trkpt lat="40.4704660" lon="-4.0118590">
        <ele>662.1</ele>
        <time>2021-05-08T11:36:34Z</time>
      </trkpt>
      <trkpt lat="40.4704020" lon="-4.0117190">
        <ele>662.0</ele>
        <time>2021-05-08T11:36:36Z</time>
      </trkpt>
      <trkpt lat="40.4703400" lon="-4.0115760">
        <ele>661.9</ele>
        <time>2021-05-08T11:36:38Z</time>
      </trkpt>
      <trkpt lat="40.4702780" lon="-4.0114270">
        <ele>661.8</ele>
        <time>2021-05-08T11:36:40Z</time>
      </trkpt>
      <trkpt lat="40.4702470" lon="-4.0113500">
        <ele>661.8</ele>
        <time>2021-05-08T11:36:41Z</time>
      </trkpt>
      <trkpt lat="40.4701860" lon="-4.0111990">
        <ele>661.6</ele>
        <time>2021-05-08T11:36:43Z</time>
      </trkpt>
      <trkpt lat="40.4701280" lon="-4.0110560">
        <ele>661.3</ele>
        <time>2021-05-08T11:36:45Z</time>
      </trkpt>
      <trkpt lat="40.4700660" lon="-4.0109130">
        <ele>661.1</ele>
        <time>2021-05-08T11:36:47Z</time>
      </trkpt>
      <trkpt lat="40.4700000" lon="-4.0107690">
        <ele>660.9</ele>
        <time>2021-05-08T11:36:49Z</time>
      </trkpt>
      <trkpt lat="40.4699320" lon="-4.0106310">
        <ele>660.6</ele>
        <time>2021-05-08T11:36:51Z</time>
      </trkpt>
      <trkpt lat="40.4699010" lon="-4.0105620">
        <ele>660.5</ele>
        <time>2021-05-08T11:36:52Z</time>
      </trkpt>
      <trkpt lat="40.4698420" lon="-4.0104340">
        <ele>660.3</ele>
        <time>2021-05-08T11:36:54Z</time>
      </trkpt>
      <trkpt lat="40.4698120" lon="-4.0103690">
        <ele>660.1</ele>
        <time>2021-05-08T11:36:55Z</time>
      </trkpt>
      <trkpt lat="40.4697540" lon="-4.0102350">
        <ele>659.9</ele>
        <time>2021-05-08T11:36:57Z</time>
      </trkpt>
      <trkpt lat="40.4697280" lon="-4.0101700">
        <ele>659.8</ele>
        <time>2021-05-08T11:36:58Z</time>
      </trkpt>
      <trkpt lat="40.4696740" lon="-4.0100420">
        <ele>659.6</ele>
        <time>2021-05-08T11:37:00Z</time>
      </trkpt>
      <trkpt lat="40.4696480" lon="-4.0099780">
        <ele>659.5</ele>
        <time>2021-05-08T11:37:01Z</time>
      </trkpt>
      <trkpt lat="40.4695880" lon="-4.0098520">
        <ele>659.3</ele>
        <time>2021-05-08T11:37:03Z</time>
      </trkpt>
      <trkpt lat="40.4695600" lon="-4.0097870">
        <ele>659.2</ele>
        <time>2021-05-08T11:37:04Z</time>
      </trkpt>
      <trkpt lat="40.4695060" lon="-4.0096590">
        <ele>659.0</ele>
        <time>2021-05-08T11:37:06Z</time>
      </trkpt>
      <trkpt lat="40.4694760" lon="-4.0095900">
        <ele>658.9</ele>
        <time>2021-05-08T11:37:07Z</time>
      </trkpt>
      <trkpt lat="40.4694440" lon="-4.0095260">
        <ele>658.8</ele>
        <time>2021-05-08T11:37:08Z</time>
      </trkpt>
      <trkpt lat="40.4693810" lon="-4.0094010">
        <ele>658.6</ele>
        <time>2021-05-08T11:37:10Z</time>
      </trkpt>
      <trkpt lat="40.4693210" lon="-4.0092740">
        <ele>658.4</ele>
        <time>2021-05-08T11:37:12Z</time>
      </trkpt>
      <trkpt lat="40.4692900" lon="-4.0092180">
        <ele>658.3</ele>
        <time>2021-05-08T11:37:13Z</time>
      </trkpt>
      <trkpt lat="40.4692540" lon="-4.0091670">
        <ele>658.2</ele>
        <time>2021-05-08T11:37:14Z</time>
      </trkpt>
      <trkpt lat="40.4691750" lon="-4.0090840">
        <ele>658.1</ele>
        <time>2021-05-08T11:37:16Z</time>
      </trkpt>
      <trkpt lat="40.4690880" lon="-4.0090220">
        <ele>657.9</ele>
        <time>2021-05-08T11:37:18Z</time>
      </trkpt>
      <trkpt lat="40.4690430" lon="-4.0090010">
        <ele>657.9</ele>
        <time>2021-05-08T11:37:19Z</time>
      </trkpt>
      <trkpt lat="40.4689660" lon="-4.0089760">
        <ele>657.8</ele>
        <time>2021-05-08T11:37:21Z</time>
      </trkpt>
      <trkpt lat="40.4688860" lon="-4.0089590">
        <ele>657.8</ele>
        <time>2021-05-08T11:37:23Z</time>
      </trkpt>
      <trkpt lat="40.4688400" lon="-4.0089440">
        <ele>657.8</ele>
        <time>2021-05-08T11:37:24Z</time>
      </trkpt>
      <trkpt lat="40.4687620" lon="-4.0089020">
        <ele>657.9</ele>
        <time>2021-05-08T11:37:26Z</time>
      </trkpt>
      <trkpt lat="40.4686780" lon="-4.0088330">
        <ele>658.0</ele>
        <time>2021-05-08T11:37:28Z</time>
      </trkpt>
      <trkpt lat="40.4686470" lon="-4.0088000">
        <ele>658.1</ele>
        <time>2021-05-08T11:37:29Z</time>
      </trkpt>
      <trkpt lat="40.4685920" lon="-4.0087040">
        <ele>658.2</ele>
        <time>2021-05-08T11:37:31Z</time>
      </trkpt>
      <trkpt lat="40.4685470" lon="-4.0085860">
        <ele>658.3</ele>
        <time>2021-05-08T11:37:33Z</time>
      </trkpt>
      <trkpt lat="40.4685290" lon="-4.0084610">
        <ele>658.3</ele>
        <time>2021-05-08T11:37:35Z</time>
      </trkpt>
      <trkpt lat="40.4685280" lon="-4.0083940">
        <ele>658.3</ele>
        <time>2021-05-08T11:37:36Z</time>
      </trkpt>
      <trkpt lat="40.4685470" lon="-4.0082640">
        <ele>658.3</ele>
        <time>2021-05-08T11:37:38Z</time>
      </trkpt>
      <trkpt lat="40.4685790" lon="-4.0081510">
        <ele>658.2</ele>
        <time>2021-05-08T11:37:40Z</time>
      </trkpt>
      <trkpt lat="40.4686340" lon="-4.0080530">
        <ele>658.2</ele>
        <time>2021-05-08T11:37:42Z</time>
      </trkpt>
      <trkpt lat="40.4686720" lon="-4.0080100">
        <ele>658.1</ele>
        <time>2021-05-08T11:37:43Z</time>
      </trkpt>
      <trkpt lat="40.4687500" lon="-4.0079280">
        <ele>658.0</ele>
        <time>2021-05-08T11:37:45Z</time>
      </trkpt>
      <trkpt lat="40.4688070" lon="-4.0078170">
        <ele>657.8</ele>
        <time>2021-05-08T11:37:47Z</time>
      </trkpt>
      <trkpt lat="40.4688090" lon="-4.0076520">
        <ele>657.5</ele>
        <time>2021-05-08T11:37:49Z</time>
      </trkpt>
      <trkpt lat="40.4687960" lon="-4.0075680">
        <ele>657.4</ele>
        <time>2021-05-08T11:37:50Z</time>
      </trkpt>
      <trkpt lat="40.4687700" lon="-4.0074030">
        <ele>657.1</ele>
        <time>2021-05-08T11:37:52Z</time>
      </trkpt>
      <trkpt lat="40.4687560" lon="-4.0073270">
        <ele>657.0</ele>
        <time>2021-05-08T11:37:53Z</time>
      </trkpt>
      <trkpt lat="40.4687340" lon="-4.0072480">
        <ele>656.9</ele>
        <time>2021-05-08T11:37:54Z</time>
      </trkpt>
      <trkpt lat="40.4686810" lon="-4.0070990">
        <ele>656.6</ele>
        <time>2021-05-08T11:37:56Z</time>
      </trkpt>
      <trkpt lat="40.4686540" lon="-4.0070240">
        <ele>656.5</ele>
        <time>2021-05-08T11:37:57Z</time>
      </trkpt>
      <trkpt lat="40.4686000" lon="-4.0068770">
        <ele>656.3</ele>
        <time>2021-05-08T11:37:59Z</time>
      </trkpt>
      <trkpt lat="40.4685720" lon="-4.0068090">
        <ele>656.2</ele>
        <time>2021-05-08T11:38:00Z</time>
      </trkpt>
      <trkpt lat="40.4685070" lon="-4.0066740">
        <ele>656.1</ele>
        <time>2021-05-08T11:38:02Z</time>
      </trkpt>
      <trkpt lat="40.4684350" lon="-4.0065470">
        <ele>656.0</ele>
        <time>2021-05-08T11:38:04Z</time>
      </trkpt>
      <trkpt lat="40.4683650" lon="-4.0064220">
        <ele>655.9</ele>
        <time>2021-05-08T11:38:06Z</time>
      </trkpt>
      <trkpt lat="40.4682910" lon="-4.0062960">
        <ele>655.8</ele>
        <time>2021-05-08T11:38:08Z</time>
      </trkpt>
      <trkpt lat="40.4682160" lon="-4.0061660">
        <ele>655.7</ele>
        <time>2021-05-08T11:38:10Z</time>
      </trkpt>
      <trkpt lat="40.4681380" lon="-4.0060400">
        <ele>655.6</ele>
        <time>2021-05-08T11:38:12Z</time>
      </trkpt>
      <trkpt lat="40.4680950" lon="-4.0059670">
        <ele>655.5</ele>
        <time>2021-05-08T11:38:13Z</time>
      </trkpt>
      <trkpt lat="40.4680240" lon="-4.0058450">
        <ele>655.4</ele>
        <time>2021-05-08T11:38:15Z</time>
      </trkpt>
      <trkpt lat="40.4679440" lon="-4.0057140">
        <ele>655.2</ele>
        <time>2021-05-08T11:38:17Z</time>
      </trkpt>
      <trkpt lat="40.4679030" lon="-4.0056440">
        <ele>655.1</ele>
        <time>2021-05-08T11:38:18Z</time>
      </trkpt>
      <trkpt lat="40.4678220" lon="-4.0055160">
        <ele>655.0</ele>
        <time>2021-05-08T11:38:20Z</time>
      </trkpt>
      <trkpt lat="40.4677820" lon="-4.0054530">
        <ele>654.9</ele>
        <time>2021-05-08T11:38:21Z</time>
      </trkpt>
      <trkpt lat="40.4677010" lon="-4.0053200">
        <ele>654.7</ele>
        <time>2021-05-08T11:38:23Z</time>
      </trkpt>
      <trkpt lat="40.4676600" lon="-4.0052550">
        <ele>654.7</ele>
        <time>2021-05-08T11:38:24Z</time>
      </trkpt>
      <trkpt lat="40.4676200" lon="-4.0051900">
        <ele>654.5</ele>
        <time>2021-05-08T11:38:25Z</time>
      </trkpt>
      <trkpt lat="40.4675420" lon="-4.0050650">
        <ele>654.3</ele>
        <time>2021-05-08T11:38:27Z</time>
      </trkpt>
      <trkpt lat="40.4674600" lon="-4.0049440">
        <ele>654.0</ele>
        <time>2021-05-08T11:38:29Z</time>
      </trkpt>
      <trkpt lat="40.4674200" lon="-4.0048840">
        <ele>653.9</ele>
        <time>2021-05-08T11:38:30Z</time>
      </trkpt>
      <trkpt lat="40.4673440" lon="-4.0047640">
        <ele>653.5</ele>
        <time>2021-05-08T11:38:32Z</time>
      </trkpt>
      <trkpt lat="40.4673010" lon="-4.0046960">
        <ele>653.3</ele>
        <time>2021-05-08T11:38:33Z</time>
      </trkpt>
      <trkpt lat="40.4672690" lon="-4.0046400">
        <ele>653.1</ele>
        <time>2021-05-08T11:38:34Z</time>
      </trkpt>
      <trkpt lat="40.4671940" lon="-4.0045210">
        <ele>652.8</ele>
        <time>2021-05-08T11:38:36Z</time>
      </trkpt>
      <trkpt lat="40.4671110" lon="-4.0043950">
        <ele>652.4</ele>
        <time>2021-05-08T11:38:38Z</time>
      </trkpt>
      <trkpt lat="40.4670360" lon="-4.0042700">
        <ele>652.0</ele>
        <time>2021-05-08T11:38:40Z</time>
      </trkpt>
      <trkpt lat="40.4669510" lon="-4.0041400">
        <ele>651.5</ele>
        <time>2021-05-08T11:38:42Z</time>
      </trkpt>
      <trkpt lat="40.4668630" lon="-4.0040070">
        <ele>651.0</ele>
        <time>2021-05-08T11:38:44Z</time>
      </trkpt>
      <trkpt lat="40.4668170" lon="-4.0039400">
        <ele>650.8</ele>
        <time>2021-05-08T11:38:45Z</time>
      </trkpt>
      <trkpt lat="40.4667310" lon="-4.0038020">
        <ele>650.3</ele>
        <time>2021-05-08T11:38:47Z</time>
      </trkpt>
      <trkpt lat="40.4666880" lon="-4.0037340">
        <ele>650.1</ele>
        <time>2021-05-08T11:38:48Z</time>
      </trkpt>
      <trkpt lat="40.4666010" lon="-4.0036020">
        <ele>649.6</ele>
        <time>2021-05-08T11:38:50Z</time>
      </trkpt>
      <trkpt lat="40.4665100" lon="-4.0034680">
        <ele>649.1</ele>
        <time>2021-05-08T11:38:52Z</time>
      </trkpt>
      <trkpt lat="40.4664640" lon="-4.0034010">
        <ele>648.9</ele>
        <time>2021-05-08T11:38:53Z</time>
      </trkpt>
      <trkpt lat="40.4664190" lon="-4.0033330">
        <ele>648.7</ele>
        <time>2021-05-08T11:38:54Z</time>
      </trkpt>
      <trkpt lat="40.4663200" lon="-4.0032120">
        <ele>648.2</ele>
        <time>2021-05-08T11:38:56Z</time>
      </trkpt>
      <trkpt lat="40.4662630" lon="-4.0031680">
        <ele>648.1</ele>
        <time>2021-05-08T11:38:57Z</time>
      </trkpt>
      <trkpt lat="40.4662040" lon="-4.0031340">
        <ele>648.0</ele>
        <time>2021-05-08T11:38:58Z</time>
      </trkpt>
      <trkpt lat="40.4660810" lon="-4.0030790">
        <ele>647.7</ele>
        <time>2021-05-08T11:39:00Z</time>
      </trkpt>
      <trkpt lat="40.4660210" lon="-4.0030510">
        <ele>647.6</ele>
        <time>2021-05-08T11:39:01Z</time>
      </trkpt>
      <trkpt lat="40.4659200" lon="-4.0029690">
        <ele>647.3</ele>
        <time>2021-05-08T11:39:03Z</time>
      </trkpt>
      <trkpt lat="40.4658880" lon="-4.0029050">
        <ele>647.2</ele>
        <time>2021-05-08T11:39:04Z</time>
      </trkpt>
      <trkpt lat="40.4658560" lon="-4.0027420">
        <ele>646.9</ele>
        <time>2021-05-08T11:39:06Z</time>
      </trkpt>
      <trkpt lat="40.4658300" lon="-4.0025820">
        <ele>646.6</ele>
        <time>2021-05-08T11:39:08Z</time>
      </trkpt>
      <trkpt lat="40.4658130" lon="-4.0025050">
        <ele>646.5</ele>
        <time>2021-05-08T11:39:09Z</time>
      </trkpt>
      <trkpt lat="40.4657880" lon="-4.0024340">
        <ele>646.4</ele>
        <time>2021-05-08T11:39:10Z</time>
      </trkpt>
      <trkpt lat="40.4657150" lon="-4.0022900">
        <ele>646.0</ele>
        <time>2021-05-08T11:39:12Z</time>
      </trkpt>
      <trkpt lat="40.4656690" lon="-4.0022210">
        <ele>645.7</ele>
        <time>2021-05-08T11:39:13Z</time>
      </trkpt>
      <trkpt lat="40.4656200" lon="-4.0021540">
        <ele>645.5</ele>
        <time>2021-05-08T11:39:14Z</time>
      </trkpt>
      <trkpt lat="40.4655180" lon="-4.0020200">
        <ele>644.9</ele>
        <time>2021-05-08T11:39:16Z</time>
      </trkpt>
      <trkpt lat="40.4654150" lon="-4.0018780">
        <ele>644.4</ele>
        <time>2021-05-08T11:39:18Z</time>
      </trkpt>
      <trkpt lat="40.4653070" lon="-4.0017340">
        <ele>643.9</ele>
        <time>2021-05-08T11:39:20Z</time>
      </trkpt>
      <trkpt lat="40.4652040" lon="-4.0015820">
        <ele>643.5</ele>
        <time>2021-05-08T11:39:22Z</time>
      </trkpt>
      <trkpt lat="40.4651530" lon="-4.0015060">
        <ele>643.2</ele>
        <time>2021-05-08T11:39:23Z</time>
      </trkpt>
      <trkpt lat="40.4651020" lon="-4.0014310">
        <ele>643.0</ele>
        <time>2021-05-08T11:39:24Z</time>
      </trkpt>
      <trkpt lat="40.4650500" lon="-4.0013580">
        <ele>642.7</ele>
        <time>2021-05-08T11:39:25Z</time>
      </trkpt>
      <trkpt lat="40.4650000" lon="-4.0012870">
        <ele>642.5</ele>
        <time>2021-05-08T11:39:26Z</time>
      </trkpt>
      <trkpt lat="40.4648900" lon="-4.0011410">
        <ele>641.9</ele>
        <time>2021-05-08T11:39:28Z</time>
      </trkpt>
      <trkpt lat="40.4647780" lon="-4.0009950">
        <ele>641.3</ele>
        <time>2021-05-08T11:39:30Z</time>
      </trkpt>
      <trkpt lat="40.4647230" lon="-4.0009210">
        <ele>641.0</ele>
        <time>2021-05-08T11:39:31Z</time>
      </trkpt>
      <trkpt lat="40.4646160" lon="-4.0007690">
        <ele>640.4</ele>
        <time>2021-05-08T11:39:33Z</time>
      </trkpt>
      <trkpt lat="40.4645620" lon="-4.0006910">
        <ele>640.1</ele>
        <time>2021-05-08T11:39:34Z</time>
      </trkpt>
      <trkpt lat="40.4644500" lon="-4.0005440">
        <ele>639.6</ele>
        <time>2021-05-08T11:39:36Z</time>
      </trkpt>
      <trkpt lat="40.4643350" lon="-4.0004010">
        <ele>639.1</ele>
        <time>2021-05-08T11:39:38Z</time>
      </trkpt>
      <trkpt lat="40.4642250" lon="-4.0002590">
        <ele>638.8</ele>
        <time>2021-05-08T11:39:40Z</time>
      </trkpt>
      <trkpt lat="40.4641230" lon="-4.0001180">
        <ele>638.4</ele>
        <time>2021-05-08T11:39:42Z</time>
      </trkpt>
      <trkpt lat="40.4640700" lon="-4.0000470">
        <ele>638.1</ele>
        <time>2021-05-08T11:39:43Z</time>
      </trkpt>
      <trkpt lat="40.4640160" lon="-3.9999790">
        <ele>637.9</ele>
        <time>2021-05-08T11:39:44Z</time>
      </trkpt>
      <trkpt lat="40.4639620" lon="-3.9999110">
        <ele>637.7</ele>
        <time>2021-05-08T11:39:45Z</time>
      </trkpt>
      <trkpt lat="40.4638550" lon="-3.9997780">
        <ele>637.4</ele>
        <time>2021-05-08T11:39:47Z</time>
      </trkpt>
      <trkpt lat="40.4638020" lon="-3.9997170">
        <ele>637.3</ele>
        <time>2021-05-08T11:39:48Z</time>
      </trkpt>
      <trkpt lat="40.4636940" lon="-3.9995910">
        <ele>637.0</ele>
        <time>2021-05-08T11:39:50Z</time>
      </trkpt>
      <trkpt lat="40.4636400" lon="-3.9995280">
        <ele>636.9</ele>
        <time>2021-05-08T11:39:51Z</time>
      </trkpt>
      <trkpt lat="40.4635370" lon="-3.9994030">
        <ele>636.8</ele>
        <time>2021-05-08T11:39:53Z</time>
      </trkpt>
      <trkpt lat="40.4634900" lon="-3.9993440">
        <ele>636.7</ele>
        <time>2021-05-08T11:39:54Z</time>
      </trkpt>
      <trkpt lat="40.4634410" lon="-3.9992860">
        <ele>636.7</ele>
        <time>2021-05-08T11:39:55Z</time>
      </trkpt>
      <trkpt lat="40.4633460" lon="-3.9991720">
        <ele>636.7</ele>
        <time>2021-05-08T11:39:57Z</time>
      </trkpt>
      <trkpt lat="40.4632550" lon="-3.9990600">
        <ele>636.7</ele>
        <time>2021-05-08T11:39:59Z</time>
      </trkpt>
      <trkpt lat="40.4632120" lon="-3.9990060">
        <ele>636.7</ele>
        <time>2021-05-08T11:40:00Z</time>
      </trkpt>
      <trkpt lat="40.4631250" lon="-3.9989010">
        <ele>636.9</ele>
        <time>2021-05-08T11:40:02Z</time>
      </trkpt>
      <trkpt lat="40.4630420" lon="-3.9988060">
        <ele>637.0</ele>
        <time>2021-05-08T11:40:04Z</time>
      </trkpt>
      <trkpt lat="40.4629660" lon="-3.9987130">
        <ele>637.2</ele>
        <time>2021-05-08T11:40:06Z</time>
      </trkpt>
      <trkpt lat="40.4628870" lon="-3.9986190">
        <ele>637.3</ele>
        <time>2021-05-08T11:40:08Z</time>
      </trkpt>
      <trkpt lat="40.4628460" lon="-3.9985750">
        <ele>637.4</ele>
        <time>2021-05-08T11:40:09Z</time>
      </trkpt>
      <trkpt lat="40.4627640" lon="-3.9984930">
        <ele>637.6</ele>
        <time>2021-05-08T11:40:11Z</time>
      </trkpt>
      <trkpt lat="40.4627210" lon="-3.9984560">
        <ele>637.7</ele>
        <time>2021-05-08T11:40:12Z</time>
      </trkpt>
      <trkpt lat="40.4626310" lon="-3.9984060">
        <ele>637.7</ele>
        <time>2021-05-08T11:40:14Z</time>
      </trkpt>
      <trkpt lat="40.4625810" lon="-3.9983890">
        <ele>637.8</ele>
        <time>2021-05-08T11:40:15Z</time>
      </trkpt>
      <trkpt lat="40.4624800" lon="-3.9983690">
        <ele>637.9</ele>
        <time>2021-05-08T11:40:17Z</time>
      </trkpt>
      <trkpt lat="40.4624300" lon="-3.9983580">
        <ele>637.9</ele>
        <time>2021-05-08T11:40:18Z</time>
      </trkpt>
      <trkpt lat="40.4623360" lon="-3.9983160">
        <ele>638.1</ele>
        <time>2021-05-08T11:40:20Z</time>
      </trkpt>
      <trkpt lat="40.4622590" lon="-3.9982350">
        <ele>638.2</ele>
        <time>2021-05-08T11:40:22Z</time>
      </trkpt>
      <trkpt lat="40.4622070" lon="-3.9981250">
        <ele>638.4</ele>
        <time>2021-05-08T11:40:24Z</time>
      </trkpt>
      <trkpt lat="40.4621900" lon="-3.9980680">
        <ele>638.5</ele>
        <time>2021-05-08T11:40:25Z</time>
      </trkpt>
      <trkpt lat="40.4621780" lon="-3.9980060">
        <ele>638.5</ele>
        <time>2021-05-08T11:40:26Z</time>
      </trkpt>
      <trkpt lat="40.4621670" lon="-3.9979440">
        <ele>638.6</ele>
        <time>2021-05-08T11:40:27Z</time>
      </trkpt>
      <trkpt lat="40.4621270" lon="-3.9978260">
        <ele>638.7</ele>
        <time>2021-05-08T11:40:29Z</time>
      </trkpt>
      <trkpt lat="40.4621010" lon="-3.9977730">
        <ele>638.7</ele>
        <time>2021-05-08T11:40:30Z</time>
      </trkpt>
      <trkpt lat="40.4620320" lon="-3.9976800">
        <ele>639.0</ele>
        <time>2021-05-08T11:40:32Z</time>
      </trkpt>
      <trkpt lat="40.4619550" lon="-3.9976010">
        <ele>639.3</ele>
        <time>2021-05-08T11:40:34Z</time>
      </trkpt>
      <trkpt lat="40.4618710" lon="-3.9975180">
        <ele>639.5</ele>
        <time>2021-05-08T11:40:36Z</time>
      </trkpt>
      <trkpt lat="40.4618390" lon="-3.9974810">
        <ele>639.7</ele>
        <time>2021-05-08T11:40:37Z</time>
      </trkpt>
      <trkpt lat="40.4617700" lon="-3.9974020">
        <ele>639.9</ele>
        <time>2021-05-08T11:40:39Z</time>
      </trkpt>
      <trkpt lat="40.4617330" lon="-3.9973650">
        <ele>640.0</ele>
        <time>2021-05-08T11:40:40Z</time>
      </trkpt>
      <trkpt lat="40.4616990" lon="-3.9973280">
        <ele>640.1</ele>
        <time>2021-05-08T11:40:41Z</time>
      </trkpt>
      <trkpt lat="40.4616280" lon="-3.9972560">
        <ele>640.3</ele>
        <time>2021-05-08T11:40:43Z</time>
      </trkpt>
      <trkpt lat="40.4615900" lon="-3.9972200">
        <ele>640.4</ele>
        <time>2021-05-08T11:40:44Z</time>
      </trkpt>
      <trkpt lat="40.4615530" lon="-3.9971830">
        <ele>640.5</ele>
        <time>2021-05-08T11:40:45Z</time>
      </trkpt>
      <trkpt lat="40.4614900" lon="-3.9971160">
        <ele>640.6</ele>
        <time>2021-05-08T11:40:47Z</time>
      </trkpt>
      <trkpt lat="40.4614320" lon="-3.9970520">
        <ele>640.7</ele>
        <time>2021-05-08T11:40:49Z</time>
      </trkpt>
      <trkpt lat="40.4614050" lon="-3.9970250">
        <ele>640.8</ele>
        <time>2021-05-08T11:40:50Z</time>
      </trkpt>
      <trkpt lat="40.4613370" lon="-3.9969540">
        <ele>640.9</ele>
        <time>2021-05-08T11:40:52Z</time>
      </trkpt>
      <trkpt lat="40.4612820" lon="-3.9968960">
        <ele>640.9</ele>
        <time>2021-05-08T11:40:53Z</time>
      </trkpt>
      <trkpt lat="40.4612090" lon="-3.9968220">
        <ele>640.9</ele>
        <time>2021-05-08T11:40:55Z</time>
      </trkpt>
      <trkpt lat="40.4611970" lon="-3.9967880">
        <ele>640.9</ele>
        <time>2021-05-08T11:40:56Z</time>
      </trkpt>
      <trkpt lat="40.4611740" lon="-3.9967730">
        <ele>640.9</ele>
        <time>2021-05-08T11:40:57Z</time>
      </trkpt>
      <trkpt lat="40.4610780" lon="-3.9966840">
        <ele>640.8</ele>
        <time>2021-05-08T11:40:59Z</time>
      </trkpt>
      <trkpt lat="40.4610160" lon="-3.9966400">
        <ele>640.8</ele>
        <time>2021-05-08T11:41:00Z</time>
      </trkpt>
      <trkpt lat="40.4609230" lon="-3.9965580">
        <ele>640.6</ele>
        <time>2021-05-08T11:41:02Z</time>
      </trkpt>
      <trkpt lat="40.4608840" lon="-3.9965140">
        <ele>640.5</ele>
        <time>2021-05-08T11:41:03Z</time>
      </trkpt>
      <trkpt lat="40.4608010" lon="-3.9964340">
        <ele>640.2</ele>
        <time>2021-05-08T11:41:05Z</time>
      </trkpt>
      <trkpt lat="40.4607150" lon="-3.9963560">
        <ele>640.0</ele>
        <time>2021-05-08T11:41:07Z</time>
      </trkpt>
      <trkpt lat="40.4606700" lon="-3.9963130">
        <ele>639.9</ele>
        <time>2021-05-08T11:41:08Z</time>
      </trkpt>
      <trkpt lat="40.4605770" lon="-3.9962270">
        <ele>639.6</ele>
        <time>2021-05-08T11:41:10Z</time>
      </trkpt>
      <trkpt lat="40.4604810" lon="-3.9961290">
        <ele>639.3</ele>
        <time>2021-05-08T11:41:12Z</time>
      </trkpt>
      <trkpt lat="40.4604300" lon="-3.9960820">
        <ele>639.1</ele>
        <time>2021-05-08T11:41:13Z</time>
      </trkpt>
      <trkpt lat="40.4603320" lon="-3.9959880">
        <ele>638.8</ele>
        <time>2021-05-08T11:41:15Z</time>
      </trkpt>
      <trkpt lat="40.4602270" lon="-3.9959020">
        <ele>638.4</ele>
        <time>2021-05-08T11:41:17Z</time>
      </trkpt>
      <trkpt lat="40.4601160" lon="-3.9958040">
        <ele>638.0</ele>
        <time>2021-05-08T11:41:19Z</time>
      </trkpt>
      <trkpt lat="40.4600710" lon="-3.9957660">
        <ele>637.8</ele>
        <time>2021-05-08T11:41:20Z</time>
      </trkpt>
      <trkpt lat="40.4600180" lon="-3.9957220">
        <ele>637.6</ele>
        <time>2021-05-08T11:41:21Z</time>
      </trkpt>
      <trkpt lat="40.4599110" lon="-3.9956290">
        <ele>637.2</ele>
        <time>2021-05-08T11:41:23Z</time>
      </trkpt>
      <trkpt lat="40.4598570" lon="-3.9955810">
        <ele>637.0</ele>
        <time>2021-05-08T11:41:24Z</time>
      </trkpt>
      <trkpt lat="40.4597540" lon="-3.9954820">
        <ele>636.5</ele>
        <time>2021-05-08T11:41:26Z</time>
      </trkpt>
      <trkpt lat="40.4596480" lon="-3.9953880">
        <ele>636.1</ele>
        <time>2021-05-08T11:41:28Z</time>
      </trkpt>
      <trkpt lat="40.4595940" lon="-3.9953380">
        <ele>635.9</ele>
        <time>2021-05-08T11:41:29Z</time>
      </trkpt>
      <trkpt lat="40.4594880" lon="-3.9952340">
        <ele>635.5</ele>
        <time>2021-05-08T11:41:31Z</time>
      </trkpt>
      <trkpt lat="40.4594330" lon="-3.9951900">
        <ele>635.4</ele>
        <time>2021-05-08T11:41:32Z</time>
      </trkpt>
      <trkpt lat="40.4593270" lon="-3.9951010">
        <ele>635.1</ele>
        <time>2021-05-08T11:41:34Z</time>
      </trkpt>
      <trkpt lat="40.4592260" lon="-3.9950130">
        <ele>634.9</ele>
        <time>2021-05-08T11:41:36Z</time>
      </trkpt>
      <trkpt lat="40.4591770" lon="-3.9949690">
        <ele>634.8</ele>
        <time>2021-05-08T11:41:37Z</time>
      </trkpt>
      <trkpt lat="40.4591270" lon="-3.9949230">
        <ele>634.8</ele>
        <time>2021-05-08T11:41:39Z</time>
      </trkpt>
      <trkpt lat="40.4590330" lon="-3.9948370">
        <ele>634.8</ele>
        <time>2021-05-08T11:41:40Z</time>
      </trkpt>
      <trkpt lat="40.4589410" lon="-3.9947480">
        <ele>634.8</ele>
        <time>2021-05-08T11:41:42Z</time>
      </trkpt>
      <trkpt lat="40.4588960" lon="-3.9947060">
        <ele>634.8</ele>
        <time>2021-05-08T11:41:43Z</time>
      </trkpt>
      <trkpt lat="40.4588490" lon="-3.9946650">
        <ele>634.8</ele>
        <time>2021-05-08T11:41:44Z</time>
      </trkpt>
      <trkpt lat="40.4587600" lon="-3.9945890">
        <ele>635.0</ele>
        <time>2021-05-08T11:41:46Z</time>
      </trkpt>
      <trkpt lat="40.4586670" lon="-3.9945160">
        <ele>635.0</ele>
        <time>2021-05-08T11:41:48Z</time>
      </trkpt>
      <trkpt lat="40.4586210" lon="-3.9944790">
        <ele>635.0</ele>
        <time>2021-05-08T11:41:49Z</time>
      </trkpt>
      <trkpt lat="40.4585330" lon="-3.9944080">
        <ele>635.1</ele>
        <time>2021-05-08T11:41:51Z</time>
      </trkpt>
      <trkpt lat="40.4584870" lon="-3.9943720">
        <ele>635.1</ele>
        <time>2021-05-08T11:41:52Z</time>
      </trkpt>
      <trkpt lat="40.4583970" lon="-3.9943050">
        <ele>635.2</ele>
        <time>2021-05-08T11:41:54Z</time>
      </trkpt>
      <trkpt lat="40.4583060" lon="-3.9942400">
        <ele>635.2</ele>
        <time>2021-05-08T11:41:56Z</time>
      </trkpt>
      <trkpt lat="40.4582590" lon="-3.9942070">
        <ele>635.2</ele>
        <time>2021-05-08T11:41:57Z</time>
      </trkpt>
      <trkpt lat="40.4581660" lon="-3.9941410">
        <ele>635.2</ele>
        <time>2021-05-08T11:41:59Z</time>
      </trkpt>
      <trkpt lat="40.4581200" lon="-3.9941090">
        <ele>635.3</ele>
        <time>2021-05-08T11:42:00Z</time>
      </trkpt>
      <trkpt lat="40.4580320" lon="-3.9940550">
        <ele>635.3</ele>
        <time>2021-05-08T11:42:02Z</time>
      </trkpt>
      <trkpt lat="40.4579590" lon="-3.9940140">
        <ele>635.4</ele>
        <time>2021-05-08T11:42:04Z</time>
      </trkpt>
      <trkpt lat="40.4579230" lon="-3.9939940">
        <ele>635.5</ele>
        <time>2021-05-08T11:42:05Z</time>
      </trkpt>
      <trkpt lat="40.4578410" lon="-3.9939370">
        <ele>635.6</ele>
        <time>2021-05-08T11:42:07Z</time>
      </trkpt>
      <trkpt lat="40.4577990" lon="-3.9939080">
        <ele>635.7</ele>
        <time>2021-05-08T11:42:08Z</time>
      </trkpt>
      <trkpt lat="40.4577560" lon="-3.9938770">
        <ele>635.7</ele>
        <time>2021-05-08T11:42:09Z</time>
      </trkpt>
      <trkpt lat="40.4576820" lon="-3.9938250">
        <ele>635.8</ele>
        <time>2021-05-08T11:42:11Z</time>
      </trkpt>
      <trkpt lat="40.4576460" lon="-3.9937990">
        <ele>635.9</ele>
        <time>2021-05-08T11:42:12Z</time>
      </trkpt>
      <trkpt lat="40.4575930" lon="-3.9937620">
        <ele>636.1</ele>
        <time>2021-05-08T11:42:13Z</time>
      </trkpt>
      <trkpt lat="40.4575390" lon="-3.9937310">
        <ele>636.2</ele>
        <time>2021-05-08T11:42:15Z</time>
      </trkpt>
      <trkpt lat="40.4574800" lon="-3.9936940">
        <ele>636.3</ele>
        <time>2021-05-08T11:42:16Z</time>
      </trkpt>
      <trkpt lat="40.4574280" lon="-3.9936620">
        <ele>636.5</ele>
        <time>2021-05-08T11:42:18Z</time>
      </trkpt>
      <trkpt lat="40.4573760" lon="-3.9936310">
        <ele>636.6</ele>
        <time>2021-05-08T11:42:19Z</time>
      </trkpt>
      <trkpt lat="40.4573270" lon="-3.9936020">
        <ele>636.7</ele>
        <time>2021-05-08T11:42:21Z</time>
      </trkpt>
      <trkpt lat="40.4572880" lon="-3.9935770">
        <ele>636.8</ele>
        <time>2021-05-08T11:42:22Z</time>
      </trkpt>
      <trkpt lat="40.4572420" lon="-3.9935440">
        <ele>637.0</ele>
        <time>2021-05-08T11:42:23Z</time>
      </trkpt>
      <trkpt lat="40.4571910" lon="-3.9935100">
        <ele>637.1</ele>
        <time>2021-05-08T11:42:24Z</time>
      </trkpt>
      <trkpt lat="40.4571310" lon="-3.9934740">
        <ele>637.3</ele>
        <time>2021-05-08T11:42:26Z</time>
      </trkpt>
      <trkpt lat="40.4570600" lon="-3.9934280">
        <ele>637.5</ele>
        <time>2021-05-08T11:42:28Z</time>
      </trkpt>
      <trkpt lat="40.4570060" lon="-3.9933910">
        <ele>637.6</ele>
        <time>2021-05-08T11:42:29Z</time>
      </trkpt>
      <trkpt lat="40.4569680" lon="-3.9933650">
        <ele>637.7</ele>
        <time>2021-05-08T11:42:30Z</time>
      </trkpt>
      <trkpt lat="40.4569100" lon="-3.9933250">
        <ele>637.9</ele>
        <time>2021-05-08T11:42:32Z</time>
      </trkpt>
      <trkpt lat="40.4568590" lon="-3.9932950">
        <ele>638.1</ele>
        <time>2021-05-08T11:42:33Z</time>
      </trkpt>
      <trkpt lat="40.4568220" lon="-3.9932700">
        <ele>638.2</ele>
        <time>2021-05-08T11:42:34Z</time>
      </trkpt>
      <trkpt lat="40.4567810" lon="-3.9932460">
        <ele>638.3</ele>
        <time>2021-05-08T11:42:35Z</time>
      </trkpt>
      <trkpt lat="40.4567250" lon="-3.9932090">
        <ele>638.5</ele>
        <time>2021-05-08T11:42:37Z</time>
      </trkpt>
      <trkpt lat="40.4566850" lon="-3.9931820">
        <ele>638.6</ele>
        <time>2021-05-08T11:42:38Z</time>
      </trkpt>
      <trkpt lat="40.4566240" lon="-3.9931410">
        <ele>638.8</ele>
        <time>2021-05-08T11:42:40Z</time>
      </trkpt>
      <trkpt lat="40.4565820" lon="-3.9931150">
        <ele>638.9</ele>
        <time>2021-05-08T11:42:41Z</time>
      </trkpt>
      <trkpt lat="40.4565130" lon="-3.9930660">
        <ele>639.1</ele>
        <time>2021-05-08T11:42:43Z</time>
      </trkpt>
      <trkpt lat="40.4564600" lon="-3.9930340">
        <ele>639.3</ele>
        <time>2021-05-08T11:42:44Z</time>
      </trkpt>
      <trkpt lat="40.4564240" lon="-3.9930150">
        <ele>639.4</ele>
        <time>2021-05-08T11:42:45Z</time>
      </trkpt>
      <trkpt lat="40.4563670" lon="-3.9930000">
        <ele>639.6</ele>
        <time>2021-05-08T11:42:47Z</time>
      </trkpt>
      <trkpt lat="40.4562950" lon="-3.9929930">
        <ele>639.8</ele>
        <time>2021-05-08T11:42:49Z</time>
      </trkpt>
      <trkpt lat="40.4562590" lon="-3.9929970">
        <ele>639.9</ele>
        <time>2021-05-08T11:42:50Z</time>
      </trkpt>
      <trkpt lat="40.4561950" lon="-3.9930060">
        <ele>640.1</ele>
        <time>2021-05-08T11:42:52Z</time>
      </trkpt>
      <trkpt lat="40.4561540" lon="-3.9930180">
        <ele>640.2</ele>
        <time>2021-05-08T11:42:53Z</time>
      </trkpt>
      <trkpt lat="40.4560970" lon="-3.9930420">
        <ele>640.3</ele>
        <time>2021-05-08T11:42:54Z</time>
      </trkpt>
      <trkpt lat="40.4560510" lon="-3.9930540">
        <ele>640.4</ele>
        <time>2021-05-08T11:42:56Z</time>
      </trkpt>
      <trkpt lat="40.4560100" lon="-3.9930580">
        <ele>640.5</ele>
        <time>2021-05-08T11:42:57Z</time>
      </trkpt>
      <trkpt lat="40.4559620" lon="-3.9930520">
        <ele>640.6</ele>
        <time>2021-05-08T11:42:58Z</time>
      </trkpt>
      <trkpt lat="40.4559140" lon="-3.9930210">
        <ele>640.7</ele>
        <time>2021-05-08T11:42:59Z</time>
      </trkpt>
      <trkpt lat="40.4558360" lon="-3.9929420">
        <ele>640.7</ele>
        <time>2021-05-08T11:43:01Z</time>
      </trkpt>
      <trkpt lat="40.4558080" lon="-3.9928840">
        <ele>640.7</ele>
        <time>2021-05-08T11:43:02Z</time>
      </trkpt>
      <trkpt lat="40.4557710" lon="-3.9927680">
        <ele>640.7</ele>
        <time>2021-05-08T11:43:04Z</time>
      </trkpt>
      <trkpt lat="40.4557290" lon="-3.9926520">
        <ele>640.6</ele>
        <time>2021-05-08T11:43:06Z</time>
      </trkpt>
      <trkpt lat="40.4556980" lon="-3.9925960">
        <ele>640.6</ele>
        <time>2021-05-08T11:43:07Z</time>
      </trkpt>
      <trkpt lat="40.4556060" lon="-3.9925100">
        <ele>640.5</ele>
        <time>2021-05-08T11:43:09Z</time>
      </trkpt>
      <trkpt lat="40.4555280" lon="-3.9924660">
        <ele>640.4</ele>
        <time>2021-05-08T11:43:11Z</time>
      </trkpt>
      <trkpt lat="40.4554450" lon="-3.9924230">
        <ele>640.4</ele>
        <time>2021-05-08T11:43:12Z</time>
      </trkpt>
      <trkpt lat="40.4553300" lon="-3.9923610">
        <ele>640.2</ele>
        <time>2021-05-08T11:43:14Z</time>
      </trkpt>
      <trkpt lat="40.4552760" lon="-3.9923320">
        <ele>640.2</ele>
        <time>2021-05-08T11:43:15Z</time>
      </trkpt>
      <trkpt lat="40.4552220" lon="-3.9923010">
        <ele>640.1</ele>
        <time>2021-05-08T11:43:16Z</time>
      </trkpt>
      <trkpt lat="40.4551190" lon="-3.9922350">
        <ele>640.0</ele>
        <time>2021-05-08T11:43:18Z</time>
      </trkpt>
      <trkpt lat="40.4550140" lon="-3.9921730">
        <ele>639.8</ele>
        <time>2021-05-08T11:43:20Z</time>
      </trkpt>
      <trkpt lat="40.4549600" lon="-3.9921420">
        <ele>639.7</ele>
        <time>2021-05-08T11:43:21Z</time>
      </trkpt>
      <trkpt lat="40.4548510" lon="-3.9920790">
        <ele>639.5</ele>
        <time>2021-05-08T11:43:23Z</time>
      </trkpt>
      <trkpt lat="40.4547430" lon="-3.9920230">
        <ele>639.4</ele>
        <time>2021-05-08T11:43:25Z</time>
      </trkpt>
      <trkpt lat="40.4546890" lon="-3.9919940">
        <ele>639.3</ele>
        <time>2021-05-08T11:43:26Z</time>
      </trkpt>
      <trkpt lat="40.4546350" lon="-3.9919630">
        <ele>639.3</ele>
        <time>2021-05-08T11:43:27Z</time>
      </trkpt>
      <trkpt lat="40.4545820" lon="-3.9919310">
        <ele>639.2</ele>
        <time>2021-05-08T11:43:28Z</time>
      </trkpt>
      <trkpt lat="40.4544700" lon="-3.9918670">
        <ele>639.1</ele>
        <time>2021-05-08T11:43:30Z</time>
      </trkpt>
      <trkpt lat="40.4544200" lon="-3.9918400">
        <ele>639.1</ele>
        <time>2021-05-08T11:43:31Z</time>
      </trkpt>
      <trkpt lat="40.4543070" lon="-3.9917800">
        <ele>639.0</ele>
        <time>2021-05-08T11:43:33Z</time>
      </trkpt>
      <trkpt lat="40.4542560" lon="-3.9917490">
        <ele>639.0</ele>
        <time>2021-05-08T11:43:34Z</time>
      </trkpt>
      <trkpt lat="40.4541480" lon="-3.9916920">
        <ele>638.9</ele>
        <time>2021-05-08T11:43:36Z</time>
      </trkpt>
      <trkpt lat="40.4540420" lon="-3.9916330">
        <ele>638.9</ele>
        <time>2021-05-08T11:43:38Z</time>
      </trkpt>
      <trkpt lat="40.4539890" lon="-3.9916030">
        <ele>638.9</ele>
        <time>2021-05-08T11:43:39Z</time>
      </trkpt>
      <trkpt lat="40.4539360" lon="-3.9915740">
        <ele>638.9</ele>
        <time>2021-05-08T11:43:40Z</time>
      </trkpt>
      <trkpt lat="40.4538820" lon="-3.9915480">
        <ele>638.9</ele>
        <time>2021-05-08T11:43:41Z</time>
      </trkpt>
      <trkpt lat="40.4538250" lon="-3.9915260">
        <ele>638.9</ele>
        <time>2021-05-08T11:43:42Z</time>
      </trkpt>
      <trkpt lat="40.4537130" lon="-3.9914790">
        <ele>638.9</ele>
        <time>2021-05-08T11:43:44Z</time>
      </trkpt>
      <trkpt lat="40.4536620" lon="-3.9914510">
        <ele>638.9</ele>
        <time>2021-05-08T11:43:45Z</time>
      </trkpt>
      <trkpt lat="40.4535550" lon="-3.9914020">
        <ele>638.9</ele>
        <time>2021-05-08T11:43:47Z</time>
      </trkpt>
      <trkpt lat="40.4534500" lon="-3.9913520">
        <ele>638.9</ele>
        <time>2021-05-08T11:43:49Z</time>
      </trkpt>
      <trkpt lat="40.4533980" lon="-3.9913230">
        <ele>639.0</ele>
        <time>2021-05-08T11:43:50Z</time>
      </trkpt>
      <trkpt lat="40.4533530" lon="-3.9912980">
        <ele>639.0</ele>
        <time>2021-05-08T11:43:51Z</time>
      </trkpt>
      <trkpt lat="40.4532960" lon="-3.9912720">
        <ele>639.1</ele>
        <time>2021-05-08T11:43:52Z</time>
      </trkpt>
      <trkpt lat="40.4531950" lon="-3.9912290">
        <ele>639.2</ele>
        <time>2021-05-08T11:43:54Z</time>
      </trkpt>
      <trkpt lat="40.4531460" lon="-3.9912110">
        <ele>639.2</ele>
        <time>2021-05-08T11:43:55Z</time>
      </trkpt>
      <trkpt lat="40.4530460" lon="-3.9911760">
        <ele>639.3</ele>
        <time>2021-05-08T11:43:57Z</time>
      </trkpt>
      <trkpt lat="40.4529440" lon="-3.9911370">
        <ele>639.5</ele>
        <time>2021-05-08T11:43:59Z</time>
      </trkpt>
      <trkpt lat="40.4528440" lon="-3.9910960">
        <ele>639.6</ele>
        <time>2021-05-08T11:44:01Z</time>
      </trkpt>
      <trkpt lat="40.4527930" lon="-3.9910780">
        <ele>639.7</ele>
        <time>2021-05-08T11:44:02Z</time>
      </trkpt>
      <trkpt lat="40.4526940" lon="-3.9910450">
        <ele>639.8</ele>
        <time>2021-05-08T11:44:04Z</time>
      </trkpt>
      <trkpt lat="40.4526430" lon="-3.9910270">
        <ele>639.9</ele>
        <time>2021-05-08T11:44:05Z</time>
      </trkpt>
      <trkpt lat="40.4525930" lon="-3.9910090">
        <ele>640.0</ele>
        <time>2021-05-08T11:44:06Z</time>
      </trkpt>
      <trkpt lat="40.4524960" lon="-3.9909770">
        <ele>640.2</ele>
        <time>2021-05-08T11:44:08Z</time>
      </trkpt>
      <trkpt lat="40.4523940" lon="-3.9909510">
        <ele>640.4</ele>
        <time>2021-05-08T11:44:10Z</time>
      </trkpt>
      <trkpt lat="40.4523380" lon="-3.9909330">
        <ele>640.5</ele>
        <time>2021-05-08T11:44:11Z</time>
      </trkpt>
      <trkpt lat="40.4522420" lon="-3.9908980">
        <ele>640.7</ele>
        <time>2021-05-08T11:44:13Z</time>
      </trkpt>
      <trkpt lat="40.4521890" lon="-3.9908820">
        <ele>640.8</ele>
        <time>2021-05-08T11:44:14Z</time>
      </trkpt>
      <trkpt lat="40.4520880" lon="-3.9908550">
        <ele>641.0</ele>
        <time>2021-05-08T11:44:16Z</time>
      </trkpt>
      <trkpt lat="40.4519850" lon="-3.9908210">
        <ele>641.3</ele>
        <time>2021-05-08T11:44:18Z</time>
      </trkpt>
      <trkpt lat="40.4519350" lon="-3.9908050">
        <ele>641.4</ele>
        <time>2021-05-08T11:44:19Z</time>
      </trkpt>
      <trkpt lat="40.4518820" lon="-3.9907900">
        <ele>641.5</ele>
        <time>2021-05-08T11:44:20Z</time>
      </trkpt>
      <trkpt lat="40.4517780" lon="-3.9907630">
        <ele>641.7</ele>
        <time>2021-05-08T11:44:22Z</time>
      </trkpt>
      <trkpt lat="40.4517230" lon="-3.9907470">
        <ele>641.8</ele>
        <time>2021-05-08T11:44:23Z</time>
      </trkpt>
      <trkpt lat="40.4516720" lon="-3.9907320">
        <ele>642.0</ele>
        <time>2021-05-08T11:44:24Z</time>
      </trkpt>
      <trkpt lat="40.4516240" lon="-3.9907190">
        <ele>642.1</ele>
        <time>2021-05-08T11:44:25Z</time>
      </trkpt>
      <trkpt lat="40.4515760" lon="-3.9907030">
        <ele>642.2</ele>
        <time>2021-05-08T11:44:26Z</time>
      </trkpt>
      <trkpt lat="40.4514830" lon="-3.9906680">
        <ele>642.4</ele>
        <time>2021-05-08T11:44:28Z</time>
      </trkpt>
      <trkpt lat="40.4514360" lon="-3.9906540">
        <ele>642.5</ele>
        <time>2021-05-08T11:44:29Z</time>
      </trkpt>
      <trkpt lat="40.4513860" lon="-3.9906420">
        <ele>642.6</ele>
        <time>2021-05-08T11:44:30Z</time>
      </trkpt>
      <trkpt lat="40.4512890" lon="-3.9906160">
        <ele>642.8</ele>
        <time>2021-05-08T11:44:32Z</time>
      </trkpt>
      <trkpt lat="40.4512410" lon="-3.9906040">
        <ele>642.8</ele>
        <time>2021-05-08T11:44:33Z</time>
      </trkpt>
      <trkpt lat="40.4511940" lon="-3.9905890">
        <ele>642.9</ele>
        <time>2021-05-08T11:44:34Z</time>
      </trkpt>
      <trkpt lat="40.4511070" lon="-3.9905610">
        <ele>643.1</ele>
        <time>2021-05-08T11:44:36Z</time>
      </trkpt>
      <trkpt lat="40.4510630" lon="-3.9905490">
        <ele>643.2</ele>
        <time>2021-05-08T11:44:37Z</time>
      </trkpt>
      <trkpt lat="40.4509730" lon="-3.9905250">
        <ele>643.4</ele>
        <time>2021-05-08T11:44:39Z</time>
      </trkpt>
      <trkpt lat="40.4509270" lon="-3.9905090">
        <ele>643.5</ele>
        <time>2021-05-08T11:44:40Z</time>
      </trkpt>
      <trkpt lat="40.4508820" lon="-3.9904950">
        <ele>643.6</ele>
        <time>2021-05-08T11:44:41Z</time>
      </trkpt>
      <trkpt lat="40.4507940" lon="-3.9904690">
        <ele>643.8</ele>
        <time>2021-05-08T11:44:43Z</time>
      </trkpt>
      <trkpt lat="40.4507020" lon="-3.9904350">
        <ele>644.0</ele>
        <time>2021-05-08T11:44:45Z</time>
      </trkpt>
      <trkpt lat="40.4506390" lon="-3.9904130">
        <ele>644.1</ele>
        <time>2021-05-08T11:44:47Z</time>
      </trkpt>
      <trkpt lat="40.4505520" lon="-3.9903890">
        <ele>644.3</ele>
        <time>2021-05-08T11:44:49Z</time>
      </trkpt>
      <trkpt lat="40.4504780" lon="-3.9903730">
        <ele>644.5</ele>
        <time>2021-05-08T11:44:51Z</time>
      </trkpt>
      <trkpt lat="40.4504010" lon="-3.9903660">
        <ele>644.7</ele>
        <time>2021-05-08T11:44:53Z</time>
      </trkpt>
      <trkpt lat="40.4504040" lon="-3.9903700">
        <ele>644.7</ele>
        <time>2021-05-08T11:44:54Z</time>
      </trkpt>
      <trkpt lat="40.4503430" lon="-3.9903810">
        <ele>644.8</ele>
        <time>2021-05-08T11:44:56Z</time>
      </trkpt>
      <trkpt lat="40.4502740" lon="-3.9903950">
        <ele>644.9</ele>
        <time>2021-05-08T11:44:57Z</time>
      </trkpt>
      <trkpt lat="40.4501860" lon="-3.9904250">
        <ele>645.0</ele>
        <time>2021-05-08T11:44:59Z</time>
      </trkpt>
      <trkpt lat="40.4501330" lon="-3.9904460">
        <ele>645.1</ele>
        <time>2021-05-08T11:45:00Z</time>
      </trkpt>
      <trkpt lat="40.4500680" lon="-3.9904700">
        <ele>645.2</ele>
        <time>2021-05-08T11:45:01Z</time>
      </trkpt>
      <trkpt lat="40.4500320" lon="-3.9904790">
        <ele>645.2</ele>
        <time>2021-05-08T11:45:02Z</time>
      </trkpt>
      <trkpt lat="40.4499780" lon="-3.9904790">
        <ele>645.3</ele>
        <time>2021-05-08T11:45:04Z</time>
      </trkpt>
      <trkpt lat="40.4499450" lon="-3.9904720">
        <ele>645.3</ele>
        <time>2021-05-08T11:45:05Z</time>
      </trkpt>
      <trkpt lat="40.4499170" lon="-3.9904610">
        <ele>645.3</ele>
        <time>2021-05-08T11:45:06Z</time>
      </trkpt>
      <trkpt lat="40.4498780" lon="-3.9904460">
        <ele>645.3</ele>
        <time>2021-05-08T11:45:07Z</time>
      </trkpt>
      <trkpt lat="40.4498410" lon="-3.9904320">
        <ele>645.4</ele>
        <time>2021-05-08T11:45:08Z</time>
      </trkpt>
      <trkpt lat="40.4498030" lon="-3.9904030">
        <ele>645.4</ele>
        <time>2021-05-08T11:45:10Z</time>
      </trkpt>
      <trkpt lat="40.4497890" lon="-3.9903690">
        <ele>645.4</ele>
        <time>2021-05-08T11:45:11Z</time>
      </trkpt>
      <trkpt lat="40.4497680" lon="-3.9903270">
        <ele>645.4</ele>
        <time>2021-05-08T11:45:12Z</time>
      </trkpt>
      <trkpt lat="40.4497590" lon="-3.9902790">
        <ele>645.4</ele>
        <time>2021-05-08T11:45:14Z</time>
      </trkpt>
      <trkpt lat="40.4497500" lon="-3.9902420">
        <ele>645.4</ele>
        <time>2021-05-08T11:45:15Z</time>
      </trkpt>
      <trkpt lat="40.4497210" lon="-3.9902010">
        <ele>645.4</ele>
        <time>2021-05-08T11:45:16Z</time>
      </trkpt>
      <trkpt lat="40.4497090" lon="-3.9901880">
        <ele>645.4</ele>
        <time>2021-05-08T11:45:17Z</time>
      </trkpt>
      <trkpt lat="40.4496750" lon="-3.9901480">
        <ele>645.4</ele>
        <time>2021-05-08T11:45:18Z</time>
      </trkpt>
      <trkpt lat="40.4496390" lon="-3.9901100">
        <ele>645.4</ele>
        <time>2021-05-08T11:45:20Z</time>
      </trkpt>
      <trkpt lat="40.4496100" lon="-3.9900920">
        <ele>645.4</ele>
        <time>2021-05-08T11:45:21Z</time>
      </trkpt>
      <trkpt lat="40.4495540" lon="-3.9900680">
        <ele>645.3</ele>
        <time>2021-05-08T11:45:23Z</time>
      </trkpt>
      <trkpt lat="40.4495090" lon="-3.9900620">
        <ele>645.2</ele>
        <time>2021-05-08T11:45:24Z</time>
      </trkpt>
      <trkpt lat="40.4494680" lon="-3.9900590">
        <ele>645.1</ele>
        <time>2021-05-08T11:45:25Z</time>
      </trkpt>
      <trkpt lat="40.4494290" lon="-3.9900530">
        <ele>645.0</ele>
        <time>2021-05-08T11:45:26Z</time>
      </trkpt>
      <trkpt lat="40.4493790" lon="-3.9900410">
        <ele>644.9</ele>
        <time>2021-05-08T11:45:27Z</time>
      </trkpt>
      <trkpt lat="40.4493170" lon="-3.9900230">
        <ele>644.8</ele>
        <time>2021-05-08T11:45:29Z</time>
      </trkpt>
      <trkpt lat="40.4492630" lon="-3.9900120">
        <ele>644.6</ele>
        <time>2021-05-08T11:45:30Z</time>
      </trkpt>
      <trkpt lat="40.4492220" lon="-3.9900020">
        <ele>644.5</ele>
        <time>2021-05-08T11:45:31Z</time>
      </trkpt>
      <trkpt lat="40.4491770" lon="-3.9899940">
        <ele>644.3</ele>
        <time>2021-05-08T11:45:32Z</time>
      </trkpt>
      <trkpt lat="40.4491180" lon="-3.9899790">
        <ele>644.2</ele>
        <time>2021-05-08T11:45:33Z</time>
      </trkpt>
      <trkpt lat="40.4490370" lon="-3.9899600">
        <ele>643.9</ele>
        <time>2021-05-08T11:45:35Z</time>
      </trkpt>
      <trkpt lat="40.4489850" lon="-3.9899460">
        <ele>643.8</ele>
        <time>2021-05-08T11:45:36Z</time>
      </trkpt>
      <trkpt lat="40.4489340" lon="-3.9899320">
        <ele>643.6</ele>
        <time>2021-05-08T11:45:37Z</time>
      </trkpt>
      <trkpt lat="40.4488300" lon="-3.9899090">
        <ele>643.3</ele>
        <time>2021-05-08T11:45:39Z</time>
      </trkpt>
      <trkpt lat="40.4487200" lon="-3.9898860">
        <ele>643.0</ele>
        <time>2021-05-08T11:45:41Z</time>
      </trkpt>
      <trkpt lat="40.4486640" lon="-3.9898750">
        <ele>642.8</ele>
        <time>2021-05-08T11:45:42Z</time>
      </trkpt>
      <trkpt lat="40.4485470" lon="-3.9898560">
        <ele>642.5</ele>
        <time>2021-05-08T11:45:44Z</time>
      </trkpt>
      <trkpt lat="40.4484880" lon="-3.9898470">
        <ele>642.4</ele>
        <time>2021-05-08T11:45:45Z</time>
      </trkpt>
      <trkpt lat="40.4483710" lon="-3.9898290">
        <ele>642.1</ele>
        <time>2021-05-08T11:45:47Z</time>
      </trkpt>
      <trkpt lat="40.4483100" lon="-3.9898190">
        <ele>642.0</ele>
        <time>2021-05-08T11:45:48Z</time>
      </trkpt>
      <trkpt lat="40.4482530" lon="-3.9898100">
        <ele>641.8</ele>
        <time>2021-05-08T11:45:49Z</time>
      </trkpt>
      <trkpt lat="40.4481360" lon="-3.9897930">
        <ele>641.6</ele>
        <time>2021-05-08T11:45:51Z</time>
      </trkpt>
      <trkpt lat="40.4480770" lon="-3.9897840">
        <ele>641.5</ele>
        <time>2021-05-08T11:45:52Z</time>
      </trkpt>
      <trkpt lat="40.4479680" lon="-3.9897710">
        <ele>641.4</ele>
        <time>2021-05-08T11:45:54Z</time>
      </trkpt>
      <trkpt lat="40.4479170" lon="-3.9897680">
        <ele>641.3</ele>
        <time>2021-05-08T11:45:55Z</time>
      </trkpt>
      <trkpt lat="40.4478170" lon="-3.9897610">
        <ele>641.2</ele>
        <time>2021-05-08T11:45:57Z</time>
      </trkpt>
      <trkpt lat="40.4477130" lon="-3.9897590">
        <ele>641.2</ele>
        <time>2021-05-08T11:45:59Z</time>
      </trkpt>
      <trkpt lat="40.4476600" lon="-3.9897670">
        <ele>641.2</ele>
        <time>2021-05-08T11:46:00Z</time>
      </trkpt>
      <trkpt lat="40.4476130" lon="-3.9897850">
        <ele>641.2</ele>
        <time>2021-05-08T11:46:01Z</time>
      </trkpt>
      <trkpt lat="40.4475370" lon="-3.9898570">
        <ele>641.2</ele>
        <time>2021-05-08T11:46:03Z</time>
      </trkpt>
      <trkpt lat="40.4474520" lon="-3.9899140">
        <ele>641.2</ele>
        <time>2021-05-08T11:46:05Z</time>
      </trkpt>
      <trkpt lat="40.4474020" lon="-3.9899330">
        <ele>641.2</ele>
        <time>2021-05-08T11:46:06Z</time>
      </trkpt>
      <trkpt lat="40.4473030" lon="-3.9899500">
        <ele>641.2</ele>
        <time>2021-05-08T11:46:08Z</time>
      </trkpt>
      <trkpt lat="40.4472530" lon="-3.9899450">
        <ele>641.2</ele>
        <time>2021-05-08T11:46:09Z</time>
      </trkpt>
      <trkpt lat="40.4471520" lon="-3.9898900">
        <ele>641.2</ele>
        <time>2021-05-08T11:46:11Z</time>
      </trkpt>
      <trkpt lat="40.4470620" lon="-3.9898070">
        <ele>641.2</ele>
        <time>2021-05-08T11:46:13Z</time>
      </trkpt>
      <trkpt lat="40.4470150" lon="-3.9897660">
        <ele>641.2</ele>
        <time>2021-05-08T11:46:14Z</time>
      </trkpt>
      <trkpt lat="40.4469640" lon="-3.9897320">
        <ele>641.2</ele>
        <time>2021-05-08T11:46:15Z</time>
      </trkpt>
      <trkpt lat="40.4468560" lon="-3.9896960">
        <ele>641.1</ele>
        <time>2021-05-08T11:46:17Z</time>
      </trkpt>
      <trkpt lat="40.4467970" lon="-3.9896880">
        <ele>641.2</ele>
        <time>2021-05-08T11:46:18Z</time>
      </trkpt>
      <trkpt lat="40.4466850" lon="-3.9896830">
        <ele>641.3</ele>
        <time>2021-05-08T11:46:20Z</time>
      </trkpt>
      <trkpt lat="40.4466300" lon="-3.9896790">
        <ele>641.3</ele>
        <time>2021-05-08T11:46:21Z</time>
      </trkpt>
      <trkpt lat="40.4465240" lon="-3.9896750">
        <ele>641.4</ele>
        <time>2021-05-08T11:46:23Z</time>
      </trkpt>
      <trkpt lat="40.4464730" lon="-3.9896780">
        <ele>641.5</ele>
        <time>2021-05-08T11:46:24Z</time>
      </trkpt>
      <trkpt lat="40.4464270" lon="-3.9896790">
        <ele>641.5</ele>
        <time>2021-05-08T11:46:25Z</time>
      </trkpt>
      <trkpt lat="40.4463360" lon="-3.9896780">
        <ele>641.7</ele>
        <time>2021-05-08T11:46:27Z</time>
      </trkpt>
      <trkpt lat="40.4462390" lon="-3.9896810">
        <ele>641.9</ele>
        <time>2021-05-08T11:46:29Z</time>
      </trkpt>
      <trkpt lat="40.4461940" lon="-3.9896840">
        <ele>641.9</ele>
        <time>2021-05-08T11:46:30Z</time>
      </trkpt>
      <trkpt lat="40.4461450" lon="-3.9896860">
        <ele>642.0</ele>
        <time>2021-05-08T11:46:31Z</time>
      </trkpt>
      <trkpt lat="40.4460510" lon="-3.9896930">
        <ele>642.2</ele>
        <time>2021-05-08T11:46:33Z</time>
      </trkpt>
      <trkpt lat="40.4459570" lon="-3.9897000">
        <ele>642.4</ele>
        <time>2021-05-08T11:46:35Z</time>
      </trkpt>
      <trkpt lat="40.4459120" lon="-3.9897000">
        <ele>642.5</ele>
        <time>2021-05-08T11:46:36Z</time>
      </trkpt>
      <trkpt lat="40.4458250" lon="-3.9897040">
        <ele>642.6</ele>
        <time>2021-05-08T11:46:38Z</time>
      </trkpt>
      <trkpt lat="40.4457970" lon="-3.9897060">
        <ele>642.7</ele>
        <time>2021-05-08T11:46:39Z</time>
      </trkpt>
      <trkpt lat="40.4457580" lon="-3.9897070">
        <ele>642.8</ele>
        <time>2021-05-08T11:46:40Z</time>
      </trkpt>
      <trkpt lat="40.4457130" lon="-3.9897120">
        <ele>642.9</ele>
        <time>2021-05-08T11:46:41Z</time>
      </trkpt>
      <trkpt lat="40.4456550" lon="-3.9897190">
        <ele>643.0</ele>
        <time>2021-05-08T11:46:42Z</time>
      </trkpt>
      <trkpt lat="40.4455690" lon="-3.9897270">
        <ele>643.1</ele>
        <time>2021-05-08T11:46:44Z</time>
      </trkpt>
      <trkpt lat="40.4454970" lon="-3.9897330">
        <ele>643.3</ele>
        <time>2021-05-08T11:46:46Z</time>
      </trkpt>
      <trkpt lat="40.4454580" lon="-3.9897350">
        <ele>643.3</ele>
        <time>2021-05-08T11:46:47Z</time>
      </trkpt>
      <trkpt lat="40.4453750" lon="-3.9897430">
        <ele>643.5</ele>
        <time>2021-05-08T11:46:49Z</time>
      </trkpt>
      <trkpt lat="40.4453270" lon="-3.9897470">
        <ele>643.6</ele>
        <time>2021-05-08T11:46:50Z</time>
      </trkpt>
      <trkpt lat="40.4452480" lon="-3.9897580">
        <ele>643.7</ele>
        <time>2021-05-08T11:46:52Z</time>
      </trkpt>
      <trkpt lat="40.4452000" lon="-3.9897650">
        <ele>643.8</ele>
        <time>2021-05-08T11:46:53Z</time>
      </trkpt>
      <trkpt lat="40.4451230" lon="-3.9897780">
        <ele>644.0</ele>
        <time>2021-05-08T11:46:55Z</time>
      </trkpt>
      <trkpt lat="40.4450850" lon="-3.9897850">
        <ele>644.0</ele>
        <time>2021-05-08T11:46:56Z</time>
      </trkpt>
      <trkpt lat="40.4450520" lon="-3.9897880">
        <ele>644.1</ele>
        <time>2021-05-08T11:46:57Z</time>
      </trkpt>
      <trkpt lat="40.4450020" lon="-3.9897910">
        <ele>644.2</ele>
        <time>2021-05-08T11:46:58Z</time>
      </trkpt>
      <trkpt lat="40.4449140" lon="-3.9898000">
        <ele>644.3</ele>
        <time>2021-05-08T11:47:00Z</time>
      </trkpt>
      <trkpt lat="40.4448260" lon="-3.9898160">
        <ele>644.4</ele>
        <time>2021-05-08T11:47:02Z</time>
      </trkpt>
      <trkpt lat="40.4447600" lon="-3.9898320">
        <ele>644.5</ele>
        <time>2021-05-08T11:47:04Z</time>
      </trkpt>
      <trkpt lat="40.4447120" lon="-3.9898370">
        <ele>644.6</ele>
        <time>2021-05-08T11:47:05Z</time>
      </trkpt>
      <trkpt lat="40.4446650" lon="-3.9898390">
        <ele>644.7</ele>
        <time>2021-05-08T11:47:06Z</time>
      </trkpt>
      <trkpt lat="40.4446220" lon="-3.9898420">
        <ele>644.8</ele>
        <time>2021-05-08T11:47:07Z</time>
      </trkpt>
      <trkpt lat="40.4445780" lon="-3.9898470">
        <ele>644.8</ele>
        <time>2021-05-08T11:47:08Z</time>
      </trkpt>
      <trkpt lat="40.4444910" lon="-3.9898530">
        <ele>645.0</ele>
        <time>2021-05-08T11:47:10Z</time>
      </trkpt>
      <trkpt lat="40.4444170" lon="-3.9898660">
        <ele>645.1</ele>
        <time>2021-05-08T11:47:11Z</time>
      </trkpt>
      <trkpt lat="40.4443670" lon="-3.9898780">
        <ele>645.1</ele>
        <time>2021-05-08T11:47:13Z</time>
      </trkpt>
      <trkpt lat="40.4443180" lon="-3.9898870">
        <ele>645.2</ele>
        <time>2021-05-08T11:47:14Z</time>
      </trkpt>
      <trkpt lat="40.4442710" lon="-3.9898930">
        <ele>645.2</ele>
        <time>2021-05-08T11:47:15Z</time>
      </trkpt>
      <trkpt lat="40.4441910" lon="-3.9899020">
        <ele>645.3</ele>
        <time>2021-05-08T11:47:17Z</time>
      </trkpt>
      <trkpt lat="40.4441180" lon="-3.9899080">
        <ele>645.4</ele>
        <time>2021-05-08T11:47:19Z</time>
      </trkpt>
      <trkpt lat="40.4440640" lon="-3.9899140">
        <ele>645.5</ele>
        <time>2021-05-08T11:47:20Z</time>
      </trkpt>
      <trkpt lat="40.4439840" lon="-3.9899240">
        <ele>645.5</ele>
        <time>2021-05-08T11:47:22Z</time>
      </trkpt>
      <trkpt lat="40.4439190" lon="-3.9899350">
        <ele>645.6</ele>
        <time>2021-05-08T11:47:23Z</time>
      </trkpt>
      <trkpt lat="40.4438460" lon="-3.9899480">
        <ele>645.6</ele>
        <time>2021-05-08T11:47:25Z</time>
      </trkpt>
      <trkpt lat="40.4437990" lon="-3.9899540">
        <ele>645.7</ele>
        <time>2021-05-08T11:47:26Z</time>
      </trkpt>
      <trkpt lat="40.4437470" lon="-3.9899580">
        <ele>645.7</ele>
        <time>2021-05-08T11:47:27Z</time>
      </trkpt>
      <trkpt lat="40.4436540" lon="-3.9899650">
        <ele>645.8</ele>
        <time>2021-05-08T11:47:29Z</time>
      </trkpt>
      <trkpt lat="40.4436080" lon="-3.9899680">
        <ele>645.8</ele>
        <time>2021-05-08T11:47:30Z</time>
      </trkpt>
      <trkpt lat="40.4435680" lon="-3.9899690">
        <ele>645.8</ele>
        <time>2021-05-08T11:47:31Z</time>
      </trkpt>
      <trkpt lat="40.4434810" lon="-3.9899800">
        <ele>645.8</ele>
        <time>2021-05-08T11:47:33Z</time>
      </trkpt>
      <trkpt lat="40.4433920" lon="-3.9899910">
        <ele>645.9</ele>
        <time>2021-05-08T11:47:35Z</time>
      </trkpt>
      <trkpt lat="40.4433560" lon="-3.9899730">
        <ele>645.9</ele>
        <time>2021-05-08T11:47:36Z</time>
      </trkpt>
      <trkpt lat="40.4433050" lon="-3.9899760">
        <ele>645.9</ele>
        <time>2021-05-08T11:47:37Z</time>
      </trkpt>
      <trkpt lat="40.4432500" lon="-3.9899860">
        <ele>645.9</ele>
        <time>2021-05-08T11:47:38Z</time>
      </trkpt>
      <trkpt lat="40.4431960" lon="-3.9899950">
        <ele>646.0</ele>
        <time>2021-05-08T11:47:40Z</time>
      </trkpt>
      <trkpt lat="40.4431510" lon="-3.9900030">
        <ele>646.0</ele>
        <time>2021-05-08T11:47:41Z</time>
      </trkpt>
      <trkpt lat="40.4431030" lon="-3.9900040">
        <ele>646.0</ele>
        <time>2021-05-08T11:47:42Z</time>
      </trkpt>
      <trkpt lat="40.4430640" lon="-3.9900040">
        <ele>646.0</ele>
        <time>2021-05-08T11:47:43Z</time>
      </trkpt>
      <trkpt lat="40.4430260" lon="-3.9900120">
        <ele>646.1</ele>
        <time>2021-05-08T11:47:44Z</time>
      </trkpt>
      <trkpt lat="40.4429820" lon="-3.9900330">
        <ele>646.1</ele>
        <time>2021-05-08T11:47:45Z</time>
      </trkpt>
      <trkpt lat="40.4429380" lon="-3.9900530">
        <ele>646.1</ele>
        <time>2021-05-08T11:47:46Z</time>
      </trkpt>
      <trkpt lat="40.4428870" lon="-3.9900700">
        <ele>646.2</ele>
        <time>2021-05-08T11:47:48Z</time>
      </trkpt>
      <trkpt lat="40.4428510" lon="-3.9900770">
        <ele>646.2</ele>
        <time>2021-05-08T11:47:49Z</time>
      </trkpt>
      <trkpt lat="40.4427930" lon="-3.9900840">
        <ele>646.2</ele>
        <time>2021-05-08T11:47:50Z</time>
      </trkpt>
      <trkpt lat="40.4427380" lon="-3.9901040">
        <ele>646.2</ele>
        <time>2021-05-08T11:47:52Z</time>
      </trkpt>
      <trkpt lat="40.4426680" lon="-3.9901100">
        <ele>646.2</ele>
        <time>2021-05-08T11:47:54Z</time>
      </trkpt>
      <trkpt lat="40.4426190" lon="-3.9901120">
        <ele>646.3</ele>
        <time>2021-05-08T11:47:55Z</time>
      </trkpt>
      <trkpt lat="40.4425630" lon="-3.9901150">
        <ele>646.3</ele>
        <time>2021-05-08T11:47:56Z</time>
      </trkpt>
      <trkpt lat="40.4425080" lon="-3.9901180">
        <ele>646.3</ele>
        <time>2021-05-08T11:47:57Z</time>
      </trkpt>
      <trkpt lat="40.4424610" lon="-3.9901280">
        <ele>646.3</ele>
        <time>2021-05-08T11:47:59Z</time>
      </trkpt>
      <trkpt lat="40.4424110" lon="-3.9901370">
        <ele>646.3</ele>
        <time>2021-05-08T11:48:00Z</time>
      </trkpt>
      <trkpt lat="40.4423690" lon="-3.9901440">
        <ele>646.4</ele>
        <time>2021-05-08T11:48:01Z</time>
      </trkpt>
      <trkpt lat="40.4423250" lon="-3.9901500">
        <ele>646.4</ele>
        <time>2021-05-08T11:48:02Z</time>
      </trkpt>
      <trkpt lat="40.4422650" lon="-3.9901670">
        <ele>646.4</ele>
        <time>2021-05-08T11:48:03Z</time>
      </trkpt>
      <trkpt lat="40.4422270" lon="-3.9901900">
        <ele>646.5</ele>
        <time>2021-05-08T11:48:05Z</time>
      </trkpt>
      <trkpt lat="40.4422320" lon="-3.9901900">
        <ele>646.5</ele>
        <time>2021-05-08T11:48:43Z</time>
      </trkpt>
      <trkpt lat="40.4422300" lon="-3.9901850">
        <ele>646.5</ele>
        <time>2021-05-08T11:48:45Z</time>
      </trkpt>
      <trkpt lat="40.4422260" lon="-3.9901770">
        <ele>646.5</ele>
        <time>2021-05-08T11:48:46Z</time>
      </trkpt>
      <trkpt lat="40.4422140" lon="-3.9901630">
        <ele>646.5</ele>
        <time>2021-05-08T11:48:47Z</time>
      </trkpt>
      <trkpt lat="40.4421970" lon="-3.9901560">
        <ele>646.5</ele>
        <time>2021-05-08T11:48:48Z</time>
      </trkpt>
      <trkpt lat="40.4421820" lon="-3.9901520">
        <ele>646.5</ele>
        <time>2021-05-08T11:48:49Z</time>
      </trkpt>
      <trkpt lat="40.4421520" lon="-3.9901570">
        <ele>646.5</ele>
        <time>2021-05-08T11:48:50Z</time>
      </trkpt>
      <trkpt lat="40.4421260" lon="-3.9901770">
        <ele>646.5</ele>
        <time>2021-05-08T11:48:52Z</time>
      </trkpt>
      <trkpt lat="40.4420970" lon="-3.9901810">
        <ele>646.6</ele>
        <time>2021-05-08T11:48:53Z</time>
      </trkpt>
      <trkpt lat="40.4420580" lon="-3.9901860">
        <ele>646.6</ele>
        <time>2021-05-08T11:48:54Z</time>
      </trkpt>
      <trkpt lat="40.4420080" lon="-3.9902020">
        <ele>646.6</ele>
        <time>2021-05-08T11:48:56Z</time>
      </trkpt>
      <trkpt lat="40.4419560" lon="-3.9902150">
        <ele>646.6</ele>
        <time>2021-05-08T11:48:57Z</time>
      </trkpt>
      <trkpt lat="40.4419180" lon="-3.9902330">
        <ele>646.7</ele>
        <time>2021-05-08T11:48:59Z</time>
      </trkpt>
      <trkpt lat="40.4418740" lon="-3.9902460">
        <ele>646.7</ele>
        <time>2021-05-08T11:49:00Z</time>
      </trkpt>
      <trkpt lat="40.4418040" lon="-3.9902640">
        <ele>646.7</ele>
        <time>2021-05-08T11:49:01Z</time>
      </trkpt>
      <trkpt lat="40.4417500" lon="-3.9902740">
        <ele>646.7</ele>
        <time>2021-05-08T11:49:03Z</time>
      </trkpt>
      <trkpt lat="40.4417050" lon="-3.9902800">
        <ele>646.7</ele>
        <time>2021-05-08T11:49:04Z</time>
      </trkpt>
      <trkpt lat="40.4416580" lon="-3.9902880">
        <ele>646.8</ele>
        <time>2021-05-08T11:49:06Z</time>
      </trkpt>
      <trkpt lat="40.4416220" lon="-3.9902950">
        <ele>646.8</ele>
        <time>2021-05-08T11:49:07Z</time>
      </trkpt>
      <trkpt lat="40.4415720" lon="-3.9903050">
        <ele>646.8</ele>
        <time>2021-05-08T11:49:09Z</time>
      </trkpt>
      <trkpt lat="40.4415180" lon="-3.9903240">
        <ele>646.8</ele>
        <time>2021-05-08T11:49:11Z</time>
      </trkpt>
      <trkpt lat="40.4414800" lon="-3.9903350">
        <ele>646.8</ele>
        <time>2021-05-08T11:49:12Z</time>
      </trkpt>
      <trkpt lat="40.4414230" lon="-3.9903530">
        <ele>646.8</ele>
        <time>2021-05-08T11:49:14Z</time>
      </trkpt>
      <trkpt lat="40.4413790" lon="-3.9903690">
        <ele>646.8</ele>
        <time>2021-05-08T11:49:15Z</time>
      </trkpt>
      <trkpt lat="40.4413250" lon="-3.9903880">
        <ele>646.8</ele>
        <time>2021-05-08T11:49:17Z</time>
      </trkpt>
      <trkpt lat="40.4412730" lon="-3.9904060">
        <ele>646.8</ele>
        <time>2021-05-08T11:49:18Z</time>
      </trkpt>
      <trkpt lat="40.4412220" lon="-3.9904250">
        <ele>646.7</ele>
        <time>2021-05-08T11:49:19Z</time>
      </trkpt>
      <trkpt lat="40.4411870" lon="-3.9904340">
        <ele>646.7</ele>
        <time>2021-05-08T11:49:21Z</time>
      </trkpt>
      <trkpt lat="40.4411490" lon="-3.9904530">
        <ele>646.7</ele>
        <time>2021-05-08T11:49:22Z</time>
      </trkpt>
      <trkpt lat="40.4411160" lon="-3.9904620">
        <ele>646.6</ele>
        <time>2021-05-08T11:49:23Z</time>
      </trkpt>
      <trkpt lat="40.4410830" lon="-3.9904730">
        <ele>646.6</ele>
        <time>2021-05-08T11:49:24Z</time>
      </trkpt>
      <trkpt lat="40.4410490" lon="-3.9904870">
        <ele>646.6</ele>
        <time>2021-05-08T11:49:25Z</time>
      </trkpt>
      <trkpt lat="40.4409980" lon="-3.9905040">
        <ele>646.5</ele>
        <time>2021-05-08T11:49:26Z</time>
      </trkpt>
      <trkpt lat="40.4409530" lon="-3.9905280">
        <ele>646.5</ele>
        <time>2021-05-08T11:49:28Z</time>
      </trkpt>
      <trkpt lat="40.4409180" lon="-3.9905420">
        <ele>646.4</ele>
        <time>2021-05-08T11:49:29Z</time>
      </trkpt>
      <trkpt lat="40.4408630" lon="-3.9905610">
        <ele>646.3</ele>
        <time>2021-05-08T11:49:30Z</time>
      </trkpt>
      <trkpt lat="40.4408240" lon="-3.9905730">
        <ele>646.2</ele>
        <time>2021-05-08T11:49:31Z</time>
      </trkpt>
      <trkpt lat="40.4407720" lon="-3.9905940">
        <ele>646.1</ele>
        <time>2021-05-08T11:49:33Z</time>
      </trkpt>
      <trkpt lat="40.4407250" lon="-3.9906100">
        <ele>646.1</ele>
        <time>2021-05-08T11:49:34Z</time>
      </trkpt>
      <trkpt lat="40.4406560" lon="-3.9906320">
        <ele>645.9</ele>
        <time>2021-05-08T11:49:36Z</time>
      </trkpt>
      <trkpt lat="40.4406140" lon="-3.9906530">
        <ele>645.8</ele>
        <time>2021-05-08T11:49:37Z</time>
      </trkpt>
      <trkpt lat="40.4405510" lon="-3.9906840">
        <ele>645.7</ele>
        <time>2021-05-08T11:49:38Z</time>
      </trkpt>
      <trkpt lat="40.4404810" lon="-3.9907230">
        <ele>645.6</ele>
        <time>2021-05-08T11:49:40Z</time>
      </trkpt>
      <trkpt lat="40.4404360" lon="-3.9907440">
        <ele>645.5</ele>
        <time>2021-05-08T11:49:41Z</time>
      </trkpt>
      <trkpt lat="40.4403940" lon="-3.9907620">
        <ele>645.3</ele>
        <time>2021-05-08T11:49:42Z</time>
      </trkpt>
      <trkpt lat="40.4402870" lon="-3.9908160">
        <ele>645.0</ele>
        <time>2021-05-08T11:49:44Z</time>
      </trkpt>
      <trkpt lat="40.4401990" lon="-3.9908700">
        <ele>644.8</ele>
        <time>2021-05-08T11:49:46Z</time>
      </trkpt>
      <trkpt lat="40.4401020" lon="-3.9909280">
        <ele>644.5</ele>
        <time>2021-05-08T11:49:48Z</time>
      </trkpt>
      <trkpt lat="40.4400080" lon="-3.9909790">
        <ele>644.3</ele>
        <time>2021-05-08T11:49:50Z</time>
      </trkpt>
      <trkpt lat="40.4399630" lon="-3.9910040">
        <ele>644.2</ele>
        <time>2021-05-08T11:49:51Z</time>
      </trkpt>
      <trkpt lat="40.4398690" lon="-3.9910470">
        <ele>644.0</ele>
        <time>2021-05-08T11:49:53Z</time>
      </trkpt>
      <trkpt lat="40.4398250" lon="-3.9910650">
        <ele>644.0</ele>
        <time>2021-05-08T11:49:54Z</time>
      </trkpt>
      <trkpt lat="40.4397850" lon="-3.9910860">
        <ele>643.9</ele>
        <time>2021-05-08T11:49:55Z</time>
      </trkpt>
      <trkpt lat="40.4397640" lon="-3.9911050">
        <ele>643.9</ele>
        <time>2021-05-08T11:49:56Z</time>
      </trkpt>
      <trkpt lat="40.4396910" lon="-3.9911900">
        <ele>643.8</ele>
        <time>2021-05-08T11:49:58Z</time>
      </trkpt>
      <trkpt lat="40.4396620" lon="-3.9912450">
        <ele>643.8</ele>
        <time>2021-05-08T11:49:59Z</time>
      </trkpt>
      <trkpt lat="40.4396200" lon="-3.9913500">
        <ele>643.8</ele>
        <time>2021-05-08T11:50:01Z</time>
      </trkpt>
      <trkpt lat="40.4395880" lon="-3.9913760">
        <ele>643.9</ele>
        <time>2021-05-08T11:50:02Z</time>
      </trkpt>
      <trkpt lat="40.4394970" lon="-3.9914290">
        <ele>643.8</ele>
        <time>2021-05-08T11:50:04Z</time>
      </trkpt>
      <trkpt lat="40.4393840" lon="-3.9914370">
        <ele>643.7</ele>
        <time>2021-05-08T11:50:06Z</time>
      </trkpt>
      <trkpt lat="40.4393270" lon="-3.9914300">
        <ele>643.6</ele>
        <time>2021-05-08T11:50:07Z</time>
      </trkpt>
      <trkpt lat="40.4392700" lon="-3.9914230">
        <ele>643.6</ele>
        <time>2021-05-08T11:50:08Z</time>
      </trkpt>
      <trkpt lat="40.4391600" lon="-3.9914230">
        <ele>643.5</ele>
        <time>2021-05-08T11:50:10Z</time>
      </trkpt>
      <trkpt lat="40.4391040" lon="-3.9914380">
        <ele>643.5</ele>
        <time>2021-05-08T11:50:11Z</time>
      </trkpt>
      <trkpt lat="40.4390550" lon="-3.9914590">
        <ele>643.5</ele>
        <time>2021-05-08T11:50:12Z</time>
      </trkpt>
      <trkpt lat="40.4390120" lon="-3.9914840">
        <ele>643.5</ele>
        <time>2021-05-08T11:50:13Z</time>
      </trkpt>
      <trkpt lat="40.4389300" lon="-3.9915260">
        <ele>643.6</ele>
        <time>2021-05-08T11:50:15Z</time>
      </trkpt>
      <trkpt lat="40.4388430" lon="-3.9915750">
        <ele>643.7</ele>
        <time>2021-05-08T11:50:17Z</time>
      </trkpt>
      <trkpt lat="40.4387550" lon="-3.9916290">
        <ele>643.8</ele>
        <time>2021-05-08T11:50:19Z</time>
      </trkpt>
      <trkpt lat="40.4387090" lon="-3.9916560">
        <ele>643.9</ele>
        <time>2021-05-08T11:50:20Z</time>
      </trkpt>
      <trkpt lat="40.4386190" lon="-3.9917100">
        <ele>644.1</ele>
        <time>2021-05-08T11:50:22Z</time>
      </trkpt>
      <trkpt lat="40.4385740" lon="-3.9917340">
        <ele>644.1</ele>
        <time>2021-05-08T11:50:23Z</time>
      </trkpt>
      <trkpt lat="40.4384830" lon="-3.9917840">
        <ele>644.4</ele>
        <time>2021-05-08T11:50:25Z</time>
      </trkpt>
      <trkpt lat="40.4384380" lon="-3.9918000">
        <ele>644.5</ele>
        <time>2021-05-08T11:50:26Z</time>
      </trkpt>
      <trkpt lat="40.4383690" lon="-3.9918270">
        <ele>644.6</ele>
        <time>2021-05-08T11:50:28Z</time>
      </trkpt>
      <trkpt lat="40.4382920" lon="-3.9918710">
        <ele>644.8</ele>
        <time>2021-05-08T11:50:30Z</time>
      </trkpt>
      <trkpt lat="40.4382640" lon="-3.9918870">
        <ele>644.9</ele>
        <time>2021-05-08T11:50:31Z</time>
      </trkpt>
      <trkpt lat="40.4382210" lon="-3.9919140">
        <ele>645.0</ele>
        <time>2021-05-08T11:50:32Z</time>
      </trkpt>
      <trkpt lat="40.4382010" lon="-3.9919250">
        <ele>645.0</ele>
        <time>2021-05-08T11:50:33Z</time>
      </trkpt>
      <trkpt lat="40.4381520" lon="-3.9919450">
        <ele>645.1</ele>
        <time>2021-05-08T11:50:34Z</time>
      </trkpt>
      <trkpt lat="40.4381050" lon="-3.9919830">
        <ele>645.3</ele>
        <time>2021-05-08T11:50:35Z</time>
      </trkpt>
      <trkpt lat="40.4380510" lon="-3.9920190">
        <ele>645.4</ele>
        <time>2021-05-08T11:50:37Z</time>
      </trkpt>
      <trkpt lat="40.4379880" lon="-3.9920470">
        <ele>645.6</ele>
        <time>2021-05-08T11:50:38Z</time>
      </trkpt>
      <trkpt lat="40.4379360" lon="-3.9920670">
        <ele>645.7</ele>
        <time>2021-05-08T11:50:40Z</time>
      </trkpt>
      <trkpt lat="40.4378890" lon="-3.9920930">
        <ele>645.8</ele>
        <time>2021-05-08T11:50:41Z</time>
      </trkpt>
      <trkpt lat="40.4378520" lon="-3.9921110">
        <ele>645.9</ele>
        <time>2021-05-08T11:50:42Z</time>
      </trkpt>
      <trkpt lat="40.4377750" lon="-3.9921430">
        <ele>646.1</ele>
        <time>2021-05-08T11:50:44Z</time>
      </trkpt>
      <trkpt lat="40.4377000" lon="-3.9921820">
        <ele>646.3</ele>
        <time>2021-05-08T11:50:46Z</time>
      </trkpt>
      <trkpt lat="40.4376310" lon="-3.9922220">
        <ele>646.5</ele>
        <time>2021-05-08T11:50:48Z</time>
      </trkpt>
      <trkpt lat="40.4375810" lon="-3.9922490">
        <ele>646.6</ele>
        <time>2021-05-08T11:50:49Z</time>
      </trkpt>
      <trkpt lat="40.4375080" lon="-3.9922910">
        <ele>646.7</ele>
        <time>2021-05-08T11:50:51Z</time>
      </trkpt>
      <trkpt lat="40.4374720" lon="-3.9923100">
        <ele>646.8</ele>
        <time>2021-05-08T11:50:52Z</time>
      </trkpt>
      <trkpt lat="40.4374350" lon="-3.9923290">
        <ele>646.9</ele>
        <time>2021-05-08T11:50:53Z</time>
      </trkpt>
      <trkpt lat="40.4373990" lon="-3.9923470">
        <ele>647.0</ele>
        <time>2021-05-08T11:50:54Z</time>
      </trkpt>
      <trkpt lat="40.4373640" lon="-3.9923650">
        <ele>647.1</ele>
        <time>2021-05-08T11:50:55Z</time>
      </trkpt>
      <trkpt lat="40.4373140" lon="-3.9923880">
        <ele>647.2</ele>
        <time>2021-05-08T11:50:56Z</time>
      </trkpt>
      <trkpt lat="40.4372670" lon="-3.9924150">
        <ele>647.3</ele>
        <time>2021-05-08T11:50:58Z</time>
      </trkpt>
      <trkpt lat="40.4372200" lon="-3.9924410">
        <ele>647.4</ele>
        <time>2021-05-08T11:50:59Z</time>
      </trkpt>
      <trkpt lat="40.4371820" lon="-3.9924620">
        <ele>647.5</ele>
        <time>2021-05-08T11:51:00Z</time>
      </trkpt>
      <trkpt lat="40.4371340" lon="-3.9924910">
        <ele>647.6</ele>
        <time>2021-05-08T11:51:01Z</time>
      </trkpt>
      <trkpt lat="40.4370850" lon="-3.9925150">
        <ele>647.7</ele>
        <time>2021-05-08T11:51:02Z</time>
      </trkpt>
      <trkpt lat="40.4370330" lon="-3.9925420">
        <ele>647.8</ele>
        <time>2021-05-08T11:51:04Z</time>
      </trkpt>
      <trkpt lat="40.4369600" lon="-3.9925870">
        <ele>648.0</ele>
        <time>2021-05-08T11:51:06Z</time>
      </trkpt>
      <trkpt lat="40.4369200" lon="-3.9926110">
        <ele>648.1</ele>
        <time>2021-05-08T11:51:07Z</time>
      </trkpt>
      <trkpt lat="40.4368710" lon="-3.9926390">
        <ele>648.2</ele>
        <time>2021-05-08T11:51:08Z</time>
      </trkpt>
      <trkpt lat="40.4368300" lon="-3.9926640">
        <ele>648.3</ele>
        <time>2021-05-08T11:51:09Z</time>
      </trkpt>
      <trkpt lat="40.4367780" lon="-3.9926860">
        <ele>648.4</ele>
        <time>2021-05-08T11:51:11Z</time>
      </trkpt>
      <trkpt lat="40.4367220" lon="-3.9927180">
        <ele>648.5</ele>
        <time>2021-05-08T11:51:13Z</time>
      </trkpt>
      <trkpt lat="40.4366840" lon="-3.9927430">
        <ele>648.6</ele>
        <time>2021-05-08T11:51:14Z</time>
      </trkpt>
      <trkpt lat="40.4366520" lon="-3.9927650">
        <ele>648.7</ele>
        <time>2021-05-08T11:51:15Z</time>
      </trkpt>
      <trkpt lat="40.4365860" lon="-3.9928120">
        <ele>648.8</ele>
        <time>2021-05-08T11:51:17Z</time>
      </trkpt>
      <trkpt lat="40.4365530" lon="-3.9928370">
        <ele>648.9</ele>
        <time>2021-05-08T11:51:18Z</time>
      </trkpt>
      <trkpt lat="40.4365150" lon="-3.9928600">
        <ele>649.0</ele>
        <time>2021-05-08T11:51:19Z</time>
      </trkpt>
      <trkpt lat="40.4364660" lon="-3.9928930">
        <ele>649.1</ele>
        <time>2021-05-08T11:51:21Z</time>
      </trkpt>
      <trkpt lat="40.4364200" lon="-3.9929260">
        <ele>649.2</ele>
        <time>2021-05-08T11:51:22Z</time>
      </trkpt>
      <trkpt lat="40.4363570" lon="-3.9929660">
        <ele>649.3</ele>
        <time>2021-05-08T11:51:24Z</time>
      </trkpt>
      <trkpt lat="40.4362940" lon="-3.9930010">
        <ele>649.4</ele>
        <time>2021-05-08T11:51:25Z</time>
      </trkpt>
      <trkpt lat="40.4362420" lon="-3.9930280">
        <ele>649.5</ele>
        <time>2021-05-08T11:51:27Z</time>
      </trkpt>
      <trkpt lat="40.4362060" lon="-3.9930460">
        <ele>649.5</ele>
        <time>2021-05-08T11:51:28Z</time>
      </trkpt>
      <trkpt lat="40.4361660" lon="-3.9930690">
        <ele>649.5</ele>
        <time>2021-05-08T11:51:29Z</time>
      </trkpt>
      <trkpt lat="40.4360960" lon="-3.9931120">
        <ele>649.6</ele>
        <time>2021-05-08T11:51:31Z</time>
      </trkpt>
      <trkpt lat="40.4360270" lon="-3.9931570">
        <ele>649.7</ele>
        <time>2021-05-08T11:51:33Z</time>
      </trkpt>
      <trkpt lat="40.4359520" lon="-3.9932020">
        <ele>649.7</ele>
        <time>2021-05-08T11:51:35Z</time>
      </trkpt>
      <trkpt lat="40.4359140" lon="-3.9932240">
        <ele>649.7</ele>
        <time>2021-05-08T11:51:36Z</time>
      </trkpt>
      <trkpt lat="40.4358490" lon="-3.9932580">
        <ele>649.8</ele>
        <time>2021-05-08T11:51:38Z</time>
      </trkpt>
      <trkpt lat="40.4357960" lon="-3.9932810">
        <ele>649.8</ele>
        <time>2021-05-08T11:51:39Z</time>
      </trkpt>
      <trkpt lat="40.4357410" lon="-3.9933090">
        <ele>649.8</ele>
        <time>2021-05-08T11:51:40Z</time>
      </trkpt>
      <trkpt lat="40.4356960" lon="-3.9933390">
        <ele>649.8</ele>
        <time>2021-05-08T11:51:42Z</time>
      </trkpt>
      <trkpt lat="40.4356550" lon="-3.9933700">
        <ele>649.9</ele>
        <time>2021-05-08T11:51:43Z</time>
      </trkpt>
      <trkpt lat="40.4355850" lon="-3.9934180">
        <ele>649.9</ele>
        <time>2021-05-08T11:51:45Z</time>
      </trkpt>
      <trkpt lat="40.4355330" lon="-3.9934550">
        <ele>649.9</ele>
        <time>2021-05-08T11:51:46Z</time>
      </trkpt>
      <trkpt lat="40.4354730" lon="-3.9934920">
        <ele>649.9</ele>
        <time>2021-05-08T11:51:48Z</time>
      </trkpt>
      <trkpt lat="40.4354380" lon="-3.9935190">
        <ele>649.9</ele>
        <time>2021-05-08T11:51:49Z</time>
      </trkpt>
      <trkpt lat="40.4353970" lon="-3.9935430">
        <ele>650.0</ele>
        <time>2021-05-08T11:51:50Z</time>
      </trkpt>
      <trkpt lat="40.4353450" lon="-3.9935800">
        <ele>650.0</ele>
        <time>2021-05-08T11:51:51Z</time>
      </trkpt>
      <trkpt lat="40.4352980" lon="-3.9936160">
        <ele>650.0</ele>
        <time>2021-05-08T11:51:53Z</time>
      </trkpt>
      <trkpt lat="40.4352360" lon="-3.9936570">
        <ele>650.0</ele>
        <time>2021-05-08T11:51:55Z</time>
      </trkpt>
      <trkpt lat="40.4351860" lon="-3.9936900">
        <ele>650.0</ele>
        <time>2021-05-08T11:51:56Z</time>
      </trkpt>
      <trkpt lat="40.4351440" lon="-3.9937180">
        <ele>650.0</ele>
        <time>2021-05-08T11:51:57Z</time>
      </trkpt>
      <trkpt lat="40.4351050" lon="-3.9937430">
        <ele>650.0</ele>
        <time>2021-05-08T11:51:58Z</time>
      </trkpt>
      <trkpt lat="40.4350530" lon="-3.9937830">
        <ele>650.0</ele>
        <time>2021-05-08T11:52:00Z</time>
      </trkpt>
      <trkpt lat="40.4350180" lon="-3.9938160">
        <ele>650.0</ele>
        <time>2021-05-08T11:52:01Z</time>
      </trkpt>
      <trkpt lat="40.4349850" lon="-3.9938440">
        <ele>650.0</ele>
        <time>2021-05-08T11:52:02Z</time>
      </trkpt>
      <trkpt lat="40.4349420" lon="-3.9938750">
        <ele>650.0</ele>
        <time>2021-05-08T11:52:03Z</time>
      </trkpt>
      <trkpt lat="40.4349090" lon="-3.9939030">
        <ele>650.1</ele>
        <time>2021-05-08T11:52:04Z</time>
      </trkpt>
      <trkpt lat="40.4348670" lon="-3.9939400">
        <ele>650.1</ele>
        <time>2021-05-08T11:52:05Z</time>
      </trkpt>
      <trkpt lat="40.4348320" lon="-3.9939680">
        <ele>650.1</ele>
        <time>2021-05-08T11:52:06Z</time>
      </trkpt>
      <trkpt lat="40.4347870" lon="-3.9940040">
        <ele>650.1</ele>
        <time>2021-05-08T11:52:08Z</time>
      </trkpt>
      <trkpt lat="40.4347450" lon="-3.9940430">
        <ele>650.1</ele>
        <time>2021-05-08T11:52:09Z</time>
      </trkpt>
      <trkpt lat="40.4347110" lon="-3.9940740">
        <ele>650.1</ele>
        <time>2021-05-08T11:52:10Z</time>
      </trkpt>
      <trkpt lat="40.4346650" lon="-3.9941180">
        <ele>650.1</ele>
        <time>2021-05-08T11:52:12Z</time>
      </trkpt>
      <trkpt lat="40.4346310" lon="-3.9941490">
        <ele>650.1</ele>
        <time>2021-05-08T11:52:13Z</time>
      </trkpt>
      <trkpt lat="40.4345980" lon="-3.9941790">
        <ele>650.2</ele>
        <time>2021-05-08T11:52:14Z</time>
      </trkpt>
      <trkpt lat="40.4345350" lon="-3.9942410">
        <ele>650.2</ele>
        <time>2021-05-08T11:52:16Z</time>
      </trkpt>
      <trkpt lat="40.4344960" lon="-3.9942750">
        <ele>650.2</ele>
        <time>2021-05-08T11:52:17Z</time>
      </trkpt>
      <trkpt lat="40.4344630" lon="-3.9943020">
        <ele>650.2</ele>
        <time>2021-05-08T11:52:18Z</time>
      </trkpt>
      <trkpt lat="40.4344280" lon="-3.9943320">
        <ele>650.2</ele>
        <time>2021-05-08T11:52:19Z</time>
      </trkpt>
      <trkpt lat="40.4343890" lon="-3.9943700">
        <ele>650.2</ele>
        <time>2021-05-08T11:52:20Z</time>
      </trkpt>
      <trkpt lat="40.4343450" lon="-3.9944110">
        <ele>650.2</ele>
        <time>2021-05-08T11:52:22Z</time>
      </trkpt>
      <trkpt lat="40.4343100" lon="-3.9944450">
        <ele>650.2</ele>
        <time>2021-05-08T11:52:23Z</time>
      </trkpt>
      <trkpt lat="40.4342750" lon="-3.9944800">
        <ele>650.3</ele>
        <time>2021-05-08T11:52:24Z</time>
      </trkpt>
      <trkpt lat="40.4342220" lon="-3.9945300">
        <ele>650.3</ele>
        <time>2021-05-08T11:52:26Z</time>
      </trkpt>
      <trkpt lat="40.4341650" lon="-3.9945850">
        <ele>650.3</ele>
        <time>2021-05-08T11:52:27Z</time>
      </trkpt>
      <trkpt lat="40.4341270" lon="-3.9946200">
        <ele>650.3</ele>
        <time>2021-05-08T11:52:29Z</time>
      </trkpt>
      <trkpt lat="40.4340900" lon="-3.9946630">
        <ele>650.4</ele>
        <time>2021-05-08T11:52:30Z</time>
      </trkpt>
      <trkpt lat="40.4340480" lon="-3.9947090">
        <ele>650.4</ele>
        <time>2021-05-08T11:52:31Z</time>
      </trkpt>
      <trkpt lat="40.4340100" lon="-3.9947440">
        <ele>650.4</ele>
        <time>2021-05-08T11:52:33Z</time>
      </trkpt>
      <trkpt lat="40.4339620" lon="-3.9947980">
        <ele>650.5</ele>
        <time>2021-05-08T11:52:34Z</time>
      </trkpt>
      <trkpt lat="40.4339320" lon="-3.9948340">
        <ele>650.5</ele>
        <time>2021-05-08T11:52:35Z</time>
      </trkpt>
      <trkpt lat="40.4338760" lon="-3.9949000">
        <ele>650.6</ele>
        <time>2021-05-08T11:52:37Z</time>
      </trkpt>
      <trkpt lat="40.4338490" lon="-3.9949350">
        <ele>650.7</ele>
        <time>2021-05-08T11:52:38Z</time>
      </trkpt>
      <trkpt lat="40.4338210" lon="-3.9949690">
        <ele>650.7</ele>
        <time>2021-05-08T11:52:39Z</time>
      </trkpt>
      <trkpt lat="40.4337700" lon="-3.9950290">
        <ele>650.8</ele>
        <time>2021-05-08T11:52:41Z</time>
      </trkpt>
      <trkpt lat="40.4337330" lon="-3.9950730">
        <ele>650.9</ele>
        <time>2021-05-08T11:52:42Z</time>
      </trkpt>
      <trkpt lat="40.4336900" lon="-3.9951260">
        <ele>651.0</ele>
        <time>2021-05-08T11:52:43Z</time>
      </trkpt>
      <trkpt lat="40.4336460" lon="-3.9951760">
        <ele>651.1</ele>
        <time>2021-05-08T11:52:45Z</time>
      </trkpt>
      <trkpt lat="40.4335930" lon="-3.9952380">
        <ele>651.3</ele>
        <time>2021-05-08T11:52:47Z</time>
      </trkpt>
      <trkpt lat="40.4335630" lon="-3.9952730">
        <ele>651.4</ele>
        <time>2021-05-08T11:52:48Z</time>
      </trkpt>
      <trkpt lat="40.4335250" lon="-3.9953200">
        <ele>651.5</ele>
        <time>2021-05-08T11:52:49Z</time>
      </trkpt>
      <trkpt lat="40.4334910" lon="-3.9953630">
        <ele>651.6</ele>
        <time>2021-05-08T11:52:50Z</time>
      </trkpt>
      <trkpt lat="40.4334570" lon="-3.9954080">
        <ele>651.7</ele>
        <time>2021-05-08T11:52:52Z</time>
      </trkpt>
      <trkpt lat="40.4334250" lon="-3.9954570">
        <ele>651.9</ele>
        <time>2021-05-08T11:52:53Z</time>
      </trkpt>
      <trkpt lat="40.4333940" lon="-3.9954980">
        <ele>652.0</ele>
        <time>2021-05-08T11:52:54Z</time>
      </trkpt>
      <trkpt lat="40.4333600" lon="-3.9955490">
        <ele>652.1</ele>
        <time>2021-05-08T11:52:55Z</time>
      </trkpt>
      <trkpt lat="40.4333260" lon="-3.9956020">
        <ele>652.2</ele>
        <time>2021-05-08T11:52:57Z</time>
      </trkpt>
      <trkpt lat="40.4333000" lon="-3.9956390">
        <ele>652.3</ele>
        <time>2021-05-08T11:52:58Z</time>
      </trkpt>
      <trkpt lat="40.4332630" lon="-3.9956900">
        <ele>652.5</ele>
        <time>2021-05-08T11:52:59Z</time>
      </trkpt>
      <trkpt lat="40.4332330" lon="-3.9957400">
        <ele>652.6</ele>
        <time>2021-05-08T11:53:01Z</time>
      </trkpt>
      <trkpt lat="40.4332020" lon="-3.9957970">
        <ele>652.7</ele>
        <time>2021-05-08T11:53:02Z</time>
      </trkpt>
      <trkpt lat="40.4331790" lon="-3.9958390">
        <ele>652.9</ele>
        <time>2021-05-08T11:53:03Z</time>
      </trkpt>
      <trkpt lat="40.4331400" lon="-3.9959090">
        <ele>653.0</ele>
        <time>2021-05-08T11:53:04Z</time>
      </trkpt>
      <trkpt lat="40.4331140" lon="-3.9959550">
        <ele>653.2</ele>
        <time>2021-05-08T11:53:06Z</time>
      </trkpt>
      <trkpt lat="40.4330850" lon="-3.9960180">
        <ele>653.3</ele>
        <time>2021-05-08T11:53:07Z</time>
      </trkpt>
      <trkpt lat="40.4330660" lon="-3.9960650">
        <ele>653.4</ele>
        <time>2021-05-08T11:53:08Z</time>
      </trkpt>
      <trkpt lat="40.4330390" lon="-3.9961210">
        <ele>653.6</ele>
        <time>2021-05-08T11:53:10Z</time>
      </trkpt>
      <trkpt lat="40.4330200" lon="-3.9961600">
        <ele>653.7</ele>
        <time>2021-05-08T11:53:11Z</time>
      </trkpt>
      <trkpt lat="40.4329960" lon="-3.9962000">
        <ele>653.8</ele>
        <time>2021-05-08T11:53:12Z</time>
      </trkpt>
      <trkpt lat="40.4329760" lon="-3.9962250">
        <ele>653.9</ele>
        <time>2021-05-08T11:53:13Z</time>
      </trkpt>
      <trkpt lat="40.4329600" lon="-3.9962700">
        <ele>654.0</ele>
        <time>2021-05-08T11:53:15Z</time>
      </trkpt>
      <trkpt lat="40.4329550" lon="-3.9963070">
        <ele>654.2</ele>
        <time>2021-05-08T11:53:17Z</time>
      </trkpt>
      <trkpt lat="40.4329500" lon="-3.9963400">
        <ele>654.2</ele>
        <time>2021-05-08T11:53:18Z</time>
      </trkpt>
      <trkpt lat="40.4329390" lon="-3.9964090">
        <ele>654.3</ele>
        <time>2021-05-08T11:53:20Z</time>
      </trkpt>
      <trkpt lat="40.4329430" lon="-3.9964490">
        <ele>654.4</ele>
        <time>2021-05-08T11:53:21Z</time>
      </trkpt>
      <trkpt lat="40.4329470" lon="-3.9964970">
        <ele>654.5</ele>
        <time>2021-05-08T11:53:22Z</time>
      </trkpt>
      <trkpt lat="40.4329490" lon="-3.9965160">
        <ele>654.6</ele>
        <time>2021-05-08T11:53:23Z</time>
      </trkpt>
      <trkpt lat="40.4329660" lon="-3.9965720">
        <ele>654.7</ele>
        <time>2021-05-08T11:53:25Z</time>
      </trkpt>
      <trkpt lat="40.4329820" lon="-3.9966540">
        <ele>654.8</ele>
        <time>2021-05-08T11:53:27Z</time>
      </trkpt>
      <trkpt lat="40.4329850" lon="-3.9967050">
        <ele>654.9</ele>
        <time>2021-05-08T11:53:28Z</time>
      </trkpt>
      <trkpt lat="40.4329770" lon="-3.9967790">
        <ele>655.0</ele>
        <time>2021-05-08T11:53:29Z</time>
      </trkpt>
      <trkpt lat="40.4329570" lon="-3.9968300">
        <ele>655.1</ele>
        <time>2021-05-08T11:53:31Z</time>
      </trkpt>
      <trkpt lat="40.4329330" lon="-3.9968790">
        <ele>655.2</ele>
        <time>2021-05-08T11:53:32Z</time>
      </trkpt>
      <trkpt lat="40.4329050" lon="-3.9969360">
        <ele>655.3</ele>
        <time>2021-05-08T11:53:33Z</time>
      </trkpt>
      <trkpt lat="40.4328790" lon="-3.9969640">
        <ele>655.3</ele>
        <time>2021-05-08T11:53:35Z</time>
      </trkpt>
      <trkpt lat="40.4328460" lon="-3.9969920">
        <ele>655.3</ele>
        <time>2021-05-08T11:53:36Z</time>
      </trkpt>
      <trkpt lat="40.4328040" lon="-3.9970270">
        <ele>655.4</ele>
        <time>2021-05-08T11:53:37Z</time>
      </trkpt>
      <trkpt lat="40.4327630" lon="-3.9970660">
        <ele>655.5</ele>
        <time>2021-05-08T11:53:39Z</time>
      </trkpt>
      <trkpt lat="40.4327350" lon="-3.9971060">
        <ele>655.6</ele>
        <time>2021-05-08T11:53:40Z</time>
      </trkpt>
      <trkpt lat="40.4327030" lon="-3.9971810">
        <ele>655.6</ele>
        <time>2021-05-08T11:53:41Z</time>
      </trkpt>
      <trkpt lat="40.4326910" lon="-3.9972400">
        <ele>655.7</ele>
        <time>2021-05-08T11:53:42Z</time>
      </trkpt>
      <trkpt lat="40.4326720" lon="-3.9973650">
        <ele>655.7</ele>
        <time>2021-05-08T11:53:44Z</time>
      </trkpt>
      <trkpt lat="40.4326620" lon="-3.9974280">
        <ele>655.8</ele>
        <time>2021-05-08T11:53:46Z</time>
      </trkpt>
      <trkpt lat="40.4326540" lon="-3.9975070">
        <ele>655.8</ele>
        <time>2021-05-08T11:53:47Z</time>
      </trkpt>
      <trkpt lat="40.4326470" lon="-3.9975980">
        <ele>655.9</ele>
        <time>2021-05-08T11:53:48Z</time>
      </trkpt>
      <trkpt lat="40.4326380" lon="-3.9976710">
        <ele>655.9</ele>
        <time>2021-05-08T11:53:50Z</time>
      </trkpt>
      <trkpt lat="40.4326300" lon="-3.9977330">
        <ele>656.0</ele>
        <time>2021-05-08T11:53:51Z</time>
      </trkpt>
      <trkpt lat="40.4326250" lon="-3.9977900">
        <ele>656.0</ele>
        <time>2021-05-08T11:53:52Z</time>
      </trkpt>
      <trkpt lat="40.4326210" lon="-3.9978460">
        <ele>656.1</ele>
        <time>2021-05-08T11:53:53Z</time>
      </trkpt>
      <trkpt lat="40.4326090" lon="-3.9979440">
        <ele>656.2</ele>
        <time>2021-05-08T11:53:55Z</time>
      </trkpt>
      <trkpt lat="40.4326040" lon="-3.9980030">
        <ele>656.2</ele>
        <time>2021-05-08T11:53:56Z</time>
      </trkpt>
      <trkpt lat="40.4326000" lon="-3.9980640">
        <ele>656.3</ele>
        <time>2021-05-08T11:53:57Z</time>
      </trkpt>
      <trkpt lat="40.4325920" lon="-3.9981660">
        <ele>656.4</ele>
        <time>2021-05-08T11:53:58Z</time>
      </trkpt>
      <trkpt lat="40.4325880" lon="-3.9982360">
        <ele>656.4</ele>
        <time>2021-05-08T11:54:00Z</time>
      </trkpt>
      <trkpt lat="40.4325850" lon="-3.9983000">
        <ele>656.5</ele>
        <time>2021-05-08T11:54:01Z</time>
      </trkpt>
      <trkpt lat="40.4325820" lon="-3.9984070">
        <ele>656.6</ele>
        <time>2021-05-08T11:54:03Z</time>
      </trkpt>
      <trkpt lat="40.4325740" lon="-3.9985180">
        <ele>656.6</ele>
        <time>2021-05-08T11:54:05Z</time>
      </trkpt>
      <trkpt lat="40.4325710" lon="-3.9985870">
        <ele>656.7</ele>
        <time>2021-05-08T11:54:06Z</time>
      </trkpt>
      <trkpt lat="40.4325700" lon="-3.9986470">
        <ele>656.8</ele>
        <time>2021-05-08T11:54:07Z</time>
      </trkpt>
      <trkpt lat="40.4325680" lon="-3.9987240">
        <ele>656.9</ele>
        <time>2021-05-08T11:54:09Z</time>
      </trkpt>
      <trkpt lat="40.4325710" lon="-3.9987990">
        <ele>656.9</ele>
        <time>2021-05-08T11:54:10Z</time>
      </trkpt>
      <trkpt lat="40.4325720" lon="-3.9988550">
        <ele>657.0</ele>
        <time>2021-05-08T11:54:11Z</time>
      </trkpt>
      <trkpt lat="40.4325720" lon="-3.9989350">
        <ele>657.1</ele>
        <time>2021-05-08T11:54:12Z</time>
      </trkpt>
      <trkpt lat="40.4325730" lon="-3.9989940">
        <ele>657.2</ele>
        <time>2021-05-08T11:54:14Z</time>
      </trkpt>
      <trkpt lat="40.4325720" lon="-3.9990540">
        <ele>657.2</ele>
        <time>2021-05-08T11:54:15Z</time>
      </trkpt>
      <trkpt lat="40.4325700" lon="-3.9991280">
        <ele>657.3</ele>
        <time>2021-05-08T11:54:16Z</time>
      </trkpt>
      <trkpt lat="40.4325700" lon="-3.9992070">
        <ele>657.4</ele>
        <time>2021-05-08T11:54:17Z</time>
      </trkpt>
      <trkpt lat="40.4325720" lon="-3.9992810">
        <ele>657.5</ele>
        <time>2021-05-08T11:54:19Z</time>
      </trkpt>
      <trkpt lat="40.4325730" lon="-3.9993820">
        <ele>657.6</ele>
        <time>2021-05-08T11:54:21Z</time>
      </trkpt>
      <trkpt lat="40.4325800" lon="-3.9994970">
        <ele>657.7</ele>
        <time>2021-05-08T11:54:23Z</time>
      </trkpt>
      <trkpt lat="40.4325820" lon="-3.9995640">
        <ele>657.8</ele>
        <time>2021-05-08T11:54:24Z</time>
      </trkpt>
      <trkpt lat="40.4325800" lon="-3.9996230">
        <ele>657.9</ele>
        <time>2021-05-08T11:54:25Z</time>
      </trkpt>
      <trkpt lat="40.4325830" lon="-3.9996990">
        <ele>658.0</ele>
        <time>2021-05-08T11:54:26Z</time>
      </trkpt>
      <trkpt lat="40.4325850" lon="-3.9997540">
        <ele>658.0</ele>
        <time>2021-05-08T11:54:27Z</time>
      </trkpt>
      <trkpt lat="40.4325870" lon="-3.9998310">
        <ele>658.1</ele>
        <time>2021-05-08T11:54:29Z</time>
      </trkpt>
      <trkpt lat="40.4325920" lon="-3.9998970">
        <ele>658.2</ele>
        <time>2021-05-08T11:54:30Z</time>
      </trkpt>
      <trkpt lat="40.4325980" lon="-3.9999790">
        <ele>658.3</ele>
        <time>2021-05-08T11:54:31Z</time>
      </trkpt>
      <trkpt lat="40.4326040" lon="-4.0000500">
        <ele>658.4</ele>
        <time>2021-05-08T11:54:33Z</time>
      </trkpt>
      <trkpt lat="40.4326080" lon="-4.0001160">
        <ele>658.4</ele>
        <time>2021-05-08T11:54:34Z</time>
      </trkpt>
      <trkpt lat="40.4326100" lon="-4.0001750">
        <ele>658.5</ele>
        <time>2021-05-08T11:54:35Z</time>
      </trkpt>
      <trkpt lat="40.4326200" lon="-4.0002870">
        <ele>658.6</ele>
        <time>2021-05-08T11:54:37Z</time>
      </trkpt>
      <trkpt lat="40.4326290" lon="-4.0003450">
        <ele>658.7</ele>
        <time>2021-05-08T11:54:38Z</time>
      </trkpt>
      <trkpt lat="40.4326380" lon="-4.0004530">
        <ele>658.8</ele>
        <time>2021-05-08T11:54:40Z</time>
      </trkpt>
      <trkpt lat="40.4326430" lon="-4.0005260">
        <ele>658.9</ele>
        <time>2021-05-08T11:54:41Z</time>
      </trkpt>
      <trkpt lat="40.4326530" lon="-4.0006270">
        <ele>659.1</ele>
        <time>2021-05-08T11:54:43Z</time>
      </trkpt>
      <trkpt lat="40.4326600" lon="-4.0006870">
        <ele>659.1</ele>
        <time>2021-05-08T11:54:44Z</time>
      </trkpt>
      <trkpt lat="40.4326720" lon="-4.0007790">
        <ele>659.2</ele>
        <time>2021-05-08T11:54:46Z</time>
      </trkpt>
      <trkpt lat="40.4326820" lon="-4.0008340">
        <ele>659.3</ele>
        <time>2021-05-08T11:54:47Z</time>
      </trkpt>
      <trkpt lat="40.4326980" lon="-4.0009040">
        <ele>659.4</ele>
        <time>2021-05-08T11:54:48Z</time>
      </trkpt>
      <trkpt lat="40.4327140" lon="-4.0009730">
        <ele>659.5</ele>
        <time>2021-05-08T11:54:49Z</time>
      </trkpt>
      <trkpt lat="40.4327360" lon="-4.0010530">
        <ele>659.6</ele>
        <time>2021-05-08T11:54:51Z</time>
      </trkpt>
      <trkpt lat="40.4327490" lon="-4.0011080">
        <ele>659.7</ele>
        <time>2021-05-08T11:54:52Z</time>
      </trkpt>
      <trkpt lat="40.4327650" lon="-4.0011790">
        <ele>659.8</ele>
        <time>2021-05-08T11:54:53Z</time>
      </trkpt>
      <trkpt lat="40.4327880" lon="-4.0012620">
        <ele>659.9</ele>
        <time>2021-05-08T11:54:55Z</time>
      </trkpt>
      <trkpt lat="40.4328190" lon="-4.0013750">
        <ele>660.1</ele>
        <time>2021-05-08T11:54:57Z</time>
      </trkpt>
      <trkpt lat="40.4328430" lon="-4.0014670">
        <ele>660.2</ele>
        <time>2021-05-08T11:54:59Z</time>
      </trkpt>
      <trkpt lat="40.4328640" lon="-4.0015290">
        <ele>660.3</ele>
        <time>2021-05-08T11:55:00Z</time>
      </trkpt>
      <trkpt lat="40.4329040" lon="-4.0016230">
        <ele>660.5</ele>
        <time>2021-05-08T11:55:02Z</time>
      </trkpt>
      <trkpt lat="40.4329280" lon="-4.0016690">
        <ele>660.6</ele>
        <time>2021-05-08T11:55:03Z</time>
      </trkpt>
      <trkpt lat="40.4329510" lon="-4.0017130">
        <ele>660.7</ele>
        <time>2021-05-08T11:55:04Z</time>
      </trkpt>
      <trkpt lat="40.4329770" lon="-4.0017620">
        <ele>660.8</ele>
        <time>2021-05-08T11:55:05Z</time>
      </trkpt>
      <trkpt lat="40.4330230" lon="-4.0018190">
        <ele>660.9</ele>
        <time>2021-05-08T11:55:06Z</time>
      </trkpt>
      <trkpt lat="40.4330570" lon="-4.0018660">
        <ele>661.0</ele>
        <time>2021-05-08T11:55:08Z</time>
      </trkpt>
      <trkpt lat="40.4330920" lon="-4.0019020">
        <ele>661.0</ele>
        <time>2021-05-08T11:55:09Z</time>
      </trkpt>
      <trkpt lat="40.4331270" lon="-4.0019340">
        <ele>661.1</ele>
        <time>2021-05-08T11:55:10Z</time>
      </trkpt>
      <trkpt lat="40.4331690" lon="-4.0019750">
        <ele>661.0</ele>
        <time>2021-05-08T11:55:12Z</time>
      </trkpt>
      <trkpt lat="40.4331840" lon="-4.0019820">
        <ele>661.0</ele>
        <time>2021-05-08T11:55:13Z</time>
      </trkpt>
      <trkpt lat="40.4331940" lon="-4.0019950">
        <ele>661.0</ele>
        <time>2021-05-08T11:55:14Z</time>
      </trkpt>
      <trkpt lat="40.4332290" lon="-4.0020160">
        <ele>661.0</ele>
        <time>2021-05-08T11:55:16Z</time>
      </trkpt>
      <trkpt lat="40.4332740" lon="-4.0020380">
        <ele>661.0</ele>
        <time>2021-05-08T11:55:18Z</time>
      </trkpt>
      <trkpt lat="40.4333070" lon="-4.0020630">
        <ele>661.0</ele>
        <time>2021-05-08T11:55:19Z</time>
      </trkpt>
      <trkpt lat="40.4333450" lon="-4.0021240">
        <ele>660.9</ele>
        <time>2021-05-08T11:55:20Z</time>
      </trkpt>
      <trkpt lat="40.4333840" lon="-4.0022130">
        <ele>660.9</ele>
        <time>2021-05-08T11:55:22Z</time>
      </trkpt>
      <trkpt lat="40.4334040" lon="-4.0023470">
        <ele>660.8</ele>
        <time>2021-05-08T11:55:24Z</time>
      </trkpt>
      <trkpt lat="40.4333980" lon="-4.0024120">
        <ele>660.8</ele>
        <time>2021-05-08T11:55:25Z</time>
      </trkpt>
      <trkpt lat="40.4333850" lon="-4.0024790">
        <ele>660.8</ele>
        <time>2021-05-08T11:55:26Z</time>
      </trkpt>
      <trkpt lat="40.4333370" lon="-4.0025830">
        <ele>660.8</ele>
        <time>2021-05-08T11:55:28Z</time>
      </trkpt>
      <trkpt lat="40.4333010" lon="-4.0026220">
        <ele>660.9</ele>
        <time>2021-05-08T11:55:29Z</time>
      </trkpt>
      <trkpt lat="40.4332090" lon="-4.0026740">
        <ele>660.9</ele>
        <time>2021-05-08T11:55:31Z</time>
      </trkpt>
      <trkpt lat="40.4330980" lon="-4.0026840">
        <ele>661.0</ele>
        <time>2021-05-08T11:55:33Z</time>
      </trkpt>
      <trkpt lat="40.4330490" lon="-4.0026710">
        <ele>661.0</ele>
        <time>2021-05-08T11:55:34Z</time>
      </trkpt>
      <trkpt lat="40.4330040" lon="-4.0026450">
        <ele>661.1</ele>
        <time>2021-05-08T11:55:35Z</time>
      </trkpt>
      <trkpt lat="40.4329610" lon="-4.0026080">
        <ele>661.1</ele>
        <time>2021-05-08T11:55:36Z</time>
      </trkpt>
      <trkpt lat="40.4328920" lon="-4.0025130">
        <ele>661.1</ele>
        <time>2021-05-08T11:55:38Z</time>
      </trkpt>
      <trkpt lat="40.4328570" lon="-4.0024700">
        <ele>661.1</ele>
        <time>2021-05-08T11:55:39Z</time>
      </trkpt>
      <trkpt lat="40.4327730" lon="-4.0024140">
        <ele>661.2</ele>
        <time>2021-05-08T11:55:41Z</time>
      </trkpt>
      <trkpt lat="40.4326680" lon="-4.0023850">
        <ele>661.3</ele>
        <time>2021-05-08T11:55:43Z</time>
      </trkpt>
      <trkpt lat="40.4325770" lon="-4.0023620">
        <ele>661.4</ele>
        <time>2021-05-08T11:55:45Z</time>
      </trkpt>
      <trkpt lat="40.4325350" lon="-4.0023530">
        <ele>661.5</ele>
        <time>2021-05-08T11:55:46Z</time>
      </trkpt>
      <trkpt lat="40.4324600" lon="-4.0023390">
        <ele>661.6</ele>
        <time>2021-05-08T11:55:48Z</time>
      </trkpt>
      <trkpt lat="40.4324250" lon="-4.0023340">
        <ele>661.7</ele>
        <time>2021-05-08T11:55:49Z</time>
      </trkpt>
      <trkpt lat="40.4323570" lon="-4.0023270">
        <ele>661.8</ele>
        <time>2021-05-08T11:55:51Z</time>
      </trkpt>
      <trkpt lat="40.4323300" lon="-4.0023250">
        <ele>661.9</ele>
        <time>2021-05-08T11:55:52Z</time>
      </trkpt>
      <trkpt lat="40.4323640" lon="-4.0023330">
        <ele>661.9</ele>
        <time>2021-05-08T11:55:54Z</time>
      </trkpt>
      <trkpt lat="40.4322300" lon="-4.0023210">
        <ele>662.1</ele>
        <time>2021-05-08T11:55:56Z</time>
      </trkpt>
      <trkpt lat="40.4321600" lon="-4.0023140">
        <ele>662.2</ele>
        <time>2021-05-08T11:55:57Z</time>
      </trkpt>
      <trkpt lat="40.4321010" lon="-4.0023090">
        <ele>662.2</ele>
        <time>2021-05-08T11:55:58Z</time>
      </trkpt>
      <trkpt lat="40.4320130" lon="-4.0023060">
        <ele>662.4</ele>
        <time>2021-05-08T11:55:59Z</time>
      </trkpt>
      <trkpt lat="40.4319250" lon="-4.0023020">
        <ele>662.5</ele>
        <time>2021-05-08T11:56:01Z</time>
      </trkpt>
      <trkpt lat="40.4318450" lon="-4.0022950">
        <ele>662.6</ele>
        <time>2021-05-08T11:56:03Z</time>
      </trkpt>
      <trkpt lat="40.4318070" lon="-4.0022920">
        <ele>662.7</ele>
        <time>2021-05-08T11:56:04Z</time>
      </trkpt>
      <trkpt lat="40.4317290" lon="-4.0022910">
        <ele>662.8</ele>
        <time>2021-05-08T11:56:06Z</time>
      </trkpt>
      <trkpt lat="40.4316470" lon="-4.0022830">
        <ele>662.9</ele>
        <time>2021-05-08T11:56:08Z</time>
      </trkpt>
      <trkpt lat="40.4315980" lon="-4.0022820">
        <ele>662.9</ele>
        <time>2021-05-08T11:56:09Z</time>
      </trkpt>
      <trkpt lat="40.4315490" lon="-4.0022790">
        <ele>662.9</ele>
        <time>2021-05-08T11:56:10Z</time>
      </trkpt>
      <trkpt lat="40.4314850" lon="-4.0022730">
        <ele>663.0</ele>
        <time>2021-05-08T11:56:12Z</time>
      </trkpt>
      <trkpt lat="40.4314460" lon="-4.0022710">
        <ele>663.0</ele>
        <time>2021-05-08T11:56:13Z</time>
      </trkpt>
      <trkpt lat="40.4313670" lon="-4.0022640">
        <ele>663.1</ele>
        <time>2021-05-08T11:56:15Z</time>
      </trkpt>
      <trkpt lat="40.4313000" lon="-4.0022610">
        <ele>663.1</ele>
        <time>2021-05-08T11:56:17Z</time>
      </trkpt>
      <trkpt lat="40.4312510" lon="-4.0022580">
        <ele>663.2</ele>
        <time>2021-05-08T11:56:18Z</time>
      </trkpt>
      <trkpt lat="40.4312130" lon="-4.0022570">
        <ele>663.2</ele>
        <time>2021-05-08T11:56:19Z</time>
      </trkpt>
      <trkpt lat="40.4311530" lon="-4.0022580">
        <ele>663.2</ele>
        <time>2021-05-08T11:56:20Z</time>
      </trkpt>
      <trkpt lat="40.4310990" lon="-4.0022540">
        <ele>663.3</ele>
        <time>2021-05-08T11:56:22Z</time>
      </trkpt>
      <trkpt lat="40.4310290" lon="-4.0022490">
        <ele>663.3</ele>
        <time>2021-05-08T11:56:24Z</time>
      </trkpt>
      <trkpt lat="40.4309810" lon="-4.0022470">
        <ele>663.3</ele>
        <time>2021-05-08T11:56:25Z</time>
      </trkpt>
      <trkpt lat="40.4309300" lon="-4.0022370">
        <ele>663.3</ele>
        <time>2021-05-08T11:56:26Z</time>
      </trkpt>
      <trkpt lat="40.4308620" lon="-4.0022350">
        <ele>663.3</ele>
        <time>2021-05-08T11:56:28Z</time>
      </trkpt>
      <trkpt lat="40.4308210" lon="-4.0022320">
        <ele>663.3</ele>
        <time>2021-05-08T11:56:29Z</time>
      </trkpt>
      <trkpt lat="40.4307480" lon="-4.0022300">
        <ele>663.3</ele>
        <time>2021-05-08T11:56:31Z</time>
      </trkpt>
      <trkpt lat="40.4306850" lon="-4.0022280">
        <ele>663.3</ele>
        <time>2021-05-08T11:56:32Z</time>
      </trkpt>
      <trkpt lat="40.4306280" lon="-4.0022300">
        <ele>663.3</ele>
        <time>2021-05-08T11:56:34Z</time>
      </trkpt>
      <trkpt lat="40.4305860" lon="-4.0022300">
        <ele>663.3</ele>
        <time>2021-05-08T11:56:35Z</time>
      </trkpt>
      <trkpt lat="40.4305260" lon="-4.0022340">
        <ele>663.3</ele>
        <time>2021-05-08T11:56:36Z</time>
      </trkpt>
      <trkpt lat="40.4304570" lon="-4.0022400">
        <ele>663.3</ele>
        <time>2021-05-08T11:56:38Z</time>
      </trkpt>
      <trkpt lat="40.4303600" lon="-4.0022460">
        <ele>663.3</ele>
        <time>2021-05-08T11:56:40Z</time>
      </trkpt>
      <trkpt lat="40.4302570" lon="-4.0022480">
        <ele>663.2</ele>
        <time>2021-05-08T11:56:42Z</time>
      </trkpt>
      <trkpt lat="40.4301560" lon="-4.0022530">
        <ele>663.2</ele>
        <time>2021-05-08T11:56:44Z</time>
      </trkpt>
      <trkpt lat="40.4301040" lon="-4.0022560">
        <ele>663.2</ele>
        <time>2021-05-08T11:56:45Z</time>
      </trkpt>
      <trkpt lat="40.4299960" lon="-4.0022600">
        <ele>663.1</ele>
        <time>2021-05-08T11:56:47Z</time>
      </trkpt>
      <trkpt lat="40.4299450" lon="-4.0022650">
        <ele>663.1</ele>
        <time>2021-05-08T11:56:48Z</time>
      </trkpt>
      <trkpt lat="40.4298940" lon="-4.0022720">
        <ele>663.1</ele>
        <time>2021-05-08T11:56:49Z</time>
      </trkpt>
      <trkpt lat="40.4297960" lon="-4.0022850">
        <ele>663.0</ele>
        <time>2021-05-08T11:56:51Z</time>
      </trkpt>
      <trkpt lat="40.4296990" lon="-4.0022930">
        <ele>663.0</ele>
        <time>2021-05-08T11:56:53Z</time>
      </trkpt>
      <trkpt lat="40.4295960" lon="-4.0023020">
        <ele>662.9</ele>
        <time>2021-05-08T11:56:55Z</time>
      </trkpt>
      <trkpt lat="40.4295420" lon="-4.0023050">
        <ele>662.9</ele>
        <time>2021-05-08T11:56:56Z</time>
      </trkpt>
      <trkpt lat="40.4294620" lon="-4.0023030">
        <ele>662.9</ele>
        <time>2021-05-08T11:56:58Z</time>
      </trkpt>
      <trkpt lat="40.4293800" lon="-4.0023080">
        <ele>662.8</ele>
        <time>2021-05-08T11:56:59Z</time>
      </trkpt>
      <trkpt lat="40.4292680" lon="-4.0023190">
        <ele>662.8</ele>
        <time>2021-05-08T11:57:01Z</time>
      </trkpt>
      <trkpt lat="40.4291560" lon="-4.0023270">
        <ele>662.8</ele>
        <time>2021-05-08T11:57:03Z</time>
      </trkpt>
      <trkpt lat="40.4290980" lon="-4.0023280">
        <ele>662.8</ele>
        <time>2021-05-08T11:57:04Z</time>
      </trkpt>
      <trkpt lat="40.4290410" lon="-4.0023300">
        <ele>662.8</ele>
        <time>2021-05-08T11:57:05Z</time>
      </trkpt>
      <trkpt lat="40.4289300" lon="-4.0023410">
        <ele>662.8</ele>
        <time>2021-05-08T11:57:07Z</time>
      </trkpt>
      <trkpt lat="40.4288730" lon="-4.0023460">
        <ele>662.7</ele>
        <time>2021-05-08T11:57:08Z</time>
      </trkpt>
      <trkpt lat="40.4287600" lon="-4.0023510">
        <ele>662.7</ele>
        <time>2021-05-08T11:57:10Z</time>
      </trkpt>
      <trkpt lat="40.4286520" lon="-4.0023480">
        <ele>662.7</ele>
        <time>2021-05-08T11:57:12Z</time>
      </trkpt>
      <trkpt lat="40.4285950" lon="-4.0023520">
        <ele>662.7</ele>
        <time>2021-05-08T11:57:13Z</time>
      </trkpt>
      <trkpt lat="40.4284820" lon="-4.0023570">
        <ele>662.6</ele>
        <time>2021-05-08T11:57:15Z</time>
      </trkpt>
      <trkpt lat="40.4284280" lon="-4.0023620">
        <ele>662.6</ele>
        <time>2021-05-08T11:57:16Z</time>
      </trkpt>
      <trkpt lat="40.4283520" lon="-4.0023680">
        <ele>662.6</ele>
        <time>2021-05-08T11:57:18Z</time>
      </trkpt>
      <trkpt lat="40.4282700" lon="-4.0023770">
        <ele>662.6</ele>
        <time>2021-05-08T11:57:19Z</time>
      </trkpt>
      <trkpt lat="40.4282120" lon="-4.0023870">
        <ele>662.5</ele>
        <time>2021-05-08T11:57:20Z</time>
      </trkpt>
      <trkpt lat="40.4281580" lon="-4.0023950">
        <ele>662.5</ele>
        <time>2021-05-08T11:57:21Z</time>
      </trkpt>
      <trkpt lat="40.4281050" lon="-4.0023980">
        <ele>662.5</ele>
        <time>2021-05-08T11:57:22Z</time>
      </trkpt>
      <trkpt lat="40.4280520" lon="-4.0023990">
        <ele>662.5</ele>
        <time>2021-05-08T11:57:23Z</time>
      </trkpt>
      <trkpt lat="40.4279460" lon="-4.0024060">
        <ele>662.5</ele>
        <time>2021-05-08T11:57:25Z</time>
      </trkpt>
      <trkpt lat="40.4278920" lon="-4.0024100">
        <ele>662.5</ele>
        <time>2021-05-08T11:57:26Z</time>
      </trkpt>
      <trkpt lat="40.4278360" lon="-4.0024140">
        <ele>662.5</ele>
        <time>2021-05-08T11:57:27Z</time>
      </trkpt>
      <trkpt lat="40.4277810" lon="-4.0024190">
        <ele>662.5</ele>
        <time>2021-05-08T11:57:28Z</time>
      </trkpt>
      <trkpt lat="40.4277250" lon="-4.0024230">
        <ele>662.5</ele>
        <time>2021-05-08T11:57:29Z</time>
      </trkpt>
      <trkpt lat="40.4276150" lon="-4.0024310">
        <ele>662.5</ele>
        <time>2021-05-08T11:57:31Z</time>
      </trkpt>
      <trkpt lat="40.4275600" lon="-4.0024340">
        <ele>662.5</ele>
        <time>2021-05-08T11:57:32Z</time>
      </trkpt>
      <trkpt lat="40.4274470" lon="-4.0024420">
        <ele>662.5</ele>
        <time>2021-05-08T11:57:34Z</time>
      </trkpt>
      <trkpt lat="40.4273340" lon="-4.0024460">
        <ele>662.4</ele>
        <time>2021-05-08T11:57:36Z</time>
      </trkpt>
      <trkpt lat="40.4272780" lon="-4.0024510">
        <ele>662.4</ele>
        <time>2021-05-08T11:57:37Z</time>
      </trkpt>
      <trkpt lat="40.4271680" lon="-4.0024560">
        <ele>662.4</ele>
        <time>2021-05-08T11:57:39Z</time>
      </trkpt>
      <trkpt lat="40.4271110" lon="-4.0024590">
        <ele>662.4</ele>
        <time>2021-05-08T11:57:40Z</time>
      </trkpt>
      <trkpt lat="40.4270560" lon="-4.0024650">
        <ele>662.3</ele>
        <time>2021-05-08T11:57:41Z</time>
      </trkpt>
      <trkpt lat="40.4269430" lon="-4.0024760">
        <ele>662.3</ele>
        <time>2021-05-08T11:57:43Z</time>
      </trkpt>
      <trkpt lat="40.4268880" lon="-4.0024800">
        <ele>662.2</ele>
        <time>2021-05-08T11:57:44Z</time>
      </trkpt>
      <trkpt lat="40.4268330" lon="-4.0024820">
        <ele>662.2</ele>
        <time>2021-05-08T11:57:45Z</time>
      </trkpt>
      <trkpt lat="40.4267240" lon="-4.0024850">
        <ele>662.2</ele>
        <time>2021-05-08T11:57:47Z</time>
      </trkpt>
      <trkpt lat="40.4266190" lon="-4.0024910">
        <ele>662.2</ele>
        <time>2021-05-08T11:57:49Z</time>
      </trkpt>
      <trkpt lat="40.4265660" lon="-4.0024960">
        <ele>662.2</ele>
        <time>2021-05-08T11:57:50Z</time>
      </trkpt>
      <trkpt lat="40.4264720" lon="-4.0025030">
        <ele>662.2</ele>
        <time>2021-05-08T11:57:52Z</time>
      </trkpt>
      <trkpt lat="40.4263750" lon="-4.0025110">
        <ele>662.1</ele>
        <time>2021-05-08T11:57:54Z</time>
      </trkpt>
      <trkpt lat="40.4263260" lon="-4.0025160">
        <ele>662.1</ele>
        <time>2021-05-08T11:57:55Z</time>
      </trkpt>
      <trkpt lat="40.4262780" lon="-4.0025200">
        <ele>662.1</ele>
        <time>2021-05-08T11:57:56Z</time>
      </trkpt>
      <trkpt lat="40.4262300" lon="-4.0025230">
        <ele>662.1</ele>
        <time>2021-05-08T11:57:57Z</time>
      </trkpt>
      <trkpt lat="40.4261320" lon="-4.0025280">
        <ele>662.0</ele>
        <time>2021-05-08T11:57:59Z</time>
      </trkpt>
      <trkpt lat="40.4260810" lon="-4.0025310">
        <ele>662.0</ele>
        <time>2021-05-08T11:58:00Z</time>
      </trkpt>
      <trkpt lat="40.4259840" lon="-4.0025360">
        <ele>662.0</ele>
        <time>2021-05-08T11:58:02Z</time>
      </trkpt>
      <trkpt lat="40.4258850" lon="-4.0025450">
        <ele>661.9</ele>
        <time>2021-05-08T11:58:04Z</time>
      </trkpt>
      <trkpt lat="40.4257830" lon="-4.0025520">
        <ele>661.8</ele>
        <time>2021-05-08T11:58:06Z</time>
      </trkpt>
      <trkpt lat="40.4256810" lon="-4.0025580">
        <ele>661.7</ele>
        <time>2021-05-08T11:58:08Z</time>
      </trkpt>
      <trkpt lat="40.4255810" lon="-4.0025650">
        <ele>661.6</ele>
        <time>2021-05-08T11:58:10Z</time>
      </trkpt>
      <trkpt lat="40.4255310" lon="-4.0025680">
        <ele>661.6</ele>
        <time>2021-05-08T11:58:11Z</time>
      </trkpt>
      <trkpt lat="40.4254810" lon="-4.0025720">
        <ele>661.6</ele>
        <time>2021-05-08T11:58:12Z</time>
      </trkpt>
      <trkpt lat="40.4254310" lon="-4.0025760">
        <ele>661.5</ele>
        <time>2021-05-08T11:58:13Z</time>
      </trkpt>
      <trkpt lat="40.4253300" lon="-4.0025790">
        <ele>661.4</ele>
        <time>2021-05-08T11:58:15Z</time>
      </trkpt>
      <trkpt lat="40.4252780" lon="-4.0025810">
        <ele>661.4</ele>
        <time>2021-05-08T11:58:16Z</time>
      </trkpt>
      <trkpt lat="40.4251970" lon="-4.0025870">
        <ele>661.3</ele>
        <time>2021-05-08T11:58:18Z</time>
      </trkpt>
      <trkpt lat="40.4251250" lon="-4.0025900">
        <ele>661.2</ele>
        <time>2021-05-08T11:58:19Z</time>
      </trkpt>
      <trkpt lat="40.4250180" lon="-4.0025980">
        <ele>661.1</ele>
        <time>2021-05-08T11:58:21Z</time>
      </trkpt>
      <trkpt lat="40.4249100" lon="-4.0026070">
        <ele>661.0</ele>
        <time>2021-05-08T11:58:23Z</time>
      </trkpt>
      <trkpt lat="40.4248550" lon="-4.0026060">
        <ele>660.9</ele>
        <time>2021-05-08T11:58:24Z</time>
      </trkpt>
      <trkpt lat="40.4247980" lon="-4.0026080">
        <ele>660.8</ele>
        <time>2021-05-08T11:58:25Z</time>
      </trkpt>
      <trkpt lat="40.4246870" lon="-4.0026230">
        <ele>660.7</ele>
        <time>2021-05-08T11:58:27Z</time>
      </trkpt>
      <trkpt lat="40.4246300" lon="-4.0026260">
        <ele>660.6</ele>
        <time>2021-05-08T11:58:28Z</time>
      </trkpt>
      <trkpt lat="40.4245240" lon="-4.0026290">
        <ele>660.5</ele>
        <time>2021-05-08T11:58:30Z</time>
      </trkpt>
      <trkpt lat="40.4244700" lon="-4.0026310">
        <ele>660.5</ele>
        <time>2021-05-08T11:58:31Z</time>
      </trkpt>
      <trkpt lat="40.4244140" lon="-4.0026340">
        <ele>660.5</ele>
        <time>2021-05-08T11:58:32Z</time>
      </trkpt>
      <trkpt lat="40.4243030" lon="-4.0026410">
        <ele>660.4</ele>
        <time>2021-05-08T11:58:34Z</time>
      </trkpt>
      <trkpt lat="40.4242490" lon="-4.0026430">
        <ele>660.3</ele>
        <time>2021-05-08T11:58:35Z</time>
      </trkpt>
      <trkpt lat="40.4241930" lon="-4.0026460">
        <ele>660.3</ele>
        <time>2021-05-08T11:58:36Z</time>
      </trkpt>
      <trkpt lat="40.4240800" lon="-4.0026540">
        <ele>660.2</ele>
        <time>2021-05-08T11:58:38Z</time>
      </trkpt>
      <trkpt lat="40.4240200" lon="-4.0026580">
        <ele>660.1</ele>
        <time>2021-05-08T11:58:39Z</time>
      </trkpt>
      <trkpt lat="40.4239620" lon="-4.0026600">
        <ele>660.1</ele>
        <time>2021-05-08T11:58:40Z</time>
      </trkpt>
      <trkpt lat="40.4238480" lon="-4.0026650">
        <ele>660.0</ele>
        <time>2021-05-08T11:58:42Z</time>
      </trkpt>
      <trkpt lat="40.4237880" lon="-4.0026690">
        <ele>660.0</ele>
        <time>2021-05-08T11:58:43Z</time>
      </trkpt>
      <trkpt lat="40.4237280" lon="-4.0026720">
        <ele>660.0</ele>
        <time>2021-05-08T11:58:44Z</time>
      </trkpt>
      <trkpt lat="40.4236680" lon="-4.0026750">
        <ele>659.9</ele>
        <time>2021-05-08T11:58:45Z</time>
      </trkpt>
      <trkpt lat="40.4235490" lon="-4.0026840">
        <ele>659.9</ele>
        <time>2021-05-08T11:58:47Z</time>
      </trkpt>
      <trkpt lat="40.4234900" lon="-4.0026900">
        <ele>659.9</ele>
        <time>2021-05-08T11:58:48Z</time>
      </trkpt>
      <trkpt lat="40.4234300" lon="-4.0026970">
        <ele>659.8</ele>
        <time>2021-05-08T11:58:49Z</time>
      </trkpt>
      <trkpt lat="40.4233090" lon="-4.0027060">
        <ele>659.8</ele>
        <time>2021-05-08T11:58:51Z</time>
      </trkpt>
      <trkpt lat="40.4232520" lon="-4.0027090">
        <ele>659.7</ele>
        <time>2021-05-08T11:58:52Z</time>
      </trkpt>
      <trkpt lat="40.4231930" lon="-4.0027120">
        <ele>659.7</ele>
        <time>2021-05-08T11:58:53Z</time>
      </trkpt>
      <trkpt lat="40.4231340" lon="-4.0027190">
        <ele>659.6</ele>
        <time>2021-05-08T11:58:54Z</time>
      </trkpt>
      <trkpt lat="40.4230190" lon="-4.0027320">
        <ele>659.6</ele>
        <time>2021-05-08T11:58:56Z</time>
      </trkpt>
      <trkpt lat="40.4229600" lon="-4.0027380">
        <ele>659.6</ele>
        <time>2021-05-08T11:58:57Z</time>
      </trkpt>
      <trkpt lat="40.4228410" lon="-4.0027470">
        <ele>659.5</ele>
        <time>2021-05-08T11:58:59Z</time>
      </trkpt>
      <trkpt lat="40.4227190" lon="-4.0027510">
        <ele>659.5</ele>
        <time>2021-05-08T11:59:01Z</time>
      </trkpt>
      <trkpt lat="40.4226020" lon="-4.0027540">
        <ele>659.5</ele>
        <time>2021-05-08T11:59:03Z</time>
      </trkpt>
      <trkpt lat="40.4224800" lon="-4.0027650">
        <ele>659.5</ele>
        <time>2021-05-08T11:59:05Z</time>
      </trkpt>
      <trkpt lat="40.4223630" lon="-4.0027760">
        <ele>659.6</ele>
        <time>2021-05-08T11:59:07Z</time>
      </trkpt>
      <trkpt lat="40.4222470" lon="-4.0027830">
        <ele>659.6</ele>
        <time>2021-05-08T11:59:09Z</time>
      </trkpt>
      <trkpt lat="40.4221410" lon="-4.0027870">
        <ele>659.6</ele>
        <time>2021-05-08T11:59:11Z</time>
      </trkpt>
      <trkpt lat="40.4220450" lon="-4.0027850">
        <ele>659.6</ele>
        <time>2021-05-08T11:59:13Z</time>
      </trkpt>
      <trkpt lat="40.4219560" lon="-4.0027960">
        <ele>659.6</ele>
        <time>2021-05-08T11:59:15Z</time>
      </trkpt>
      <trkpt lat="40.4219060" lon="-4.0028040">
        <ele>659.6</ele>
        <time>2021-05-08T11:59:16Z</time>
      </trkpt>
      <trkpt lat="40.4218080" lon="-4.0028130">
        <ele>659.6</ele>
        <time>2021-05-08T11:59:18Z</time>
      </trkpt>
      <trkpt lat="40.4217610" lon="-4.0028160">
        <ele>659.6</ele>
        <time>2021-05-08T11:59:19Z</time>
      </trkpt>
      <trkpt lat="40.4217200" lon="-4.0028200">
        <ele>659.6</ele>
        <time>2021-05-08T11:59:20Z</time>
      </trkpt>
      <trkpt lat="40.4216670" lon="-4.0028210">
        <ele>659.6</ele>
        <time>2021-05-08T11:59:21Z</time>
      </trkpt>
      <trkpt lat="40.4215680" lon="-4.0028220">
        <ele>659.7</ele>
        <time>2021-05-08T11:59:23Z</time>
      </trkpt>
      <trkpt lat="40.4214630" lon="-4.0028240">
        <ele>659.7</ele>
        <time>2021-05-08T11:59:25Z</time>
      </trkpt>
      <trkpt lat="40.4213580" lon="-4.0028180">
        <ele>659.7</ele>
        <time>2021-05-08T11:59:27Z</time>
      </trkpt>
      <trkpt lat="40.4212540" lon="-4.0028020">
        <ele>659.8</ele>
        <time>2021-05-08T11:59:29Z</time>
      </trkpt>
      <trkpt lat="40.4212010" lon="-4.0027900">
        <ele>659.8</ele>
        <time>2021-05-08T11:59:30Z</time>
      </trkpt>
      <trkpt lat="40.4210910" lon="-4.0027610">
        <ele>659.8</ele>
        <time>2021-05-08T11:59:32Z</time>
      </trkpt>
      <trkpt lat="40.4209780" lon="-4.0027270">
        <ele>659.8</ele>
        <time>2021-05-08T11:59:34Z</time>
      </trkpt>
      <trkpt lat="40.4208680" lon="-4.0027010">
        <ele>659.8</ele>
        <time>2021-05-08T11:59:36Z</time>
      </trkpt>
      <trkpt lat="40.4208140" lon="-4.0026900">
        <ele>659.8</ele>
        <time>2021-05-08T11:59:37Z</time>
      </trkpt>
      <trkpt lat="40.4207620" lon="-4.0026720">
        <ele>659.8</ele>
        <time>2021-05-08T11:59:38Z</time>
      </trkpt>
      <trkpt lat="40.4206610" lon="-4.0026420">
        <ele>659.9</ele>
        <time>2021-05-08T11:59:40Z</time>
      </trkpt>
      <trkpt lat="40.4206150" lon="-4.0026290">
        <ele>660.0</ele>
        <time>2021-05-08T11:59:41Z</time>
      </trkpt>
      <trkpt lat="40.4205150" lon="-4.0026060">
        <ele>660.0</ele>
        <time>2021-05-08T11:59:43Z</time>
      </trkpt>
      <trkpt lat="40.4204640" lon="-4.0025910">
        <ele>660.1</ele>
        <time>2021-05-08T11:59:44Z</time>
      </trkpt>
      <trkpt lat="40.4203630" lon="-4.0025590">
        <ele>660.1</ele>
        <time>2021-05-08T11:59:46Z</time>
      </trkpt>
      <trkpt lat="40.4203130" lon="-4.0025450">
        <ele>660.1</ele>
        <time>2021-05-08T11:59:47Z</time>
      </trkpt>
      <trkpt lat="40.4202640" lon="-4.0025320">
        <ele>660.2</ele>
        <time>2021-05-08T11:59:48Z</time>
      </trkpt>
      <trkpt lat="40.4201610" lon="-4.0025040">
        <ele>660.2</ele>
        <time>2021-05-08T11:59:50Z</time>
      </trkpt>
      <trkpt lat="40.4201100" lon="-4.0024920">
        <ele>660.3</ele>
        <time>2021-05-08T11:59:51Z</time>
      </trkpt>
      <trkpt lat="40.4200600" lon="-4.0024810">
        <ele>660.3</ele>
        <time>2021-05-08T11:59:52Z</time>
      </trkpt>
      <trkpt lat="40.4200080" lon="-4.0024690">
        <ele>660.3</ele>
        <time>2021-05-08T11:59:53Z</time>
      </trkpt>
      <trkpt lat="40.4199000" lon="-4.0024400">
        <ele>660.4</ele>
        <time>2021-05-08T11:59:55Z</time>
      </trkpt>
      <trkpt lat="40.4198470" lon="-4.0024240">
        <ele>660.5</ele>
        <time>2021-05-08T11:59:56Z</time>
      </trkpt>
      <trkpt lat="40.4197430" lon="-4.0023930">
        <ele>660.5</ele>
        <time>2021-05-08T11:59:58Z</time>
      </trkpt>
      <trkpt lat="40.4196370" lon="-4.0023630">
        <ele>660.6</ele>
        <time>2021-05-08T12:00:00Z</time>
      </trkpt>
      <trkpt lat="40.4195870" lon="-4.0023490">
        <ele>660.6</ele>
        <time>2021-05-08T12:00:01Z</time>
      </trkpt>
      <trkpt lat="40.4194700" lon="-4.0023170">
        <ele>660.6</ele>
        <time>2021-05-08T12:00:03Z</time>
      </trkpt>
      <trkpt lat="40.4193600" lon="-4.0022860">
        <ele>660.6</ele>
        <time>2021-05-08T12:00:05Z</time>
      </trkpt>
      <trkpt lat="40.4192480" lon="-4.0022560">
        <ele>660.6</ele>
        <time>2021-05-08T12:00:07Z</time>
      </trkpt>
      <trkpt lat="40.4191890" lon="-4.0022400">
        <ele>660.6</ele>
        <time>2021-05-08T12:00:08Z</time>
      </trkpt>
      <trkpt lat="40.4191310" lon="-4.0022230">
        <ele>660.6</ele>
        <time>2021-05-08T12:00:09Z</time>
      </trkpt>
      <trkpt lat="40.4190140" lon="-4.0021910">
        <ele>660.6</ele>
        <time>2021-05-08T12:00:11Z</time>
      </trkpt>
      <trkpt lat="40.4189560" lon="-4.0021740">
        <ele>660.6</ele>
        <time>2021-05-08T12:00:12Z</time>
      </trkpt>
      <trkpt lat="40.4188980" lon="-4.0021560">
        <ele>660.5</ele>
        <time>2021-05-08T12:00:13Z</time>
      </trkpt>
      <trkpt lat="40.4187810" lon="-4.0021200">
        <ele>660.5</ele>
        <time>2021-05-08T12:00:15Z</time>
      </trkpt>
      <trkpt lat="40.4187210" lon="-4.0021010">
        <ele>660.5</ele>
        <time>2021-05-08T12:00:16Z</time>
      </trkpt>
      <trkpt lat="40.4186030" lon="-4.0020680">
        <ele>660.5</ele>
        <time>2021-05-08T12:00:18Z</time>
      </trkpt>
      <trkpt lat="40.4184860" lon="-4.0020370">
        <ele>660.4</ele>
        <time>2021-05-08T12:00:20Z</time>
      </trkpt>
      <trkpt lat="40.4183710" lon="-4.0020100">
        <ele>660.4</ele>
        <time>2021-05-08T12:00:22Z</time>
      </trkpt>
      <trkpt lat="40.4183090" lon="-4.0019940">
        <ele>660.3</ele>
        <time>2021-05-08T12:00:23Z</time>
      </trkpt>
      <trkpt lat="40.4182510" lon="-4.0019790">
        <ele>660.3</ele>
        <time>2021-05-08T12:00:24Z</time>
      </trkpt>
      <trkpt lat="40.4181340" lon="-4.0019400">
        <ele>660.3</ele>
        <time>2021-05-08T12:00:26Z</time>
      </trkpt>
      <trkpt lat="40.4180750" lon="-4.0019190">
        <ele>660.3</ele>
        <time>2021-05-08T12:00:27Z</time>
      </trkpt>
      <trkpt lat="40.4179540" lon="-4.0018860">
        <ele>660.2</ele>
        <time>2021-05-08T12:00:29Z</time>
      </trkpt>
      <trkpt lat="40.4178930" lon="-4.0018690">
        <ele>660.2</ele>
        <time>2021-05-08T12:00:30Z</time>
      </trkpt>
      <trkpt lat="40.4177710" lon="-4.0018350">
        <ele>660.1</ele>
        <time>2021-05-08T12:00:32Z</time>
      </trkpt>
      <trkpt lat="40.4177110" lon="-4.0018190">
        <ele>660.0</ele>
        <time>2021-05-08T12:00:33Z</time>
      </trkpt>
      <trkpt lat="40.4175950" lon="-4.0017830">
        <ele>659.9</ele>
        <time>2021-05-08T12:00:35Z</time>
      </trkpt>
      <trkpt lat="40.4174770" lon="-4.0017450">
        <ele>659.8</ele>
        <time>2021-05-08T12:00:37Z</time>
      </trkpt>
      <trkpt lat="40.4174190" lon="-4.0017280">
        <ele>659.8</ele>
        <time>2021-05-08T12:00:38Z</time>
      </trkpt>
      <trkpt lat="40.4173590" lon="-4.0017100">
        <ele>659.7</ele>
        <time>2021-05-08T12:00:39Z</time>
      </trkpt>
      <trkpt lat="40.4172810" lon="-4.0016860">
        <ele>659.6</ele>
        <time>2021-05-08T12:00:41Z</time>
      </trkpt>
      <trkpt lat="40.4171880" lon="-4.0016620">
        <ele>659.5</ele>
        <time>2021-05-08T12:00:42Z</time>
      </trkpt>
      <trkpt lat="40.4170660" lon="-4.0016250">
        <ele>659.4</ele>
        <time>2021-05-08T12:00:44Z</time>
      </trkpt>
      <trkpt lat="40.4169440" lon="-4.0015860">
        <ele>659.2</ele>
        <time>2021-05-08T12:00:46Z</time>
      </trkpt>
      <trkpt lat="40.4168200" lon="-4.0015480">
        <ele>659.0</ele>
        <time>2021-05-08T12:00:48Z</time>
      </trkpt>
      <trkpt lat="40.4167560" lon="-4.0015300">
        <ele>658.9</ele>
        <time>2021-05-08T12:00:49Z</time>
      </trkpt>
      <trkpt lat="40.4166310" lon="-4.0014950">
        <ele>658.7</ele>
        <time>2021-05-08T12:00:51Z</time>
      </trkpt>
      <trkpt lat="40.4165680" lon="-4.0014750">
        <ele>658.6</ele>
        <time>2021-05-08T12:00:52Z</time>
      </trkpt>
      <trkpt lat="40.4164380" lon="-4.0014370">
        <ele>658.4</ele>
        <time>2021-05-08T12:00:54Z</time>
      </trkpt>
      <trkpt lat="40.4163140" lon="-4.0014080">
        <ele>658.1</ele>
        <time>2021-05-08T12:00:56Z</time>
      </trkpt>
      <trkpt lat="40.4162560" lon="-4.0013940">
        <ele>658.0</ele>
        <time>2021-05-08T12:00:57Z</time>
      </trkpt>
      <trkpt lat="40.4161390" lon="-4.0013620">
        <ele>657.7</ele>
        <time>2021-05-08T12:00:59Z</time>
      </trkpt>
      <trkpt lat="40.4160520" lon="-4.0013350">
        <ele>657.5</ele>
        <time>2021-05-08T12:01:01Z</time>
      </trkpt>
      <trkpt lat="40.4159670" lon="-4.0013120">
        <ele>657.3</ele>
        <time>2021-05-08T12:01:02Z</time>
      </trkpt>
      <trkpt lat="40.4159050" lon="-4.0012950">
        <ele>657.2</ele>
        <time>2021-05-08T12:01:03Z</time>
      </trkpt>
      <trkpt lat="40.4157860" lon="-4.0012560">
        <ele>657.0</ele>
        <time>2021-05-08T12:01:05Z</time>
      </trkpt>
      <trkpt lat="40.4156680" lon="-4.0012190">
        <ele>656.8</ele>
        <time>2021-05-08T12:01:07Z</time>
      </trkpt>
      <trkpt lat="40.4155510" lon="-4.0011820">
        <ele>656.6</ele>
        <time>2021-05-08T12:01:09Z</time>
      </trkpt>
      <trkpt lat="40.4154280" lon="-4.0011470">
        <ele>656.4</ele>
        <time>2021-05-08T12:01:11Z</time>
      </trkpt>
      <trkpt lat="40.4153670" lon="-4.0011290">
        <ele>656.2</ele>
        <time>2021-05-08T12:01:12Z</time>
      </trkpt>
      <trkpt lat="40.4153040" lon="-4.0011120">
        <ele>656.1</ele>
        <time>2021-05-08T12:01:13Z</time>
      </trkpt>
      <trkpt lat="40.4151800" lon="-4.0010780">
        <ele>655.9</ele>
        <time>2021-05-08T12:01:15Z</time>
      </trkpt>
      <trkpt lat="40.4151200" lon="-4.0010620">
        <ele>655.8</ele>
        <time>2021-05-08T12:01:16Z</time>
      </trkpt>
      <trkpt lat="40.4150040" lon="-4.0010280">
        <ele>655.7</ele>
        <time>2021-05-08T12:01:18Z</time>
      </trkpt>
      <trkpt lat="40.4148910" lon="-4.0009980">
        <ele>655.6</ele>
        <time>2021-05-08T12:01:20Z</time>
      </trkpt>
      <trkpt lat="40.4148440" lon="-4.0009840">
        <ele>655.5</ele>
        <time>2021-05-08T12:01:21Z</time>
      </trkpt>
      <trkpt lat="40.4147830" lon="-4.0009660">
        <ele>655.5</ele>
        <time>2021-05-08T12:01:22Z</time>
      </trkpt>
      <trkpt lat="40.4147230" lon="-4.0009480">
        <ele>655.5</ele>
        <time>2021-05-08T12:01:23Z</time>
      </trkpt>
      <trkpt lat="40.4146060" lon="-4.0009110">
        <ele>655.5</ele>
        <time>2021-05-08T12:01:25Z</time>
      </trkpt>
      <trkpt lat="40.4144860" lon="-4.0008780">
        <ele>655.4</ele>
        <time>2021-05-08T12:01:27Z</time>
      </trkpt>
      <trkpt lat="40.4143690" lon="-4.0008470">
        <ele>655.4</ele>
        <time>2021-05-08T12:01:29Z</time>
      </trkpt>
      <trkpt lat="40.4142530" lon="-4.0008190">
        <ele>655.5</ele>
        <time>2021-05-08T12:01:31Z</time>
      </trkpt>
      <trkpt lat="40.4141960" lon="-4.0008050">
        <ele>655.5</ele>
        <time>2021-05-08T12:01:32Z</time>
      </trkpt>
      <trkpt lat="40.4140850" lon="-4.0007640">
        <ele>655.6</ele>
        <time>2021-05-08T12:01:34Z</time>
      </trkpt>
      <trkpt lat="40.4140280" lon="-4.0007430">
        <ele>655.7</ele>
        <time>2021-05-08T12:01:35Z</time>
      </trkpt>
      <trkpt lat="40.4139180" lon="-4.0007080">
        <ele>655.8</ele>
        <time>2021-05-08T12:01:37Z</time>
      </trkpt>
      <trkpt lat="40.4138100" lon="-4.0006690">
        <ele>655.9</ele>
        <time>2021-05-08T12:01:39Z</time>
      </trkpt>
      <trkpt lat="40.4137330" lon="-4.0006350">
        <ele>656.0</ele>
        <time>2021-05-08T12:01:41Z</time>
      </trkpt>
      <trkpt lat="40.4136560" lon="-4.0006130">
        <ele>656.0</ele>
        <time>2021-05-08T12:01:42Z</time>
      </trkpt>
      <trkpt lat="40.4136010" lon="-4.0005950">
        <ele>656.0</ele>
        <time>2021-05-08T12:01:43Z</time>
      </trkpt>
      <trkpt lat="40.4134970" lon="-4.0005600">
        <ele>656.1</ele>
        <time>2021-05-08T12:01:45Z</time>
      </trkpt>
      <trkpt lat="40.4133990" lon="-4.0005300">
        <ele>656.1</ele>
        <time>2021-05-08T12:01:47Z</time>
      </trkpt>
      <trkpt lat="40.4132940" lon="-4.0005000">
        <ele>656.1</ele>
        <time>2021-05-08T12:01:49Z</time>
      </trkpt>
      <trkpt lat="40.4131920" lon="-4.0004730">
        <ele>656.1</ele>
        <time>2021-05-08T12:01:51Z</time>
      </trkpt>
      <trkpt lat="40.4131380" lon="-4.0004610">
        <ele>656.1</ele>
        <time>2021-05-08T12:01:52Z</time>
      </trkpt>
      <trkpt lat="40.4130330" lon="-4.0004250">
        <ele>656.1</ele>
        <time>2021-05-08T12:01:54Z</time>
      </trkpt>
      <trkpt lat="40.4129780" lon="-4.0004040">
        <ele>656.1</ele>
        <time>2021-05-08T12:01:55Z</time>
      </trkpt>
      <trkpt lat="40.4128620" lon="-4.0003650">
        <ele>656.1</ele>
        <time>2021-05-08T12:01:57Z</time>
      </trkpt>
      <trkpt lat="40.4127470" lon="-4.0003300">
        <ele>656.1</ele>
        <time>2021-05-08T12:01:59Z</time>
      </trkpt>
      <trkpt lat="40.4126370" lon="-4.0002930">
        <ele>656.1</ele>
        <time>2021-05-08T12:02:01Z</time>
      </trkpt>
      <trkpt lat="40.4125830" lon="-4.0002750">
        <ele>656.1</ele>
        <time>2021-05-08T12:02:02Z</time>
      </trkpt>
      <trkpt lat="40.4125310" lon="-4.0002620">
        <ele>656.2</ele>
        <time>2021-05-08T12:02:03Z</time>
      </trkpt>
      <trkpt lat="40.4124810" lon="-4.0002500">
        <ele>656.2</ele>
        <time>2021-05-08T12:02:04Z</time>
      </trkpt>
      <trkpt lat="40.4123790" lon="-4.0002290">
        <ele>656.3</ele>
        <time>2021-05-08T12:02:06Z</time>
      </trkpt>
      <trkpt lat="40.4123300" lon="-4.0002180">
        <ele>656.3</ele>
        <time>2021-05-08T12:02:07Z</time>
      </trkpt>
      <trkpt lat="40.4122360" lon="-4.0001950">
        <ele>656.4</ele>
        <time>2021-05-08T12:02:09Z</time>
      </trkpt>
      <trkpt lat="40.4121470" lon="-4.0001720">
        <ele>656.4</ele>
        <time>2021-05-08T12:02:11Z</time>
      </trkpt>
      <trkpt lat="40.4121200" lon="-4.0001660">
        <ele>656.4</ele>
        <time>2021-05-08T12:02:12Z</time>
      </trkpt>
      <trkpt lat="40.4120220" lon="-4.0001450">
        <ele>656.4</ele>
        <time>2021-05-08T12:02:14Z</time>
      </trkpt>
      <trkpt lat="40.4119380" lon="-4.0001190">
        <ele>656.4</ele>
        <time>2021-05-08T12:02:16Z</time>
      </trkpt>
      <trkpt lat="40.4119090" lon="-4.0001100">
        <ele>656.4</ele>
        <time>2021-05-08T12:02:17Z</time>
      </trkpt>
      <trkpt lat="40.4118600" lon="-4.0001190">
        <ele>656.4</ele>
        <time>2021-05-08T12:02:19Z</time>
      </trkpt>
      <trkpt lat="40.4118130" lon="-4.0001070">
        <ele>656.4</ele>
        <time>2021-05-08T12:02:20Z</time>
      </trkpt>
      <trkpt lat="40.4117480" lon="-4.0000900">
        <ele>656.5</ele>
        <time>2021-05-08T12:02:22Z</time>
      </trkpt>
      <trkpt lat="40.4116830" lon="-4.0000830">
        <ele>656.6</ele>
        <time>2021-05-08T12:02:24Z</time>
      </trkpt>
      <trkpt lat="40.4116340" lon="-4.0000770">
        <ele>656.6</ele>
        <time>2021-05-08T12:02:25Z</time>
      </trkpt>
      <trkpt lat="40.4115580" lon="-4.0000750">
        <ele>656.7</ele>
        <time>2021-05-08T12:02:27Z</time>
      </trkpt>
      <trkpt lat="40.4115040" lon="-4.0000810">
        <ele>656.7</ele>
        <time>2021-05-08T12:02:28Z</time>
      </trkpt>
      <trkpt lat="40.4114670" lon="-4.0000960">
        <ele>656.7</ele>
        <time>2021-05-08T12:02:30Z</time>
      </trkpt>
      <trkpt lat="40.4114330" lon="-4.0001130">
        <ele>656.8</ele>
        <time>2021-05-08T12:02:31Z</time>
      </trkpt>
      <trkpt lat="40.4113720" lon="-4.0001410">
        <ele>656.9</ele>
        <time>2021-05-08T12:02:33Z</time>
      </trkpt>
      <trkpt lat="40.4113070" lon="-4.0001460">
        <ele>656.9</ele>
        <time>2021-05-08T12:02:35Z</time>
      </trkpt>
      <trkpt lat="40.4112620" lon="-4.0001320">
        <ele>657.0</ele>
        <time>2021-05-08T12:02:36Z</time>
      </trkpt>
      <trkpt lat="40.4112210" lon="-4.0001030">
        <ele>657.1</ele>
        <time>2021-05-08T12:02:37Z</time>
      </trkpt>
      <trkpt lat="40.4111630" lon="-4.0000380">
        <ele>657.3</ele>
        <time>2021-05-08T12:02:39Z</time>
      </trkpt>
      <trkpt lat="40.4111200" lon="-3.9999870">
        <ele>657.5</ele>
        <time>2021-05-08T12:02:40Z</time>
      </trkpt>
      <trkpt lat="40.4110800" lon="-3.9999430">
        <ele>657.6</ele>
        <time>2021-05-08T12:02:41Z</time>
      </trkpt>
      <trkpt lat="40.4110330" lon="-3.9998960">
        <ele>657.6</ele>
        <time>2021-05-08T12:02:42Z</time>
      </trkpt>
      <trkpt lat="40.4109860" lon="-3.9998740">
        <ele>657.7</ele>
        <time>2021-05-08T12:02:43Z</time>
      </trkpt>
      <trkpt lat="40.4109390" lon="-3.9998660">
        <ele>657.8</ele>
        <time>2021-05-08T12:02:44Z</time>
      </trkpt>
      <trkpt lat="40.4108800" lon="-3.9998520">
        <ele>658.0</ele>
        <time>2021-05-08T12:02:46Z</time>
      </trkpt>
      <trkpt lat="40.4108150" lon="-3.9998380">
        <ele>658.2</ele>
        <time>2021-05-08T12:02:48Z</time>
      </trkpt>
      <trkpt lat="40.4107640" lon="-3.9998250">
        <ele>658.4</ele>
        <time>2021-05-08T12:02:49Z</time>
      </trkpt>
      <trkpt lat="40.4107280" lon="-3.9998170">
        <ele>658.5</ele>
        <time>2021-05-08T12:02:50Z</time>
      </trkpt>
      <trkpt lat="40.4106900" lon="-3.9998030">
        <ele>658.6</ele>
        <time>2021-05-08T12:02:51Z</time>
      </trkpt>
      <trkpt lat="40.4106440" lon="-3.9997840">
        <ele>658.8</ele>
        <time>2021-05-08T12:02:53Z</time>
      </trkpt>
      <trkpt lat="40.4105990" lon="-3.9997770">
        <ele>658.9</ele>
        <time>2021-05-08T12:02:55Z</time>
      </trkpt>
      <trkpt lat="40.4105670" lon="-3.9997720">
        <ele>659.0</ele>
        <time>2021-05-08T12:02:56Z</time>
      </trkpt>
      <trkpt lat="40.4105440" lon="-3.9997670">
        <ele>659.1</ele>
        <time>2021-05-08T12:02:57Z</time>
      </trkpt>
      <trkpt lat="40.4105120" lon="-3.9997610">
        <ele>659.1</ele>
        <time>2021-05-08T12:02:59Z</time>
      </trkpt>
      <trkpt lat="40.4104900" lon="-3.9997590">
        <ele>659.2</ele>
        <time>2021-05-08T12:03:00Z</time>
      </trkpt>
      <trkpt lat="40.4104540" lon="-3.9997440">
        <ele>659.2</ele>
        <time>2021-05-08T12:03:02Z</time>
      </trkpt>
      <trkpt lat="40.4104150" lon="-3.9997330">
        <ele>659.3</ele>
        <time>2021-05-08T12:03:03Z</time>
      </trkpt>
      <trkpt lat="40.4103600" lon="-3.9997140">
        <ele>659.4</ele>
        <time>2021-05-08T12:03:05Z</time>
      </trkpt>
      <trkpt lat="40.4103270" lon="-3.9997030">
        <ele>659.5</ele>
        <time>2021-05-08T12:03:06Z</time>
      </trkpt>
      <trkpt lat="40.4102830" lon="-3.9996860">
        <ele>659.6</ele>
        <time>2021-05-08T12:03:07Z</time>
      </trkpt>
      <trkpt lat="40.4102270" lon="-3.9996680">
        <ele>659.7</ele>
        <time>2021-05-08T12:03:09Z</time>
      </trkpt>
      <trkpt lat="40.4101670" lon="-3.9996430">
        <ele>659.8</ele>
        <time>2021-05-08T12:03:11Z</time>
      </trkpt>
      <trkpt lat="40.4101290" lon="-3.9996310">
        <ele>659.9</ele>
        <time>2021-05-08T12:03:12Z</time>
      </trkpt>
      <trkpt lat="40.4100870" lon="-3.9996170">
        <ele>660.0</ele>
        <time>2021-05-08T12:03:13Z</time>
      </trkpt>
      <trkpt lat="40.4100260" lon="-3.9995880">
        <ele>660.1</ele>
        <time>2021-05-08T12:03:14Z</time>
      </trkpt>
      <trkpt lat="40.4099740" lon="-3.9995630">
        <ele>660.1</ele>
        <time>2021-05-08T12:03:16Z</time>
      </trkpt>
      <trkpt lat="40.4099210" lon="-3.9995410">
        <ele>660.2</ele>
        <time>2021-05-08T12:03:17Z</time>
      </trkpt>
      <trkpt lat="40.4098680" lon="-3.9995130">
        <ele>660.3</ele>
        <time>2021-05-08T12:03:18Z</time>
      </trkpt>
      <trkpt lat="40.4097950" lon="-3.9994850">
        <ele>660.3</ele>
        <time>2021-05-08T12:03:20Z</time>
      </trkpt>
      <trkpt lat="40.4097590" lon="-3.9994560">
        <ele>660.4</ele>
        <time>2021-05-08T12:03:21Z</time>
      </trkpt>
      <trkpt lat="40.4096870" lon="-3.9993940">
        <ele>660.5</ele>
        <time>2021-05-08T12:03:23Z</time>
      </trkpt>
      <trkpt lat="40.4096370" lon="-3.9993560">
        <ele>660.5</ele>
        <time>2021-05-08T12:03:24Z</time>
      </trkpt>
      <trkpt lat="40.4095950" lon="-3.9993260">
        <ele>660.6</ele>
        <time>2021-05-08T12:03:25Z</time>
      </trkpt>
      <trkpt lat="40.4095380" lon="-3.9992850">
        <ele>660.6</ele>
        <time>2021-05-08T12:03:27Z</time>
      </trkpt>
      <trkpt lat="40.4094570" lon="-3.9992040">
        <ele>660.7</ele>
        <time>2021-05-08T12:03:29Z</time>
      </trkpt>
      <trkpt lat="40.4093730" lon="-3.9991310">
        <ele>660.7</ele>
        <time>2021-05-08T12:03:31Z</time>
      </trkpt>
      <trkpt lat="40.4092880" lon="-3.9990660">
        <ele>660.7</ele>
        <time>2021-05-08T12:03:33Z</time>
      </trkpt>
      <trkpt lat="40.4092450" lon="-3.9990300">
        <ele>660.7</ele>
        <time>2021-05-08T12:03:34Z</time>
      </trkpt>
      <trkpt lat="40.4091570" lon="-3.9989610">
        <ele>660.7</ele>
        <time>2021-05-08T12:03:36Z</time>
      </trkpt>
      <trkpt lat="40.4090730" lon="-3.9988830">
        <ele>660.7</ele>
        <time>2021-05-08T12:03:38Z</time>
      </trkpt>
      <trkpt lat="40.4089970" lon="-3.9988080">
        <ele>660.6</ele>
        <time>2021-05-08T12:03:40Z</time>
      </trkpt>
      <trkpt lat="40.4089590" lon="-3.9987720">
        <ele>660.6</ele>
        <time>2021-05-08T12:03:41Z</time>
      </trkpt>
      <trkpt lat="40.4089190" lon="-3.9987350">
        <ele>660.6</ele>
        <time>2021-05-08T12:03:42Z</time>
      </trkpt>
      <trkpt lat="40.4088450" lon="-3.9986580">
        <ele>660.6</ele>
        <time>2021-05-08T12:03:44Z</time>
      </trkpt>
      <trkpt lat="40.4087730" lon="-3.9985870">
        <ele>660.6</ele>
        <time>2021-05-08T12:03:46Z</time>
      </trkpt>
      <trkpt lat="40.4086990" lon="-3.9985060">
        <ele>660.5</ele>
        <time>2021-05-08T12:03:48Z</time>
      </trkpt>
      <trkpt lat="40.4086580" lon="-3.9984650">
        <ele>660.5</ele>
        <time>2021-05-08T12:03:49Z</time>
      </trkpt>
      <trkpt lat="40.4085770" lon="-3.9983840">
        <ele>660.4</ele>
        <time>2021-05-08T12:03:51Z</time>
      </trkpt>
      <trkpt lat="40.4084980" lon="-3.9983000">
        <ele>660.2</ele>
        <time>2021-05-08T12:03:53Z</time>
      </trkpt>
      <trkpt lat="40.4084570" lon="-3.9982530">
        <ele>660.1</ele>
        <time>2021-05-08T12:03:54Z</time>
      </trkpt>
      <trkpt lat="40.4083730" lon="-3.9981530">
        <ele>659.9</ele>
        <time>2021-05-08T12:03:56Z</time>
      </trkpt>
      <trkpt lat="40.4083290" lon="-3.9981030">
        <ele>659.7</ele>
        <time>2021-05-08T12:03:57Z</time>
      </trkpt>
      <trkpt lat="40.4082850" lon="-3.9980500">
        <ele>659.6</ele>
        <time>2021-05-08T12:03:58Z</time>
      </trkpt>
      <trkpt lat="40.4082410" lon="-3.9979940">
        <ele>659.4</ele>
        <time>2021-05-08T12:03:59Z</time>
      </trkpt>
      <trkpt lat="40.4081520" lon="-3.9978760">
        <ele>659.1</ele>
        <time>2021-05-08T12:04:01Z</time>
      </trkpt>
      <trkpt lat="40.4081040" lon="-3.9978160">
        <ele>659.0</ele>
        <time>2021-05-08T12:04:02Z</time>
      </trkpt>
      <trkpt lat="40.4080590" lon="-3.9977560">
        <ele>658.8</ele>
        <time>2021-05-08T12:04:03Z</time>
      </trkpt>
      <trkpt lat="40.4079760" lon="-3.9976700">
        <ele>658.7</ele>
        <time>2021-05-08T12:04:05Z</time>
      </trkpt>
      <trkpt lat="40.4079350" lon="-3.9976490">
        <ele>658.6</ele>
        <time>2021-05-08T12:04:07Z</time>
      </trkpt>
      <trkpt lat="40.4079160" lon="-3.9976410">
        <ele>658.6</ele>
        <time>2021-05-08T12:04:08Z</time>
      </trkpt>
      <trkpt lat="40.4078810" lon="-3.9976310">
        <ele>658.5</ele>
        <time>2021-05-08T12:04:10Z</time>
      </trkpt>
      <trkpt lat="40.4078580" lon="-3.9976220">
        <ele>658.5</ele>
        <time>2021-05-08T12:04:11Z</time>
      </trkpt>
      <trkpt lat="40.4078910" lon="-3.9976410">
        <ele>658.5</ele>
        <time>2021-05-08T12:04:12Z</time>
      </trkpt>
      <trkpt lat="40.4078360" lon="-3.9976210">
        <ele>658.5</ele>
        <time>2021-05-08T12:04:14Z</time>
      </trkpt>
      <trkpt lat="40.4077890" lon="-3.9975840">
        <ele>658.4</ele>
        <time>2021-05-08T12:04:15Z</time>
      </trkpt>
      <trkpt lat="40.4077500" lon="-3.9975210">
        <ele>658.3</ele>
        <time>2021-05-08T12:04:16Z</time>
      </trkpt>
      <trkpt lat="40.4077170" lon="-3.9974570">
        <ele>658.2</ele>
        <time>2021-05-08T12:04:18Z</time>
      </trkpt>
      <trkpt lat="40.4076830" lon="-3.9974030">
        <ele>658.1</ele>
        <time>2021-05-08T12:04:20Z</time>
      </trkpt>
      <trkpt lat="40.4076550" lon="-3.9973360">
        <ele>658.0</ele>
        <time>2021-05-08T12:04:21Z</time>
      </trkpt>
      <trkpt lat="40.4076020" lon="-3.9972710">
        <ele>657.6</ele>
        <time>2021-05-08T12:04:22Z</time>
      </trkpt>
      <trkpt lat="40.4075030" lon="-3.9972040">
        <ele>657.0</ele>
        <time>2021-05-08T12:04:24Z</time>
      </trkpt>
      <trkpt lat="40.4074030" lon="-3.9971330">
        <ele>656.2</ele>
        <time>2021-05-08T12:04:26Z</time>
      </trkpt>
      <trkpt lat="40.4073520" lon="-3.9970920">
        <ele>655.9</ele>
        <time>2021-05-08T12:04:27Z</time>
      </trkpt>
      <trkpt lat="40.4073030" lon="-3.9970440">
        <ele>655.5</ele>
        <time>2021-05-08T12:04:28Z</time>
      </trkpt>
      <trkpt lat="40.4072530" lon="-3.9969920">
        <ele>655.1</ele>
        <time>2021-05-08T12:04:29Z</time>
      </trkpt>
      <trkpt lat="40.4071470" lon="-3.9968830">
        <ele>654.3</ele>
        <time>2021-05-08T12:04:31Z</time>
      </trkpt>
      <trkpt lat="40.4070360" lon="-3.9967710">
        <ele>653.4</ele>
        <time>2021-05-08T12:04:33Z</time>
      </trkpt>
      <trkpt lat="40.4069740" lon="-3.9967110">
        <ele>653.0</ele>
        <time>2021-05-08T12:04:34Z</time>
      </trkpt>
      <trkpt lat="40.4068560" lon="-3.9965940">
        <ele>652.2</ele>
        <time>2021-05-08T12:04:36Z</time>
      </trkpt>
      <trkpt lat="40.4067350" lon="-3.9964730">
        <ele>651.4</ele>
        <time>2021-05-08T12:04:38Z</time>
      </trkpt>
      <trkpt lat="40.4066770" lon="-3.9964130">
        <ele>651.1</ele>
        <time>2021-05-08T12:04:39Z</time>
      </trkpt>
      <trkpt lat="40.4065550" lon="-3.9962850">
        <ele>650.3</ele>
        <time>2021-05-08T12:04:41Z</time>
      </trkpt>
      <trkpt lat="40.4064270" lon="-3.9961520">
        <ele>649.4</ele>
        <time>2021-05-08T12:04:43Z</time>
      </trkpt>
      <trkpt lat="40.4063600" lon="-3.9960830">
        <ele>649.1</ele>
        <time>2021-05-08T12:04:44Z</time>
      </trkpt>
      <trkpt lat="40.4062290" lon="-3.9959380">
        <ele>648.3</ele>
        <time>2021-05-08T12:04:46Z</time>
      </trkpt>
      <trkpt lat="40.4060930" lon="-3.9957970">
        <ele>647.6</ele>
        <time>2021-05-08T12:04:48Z</time>
      </trkpt>
      <trkpt lat="40.4059620" lon="-3.9956680">
        <ele>646.9</ele>
        <time>2021-05-08T12:04:50Z</time>
      </trkpt>
      <trkpt lat="40.4058970" lon="-3.9956000">
        <ele>646.5</ele>
        <time>2021-05-08T12:04:51Z</time>
      </trkpt>
      <trkpt lat="40.4057680" lon="-3.9954710">
        <ele>645.8</ele>
        <time>2021-05-08T12:04:53Z</time>
      </trkpt>
      <trkpt lat="40.4057000" lon="-3.9954040">
        <ele>645.4</ele>
        <time>2021-05-08T12:04:54Z</time>
      </trkpt>
      <trkpt lat="40.4055660" lon="-3.9952840">
        <ele>644.7</ele>
        <time>2021-05-08T12:04:56Z</time>
      </trkpt>
      <trkpt lat="40.4054940" lon="-3.9952330">
        <ele>644.3</ele>
        <time>2021-05-08T12:04:57Z</time>
      </trkpt>
      <trkpt lat="40.4054110" lon="-3.9951830">
        <ele>643.7</ele>
        <time>2021-05-08T12:04:58Z</time>
      </trkpt>
      <trkpt lat="40.4052710" lon="-3.9951140">
        <ele>643.3</ele>
        <time>2021-05-08T12:05:00Z</time>
      </trkpt>
      <trkpt lat="40.4051180" lon="-3.9950420">
        <ele>642.8</ele>
        <time>2021-05-08T12:05:02Z</time>
      </trkpt>
      <trkpt lat="40.4049690" lon="-3.9949790">
        <ele>642.3</ele>
        <time>2021-05-08T12:05:04Z</time>
      </trkpt>
      <trkpt lat="40.4048200" lon="-3.9949160">
        <ele>641.9</ele>
        <time>2021-05-08T12:05:06Z</time>
      </trkpt>
      <trkpt lat="40.4047470" lon="-3.9948950">
        <ele>641.7</ele>
        <time>2021-05-08T12:05:07Z</time>
      </trkpt>
      <trkpt lat="40.4046700" lon="-3.9948870">
        <ele>641.5</ele>
        <time>2021-05-08T12:05:08Z</time>
      </trkpt>
      <trkpt lat="40.4045950" lon="-3.9948850">
        <ele>641.4</ele>
        <time>2021-05-08T12:05:09Z</time>
      </trkpt>
      <trkpt lat="40.4044470" lon="-3.9949210">
        <ele>641.4</ele>
        <time>2021-05-08T12:05:11Z</time>
      </trkpt>
      <trkpt lat="40.4043770" lon="-3.9949500">
        <ele>641.5</ele>
        <time>2021-05-08T12:05:12Z</time>
      </trkpt>
      <trkpt lat="40.4042380" lon="-3.9949530">
        <ele>641.2</ele>
        <time>2021-05-08T12:05:14Z</time>
      </trkpt>
      <trkpt lat="40.4041750" lon="-3.9949180">
        <ele>641.1</ele>
        <time>2021-05-08T12:05:15Z</time>
      </trkpt>
      <trkpt lat="40.4040910" lon="-3.9947850">
        <ele>641.0</ele>
        <time>2021-05-08T12:05:17Z</time>
      </trkpt>
      <trkpt lat="40.4040670" lon="-3.9946310">
        <ele>641.6</ele>
        <time>2021-05-08T12:05:19Z</time>
      </trkpt>
      <trkpt lat="40.4040800" lon="-3.9945300">
        <ele>641.8</ele>
        <time>2021-05-08T12:05:21Z</time>
      </trkpt>
      <trkpt lat="40.4041200" lon="-3.9944130">
        <ele>641.9</ele>
        <time>2021-05-08T12:05:22Z</time>
      </trkpt>
      <trkpt lat="40.4041300" lon="-3.9942460">
        <ele>641.6</ele>
        <time>2021-05-08T12:05:24Z</time>
      </trkpt>
      <trkpt lat="40.4041200" lon="-3.9941530">
        <ele>641.4</ele>
        <time>2021-05-08T12:05:25Z</time>
      </trkpt>
      <trkpt lat="40.4040820" lon="-3.9939720">
        <ele>641.0</ele>
        <time>2021-05-08T12:05:27Z</time>
      </trkpt>
      <trkpt lat="40.4040540" lon="-3.9937890">
        <ele>640.7</ele>
        <time>2021-05-08T12:05:29Z</time>
      </trkpt>
      <trkpt lat="40.4040270" lon="-3.9936000">
        <ele>640.6</ele>
        <time>2021-05-08T12:05:31Z</time>
      </trkpt>
      <trkpt lat="40.4040150" lon="-3.9935030">
        <ele>640.6</ele>
        <time>2021-05-08T12:05:32Z</time>
      </trkpt>
      <trkpt lat="40.4039920" lon="-3.9933180">
        <ele>640.4</ele>
        <time>2021-05-08T12:05:34Z</time>
      </trkpt>
      <trkpt lat="40.4039660" lon="-3.9931390">
        <ele>640.3</ele>
        <time>2021-05-08T12:05:36Z</time>
      </trkpt>
      <trkpt lat="40.4039540" lon="-3.9930490">
        <ele>640.2</ele>
        <time>2021-05-08T12:05:37Z</time>
      </trkpt>
      <trkpt lat="40.4039400" lon="-3.9929610">
        <ele>640.2</ele>
        <time>2021-05-08T12:05:38Z</time>
      </trkpt>
      <trkpt lat="40.4039250" lon="-3.9928790">
        <ele>640.2</ele>
        <time>2021-05-08T12:05:39Z</time>
      </trkpt>
      <trkpt lat="40.4038890" lon="-3.9927120">
        <ele>640.1</ele>
        <time>2021-05-08T12:05:41Z</time>
      </trkpt>
      <trkpt lat="40.4038640" lon="-3.9926130">
        <ele>640.0</ele>
        <time>2021-05-08T12:05:42Z</time>
      </trkpt>
      <trkpt lat="40.4038440" lon="-3.9925350">
        <ele>640.0</ele>
        <time>2021-05-08T12:05:43Z</time>
      </trkpt>
      <trkpt lat="40.4037950" lon="-3.9923690">
        <ele>640.0</ele>
        <time>2021-05-08T12:05:45Z</time>
      </trkpt>
      <trkpt lat="40.4037410" lon="-3.9922070">
        <ele>639.9</ele>
        <time>2021-05-08T12:05:47Z</time>
      </trkpt>
      <trkpt lat="40.4037110" lon="-3.9921270">
        <ele>639.9</ele>
        <time>2021-05-08T12:05:48Z</time>
      </trkpt>
      <trkpt lat="40.4036510" lon="-3.9919680">
        <ele>639.8</ele>
        <time>2021-05-08T12:05:50Z</time>
      </trkpt>
      <trkpt lat="40.4036210" lon="-3.9918890">
        <ele>639.8</ele>
        <time>2021-05-08T12:05:51Z</time>
      </trkpt>
      <trkpt lat="40.4035930" lon="-3.9918120">
        <ele>639.7</ele>
        <time>2021-05-08T12:05:52Z</time>
      </trkpt>
      <trkpt lat="40.4035400" lon="-3.9916580">
        <ele>639.6</ele>
        <time>2021-05-08T12:05:54Z</time>
      </trkpt>
      <trkpt lat="40.4034890" lon="-3.9914940">
        <ele>639.5</ele>
        <time>2021-05-08T12:05:56Z</time>
      </trkpt>
      <trkpt lat="40.4034500" lon="-3.9913290">
        <ele>639.3</ele>
        <time>2021-05-08T12:05:58Z</time>
      </trkpt>
      <trkpt lat="40.4034340" lon="-3.9912440">
        <ele>639.3</ele>
        <time>2021-05-08T12:05:59Z</time>
      </trkpt>
      <trkpt lat="40.4034110" lon="-3.9911160">
        <ele>639.2</ele>
        <time>2021-05-08T12:06:01Z</time>
      </trkpt>
      <trkpt lat="40.4033910" lon="-3.9909880">
        <ele>639.0</ele>
        <time>2021-05-08T12:06:02Z</time>
      </trkpt>
      <trkpt lat="40.4033570" lon="-3.9908100">
        <ele>638.8</ele>
        <time>2021-05-08T12:06:04Z</time>
      </trkpt>
      <trkpt lat="40.4033410" lon="-3.9907190">
        <ele>638.7</ele>
        <time>2021-05-08T12:06:05Z</time>
      </trkpt>
      <trkpt lat="40.4033080" lon="-3.9905340">
        <ele>638.5</ele>
        <time>2021-05-08T12:06:07Z</time>
      </trkpt>
      <trkpt lat="40.4032920" lon="-3.9904410">
        <ele>638.3</ele>
        <time>2021-05-08T12:06:08Z</time>
      </trkpt>
      <trkpt lat="40.4032600" lon="-3.9902520">
        <ele>638.1</ele>
        <time>2021-05-08T12:06:10Z</time>
      </trkpt>
      <trkpt lat="40.4032450" lon="-3.9901580">
        <ele>638.0</ele>
        <time>2021-05-08T12:06:11Z</time>
      </trkpt>
      <trkpt lat="40.4032310" lon="-3.9900640">
        <ele>637.9</ele>
        <time>2021-05-08T12:06:12Z</time>
      </trkpt>
      <trkpt lat="40.4031990" lon="-3.9898890">
        <ele>637.8</ele>
        <time>2021-05-08T12:06:14Z</time>
      </trkpt>
      <trkpt lat="40.4031690" lon="-3.9897130">
        <ele>637.8</ele>
        <time>2021-05-08T12:06:16Z</time>
      </trkpt>
      <trkpt lat="40.4031500" lon="-3.9895360">
        <ele>637.8</ele>
        <time>2021-05-08T12:06:18Z</time>
      </trkpt>
      <trkpt lat="40.4031440" lon="-3.9894470">
        <ele>637.9</ele>
        <time>2021-05-08T12:06:19Z</time>
      </trkpt>
      <trkpt lat="40.4031430" lon="-3.9893600">
        <ele>638.0</ele>
        <time>2021-05-08T12:06:20Z</time>
      </trkpt>
      <trkpt lat="40.4031480" lon="-3.9891990">
        <ele>638.1</ele>
        <time>2021-05-08T12:06:22Z</time>
      </trkpt>
      <trkpt lat="40.4031570" lon="-3.9890360">
        <ele>638.3</ele>
        <time>2021-05-08T12:06:24Z</time>
      </trkpt>
      <trkpt lat="40.4031690" lon="-3.9888770">
        <ele>638.4</ele>
        <time>2021-05-08T12:06:26Z</time>
      </trkpt>
      <trkpt lat="40.4031760" lon="-3.9887910">
        <ele>638.4</ele>
        <time>2021-05-08T12:06:27Z</time>
      </trkpt>
      <trkpt lat="40.4031940" lon="-3.9886140">
        <ele>638.4</ele>
        <time>2021-05-08T12:06:29Z</time>
      </trkpt>
      <trkpt lat="40.4032070" lon="-3.9884420">
        <ele>638.3</ele>
        <time>2021-05-08T12:06:31Z</time>
      </trkpt>
      <trkpt lat="40.4032120" lon="-3.9883600">
        <ele>638.2</ele>
        <time>2021-05-08T12:06:32Z</time>
      </trkpt>
      <trkpt lat="40.4032180" lon="-3.9882770">
        <ele>638.1</ele>
        <time>2021-05-08T12:06:33Z</time>
      </trkpt>
      <trkpt lat="40.4032230" lon="-3.9881940">
        <ele>638.0</ele>
        <time>2021-05-08T12:06:34Z</time>
      </trkpt>
      <trkpt lat="40.4032350" lon="-3.9880250">
        <ele>637.8</ele>
        <time>2021-05-08T12:06:36Z</time>
      </trkpt>
      <trkpt lat="40.4032430" lon="-3.9878570">
        <ele>637.7</ele>
        <time>2021-05-08T12:06:38Z</time>
      </trkpt>
      <trkpt lat="40.4032550" lon="-3.9876850">
        <ele>637.6</ele>
        <time>2021-05-08T12:06:40Z</time>
      </trkpt>
      <trkpt lat="40.4032600" lon="-3.9875920">
        <ele>637.5</ele>
        <time>2021-05-08T12:06:41Z</time>
      </trkpt>
      <trkpt lat="40.4032660" lon="-3.9875080">
        <ele>637.4</ele>
        <time>2021-05-08T12:06:42Z</time>
      </trkpt>
      <trkpt lat="40.4032730" lon="-3.9874190">
        <ele>637.3</ele>
        <time>2021-05-08T12:06:43Z</time>
      </trkpt>
      <trkpt lat="40.4032800" lon="-3.9873260">
        <ele>637.3</ele>
        <time>2021-05-08T12:06:44Z</time>
      </trkpt>
      <trkpt lat="40.4032960" lon="-3.9871520">
        <ele>637.1</ele>
        <time>2021-05-08T12:06:46Z</time>
      </trkpt>
      <trkpt lat="40.4033030" lon="-3.9870680">
        <ele>637.0</ele>
        <time>2021-05-08T12:06:47Z</time>
      </trkpt>
      <trkpt lat="40.4033160" lon="-3.9868970">
        <ele>636.7</ele>
        <time>2021-05-08T12:06:49Z</time>
      </trkpt>
      <trkpt lat="40.4033320" lon="-3.9867210">
        <ele>636.5</ele>
        <time>2021-05-08T12:06:51Z</time>
      </trkpt>
      <trkpt lat="40.4033460" lon="-3.9865430">
        <ele>636.2</ele>
        <time>2021-05-08T12:06:53Z</time>
      </trkpt>
      <trkpt lat="40.4033540" lon="-3.9864570">
        <ele>636.1</ele>
        <time>2021-05-08T12:06:54Z</time>
      </trkpt>
      <trkpt lat="40.4033650" lon="-3.9862840">
        <ele>635.8</ele>
        <time>2021-05-08T12:06:56Z</time>
      </trkpt>
      <trkpt lat="40.4033760" lon="-3.9861130">
        <ele>635.4</ele>
        <time>2021-05-08T12:06:58Z</time>
      </trkpt>
      <trkpt lat="40.4033910" lon="-3.9859400">
        <ele>635.0</ele>
        <time>2021-05-08T12:07:00Z</time>
      </trkpt>
      <trkpt lat="40.4034090" lon="-3.9857750">
        <ele>634.6</ele>
        <time>2021-05-08T12:07:02Z</time>
      </trkpt>
      <trkpt lat="40.4034200" lon="-3.9856830">
        <ele>634.3</ele>
        <time>2021-05-08T12:07:03Z</time>
      </trkpt>
      <trkpt lat="40.4034320" lon="-3.9855930">
        <ele>634.0</ele>
        <time>2021-05-08T12:07:04Z</time>
      </trkpt>
      <trkpt lat="40.4034640" lon="-3.9854140">
        <ele>633.3</ele>
        <time>2021-05-08T12:07:06Z</time>
      </trkpt>
      <trkpt lat="40.4034850" lon="-3.9853190">
        <ele>633.0</ele>
        <time>2021-05-08T12:07:07Z</time>
      </trkpt>
      <trkpt lat="40.4035090" lon="-3.9852200">
        <ele>632.6</ele>
        <time>2021-05-08T12:07:08Z</time>
      </trkpt>
      <trkpt lat="40.4035630" lon="-3.9850160">
        <ele>631.8</ele>
        <time>2021-05-08T12:07:10Z</time>
      </trkpt>
      <trkpt lat="40.4035940" lon="-3.9849140">
        <ele>631.4</ele>
        <time>2021-05-08T12:07:11Z</time>
      </trkpt>
      <trkpt lat="40.4036670" lon="-3.9847000">
        <ele>630.6</ele>
        <time>2021-05-08T12:07:13Z</time>
      </trkpt>
      <trkpt lat="40.4037590" lon="-3.9844890">
        <ele>629.9</ele>
        <time>2021-05-08T12:07:15Z</time>
      </trkpt>
      <trkpt lat="40.4038750" lon="-3.9842870">
        <ele>629.4</ele>
        <time>2021-05-08T12:07:17Z</time>
      </trkpt>
      <trkpt lat="40.4040090" lon="-3.9841070">
        <ele>628.8</ele>
        <time>2021-05-08T12:07:19Z</time>
      </trkpt>
      <trkpt lat="40.4041570" lon="-3.9839430">
        <ele>628.4</ele>
        <time>2021-05-08T12:07:21Z</time>
      </trkpt>
      <trkpt lat="40.4043110" lon="-3.9838100">
        <ele>628.0</ele>
        <time>2021-05-08T12:07:23Z</time>
      </trkpt>
      <trkpt lat="40.4043920" lon="-3.9837420">
        <ele>627.9</ele>
        <time>2021-05-08T12:07:24Z</time>
      </trkpt>
      <trkpt lat="40.4045500" lon="-3.9835990">
        <ele>627.6</ele>
        <time>2021-05-08T12:07:26Z</time>
      </trkpt>
      <trkpt lat="40.4047000" lon="-3.9834560">
        <ele>627.3</ele>
        <time>2021-05-08T12:07:28Z</time>
      </trkpt>
      <trkpt lat="40.4048410" lon="-3.9833010">
        <ele>627.2</ele>
        <time>2021-05-08T12:07:30Z</time>
      </trkpt>
      <trkpt lat="40.4049870" lon="-3.9831290">
        <ele>627.0</ele>
        <time>2021-05-08T12:07:32Z</time>
      </trkpt>
      <trkpt lat="40.4050590" lon="-3.9830270">
        <ele>627.0</ele>
        <time>2021-05-08T12:07:33Z</time>
      </trkpt>
      <trkpt lat="40.4051260" lon="-3.9829150">
        <ele>626.9</ele>
        <time>2021-05-08T12:07:34Z</time>
      </trkpt>
      <trkpt lat="40.4052510" lon="-3.9826970">
        <ele>626.9</ele>
        <time>2021-05-08T12:07:36Z</time>
      </trkpt>
      <trkpt lat="40.4053030" lon="-3.9825860">
        <ele>626.9</ele>
        <time>2021-05-08T12:07:37Z</time>
      </trkpt>
      <trkpt lat="40.4053480" lon="-3.9824750">
        <ele>627.0</ele>
        <time>2021-05-08T12:07:38Z</time>
      </trkpt>
      <trkpt lat="40.4054290" lon="-3.9822620">
        <ele>627.1</ele>
        <time>2021-05-08T12:07:40Z</time>
      </trkpt>
      <trkpt lat="40.4054690" lon="-3.9821540">
        <ele>627.1</ele>
        <time>2021-05-08T12:07:41Z</time>
      </trkpt>
      <trkpt lat="40.4055430" lon="-3.9819550">
        <ele>627.1</ele>
        <time>2021-05-08T12:07:43Z</time>
      </trkpt>
      <trkpt lat="40.4056160" lon="-3.9817540">
        <ele>627.0</ele>
        <time>2021-05-08T12:07:45Z</time>
      </trkpt>
      <trkpt lat="40.4056960" lon="-3.9815530">
        <ele>626.8</ele>
        <time>2021-05-08T12:07:47Z</time>
      </trkpt>
      <trkpt lat="40.4057790" lon="-3.9813520">
        <ele>626.7</ele>
        <time>2021-05-08T12:07:49Z</time>
      </trkpt>
      <trkpt lat="40.4058600" lon="-3.9811560">
        <ele>626.7</ele>
        <time>2021-05-08T12:07:51Z</time>
      </trkpt>
      <trkpt lat="40.4059470" lon="-3.9809610">
        <ele>626.6</ele>
        <time>2021-05-08T12:07:53Z</time>
      </trkpt>
      <trkpt lat="40.4059910" lon="-3.9808590">
        <ele>626.6</ele>
        <time>2021-05-08T12:07:54Z</time>
      </trkpt>
      <trkpt lat="40.4060680" lon="-3.9806640">
        <ele>626.6</ele>
        <time>2021-05-08T12:07:56Z</time>
      </trkpt>
      <trkpt lat="40.4061500" lon="-3.9804720">
        <ele>626.7</ele>
        <time>2021-05-08T12:07:58Z</time>
      </trkpt>
      <trkpt lat="40.4062240" lon="-3.9802980">
        <ele>626.8</ele>
        <time>2021-05-08T12:08:00Z</time>
      </trkpt>
      <trkpt lat="40.4062590" lon="-3.9802110">
        <ele>626.9</ele>
        <time>2021-05-08T12:08:01Z</time>
      </trkpt>
      <trkpt lat="40.4063280" lon="-3.9800450">
        <ele>627.0</ele>
        <time>2021-05-08T12:08:03Z</time>
      </trkpt>
      <trkpt lat="40.4063630" lon="-3.9799660">
        <ele>627.0</ele>
        <time>2021-05-08T12:08:04Z</time>
      </trkpt>
      <trkpt lat="40.4064260" lon="-3.9798130">
        <ele>626.9</ele>
        <time>2021-05-08T12:08:06Z</time>
      </trkpt>
      <trkpt lat="40.4064540" lon="-3.9797370">
        <ele>626.8</ele>
        <time>2021-05-08T12:08:07Z</time>
      </trkpt>
      <trkpt lat="40.4065050" lon="-3.9795890">
        <ele>626.5</ele>
        <time>2021-05-08T12:08:09Z</time>
      </trkpt>
      <trkpt lat="40.4065570" lon="-3.9794400">
        <ele>626.0</ele>
        <time>2021-05-08T12:08:11Z</time>
      </trkpt>
      <trkpt lat="40.4066130" lon="-3.9792780">
        <ele>625.4</ele>
        <time>2021-05-08T12:08:13Z</time>
      </trkpt>
      <trkpt lat="40.4066470" lon="-3.9791920">
        <ele>625.1</ele>
        <time>2021-05-08T12:08:14Z</time>
      </trkpt>
      <trkpt lat="40.4067180" lon="-3.9790110">
        <ele>624.5</ele>
        <time>2021-05-08T12:08:16Z</time>
      </trkpt>
      <trkpt lat="40.4067960" lon="-3.9788170">
        <ele>623.9</ele>
        <time>2021-05-08T12:08:18Z</time>
      </trkpt>
      <trkpt lat="40.4068400" lon="-3.9787140">
        <ele>623.6</ele>
        <time>2021-05-08T12:08:19Z</time>
      </trkpt>
      <trkpt lat="40.4069280" lon="-3.9784950">
        <ele>623.1</ele>
        <time>2021-05-08T12:08:21Z</time>
      </trkpt>
      <trkpt lat="40.4069680" lon="-3.9783830">
        <ele>622.9</ele>
        <time>2021-05-08T12:08:22Z</time>
      </trkpt>
      <trkpt lat="40.4070050" lon="-3.9782690">
        <ele>622.7</ele>
        <time>2021-05-08T12:08:23Z</time>
      </trkpt>
      <trkpt lat="40.4070790" lon="-3.9780430">
        <ele>622.4</ele>
        <time>2021-05-08T12:08:25Z</time>
      </trkpt>
      <trkpt lat="40.4071140" lon="-3.9779310">
        <ele>622.3</ele>
        <time>2021-05-08T12:08:26Z</time>
      </trkpt>
      <trkpt lat="40.4071480" lon="-3.9778250">
        <ele>622.2</ele>
        <time>2021-05-08T12:08:27Z</time>
      </trkpt>
      <trkpt lat="40.4072100" lon="-3.9776230">
        <ele>622.1</ele>
        <time>2021-05-08T12:08:29Z</time>
      </trkpt>
      <trkpt lat="40.4072740" lon="-3.9774310">
        <ele>622.0</ele>
        <time>2021-05-08T12:08:31Z</time>
      </trkpt>
      <trkpt lat="40.4073350" lon="-3.9772510">
        <ele>621.7</ele>
        <time>2021-05-08T12:08:33Z</time>
      </trkpt>
      <trkpt lat="40.4073550" lon="-3.9771610">
        <ele>621.6</ele>
        <time>2021-05-08T12:08:34Z</time>
      </trkpt>
      <trkpt lat="40.4073920" lon="-3.9769720">
        <ele>621.3</ele>
        <time>2021-05-08T12:08:36Z</time>
      </trkpt>
      <trkpt lat="40.4074220" lon="-3.9768810">
        <ele>621.3</ele>
        <time>2021-05-08T12:08:37Z</time>
      </trkpt>
      <trkpt lat="40.4074550" lon="-3.9767930">
        <ele>621.2</ele>
        <time>2021-05-08T12:08:38Z</time>
      </trkpt>
      <trkpt lat="40.4075090" lon="-3.9766150">
        <ele>621.1</ele>
        <time>2021-05-08T12:08:40Z</time>
      </trkpt>
      <trkpt lat="40.4075460" lon="-3.9764360">
        <ele>620.9</ele>
        <time>2021-05-08T12:08:42Z</time>
      </trkpt>
      <trkpt lat="40.4075630" lon="-3.9763500">
        <ele>620.8</ele>
        <time>2021-05-08T12:08:43Z</time>
      </trkpt>
      <trkpt lat="40.4075790" lon="-3.9762640">
        <ele>620.7</ele>
        <time>2021-05-08T12:08:44Z</time>
      </trkpt>
      <trkpt lat="40.4075930" lon="-3.9761790">
        <ele>620.6</ele>
        <time>2021-05-08T12:08:45Z</time>
      </trkpt>
      <trkpt lat="40.4076040" lon="-3.9760930">
        <ele>620.4</ele>
        <time>2021-05-08T12:08:46Z</time>
      </trkpt>
      <trkpt lat="40.4076110" lon="-3.9759200">
        <ele>620.0</ele>
        <time>2021-05-08T12:08:48Z</time>
      </trkpt>
      <trkpt lat="40.4076130" lon="-3.9757380">
        <ele>619.5</ele>
        <time>2021-05-08T12:08:50Z</time>
      </trkpt>
      <trkpt lat="40.4076180" lon="-3.9756450">
        <ele>619.3</ele>
        <time>2021-05-08T12:08:51Z</time>
      </trkpt>
      <trkpt lat="40.4076210" lon="-3.9755560">
        <ele>619.0</ele>
        <time>2021-05-08T12:08:52Z</time>
      </trkpt>
      <trkpt lat="40.4076230" lon="-3.9754670">
        <ele>618.8</ele>
        <time>2021-05-08T12:08:53Z</time>
      </trkpt>
      <trkpt lat="40.4076270" lon="-3.9753750">
        <ele>618.5</ele>
        <time>2021-05-08T12:08:54Z</time>
      </trkpt>
      <trkpt lat="40.4076370" lon="-3.9751820">
        <ele>617.9</ele>
        <time>2021-05-08T12:08:56Z</time>
      </trkpt>
      <trkpt lat="40.4076440" lon="-3.9750770">
        <ele>617.6</ele>
        <time>2021-05-08T12:08:57Z</time>
      </trkpt>
      <trkpt lat="40.4076580" lon="-3.9748590">
        <ele>617.2</ele>
        <time>2021-05-08T12:08:59Z</time>
      </trkpt>
      <trkpt lat="40.4076640" lon="-3.9747460">
        <ele>617.0</ele>
        <time>2021-05-08T12:09:01Z</time>
      </trkpt>
      <trkpt lat="40.4076750" lon="-3.9745390">
        <ele>616.9</ele>
        <time>2021-05-08T12:09:02Z</time>
      </trkpt>
      <trkpt lat="40.4076770" lon="-3.9744380">
        <ele>616.8</ele>
        <time>2021-05-08T12:09:03Z</time>
      </trkpt>
      <trkpt lat="40.4076730" lon="-3.9742380">
        <ele>616.8</ele>
        <time>2021-05-08T12:09:05Z</time>
      </trkpt>
      <trkpt lat="40.4076630" lon="-3.9740530">
        <ele>616.8</ele>
        <time>2021-05-08T12:09:07Z</time>
      </trkpt>
      <trkpt lat="40.4076600" lon="-3.9739720">
        <ele>616.8</ele>
        <time>2021-05-08T12:09:08Z</time>
      </trkpt>
      <trkpt lat="40.4076660" lon="-3.9738070">
        <ele>616.8</ele>
        <time>2021-05-08T12:09:10Z</time>
      </trkpt>
      <trkpt lat="40.4076780" lon="-3.9737280">
        <ele>616.8</ele>
        <time>2021-05-08T12:09:11Z</time>
      </trkpt>
      <trkpt lat="40.4076940" lon="-3.9736490">
        <ele>616.8</ele>
        <time>2021-05-08T12:09:12Z</time>
      </trkpt>
      <trkpt lat="40.4077140" lon="-3.9735700">
        <ele>616.8</ele>
        <time>2021-05-08T12:09:13Z</time>
      </trkpt>
      <trkpt lat="40.4077700" lon="-3.9734180">
        <ele>616.8</ele>
        <time>2021-05-08T12:09:15Z</time>
      </trkpt>
      <trkpt lat="40.4078360" lon="-3.9732660">
        <ele>616.6</ele>
        <time>2021-05-08T12:09:17Z</time>
      </trkpt>
      <trkpt lat="40.4079030" lon="-3.9731000">
        <ele>616.4</ele>
        <time>2021-05-08T12:09:19Z</time>
      </trkpt>
      <trkpt lat="40.4079310" lon="-3.9730090">
        <ele>616.2</ele>
        <time>2021-05-08T12:09:20Z</time>
      </trkpt>
      <trkpt lat="40.4079510" lon="-3.9729110">
        <ele>616.0</ele>
        <time>2021-05-08T12:09:21Z</time>
      </trkpt>
      <trkpt lat="40.4079710" lon="-3.9727260">
        <ele>615.7</ele>
        <time>2021-05-08T12:09:23Z</time>
      </trkpt>
      <trkpt lat="40.4079760" lon="-3.9726330">
        <ele>615.5</ele>
        <time>2021-05-08T12:09:24Z</time>
      </trkpt>
      <trkpt lat="40.4079810" lon="-3.9725450">
        <ele>615.4</ele>
        <time>2021-05-08T12:09:25Z</time>
      </trkpt>
      <trkpt lat="40.4080050" lon="-3.9723740">
        <ele>615.0</ele>
        <time>2021-05-08T12:09:27Z</time>
      </trkpt>
      <trkpt lat="40.4080250" lon="-3.9722900">
        <ele>614.9</ele>
        <time>2021-05-08T12:09:28Z</time>
      </trkpt>
      <trkpt lat="40.4080810" lon="-3.9721140">
        <ele>614.5</ele>
        <time>2021-05-08T12:09:30Z</time>
      </trkpt>
      <trkpt lat="40.4081450" lon="-3.9719390">
        <ele>614.2</ele>
        <time>2021-05-08T12:09:32Z</time>
      </trkpt>
      <trkpt lat="40.4081790" lon="-3.9718480">
        <ele>614.1</ele>
        <time>2021-05-08T12:09:33Z</time>
      </trkpt>
      <trkpt lat="40.4082160" lon="-3.9717590">
        <ele>613.9</ele>
        <time>2021-05-08T12:09:34Z</time>
      </trkpt>
      <trkpt lat="40.4082860" lon="-3.9715840">
        <ele>613.8</ele>
        <time>2021-05-08T12:09:36Z</time>
      </trkpt>
      <trkpt lat="40.4083180" lon="-3.9714960">
        <ele>613.7</ele>
        <time>2021-05-08T12:09:37Z</time>
      </trkpt>
      <trkpt lat="40.4083820" lon="-3.9713270">
        <ele>613.5</ele>
        <time>2021-05-08T12:09:39Z</time>
      </trkpt>
      <trkpt lat="40.4084120" lon="-3.9712390">
        <ele>613.4</ele>
        <time>2021-05-08T12:09:40Z</time>
      </trkpt>
      <trkpt lat="40.4084440" lon="-3.9711560">
        <ele>613.3</ele>
        <time>2021-05-08T12:09:41Z</time>
      </trkpt>
      <trkpt lat="40.4085070" lon="-3.9709820">
        <ele>613.1</ele>
        <time>2021-05-08T12:09:43Z</time>
      </trkpt>
      <trkpt lat="40.4085390" lon="-3.9708930">
        <ele>613.0</ele>
        <time>2021-05-08T12:09:44Z</time>
      </trkpt>
      <trkpt lat="40.4086020" lon="-3.9707110">
        <ele>612.7</ele>
        <time>2021-05-08T12:09:46Z</time>
      </trkpt>
      <trkpt lat="40.4086350" lon="-3.9706190">
        <ele>612.6</ele>
        <time>2021-05-08T12:09:47Z</time>
      </trkpt>
      <trkpt lat="40.4086960" lon="-3.9704350">
        <ele>612.3</ele>
        <time>2021-05-08T12:09:49Z</time>
      </trkpt>
      <trkpt lat="40.4087210" lon="-3.9703360">
        <ele>612.2</ele>
        <time>2021-05-08T12:09:50Z</time>
      </trkpt>
      <trkpt lat="40.4087430" lon="-3.9702350">
        <ele>612.1</ele>
        <time>2021-05-08T12:09:51Z</time>
      </trkpt>
      <trkpt lat="40.4087700" lon="-3.9700240">
        <ele>611.8</ele>
        <time>2021-05-08T12:09:53Z</time>
      </trkpt>
      <trkpt lat="40.4087690" lon="-3.9699250">
        <ele>611.6</ele>
        <time>2021-05-08T12:09:54Z</time>
      </trkpt>
      <trkpt lat="40.4087630" lon="-3.9697230">
        <ele>611.4</ele>
        <time>2021-05-08T12:09:56Z</time>
      </trkpt>
      <trkpt lat="40.4087630" lon="-3.9696240">
        <ele>611.3</ele>
        <time>2021-05-08T12:09:57Z</time>
      </trkpt>
      <trkpt lat="40.4087590" lon="-3.9694260">
        <ele>611.1</ele>
        <time>2021-05-08T12:09:59Z</time>
      </trkpt>
      <trkpt lat="40.4087540" lon="-3.9692510">
        <ele>611.0</ele>
        <time>2021-05-08T12:10:01Z</time>
      </trkpt>
      <trkpt lat="40.4087470" lon="-3.9691220">
        <ele>610.9</ele>
        <time>2021-05-08T12:10:02Z</time>
      </trkpt>
      <trkpt lat="40.4087440" lon="-3.9690200">
        <ele>610.9</ele>
        <time>2021-05-08T12:10:03Z</time>
      </trkpt>
      <trkpt lat="40.4087440" lon="-3.9689220">
        <ele>610.9</ele>
        <time>2021-05-08T12:10:04Z</time>
      </trkpt>
      <trkpt lat="40.4087430" lon="-3.9688320">
        <ele>610.9</ele>
        <time>2021-05-08T12:10:05Z</time>
      </trkpt>
      <trkpt lat="40.4087430" lon="-3.9686560">
        <ele>610.7</ele>
        <time>2021-05-08T12:10:07Z</time>
      </trkpt>
      <trkpt lat="40.4087370" lon="-3.9684720">
        <ele>610.5</ele>
        <time>2021-05-08T12:10:09Z</time>
      </trkpt>
      <trkpt lat="40.4087380" lon="-3.9683770">
        <ele>610.4</ele>
        <time>2021-05-08T12:10:10Z</time>
      </trkpt>
      <trkpt lat="40.4087440" lon="-3.9681870">
        <ele>610.1</ele>
        <time>2021-05-08T12:10:12Z</time>
      </trkpt>
      <trkpt lat="40.4087470" lon="-3.9680910">
        <ele>610.0</ele>
        <time>2021-05-08T12:10:13Z</time>
      </trkpt>
      <trkpt lat="40.4087510" lon="-3.9679040">
        <ele>609.7</ele>
        <time>2021-05-08T12:10:15Z</time>
      </trkpt>
      <trkpt lat="40.4087590" lon="-3.9677220">
        <ele>609.5</ele>
        <time>2021-05-08T12:10:17Z</time>
      </trkpt>
      <trkpt lat="40.4087660" lon="-3.9676290">
        <ele>609.4</ele>
        <time>2021-05-08T12:10:18Z</time>
      </trkpt>
      <trkpt lat="40.4087770" lon="-3.9674650">
        <ele>609.3</ele>
        <time>2021-05-08T12:10:20Z</time>
      </trkpt>
      <trkpt lat="40.4087850" lon="-3.9673830">
        <ele>609.2</ele>
        <time>2021-05-08T12:10:21Z</time>
      </trkpt>
      <trkpt lat="40.4088010" lon="-3.9673020">
        <ele>609.2</ele>
        <time>2021-05-08T12:10:22Z</time>
      </trkpt>
      <trkpt lat="40.4088480" lon="-3.9671450">
        <ele>608.9</ele>
        <time>2021-05-08T12:10:24Z</time>
      </trkpt>
      <trkpt lat="40.4088770" lon="-3.9670710">
        <ele>608.8</ele>
        <time>2021-05-08T12:10:25Z</time>
      </trkpt>
      <trkpt lat="40.4089470" lon="-3.9669160">
        <ele>608.4</ele>
        <time>2021-05-08T12:10:27Z</time>
      </trkpt>
      <trkpt lat="40.4089850" lon="-3.9668380">
        <ele>608.3</ele>
        <time>2021-05-08T12:10:28Z</time>
      </trkpt>
      <trkpt lat="40.4090600" lon="-3.9666860">
        <ele>608.0</ele>
        <time>2021-05-08T12:10:30Z</time>
      </trkpt>
      <trkpt lat="40.4090990" lon="-3.9666080">
        <ele>608.0</ele>
        <time>2021-05-08T12:10:31Z</time>
      </trkpt>
      <trkpt lat="40.4091400" lon="-3.9665290">
        <ele>608.0</ele>
        <time>2021-05-08T12:10:32Z</time>
      </trkpt>
      <trkpt lat="40.4091790" lon="-3.9664500">
        <ele>607.9</ele>
        <time>2021-05-08T12:10:33Z</time>
      </trkpt>
      <trkpt lat="40.4092520" lon="-3.9662840">
        <ele>607.9</ele>
        <time>2021-05-08T12:10:35Z</time>
      </trkpt>
      <trkpt lat="40.4093150" lon="-3.9661180">
        <ele>607.9</ele>
        <time>2021-05-08T12:10:37Z</time>
      </trkpt>
      <trkpt lat="40.4093370" lon="-3.9660330">
        <ele>608.0</ele>
        <time>2021-05-08T12:10:38Z</time>
      </trkpt>
      <trkpt lat="40.4093650" lon="-3.9658650">
        <ele>608.0</ele>
        <time>2021-05-08T12:10:40Z</time>
      </trkpt>
      <trkpt lat="40.4093870" lon="-3.9657020">
        <ele>608.1</ele>
        <time>2021-05-08T12:10:42Z</time>
      </trkpt>
      <trkpt lat="40.4093970" lon="-3.9656220">
        <ele>608.1</ele>
        <time>2021-05-08T12:10:43Z</time>
      </trkpt>
      <trkpt lat="40.4094050" lon="-3.9655470">
        <ele>608.1</ele>
        <time>2021-05-08T12:10:44Z</time>
      </trkpt>
      <trkpt lat="40.4094210" lon="-3.9654030">
        <ele>608.0</ele>
        <time>2021-05-08T12:10:46Z</time>
      </trkpt>
      <trkpt lat="40.4094300" lon="-3.9652550">
        <ele>607.8</ele>
        <time>2021-05-08T12:10:48Z</time>
      </trkpt>
      <trkpt lat="40.4094360" lon="-3.9651780">
        <ele>607.7</ele>
        <time>2021-05-08T12:10:49Z</time>
      </trkpt>
      <trkpt lat="40.4094490" lon="-3.9650100">
        <ele>607.4</ele>
        <time>2021-05-08T12:10:51Z</time>
      </trkpt>
      <trkpt lat="40.4094580" lon="-3.9649220">
        <ele>607.2</ele>
        <time>2021-05-08T12:10:52Z</time>
      </trkpt>
      <trkpt lat="40.4094820" lon="-3.9647400">
        <ele>606.9</ele>
        <time>2021-05-08T12:10:54Z</time>
      </trkpt>
      <trkpt lat="40.4094920" lon="-3.9646510">
        <ele>606.8</ele>
        <time>2021-05-08T12:10:55Z</time>
      </trkpt>
      <trkpt lat="40.4095120" lon="-3.9644730">
        <ele>606.6</ele>
        <time>2021-05-08T12:10:57Z</time>
      </trkpt>
      <trkpt lat="40.4095230" lon="-3.9643780">
        <ele>606.5</ele>
        <time>2021-05-08T12:10:58Z</time>
      </trkpt>
      <trkpt lat="40.4095390" lon="-3.9642050">
        <ele>606.4</ele>
        <time>2021-05-08T12:11:00Z</time>
      </trkpt>
      <trkpt lat="40.4095480" lon="-3.9640380">
        <ele>606.4</ele>
        <time>2021-05-08T12:11:02Z</time>
      </trkpt>
      <trkpt lat="40.4095500" lon="-3.9639520">
        <ele>606.4</ele>
        <time>2021-05-08T12:11:03Z</time>
      </trkpt>
      <trkpt lat="40.4095560" lon="-3.9638620">
        <ele>606.3</ele>
        <time>2021-05-08T12:11:04Z</time>
      </trkpt>
      <trkpt lat="40.4095690" lon="-3.9636980">
        <ele>606.3</ele>
        <time>2021-05-08T12:11:06Z</time>
      </trkpt>
      <trkpt lat="40.4095750" lon="-3.9636200">
        <ele>606.3</ele>
        <time>2021-05-08T12:11:07Z</time>
      </trkpt>
      <trkpt lat="40.4095890" lon="-3.9634750">
        <ele>606.3</ele>
        <time>2021-05-08T12:11:09Z</time>
      </trkpt>
      <trkpt lat="40.4095990" lon="-3.9633340">
        <ele>606.4</ele>
        <time>2021-05-08T12:11:11Z</time>
      </trkpt>
      <trkpt lat="40.4096030" lon="-3.9632650">
        <ele>606.3</ele>
        <time>2021-05-08T12:11:12Z</time>
      </trkpt>
      <trkpt lat="40.4096090" lon="-3.9631990">
        <ele>606.3</ele>
        <time>2021-05-08T12:11:13Z</time>
      </trkpt>
      <trkpt lat="40.4096160" lon="-3.9631320">
        <ele>606.3</ele>
        <time>2021-05-08T12:11:14Z</time>
      </trkpt>
      <trkpt lat="40.4096230" lon="-3.9630610">
        <ele>606.3</ele>
        <time>2021-05-08T12:11:15Z</time>
      </trkpt>
      <trkpt lat="40.4096310" lon="-3.9629260">
        <ele>606.4</ele>
        <time>2021-05-08T12:11:17Z</time>
      </trkpt>
      <trkpt lat="40.4096480" lon="-3.9627950">
        <ele>606.5</ele>
        <time>2021-05-08T12:11:19Z</time>
      </trkpt>
      <trkpt lat="40.4096580" lon="-3.9627300">
        <ele>606.6</ele>
        <time>2021-05-08T12:11:20Z</time>
      </trkpt>
      <trkpt lat="40.4096740" lon="-3.9626030">
        <ele>606.8</ele>
        <time>2021-05-08T12:11:22Z</time>
      </trkpt>
      <trkpt lat="40.4096950" lon="-3.9624810">
        <ele>607.1</ele>
        <time>2021-05-08T12:11:24Z</time>
      </trkpt>
      <trkpt lat="40.4097180" lon="-3.9623620">
        <ele>607.3</ele>
        <time>2021-05-08T12:11:26Z</time>
      </trkpt>
      <trkpt lat="40.4097340" lon="-3.9622700">
        <ele>607.5</ele>
        <time>2021-05-08T12:11:28Z</time>
      </trkpt>
      <trkpt lat="40.4097600" lon="-3.9621560">
        <ele>607.7</ele>
        <time>2021-05-08T12:11:30Z</time>
      </trkpt>
      <trkpt lat="40.4097930" lon="-3.9620520">
        <ele>608.0</ele>
        <time>2021-05-08T12:11:32Z</time>
      </trkpt>
      <trkpt lat="40.4098110" lon="-3.9619850">
        <ele>608.1</ele>
        <time>2021-05-08T12:11:33Z</time>
      </trkpt>
      <trkpt lat="40.4098230" lon="-3.9619370">
        <ele>608.3</ele>
        <time>2021-05-08T12:11:34Z</time>
      </trkpt>
      <trkpt lat="40.4098400" lon="-3.9618460">
        <ele>608.5</ele>
        <time>2021-05-08T12:11:36Z</time>
      </trkpt>
      <trkpt lat="40.4098520" lon="-3.9617800">
        <ele>608.6</ele>
        <time>2021-05-08T12:11:37Z</time>
      </trkpt>
      <trkpt lat="40.4098630" lon="-3.9616840">
        <ele>608.9</ele>
        <time>2021-05-08T12:11:39Z</time>
      </trkpt>
      <trkpt lat="40.4098700" lon="-3.9616050">
        <ele>609.1</ele>
        <time>2021-05-08T12:11:40Z</time>
      </trkpt>
      <trkpt lat="40.4098810" lon="-3.9614920">
        <ele>609.5</ele>
        <time>2021-05-08T12:11:42Z</time>
      </trkpt>
      <trkpt lat="40.4098870" lon="-3.9614320">
        <ele>609.7</ele>
        <time>2021-05-08T12:11:43Z</time>
      </trkpt>
      <trkpt lat="40.4098940" lon="-3.9613140">
        <ele>610.3</ele>
        <time>2021-05-08T12:11:45Z</time>
      </trkpt>
      <trkpt lat="40.4098970" lon="-3.9612280">
        <ele>610.8</ele>
        <time>2021-05-08T12:11:47Z</time>
      </trkpt>
      <trkpt lat="40.4098970" lon="-3.9611900">
        <ele>611.0</ele>
        <time>2021-05-08T12:11:48Z</time>
      </trkpt>
      <trkpt lat="40.4098950" lon="-3.9611080">
        <ele>611.5</ele>
        <time>2021-05-08T12:11:50Z</time>
      </trkpt>
      <trkpt lat="40.4098910" lon="-3.9610320">
        <ele>612.0</ele>
        <time>2021-05-08T12:11:52Z</time>
      </trkpt>
      <trkpt lat="40.4098910" lon="-3.9609630">
        <ele>612.4</ele>
        <time>2021-05-08T12:11:54Z</time>
      </trkpt>
      <trkpt lat="40.4098880" lon="-3.9609200">
        <ele>612.7</ele>
        <time>2021-05-08T12:11:55Z</time>
      </trkpt>
      <trkpt lat="40.4098870" lon="-3.9608710">
        <ele>613.0</ele>
        <time>2021-05-08T12:11:56Z</time>
      </trkpt>
      <trkpt lat="40.4098860" lon="-3.9607860">
        <ele>613.6</ele>
        <time>2021-05-08T12:11:59Z</time>
      </trkpt>
      <trkpt lat="40.4098870" lon="-3.9607300">
        <ele>614.0</ele>
        <time>2021-05-08T12:12:00Z</time>
      </trkpt>
      <trkpt lat="40.4098920" lon="-3.9606710">
        <ele>614.4</ele>
        <time>2021-05-08T12:12:02Z</time>
      </trkpt>
      <trkpt lat="40.4099020" lon="-3.9606330">
        <ele>614.7</ele>
        <time>2021-05-08T12:12:03Z</time>
      </trkpt>
      <trkpt lat="40.4099090" lon="-3.9605710">
        <ele>615.1</ele>
        <time>2021-05-08T12:12:04Z</time>
      </trkpt>
      <trkpt lat="40.4099140" lon="-3.9605110">
        <ele>615.5</ele>
        <time>2021-05-08T12:12:06Z</time>
      </trkpt>
      <trkpt lat="40.4099180" lon="-3.9604580">
        <ele>615.9</ele>
        <time>2021-05-08T12:12:07Z</time>
      </trkpt>
      <trkpt lat="40.4099220" lon="-3.9603990">
        <ele>616.3</ele>
        <time>2021-05-08T12:12:08Z</time>
      </trkpt>
      <trkpt lat="40.4099360" lon="-3.9603430">
        <ele>616.7</ele>
        <time>2021-05-08T12:12:10Z</time>
      </trkpt>
      <trkpt lat="40.4099420" lon="-3.9602980">
        <ele>617.0</ele>
        <time>2021-05-08T12:12:11Z</time>
      </trkpt>
      <trkpt lat="40.4099460" lon="-3.9602480">
        <ele>617.4</ele>
        <time>2021-05-08T12:12:12Z</time>
      </trkpt>
      <trkpt lat="40.4099590" lon="-3.9601880">
        <ele>617.8</ele>
        <time>2021-05-08T12:12:14Z</time>
      </trkpt>
      <trkpt lat="40.4099690" lon="-3.9601530">
        <ele>618.1</ele>
        <time>2021-05-08T12:12:15Z</time>
      </trkpt>
      <trkpt lat="40.4099840" lon="-3.9600910">
        <ele>618.6</ele>
        <time>2021-05-08T12:12:16Z</time>
      </trkpt>
      <trkpt lat="40.4100030" lon="-3.9600510">
        <ele>619.0</ele>
        <time>2021-05-08T12:12:18Z</time>
      </trkpt>
      <trkpt lat="40.4100260" lon="-3.9599910">
        <ele>619.5</ele>
        <time>2021-05-08T12:12:19Z</time>
      </trkpt>
      <trkpt lat="40.4100410" lon="-3.9599590">
        <ele>619.8</ele>
        <time>2021-05-08T12:12:20Z</time>
      </trkpt>
      <trkpt lat="40.4100680" lon="-3.9599130">
        <ele>620.3</ele>
        <time>2021-05-08T12:12:21Z</time>
      </trkpt>
      <trkpt lat="40.4100850" lon="-3.9598750">
        <ele>620.6</ele>
        <time>2021-05-08T12:12:23Z</time>
      </trkpt>
      <trkpt lat="40.4101280" lon="-3.9598040">
        <ele>621.2</ele>
        <time>2021-05-08T12:12:25Z</time>
      </trkpt>
      <trkpt lat="40.4101540" lon="-3.9597570">
        <ele>621.6</ele>
        <time>2021-05-08T12:12:26Z</time>
      </trkpt>
      <trkpt lat="40.4101750" lon="-3.9597220">
        <ele>621.9</ele>
        <time>2021-05-08T12:12:27Z</time>
      </trkpt>
      <trkpt lat="40.4102090" lon="-3.9596800">
        <ele>622.2</ele>
        <time>2021-05-08T12:12:29Z</time>
      </trkpt>
      <trkpt lat="40.4102530" lon="-3.9596280">
        <ele>622.7</ele>
        <time>2021-05-08T12:12:31Z</time>
      </trkpt>
      <trkpt lat="40.4103050" lon="-3.9595780">
        <ele>623.2</ele>
        <time>2021-05-08T12:12:33Z</time>
      </trkpt>
      <trkpt lat="40.4103310" lon="-3.9595540">
        <ele>623.4</ele>
        <time>2021-05-08T12:12:34Z</time>
      </trkpt>
      <trkpt lat="40.4103570" lon="-3.9595250">
        <ele>623.7</ele>
        <time>2021-05-08T12:12:35Z</time>
      </trkpt>
      <trkpt lat="40.4103940" lon="-3.9594880">
        <ele>624.0</ele>
        <time>2021-05-08T12:12:36Z</time>
      </trkpt>
      <trkpt lat="40.4104230" lon="-3.9594610">
        <ele>624.3</ele>
        <time>2021-05-08T12:12:38Z</time>
      </trkpt>
      <trkpt lat="40.4104490" lon="-3.9594380">
        <ele>624.5</ele>
        <time>2021-05-08T12:12:39Z</time>
      </trkpt>
      <trkpt lat="40.4104730" lon="-3.9594140">
        <ele>624.7</ele>
        <time>2021-05-08T12:12:40Z</time>
      </trkpt>
      <trkpt lat="40.4105190" lon="-3.9593770">
        <ele>625.0</ele>
        <time>2021-05-08T12:12:42Z</time>
      </trkpt>
      <trkpt lat="40.4105430" lon="-3.9593570">
        <ele>625.2</ele>
        <time>2021-05-08T12:12:43Z</time>
      </trkpt>
      <trkpt lat="40.4105920" lon="-3.9593050">
        <ele>625.6</ele>
        <time>2021-05-08T12:12:44Z</time>
      </trkpt>
      <trkpt lat="40.4106330" lon="-3.9592640">
        <ele>626.0</ele>
        <time>2021-05-08T12:12:46Z</time>
      </trkpt>
      <trkpt lat="40.4106460" lon="-3.9592480">
        <ele>626.1</ele>
        <time>2021-05-08T12:12:47Z</time>
      </trkpt>
      <trkpt lat="40.4106600" lon="-3.9592320">
        <ele>626.2</ele>
        <time>2021-05-08T12:12:48Z</time>
      </trkpt>
      <trkpt lat="40.4106940" lon="-3.9591920">
        <ele>626.5</ele>
        <time>2021-05-08T12:12:49Z</time>
      </trkpt>
      <trkpt lat="40.4107160" lon="-3.9591710">
        <ele>626.7</ele>
        <time>2021-05-08T12:12:50Z</time>
      </trkpt>
      <trkpt lat="40.4107450" lon="-3.9591440">
        <ele>626.9</ele>
        <time>2021-05-08T12:12:52Z</time>
      </trkpt>
      <trkpt lat="40.4107680" lon="-3.9591230">
        <ele>627.0</ele>
        <time>2021-05-08T12:12:53Z</time>
      </trkpt>
      <trkpt lat="40.4108060" lon="-3.9590770">
        <ele>627.3</ele>
        <time>2021-05-08T12:12:55Z</time>
      </trkpt>
      <trkpt lat="40.4108280" lon="-3.9590510">
        <ele>627.5</ele>
        <time>2021-05-08T12:12:56Z</time>
      </trkpt>
      <trkpt lat="40.4108490" lon="-3.9590240">
        <ele>627.7</ele>
        <time>2021-05-08T12:12:57Z</time>
      </trkpt>
      <trkpt lat="40.4108690" lon="-3.9589970">
        <ele>627.8</ele>
        <time>2021-05-08T12:12:58Z</time>
      </trkpt>
      <trkpt lat="40.4109090" lon="-3.9589450">
        <ele>628.1</ele>
        <time>2021-05-08T12:13:00Z</time>
      </trkpt>
      <trkpt lat="40.4109280" lon="-3.9589140">
        <ele>628.2</ele>
        <time>2021-05-08T12:13:01Z</time>
      </trkpt>
      <trkpt lat="40.4109620" lon="-3.9588590">
        <ele>628.4</ele>
        <time>2021-05-08T12:13:02Z</time>
      </trkpt>
      <trkpt lat="40.4109790" lon="-3.9588300">
        <ele>628.5</ele>
        <time>2021-05-08T12:13:03Z</time>
      </trkpt>
      <trkpt lat="40.4110020" lon="-3.9587940">
        <ele>628.6</ele>
        <time>2021-05-08T12:13:05Z</time>
      </trkpt>
      <trkpt lat="40.4110260" lon="-3.9587600">
        <ele>628.6</ele>
        <time>2021-05-08T12:13:06Z</time>
      </trkpt>
      <trkpt lat="40.4110570" lon="-3.9587040">
        <ele>628.8</ele>
        <time>2021-05-08T12:13:08Z</time>
      </trkpt>
      <trkpt lat="40.4110750" lon="-3.9586740">
        <ele>628.8</ele>
        <time>2021-05-08T12:13:09Z</time>
      </trkpt>
      <trkpt lat="40.4111120" lon="-3.9586160">
        <ele>628.9</ele>
        <time>2021-05-08T12:13:11Z</time>
      </trkpt>
      <trkpt lat="40.4111440" lon="-3.9585570">
        <ele>629.0</ele>
        <time>2021-05-08T12:13:13Z</time>
      </trkpt>
      <trkpt lat="40.4111790" lon="-3.9584860">
        <ele>629.0</ele>
        <time>2021-05-08T12:13:15Z</time>
      </trkpt>
      <trkpt lat="40.4111950" lon="-3.9584560">
        <ele>629.0</ele>
        <time>2021-05-08T12:13:16Z</time>
      </trkpt>
      <trkpt lat="40.4112300" lon="-3.9583940">
        <ele>629.0</ele>
        <time>2021-05-08T12:13:18Z</time>
      </trkpt>
      <trkpt lat="40.4112690" lon="-3.9583230">
        <ele>628.9</ele>
        <time>2021-05-08T12:13:20Z</time>
      </trkpt>
      <trkpt lat="40.4112880" lon="-3.9582770">
        <ele>628.9</ele>
        <time>2021-05-08T12:13:21Z</time>
      </trkpt>
      <trkpt lat="40.4113270" lon="-3.9581920">
        <ele>628.8</ele>
        <time>2021-05-08T12:13:23Z</time>
      </trkpt>
      <trkpt lat="40.4113460" lon="-3.9581620">
        <ele>628.7</ele>
        <time>2021-05-08T12:13:24Z</time>
      </trkpt>
      <trkpt lat="40.4113750" lon="-3.9581120">
        <ele>628.7</ele>
        <time>2021-05-08T12:13:26Z</time>
      </trkpt>
      <trkpt lat="40.4113860" lon="-3.9580780">
        <ele>628.6</ele>
        <time>2021-05-08T12:13:27Z</time>
      </trkpt>
      <trkpt lat="40.4113820" lon="-3.9580730">
        <ele>628.6</ele>
        <time>2021-05-08T12:13:28Z</time>
      </trkpt>
      <trkpt lat="40.4113600" lon="-3.9580920">
        <ele>628.6</ele>
        <time>2021-05-08T12:13:30Z</time>
      </trkpt>
      <trkpt lat="40.4113640" lon="-3.9580630">
        <ele>628.6</ele>
        <time>2021-05-08T12:13:49Z</time>
      </trkpt>
      <trkpt lat="40.4113990" lon="-3.9580130">
        <ele>628.5</ele>
        <time>2021-05-08T12:13:51Z</time>
      </trkpt>
      <trkpt lat="40.4114280" lon="-3.9579660">
        <ele>628.4</ele>
        <time>2021-05-08T12:13:52Z</time>
      </trkpt>
      <trkpt lat="40.4114830" lon="-3.9578560">
        <ele>628.2</ele>
        <time>2021-05-08T12:13:54Z</time>
      </trkpt>
      <trkpt lat="40.4115040" lon="-3.9578090">
        <ele>628.1</ele>
        <time>2021-05-08T12:13:55Z</time>
      </trkpt>
      <trkpt lat="40.4115430" lon="-3.9577350">
        <ele>628.0</ele>
        <time>2021-05-08T12:13:56Z</time>
      </trkpt>
      <trkpt lat="40.4115790" lon="-3.9576760">
        <ele>627.8</ele>
        <time>2021-05-08T12:13:58Z</time>
      </trkpt>
      <trkpt lat="40.4116160" lon="-3.9576010">
        <ele>627.7</ele>
        <time>2021-05-08T12:13:59Z</time>
      </trkpt>
      <trkpt lat="40.4116420" lon="-3.9575530">
        <ele>627.6</ele>
        <time>2021-05-08T12:14:00Z</time>
      </trkpt>
      <trkpt lat="40.4116700" lon="-3.9574980">
        <ele>627.5</ele>
        <time>2021-05-08T12:14:01Z</time>
      </trkpt>
      <trkpt lat="40.4117220" lon="-3.9574020">
        <ele>627.3</ele>
        <time>2021-05-08T12:14:03Z</time>
      </trkpt>
      <trkpt lat="40.4117740" lon="-3.9573050">
        <ele>627.1</ele>
        <time>2021-05-08T12:14:05Z</time>
      </trkpt>
      <trkpt lat="40.4118000" lon="-3.9572570">
        <ele>627.0</ele>
        <time>2021-05-08T12:14:06Z</time>
      </trkpt>
      <trkpt lat="40.4118510" lon="-3.9571500">
        <ele>626.7</ele>
        <time>2021-05-08T12:14:08Z</time>
      </trkpt>
      <trkpt lat="40.4118790" lon="-3.9570970">
        <ele>626.5</ele>
        <time>2021-05-08T12:14:09Z</time>
      </trkpt>
      <trkpt lat="40.4119380" lon="-3.9569790">
        <ele>626.1</ele>
        <time>2021-05-08T12:14:11Z</time>
      </trkpt>
      <trkpt lat="40.4120050" lon="-3.9568450">
        <ele>625.7</ele>
        <time>2021-05-08T12:14:13Z</time>
      </trkpt>
      <trkpt lat="40.4120410" lon="-3.9567760">
        <ele>625.4</ele>
        <time>2021-05-08T12:14:14Z</time>
      </trkpt>
      <trkpt lat="40.4121170" lon="-3.9566320">
        <ele>624.7</ele>
        <time>2021-05-08T12:14:16Z</time>
      </trkpt>
      <trkpt lat="40.4122020" lon="-3.9564690">
        <ele>623.8</ele>
        <time>2021-05-08T12:14:18Z</time>
      </trkpt>
      <trkpt lat="40.4122450" lon="-3.9563830">
        <ele>623.3</ele>
        <time>2021-05-08T12:14:19Z</time>
      </trkpt>
      <trkpt lat="40.4123260" lon="-3.9562070">
        <ele>622.2</ele>
        <time>2021-05-08T12:14:21Z</time>
      </trkpt>
      <trkpt lat="40.4123640" lon="-3.9561140">
        <ele>621.7</ele>
        <time>2021-05-08T12:14:22Z</time>
      </trkpt>
      <trkpt lat="40.4123980" lon="-3.9560180">
        <ele>621.2</ele>
        <time>2021-05-08T12:14:23Z</time>
      </trkpt>
      <trkpt lat="40.4124580" lon="-3.9558060">
        <ele>620.2</ele>
        <time>2021-05-08T12:14:25Z</time>
      </trkpt>
      <trkpt lat="40.4124850" lon="-3.9556890">
        <ele>619.6</ele>
        <time>2021-05-08T12:14:26Z</time>
      </trkpt>
      <trkpt lat="40.4125240" lon="-3.9554540">
        <ele>618.5</ele>
        <time>2021-05-08T12:14:28Z</time>
      </trkpt>
      <trkpt lat="40.4125510" lon="-3.9552190">
        <ele>617.7</ele>
        <time>2021-05-08T12:14:30Z</time>
      </trkpt>
      <trkpt lat="40.4125620" lon="-3.9549870">
        <ele>616.9</ele>
        <time>2021-05-08T12:14:32Z</time>
      </trkpt>
      <trkpt lat="40.4125620" lon="-3.9548740">
        <ele>616.5</ele>
        <time>2021-05-08T12:14:33Z</time>
      </trkpt>
      <trkpt lat="40.4125550" lon="-3.9546450">
        <ele>615.6</ele>
        <time>2021-05-08T12:14:35Z</time>
      </trkpt>
      <trkpt lat="40.4125500" lon="-3.9545270">
        <ele>615.1</ele>
        <time>2021-05-08T12:14:36Z</time>
      </trkpt>
      <trkpt lat="40.4125390" lon="-3.9542790">
        <ele>614.0</ele>
        <time>2021-05-08T12:14:38Z</time>
      </trkpt>
      <trkpt lat="40.4125210" lon="-3.9540250">
        <ele>612.9</ele>
        <time>2021-05-08T12:14:40Z</time>
      </trkpt>
      <trkpt lat="40.4125150" lon="-3.9538940">
        <ele>612.3</ele>
        <time>2021-05-08T12:14:41Z</time>
      </trkpt>
      <trkpt lat="40.4125040" lon="-3.9536240">
        <ele>611.0</ele>
        <time>2021-05-08T12:14:43Z</time>
      </trkpt>
      <trkpt lat="40.4124900" lon="-3.9533480">
        <ele>609.6</ele>
        <time>2021-05-08T12:14:45Z</time>
      </trkpt>
      <trkpt lat="40.4124840" lon="-3.9532080">
        <ele>609.0</ele>
        <time>2021-05-08T12:14:46Z</time>
      </trkpt>
      <trkpt lat="40.4124770" lon="-3.9529350">
        <ele>607.8</ele>
        <time>2021-05-08T12:14:48Z</time>
      </trkpt>
      <trkpt lat="40.4124800" lon="-3.9526650">
        <ele>606.4</ele>
        <time>2021-05-08T12:14:50Z</time>
      </trkpt>
      <trkpt lat="40.4124880" lon="-3.9523860">
        <ele>604.7</ele>
        <time>2021-05-08T12:14:52Z</time>
      </trkpt>
      <trkpt lat="40.4124870" lon="-3.9520900">
        <ele>603.0</ele>
        <time>2021-05-08T12:14:54Z</time>
      </trkpt>
      <trkpt lat="40.4125080" lon="-3.9517890">
        <ele>601.3</ele>
        <time>2021-05-08T12:14:56Z</time>
      </trkpt>
      <trkpt lat="40.4125770" lon="-3.9514850">
        <ele>599.3</ele>
        <time>2021-05-08T12:14:58Z</time>
      </trkpt>
      <trkpt lat="40.4126870" lon="-3.9511930">
        <ele>597.2</ele>
        <time>2021-05-08T12:15:00Z</time>
      </trkpt>
      <trkpt lat="40.4127590" lon="-3.9510530">
        <ele>596.3</ele>
        <time>2021-05-08T12:15:01Z</time>
      </trkpt>
      <trkpt lat="40.4129460" lon="-3.9508140">
        <ele>595.1</ele>
        <time>2021-05-08T12:15:03Z</time>
      </trkpt>
      <trkpt lat="40.4131760" lon="-3.9506240">
        <ele>594.0</ele>
        <time>2021-05-08T12:15:05Z</time>
      </trkpt>
      <trkpt lat="40.4133990" lon="-3.9504310">
        <ele>593.3</ele>
        <time>2021-05-08T12:15:07Z</time>
      </trkpt>
      <trkpt lat="40.4135040" lon="-3.9503310">
        <ele>593.1</ele>
        <time>2021-05-08T12:15:08Z</time>
      </trkpt>
      <trkpt lat="40.4136910" lon="-3.9501150">
        <ele>593.1</ele>
        <time>2021-05-08T12:15:10Z</time>
      </trkpt>
      <trkpt lat="40.4138400" lon="-3.9498830">
        <ele>593.2</ele>
        <time>2021-05-08T12:15:12Z</time>
      </trkpt>
      <trkpt lat="40.4139080" lon="-3.9497680">
        <ele>593.2</ele>
        <time>2021-05-08T12:15:13Z</time>
      </trkpt>
      <trkpt lat="40.4140320" lon="-3.9495340">
        <ele>593.1</ele>
        <time>2021-05-08T12:15:15Z</time>
      </trkpt>
      <trkpt lat="40.4140890" lon="-3.9494170">
        <ele>593.1</ele>
        <time>2021-05-08T12:15:16Z</time>
      </trkpt>
      <trkpt lat="40.4141410" lon="-3.9493040">
        <ele>593.1</ele>
        <time>2021-05-08T12:15:17Z</time>
      </trkpt>
      <trkpt lat="40.4141870" lon="-3.9491900">
        <ele>593.1</ele>
        <time>2021-05-08T12:15:18Z</time>
      </trkpt>
      <trkpt lat="40.4142660" lon="-3.9489630">
        <ele>593.2</ele>
        <time>2021-05-08T12:15:20Z</time>
      </trkpt>
      <trkpt lat="40.4142960" lon="-3.9488480">
        <ele>593.2</ele>
        <time>2021-05-08T12:15:21Z</time>
      </trkpt>
      <trkpt lat="40.4143480" lon="-3.9486260">
        <ele>593.2</ele>
        <time>2021-05-08T12:15:23Z</time>
      </trkpt>
      <trkpt lat="40.4143770" lon="-3.9485030">
        <ele>593.2</ele>
        <time>2021-05-08T12:15:24Z</time>
      </trkpt>
      <trkpt lat="40.4144060" lon="-3.9483100">
        <ele>593.1</ele>
        <time>2021-05-08T12:15:26Z</time>
      </trkpt>
      <trkpt lat="40.4144270" lon="-3.9481110">
        <ele>593.1</ele>
        <time>2021-05-08T12:15:28Z</time>
      </trkpt>
      <trkpt lat="40.4144360" lon="-3.9480110">
        <ele>593.1</ele>
        <time>2021-05-08T12:15:29Z</time>
      </trkpt>
      <trkpt lat="40.4144500" lon="-3.9478170">
        <ele>593.1</ele>
        <time>2021-05-08T12:15:31Z</time>
      </trkpt>
      <trkpt lat="40.4144610" lon="-3.9476320">
        <ele>593.2</ele>
        <time>2021-05-08T12:15:33Z</time>
      </trkpt>
      <trkpt lat="40.4144690" lon="-3.9475410">
        <ele>593.2</ele>
        <time>2021-05-08T12:15:34Z</time>
      </trkpt>
      <trkpt lat="40.4144830" lon="-3.9473650">
        <ele>593.3</ele>
        <time>2021-05-08T12:15:36Z</time>
      </trkpt>
      <trkpt lat="40.4144960" lon="-3.9471860">
        <ele>593.4</ele>
        <time>2021-05-08T12:15:38Z</time>
      </trkpt>
      <trkpt lat="40.4145070" lon="-3.9470180">
        <ele>593.7</ele>
        <time>2021-05-08T12:15:40Z</time>
      </trkpt>
      <trkpt lat="40.4145140" lon="-3.9469370">
        <ele>593.8</ele>
        <time>2021-05-08T12:15:41Z</time>
      </trkpt>
      <trkpt lat="40.4145260" lon="-3.9467810">
        <ele>594.2</ele>
        <time>2021-05-08T12:15:43Z</time>
      </trkpt>
      <trkpt lat="40.4145420" lon="-3.9466290">
        <ele>594.6</ele>
        <time>2021-05-08T12:15:45Z</time>
      </trkpt>
      <trkpt lat="40.4145540" lon="-3.9464890">
        <ele>595.1</ele>
        <time>2021-05-08T12:15:47Z</time>
      </trkpt>
      <trkpt lat="40.4145610" lon="-3.9464180">
        <ele>595.4</ele>
        <time>2021-05-08T12:15:48Z</time>
      </trkpt>
      <trkpt lat="40.4145700" lon="-3.9462800">
        <ele>595.9</ele>
        <time>2021-05-08T12:15:50Z</time>
      </trkpt>
      <trkpt lat="40.4145760" lon="-3.9461520">
        <ele>596.4</ele>
        <time>2021-05-08T12:15:52Z</time>
      </trkpt>
      <trkpt lat="40.4145790" lon="-3.9460880">
        <ele>596.7</ele>
        <time>2021-05-08T12:15:53Z</time>
      </trkpt>
      <trkpt lat="40.4145880" lon="-3.9459670">
        <ele>597.2</ele>
        <time>2021-05-08T12:15:55Z</time>
      </trkpt>
      <trkpt lat="40.4145910" lon="-3.9459110">
        <ele>597.5</ele>
        <time>2021-05-08T12:15:56Z</time>
      </trkpt>
      <trkpt lat="40.4145970" lon="-3.9458260">
        <ele>597.9</ele>
        <time>2021-05-08T12:15:58Z</time>
      </trkpt>
      <trkpt lat="40.4145990" lon="-3.9457750">
        <ele>598.2</ele>
        <time>2021-05-08T12:15:59Z</time>
      </trkpt>
      <trkpt lat="40.4146030" lon="-3.9456900">
        <ele>598.6</ele>
        <time>2021-05-08T12:16:01Z</time>
      </trkpt>
      <trkpt lat="40.4146050" lon="-3.9456030">
        <ele>599.0</ele>
        <time>2021-05-08T12:16:03Z</time>
      </trkpt>
      <trkpt lat="40.4146060" lon="-3.9455620">
        <ele>599.3</ele>
        <time>2021-05-08T12:16:04Z</time>
      </trkpt>
      <trkpt lat="40.4146150" lon="-3.9454790">
        <ele>599.7</ele>
        <time>2021-05-08T12:16:06Z</time>
      </trkpt>
      <trkpt lat="40.4146210" lon="-3.9454130">
        <ele>600.1</ele>
        <time>2021-05-08T12:16:08Z</time>
      </trkpt>
      <trkpt lat="40.4146310" lon="-3.9453390">
        <ele>600.5</ele>
        <time>2021-05-08T12:16:10Z</time>
      </trkpt>
      <trkpt lat="40.4146440" lon="-3.9452710">
        <ele>601.0</ele>
        <time>2021-05-08T12:16:12Z</time>
      </trkpt>
      <trkpt lat="40.4146500" lon="-3.9452480">
        <ele>601.1</ele>
        <time>2021-05-08T12:16:13Z</time>
      </trkpt>
      <trkpt lat="40.4146560" lon="-3.9451810">
        <ele>601.5</ele>
        <time>2021-05-08T12:16:15Z</time>
      </trkpt>
      <trkpt lat="40.4146630" lon="-3.9451180">
        <ele>601.9</ele>
        <time>2021-05-08T12:16:17Z</time>
      </trkpt>
      <trkpt lat="40.4146800" lon="-3.9450570">
        <ele>602.4</ele>
        <time>2021-05-08T12:16:19Z</time>
      </trkpt>
      <trkpt lat="40.4146920" lon="-3.9449870">
        <ele>602.8</ele>
        <time>2021-05-08T12:16:21Z</time>
      </trkpt>
      <trkpt lat="40.4146960" lon="-3.9449570">
        <ele>603.0</ele>
        <time>2021-05-08T12:16:22Z</time>
      </trkpt>
      <trkpt lat="40.4147040" lon="-3.9448780">
        <ele>603.5</ele>
        <time>2021-05-08T12:16:24Z</time>
      </trkpt>
      <trkpt lat="40.4147100" lon="-3.9448170">
        <ele>603.9</ele>
        <time>2021-05-08T12:16:26Z</time>
      </trkpt>
      <trkpt lat="40.4147210" lon="-3.9447470">
        <ele>604.4</ele>
        <time>2021-05-08T12:16:28Z</time>
      </trkpt>
      <trkpt lat="40.4147280" lon="-3.9447080">
        <ele>604.7</ele>
        <time>2021-05-08T12:16:29Z</time>
      </trkpt>
      <trkpt lat="40.4147340" lon="-3.9446870">
        <ele>604.8</ele>
        <time>2021-05-08T12:16:30Z</time>
      </trkpt>
      <trkpt lat="40.4147460" lon="-3.9446150">
        <ele>605.3</ele>
        <time>2021-05-08T12:16:32Z</time>
      </trkpt>
      <trkpt lat="40.4147510" lon="-3.9445770">
        <ele>605.5</ele>
        <time>2021-05-08T12:16:33Z</time>
      </trkpt>
      <trkpt lat="40.4147650" lon="-3.9445180">
        <ele>605.9</ele>
        <time>2021-05-08T12:16:35Z</time>
      </trkpt>
      <trkpt lat="40.4147740" lon="-3.9444830">
        <ele>606.2</ele>
        <time>2021-05-08T12:16:36Z</time>
      </trkpt>
      <trkpt lat="40.4147890" lon="-3.9444100">
        <ele>606.7</ele>
        <time>2021-05-08T12:16:38Z</time>
      </trkpt>
      <trkpt lat="40.4148030" lon="-3.9443430">
        <ele>607.2</ele>
        <time>2021-05-08T12:16:40Z</time>
      </trkpt>
      <trkpt lat="40.4148140" lon="-3.9442860">
        <ele>607.6</ele>
        <time>2021-05-08T12:16:42Z</time>
      </trkpt>
      <trkpt lat="40.4148330" lon="-3.9442100">
        <ele>608.1</ele>
        <time>2021-05-08T12:16:44Z</time>
      </trkpt>
      <trkpt lat="40.4148460" lon="-3.9441450">
        <ele>608.6</ele>
        <time>2021-05-08T12:16:46Z</time>
      </trkpt>
      <trkpt lat="40.4148590" lon="-3.9440780">
        <ele>609.1</ele>
        <time>2021-05-08T12:16:48Z</time>
      </trkpt>
      <trkpt lat="40.4148740" lon="-3.9440130">
        <ele>609.5</ele>
        <time>2021-05-08T12:16:50Z</time>
      </trkpt>
      <trkpt lat="40.4148820" lon="-3.9439770">
        <ele>609.7</ele>
        <time>2021-05-08T12:16:51Z</time>
      </trkpt>
      <trkpt lat="40.4148950" lon="-3.9439140">
        <ele>610.2</ele>
        <time>2021-05-08T12:16:53Z</time>
      </trkpt>
      <trkpt lat="40.4149100" lon="-3.9438490">
        <ele>610.6</ele>
        <time>2021-05-08T12:16:55Z</time>
      </trkpt>
      <trkpt lat="40.4149290" lon="-3.9437830">
        <ele>611.0</ele>
        <time>2021-05-08T12:16:57Z</time>
      </trkpt>
      <trkpt lat="40.4149360" lon="-3.9437540">
        <ele>611.2</ele>
        <time>2021-05-08T12:16:58Z</time>
      </trkpt>
      <trkpt lat="40.4149470" lon="-3.9436930">
        <ele>611.6</ele>
        <time>2021-05-08T12:17:00Z</time>
      </trkpt>
      <trkpt lat="40.4149570" lon="-3.9436400">
        <ele>611.9</ele>
        <time>2021-05-08T12:17:02Z</time>
      </trkpt>
      <trkpt lat="40.4149670" lon="-3.9435870">
        <ele>612.2</ele>
        <time>2021-05-08T12:17:04Z</time>
      </trkpt>
      <trkpt lat="40.4149750" lon="-3.9435580">
        <ele>612.4</ele>
        <time>2021-05-08T12:17:05Z</time>
      </trkpt>
      <trkpt lat="40.4149900" lon="-3.9434980">
        <ele>612.8</ele>
        <time>2021-05-08T12:17:07Z</time>
      </trkpt>
      <trkpt lat="40.4149950" lon="-3.9434450">
        <ele>613.2</ele>
        <time>2021-05-08T12:17:09Z</time>
      </trkpt>
      <trkpt lat="40.4150030" lon="-3.9434100">
        <ele>613.4</ele>
        <time>2021-05-08T12:17:10Z</time>
      </trkpt>
      <trkpt lat="40.4150200" lon="-3.9433480">
        <ele>613.8</ele>
        <time>2021-05-08T12:17:12Z</time>
      </trkpt>
      <trkpt lat="40.4150360" lon="-3.9432920">
        <ele>614.2</ele>
        <time>2021-05-08T12:17:14Z</time>
      </trkpt>
      <trkpt lat="40.4150450" lon="-3.9432480">
        <ele>614.4</ele>
        <time>2021-05-08T12:17:15Z</time>
      </trkpt>
      <trkpt lat="40.4150490" lon="-3.9432330">
        <ele>614.5</ele>
        <time>2021-05-08T12:17:16Z</time>
      </trkpt>
      <trkpt lat="40.4150630" lon="-3.9431700">
        <ele>614.9</ele>
        <time>2021-05-08T12:17:18Z</time>
      </trkpt>
      <trkpt lat="40.4150680" lon="-3.9431420">
        <ele>615.1</ele>
        <time>2021-05-08T12:17:19Z</time>
      </trkpt>
      <trkpt lat="40.4150780" lon="-3.9430910">
        <ele>615.4</ele>
        <time>2021-05-08T12:17:21Z</time>
      </trkpt>
      <trkpt lat="40.4150870" lon="-3.9430510">
        <ele>615.6</ele>
        <time>2021-05-08T12:17:22Z</time>
      </trkpt>
      <trkpt lat="40.4150970" lon="-3.9429990">
        <ele>615.9</ele>
        <time>2021-05-08T12:17:23Z</time>
      </trkpt>
      <trkpt lat="40.4151020" lon="-3.9429760">
        <ele>616.1</ele>
        <time>2021-05-08T12:17:24Z</time>
      </trkpt>
      <trkpt lat="40.4151090" lon="-3.9429420">
        <ele>616.3</ele>
        <time>2021-05-08T12:17:25Z</time>
      </trkpt>
      <trkpt lat="40.4151180" lon="-3.9428900">
        <ele>616.6</ele>
        <time>2021-05-08T12:17:27Z</time>
      </trkpt>
      <trkpt lat="40.4151280" lon="-3.9428300">
        <ele>616.9</ele>
        <time>2021-05-08T12:17:28Z</time>
      </trkpt>
      <trkpt lat="40.4151330" lon="-3.9428030">
        <ele>617.0</ele>
        <time>2021-05-08T12:17:29Z</time>
      </trkpt>
      <trkpt lat="40.4151410" lon="-3.9427580">
        <ele>617.3</ele>
        <time>2021-05-08T12:17:31Z</time>
      </trkpt>
      <trkpt lat="40.4151570" lon="-3.9426930">
        <ele>617.6</ele>
        <time>2021-05-08T12:17:33Z</time>
      </trkpt>
      <trkpt lat="40.4151680" lon="-3.9426330">
        <ele>617.9</ele>
        <time>2021-05-08T12:17:34Z</time>
      </trkpt>
      <trkpt lat="40.4151780" lon="-3.9425910">
        <ele>618.1</ele>
        <time>2021-05-08T12:17:36Z</time>
      </trkpt>
      <trkpt lat="40.4151890" lon="-3.9425260">
        <ele>618.4</ele>
        <time>2021-05-08T12:17:38Z</time>
      </trkpt>
      <trkpt lat="40.4152010" lon="-3.9424720">
        <ele>618.7</ele>
        <time>2021-05-08T12:17:39Z</time>
      </trkpt>
      <trkpt lat="40.4152060" lon="-3.9424480">
        <ele>618.8</ele>
        <time>2021-05-08T12:17:40Z</time>
      </trkpt>
      <trkpt lat="40.4152140" lon="-3.9424020">
        <ele>619.1</ele>
        <time>2021-05-08T12:17:42Z</time>
      </trkpt>
      <trkpt lat="40.4152320" lon="-3.9423370">
        <ele>619.4</ele>
        <time>2021-05-08T12:17:44Z</time>
      </trkpt>
      <trkpt lat="40.4152430" lon="-3.9422820">
        <ele>619.7</ele>
        <time>2021-05-08T12:17:45Z</time>
      </trkpt>
      <trkpt lat="40.4152490" lon="-3.9422590">
        <ele>619.8</ele>
        <time>2021-05-08T12:17:46Z</time>
      </trkpt>
      <trkpt lat="40.4152600" lon="-3.9422160">
        <ele>620.0</ele>
        <time>2021-05-08T12:17:48Z</time>
      </trkpt>
      <trkpt lat="40.4152700" lon="-3.9421690">
        <ele>620.2</ele>
        <time>2021-05-08T12:17:49Z</time>
      </trkpt>
      <trkpt lat="40.4152780" lon="-3.9421170">
        <ele>620.5</ele>
        <time>2021-05-08T12:17:50Z</time>
      </trkpt>
      <trkpt lat="40.4152880" lon="-3.9420650">
        <ele>620.7</ele>
        <time>2021-05-08T12:17:52Z</time>
      </trkpt>
      <trkpt lat="40.4152960" lon="-3.9420300">
        <ele>620.8</ele>
        <time>2021-05-08T12:17:53Z</time>
      </trkpt>
      <trkpt lat="40.4153110" lon="-3.9419550">
        <ele>621.1</ele>
        <time>2021-05-08T12:17:55Z</time>
      </trkpt>
      <trkpt lat="40.4153230" lon="-3.9419000">
        <ele>621.3</ele>
        <time>2021-05-08T12:17:56Z</time>
      </trkpt>
      <trkpt lat="40.4153270" lon="-3.9418760">
        <ele>621.4</ele>
        <time>2021-05-08T12:17:57Z</time>
      </trkpt>
      <trkpt lat="40.4153360" lon="-3.9418200">
        <ele>621.6</ele>
        <time>2021-05-08T12:17:59Z</time>
      </trkpt>
      <trkpt lat="40.4153530" lon="-3.9417450">
        <ele>621.9</ele>
        <time>2021-05-08T12:18:01Z</time>
      </trkpt>
      <trkpt lat="40.4153590" lon="-3.9416930">
        <ele>622.1</ele>
        <time>2021-05-08T12:18:02Z</time>
      </trkpt>
      <trkpt lat="40.4153600" lon="-3.9416750">
        <ele>622.1</ele>
        <time>2021-05-08T12:18:03Z</time>
      </trkpt>
      <trkpt lat="40.4153720" lon="-3.9415980">
        <ele>622.4</ele>
        <time>2021-05-08T12:18:05Z</time>
      </trkpt>
      <trkpt lat="40.4153780" lon="-3.9415600">
        <ele>622.6</ele>
        <time>2021-05-08T12:18:06Z</time>
      </trkpt>
      <trkpt lat="40.4153790" lon="-3.9415220">
        <ele>622.7</ele>
        <time>2021-05-08T12:18:07Z</time>
      </trkpt>
      <trkpt lat="40.4153850" lon="-3.9414430">
        <ele>623.0</ele>
        <time>2021-05-08T12:18:09Z</time>
      </trkpt>
      <trkpt lat="40.4153900" lon="-3.9414010">
        <ele>623.1</ele>
        <time>2021-05-08T12:18:10Z</time>
      </trkpt>
      <trkpt lat="40.4153960" lon="-3.9413260">
        <ele>623.4</ele>
        <time>2021-05-08T12:18:12Z</time>
      </trkpt>
      <trkpt lat="40.4153990" lon="-3.9412860">
        <ele>623.6</ele>
        <time>2021-05-08T12:18:13Z</time>
      </trkpt>
      <trkpt lat="40.4154030" lon="-3.9412110">
        <ele>623.9</ele>
        <time>2021-05-08T12:18:15Z</time>
      </trkpt>
      <trkpt lat="40.4154040" lon="-3.9411620">
        <ele>624.1</ele>
        <time>2021-05-08T12:18:16Z</time>
      </trkpt>
      <trkpt lat="40.4154080" lon="-3.9410780">
        <ele>624.5</ele>
        <time>2021-05-08T12:18:18Z</time>
      </trkpt>
      <trkpt lat="40.4154080" lon="-3.9410390">
        <ele>624.7</ele>
        <time>2021-05-08T12:18:19Z</time>
      </trkpt>
      <trkpt lat="40.4154070" lon="-3.9409580">
        <ele>625.0</ele>
        <time>2021-05-08T12:18:21Z</time>
      </trkpt>
      <trkpt lat="40.4154030" lon="-3.9408950">
        <ele>625.4</ele>
        <time>2021-05-08T12:18:22Z</time>
      </trkpt>
      <trkpt lat="40.4153980" lon="-3.9408390">
        <ele>625.7</ele>
        <time>2021-05-08T12:18:24Z</time>
      </trkpt>
      <trkpt lat="40.4153920" lon="-3.9407800">
        <ele>626.0</ele>
        <time>2021-05-08T12:18:25Z</time>
      </trkpt>
      <trkpt lat="40.4153880" lon="-3.9407130">
        <ele>626.4</ele>
        <time>2021-05-08T12:18:27Z</time>
      </trkpt>
      <trkpt lat="40.4153870" lon="-3.9406370">
        <ele>626.9</ele>
        <time>2021-05-08T12:18:29Z</time>
      </trkpt>
      <trkpt lat="40.4153830" lon="-3.9406000">
        <ele>627.1</ele>
        <time>2021-05-08T12:18:30Z</time>
      </trkpt>
      <trkpt lat="40.4153790" lon="-3.9405510">
        <ele>627.4</ele>
        <time>2021-05-08T12:18:31Z</time>
      </trkpt>
      <trkpt lat="40.4153710" lon="-3.9404880">
        <ele>627.9</ele>
        <time>2021-05-08T12:18:33Z</time>
      </trkpt>
      <trkpt lat="40.4153660" lon="-3.9404510">
        <ele>628.1</ele>
        <time>2021-05-08T12:18:34Z</time>
      </trkpt>
      <trkpt lat="40.4153610" lon="-3.9404140">
        <ele>628.4</ele>
        <time>2021-05-08T12:18:35Z</time>
      </trkpt>
      <trkpt lat="40.4153550" lon="-3.9403780">
        <ele>628.6</ele>
        <time>2021-05-08T12:18:36Z</time>
      </trkpt>
      <trkpt lat="40.4153490" lon="-3.9403320">
        <ele>628.9</ele>
        <time>2021-05-08T12:18:37Z</time>
      </trkpt>
      <trkpt lat="40.4153430" lon="-3.9402870">
        <ele>629.2</ele>
        <time>2021-05-08T12:18:38Z</time>
      </trkpt>
      <trkpt lat="40.4153330" lon="-3.9402350">
        <ele>629.6</ele>
        <time>2021-05-08T12:18:40Z</time>
      </trkpt>
      <trkpt lat="40.4153170" lon="-3.9401590">
        <ele>630.1</ele>
        <time>2021-05-08T12:18:42Z</time>
      </trkpt>
      <trkpt lat="40.4153140" lon="-3.9401240">
        <ele>630.3</ele>
        <time>2021-05-08T12:18:43Z</time>
      </trkpt>
      <trkpt lat="40.4153000" lon="-3.9400260">
        <ele>631.0</ele>
        <time>2021-05-08T12:18:45Z</time>
      </trkpt>
      <trkpt lat="40.4152910" lon="-3.9399630">
        <ele>631.4</ele>
        <time>2021-05-08T12:18:47Z</time>
      </trkpt>
      <trkpt lat="40.4152850" lon="-3.9399030">
        <ele>631.8</ele>
        <time>2021-05-08T12:18:49Z</time>
      </trkpt>
      <trkpt lat="40.4152720" lon="-3.9398210">
        <ele>632.3</ele>
        <time>2021-05-08T12:18:51Z</time>
      </trkpt>
      <trkpt lat="40.4152650" lon="-3.9397980">
        <ele>632.5</ele>
        <time>2021-05-08T12:18:52Z</time>
      </trkpt>
      <trkpt lat="40.4152550" lon="-3.9397310">
        <ele>633.0</ele>
        <time>2021-05-08T12:18:54Z</time>
      </trkpt>
      <trkpt lat="40.4152520" lon="-3.9396850">
        <ele>633.3</ele>
        <time>2021-05-08T12:18:55Z</time>
      </trkpt>
      <trkpt lat="40.4152470" lon="-3.9396360">
        <ele>633.6</ele>
        <time>2021-05-08T12:18:57Z</time>
      </trkpt>
      <trkpt lat="40.4152370" lon="-3.9395700">
        <ele>634.0</ele>
        <time>2021-05-08T12:18:59Z</time>
      </trkpt>
      <trkpt lat="40.4152260" lon="-3.9395130">
        <ele>634.4</ele>
        <time>2021-05-08T12:19:00Z</time>
      </trkpt>
      <trkpt lat="40.4152210" lon="-3.9394880">
        <ele>634.6</ele>
        <time>2021-05-08T12:19:01Z</time>
      </trkpt>
      <trkpt lat="40.4152150" lon="-3.9394410">
        <ele>634.9</ele>
        <time>2021-05-08T12:19:03Z</time>
      </trkpt>
      <trkpt lat="40.4152090" lon="-3.9393890">
        <ele>635.2</ele>
        <time>2021-05-08T12:19:05Z</time>
      </trkpt>
      <trkpt lat="40.4152020" lon="-3.9393290">
        <ele>635.6</ele>
        <time>2021-05-08T12:19:06Z</time>
      </trkpt>
      <trkpt lat="40.4151990" lon="-3.9393010">
        <ele>635.8</ele>
        <time>2021-05-08T12:19:07Z</time>
      </trkpt>
      <trkpt lat="40.4151930" lon="-3.9392380">
        <ele>636.2</ele>
        <time>2021-05-08T12:19:09Z</time>
      </trkpt>
      <trkpt lat="40.4151870" lon="-3.9391980">
        <ele>636.5</ele>
        <time>2021-05-08T12:19:10Z</time>
      </trkpt>
      <trkpt lat="40.4151780" lon="-3.9391470">
        <ele>636.8</ele>
        <time>2021-05-08T12:19:12Z</time>
      </trkpt>
      <trkpt lat="40.4151730" lon="-3.9390950">
        <ele>637.2</ele>
        <time>2021-05-08T12:19:13Z</time>
      </trkpt>
      <trkpt lat="40.4151690" lon="-3.9390590">
        <ele>637.4</ele>
        <time>2021-05-08T12:19:15Z</time>
      </trkpt>
      <trkpt lat="40.4151620" lon="-3.9390200">
        <ele>637.7</ele>
        <time>2021-05-08T12:19:16Z</time>
      </trkpt>
      <trkpt lat="40.4151520" lon="-3.9389640">
        <ele>638.1</ele>
        <time>2021-05-08T12:19:18Z</time>
      </trkpt>
      <trkpt lat="40.4151450" lon="-3.9389180">
        <ele>638.4</ele>
        <time>2021-05-08T12:19:19Z</time>
      </trkpt>
      <trkpt lat="40.4151390" lon="-3.9388800">
        <ele>638.6</ele>
        <time>2021-05-08T12:19:20Z</time>
      </trkpt>
      <trkpt lat="40.4151330" lon="-3.9388310">
        <ele>638.9</ele>
        <time>2021-05-08T12:19:21Z</time>
      </trkpt>
      <trkpt lat="40.4151250" lon="-3.9387820">
        <ele>639.2</ele>
        <time>2021-05-08T12:19:23Z</time>
      </trkpt>
      <trkpt lat="40.4151190" lon="-3.9387450">
        <ele>639.5</ele>
        <time>2021-05-08T12:19:24Z</time>
      </trkpt>
      <trkpt lat="40.4151110" lon="-3.9386910">
        <ele>639.8</ele>
        <time>2021-05-08T12:19:25Z</time>
      </trkpt>
      <trkpt lat="40.4151080" lon="-3.9386710">
        <ele>639.9</ele>
        <time>2021-05-08T12:19:26Z</time>
      </trkpt>
      <trkpt lat="40.4150990" lon="-3.9386180">
        <ele>640.2</ele>
        <time>2021-05-08T12:19:27Z</time>
      </trkpt>
      <trkpt lat="40.4150930" lon="-3.9385500">
        <ele>640.6</ele>
        <time>2021-05-08T12:19:29Z</time>
      </trkpt>
      <trkpt lat="40.4150900" lon="-3.9385270">
        <ele>640.8</ele>
        <time>2021-05-08T12:19:30Z</time>
      </trkpt>
      <trkpt lat="40.4150880" lon="-3.9385050">
        <ele>640.9</ele>
        <time>2021-05-08T12:19:31Z</time>
      </trkpt>
      <trkpt lat="40.4150820" lon="-3.9384670">
        <ele>641.1</ele>
        <time>2021-05-08T12:19:32Z</time>
      </trkpt>
      <trkpt lat="40.4150770" lon="-3.9384330">
        <ele>641.3</ele>
        <time>2021-05-08T12:19:33Z</time>
      </trkpt>
      <trkpt lat="40.4150730" lon="-3.9383770">
        <ele>641.6</ele>
        <time>2021-05-08T12:19:35Z</time>
      </trkpt>
      <trkpt lat="40.4150640" lon="-3.9383270">
        <ele>641.8</ele>
        <time>2021-05-08T12:19:36Z</time>
      </trkpt>
      <trkpt lat="40.4150570" lon="-3.9382860">
        <ele>642.0</ele>
        <time>2021-05-08T12:19:38Z</time>
      </trkpt>
      <trkpt lat="40.4150460" lon="-3.9382320">
        <ele>642.3</ele>
        <time>2021-05-08T12:19:40Z</time>
      </trkpt>
      <trkpt lat="40.4150360" lon="-3.9381820">
        <ele>642.4</ele>
        <time>2021-05-08T12:19:41Z</time>
      </trkpt>
      <trkpt lat="40.4150330" lon="-3.9381660">
        <ele>642.5</ele>
        <time>2021-05-08T12:19:42Z</time>
      </trkpt>
      <trkpt lat="40.4150260" lon="-3.9381360">
        <ele>642.6</ele>
        <time>2021-05-08T12:19:43Z</time>
      </trkpt>
      <trkpt lat="40.4150100" lon="-3.9380660">
        <ele>642.9</ele>
        <time>2021-05-08T12:19:45Z</time>
      </trkpt>
      <trkpt lat="40.4149930" lon="-3.9380120">
        <ele>643.0</ele>
        <time>2021-05-08T12:19:47Z</time>
      </trkpt>
      <trkpt lat="40.4149740" lon="-3.9379650">
        <ele>643.2</ele>
        <time>2021-05-08T12:19:48Z</time>
      </trkpt>
      <trkpt lat="40.4149680" lon="-3.9379490">
        <ele>643.2</ele>
        <time>2021-05-08T12:19:49Z</time>
      </trkpt>
      <trkpt lat="40.4149500" lon="-3.9378840">
        <ele>643.4</ele>
        <time>2021-05-08T12:19:51Z</time>
      </trkpt>
      <trkpt lat="40.4149330" lon="-3.9378310">
        <ele>643.6</ele>
        <time>2021-05-08T12:19:52Z</time>
      </trkpt>
      <trkpt lat="40.4149200" lon="-3.9377900">
        <ele>643.7</ele>
        <time>2021-05-08T12:19:54Z</time>
      </trkpt>
      <trkpt lat="40.4149000" lon="-3.9377240">
        <ele>643.9</ele>
        <time>2021-05-08T12:19:56Z</time>
      </trkpt>
      <trkpt lat="40.4148800" lon="-3.9376610">
        <ele>644.1</ele>
        <time>2021-05-08T12:19:58Z</time>
      </trkpt>
      <trkpt lat="40.4148630" lon="-3.9375980">
        <ele>644.3</ele>
        <time>2021-05-08T12:20:00Z</time>
      </trkpt>
      <trkpt lat="40.4148390" lon="-3.9375210">
        <ele>644.5</ele>
        <time>2021-05-08T12:20:02Z</time>
      </trkpt>
      <trkpt lat="40.4148180" lon="-3.9374510">
        <ele>644.6</ele>
        <time>2021-05-08T12:20:04Z</time>
      </trkpt>
      <trkpt lat="40.4148050" lon="-3.9374110">
        <ele>644.7</ele>
        <time>2021-05-08T12:20:05Z</time>
      </trkpt>
      <trkpt lat="40.4147770" lon="-3.9373490">
        <ele>644.9</ele>
        <time>2021-05-08T12:20:07Z</time>
      </trkpt>
      <trkpt lat="40.4147620" lon="-3.9373130">
        <ele>645.0</ele>
        <time>2021-05-08T12:20:08Z</time>
      </trkpt>
      <trkpt lat="40.4147490" lon="-3.9372790">
        <ele>645.1</ele>
        <time>2021-05-08T12:20:09Z</time>
      </trkpt>
      <trkpt lat="40.4147370" lon="-3.9372460">
        <ele>645.2</ele>
        <time>2021-05-08T12:20:10Z</time>
      </trkpt>
      <trkpt lat="40.4147170" lon="-3.9371950">
        <ele>645.3</ele>
        <time>2021-05-08T12:20:11Z</time>
      </trkpt>
      <trkpt lat="40.4146990" lon="-3.9371410">
        <ele>645.5</ele>
        <time>2021-05-08T12:20:13Z</time>
      </trkpt>
      <trkpt lat="40.4146890" lon="-3.9370960">
        <ele>645.6</ele>
        <time>2021-05-08T12:20:14Z</time>
      </trkpt>
      <trkpt lat="40.4146620" lon="-3.9370310">
        <ele>645.8</ele>
        <time>2021-05-08T12:20:16Z</time>
      </trkpt>
      <trkpt lat="40.4146480" lon="-3.9369970">
        <ele>645.9</ele>
        <time>2021-05-08T12:20:17Z</time>
      </trkpt>
      <trkpt lat="40.4146310" lon="-3.9369550">
        <ele>646.0</ele>
        <time>2021-05-08T12:20:18Z</time>
      </trkpt>
      <trkpt lat="40.4146180" lon="-3.9369130">
        <ele>646.1</ele>
        <time>2021-05-08T12:20:19Z</time>
      </trkpt>
      <trkpt lat="40.4145910" lon="-3.9368560">
        <ele>646.2</ele>
        <time>2021-05-08T12:20:22Z</time>
      </trkpt>
      <trkpt lat="40.4145770" lon="-3.9368210">
        <ele>646.3</ele>
        <time>2021-05-08T12:20:23Z</time>
      </trkpt>
      <trkpt lat="40.4145580" lon="-3.9367990">
        <ele>646.4</ele>
        <time>2021-05-08T12:20:24Z</time>
      </trkpt>
      <trkpt lat="40.4145340" lon="-3.9368170">
        <ele>646.4</ele>
        <time>2021-05-08T12:20:27Z</time>
      </trkpt>
      <trkpt lat="40.4145630" lon="-3.9368210">
        <ele>646.5</ele>
        <time>2021-05-08T12:20:52Z</time>
      </trkpt>
      <trkpt lat="40.4145640" lon="-3.9368180">
        <ele>646.5</ele>
        <time>2021-05-08T12:20:53Z</time>
      </trkpt>
      <trkpt lat="40.4145570" lon="-3.9368160">
        <ele>646.5</ele>
        <time>2021-05-08T12:20:55Z</time>
      </trkpt>
      <trkpt lat="40.4145480" lon="-3.9368040">
        <ele>646.6</ele>
        <time>2021-05-08T12:20:56Z</time>
      </trkpt>
      <trkpt lat="40.4145320" lon="-3.9367710">
        <ele>646.6</ele>
        <time>2021-05-08T12:20:58Z</time>
      </trkpt>
      <trkpt lat="40.4145140" lon="-3.9367390">
        <ele>646.7</ele>
        <time>2021-05-08T12:20:59Z</time>
      </trkpt>
      <trkpt lat="40.4145000" lon="-3.9367070">
        <ele>646.7</ele>
        <time>2021-05-08T12:21:00Z</time>
      </trkpt>
      <trkpt lat="40.4144610" lon="-3.9366030">
        <ele>646.9</ele>
        <time>2021-05-08T12:21:02Z</time>
      </trkpt>
      <trkpt lat="40.4144400" lon="-3.9365380">
        <ele>647.0</ele>
        <time>2021-05-08T12:21:04Z</time>
      </trkpt>
      <trkpt lat="40.4144110" lon="-3.9364570">
        <ele>647.1</ele>
        <time>2021-05-08T12:21:06Z</time>
      </trkpt>
      <trkpt lat="40.4143790" lon="-3.9363750">
        <ele>647.3</ele>
        <time>2021-05-08T12:21:08Z</time>
      </trkpt>
      <trkpt lat="40.4143610" lon="-3.9363300">
        <ele>647.3</ele>
        <time>2021-05-08T12:21:09Z</time>
      </trkpt>
      <trkpt lat="40.4143190" lon="-3.9362240">
        <ele>647.5</ele>
        <time>2021-05-08T12:21:11Z</time>
      </trkpt>
      <trkpt lat="40.4142940" lon="-3.9361480">
        <ele>647.6</ele>
        <time>2021-05-08T12:21:13Z</time>
      </trkpt>
      <trkpt lat="40.4142720" lon="-3.9360980">
        <ele>647.7</ele>
        <time>2021-05-08T12:21:14Z</time>
      </trkpt>
      <trkpt lat="40.4142570" lon="-3.9360520">
        <ele>647.8</ele>
        <time>2021-05-08T12:21:15Z</time>
      </trkpt>
      <trkpt lat="40.4142430" lon="-3.9360080">
        <ele>647.8</ele>
        <time>2021-05-08T12:21:16Z</time>
      </trkpt>
      <trkpt lat="40.4142140" lon="-3.9359380">
        <ele>647.9</ele>
        <time>2021-05-08T12:21:18Z</time>
      </trkpt>
      <trkpt lat="40.4141910" lon="-3.9358900">
        <ele>648.0</ele>
        <time>2021-05-08T12:21:19Z</time>
      </trkpt>
      <trkpt lat="40.4141590" lon="-3.9358060">
        <ele>648.1</ele>
        <time>2021-05-08T12:21:21Z</time>
      </trkpt>
      <trkpt lat="40.4141280" lon="-3.9357290">
        <ele>648.3</ele>
        <time>2021-05-08T12:21:23Z</time>
      </trkpt>
      <trkpt lat="40.4141140" lon="-3.9356860">
        <ele>648.4</ele>
        <time>2021-05-08T12:21:24Z</time>
      </trkpt>
      <trkpt lat="40.4140830" lon="-3.9355980">
        <ele>648.6</ele>
        <time>2021-05-08T12:21:26Z</time>
      </trkpt>
      <trkpt lat="40.4140670" lon="-3.9355530">
        <ele>648.7</ele>
        <time>2021-05-08T12:21:27Z</time>
      </trkpt>
      <trkpt lat="40.4140470" lon="-3.9355020">
        <ele>648.8</ele>
        <time>2021-05-08T12:21:28Z</time>
      </trkpt>
      <trkpt lat="40.4140250" lon="-3.9354400">
        <ele>648.9</ele>
        <time>2021-05-08T12:21:30Z</time>
      </trkpt>
      <trkpt lat="40.4139990" lon="-3.9353490">
        <ele>649.1</ele>
        <time>2021-05-08T12:21:32Z</time>
      </trkpt>
      <trkpt lat="40.4139690" lon="-3.9352800">
        <ele>649.3</ele>
        <time>2021-05-08T12:21:34Z</time>
      </trkpt>
      <trkpt lat="40.4139510" lon="-3.9352390">
        <ele>649.4</ele>
        <time>2021-05-08T12:21:35Z</time>
      </trkpt>
      <trkpt lat="40.4139060" lon="-3.9351240">
        <ele>649.7</ele>
        <time>2021-05-08T12:21:37Z</time>
      </trkpt>
      <trkpt lat="40.4138750" lon="-3.9350520">
        <ele>649.8</ele>
        <time>2021-05-08T12:21:39Z</time>
      </trkpt>
      <trkpt lat="40.4138500" lon="-3.9349810">
        <ele>650.0</ele>
        <time>2021-05-08T12:21:41Z</time>
      </trkpt>
      <trkpt lat="40.4138270" lon="-3.9349190">
        <ele>650.2</ele>
        <time>2021-05-08T12:21:42Z</time>
      </trkpt>
      <trkpt lat="40.4138010" lon="-3.9348530">
        <ele>650.3</ele>
        <time>2021-05-08T12:21:43Z</time>
      </trkpt>
      <trkpt lat="40.4137780" lon="-3.9347930">
        <ele>650.5</ele>
        <time>2021-05-08T12:21:45Z</time>
      </trkpt>
      <trkpt lat="40.4137600" lon="-3.9347400">
        <ele>650.6</ele>
        <time>2021-05-08T12:21:46Z</time>
      </trkpt>
      <trkpt lat="40.4137270" lon="-3.9346490">
        <ele>650.8</ele>
        <time>2021-05-08T12:21:48Z</time>
      </trkpt>
      <trkpt lat="40.4136940" lon="-3.9345720">
        <ele>651.0</ele>
        <time>2021-05-08T12:21:50Z</time>
      </trkpt>
      <trkpt lat="40.4136760" lon="-3.9345300">
        <ele>651.1</ele>
        <time>2021-05-08T12:21:51Z</time>
      </trkpt>
      <trkpt lat="40.4136480" lon="-3.9344620">
        <ele>651.3</ele>
        <time>2021-05-08T12:21:52Z</time>
      </trkpt>
      <trkpt lat="40.4136320" lon="-3.9344160">
        <ele>651.4</ele>
        <time>2021-05-08T12:21:53Z</time>
      </trkpt>
      <trkpt lat="40.4136080" lon="-3.9343500">
        <ele>651.5</ele>
        <time>2021-05-08T12:21:55Z</time>
      </trkpt>
      <trkpt lat="40.4135890" lon="-3.9343000">
        <ele>651.7</ele>
        <time>2021-05-08T12:21:56Z</time>
      </trkpt>
      <trkpt lat="40.4135670" lon="-3.9342410">
        <ele>651.8</ele>
        <time>2021-05-08T12:21:58Z</time>
      </trkpt>
      <trkpt lat="40.4135470" lon="-3.9341800">
        <ele>652.0</ele>
        <time>2021-05-08T12:21:59Z</time>
      </trkpt>
      <trkpt lat="40.4135310" lon="-3.9341370">
        <ele>652.1</ele>
        <time>2021-05-08T12:22:00Z</time>
      </trkpt>
      <trkpt lat="40.4135150" lon="-3.9340930">
        <ele>652.2</ele>
        <time>2021-05-08T12:22:01Z</time>
      </trkpt>
      <trkpt lat="40.4134860" lon="-3.9340200">
        <ele>652.4</ele>
        <time>2021-05-08T12:22:02Z</time>
      </trkpt>
      <trkpt lat="40.4134690" lon="-3.9339780">
        <ele>652.5</ele>
        <time>2021-05-08T12:22:03Z</time>
      </trkpt>
      <trkpt lat="40.4134470" lon="-3.9339190">
        <ele>652.7</ele>
        <time>2021-05-08T12:22:05Z</time>
      </trkpt>
      <trkpt lat="40.4134290" lon="-3.9338750">
        <ele>652.8</ele>
        <time>2021-05-08T12:22:06Z</time>
      </trkpt>
      <trkpt lat="40.4134070" lon="-3.9338140">
        <ele>653.0</ele>
        <time>2021-05-08T12:22:07Z</time>
      </trkpt>
      <trkpt lat="40.4133910" lon="-3.9337650">
        <ele>653.1</ele>
        <time>2021-05-08T12:22:09Z</time>
      </trkpt>
      <trkpt lat="40.4133710" lon="-3.9337090">
        <ele>653.3</ele>
        <time>2021-05-08T12:22:10Z</time>
      </trkpt>
      <trkpt lat="40.4133550" lon="-3.9336620">
        <ele>653.4</ele>
        <time>2021-05-08T12:22:11Z</time>
      </trkpt>
      <trkpt lat="40.4133230" lon="-3.9335770">
        <ele>653.7</ele>
        <time>2021-05-08T12:22:13Z</time>
      </trkpt>
      <trkpt lat="40.4133000" lon="-3.9335150">
        <ele>653.8</ele>
        <time>2021-05-08T12:22:14Z</time>
      </trkpt>
      <trkpt lat="40.4132780" lon="-3.9334630">
        <ele>654.0</ele>
        <time>2021-05-08T12:22:16Z</time>
      </trkpt>
      <trkpt lat="40.4132570" lon="-3.9334090">
        <ele>654.2</ele>
        <time>2021-05-08T12:22:17Z</time>
      </trkpt>
      <trkpt lat="40.4132360" lon="-3.9333530">
        <ele>654.4</ele>
        <time>2021-05-08T12:22:18Z</time>
      </trkpt>
      <trkpt lat="40.4132120" lon="-3.9332940">
        <ele>654.6</ele>
        <time>2021-05-08T12:22:20Z</time>
      </trkpt>
      <trkpt lat="40.4131970" lon="-3.9332520">
        <ele>654.8</ele>
        <time>2021-05-08T12:22:21Z</time>
      </trkpt>
      <trkpt lat="40.4131610" lon="-3.9331530">
        <ele>655.2</ele>
        <time>2021-05-08T12:22:23Z</time>
      </trkpt>
      <trkpt lat="40.4131440" lon="-3.9331060">
        <ele>655.4</ele>
        <time>2021-05-08T12:22:24Z</time>
      </trkpt>
      <trkpt lat="40.4131300" lon="-3.9330690">
        <ele>655.5</ele>
        <time>2021-05-08T12:22:25Z</time>
      </trkpt>
      <trkpt lat="40.4131150" lon="-3.9330280">
        <ele>655.7</ele>
        <time>2021-05-08T12:22:26Z</time>
      </trkpt>
      <trkpt lat="40.4130910" lon="-3.9329620">
        <ele>656.0</ele>
        <time>2021-05-08T12:22:27Z</time>
      </trkpt>
      <trkpt lat="40.4130760" lon="-3.9329180">
        <ele>656.1</ele>
        <time>2021-05-08T12:22:29Z</time>
      </trkpt>
      <trkpt lat="40.4130610" lon="-3.9328740">
        <ele>656.3</ele>
        <time>2021-05-08T12:22:30Z</time>
      </trkpt>
      <trkpt lat="40.4130410" lon="-3.9328130">
        <ele>656.6</ele>
        <time>2021-05-08T12:22:32Z</time>
      </trkpt>
      <trkpt lat="40.4130180" lon="-3.9327420">
        <ele>656.9</ele>
        <time>2021-05-08T12:22:34Z</time>
      </trkpt>
      <trkpt lat="40.4129990" lon="-3.9326870">
        <ele>657.1</ele>
        <time>2021-05-08T12:22:35Z</time>
      </trkpt>
      <trkpt lat="40.4129850" lon="-3.9326390">
        <ele>657.3</ele>
        <time>2021-05-08T12:22:36Z</time>
      </trkpt>
      <trkpt lat="40.4129630" lon="-3.9325810">
        <ele>657.5</ele>
        <time>2021-05-08T12:22:38Z</time>
      </trkpt>
      <trkpt lat="40.4129400" lon="-3.9325120">
        <ele>657.8</ele>
        <time>2021-05-08T12:22:40Z</time>
      </trkpt>
      <trkpt lat="40.4129230" lon="-3.9324380">
        <ele>658.1</ele>
        <time>2021-05-08T12:22:41Z</time>
      </trkpt>
      <trkpt lat="40.4129100" lon="-3.9323850">
        <ele>658.3</ele>
        <time>2021-05-08T12:22:43Z</time>
      </trkpt>
      <trkpt lat="40.4128980" lon="-3.9323300">
        <ele>658.5</ele>
        <time>2021-05-08T12:22:44Z</time>
      </trkpt>
      <trkpt lat="40.4128790" lon="-3.9322620">
        <ele>658.7</ele>
        <time>2021-05-08T12:22:45Z</time>
      </trkpt>
      <trkpt lat="40.4128650" lon="-3.9322050">
        <ele>658.9</ele>
        <time>2021-05-08T12:22:47Z</time>
      </trkpt>
      <trkpt lat="40.4128540" lon="-3.9321630">
        <ele>659.1</ele>
        <time>2021-05-08T12:22:48Z</time>
      </trkpt>
      <trkpt lat="40.4128330" lon="-3.9320770">
        <ele>659.4</ele>
        <time>2021-05-08T12:22:50Z</time>
      </trkpt>
      <trkpt lat="40.4128230" lon="-3.9320370">
        <ele>659.5</ele>
        <time>2021-05-08T12:22:51Z</time>
      </trkpt>
      <trkpt lat="40.4128090" lon="-3.9319770">
        <ele>659.7</ele>
        <time>2021-05-08T12:22:52Z</time>
      </trkpt>
      <trkpt lat="40.4127870" lon="-3.9319000">
        <ele>659.9</ele>
        <time>2021-05-08T12:22:54Z</time>
      </trkpt>
      <trkpt lat="40.4127670" lon="-3.9318200">
        <ele>660.2</ele>
        <time>2021-05-08T12:22:56Z</time>
      </trkpt>
      <trkpt lat="40.4127530" lon="-3.9317620">
        <ele>660.3</ele>
        <time>2021-05-08T12:22:57Z</time>
      </trkpt>
      <trkpt lat="40.4127410" lon="-3.9317150">
        <ele>660.5</ele>
        <time>2021-05-08T12:22:59Z</time>
      </trkpt>
      <trkpt lat="40.4127260" lon="-3.9316600">
        <ele>660.6</ele>
        <time>2021-05-08T12:23:00Z</time>
      </trkpt>
      <trkpt lat="40.4127060" lon="-3.9315790">
        <ele>660.9</ele>
        <time>2021-05-08T12:23:02Z</time>
      </trkpt>
      <trkpt lat="40.4126940" lon="-3.9315410">
        <ele>661.0</ele>
        <time>2021-05-08T12:23:03Z</time>
      </trkpt>
      <trkpt lat="40.4126830" lon="-3.9314980">
        <ele>661.2</ele>
        <time>2021-05-08T12:23:04Z</time>
      </trkpt>
      <trkpt lat="40.4126590" lon="-3.9314040">
        <ele>661.4</ele>
        <time>2021-05-08T12:23:06Z</time>
      </trkpt>
      <trkpt lat="40.4126370" lon="-3.9313260">
        <ele>661.7</ele>
        <time>2021-05-08T12:23:08Z</time>
      </trkpt>
      <trkpt lat="40.4126170" lon="-3.9312470">
        <ele>661.9</ele>
        <time>2021-05-08T12:23:10Z</time>
      </trkpt>
      <trkpt lat="40.4126020" lon="-3.9312000">
        <ele>662.1</ele>
        <time>2021-05-08T12:23:11Z</time>
      </trkpt>
      <trkpt lat="40.4125850" lon="-3.9311410">
        <ele>662.2</ele>
        <time>2021-05-08T12:23:12Z</time>
      </trkpt>
      <trkpt lat="40.4125700" lon="-3.9310740">
        <ele>662.4</ele>
        <time>2021-05-08T12:23:14Z</time>
      </trkpt>
      <trkpt lat="40.4125590" lon="-3.9310330">
        <ele>662.6</ele>
        <time>2021-05-08T12:23:15Z</time>
      </trkpt>
      <trkpt lat="40.4125480" lon="-3.9309850">
        <ele>662.7</ele>
        <time>2021-05-08T12:23:16Z</time>
      </trkpt>
      <trkpt lat="40.4125260" lon="-3.9308970">
        <ele>662.9</ele>
        <time>2021-05-08T12:23:18Z</time>
      </trkpt>
      <trkpt lat="40.4125140" lon="-3.9308290">
        <ele>663.1</ele>
        <time>2021-05-08T12:23:20Z</time>
      </trkpt>
      <trkpt lat="40.4125040" lon="-3.9307710">
        <ele>663.3</ele>
        <time>2021-05-08T12:23:21Z</time>
      </trkpt>
      <trkpt lat="40.4124870" lon="-3.9306780">
        <ele>663.5</ele>
        <time>2021-05-08T12:23:23Z</time>
      </trkpt>
      <trkpt lat="40.4124800" lon="-3.9306280">
        <ele>663.7</ele>
        <time>2021-05-08T12:23:24Z</time>
      </trkpt>
      <trkpt lat="40.4124680" lon="-3.9305630">
        <ele>663.8</ele>
        <time>2021-05-08T12:23:25Z</time>
      </trkpt>
      <trkpt lat="40.4124520" lon="-3.9305010">
        <ele>664.0</ele>
        <time>2021-05-08T12:23:27Z</time>
      </trkpt>
      <trkpt lat="40.4124420" lon="-3.9304520">
        <ele>664.1</ele>
        <time>2021-05-08T12:23:28Z</time>
      </trkpt>
      <trkpt lat="40.4124280" lon="-3.9303820">
        <ele>664.3</ele>
        <time>2021-05-08T12:23:29Z</time>
      </trkpt>
      <trkpt lat="40.4124110" lon="-3.9303190">
        <ele>664.4</ele>
        <time>2021-05-08T12:23:31Z</time>
      </trkpt>
      <trkpt lat="40.4123970" lon="-3.9302610">
        <ele>664.5</ele>
        <time>2021-05-08T12:23:32Z</time>
      </trkpt>
      <trkpt lat="40.4123850" lon="-3.9302140">
        <ele>664.6</ele>
        <time>2021-05-08T12:23:33Z</time>
      </trkpt>
      <trkpt lat="40.4123720" lon="-3.9301620">
        <ele>664.8</ele>
        <time>2021-05-08T12:23:34Z</time>
      </trkpt>
      <trkpt lat="40.4123570" lon="-3.9301070">
        <ele>664.9</ele>
        <time>2021-05-08T12:23:36Z</time>
      </trkpt>
      <trkpt lat="40.4123430" lon="-3.9300490">
        <ele>665.0</ele>
        <time>2021-05-08T12:23:37Z</time>
      </trkpt>
      <trkpt lat="40.4123310" lon="-3.9300030">
        <ele>665.1</ele>
        <time>2021-05-08T12:23:38Z</time>
      </trkpt>
      <trkpt lat="40.4123070" lon="-3.9299110">
        <ele>665.3</ele>
        <time>2021-05-08T12:23:40Z</time>
      </trkpt>
      <trkpt lat="40.4122950" lon="-3.9298640">
        <ele>665.4</ele>
        <time>2021-05-08T12:23:41Z</time>
      </trkpt>
      <trkpt lat="40.4122830" lon="-3.9298210">
        <ele>665.5</ele>
        <time>2021-05-08T12:23:42Z</time>
      </trkpt>
      <trkpt lat="40.4122530" lon="-3.9297120">
        <ele>665.7</ele>
        <time>2021-05-08T12:23:44Z</time>
      </trkpt>
      <trkpt lat="40.4122430" lon="-3.9296720">
        <ele>665.8</ele>
        <time>2021-05-08T12:23:45Z</time>
      </trkpt>
      <trkpt lat="40.4122250" lon="-3.9296110">
        <ele>665.9</ele>
        <time>2021-05-08T12:23:46Z</time>
      </trkpt>
      <trkpt lat="40.4122060" lon="-3.9295430">
        <ele>666.1</ele>
        <time>2021-05-08T12:23:48Z</time>
      </trkpt>
      <trkpt lat="40.4121970" lon="-3.9295000">
        <ele>666.2</ele>
        <time>2021-05-08T12:23:49Z</time>
      </trkpt>
      <trkpt lat="40.4121830" lon="-3.9294290">
        <ele>666.3</ele>
        <time>2021-05-08T12:23:51Z</time>
      </trkpt>
      <trkpt lat="40.4121700" lon="-3.9293700">
        <ele>666.4</ele>
        <time>2021-05-08T12:23:52Z</time>
      </trkpt>
      <trkpt lat="40.4121610" lon="-3.9293290">
        <ele>666.5</ele>
        <time>2021-05-08T12:23:53Z</time>
      </trkpt>
      <trkpt lat="40.4121460" lon="-3.9292590">
        <ele>666.7</ele>
        <time>2021-05-08T12:23:54Z</time>
      </trkpt>
      <trkpt lat="40.4121370" lon="-3.9291980">
        <ele>666.8</ele>
        <time>2021-05-08T12:23:56Z</time>
      </trkpt>
      <trkpt lat="40.4121300" lon="-3.9291520">
        <ele>666.9</ele>
        <time>2021-05-08T12:23:57Z</time>
      </trkpt>
      <trkpt lat="40.4121170" lon="-3.9290740">
        <ele>667.0</ele>
        <time>2021-05-08T12:23:58Z</time>
      </trkpt>
      <trkpt lat="40.4121000" lon="-3.9289590">
        <ele>667.3</ele>
        <time>2021-05-08T12:24:01Z</time>
      </trkpt>
      <trkpt lat="40.4120840" lon="-3.9288590">
        <ele>667.5</ele>
        <time>2021-05-08T12:24:02Z</time>
      </trkpt>
      <trkpt lat="40.4120770" lon="-3.9288120">
        <ele>667.6</ele>
        <time>2021-05-08T12:24:03Z</time>
      </trkpt>
      <trkpt lat="40.4120680" lon="-3.9287500">
        <ele>667.7</ele>
        <time>2021-05-08T12:24:05Z</time>
      </trkpt>
      <trkpt lat="40.4120630" lon="-3.9287070">
        <ele>667.8</ele>
        <time>2021-05-08T12:24:06Z</time>
      </trkpt>
      <trkpt lat="40.4120580" lon="-3.9286600">
        <ele>667.9</ele>
        <time>2021-05-08T12:24:07Z</time>
      </trkpt>
      <trkpt lat="40.4120450" lon="-3.9285290">
        <ele>668.2</ele>
        <time>2021-05-08T12:24:09Z</time>
      </trkpt>
      <trkpt lat="40.4120400" lon="-3.9284850">
        <ele>668.3</ele>
        <time>2021-05-08T12:24:10Z</time>
      </trkpt>
      <trkpt lat="40.4120360" lon="-3.9284160">
        <ele>668.4</ele>
        <time>2021-05-08T12:24:11Z</time>
      </trkpt>
      <trkpt lat="40.4120300" lon="-3.9283410">
        <ele>668.5</ele>
        <time>2021-05-08T12:24:13Z</time>
      </trkpt>
      <trkpt lat="40.4120210" lon="-3.9282420">
        <ele>668.7</ele>
        <time>2021-05-08T12:24:15Z</time>
      </trkpt>
      <trkpt lat="40.4120160" lon="-3.9281930">
        <ele>668.8</ele>
        <time>2021-05-08T12:24:16Z</time>
      </trkpt>
      <trkpt lat="40.4120090" lon="-3.9280910">
        <ele>669.0</ele>
        <time>2021-05-08T12:24:18Z</time>
      </trkpt>
      <trkpt lat="40.4120040" lon="-3.9279960">
        <ele>669.2</ele>
        <time>2021-05-08T12:24:20Z</time>
      </trkpt>
      <trkpt lat="40.4119980" lon="-3.9278930">
        <ele>669.4</ele>
        <time>2021-05-08T12:24:22Z</time>
      </trkpt>
      <trkpt lat="40.4119950" lon="-3.9278370">
        <ele>669.4</ele>
        <time>2021-05-08T12:24:23Z</time>
      </trkpt>
      <trkpt lat="40.4119920" lon="-3.9277820">
        <ele>669.5</ele>
        <time>2021-05-08T12:24:24Z</time>
      </trkpt>
      <trkpt lat="40.4119870" lon="-3.9277050">
        <ele>669.6</ele>
        <time>2021-05-08T12:24:25Z</time>
      </trkpt>
      <trkpt lat="40.4119850" lon="-3.9276480">
        <ele>669.7</ele>
        <time>2021-05-08T12:24:27Z</time>
      </trkpt>
      <trkpt lat="40.4119790" lon="-3.9275730">
        <ele>669.9</ele>
        <time>2021-05-08T12:24:28Z</time>
      </trkpt>
      <trkpt lat="40.4119700" lon="-3.9274640">
        <ele>670.0</ele>
        <time>2021-05-08T12:24:30Z</time>
      </trkpt>
      <trkpt lat="40.4119650" lon="-3.9274100">
        <ele>670.1</ele>
        <time>2021-05-08T12:24:31Z</time>
      </trkpt>
      <trkpt lat="40.4119610" lon="-3.9273090">
        <ele>670.3</ele>
        <time>2021-05-08T12:24:33Z</time>
      </trkpt>
      <trkpt lat="40.4119550" lon="-3.9272150">
        <ele>670.4</ele>
        <time>2021-05-08T12:24:34Z</time>
      </trkpt>
      <trkpt lat="40.4119520" lon="-3.9271260">
        <ele>670.6</ele>
        <time>2021-05-08T12:24:36Z</time>
      </trkpt>
      <trkpt lat="40.4119490" lon="-3.9270800">
        <ele>670.6</ele>
        <time>2021-05-08T12:24:37Z</time>
      </trkpt>
      <trkpt lat="40.4119390" lon="-3.9269810">
        <ele>670.7</ele>
        <time>2021-05-08T12:24:39Z</time>
      </trkpt>
      <trkpt lat="40.4119310" lon="-3.9268850">
        <ele>670.9</ele>
        <time>2021-05-08T12:24:41Z</time>
      </trkpt>
      <trkpt lat="40.4119260" lon="-3.9268250">
        <ele>670.9</ele>
        <time>2021-05-08T12:24:42Z</time>
      </trkpt>
      <trkpt lat="40.4119170" lon="-3.9267510">
        <ele>671.0</ele>
        <time>2021-05-08T12:24:44Z</time>
      </trkpt>
      <trkpt lat="40.4119130" lon="-3.9266840">
        <ele>671.0</ele>
        <time>2021-05-08T12:24:45Z</time>
      </trkpt>
      <trkpt lat="40.4119130" lon="-3.9265940">
        <ele>671.0</ele>
        <time>2021-05-08T12:24:47Z</time>
      </trkpt>
      <trkpt lat="40.4119090" lon="-3.9265370">
        <ele>671.0</ele>
        <time>2021-05-08T12:24:48Z</time>
      </trkpt>
      <trkpt lat="40.4119140" lon="-3.9264800">
        <ele>671.0</ele>
        <time>2021-05-08T12:24:49Z</time>
      </trkpt>
      <trkpt lat="40.4119250" lon="-3.9263980">
        <ele>670.9</ele>
        <time>2021-05-08T12:24:50Z</time>
      </trkpt>
      <trkpt lat="40.4119260" lon="-3.9263260">
        <ele>670.8</ele>
        <time>2021-05-08T12:24:52Z</time>
      </trkpt>
      <trkpt lat="40.4119040" lon="-3.9262050">
        <ele>670.7</ele>
        <time>2021-05-08T12:24:54Z</time>
      </trkpt>
      <trkpt lat="40.4119080" lon="-3.9261560">
        <ele>670.7</ele>
        <time>2021-05-08T12:24:55Z</time>
      </trkpt>
      <trkpt lat="40.4119130" lon="-3.9260900">
        <ele>670.6</ele>
        <time>2021-05-08T12:24:57Z</time>
      </trkpt>
      <trkpt lat="40.4119210" lon="-3.9260360">
        <ele>670.6</ele>
        <time>2021-05-08T12:24:58Z</time>
      </trkpt>
      <trkpt lat="40.4119310" lon="-3.9259730">
        <ele>670.6</ele>
        <time>2021-05-08T12:24:59Z</time>
      </trkpt>
      <trkpt lat="40.4119510" lon="-3.9258380">
        <ele>670.5</ele>
        <time>2021-05-08T12:25:01Z</time>
      </trkpt>
      <trkpt lat="40.4119600" lon="-3.9257800">
        <ele>670.5</ele>
        <time>2021-05-08T12:25:02Z</time>
      </trkpt>
      <trkpt lat="40.4119840" lon="-3.9256550">
        <ele>670.4</ele>
        <time>2021-05-08T12:25:04Z</time>
      </trkpt>
      <trkpt lat="40.4120110" lon="-3.9255310">
        <ele>670.4</ele>
        <time>2021-05-08T12:25:06Z</time>
      </trkpt>
      <trkpt lat="40.4120250" lon="-3.9254670">
        <ele>670.3</ele>
        <time>2021-05-08T12:25:07Z</time>
      </trkpt>
      <trkpt lat="40.4120420" lon="-3.9254040">
        <ele>670.3</ele>
        <time>2021-05-08T12:25:08Z</time>
      </trkpt>
      <trkpt lat="40.4120760" lon="-3.9252770">
        <ele>670.2</ele>
        <time>2021-05-08T12:25:10Z</time>
      </trkpt>
      <trkpt lat="40.4121140" lon="-3.9251550">
        <ele>670.2</ele>
        <time>2021-05-08T12:25:12Z</time>
      </trkpt>
      <trkpt lat="40.4121560" lon="-3.9250420">
        <ele>670.3</ele>
        <time>2021-05-08T12:25:14Z</time>
      </trkpt>
      <trkpt lat="40.4121780" lon="-3.9249850">
        <ele>670.3</ele>
        <time>2021-05-08T12:25:15Z</time>
      </trkpt>
      <trkpt lat="40.4122200" lon="-3.9248730">
        <ele>670.3</ele>
        <time>2021-05-08T12:25:17Z</time>
      </trkpt>
      <trkpt lat="40.4122650" lon="-3.9247570">
        <ele>670.4</ele>
        <time>2021-05-08T12:25:19Z</time>
      </trkpt>
      <trkpt lat="40.4122880" lon="-3.9246980">
        <ele>670.5</ele>
        <time>2021-05-08T12:25:20Z</time>
      </trkpt>
      <trkpt lat="40.4123400" lon="-3.9245870">
        <ele>670.6</ele>
        <time>2021-05-08T12:25:22Z</time>
      </trkpt>
      <trkpt lat="40.4123680" lon="-3.9245330">
        <ele>670.6</ele>
        <time>2021-05-08T12:25:23Z</time>
      </trkpt>
      <trkpt lat="40.4124280" lon="-3.9244240">
        <ele>670.8</ele>
        <time>2021-05-08T12:25:25Z</time>
      </trkpt>
      <trkpt lat="40.4124580" lon="-3.9243650">
        <ele>670.8</ele>
        <time>2021-05-08T12:25:26Z</time>
      </trkpt>
      <trkpt lat="40.4125210" lon="-3.9242570">
        <ele>671.0</ele>
        <time>2021-05-08T12:25:28Z</time>
      </trkpt>
      <trkpt lat="40.4125850" lon="-3.9241460">
        <ele>671.2</ele>
        <time>2021-05-08T12:25:30Z</time>
      </trkpt>
      <trkpt lat="40.4126510" lon="-3.9240340">
        <ele>671.3</ele>
        <time>2021-05-08T12:25:32Z</time>
      </trkpt>
      <trkpt lat="40.4126830" lon="-3.9239750">
        <ele>671.4</ele>
        <time>2021-05-08T12:25:33Z</time>
      </trkpt>
      <trkpt lat="40.4127140" lon="-3.9239200">
        <ele>671.5</ele>
        <time>2021-05-08T12:25:34Z</time>
      </trkpt>
      <trkpt lat="40.4127790" lon="-3.9238060">
        <ele>671.7</ele>
        <time>2021-05-08T12:25:36Z</time>
      </trkpt>
      <trkpt lat="40.4128450" lon="-3.9236860">
        <ele>671.8</ele>
        <time>2021-05-08T12:25:38Z</time>
      </trkpt>
      <trkpt lat="40.4128800" lon="-3.9236290">
        <ele>671.9</ele>
        <time>2021-05-08T12:25:39Z</time>
      </trkpt>
      <trkpt lat="40.4129140" lon="-3.9235710">
        <ele>672.1</ele>
        <time>2021-05-08T12:25:40Z</time>
      </trkpt>
      <trkpt lat="40.4129790" lon="-3.9234590">
        <ele>672.3</ele>
        <time>2021-05-08T12:25:42Z</time>
      </trkpt>
      <trkpt lat="40.4130090" lon="-3.9234020">
        <ele>672.4</ele>
        <time>2021-05-08T12:25:43Z</time>
      </trkpt>
      <trkpt lat="40.4130740" lon="-3.9232820">
        <ele>672.6</ele>
        <time>2021-05-08T12:25:45Z</time>
      </trkpt>
      <trkpt lat="40.4131390" lon="-3.9231600">
        <ele>672.8</ele>
        <time>2021-05-08T12:25:47Z</time>
      </trkpt>
      <trkpt lat="40.4132050" lon="-3.9230390">
        <ele>673.0</ele>
        <time>2021-05-08T12:25:49Z</time>
      </trkpt>
      <trkpt lat="40.4132370" lon="-3.9229770">
        <ele>673.1</ele>
        <time>2021-05-08T12:25:50Z</time>
      </trkpt>
      <trkpt lat="40.4132680" lon="-3.9229170">
        <ele>673.3</ele>
        <time>2021-05-08T12:25:51Z</time>
      </trkpt>
      <trkpt lat="40.4133370" lon="-3.9227960">
        <ele>673.5</ele>
        <time>2021-05-08T12:25:53Z</time>
      </trkpt>
      <trkpt lat="40.4133720" lon="-3.9227350">
        <ele>673.6</ele>
        <time>2021-05-08T12:25:54Z</time>
      </trkpt>
      <trkpt lat="40.4134060" lon="-3.9226760">
        <ele>673.8</ele>
        <time>2021-05-08T12:25:55Z</time>
      </trkpt>
      <trkpt lat="40.4134410" lon="-3.9226160">
        <ele>673.9</ele>
        <time>2021-05-08T12:25:56Z</time>
      </trkpt>
      <trkpt lat="40.4135060" lon="-3.9224960">
        <ele>674.2</ele>
        <time>2021-05-08T12:25:58Z</time>
      </trkpt>
      <trkpt lat="40.4135420" lon="-3.9224380">
        <ele>674.4</ele>
        <time>2021-05-08T12:25:59Z</time>
      </trkpt>
      <trkpt lat="40.4135790" lon="-3.9223810">
        <ele>674.6</ele>
        <time>2021-05-08T12:26:00Z</time>
      </trkpt>
      <trkpt lat="40.4136430" lon="-3.9222680">
        <ele>674.9</ele>
        <time>2021-05-08T12:26:02Z</time>
      </trkpt>
      <trkpt lat="40.4136780" lon="-3.9222100">
        <ele>675.1</ele>
        <time>2021-05-08T12:26:03Z</time>
      </trkpt>
      <trkpt lat="40.4137110" lon="-3.9221550">
        <ele>675.3</ele>
        <time>2021-05-08T12:26:04Z</time>
      </trkpt>
      <trkpt lat="40.4137430" lon="-3.9221050">
        <ele>675.5</ele>
        <time>2021-05-08T12:26:05Z</time>
      </trkpt>
      <trkpt lat="40.4138080" lon="-3.9220080">
        <ele>675.8</ele>
        <time>2021-05-08T12:26:07Z</time>
      </trkpt>
      <trkpt lat="40.4138390" lon="-3.9219610">
        <ele>676.0</ele>
        <time>2021-05-08T12:26:08Z</time>
      </trkpt>
      <trkpt lat="40.4138970" lon="-3.9218770">
        <ele>676.3</ele>
        <time>2021-05-08T12:26:10Z</time>
      </trkpt>
      <trkpt lat="40.4139320" lon="-3.9218260">
        <ele>676.5</ele>
        <time>2021-05-08T12:26:11Z</time>
      </trkpt>
      <trkpt lat="40.4139490" lon="-3.9218000">
        <ele>676.6</ele>
        <time>2021-05-08T12:26:12Z</time>
      </trkpt>
      <trkpt lat="40.4139740" lon="-3.9217620">
        <ele>676.7</ele>
        <time>2021-05-08T12:26:13Z</time>
      </trkpt>
      <trkpt lat="40.4140350" lon="-3.9216730">
        <ele>677.0</ele>
        <time>2021-05-08T12:26:15Z</time>
      </trkpt>
      <trkpt lat="40.4140940" lon="-3.9216100">
        <ele>677.2</ele>
        <time>2021-05-08T12:26:17Z</time>
      </trkpt>
      <trkpt lat="40.4141280" lon="-3.9216050">
        <ele>677.2</ele>
        <time>2021-05-08T12:26:18Z</time>
      </trkpt>
      <trkpt lat="40.4141720" lon="-3.9215580">
        <ele>677.3</ele>
        <time>2021-05-08T12:26:19Z</time>
      </trkpt>
      <trkpt lat="40.4142060" lon="-3.9214770">
        <ele>677.4</ele>
        <time>2021-05-08T12:26:21Z</time>
      </trkpt>
      <trkpt lat="40.4142320" lon="-3.9213990">
        <ele>677.5</ele>
        <time>2021-05-08T12:26:22Z</time>
      </trkpt>
      <trkpt lat="40.4142650" lon="-3.9213410">
        <ele>677.5</ele>
        <time>2021-05-08T12:26:24Z</time>
      </trkpt>
      <trkpt lat="40.4143270" lon="-3.9212540">
        <ele>677.7</ele>
        <time>2021-05-08T12:26:25Z</time>
      </trkpt>
      <trkpt lat="40.4143890" lon="-3.9211630">
        <ele>677.9</ele>
        <time>2021-05-08T12:26:27Z</time>
      </trkpt>
      <trkpt lat="40.4144210" lon="-3.9211180">
        <ele>678.0</ele>
        <time>2021-05-08T12:26:28Z</time>
      </trkpt>
      <trkpt lat="40.4144500" lon="-3.9210770">
        <ele>678.1</ele>
        <time>2021-05-08T12:26:30Z</time>
      </trkpt>
      <trkpt lat="40.4144720" lon="-3.9210470">
        <ele>678.2</ele>
        <time>2021-05-08T12:26:31Z</time>
      </trkpt>
      <trkpt lat="40.4145160" lon="-3.9209900">
        <ele>678.5</ele>
        <time>2021-05-08T12:26:32Z</time>
      </trkpt>
      <trkpt lat="40.4145610" lon="-3.9209250">
        <ele>678.7</ele>
        <time>2021-05-08T12:26:34Z</time>
      </trkpt>
      <trkpt lat="40.4145850" lon="-3.9208860">
        <ele>678.9</ele>
        <time>2021-05-08T12:26:35Z</time>
      </trkpt>
      <trkpt lat="40.4146260" lon="-3.9208290">
        <ele>679.1</ele>
        <time>2021-05-08T12:26:36Z</time>
      </trkpt>
      <trkpt lat="40.4146570" lon="-3.9207840">
        <ele>679.3</ele>
        <time>2021-05-08T12:26:38Z</time>
      </trkpt>
      <trkpt lat="40.4146900" lon="-3.9207350">
        <ele>679.5</ele>
        <time>2021-05-08T12:26:39Z</time>
      </trkpt>
      <trkpt lat="40.4147230" lon="-3.9206830">
        <ele>679.7</ele>
        <time>2021-05-08T12:26:41Z</time>
      </trkpt>
      <trkpt lat="40.4147460" lon="-3.9206490">
        <ele>679.8</ele>
        <time>2021-05-08T12:26:42Z</time>
      </trkpt>
      <trkpt lat="40.4147720" lon="-3.9206090">
        <ele>679.9</ele>
        <time>2021-05-08T12:26:43Z</time>
      </trkpt>
      <trkpt lat="40.4148010" lon="-3.9205710">
        <ele>680.0</ele>
        <time>2021-05-08T12:26:44Z</time>
      </trkpt>
      <trkpt lat="40.4148270" lon="-3.9205290">
        <ele>680.2</ele>
        <time>2021-05-08T12:26:45Z</time>
      </trkpt>
      <trkpt lat="40.4148520" lon="-3.9204880">
        <ele>680.3</ele>
        <time>2021-05-08T12:26:46Z</time>
      </trkpt>
      <trkpt lat="40.4148850" lon="-3.9204370">
        <ele>680.4</ele>
        <time>2021-05-08T12:26:48Z</time>
      </trkpt>
      <trkpt lat="40.4149090" lon="-3.9204030">
        <ele>680.6</ele>
        <time>2021-05-08T12:26:49Z</time>
      </trkpt>
      <trkpt lat="40.4149330" lon="-3.9203600">
        <ele>680.7</ele>
        <time>2021-05-08T12:26:50Z</time>
      </trkpt>
      <trkpt lat="40.4149560" lon="-3.9203100">
        <ele>680.8</ele>
        <time>2021-05-08T12:26:51Z</time>
      </trkpt>
      <trkpt lat="40.4149800" lon="-3.9202590">
        <ele>681.0</ele>
        <time>2021-05-08T12:26:52Z</time>
      </trkpt>
      <trkpt lat="40.4150070" lon="-3.9202040">
        <ele>681.1</ele>
        <time>2021-05-08T12:26:54Z</time>
      </trkpt>
      <trkpt lat="40.4150270" lon="-3.9201640">
        <ele>681.2</ele>
        <time>2021-05-08T12:26:55Z</time>
      </trkpt>
      <trkpt lat="40.4150460" lon="-3.9201250">
        <ele>681.3</ele>
        <time>2021-05-08T12:26:56Z</time>
      </trkpt>
      <trkpt lat="40.4150770" lon="-3.9200580">
        <ele>681.4</ele>
        <time>2021-05-08T12:26:58Z</time>
      </trkpt>
      <trkpt lat="40.4150990" lon="-3.9200060">
        <ele>681.4</ele>
        <time>2021-05-08T12:26:59Z</time>
      </trkpt>
      <trkpt lat="40.4151170" lon="-3.9199620">
        <ele>681.5</ele>
        <time>2021-05-08T12:27:00Z</time>
      </trkpt>
      <trkpt lat="40.4151460" lon="-3.9198800">
        <ele>681.6</ele>
        <time>2021-05-08T12:27:01Z</time>
      </trkpt>
      <trkpt lat="40.4151650" lon="-3.9198270">
        <ele>681.7</ele>
        <time>2021-05-08T12:27:03Z</time>
      </trkpt>
      <trkpt lat="40.4151790" lon="-3.9197870">
        <ele>681.8</ele>
        <time>2021-05-08T12:27:04Z</time>
      </trkpt>
      <trkpt lat="40.4152040" lon="-3.9197150">
        <ele>681.9</ele>
        <time>2021-05-08T12:27:06Z</time>
      </trkpt>
      <trkpt lat="40.4152260" lon="-3.9196550">
        <ele>681.9</ele>
        <time>2021-05-08T12:27:07Z</time>
      </trkpt>
      <trkpt lat="40.4152410" lon="-3.9196150">
        <ele>682.0</ele>
        <time>2021-05-08T12:27:08Z</time>
      </trkpt>
      <trkpt lat="40.4152540" lon="-3.9195700">
        <ele>682.1</ele>
        <time>2021-05-08T12:27:09Z</time>
      </trkpt>
      <trkpt lat="40.4152720" lon="-3.9194940">
        <ele>682.2</ele>
        <time>2021-05-08T12:27:11Z</time>
      </trkpt>
      <trkpt lat="40.4152810" lon="-3.9194520">
        <ele>682.2</ele>
        <time>2021-05-08T12:27:12Z</time>
      </trkpt>
      <trkpt lat="40.4152920" lon="-3.9194080">
        <ele>682.3</ele>
        <time>2021-05-08T12:27:13Z</time>
      </trkpt>
      <trkpt lat="40.4153030" lon="-3.9193680">
        <ele>682.3</ele>
        <time>2021-05-08T12:27:14Z</time>
      </trkpt>
      <trkpt lat="40.4153160" lon="-3.9193020">
        <ele>682.4</ele>
        <time>2021-05-08T12:27:16Z</time>
      </trkpt>
      <trkpt lat="40.4153250" lon="-3.9192610">
        <ele>682.5</ele>
        <time>2021-05-08T12:27:17Z</time>
      </trkpt>
      <trkpt lat="40.4153350" lon="-3.9192150">
        <ele>682.5</ele>
        <time>2021-05-08T12:27:18Z</time>
      </trkpt>
      <trkpt lat="40.4153440" lon="-3.9191520">
        <ele>682.6</ele>
        <time>2021-05-08T12:27:20Z</time>
      </trkpt>
      <trkpt lat="40.4153330" lon="-3.9191240">
        <ele>682.6</ele>
        <time>2021-05-08T12:27:21Z</time>
      </trkpt>
      <trkpt lat="40.4153100" lon="-3.9190870">
        <ele>682.6</ele>
        <time>2021-05-08T12:27:23Z</time>
      </trkpt>
      <trkpt lat="40.4152980" lon="-3.9191190">
        <ele>682.6</ele>
        <time>2021-05-08T12:27:54Z</time>
      </trkpt>
      <trkpt lat="40.4152980" lon="-3.9191210">
        <ele>682.6</ele>
        <time>2021-05-08T12:27:56Z</time>
      </trkpt>
      <trkpt lat="40.4152920" lon="-3.9191000">
        <ele>682.6</ele>
        <time>2021-05-08T12:27:58Z</time>
      </trkpt>
      <trkpt lat="40.4152840" lon="-3.9190800">
        <ele>682.6</ele>
        <time>2021-05-08T12:27:59Z</time>
      </trkpt>
      <trkpt lat="40.4152690" lon="-3.9190470">
        <ele>682.6</ele>
        <time>2021-05-08T12:28:01Z</time>
      </trkpt>
      <trkpt lat="40.4152520" lon="-3.9190170">
        <ele>682.6</ele>
        <time>2021-05-08T12:28:02Z</time>
      </trkpt>
      <trkpt lat="40.4152310" lon="-3.9189480">
        <ele>682.7</ele>
        <time>2021-05-08T12:28:04Z</time>
      </trkpt>
      <trkpt lat="40.4152140" lon="-3.9188830">
        <ele>682.8</ele>
        <time>2021-05-08T12:28:05Z</time>
      </trkpt>
      <trkpt lat="40.4152020" lon="-3.9188210">
        <ele>682.8</ele>
        <time>2021-05-08T12:28:06Z</time>
      </trkpt>
      <trkpt lat="40.4152000" lon="-3.9187360">
        <ele>682.9</ele>
        <time>2021-05-08T12:28:08Z</time>
      </trkpt>
      <trkpt lat="40.4152060" lon="-3.9186900">
        <ele>683.0</ele>
        <time>2021-05-08T12:28:09Z</time>
      </trkpt>
      <trkpt lat="40.4152140" lon="-3.9186440">
        <ele>683.1</ele>
        <time>2021-05-08T12:28:10Z</time>
      </trkpt>
      <trkpt lat="40.4152250" lon="-3.9185970">
        <ele>683.2</ele>
        <time>2021-05-08T12:28:11Z</time>
      </trkpt>
      <trkpt lat="40.4152430" lon="-3.9185490">
        <ele>683.3</ele>
        <time>2021-05-08T12:28:12Z</time>
      </trkpt>
      <trkpt lat="40.4152690" lon="-3.9185000">
        <ele>683.4</ele>
        <time>2021-05-08T12:28:14Z</time>
      </trkpt>
      <trkpt lat="40.4152960" lon="-3.9184540">
        <ele>683.6</ele>
        <time>2021-05-08T12:28:15Z</time>
      </trkpt>
      <trkpt lat="40.4153450" lon="-3.9183930">
        <ele>683.7</ele>
        <time>2021-05-08T12:28:17Z</time>
      </trkpt>
      <trkpt lat="40.4153940" lon="-3.9183560">
        <ele>683.9</ele>
        <time>2021-05-08T12:28:19Z</time>
      </trkpt>
      <trkpt lat="40.4154510" lon="-3.9183190">
        <ele>684.0</ele>
        <time>2021-05-08T12:28:20Z</time>
      </trkpt>
      <trkpt lat="40.4154910" lon="-3.9183040">
        <ele>684.2</ele>
        <time>2021-05-08T12:28:22Z</time>
      </trkpt>
      <trkpt lat="40.4155230" lon="-3.9182960">
        <ele>684.2</ele>
        <time>2021-05-08T12:28:23Z</time>
      </trkpt>
      <trkpt lat="40.4155730" lon="-3.9182910">
        <ele>684.3</ele>
        <time>2021-05-08T12:28:24Z</time>
      </trkpt>
      <trkpt lat="40.4156180" lon="-3.9182780">
        <ele>684.4</ele>
        <time>2021-05-08T12:28:26Z</time>
      </trkpt>
      <trkpt lat="40.4156520" lon="-3.9182530">
        <ele>684.5</ele>
        <time>2021-05-08T12:28:27Z</time>
      </trkpt>
      <trkpt lat="40.4156920" lon="-3.9182230">
        <ele>684.6</ele>
        <time>2021-05-08T12:28:28Z</time>
      </trkpt>
      <trkpt lat="40.4157320" lon="-3.9181850">
        <ele>684.7</ele>
        <time>2021-05-08T12:28:29Z</time>
      </trkpt>
      <trkpt lat="40.4157780" lon="-3.9181330">
        <ele>684.8</ele>
        <time>2021-05-08T12:28:31Z</time>
      </trkpt>
      <trkpt lat="40.4158280" lon="-3.9180640">
        <ele>685.0</ele>
        <time>2021-05-08T12:28:33Z</time>
      </trkpt>
      <trkpt lat="40.4158560" lon="-3.9180200">
        <ele>685.1</ele>
        <time>2021-05-08T12:28:34Z</time>
      </trkpt>
      <trkpt lat="40.4159060" lon="-3.9179500">
        <ele>685.2</ele>
        <time>2021-05-08T12:28:36Z</time>
      </trkpt>
      <trkpt lat="40.4159440" lon="-3.9178980">
        <ele>685.4</ele>
        <time>2021-05-08T12:28:37Z</time>
      </trkpt>
      <trkpt lat="40.4159740" lon="-3.9178550">
        <ele>685.5</ele>
        <time>2021-05-08T12:28:38Z</time>
      </trkpt>
      <trkpt lat="40.4160120" lon="-3.9178000">
        <ele>685.6</ele>
        <time>2021-05-08T12:28:39Z</time>
      </trkpt>
      <trkpt lat="40.4160550" lon="-3.9177430">
        <ele>685.8</ele>
        <time>2021-05-08T12:28:41Z</time>
      </trkpt>
      <trkpt lat="40.4160920" lon="-3.9176950">
        <ele>685.9</ele>
        <time>2021-05-08T12:28:42Z</time>
      </trkpt>
      <trkpt lat="40.4161200" lon="-3.9176550">
        <ele>686.1</ele>
        <time>2021-05-08T12:28:43Z</time>
      </trkpt>
      <trkpt lat="40.4161750" lon="-3.9175880">
        <ele>686.3</ele>
        <time>2021-05-08T12:28:45Z</time>
      </trkpt>
      <trkpt lat="40.4162160" lon="-3.9175430">
        <ele>686.4</ele>
        <time>2021-05-08T12:28:46Z</time>
      </trkpt>
      <trkpt lat="40.4162390" lon="-3.9175130">
        <ele>686.5</ele>
        <time>2021-05-08T12:28:47Z</time>
      </trkpt>
      <trkpt lat="40.4162660" lon="-3.9174740">
        <ele>686.6</ele>
        <time>2021-05-08T12:28:49Z</time>
      </trkpt>
      <trkpt lat="40.4162940" lon="-3.9174430">
        <ele>686.7</ele>
        <time>2021-05-08T12:28:50Z</time>
      </trkpt>
      <trkpt lat="40.4163260" lon="-3.9174100">
        <ele>686.8</ele>
        <time>2021-05-08T12:28:51Z</time>
      </trkpt>
      <trkpt lat="40.4163600" lon="-3.9173760">
        <ele>687.0</ele>
        <time>2021-05-08T12:28:52Z</time>
      </trkpt>
      <trkpt lat="40.4164180" lon="-3.9173190">
        <ele>687.2</ele>
        <time>2021-05-08T12:28:54Z</time>
      </trkpt>
      <trkpt lat="40.4164590" lon="-3.9172780">
        <ele>687.4</ele>
        <time>2021-05-08T12:28:55Z</time>
      </trkpt>
      <trkpt lat="40.4164970" lon="-3.9172380">
        <ele>687.6</ele>
        <time>2021-05-08T12:28:56Z</time>
      </trkpt>
      <trkpt lat="40.4165340" lon="-3.9171960">
        <ele>687.8</ele>
        <time>2021-05-08T12:28:58Z</time>
      </trkpt>
      <trkpt lat="40.4165590" lon="-3.9171690">
        <ele>687.8</ele>
        <time>2021-05-08T12:28:59Z</time>
      </trkpt>
      <trkpt lat="40.4165950" lon="-3.9171350">
        <ele>687.9</ele>
        <time>2021-05-08T12:29:00Z</time>
      </trkpt>
      <trkpt lat="40.4166430" lon="-3.9170920">
        <ele>688.1</ele>
        <time>2021-05-08T12:29:01Z</time>
      </trkpt>
      <trkpt lat="40.4166840" lon="-3.9170480">
        <ele>688.2</ele>
        <time>2021-05-08T12:29:03Z</time>
      </trkpt>
      <trkpt lat="40.4167350" lon="-3.9169990">
        <ele>688.4</ele>
        <time>2021-05-08T12:29:04Z</time>
      </trkpt>
      <trkpt lat="40.4167730" lon="-3.9169640">
        <ele>688.6</ele>
        <time>2021-05-08T12:29:06Z</time>
      </trkpt>
      <trkpt lat="40.4168090" lon="-3.9169310">
        <ele>688.7</ele>
        <time>2021-05-08T12:29:07Z</time>
      </trkpt>
      <trkpt lat="40.4168400" lon="-3.9169010">
        <ele>688.9</ele>
        <time>2021-05-08T12:29:08Z</time>
      </trkpt>
      <trkpt lat="40.4168940" lon="-3.9168480">
        <ele>689.2</ele>
        <time>2021-05-08T12:29:10Z</time>
      </trkpt>
      <trkpt lat="40.4169490" lon="-3.9167900">
        <ele>689.5</ele>
        <time>2021-05-08T12:29:12Z</time>
      </trkpt>
      <trkpt lat="40.4169940" lon="-3.9167430">
        <ele>689.7</ele>
        <time>2021-05-08T12:29:14Z</time>
      </trkpt>
      <trkpt lat="40.4170230" lon="-3.9167110">
        <ele>689.9</ele>
        <time>2021-05-08T12:29:15Z</time>
      </trkpt>
      <trkpt lat="40.4170680" lon="-3.9166520">
        <ele>690.2</ele>
        <time>2021-05-08T12:29:17Z</time>
      </trkpt>
      <trkpt lat="40.4170930" lon="-3.9166210">
        <ele>690.4</ele>
        <time>2021-05-08T12:29:18Z</time>
      </trkpt>
      <trkpt lat="40.4171370" lon="-3.9165720">
        <ele>690.7</ele>
        <time>2021-05-08T12:29:20Z</time>
      </trkpt>
      <trkpt lat="40.4171660" lon="-3.9165340">
        <ele>690.9</ele>
        <time>2021-05-08T12:29:21Z</time>
      </trkpt>
      <trkpt lat="40.4172130" lon="-3.9164700">
        <ele>691.1</ele>
        <time>2021-05-08T12:29:23Z</time>
      </trkpt>
      <trkpt lat="40.4172350" lon="-3.9164340">
        <ele>691.3</ele>
        <time>2021-05-08T12:29:24Z</time>
      </trkpt>
      <trkpt lat="40.4172580" lon="-3.9164010">
        <ele>691.4</ele>
        <time>2021-05-08T12:29:25Z</time>
      </trkpt>
      <trkpt lat="40.4172910" lon="-3.9163550">
        <ele>691.5</ele>
        <time>2021-05-08T12:29:26Z</time>
      </trkpt>
      <trkpt lat="40.4173250" lon="-3.9163040">
        <ele>691.6</ele>
        <time>2021-05-08T12:29:28Z</time>
      </trkpt>
      <trkpt lat="40.4173570" lon="-3.9162590">
        <ele>691.7</ele>
        <time>2021-05-08T12:29:29Z</time>
      </trkpt>
      <trkpt lat="40.4173820" lon="-3.9162240">
        <ele>691.8</ele>
        <time>2021-05-08T12:29:30Z</time>
      </trkpt>
      <trkpt lat="40.4174310" lon="-3.9161450">
        <ele>691.8</ele>
        <time>2021-05-08T12:29:32Z</time>
      </trkpt>
      <trkpt lat="40.4174820" lon="-3.9160570">
        <ele>692.0</ele>
        <time>2021-05-08T12:29:34Z</time>
      </trkpt>
      <trkpt lat="40.4175260" lon="-3.9159750">
        <ele>692.1</ele>
        <time>2021-05-08T12:29:36Z</time>
      </trkpt>
      <trkpt lat="40.4175550" lon="-3.9159210">
        <ele>692.2</ele>
        <time>2021-05-08T12:29:37Z</time>
      </trkpt>
      <trkpt lat="40.4175900" lon="-3.9158430">
        <ele>692.4</ele>
        <time>2021-05-08T12:29:38Z</time>
      </trkpt>
      <trkpt lat="40.4176150" lon="-3.9157750">
        <ele>692.7</ele>
        <time>2021-05-08T12:29:40Z</time>
      </trkpt>
      <trkpt lat="40.4176400" lon="-3.9157040">
        <ele>693.0</ele>
        <time>2021-05-08T12:29:41Z</time>
      </trkpt>
      <trkpt lat="40.4176650" lon="-3.9156350">
        <ele>693.3</ele>
        <time>2021-05-08T12:29:43Z</time>
      </trkpt>
      <trkpt lat="40.4176850" lon="-3.9155600">
        <ele>693.6</ele>
        <time>2021-05-08T12:29:44Z</time>
      </trkpt>
      <trkpt lat="40.4177050" lon="-3.9154920">
        <ele>693.9</ele>
        <time>2021-05-08T12:29:46Z</time>
      </trkpt>
      <trkpt lat="40.4177300" lon="-3.9153920">
        <ele>694.3</ele>
        <time>2021-05-08T12:29:48Z</time>
      </trkpt>
      <trkpt lat="40.4177450" lon="-3.9153200">
        <ele>694.5</ele>
        <time>2021-05-08T12:29:49Z</time>
      </trkpt>
      <trkpt lat="40.4177570" lon="-3.9152720">
        <ele>694.7</ele>
        <time>2021-05-08T12:29:50Z</time>
      </trkpt>
      <trkpt lat="40.4177740" lon="-3.9152050">
        <ele>694.8</ele>
        <time>2021-05-08T12:29:52Z</time>
      </trkpt>
      <trkpt lat="40.4177920" lon="-3.9151300">
        <ele>695.0</ele>
        <time>2021-05-08T12:29:53Z</time>
      </trkpt>
      <trkpt lat="40.4178050" lon="-3.9150690">
        <ele>695.1</ele>
        <time>2021-05-08T12:29:55Z</time>
      </trkpt>
      <trkpt lat="40.4178200" lon="-3.9149940">
        <ele>695.2</ele>
        <time>2021-05-08T12:29:56Z</time>
      </trkpt>
      <trkpt lat="40.4178320" lon="-3.9149190">
        <ele>695.2</ele>
        <time>2021-05-08T12:29:58Z</time>
      </trkpt>
      <trkpt lat="40.4178430" lon="-3.9148360">
        <ele>695.3</ele>
        <time>2021-05-08T12:29:59Z</time>
      </trkpt>
      <trkpt lat="40.4178480" lon="-3.9147730">
        <ele>695.3</ele>
        <time>2021-05-08T12:30:01Z</time>
      </trkpt>
      <trkpt lat="40.4178540" lon="-3.9147090">
        <ele>695.3</ele>
        <time>2021-05-08T12:30:02Z</time>
      </trkpt>
      <trkpt lat="40.4178590" lon="-3.9146380">
        <ele>695.4</ele>
        <time>2021-05-08T12:30:03Z</time>
      </trkpt>
      <trkpt lat="40.4178590" lon="-3.9145470">
        <ele>695.4</ele>
        <time>2021-05-08T12:30:05Z</time>
      </trkpt>
      <trkpt lat="40.4178590" lon="-3.9144760">
        <ele>695.5</ele>
        <time>2021-05-08T12:30:06Z</time>
      </trkpt>
      <trkpt lat="40.4178570" lon="-3.9143960">
        <ele>695.5</ele>
        <time>2021-05-08T12:30:07Z</time>
      </trkpt>
      <trkpt lat="40.4178520" lon="-3.9143160">
        <ele>695.5</ele>
        <time>2021-05-08T12:30:09Z</time>
      </trkpt>
      <trkpt lat="40.4178480" lon="-3.9142560">
        <ele>695.6</ele>
        <time>2021-05-08T12:30:10Z</time>
      </trkpt>
      <trkpt lat="40.4178450" lon="-3.9142050">
        <ele>695.6</ele>
        <time>2021-05-08T12:30:11Z</time>
      </trkpt>
      <trkpt lat="40.4178360" lon="-3.9141610">
        <ele>695.6</ele>
        <time>2021-05-08T12:30:12Z</time>
      </trkpt>
      <trkpt lat="40.4178230" lon="-3.9141060">
        <ele>695.7</ele>
        <time>2021-05-08T12:30:13Z</time>
      </trkpt>
      <trkpt lat="40.4178120" lon="-3.9140470">
        <ele>695.7</ele>
        <time>2021-05-08T12:30:15Z</time>
      </trkpt>
      <trkpt lat="40.4178050" lon="-3.9140150">
        <ele>695.7</ele>
        <time>2021-05-08T12:30:16Z</time>
      </trkpt>
      <trkpt lat="40.4177810" lon="-3.9139570">
        <ele>695.7</ele>
        <time>2021-05-08T12:30:18Z</time>
      </trkpt>
      <trkpt lat="40.4177590" lon="-3.9139030">
        <ele>695.7</ele>
        <time>2021-05-08T12:30:20Z</time>
      </trkpt>
      <trkpt lat="40.4177360" lon="-3.9138510">
        <ele>695.7</ele>
        <time>2021-05-08T12:30:22Z</time>
      </trkpt>
      <trkpt lat="40.4177070" lon="-3.9138050">
        <ele>695.7</ele>
        <time>2021-05-08T12:30:24Z</time>
      </trkpt>
      <trkpt lat="40.4176830" lon="-3.9137600">
        <ele>695.7</ele>
        <time>2021-05-08T12:30:26Z</time>
      </trkpt>
      <trkpt lat="40.4176450" lon="-3.9137250">
        <ele>695.7</ele>
        <time>2021-05-08T12:30:28Z</time>
      </trkpt>
      <trkpt lat="40.4176320" lon="-3.9137200">
        <ele>695.7</ele>
        <time>2021-05-08T12:30:30Z</time>
      </trkpt>
      <trkpt lat="40.4176200" lon="-3.9137140">
        <ele>695.7</ele>
        <time>2021-05-08T12:30:31Z</time>
      </trkpt>
      <trkpt lat="40.4175900" lon="-3.9136910">
        <ele>695.7</ele>
        <time>2021-05-08T12:30:32Z</time>
      </trkpt>
      <trkpt lat="40.4175350" lon="-3.9136620">
        <ele>695.6</ele>
        <time>2021-05-08T12:30:34Z</time>
      </trkpt>
      <trkpt lat="40.4174910" lon="-3.9136340">
        <ele>695.6</ele>
        <time>2021-05-08T12:30:35Z</time>
      </trkpt>
      <trkpt lat="40.4174550" lon="-3.9136100">
        <ele>695.6</ele>
        <time>2021-05-08T12:30:36Z</time>
      </trkpt>
      <trkpt lat="40.4173940" lon="-3.9135700">
        <ele>695.5</ele>
        <time>2021-05-08T12:30:38Z</time>
      </trkpt>
      <trkpt lat="40.4173680" lon="-3.9135360">
        <ele>695.5</ele>
        <time>2021-05-08T12:30:39Z</time>
      </trkpt>
      <trkpt lat="40.4173360" lon="-3.9134690">
        <ele>695.5</ele>
        <time>2021-05-08T12:30:40Z</time>
      </trkpt>
      <trkpt lat="40.4173130" lon="-3.9134020">
        <ele>695.4</ele>
        <time>2021-05-08T12:30:42Z</time>
      </trkpt>
      <trkpt lat="40.4173010" lon="-3.9133570">
        <ele>695.4</ele>
        <time>2021-05-08T12:30:43Z</time>
      </trkpt>
      <trkpt lat="40.4172890" lon="-3.9132960">
        <ele>695.2</ele>
        <time>2021-05-08T12:30:44Z</time>
      </trkpt>
      <trkpt lat="40.4172820" lon="-3.9132330">
        <ele>695.2</ele>
        <time>2021-05-08T12:30:46Z</time>
      </trkpt>
      <trkpt lat="40.4172860" lon="-3.9131790">
        <ele>695.2</ele>
        <time>2021-05-08T12:30:47Z</time>
      </trkpt>
      <trkpt lat="40.4172940" lon="-3.9131270">
        <ele>695.1</ele>
        <time>2021-05-08T12:30:48Z</time>
      </trkpt>
      <trkpt lat="40.4173080" lon="-3.9130470">
        <ele>695.1</ele>
        <time>2021-05-08T12:30:49Z</time>
      </trkpt>
      <trkpt lat="40.4173300" lon="-3.9129930">
        <ele>695.1</ele>
        <time>2021-05-08T12:30:51Z</time>
      </trkpt>
      <trkpt lat="40.4173600" lon="-3.9129280">
        <ele>695.1</ele>
        <time>2021-05-08T12:30:52Z</time>
      </trkpt>
      <trkpt lat="40.4173870" lon="-3.9128840">
        <ele>695.1</ele>
        <time>2021-05-08T12:30:53Z</time>
      </trkpt>
      <trkpt lat="40.4174320" lon="-3.9128290">
        <ele>695.0</ele>
        <time>2021-05-08T12:30:54Z</time>
      </trkpt>
      <trkpt lat="40.4174730" lon="-3.9127910">
        <ele>695.0</ele>
        <time>2021-05-08T12:30:55Z</time>
      </trkpt>
      <trkpt lat="40.4175090" lon="-3.9127450">
        <ele>695.0</ele>
        <time>2021-05-08T12:30:57Z</time>
      </trkpt>
      <trkpt lat="40.4175400" lon="-3.9126920">
        <ele>694.9</ele>
        <time>2021-05-08T12:30:58Z</time>
      </trkpt>
      <trkpt lat="40.4175620" lon="-3.9126360">
        <ele>694.8</ele>
        <time>2021-05-08T12:30:59Z</time>
      </trkpt>
      <trkpt lat="40.4175840" lon="-3.9125810">
        <ele>694.8</ele>
        <time>2021-05-08T12:31:01Z</time>
      </trkpt>
      <trkpt lat="40.4176000" lon="-3.9125260">
        <ele>694.7</ele>
        <time>2021-05-08T12:31:02Z</time>
      </trkpt>
      <trkpt lat="40.4176050" lon="-3.9124710">
        <ele>694.6</ele>
        <time>2021-05-08T12:31:03Z</time>
      </trkpt>
      <trkpt lat="40.4176080" lon="-3.9124180">
        <ele>694.6</ele>
        <time>2021-05-08T12:31:04Z</time>
      </trkpt>
      <trkpt lat="40.4176060" lon="-3.9123790">
        <ele>694.5</ele>
        <time>2021-05-08T12:31:05Z</time>
      </trkpt>
      <trkpt lat="40.4175940" lon="-3.9122650">
        <ele>694.4</ele>
        <time>2021-05-08T12:31:07Z</time>
      </trkpt>
      <trkpt lat="40.4175860" lon="-3.9121960">
        <ele>694.3</ele>
        <time>2021-05-08T12:31:08Z</time>
      </trkpt>
      <trkpt lat="40.4175770" lon="-3.9121250">
        <ele>694.2</ele>
        <time>2021-05-08T12:31:09Z</time>
      </trkpt>
      <trkpt lat="40.4175550" lon="-3.9119910">
        <ele>693.9</ele>
        <time>2021-05-08T12:31:11Z</time>
      </trkpt>
      <trkpt lat="40.4175440" lon="-3.9119190">
        <ele>693.6</ele>
        <time>2021-05-08T12:31:12Z</time>
      </trkpt>
      <trkpt lat="40.4175230" lon="-3.9117750">
        <ele>693.1</ele>
        <time>2021-05-08T12:31:14Z</time>
      </trkpt>
      <trkpt lat="40.4175150" lon="-3.9117000">
        <ele>692.9</ele>
        <time>2021-05-08T12:31:15Z</time>
      </trkpt>
      <trkpt lat="40.4175070" lon="-3.9116230">
        <ele>692.6</ele>
        <time>2021-05-08T12:31:16Z</time>
      </trkpt>
      <trkpt lat="40.4174770" lon="-3.9114620">
        <ele>692.0</ele>
        <time>2021-05-08T12:31:18Z</time>
      </trkpt>
      <trkpt lat="40.4174590" lon="-3.9113830">
        <ele>691.7</ele>
        <time>2021-05-08T12:31:19Z</time>
      </trkpt>
      <trkpt lat="40.4174160" lon="-3.9112160">
        <ele>691.0</ele>
        <time>2021-05-08T12:31:21Z</time>
      </trkpt>
      <trkpt lat="40.4173890" lon="-3.9111290">
        <ele>690.6</ele>
        <time>2021-05-08T12:31:22Z</time>
      </trkpt>
      <trkpt lat="40.4173570" lon="-3.9110400">
        <ele>690.2</ele>
        <time>2021-05-08T12:31:23Z</time>
      </trkpt>
      <trkpt lat="40.4173200" lon="-3.9109470">
        <ele>689.7</ele>
        <time>2021-05-08T12:31:24Z</time>
      </trkpt>
      <trkpt lat="40.4172330" lon="-3.9107570">
        <ele>688.8</ele>
        <time>2021-05-08T12:31:26Z</time>
      </trkpt>
      <trkpt lat="40.4171310" lon="-3.9105660">
        <ele>687.7</ele>
        <time>2021-05-08T12:31:28Z</time>
      </trkpt>
      <trkpt lat="40.4170750" lon="-3.9104800">
        <ele>687.2</ele>
        <time>2021-05-08T12:31:29Z</time>
      </trkpt>
      <trkpt lat="40.4170110" lon="-3.9103910">
        <ele>686.7</ele>
        <time>2021-05-08T12:31:30Z</time>
      </trkpt>
      <trkpt lat="40.4169040" lon="-3.9102520">
        <ele>685.7</ele>
        <time>2021-05-08T12:31:32Z</time>
      </trkpt>
      <trkpt lat="40.4167720" lon="-3.9101060">
        <ele>684.6</ele>
        <time>2021-05-08T12:31:34Z</time>
      </trkpt>
      <trkpt lat="40.4166980" lon="-3.9100360">
        <ele>683.9</ele>
        <time>2021-05-08T12:31:35Z</time>
      </trkpt>
      <trkpt lat="40.4165460" lon="-3.9099060">
        <ele>682.6</ele>
        <time>2021-05-08T12:31:37Z</time>
      </trkpt>
      <trkpt lat="40.4163900" lon="-3.9097690">
        <ele>681.1</ele>
        <time>2021-05-08T12:31:39Z</time>
      </trkpt>
      <trkpt lat="40.4163100" lon="-3.9096990">
        <ele>680.3</ele>
        <time>2021-05-08T12:31:40Z</time>
      </trkpt>
      <trkpt lat="40.4161480" lon="-3.9095520">
        <ele>678.5</ele>
        <time>2021-05-08T12:31:42Z</time>
      </trkpt>
      <trkpt lat="40.4160640" lon="-3.9094760">
        <ele>677.5</ele>
        <time>2021-05-08T12:31:43Z</time>
      </trkpt>
      <trkpt lat="40.4159020" lon="-3.9093070">
        <ele>675.3</ele>
        <time>2021-05-08T12:31:45Z</time>
      </trkpt>
      <trkpt lat="40.4158240" lon="-3.9092110">
        <ele>674.3</ele>
        <time>2021-05-08T12:31:46Z</time>
      </trkpt>
      <trkpt lat="40.4156800" lon="-3.9090000">
        <ele>672.1</ele>
        <time>2021-05-08T12:31:48Z</time>
      </trkpt>
      <trkpt lat="40.4155410" lon="-3.9087330">
        <ele>669.7</ele>
        <time>2021-05-08T12:31:50Z</time>
      </trkpt>
      <trkpt lat="40.4154850" lon="-3.9086110">
        <ele>668.8</ele>
        <time>2021-05-08T12:31:51Z</time>
      </trkpt>
      <trkpt lat="40.4153750" lon="-3.9083150">
        <ele>667.7</ele>
        <time>2021-05-08T12:31:53Z</time>
      </trkpt>
      <trkpt lat="40.4153210" lon="-3.9081640">
        <ele>667.5</ele>
        <time>2021-05-08T12:31:54Z</time>
      </trkpt>
      <trkpt lat="40.4152260" lon="-3.9078660">
        <ele>667.8</ele>
        <time>2021-05-08T12:31:56Z</time>
      </trkpt>
      <trkpt lat="40.4151460" lon="-3.9075960">
        <ele>668.5</ele>
        <time>2021-05-08T12:31:58Z</time>
      </trkpt>
      <trkpt lat="40.4151100" lon="-3.9074720">
        <ele>668.9</ele>
        <time>2021-05-08T12:31:59Z</time>
      </trkpt>
      <trkpt lat="40.4150480" lon="-3.9072580">
        <ele>669.8</ele>
        <time>2021-05-08T12:32:01Z</time>
      </trkpt>
      <trkpt lat="40.4150220" lon="-3.9071640">
        <ele>670.3</ele>
        <time>2021-05-08T12:32:02Z</time>
      </trkpt>
      <trkpt lat="40.4149960" lon="-3.9070720">
        <ele>670.8</ele>
        <time>2021-05-08T12:32:03Z</time>
      </trkpt>
      <trkpt lat="40.4149670" lon="-3.9069780">
        <ele>671.3</ele>
        <time>2021-05-08T12:32:04Z</time>
      </trkpt>
      <trkpt lat="40.4149150" lon="-3.9067960">
        <ele>672.2</ele>
        <time>2021-05-08T12:32:06Z</time>
      </trkpt>
      <trkpt lat="40.4148900" lon="-3.9067110">
        <ele>672.7</ele>
        <time>2021-05-08T12:32:07Z</time>
      </trkpt>
      <trkpt lat="40.4148650" lon="-3.9066310">
        <ele>673.1</ele>
        <time>2021-05-08T12:32:08Z</time>
      </trkpt>
      <trkpt lat="40.4148360" lon="-3.9065310">
        <ele>673.5</ele>
        <time>2021-05-08T12:32:09Z</time>
      </trkpt>
      <trkpt lat="40.4148030" lon="-3.9064140">
        <ele>674.0</ele>
        <time>2021-05-08T12:32:11Z</time>
      </trkpt>
      <trkpt lat="40.4147810" lon="-3.9063460">
        <ele>674.3</ele>
        <time>2021-05-08T12:32:12Z</time>
      </trkpt>
      <trkpt lat="40.4147410" lon="-3.9062190">
        <ele>674.8</ele>
        <time>2021-05-08T12:32:14Z</time>
      </trkpt>
      <trkpt lat="40.4147230" lon="-3.9061510">
        <ele>675.1</ele>
        <time>2021-05-08T12:32:15Z</time>
      </trkpt>
      <trkpt lat="40.4146920" lon="-3.9060250">
        <ele>675.5</ele>
        <time>2021-05-08T12:32:17Z</time>
      </trkpt>
      <trkpt lat="40.4146760" lon="-3.9059650">
        <ele>675.8</ele>
        <time>2021-05-08T12:32:18Z</time>
      </trkpt>
      <trkpt lat="40.4146550" lon="-3.9059020">
        <ele>676.0</ele>
        <time>2021-05-08T12:32:19Z</time>
      </trkpt>
      <trkpt lat="40.4146140" lon="-3.9057850">
        <ele>676.6</ele>
        <time>2021-05-08T12:32:21Z</time>
      </trkpt>
      <trkpt lat="40.4145820" lon="-3.9056710">
        <ele>677.2</ele>
        <time>2021-05-08T12:32:23Z</time>
      </trkpt>
      <trkpt lat="40.4145590" lon="-3.9055950">
        <ele>677.7</ele>
        <time>2021-05-08T12:32:25Z</time>
      </trkpt>
      <trkpt lat="40.4145430" lon="-3.9055350">
        <ele>678.0</ele>
        <time>2021-05-08T12:32:26Z</time>
      </trkpt>
      <trkpt lat="40.4145190" lon="-3.9054440">
        <ele>678.6</ele>
        <time>2021-05-08T12:32:28Z</time>
      </trkpt>
      <trkpt lat="40.4145050" lon="-3.9053890">
        <ele>679.0</ele>
        <time>2021-05-08T12:32:29Z</time>
      </trkpt>
      <trkpt lat="40.4144830" lon="-3.9053120">
        <ele>679.4</ele>
        <time>2021-05-08T12:32:31Z</time>
      </trkpt>
      <trkpt lat="40.4144730" lon="-3.9052650">
        <ele>679.7</ele>
        <time>2021-05-08T12:32:32Z</time>
      </trkpt>
      <trkpt lat="40.4144510" lon="-3.9051810">
        <ele>680.3</ele>
        <time>2021-05-08T12:32:34Z</time>
      </trkpt>
      <trkpt lat="40.4144300" lon="-3.9051120">
        <ele>680.8</ele>
        <time>2021-05-08T12:32:36Z</time>
      </trkpt>
      <trkpt lat="40.4144140" lon="-3.9050610">
        <ele>681.1</ele>
        <time>2021-05-08T12:32:38Z</time>
      </trkpt>
      <trkpt lat="40.4144010" lon="-3.9050160">
        <ele>681.4</ele>
        <time>2021-05-08T12:32:39Z</time>
      </trkpt>
      <trkpt lat="40.4143800" lon="-3.9049360">
        <ele>682.0</ele>
        <time>2021-05-08T12:32:41Z</time>
      </trkpt>
      <trkpt lat="40.4143730" lon="-3.9049070">
        <ele>682.2</ele>
        <time>2021-05-08T12:32:42Z</time>
      </trkpt>
      <trkpt lat="40.4143550" lon="-3.9048340">
        <ele>682.7</ele>
        <time>2021-05-08T12:32:44Z</time>
      </trkpt>
      <trkpt lat="40.4143430" lon="-3.9047940">
        <ele>683.0</ele>
        <time>2021-05-08T12:32:45Z</time>
      </trkpt>
      <trkpt lat="40.4143180" lon="-3.9047220">
        <ele>683.5</ele>
        <time>2021-05-08T12:32:47Z</time>
      </trkpt>
      <trkpt lat="40.4143010" lon="-3.9046570">
        <ele>683.9</ele>
        <time>2021-05-08T12:32:49Z</time>
      </trkpt>
      <trkpt lat="40.4142920" lon="-3.9046310">
        <ele>684.1</ele>
        <time>2021-05-08T12:32:50Z</time>
      </trkpt>
      <trkpt lat="40.4142740" lon="-3.9045660">
        <ele>684.5</ele>
        <time>2021-05-08T12:32:52Z</time>
      </trkpt>
      <trkpt lat="40.4142660" lon="-3.9045420">
        <ele>684.7</ele>
        <time>2021-05-08T12:32:53Z</time>
      </trkpt>
      <trkpt lat="40.4142490" lon="-3.9044830">
        <ele>685.1</ele>
        <time>2021-05-08T12:32:55Z</time>
      </trkpt>
      <trkpt lat="40.4142400" lon="-3.9044540">
        <ele>685.3</ele>
        <time>2021-05-08T12:32:56Z</time>
      </trkpt>
      <trkpt lat="40.4142290" lon="-3.9044030">
        <ele>685.6</ele>
        <time>2021-05-08T12:32:58Z</time>
      </trkpt>
      <trkpt lat="40.4142200" lon="-3.9043680">
        <ele>685.9</ele>
        <time>2021-05-08T12:32:59Z</time>
      </trkpt>
      <trkpt lat="40.4142080" lon="-3.9043240">
        <ele>686.1</ele>
        <time>2021-05-08T12:33:00Z</time>
      </trkpt>
      <trkpt lat="40.4142040" lon="-3.9043060">
        <ele>686.3</ele>
        <time>2021-05-08T12:33:01Z</time>
      </trkpt>
      <trkpt lat="40.4141940" lon="-3.9042640">
        <ele>686.5</ele>
        <time>2021-05-08T12:33:02Z</time>
      </trkpt>
      <trkpt lat="40.4141800" lon="-3.9042200">
        <ele>686.8</ele>
        <time>2021-05-08T12:33:04Z</time>
      </trkpt>
      <trkpt lat="40.4141750" lon="-3.9042060">
        <ele>686.9</ele>
        <time>2021-05-08T12:33:05Z</time>
      </trkpt>
      <trkpt lat="40.4141610" lon="-3.9041590">
        <ele>687.2</ele>
        <time>2021-05-08T12:33:06Z</time>
      </trkpt>
      <trkpt lat="40.4141550" lon="-3.9041410">
        <ele>687.3</ele>
        <time>2021-05-08T12:33:07Z</time>
      </trkpt>
      <trkpt lat="40.4141410" lon="-3.9040940">
        <ele>687.6</ele>
        <time>2021-05-08T12:33:08Z</time>
      </trkpt>
      <trkpt lat="40.4141280" lon="-3.9040540">
        <ele>687.9</ele>
        <time>2021-05-08T12:33:10Z</time>
      </trkpt>
      <trkpt lat="40.4141140" lon="-3.9040000">
        <ele>688.2</ele>
        <time>2021-05-08T12:33:12Z</time>
      </trkpt>
      <trkpt lat="40.4141060" lon="-3.9039660">
        <ele>688.4</ele>
        <time>2021-05-08T12:33:13Z</time>
      </trkpt>
      <trkpt lat="40.4140950" lon="-3.9039170">
        <ele>688.7</ele>
        <time>2021-05-08T12:33:14Z</time>
      </trkpt>
      <trkpt lat="40.4140910" lon="-3.9039010">
        <ele>688.8</ele>
        <time>2021-05-08T12:33:15Z</time>
      </trkpt>
      <trkpt lat="40.4140740" lon="-3.9038430">
        <ele>689.2</ele>
        <time>2021-05-08T12:33:17Z</time>
      </trkpt>
      <trkpt lat="40.4140650" lon="-3.9038130">
        <ele>689.4</ele>
        <time>2021-05-08T12:33:18Z</time>
      </trkpt>
      <trkpt lat="40.4140470" lon="-3.9037530">
        <ele>689.7</ele>
        <time>2021-05-08T12:33:20Z</time>
      </trkpt>
      <trkpt lat="40.4140280" lon="-3.9036890">
        <ele>690.1</ele>
        <time>2021-05-08T12:33:22Z</time>
      </trkpt>
      <trkpt lat="40.4140200" lon="-3.9036590">
        <ele>690.3</ele>
        <time>2021-05-08T12:33:23Z</time>
      </trkpt>
      <trkpt lat="40.4140010" lon="-3.9035950">
        <ele>690.7</ele>
        <time>2021-05-08T12:33:25Z</time>
      </trkpt>
      <trkpt lat="40.4139940" lon="-3.9035660">
        <ele>690.9</ele>
        <time>2021-05-08T12:33:26Z</time>
      </trkpt>
      <trkpt lat="40.4139790" lon="-3.9035120">
        <ele>691.2</ele>
        <time>2021-05-08T12:33:28Z</time>
      </trkpt>
      <trkpt lat="40.4139600" lon="-3.9034550">
        <ele>691.5</ele>
        <time>2021-05-08T12:33:30Z</time>
      </trkpt>
      <trkpt lat="40.4139390" lon="-3.9033970">
        <ele>691.9</ele>
        <time>2021-05-08T12:33:32Z</time>
      </trkpt>
      <trkpt lat="40.4139230" lon="-3.9033450">
        <ele>692.2</ele>
        <time>2021-05-08T12:33:33Z</time>
      </trkpt>
      <trkpt lat="40.4139160" lon="-3.9033220">
        <ele>692.3</ele>
        <time>2021-05-08T12:33:34Z</time>
      </trkpt>
      <trkpt lat="40.4139030" lon="-3.9032790">
        <ele>692.5</ele>
        <time>2021-05-08T12:33:36Z</time>
      </trkpt>
      <trkpt lat="40.4138850" lon="-3.9032340">
        <ele>692.7</ele>
        <time>2021-05-08T12:33:37Z</time>
      </trkpt>
      <trkpt lat="40.4138690" lon="-3.9031980">
        <ele>692.9</ele>
        <time>2021-05-08T12:33:39Z</time>
      </trkpt>
      <trkpt lat="40.4138510" lon="-3.9031510">
        <ele>693.1</ele>
        <time>2021-05-08T12:33:41Z</time>
      </trkpt>
      <trkpt lat="40.4138420" lon="-3.9031150">
        <ele>693.3</ele>
        <time>2021-05-08T12:33:42Z</time>
      </trkpt>
      <trkpt lat="40.4138260" lon="-3.9030620">
        <ele>693.5</ele>
        <time>2021-05-08T12:33:44Z</time>
      </trkpt>
      <trkpt lat="40.4138050" lon="-3.9030110">
        <ele>693.7</ele>
        <time>2021-05-08T12:33:46Z</time>
      </trkpt>
      <trkpt lat="40.4137900" lon="-3.9029650">
        <ele>693.8</ele>
        <time>2021-05-08T12:33:47Z</time>
      </trkpt>
      <trkpt lat="40.4137850" lon="-3.9029480">
        <ele>693.9</ele>
        <time>2021-05-08T12:33:48Z</time>
      </trkpt>
      <trkpt lat="40.4137710" lon="-3.9029030">
        <ele>694.0</ele>
        <time>2021-05-08T12:33:49Z</time>
      </trkpt>
      <trkpt lat="40.4137540" lon="-3.9028540">
        <ele>694.2</ele>
        <time>2021-05-08T12:33:51Z</time>
      </trkpt>
      <trkpt lat="40.4137300" lon="-3.9027880">
        <ele>694.4</ele>
        <time>2021-05-08T12:33:53Z</time>
      </trkpt>
      <trkpt lat="40.4137180" lon="-3.9027540">
        <ele>694.4</ele>
        <time>2021-05-08T12:33:54Z</time>
      </trkpt>
      <trkpt lat="40.4137010" lon="-3.9027070">
        <ele>694.6</ele>
        <time>2021-05-08T12:33:55Z</time>
      </trkpt>
      <trkpt lat="40.4136830" lon="-3.9026520">
        <ele>694.7</ele>
        <time>2021-05-08T12:33:57Z</time>
      </trkpt>
      <trkpt lat="40.4136640" lon="-3.9026000">
        <ele>694.8</ele>
        <time>2021-05-08T12:33:58Z</time>
      </trkpt>
      <trkpt lat="40.4136450" lon="-3.9025420">
        <ele>695.0</ele>
        <time>2021-05-08T12:34:00Z</time>
      </trkpt>
      <trkpt lat="40.4136190" lon="-3.9024730">
        <ele>695.1</ele>
        <time>2021-05-08T12:34:02Z</time>
      </trkpt>
      <trkpt lat="40.4136030" lon="-3.9024360">
        <ele>695.2</ele>
        <time>2021-05-08T12:34:03Z</time>
      </trkpt>
      <trkpt lat="40.4135840" lon="-3.9023860">
        <ele>695.3</ele>
        <time>2021-05-08T12:34:04Z</time>
      </trkpt>
      <trkpt lat="40.4135660" lon="-3.9023280">
        <ele>695.5</ele>
        <time>2021-05-08T12:34:06Z</time>
      </trkpt>
      <trkpt lat="40.4135420" lon="-3.9022590">
        <ele>695.7</ele>
        <time>2021-05-08T12:34:08Z</time>
      </trkpt>
      <trkpt lat="40.4135240" lon="-3.9022080">
        <ele>695.9</ele>
        <time>2021-05-08T12:34:09Z</time>
      </trkpt>
      <trkpt lat="40.4135020" lon="-3.9021450">
        <ele>696.1</ele>
        <time>2021-05-08T12:34:11Z</time>
      </trkpt>
      <trkpt lat="40.4134870" lon="-3.9021030">
        <ele>696.2</ele>
        <time>2021-05-08T12:34:12Z</time>
      </trkpt>
      <trkpt lat="40.4134600" lon="-3.9020310">
        <ele>696.4</ele>
        <time>2021-05-08T12:34:14Z</time>
      </trkpt>
      <trkpt lat="40.4134500" lon="-3.9019930">
        <ele>696.6</ele>
        <time>2021-05-08T12:34:15Z</time>
      </trkpt>
      <trkpt lat="40.4134180" lon="-3.9019170">
        <ele>696.8</ele>
        <time>2021-05-08T12:34:17Z</time>
      </trkpt>
      <trkpt lat="40.4134040" lon="-3.9018820">
        <ele>697.0</ele>
        <time>2021-05-08T12:34:18Z</time>
      </trkpt>
      <trkpt lat="40.4133880" lon="-3.9018370">
        <ele>697.1</ele>
        <time>2021-05-08T12:34:19Z</time>
      </trkpt>
      <trkpt lat="40.4133710" lon="-3.9017780">
        <ele>697.4</ele>
        <time>2021-05-08T12:34:21Z</time>
      </trkpt>
      <trkpt lat="40.4133550" lon="-3.9017210">
        <ele>697.6</ele>
        <time>2021-05-08T12:34:22Z</time>
      </trkpt>
      <trkpt lat="40.4133390" lon="-3.9016810">
        <ele>697.8</ele>
        <time>2021-05-08T12:34:23Z</time>
      </trkpt>
      <trkpt lat="40.4133180" lon="-3.9016320">
        <ele>698.0</ele>
        <time>2021-05-08T12:34:24Z</time>
      </trkpt>
      <trkpt lat="40.4133060" lon="-3.9015930">
        <ele>698.2</ele>
        <time>2021-05-08T12:34:25Z</time>
      </trkpt>
      <trkpt lat="40.4132850" lon="-3.9015290">
        <ele>698.5</ele>
        <time>2021-05-08T12:34:27Z</time>
      </trkpt>
      <trkpt lat="40.4132680" lon="-3.9014960">
        <ele>698.6</ele>
        <time>2021-05-08T12:34:28Z</time>
      </trkpt>
      <trkpt lat="40.4132490" lon="-3.9014440">
        <ele>698.8</ele>
        <time>2021-05-08T12:34:29Z</time>
      </trkpt>
      <trkpt lat="40.4132340" lon="-3.9013900">
        <ele>699.0</ele>
        <time>2021-05-08T12:34:31Z</time>
      </trkpt>
      <trkpt lat="40.4132210" lon="-3.9013480">
        <ele>699.2</ele>
        <time>2021-05-08T12:34:32Z</time>
      </trkpt>
      <trkpt lat="40.4132060" lon="-3.9013120">
        <ele>699.4</ele>
        <time>2021-05-08T12:34:33Z</time>
      </trkpt>
      <trkpt lat="40.4131890" lon="-3.9012700">
        <ele>699.5</ele>
        <time>2021-05-08T12:34:34Z</time>
      </trkpt>
      <trkpt lat="40.4131690" lon="-3.9012130">
        <ele>699.7</ele>
        <time>2021-05-08T12:34:36Z</time>
      </trkpt>
      <trkpt lat="40.4131540" lon="-3.9011670">
        <ele>699.9</ele>
        <time>2021-05-08T12:34:37Z</time>
      </trkpt>
      <trkpt lat="40.4131320" lon="-3.9010930">
        <ele>700.2</ele>
        <time>2021-05-08T12:34:39Z</time>
      </trkpt>
      <trkpt lat="40.4131080" lon="-3.9010100">
        <ele>700.5</ele>
        <time>2021-05-08T12:34:41Z</time>
      </trkpt>
      <trkpt lat="40.4130950" lon="-3.9009680">
        <ele>700.6</ele>
        <time>2021-05-08T12:34:42Z</time>
      </trkpt>
      <trkpt lat="40.4130820" lon="-3.9009260">
        <ele>700.8</ele>
        <time>2021-05-08T12:34:43Z</time>
      </trkpt>
      <trkpt lat="40.4130670" lon="-3.9008830">
        <ele>701.0</ele>
        <time>2021-05-08T12:34:44Z</time>
      </trkpt>
      <trkpt lat="40.4130440" lon="-3.9008060">
        <ele>701.3</ele>
        <time>2021-05-08T12:34:46Z</time>
      </trkpt>
      <trkpt lat="40.4130250" lon="-3.9007380">
        <ele>701.6</ele>
        <time>2021-05-08T12:34:48Z</time>
      </trkpt>
      <trkpt lat="40.4130140" lon="-3.9006910">
        <ele>701.8</ele>
        <time>2021-05-08T12:34:49Z</time>
      </trkpt>
      <trkpt lat="40.4130060" lon="-3.9006550">
        <ele>701.9</ele>
        <time>2021-05-08T12:34:50Z</time>
      </trkpt>
      <trkpt lat="40.4129880" lon="-3.9005840">
        <ele>702.2</ele>
        <time>2021-05-08T12:34:52Z</time>
      </trkpt>
      <trkpt lat="40.4129710" lon="-3.9005300">
        <ele>702.4</ele>
        <time>2021-05-08T12:34:53Z</time>
      </trkpt>
      <trkpt lat="40.4129540" lon="-3.9004820">
        <ele>702.6</ele>
        <time>2021-05-08T12:34:55Z</time>
      </trkpt>
      <trkpt lat="40.4129330" lon="-3.9004360">
        <ele>702.8</ele>
        <time>2021-05-08T12:34:56Z</time>
      </trkpt>
      <trkpt lat="40.4129150" lon="-3.9003890">
        <ele>702.9</ele>
        <time>2021-05-08T12:34:57Z</time>
      </trkpt>
      <trkpt lat="40.4128990" lon="-3.9003470">
        <ele>703.0</ele>
        <time>2021-05-08T12:34:58Z</time>
      </trkpt>
      <trkpt lat="40.4128850" lon="-3.9002930">
        <ele>703.2</ele>
        <time>2021-05-08T12:35:00Z</time>
      </trkpt>
      <trkpt lat="40.4128770" lon="-3.9002540">
        <ele>703.2</ele>
        <time>2021-05-08T12:35:01Z</time>
      </trkpt>
      <trkpt lat="40.4128610" lon="-3.9001810">
        <ele>703.3</ele>
        <time>2021-05-08T12:35:03Z</time>
      </trkpt>
      <trkpt lat="40.4128540" lon="-3.9001440">
        <ele>703.3</ele>
        <time>2021-05-08T12:35:04Z</time>
      </trkpt>
      <trkpt lat="40.4128410" lon="-3.9000860">
        <ele>703.3</ele>
        <time>2021-05-08T12:35:06Z</time>
      </trkpt>
      <trkpt lat="40.4128330" lon="-3.9000440">
        <ele>703.3</ele>
        <time>2021-05-08T12:35:07Z</time>
      </trkpt>
      <trkpt lat="40.4128260" lon="-3.9000000">
        <ele>703.2</ele>
        <time>2021-05-08T12:35:08Z</time>
      </trkpt>
      <trkpt lat="40.4128180" lon="-3.8999540">
        <ele>703.2</ele>
        <time>2021-05-08T12:35:09Z</time>
      </trkpt>
      <trkpt lat="40.4128120" lon="-3.8999110">
        <ele>703.1</ele>
        <time>2021-05-08T12:35:10Z</time>
      </trkpt>
      <trkpt lat="40.4127980" lon="-3.8998390">
        <ele>702.9</ele>
        <time>2021-05-08T12:35:11Z</time>
      </trkpt>
      <trkpt lat="40.4127820" lon="-3.8997650">
        <ele>702.6</ele>
        <time>2021-05-08T12:35:13Z</time>
      </trkpt>
      <trkpt lat="40.4127510" lon="-3.8996250">
        <ele>702.2</ele>
        <time>2021-05-08T12:35:15Z</time>
      </trkpt>
      <trkpt lat="40.4127350" lon="-3.8995360">
        <ele>701.8</ele>
        <time>2021-05-08T12:35:16Z</time>
      </trkpt>
      <trkpt lat="40.4127260" lon="-3.8994120">
        <ele>701.4</ele>
        <time>2021-05-08T12:35:18Z</time>
      </trkpt>
      <trkpt lat="40.4127280" lon="-3.8993350">
        <ele>701.1</ele>
        <time>2021-05-08T12:35:19Z</time>
      </trkpt>
      <trkpt lat="40.4127180" lon="-3.8991680">
        <ele>700.5</ele>
        <time>2021-05-08T12:35:21Z</time>
      </trkpt>
      <trkpt lat="40.4127050" lon="-3.8989980">
        <ele>699.9</ele>
        <time>2021-05-08T12:35:23Z</time>
      </trkpt>
      <trkpt lat="40.4126980" lon="-3.8988280">
        <ele>699.3</ele>
        <time>2021-05-08T12:35:25Z</time>
      </trkpt>
      <trkpt lat="40.4126930" lon="-3.8987460">
        <ele>698.9</ele>
        <time>2021-05-08T12:35:26Z</time>
      </trkpt>
      <trkpt lat="40.4126910" lon="-3.8986650">
        <ele>698.6</ele>
        <time>2021-05-08T12:35:27Z</time>
      </trkpt>
      <trkpt lat="40.4126870" lon="-3.8985840">
        <ele>698.3</ele>
        <time>2021-05-08T12:35:28Z</time>
      </trkpt>
      <trkpt lat="40.4126770" lon="-3.8984310">
        <ele>697.6</ele>
        <time>2021-05-08T12:35:30Z</time>
      </trkpt>
      <trkpt lat="40.4126730" lon="-3.8983550">
        <ele>697.3</ele>
        <time>2021-05-08T12:35:31Z</time>
      </trkpt>
      <trkpt lat="40.4126710" lon="-3.8982780">
        <ele>696.9</ele>
        <time>2021-05-08T12:35:32Z</time>
      </trkpt>
      <trkpt lat="40.4126600" lon="-3.8981260">
        <ele>696.4</ele>
        <time>2021-05-08T12:35:34Z</time>
      </trkpt>
      <trkpt lat="40.4126520" lon="-3.8980450">
        <ele>696.1</ele>
        <time>2021-05-08T12:35:35Z</time>
      </trkpt>
      <trkpt lat="40.4126470" lon="-3.8979600">
        <ele>695.9</ele>
        <time>2021-05-08T12:35:36Z</time>
      </trkpt>
      <trkpt lat="40.4126430" lon="-3.8978890">
        <ele>695.8</ele>
        <time>2021-05-08T12:35:37Z</time>
      </trkpt>
      <trkpt lat="40.4126290" lon="-3.8977330">
        <ele>695.5</ele>
        <time>2021-05-08T12:35:39Z</time>
      </trkpt>
      <trkpt lat="40.4126120" lon="-3.8976050">
        <ele>695.2</ele>
        <time>2021-05-08T12:35:41Z</time>
      </trkpt>
      <trkpt lat="40.4125920" lon="-3.8975380">
        <ele>695.0</ele>
        <time>2021-05-08T12:35:43Z</time>
      </trkpt>
      <trkpt lat="40.4125800" lon="-3.8975100">
        <ele>694.9</ele>
        <time>2021-05-08T12:35:44Z</time>
      </trkpt>
      <trkpt lat="40.4125590" lon="-3.8974870">
        <ele>694.9</ele>
        <time>2021-05-08T12:35:46Z</time>
      </trkpt>
      <trkpt lat="40.4125340" lon="-3.8974700">
        <ele>694.9</ele>
        <time>2021-05-08T12:35:47Z</time>
      </trkpt>
      <trkpt lat="40.4125220" lon="-3.8974660">
        <ele>694.9</ele>
        <time>2021-05-08T12:35:48Z</time>
      </trkpt>
      <trkpt lat="40.4124910" lon="-3.8974340">
        <ele>694.9</ele>
        <time>2021-05-08T12:35:50Z</time>
      </trkpt>
      <trkpt lat="40.4124800" lon="-3.8974200">
        <ele>694.8</ele>
        <time>2021-05-08T12:35:51Z</time>
      </trkpt>
      <trkpt lat="40.4124580" lon="-3.8973970">
        <ele>694.8</ele>
        <time>2021-05-08T12:35:53Z</time>
      </trkpt>
      <trkpt lat="40.4124500" lon="-3.8973840">
        <ele>694.8</ele>
        <time>2021-05-08T12:35:54Z</time>
      </trkpt>
      <trkpt lat="40.4124430" lon="-3.8973660">
        <ele>694.8</ele>
        <time>2021-05-08T12:35:55Z</time>
      </trkpt>
      <trkpt lat="40.4124380" lon="-3.8973460">
        <ele>694.8</ele>
        <time>2021-05-08T12:35:56Z</time>
      </trkpt>
      <trkpt lat="40.4124360" lon="-3.8973350">
        <ele>694.8</ele>
        <time>2021-05-08T12:35:58Z</time>
      </trkpt>
      <trkpt lat="40.4124330" lon="-3.8973250">
        <ele>694.7</ele>
        <time>2021-05-08T12:35:59Z</time>
      </trkpt>
      <trkpt lat="40.4124300" lon="-3.8973140">
        <ele>694.7</ele>
        <time>2021-05-08T12:36:01Z</time>
      </trkpt>
      <trkpt lat="40.4124280" lon="-3.8973030">
        <ele>694.7</ele>
        <time>2021-05-08T12:36:02Z</time>
      </trkpt>
      <trkpt lat="40.4124250" lon="-3.8972920">
        <ele>694.7</ele>
        <time>2021-05-08T12:36:03Z</time>
      </trkpt>
      <trkpt lat="40.4124220" lon="-3.8972810">
        <ele>694.7</ele>
        <time>2021-05-08T12:36:04Z</time>
      </trkpt>
      <trkpt lat="40.4124190" lon="-3.8972710">
        <ele>694.7</ele>
        <time>2021-05-08T12:36:05Z</time>
      </trkpt>
      <trkpt lat="40.4124170" lon="-3.8972600">
        <ele>694.6</ele>
        <time>2021-05-08T12:36:16Z</time>
      </trkpt>
      <trkpt lat="40.4124140" lon="-3.8972490">
        <ele>694.6</ele>
        <time>2021-05-08T12:36:17Z</time>
      </trkpt>
      <trkpt lat="40.4124140" lon="-3.8971750">
        <ele>694.5</ele>
        <time>2021-05-08T12:36:19Z</time>
      </trkpt>
      <trkpt lat="40.4124340" lon="-3.8970550">
        <ele>694.2</ele>
        <time>2021-05-08T12:36:20Z</time>
      </trkpt>
      <trkpt lat="40.4124860" lon="-3.8969080">
        <ele>693.6</ele>
        <time>2021-05-08T12:36:22Z</time>
      </trkpt>
      <trkpt lat="40.4125660" lon="-3.8967790">
        <ele>693.0</ele>
        <time>2021-05-08T12:36:24Z</time>
      </trkpt>
      <trkpt lat="40.4125940" lon="-3.8966990">
        <ele>692.6</ele>
        <time>2021-05-08T12:36:25Z</time>
      </trkpt>
      <trkpt lat="40.4126040" lon="-3.8965140">
        <ele>691.9</ele>
        <time>2021-05-08T12:36:27Z</time>
      </trkpt>
      <trkpt lat="40.4126060" lon="-3.8963160">
        <ele>691.1</ele>
        <time>2021-05-08T12:36:29Z</time>
      </trkpt>
      <trkpt lat="40.4126080" lon="-3.8962220">
        <ele>690.7</ele>
        <time>2021-05-08T12:36:30Z</time>
      </trkpt>
      <trkpt lat="40.4126060" lon="-3.8960360">
        <ele>690.1</ele>
        <time>2021-05-08T12:36:32Z</time>
      </trkpt>
      <trkpt lat="40.4126090" lon="-3.8959400">
        <ele>689.7</ele>
        <time>2021-05-08T12:36:33Z</time>
      </trkpt>
      <trkpt lat="40.4126120" lon="-3.8958410">
        <ele>689.4</ele>
        <time>2021-05-08T12:36:34Z</time>
      </trkpt>
      <trkpt lat="40.4126110" lon="-3.8956460">
        <ele>688.8</ele>
        <time>2021-05-08T12:36:36Z</time>
      </trkpt>
      <trkpt lat="40.4126080" lon="-3.8955460">
        <ele>688.5</ele>
        <time>2021-05-08T12:36:37Z</time>
      </trkpt>
      <trkpt lat="40.4126030" lon="-3.8953460">
        <ele>688.0</ele>
        <time>2021-05-08T12:36:39Z</time>
      </trkpt>
      <trkpt lat="40.4125950" lon="-3.8951470">
        <ele>687.6</ele>
        <time>2021-05-08T12:36:41Z</time>
      </trkpt>
      <trkpt lat="40.4125910" lon="-3.8949430">
        <ele>687.2</ele>
        <time>2021-05-08T12:36:43Z</time>
      </trkpt>
      <trkpt lat="40.4125880" lon="-3.8948380">
        <ele>687.1</ele>
        <time>2021-05-08T12:36:44Z</time>
      </trkpt>
      <trkpt lat="40.4125840" lon="-3.8946390">
        <ele>686.8</ele>
        <time>2021-05-08T12:36:46Z</time>
      </trkpt>
      <trkpt lat="40.4125800" lon="-3.8944420">
        <ele>686.7</ele>
        <time>2021-05-08T12:36:48Z</time>
      </trkpt>
      <trkpt lat="40.4125800" lon="-3.8942550">
        <ele>686.7</ele>
        <time>2021-05-08T12:36:50Z</time>
      </trkpt>
      <trkpt lat="40.4125760" lon="-3.8941590">
        <ele>686.6</ele>
        <time>2021-05-08T12:36:51Z</time>
      </trkpt>
      <trkpt lat="40.4125710" lon="-3.8940620">
        <ele>686.6</ele>
        <time>2021-05-08T12:36:52Z</time>
      </trkpt>
      <trkpt lat="40.4125640" lon="-3.8938730">
        <ele>686.6</ele>
        <time>2021-05-08T12:36:54Z</time>
      </trkpt>
      <trkpt lat="40.4125570" lon="-3.8936830">
        <ele>686.6</ele>
        <time>2021-05-08T12:36:56Z</time>
      </trkpt>
      <trkpt lat="40.4125550" lon="-3.8935880">
        <ele>686.6</ele>
        <time>2021-05-08T12:36:57Z</time>
      </trkpt>
      <trkpt lat="40.4125530" lon="-3.8934930">
        <ele>686.6</ele>
        <time>2021-05-08T12:36:58Z</time>
      </trkpt>
      <trkpt lat="40.4125500" lon="-3.8933980">
        <ele>686.7</ele>
        <time>2021-05-08T12:36:59Z</time>
      </trkpt>
      <trkpt lat="40.4125410" lon="-3.8932140">
        <ele>686.7</ele>
        <time>2021-05-08T12:37:01Z</time>
      </trkpt>
      <trkpt lat="40.4125360" lon="-3.8930300">
        <ele>686.8</ele>
        <time>2021-05-08T12:37:03Z</time>
      </trkpt>
      <trkpt lat="40.4125330" lon="-3.8929320">
        <ele>686.8</ele>
        <time>2021-05-08T12:37:04Z</time>
      </trkpt>
      <trkpt lat="40.4125280" lon="-3.8927460">
        <ele>686.6</ele>
        <time>2021-05-08T12:37:06Z</time>
      </trkpt>
      <trkpt lat="40.4125250" lon="-3.8926570">
        <ele>686.6</ele>
        <time>2021-05-08T12:37:07Z</time>
      </trkpt>
      <trkpt lat="40.4125210" lon="-3.8924770">
        <ele>686.3</ele>
        <time>2021-05-08T12:37:09Z</time>
      </trkpt>
      <trkpt lat="40.4125180" lon="-3.8923860">
        <ele>686.2</ele>
        <time>2021-05-08T12:37:10Z</time>
      </trkpt>
      <trkpt lat="40.4125150" lon="-3.8922030">
        <ele>685.8</ele>
        <time>2021-05-08T12:37:12Z</time>
      </trkpt>
      <trkpt lat="40.4125140" lon="-3.8920140">
        <ele>685.4</ele>
        <time>2021-05-08T12:37:14Z</time>
      </trkpt>
      <trkpt lat="40.4125120" lon="-3.8919150">
        <ele>685.2</ele>
        <time>2021-05-08T12:37:15Z</time>
      </trkpt>
      <trkpt lat="40.4125060" lon="-3.8917220">
        <ele>684.6</ele>
        <time>2021-05-08T12:37:17Z</time>
      </trkpt>
      <trkpt lat="40.4124980" lon="-3.8915170">
        <ele>684.0</ele>
        <time>2021-05-08T12:37:19Z</time>
      </trkpt>
      <trkpt lat="40.4124900" lon="-3.8913070">
        <ele>683.4</ele>
        <time>2021-05-08T12:37:21Z</time>
      </trkpt>
      <trkpt lat="40.4124810" lon="-3.8912000">
        <ele>683.0</ele>
        <time>2021-05-08T12:37:22Z</time>
      </trkpt>
      <trkpt lat="40.4124630" lon="-3.8909790">
        <ele>682.1</ele>
        <time>2021-05-08T12:37:24Z</time>
      </trkpt>
      <trkpt lat="40.4124430" lon="-3.8907480">
        <ele>681.1</ele>
        <time>2021-05-08T12:37:26Z</time>
      </trkpt>
      <trkpt lat="40.4124180" lon="-3.8905080">
        <ele>680.2</ele>
        <time>2021-05-08T12:37:28Z</time>
      </trkpt>
      <trkpt lat="40.4124060" lon="-3.8903910">
        <ele>679.7</ele>
        <time>2021-05-08T12:37:29Z</time>
      </trkpt>
      <trkpt lat="40.4123920" lon="-3.8902810">
        <ele>679.3</ele>
        <time>2021-05-08T12:37:30Z</time>
      </trkpt>
      <trkpt lat="40.4123580" lon="-3.8900950">
        <ele>678.7</ele>
        <time>2021-05-08T12:37:32Z</time>
      </trkpt>
      <trkpt lat="40.4123350" lon="-3.8899980">
        <ele>678.4</ele>
        <time>2021-05-08T12:37:34Z</time>
      </trkpt>
      <trkpt lat="40.4122970" lon="-3.8899590">
        <ele>678.2</ele>
        <time>2021-05-08T12:37:36Z</time>
      </trkpt>
      <trkpt lat="40.4122510" lon="-3.8899360">
        <ele>677.9</ele>
        <time>2021-05-08T12:37:38Z</time>
      </trkpt>
      <trkpt lat="40.4122230" lon="-3.8899240">
        <ele>677.8</ele>
        <time>2021-05-08T12:37:39Z</time>
      </trkpt>
      <trkpt lat="40.4122150" lon="-3.8899330">
        <ele>677.7</ele>
        <time>2021-05-08T12:37:40Z</time>
      </trkpt>
      <trkpt lat="40.4122000" lon="-3.8899560">
        <ele>677.6</ele>
        <time>2021-05-08T12:37:41Z</time>
      </trkpt>
      <trkpt lat="40.4121470" lon="-3.8899440">
        <ele>677.6</ele>
        <time>2021-05-08T12:37:42Z</time>
      </trkpt>
      <trkpt lat="40.4120750" lon="-3.8899060">
        <ele>677.5</ele>
        <time>2021-05-08T12:37:44Z</time>
      </trkpt>
      <trkpt lat="40.4119960" lon="-3.8898550">
        <ele>677.5</ele>
        <time>2021-05-08T12:37:45Z</time>
      </trkpt>
      <trkpt lat="40.4118910" lon="-3.8897920">
        <ele>677.3</ele>
        <time>2021-05-08T12:37:47Z</time>
      </trkpt>
      <trkpt lat="40.4118350" lon="-3.8897540">
        <ele>677.3</ele>
        <time>2021-05-08T12:37:48Z</time>
      </trkpt>
      <trkpt lat="40.4117860" lon="-3.8897110">
        <ele>677.2</ele>
        <time>2021-05-08T12:37:49Z</time>
      </trkpt>
      <trkpt lat="40.4117410" lon="-3.8896620">
        <ele>677.2</ele>
        <time>2021-05-08T12:37:50Z</time>
      </trkpt>
      <trkpt lat="40.4116990" lon="-3.8896130">
        <ele>677.2</ele>
        <time>2021-05-08T12:37:51Z</time>
      </trkpt>
      <trkpt lat="40.4116590" lon="-3.8895600">
        <ele>677.2</ele>
        <time>2021-05-08T12:37:52Z</time>
      </trkpt>
      <trkpt lat="40.4115920" lon="-3.8894410">
        <ele>677.1</ele>
        <time>2021-05-08T12:37:54Z</time>
      </trkpt>
      <trkpt lat="40.4115660" lon="-3.8893800">
        <ele>677.0</ele>
        <time>2021-05-08T12:37:55Z</time>
      </trkpt>
      <trkpt lat="40.4115440" lon="-3.8893170">
        <ele>677.0</ele>
        <time>2021-05-08T12:37:56Z</time>
      </trkpt>
      <trkpt lat="40.4115130" lon="-3.8892000">
        <ele>676.9</ele>
        <time>2021-05-08T12:37:58Z</time>
      </trkpt>
      <trkpt lat="40.4115030" lon="-3.8891460">
        <ele>676.9</ele>
        <time>2021-05-08T12:37:59Z</time>
      </trkpt>
      <trkpt lat="40.4114970" lon="-3.8891150">
        <ele>676.9</ele>
        <time>2021-05-08T12:38:00Z</time>
      </trkpt>
      <trkpt lat="40.4114530" lon="-3.8889740">
        <ele>676.9</ele>
        <time>2021-05-08T12:38:02Z</time>
      </trkpt>
      <trkpt lat="40.4114390" lon="-3.8889060">
        <ele>676.9</ele>
        <time>2021-05-08T12:38:03Z</time>
      </trkpt>
      <trkpt lat="40.4114320" lon="-3.8887700">
        <ele>677.0</ele>
        <time>2021-05-08T12:38:05Z</time>
      </trkpt>
      <trkpt lat="40.4114320" lon="-3.8887020">
        <ele>677.0</ele>
        <time>2021-05-08T12:38:06Z</time>
      </trkpt>
      <trkpt lat="40.4114400" lon="-3.8885590">
        <ele>677.1</ele>
        <time>2021-05-08T12:38:08Z</time>
      </trkpt>
      <trkpt lat="40.4114480" lon="-3.8884850">
        <ele>677.1</ele>
        <time>2021-05-08T12:38:09Z</time>
      </trkpt>
      <trkpt lat="40.4114700" lon="-3.8883480">
        <ele>677.1</ele>
        <time>2021-05-08T12:38:11Z</time>
      </trkpt>
      <trkpt lat="40.4114810" lon="-3.8882800">
        <ele>677.1</ele>
        <time>2021-05-08T12:38:12Z</time>
      </trkpt>
      <trkpt lat="40.4115180" lon="-3.8881580">
        <ele>677.2</ele>
        <time>2021-05-08T12:38:14Z</time>
      </trkpt>
      <trkpt lat="40.4115500" lon="-3.8881010">
        <ele>677.2</ele>
        <time>2021-05-08T12:38:15Z</time>
      </trkpt>
      <trkpt lat="40.4116130" lon="-3.8879990">
        <ele>677.3</ele>
        <time>2021-05-08T12:38:17Z</time>
      </trkpt>
      <trkpt lat="40.4116920" lon="-3.8879140">
        <ele>677.3</ele>
        <time>2021-05-08T12:38:19Z</time>
      </trkpt>
      <trkpt lat="40.4117740" lon="-3.8878300">
        <ele>677.4</ele>
        <time>2021-05-08T12:38:21Z</time>
      </trkpt>
      <trkpt lat="40.4118480" lon="-3.8877480">
        <ele>677.4</ele>
        <time>2021-05-08T12:38:23Z</time>
      </trkpt>
      <trkpt lat="40.4119120" lon="-3.8876750">
        <ele>677.5</ele>
        <time>2021-05-08T12:38:25Z</time>
      </trkpt>
      <trkpt lat="40.4119610" lon="-3.8875990">
        <ele>677.5</ele>
        <time>2021-05-08T12:38:27Z</time>
      </trkpt>
      <trkpt lat="40.4119880" lon="-3.8875140">
        <ele>677.5</ele>
        <time>2021-05-08T12:38:29Z</time>
      </trkpt>
      <trkpt lat="40.4120020" lon="-3.8874190">
        <ele>677.6</ele>
        <time>2021-05-08T12:38:31Z</time>
      </trkpt>
      <trkpt lat="40.4120210" lon="-3.8873930">
        <ele>677.6</ele>
        <time>2021-05-08T12:38:32Z</time>
      </trkpt>
      <trkpt lat="40.4120220" lon="-3.8873420">
        <ele>677.6</ele>
        <time>2021-05-08T12:38:33Z</time>
      </trkpt>
      <trkpt lat="40.4120120" lon="-3.8872840">
        <ele>677.6</ele>
        <time>2021-05-08T12:38:35Z</time>
      </trkpt>
      <trkpt lat="40.4120080" lon="-3.8872610">
        <ele>677.6</ele>
        <time>2021-05-08T12:38:36Z</time>
      </trkpt>
      <trkpt lat="40.4120050" lon="-3.8872380">
        <ele>677.7</ele>
        <time>2021-05-08T12:38:37Z</time>
      </trkpt>
      <trkpt lat="40.4119920" lon="-3.8871900">
        <ele>677.7</ele>
        <time>2021-05-08T12:38:38Z</time>
      </trkpt>
      <trkpt lat="40.4119810" lon="-3.8871300">
        <ele>677.8</ele>
        <time>2021-05-08T12:38:39Z</time>
      </trkpt>
      <trkpt lat="40.4119600" lon="-3.8870680">
        <ele>677.9</ele>
        <time>2021-05-08T12:38:41Z</time>
      </trkpt>
      <trkpt lat="40.4119430" lon="-3.8870060">
        <ele>678.0</ele>
        <time>2021-05-08T12:38:42Z</time>
      </trkpt>
      <trkpt lat="40.4119110" lon="-3.8868800">
        <ele>678.4</ele>
        <time>2021-05-08T12:38:44Z</time>
      </trkpt>
      <trkpt lat="40.4118980" lon="-3.8867780">
        <ele>678.7</ele>
        <time>2021-05-08T12:38:46Z</time>
      </trkpt>
      <trkpt lat="40.4118720" lon="-3.8866650">
        <ele>679.2</ele>
        <time>2021-05-08T12:38:48Z</time>
      </trkpt>
      <trkpt lat="40.4118520" lon="-3.8865940">
        <ele>679.5</ele>
        <time>2021-05-08T12:38:50Z</time>
      </trkpt>
      <trkpt lat="40.4118390" lon="-3.8865460">
        <ele>679.8</ele>
        <time>2021-05-08T12:38:51Z</time>
      </trkpt>
      <trkpt lat="40.4118340" lon="-3.8865300">
        <ele>679.9</ele>
        <time>2021-05-08T12:38:52Z</time>
      </trkpt>
      <trkpt lat="40.4118230" lon="-3.8864940">
        <ele>680.1</ele>
        <time>2021-05-08T12:38:53Z</time>
      </trkpt>
      <trkpt lat="40.4118050" lon="-3.8864530">
        <ele>680.3</ele>
        <time>2021-05-08T12:38:55Z</time>
      </trkpt>
      <trkpt lat="40.4118000" lon="-3.8864400">
        <ele>680.4</ele>
        <time>2021-05-08T12:38:56Z</time>
      </trkpt>
      <trkpt lat="40.4117870" lon="-3.8864050">
        <ele>680.6</ele>
        <time>2021-05-08T12:38:57Z</time>
      </trkpt>
      <trkpt lat="40.4117740" lon="-3.8863440">
        <ele>681.0</ele>
        <time>2021-05-08T12:38:59Z</time>
      </trkpt>
      <trkpt lat="40.4117640" lon="-3.8863080">
        <ele>681.2</ele>
        <time>2021-05-08T12:39:00Z</time>
      </trkpt>
      <trkpt lat="40.4117530" lon="-3.8862650">
        <ele>681.4</ele>
        <time>2021-05-08T12:39:02Z</time>
      </trkpt>
      <trkpt lat="40.4117520" lon="-3.8862250">
        <ele>681.7</ele>
        <time>2021-05-08T12:39:03Z</time>
      </trkpt>
      <trkpt lat="40.4117490" lon="-3.8861800">
        <ele>681.9</ele>
        <time>2021-05-08T12:39:05Z</time>
      </trkpt>
      <trkpt lat="40.4117450" lon="-3.8861380">
        <ele>682.2</ele>
        <time>2021-05-08T12:39:06Z</time>
      </trkpt>
      <trkpt lat="40.4117390" lon="-3.8860920">
        <ele>682.5</ele>
        <time>2021-05-08T12:39:08Z</time>
      </trkpt>
      <trkpt lat="40.4117310" lon="-3.8860380">
        <ele>682.8</ele>
        <time>2021-05-08T12:39:09Z</time>
      </trkpt>
      <trkpt lat="40.4117260" lon="-3.8860170">
        <ele>683.0</ele>
        <time>2021-05-08T12:39:10Z</time>
      </trkpt>
      <trkpt lat="40.4117190" lon="-3.8859810">
        <ele>683.4</ele>
        <time>2021-05-08T12:39:12Z</time>
      </trkpt>
      <trkpt lat="40.4117080" lon="-3.8859420">
        <ele>683.5</ele>
        <time>2021-05-08T12:39:13Z</time>
      </trkpt>
      <trkpt lat="40.4116900" lon="-3.8859120">
        <ele>683.8</ele>
        <time>2021-05-08T12:39:14Z</time>
      </trkpt>
      <trkpt lat="40.4116650" lon="-3.8858820">
        <ele>684.0</ele>
        <time>2021-05-08T12:39:15Z</time>
      </trkpt>
      <trkpt lat="40.4116290" lon="-3.8858480">
        <ele>684.3</ele>
        <time>2021-05-08T12:39:17Z</time>
      </trkpt>
      <trkpt lat="40.4115760" lon="-3.8858020">
        <ele>684.5</ele>
        <time>2021-05-08T12:39:19Z</time>
      </trkpt>
      <trkpt lat="40.4115470" lon="-3.8857850">
        <ele>684.5</ele>
        <time>2021-05-08T12:39:20Z</time>
      </trkpt>
      <trkpt lat="40.4114950" lon="-3.8857690">
        <ele>684.7</ele>
        <time>2021-05-08T12:39:21Z</time>
      </trkpt>
      <trkpt lat="40.4114510" lon="-3.8857680">
        <ele>684.8</ele>
        <time>2021-05-08T12:39:23Z</time>
      </trkpt>
      <trkpt lat="40.4114060" lon="-3.8857780">
        <ele>684.7</ele>
        <time>2021-05-08T12:39:24Z</time>
      </trkpt>
      <trkpt lat="40.4113660" lon="-3.8857800">
        <ele>684.8</ele>
        <time>2021-05-08T12:39:25Z</time>
      </trkpt>
      <trkpt lat="40.4113290" lon="-3.8857830">
        <ele>684.9</ele>
        <time>2021-05-08T12:39:26Z</time>
      </trkpt>
      <trkpt lat="40.4112800" lon="-3.8857960">
        <ele>685.1</ele>
        <time>2021-05-08T12:39:28Z</time>
      </trkpt>
      <trkpt lat="40.4112290" lon="-3.8858180">
        <ele>684.9</ele>
        <time>2021-05-08T12:39:29Z</time>
      </trkpt>
      <trkpt lat="40.4111930" lon="-3.8858340">
        <ele>685.0</ele>
        <time>2021-05-08T12:39:31Z</time>
      </trkpt>
      <trkpt lat="40.4111590" lon="-3.8858490">
        <ele>685.0</ele>
        <time>2021-05-08T12:39:32Z</time>
      </trkpt>
      <trkpt lat="40.4111020" lon="-3.8858700">
        <ele>685.0</ele>
        <time>2021-05-08T12:39:34Z</time>
      </trkpt>
      <trkpt lat="40.4110500" lon="-3.8858840">
        <ele>685.1</ele>
        <time>2021-05-08T12:39:36Z</time>
      </trkpt>
      <trkpt lat="40.4110110" lon="-3.8858930">
        <ele>685.1</ele>
        <time>2021-05-08T12:39:37Z</time>
      </trkpt>
      <trkpt lat="40.4109500" lon="-3.8859030">
        <ele>685.2</ele>
        <time>2021-05-08T12:39:39Z</time>
      </trkpt>
      <trkpt lat="40.4108910" lon="-3.8859110">
        <ele>685.3</ele>
        <time>2021-05-08T12:39:41Z</time>
      </trkpt>
      <trkpt lat="40.4108600" lon="-3.8859160">
        <ele>685.3</ele>
        <time>2021-05-08T12:39:42Z</time>
      </trkpt>
      <trkpt lat="40.4108260" lon="-3.8859250">
        <ele>685.4</ele>
        <time>2021-05-08T12:39:43Z</time>
      </trkpt>
      <trkpt lat="40.4107710" lon="-3.8859440">
        <ele>685.4</ele>
        <time>2021-05-08T12:39:45Z</time>
      </trkpt>
      <trkpt lat="40.4107350" lon="-3.8859540">
        <ele>685.5</ele>
        <time>2021-05-08T12:39:46Z</time>
      </trkpt>
      <trkpt lat="40.4106770" lon="-3.8859650">
        <ele>685.5</ele>
        <time>2021-05-08T12:39:48Z</time>
      </trkpt>
      <trkpt lat="40.4106510" lon="-3.8859660">
        <ele>685.6</ele>
        <time>2021-05-08T12:39:49Z</time>
      </trkpt>
      <trkpt lat="40.4106030" lon="-3.8859710">
        <ele>685.6</ele>
        <time>2021-05-08T12:39:51Z</time>
      </trkpt>
      <trkpt lat="40.4105810" lon="-3.8859720">
        <ele>685.6</ele>
        <time>2021-05-08T12:39:52Z</time>
      </trkpt>
      <trkpt lat="40.4105410" lon="-3.8859870">
        <ele>685.6</ele>
        <time>2021-05-08T12:39:54Z</time>
      </trkpt>
      <trkpt lat="40.4105160" lon="-3.8859950">
        <ele>685.6</ele>
        <time>2021-05-08T12:39:55Z</time>
      </trkpt>
      <trkpt lat="40.4104530" lon="-3.8860120">
        <ele>685.7</ele>
        <time>2021-05-08T12:39:57Z</time>
      </trkpt>
      <trkpt lat="40.4104090" lon="-3.8860200">
        <ele>685.6</ele>
        <time>2021-05-08T12:39:58Z</time>
      </trkpt>
      <trkpt lat="40.4103460" lon="-3.8860380">
        <ele>685.6</ele>
        <time>2021-05-08T12:40:00Z</time>
      </trkpt>
      <trkpt lat="40.4102890" lon="-3.8860520">
        <ele>685.6</ele>
        <time>2021-05-08T12:40:02Z</time>
      </trkpt>
      <trkpt lat="40.4102380" lon="-3.8860650">
        <ele>685.5</ele>
        <time>2021-05-08T12:40:04Z</time>
      </trkpt>
      <trkpt lat="40.4101960" lon="-3.8860670">
        <ele>685.5</ele>
        <time>2021-05-08T12:40:05Z</time>
      </trkpt>
      <trkpt lat="40.4101480" lon="-3.8860780">
        <ele>685.4</ele>
        <time>2021-05-08T12:40:07Z</time>
      </trkpt>
      <trkpt lat="40.4101160" lon="-3.8860860">
        <ele>685.3</ele>
        <time>2021-05-08T12:40:08Z</time>
      </trkpt>
      <trkpt lat="40.4100530" lon="-3.8861000">
        <ele>685.1</ele>
        <time>2021-05-08T12:40:10Z</time>
      </trkpt>
      <trkpt lat="40.4100080" lon="-3.8861130">
        <ele>685.0</ele>
        <time>2021-05-08T12:40:11Z</time>
      </trkpt>
      <trkpt lat="40.4099610" lon="-3.8861270">
        <ele>684.8</ele>
        <time>2021-05-08T12:40:12Z</time>
      </trkpt>
      <trkpt lat="40.4098640" lon="-3.8861480">
        <ele>684.4</ele>
        <time>2021-05-08T12:40:14Z</time>
      </trkpt>
      <trkpt lat="40.4097630" lon="-3.8861710">
        <ele>684.0</ele>
        <time>2021-05-08T12:40:16Z</time>
      </trkpt>
      <trkpt lat="40.4097130" lon="-3.8861820">
        <ele>683.8</ele>
        <time>2021-05-08T12:40:17Z</time>
      </trkpt>
      <trkpt lat="40.4096630" lon="-3.8861950">
        <ele>683.7</ele>
        <time>2021-05-08T12:40:18Z</time>
      </trkpt>
      <trkpt lat="40.4096110" lon="-3.8862060">
        <ele>683.5</ele>
        <time>2021-05-08T12:40:19Z</time>
      </trkpt>
      <trkpt lat="40.4095080" lon="-3.8862290">
        <ele>683.3</ele>
        <time>2021-05-08T12:40:21Z</time>
      </trkpt>
      <trkpt lat="40.4094090" lon="-3.8862520">
        <ele>683.2</ele>
        <time>2021-05-08T12:40:23Z</time>
      </trkpt>
      <trkpt lat="40.4093240" lon="-3.8862790">
        <ele>683.3</ele>
        <time>2021-05-08T12:40:25Z</time>
      </trkpt>
      <trkpt lat="40.4092440" lon="-3.8862990">
        <ele>683.4</ele>
        <time>2021-05-08T12:40:27Z</time>
      </trkpt>
      <trkpt lat="40.4091560" lon="-3.8863140">
        <ele>683.5</ele>
        <time>2021-05-08T12:40:29Z</time>
      </trkpt>
      <trkpt lat="40.4091110" lon="-3.8863230">
        <ele>683.6</ele>
        <time>2021-05-08T12:40:30Z</time>
      </trkpt>
      <trkpt lat="40.4090470" lon="-3.8863330">
        <ele>683.7</ele>
        <time>2021-05-08T12:40:32Z</time>
      </trkpt>
      <trkpt lat="40.4090170" lon="-3.8863350">
        <ele>683.8</ele>
        <time>2021-05-08T12:40:33Z</time>
      </trkpt>
      <trkpt lat="40.4089870" lon="-3.8863360">
        <ele>683.8</ele>
        <time>2021-05-08T12:40:34Z</time>
      </trkpt>
      <trkpt lat="40.4088970" lon="-3.8863530">
        <ele>684.0</ele>
        <time>2021-05-08T12:40:36Z</time>
      </trkpt>
      <trkpt lat="40.4088440" lon="-3.8863710">
        <ele>684.0</ele>
        <time>2021-05-08T12:40:37Z</time>
      </trkpt>
      <trkpt lat="40.4087520" lon="-3.8864010">
        <ele>684.2</ele>
        <time>2021-05-08T12:40:39Z</time>
      </trkpt>
      <trkpt lat="40.4086980" lon="-3.8864160">
        <ele>684.2</ele>
        <time>2021-05-08T12:40:40Z</time>
      </trkpt>
      <trkpt lat="40.4086500" lon="-3.8864270">
        <ele>684.2</ele>
        <time>2021-05-08T12:40:41Z</time>
      </trkpt>
      <trkpt lat="40.4085880" lon="-3.8864440">
        <ele>684.2</ele>
        <time>2021-05-08T12:40:43Z</time>
      </trkpt>
      <trkpt lat="40.4085410" lon="-3.8864590">
        <ele>684.2</ele>
        <time>2021-05-08T12:40:44Z</time>
      </trkpt>
      <trkpt lat="40.4084660" lon="-3.8864820">
        <ele>684.2</ele>
        <time>2021-05-08T12:40:46Z</time>
      </trkpt>
      <trkpt lat="40.4083850" lon="-3.8865030">
        <ele>684.2</ele>
        <time>2021-05-08T12:40:48Z</time>
      </trkpt>
      <trkpt lat="40.4083350" lon="-3.8865160">
        <ele>684.1</ele>
        <time>2021-05-08T12:40:49Z</time>
      </trkpt>
      <trkpt lat="40.4082580" lon="-3.8865350">
        <ele>684.0</ele>
        <time>2021-05-08T12:40:51Z</time>
      </trkpt>
      <trkpt lat="40.4081930" lon="-3.8865540">
        <ele>683.9</ele>
        <time>2021-05-08T12:40:52Z</time>
      </trkpt>
      <trkpt lat="40.4081100" lon="-3.8865530">
        <ele>683.7</ele>
        <time>2021-05-08T12:40:54Z</time>
      </trkpt>
      <trkpt lat="40.4080680" lon="-3.8865460">
        <ele>683.6</ele>
        <time>2021-05-08T12:40:55Z</time>
      </trkpt>
      <trkpt lat="40.4079970" lon="-3.8865860">
        <ele>683.4</ele>
        <time>2021-05-08T12:40:57Z</time>
      </trkpt>
      <trkpt lat="40.4079340" lon="-3.8866020">
        <ele>683.2</ele>
        <time>2021-05-08T12:40:58Z</time>
      </trkpt>
      <trkpt lat="40.4078380" lon="-3.8866140">
        <ele>683.0</ele>
        <time>2021-05-08T12:41:00Z</time>
      </trkpt>
      <trkpt lat="40.4077850" lon="-3.8866190">
        <ele>682.8</ele>
        <time>2021-05-08T12:41:01Z</time>
      </trkpt>
      <trkpt lat="40.4076800" lon="-3.8866360">
        <ele>682.6</ele>
        <time>2021-05-08T12:41:03Z</time>
      </trkpt>
      <trkpt lat="40.4076280" lon="-3.8866470">
        <ele>682.5</ele>
        <time>2021-05-08T12:41:04Z</time>
      </trkpt>
      <trkpt lat="40.4075320" lon="-3.8866770">
        <ele>682.3</ele>
        <time>2021-05-08T12:41:06Z</time>
      </trkpt>
      <trkpt lat="40.4074860" lon="-3.8866910">
        <ele>682.1</ele>
        <time>2021-05-08T12:41:07Z</time>
      </trkpt>
      <trkpt lat="40.4073970" lon="-3.8867110">
        <ele>681.9</ele>
        <time>2021-05-08T12:41:09Z</time>
      </trkpt>
      <trkpt lat="40.4073650" lon="-3.8867180">
        <ele>681.8</ele>
        <time>2021-05-08T12:41:10Z</time>
      </trkpt>
      <trkpt lat="40.4073160" lon="-3.8867240">
        <ele>681.7</ele>
        <time>2021-05-08T12:41:11Z</time>
      </trkpt>
      <trkpt lat="40.4072680" lon="-3.8867300">
        <ele>681.6</ele>
        <time>2021-05-08T12:41:12Z</time>
      </trkpt>
      <trkpt lat="40.4071650" lon="-3.8867490">
        <ele>681.3</ele>
        <time>2021-05-08T12:41:14Z</time>
      </trkpt>
      <trkpt lat="40.4071130" lon="-3.8867690">
        <ele>681.2</ele>
        <time>2021-05-08T12:41:15Z</time>
      </trkpt>
      <trkpt lat="40.4070120" lon="-3.8868040">
        <ele>681.0</ele>
        <time>2021-05-08T12:41:17Z</time>
      </trkpt>
      <trkpt lat="40.4069140" lon="-3.8868210">
        <ele>680.7</ele>
        <time>2021-05-08T12:41:19Z</time>
      </trkpt>
      <trkpt lat="40.4068630" lon="-3.8868310">
        <ele>680.6</ele>
        <time>2021-05-08T12:41:20Z</time>
      </trkpt>
      <trkpt lat="40.4067630" lon="-3.8868520">
        <ele>680.4</ele>
        <time>2021-05-08T12:41:22Z</time>
      </trkpt>
      <trkpt lat="40.4067090" lon="-3.8868600">
        <ele>680.3</ele>
        <time>2021-05-08T12:41:23Z</time>
      </trkpt>
      <trkpt lat="40.4066070" lon="-3.8868820">
        <ele>680.1</ele>
        <time>2021-05-08T12:41:25Z</time>
      </trkpt>
      <trkpt lat="40.4065040" lon="-3.8869070">
        <ele>679.9</ele>
        <time>2021-05-08T12:41:27Z</time>
      </trkpt>
      <trkpt lat="40.4064520" lon="-3.8869230">
        <ele>679.8</ele>
        <time>2021-05-08T12:41:28Z</time>
      </trkpt>
      <trkpt lat="40.4064000" lon="-3.8869350">
        <ele>679.7</ele>
        <time>2021-05-08T12:41:29Z</time>
      </trkpt>
      <trkpt lat="40.4062980" lon="-3.8869550">
        <ele>679.5</ele>
        <time>2021-05-08T12:41:31Z</time>
      </trkpt>
      <trkpt lat="40.4061980" lon="-3.8869820">
        <ele>679.3</ele>
        <time>2021-05-08T12:41:33Z</time>
      </trkpt>
      <trkpt lat="40.4061480" lon="-3.8870000">
        <ele>679.1</ele>
        <time>2021-05-08T12:41:34Z</time>
      </trkpt>
      <trkpt lat="40.4060730" lon="-3.8870800">
        <ele>678.7</ele>
        <time>2021-05-08T12:41:36Z</time>
      </trkpt>
      <trkpt lat="40.4060420" lon="-3.8871480">
        <ele>678.5</ele>
        <time>2021-05-08T12:41:37Z</time>
      </trkpt>
      <trkpt lat="40.4059760" lon="-3.8872550">
        <ele>678.3</ele>
        <time>2021-05-08T12:41:39Z</time>
      </trkpt>
      <trkpt lat="40.4059260" lon="-3.8873010">
        <ele>678.1</ele>
        <time>2021-05-08T12:41:40Z</time>
      </trkpt>
      <trkpt lat="40.4058110" lon="-3.8873340">
        <ele>677.7</ele>
        <time>2021-05-08T12:41:42Z</time>
      </trkpt>
      <trkpt lat="40.4057450" lon="-3.8873290">
        <ele>677.4</ele>
        <time>2021-05-08T12:41:43Z</time>
      </trkpt>
      <trkpt lat="40.4056290" lon="-3.8872770">
        <ele>676.5</ele>
        <time>2021-05-08T12:41:45Z</time>
      </trkpt>
      <trkpt lat="40.4055760" lon="-3.8872360">
        <ele>676.6</ele>
        <time>2021-05-08T12:41:46Z</time>
      </trkpt>
      <trkpt lat="40.4055270" lon="-3.8871970">
        <ele>676.7</ele>
        <time>2021-05-08T12:41:47Z</time>
      </trkpt>
      <trkpt lat="40.4054330" lon="-3.8871340">
        <ele>676.7</ele>
        <time>2021-05-08T12:41:49Z</time>
      </trkpt>
      <trkpt lat="40.4053840" lon="-3.8871230">
        <ele>676.7</ele>
        <time>2021-05-08T12:41:50Z</time>
      </trkpt>
      <trkpt lat="40.4052790" lon="-3.8871330">
        <ele>676.7</ele>
        <time>2021-05-08T12:41:52Z</time>
      </trkpt>
      <trkpt lat="40.4052270" lon="-3.8871490">
        <ele>676.6</ele>
        <time>2021-05-08T12:41:53Z</time>
      </trkpt>
      <trkpt lat="40.4051160" lon="-3.8871770">
        <ele>676.3</ele>
        <time>2021-05-08T12:41:55Z</time>
      </trkpt>
      <trkpt lat="40.4050600" lon="-3.8871950">
        <ele>676.1</ele>
        <time>2021-05-08T12:41:56Z</time>
      </trkpt>
      <trkpt lat="40.4050090" lon="-3.8872120">
        <ele>675.9</ele>
        <time>2021-05-08T12:41:57Z</time>
      </trkpt>
      <trkpt lat="40.4049560" lon="-3.8872240">
        <ele>675.8</ele>
        <time>2021-05-08T12:41:58Z</time>
      </trkpt>
      <trkpt lat="40.4048460" lon="-3.8872310">
        <ele>675.5</ele>
        <time>2021-05-08T12:42:00Z</time>
      </trkpt>
      <trkpt lat="40.4047400" lon="-3.8872300">
        <ele>675.3</ele>
        <time>2021-05-08T12:42:02Z</time>
      </trkpt>
      <trkpt lat="40.4046790" lon="-3.8872250">
        <ele>675.2</ele>
        <time>2021-05-08T12:42:03Z</time>
      </trkpt>
      <trkpt lat="40.4045540" lon="-3.8872240">
        <ele>675.0</ele>
        <time>2021-05-08T12:42:05Z</time>
      </trkpt>
      <trkpt lat="40.4044970" lon="-3.8872270">
        <ele>675.0</ele>
        <time>2021-05-08T12:42:06Z</time>
      </trkpt>
      <trkpt lat="40.4043870" lon="-3.8872380">
        <ele>674.9</ele>
        <time>2021-05-08T12:42:08Z</time>
      </trkpt>
      <trkpt lat="40.4042810" lon="-3.8872440">
        <ele>674.9</ele>
        <time>2021-05-08T12:42:10Z</time>
      </trkpt>
      <trkpt lat="40.4042230" lon="-3.8872430">
        <ele>674.9</ele>
        <time>2021-05-08T12:42:11Z</time>
      </trkpt>
      <trkpt lat="40.4041670" lon="-3.8872430">
        <ele>674.9</ele>
        <time>2021-05-08T12:42:12Z</time>
      </trkpt>
      <trkpt lat="40.4040640" lon="-3.8872430">
        <ele>675.0</ele>
        <time>2021-05-08T12:42:14Z</time>
      </trkpt>
      <trkpt lat="40.4040150" lon="-3.8872420">
        <ele>675.0</ele>
        <time>2021-05-08T12:42:15Z</time>
      </trkpt>
      <trkpt lat="40.4039160" lon="-3.8872410">
        <ele>675.2</ele>
        <time>2021-05-08T12:42:17Z</time>
      </trkpt>
      <trkpt lat="40.4038180" lon="-3.8872380">
        <ele>675.3</ele>
        <time>2021-05-08T12:42:19Z</time>
      </trkpt>
      <trkpt lat="40.4037650" lon="-3.8872340">
        <ele>675.4</ele>
        <time>2021-05-08T12:42:20Z</time>
      </trkpt>
      <trkpt lat="40.4037150" lon="-3.8872300">
        <ele>675.5</ele>
        <time>2021-05-08T12:42:21Z</time>
      </trkpt>
      <trkpt lat="40.4036670" lon="-3.8872270">
        <ele>675.6</ele>
        <time>2021-05-08T12:42:22Z</time>
      </trkpt>
      <trkpt lat="40.4036180" lon="-3.8872240">
        <ele>675.7</ele>
        <time>2021-05-08T12:42:23Z</time>
      </trkpt>
      <trkpt lat="40.4035210" lon="-3.8872130">
        <ele>675.9</ele>
        <time>2021-05-08T12:42:25Z</time>
      </trkpt>
      <trkpt lat="40.4034730" lon="-3.8872070">
        <ele>676.0</ele>
        <time>2021-05-08T12:42:26Z</time>
      </trkpt>
      <trkpt lat="40.4033850" lon="-3.8871920">
        <ele>676.1</ele>
        <time>2021-05-08T12:42:28Z</time>
      </trkpt>
      <trkpt lat="40.4032910" lon="-3.8871750">
        <ele>676.3</ele>
        <time>2021-05-08T12:42:30Z</time>
      </trkpt>
      <trkpt lat="40.4032430" lon="-3.8871670">
        <ele>676.4</ele>
        <time>2021-05-08T12:42:31Z</time>
      </trkpt>
      <trkpt lat="40.4031680" lon="-3.8871560">
        <ele>676.6</ele>
        <time>2021-05-08T12:42:33Z</time>
      </trkpt>
      <trkpt lat="40.4031220" lon="-3.8871460">
        <ele>676.7</ele>
        <time>2021-05-08T12:42:34Z</time>
      </trkpt>
      <trkpt lat="40.4030410" lon="-3.8871220">
        <ele>676.7</ele>
        <time>2021-05-08T12:42:36Z</time>
      </trkpt>
      <trkpt lat="40.4029930" lon="-3.8871080">
        <ele>676.8</ele>
        <time>2021-05-08T12:42:37Z</time>
      </trkpt>
      <trkpt lat="40.4029060" lon="-3.8870900">
        <ele>676.9</ele>
        <time>2021-05-08T12:42:39Z</time>
      </trkpt>
      <trkpt lat="40.4028700" lon="-3.8870830">
        <ele>677.0</ele>
        <time>2021-05-08T12:42:40Z</time>
      </trkpt>
      <trkpt lat="40.4028210" lon="-3.8870710">
        <ele>677.1</ele>
        <time>2021-05-08T12:42:41Z</time>
      </trkpt>
      <trkpt lat="40.4027390" lon="-3.8870520">
        <ele>677.2</ele>
        <time>2021-05-08T12:42:43Z</time>
      </trkpt>
      <trkpt lat="40.4026810" lon="-3.8870390">
        <ele>677.3</ele>
        <time>2021-05-08T12:42:44Z</time>
      </trkpt>
      <trkpt lat="40.4026070" lon="-3.8870250">
        <ele>677.3</ele>
        <time>2021-05-08T12:42:46Z</time>
      </trkpt>
      <trkpt lat="40.4025280" lon="-3.8870000">
        <ele>677.4</ele>
        <time>2021-05-08T12:42:48Z</time>
      </trkpt>
      <trkpt lat="40.4024540" lon="-3.8869610">
        <ele>677.4</ele>
        <time>2021-05-08T12:42:50Z</time>
      </trkpt>
      <trkpt lat="40.4024020" lon="-3.8869380">
        <ele>677.5</ele>
        <time>2021-05-08T12:42:51Z</time>
      </trkpt>
      <trkpt lat="40.4023330" lon="-3.8869090">
        <ele>677.4</ele>
        <time>2021-05-08T12:42:53Z</time>
      </trkpt>
      <trkpt lat="40.4022790" lon="-3.8868860">
        <ele>677.4</ele>
        <time>2021-05-08T12:42:54Z</time>
      </trkpt>
      <trkpt lat="40.4022440" lon="-3.8868730">
        <ele>677.4</ele>
        <time>2021-05-08T12:42:55Z</time>
      </trkpt>
      <trkpt lat="40.4021470" lon="-3.8868390">
        <ele>677.2</ele>
        <time>2021-05-08T12:42:57Z</time>
      </trkpt>
      <trkpt lat="40.4020390" lon="-3.8867930">
        <ele>677.0</ele>
        <time>2021-05-08T12:42:59Z</time>
      </trkpt>
      <trkpt lat="40.4019910" lon="-3.8867700">
        <ele>676.9</ele>
        <time>2021-05-08T12:43:00Z</time>
      </trkpt>
      <trkpt lat="40.4019440" lon="-3.8867480">
        <ele>676.7</ele>
        <time>2021-05-08T12:43:01Z</time>
      </trkpt>
      <trkpt lat="40.4018400" lon="-3.8867030">
        <ele>676.4</ele>
        <time>2021-05-08T12:43:03Z</time>
      </trkpt>
      <trkpt lat="40.4017390" lon="-3.8866450">
        <ele>676.0</ele>
        <time>2021-05-08T12:43:05Z</time>
      </trkpt>
      <trkpt lat="40.4016200" lon="-3.8865870">
        <ele>675.5</ele>
        <time>2021-05-08T12:43:07Z</time>
      </trkpt>
      <trkpt lat="40.4014960" lon="-3.8865280">
        <ele>674.8</ele>
        <time>2021-05-08T12:43:09Z</time>
      </trkpt>
      <trkpt lat="40.4014310" lon="-3.8864960">
        <ele>674.4</ele>
        <time>2021-05-08T12:43:10Z</time>
      </trkpt>
      <trkpt lat="40.4013630" lon="-3.8864610">
        <ele>674.0</ele>
        <time>2021-05-08T12:43:11Z</time>
      </trkpt>
      <trkpt lat="40.4012690" lon="-3.8864070">
        <ele>673.5</ele>
        <time>2021-05-08T12:43:13Z</time>
      </trkpt>
      <trkpt lat="40.4011540" lon="-3.8863380">
        <ele>672.7</ele>
        <time>2021-05-08T12:43:14Z</time>
      </trkpt>
      <trkpt lat="40.4010170" lon="-3.8862550">
        <ele>671.9</ele>
        <time>2021-05-08T12:43:16Z</time>
      </trkpt>
      <trkpt lat="40.4008850" lon="-3.8861650">
        <ele>670.9</ele>
        <time>2021-05-08T12:43:18Z</time>
      </trkpt>
      <trkpt lat="40.4008140" lon="-3.8861150">
        <ele>670.2</ele>
        <time>2021-05-08T12:43:19Z</time>
      </trkpt>
      <trkpt lat="40.4006740" lon="-3.8860150">
        <ele>669.4</ele>
        <time>2021-05-08T12:43:21Z</time>
      </trkpt>
      <trkpt lat="40.4006030" lon="-3.8859650">
        <ele>668.9</ele>
        <time>2021-05-08T12:43:22Z</time>
      </trkpt>
      <trkpt lat="40.4005280" lon="-3.8859120">
        <ele>668.3</ele>
        <time>2021-05-08T12:43:23Z</time>
      </trkpt>
      <trkpt lat="40.4003740" lon="-3.8857930">
        <ele>667.1</ele>
        <time>2021-05-08T12:43:25Z</time>
      </trkpt>
      <trkpt lat="40.4002940" lon="-3.8857310">
        <ele>666.5</ele>
        <time>2021-05-08T12:43:26Z</time>
      </trkpt>
      <trkpt lat="40.4002150" lon="-3.8856640">
        <ele>665.9</ele>
        <time>2021-05-08T12:43:27Z</time>
      </trkpt>
      <trkpt lat="40.4000580" lon="-3.8855240">
        <ele>664.5</ele>
        <time>2021-05-08T12:43:29Z</time>
      </trkpt>
      <trkpt lat="40.3999770" lon="-3.8854520">
        <ele>663.8</ele>
        <time>2021-05-08T12:43:30Z</time>
      </trkpt>
      <trkpt lat="40.3998160" lon="-3.8853170">
        <ele>662.4</ele>
        <time>2021-05-08T12:43:32Z</time>
      </trkpt>
      <trkpt lat="40.3996810" lon="-3.8852000">
        <ele>661.2</ele>
        <time>2021-05-08T12:43:34Z</time>
      </trkpt>
      <trkpt lat="40.3996120" lon="-3.8851350">
        <ele>660.6</ele>
        <time>2021-05-08T12:43:35Z</time>
      </trkpt>
      <trkpt lat="40.3994900" lon="-3.8850100">
        <ele>659.4</ele>
        <time>2021-05-08T12:43:37Z</time>
      </trkpt>
      <trkpt lat="40.3993780" lon="-3.8848880">
        <ele>658.3</ele>
        <time>2021-05-08T12:43:39Z</time>
      </trkpt>
      <trkpt lat="40.3993160" lon="-3.8848240">
        <ele>658.1</ele>
        <time>2021-05-08T12:43:40Z</time>
      </trkpt>
      <trkpt lat="40.3992070" lon="-3.8846820">
        <ele>658.1</ele>
        <time>2021-05-08T12:43:42Z</time>
      </trkpt>
      <trkpt lat="40.3991650" lon="-3.8845960">
        <ele>658.1</ele>
        <time>2021-05-08T12:43:43Z</time>
      </trkpt>
      <trkpt lat="40.3990680" lon="-3.8844360">
        <ele>657.2</ele>
        <time>2021-05-08T12:43:45Z</time>
      </trkpt>
      <trkpt lat="40.3989810" lon="-3.8843160">
        <ele>656.4</ele>
        <time>2021-05-08T12:43:47Z</time>
      </trkpt>
      <trkpt lat="40.3989000" lon="-3.8842040">
        <ele>655.8</ele>
        <time>2021-05-08T12:43:49Z</time>
      </trkpt>
      <trkpt lat="40.3988560" lon="-3.8841440">
        <ele>655.4</ele>
        <time>2021-05-08T12:43:50Z</time>
      </trkpt>
      <trkpt lat="40.3987640" lon="-3.8840240">
        <ele>655.1</ele>
        <time>2021-05-08T12:43:52Z</time>
      </trkpt>
      <trkpt lat="40.3986810" lon="-3.8839480">
        <ele>654.8</ele>
        <time>2021-05-08T12:43:54Z</time>
      </trkpt>
      <trkpt lat="40.3985950" lon="-3.8839130">
        <ele>654.5</ele>
        <time>2021-05-08T12:43:56Z</time>
      </trkpt>
      <trkpt lat="40.3984880" lon="-3.8838970">
        <ele>654.3</ele>
        <time>2021-05-08T12:43:58Z</time>
      </trkpt>
      <trkpt lat="40.3984350" lon="-3.8838810">
        <ele>654.3</ele>
        <time>2021-05-08T12:43:59Z</time>
      </trkpt>
      <trkpt lat="40.3983620" lon="-3.8837880">
        <ele>654.1</ele>
        <time>2021-05-08T12:44:01Z</time>
      </trkpt>
      <trkpt lat="40.3983300" lon="-3.8836500">
        <ele>654.1</ele>
        <time>2021-05-08T12:44:03Z</time>
      </trkpt>
      <trkpt lat="40.3983460" lon="-3.8835100">
        <ele>654.1</ele>
        <time>2021-05-08T12:44:05Z</time>
      </trkpt>
      <trkpt lat="40.3983880" lon="-3.8833900">
        <ele>654.0</ele>
        <time>2021-05-08T12:44:07Z</time>
      </trkpt>
      <trkpt lat="40.3984070" lon="-3.8833310">
        <ele>654.0</ele>
        <time>2021-05-08T12:44:08Z</time>
      </trkpt>
      <trkpt lat="40.3984310" lon="-3.8832080">
        <ele>653.9</ele>
        <time>2021-05-08T12:44:10Z</time>
      </trkpt>
      <trkpt lat="40.3984450" lon="-3.8831420">
        <ele>653.9</ele>
        <time>2021-05-08T12:44:11Z</time>
      </trkpt>
      <trkpt lat="40.3984730" lon="-3.8830130">
        <ele>653.9</ele>
        <time>2021-05-08T12:44:13Z</time>
      </trkpt>
      <trkpt lat="40.3984880" lon="-3.8829320">
        <ele>654.0</ele>
        <time>2021-05-08T12:44:15Z</time>
      </trkpt>
      <trkpt lat="40.3985070" lon="-3.8828070">
        <ele>654.1</ele>
        <time>2021-05-08T12:44:16Z</time>
      </trkpt>
      <trkpt lat="40.3985590" lon="-3.8826880">
        <ele>654.5</ele>
        <time>2021-05-08T12:44:18Z</time>
      </trkpt>
      <trkpt lat="40.3986360" lon="-3.8826130">
        <ele>655.0</ele>
        <time>2021-05-08T12:44:20Z</time>
      </trkpt>
      <trkpt lat="40.3986980" lon="-3.8825890">
        <ele>655.3</ele>
        <time>2021-05-08T12:44:22Z</time>
      </trkpt>
      <trkpt lat="40.3987440" lon="-3.8825870">
        <ele>655.6</ele>
        <time>2021-05-08T12:44:23Z</time>
      </trkpt>
      <trkpt lat="40.3988140" lon="-3.8825960">
        <ele>656.1</ele>
        <time>2021-05-08T12:44:25Z</time>
      </trkpt>
      <trkpt lat="40.3988910" lon="-3.8826190">
        <ele>656.6</ele>
        <time>2021-05-08T12:44:27Z</time>
      </trkpt>
      <trkpt lat="40.3989680" lon="-3.8826430">
        <ele>657.1</ele>
        <time>2021-05-08T12:44:29Z</time>
      </trkpt>
      <trkpt lat="40.3990420" lon="-3.8826550">
        <ele>657.5</ele>
        <time>2021-05-08T12:44:31Z</time>
      </trkpt>
      <trkpt lat="40.3991130" lon="-3.8826760">
        <ele>657.7</ele>
        <time>2021-05-08T12:44:33Z</time>
      </trkpt>
      <trkpt lat="40.3991920" lon="-3.8826650">
        <ele>657.9</ele>
        <time>2021-05-08T12:44:35Z</time>
      </trkpt>
      <trkpt lat="40.3992990" lon="-3.8826040">
        <ele>657.6</ele>
        <time>2021-05-08T12:44:37Z</time>
      </trkpt>
      <trkpt lat="40.3993980" lon="-3.8825120">
        <ele>657.2</ele>
        <time>2021-05-08T12:44:39Z</time>
      </trkpt>
      <trkpt lat="40.3994460" lon="-3.8824690">
        <ele>657.0</ele>
        <time>2021-05-08T12:44:40Z</time>
      </trkpt>
      <trkpt lat="40.3995400" lon="-3.8823880">
        <ele>656.7</ele>
        <time>2021-05-08T12:44:42Z</time>
      </trkpt>
      <trkpt lat="40.3996180" lon="-3.8823010">
        <ele>656.5</ele>
        <time>2021-05-08T12:44:44Z</time>
      </trkpt>
      <trkpt lat="40.3996970" lon="-3.8822290">
        <ele>656.4</ele>
        <time>2021-05-08T12:44:46Z</time>
      </trkpt>
      <trkpt lat="40.3997430" lon="-3.8821970">
        <ele>656.3</ele>
        <time>2021-05-08T12:44:47Z</time>
      </trkpt>
      <trkpt lat="40.3998360" lon="-3.8821230">
        <ele>656.3</ele>
        <time>2021-05-08T12:44:49Z</time>
      </trkpt>
      <trkpt lat="40.3999150" lon="-3.8820400">
        <ele>656.4</ele>
        <time>2021-05-08T12:44:51Z</time>
      </trkpt>
      <trkpt lat="40.3999540" lon="-3.8819240">
        <ele>656.5</ele>
        <time>2021-05-08T12:44:53Z</time>
      </trkpt>
      <trkpt lat="40.3999600" lon="-3.8817820">
        <ele>656.6</ele>
        <time>2021-05-08T12:44:55Z</time>
      </trkpt>
      <trkpt lat="40.3999570" lon="-3.8817190">
        <ele>656.6</ele>
        <time>2021-05-08T12:44:56Z</time>
      </trkpt>
      <trkpt lat="40.3999610" lon="-3.8816440">
        <ele>656.6</ele>
        <time>2021-05-08T12:44:57Z</time>
      </trkpt>
      <trkpt lat="40.3999750" lon="-3.8815760">
        <ele>656.6</ele>
        <time>2021-05-08T12:44:58Z</time>
      </trkpt>
      <trkpt lat="40.4000390" lon="-3.8814730">
        <ele>656.6</ele>
        <time>2021-05-08T12:45:00Z</time>
      </trkpt>
      <trkpt lat="40.4000830" lon="-3.8814360">
        <ele>656.6</ele>
        <time>2021-05-08T12:45:01Z</time>
      </trkpt>
      <trkpt lat="40.4001300" lon="-3.8814060">
        <ele>656.7</ele>
        <time>2021-05-08T12:45:02Z</time>
      </trkpt>
      <trkpt lat="40.4002290" lon="-3.8813730">
        <ele>656.8</ele>
        <time>2021-05-08T12:45:04Z</time>
      </trkpt>
      <trkpt lat="40.4003250" lon="-3.8813740">
        <ele>657.0</ele>
        <time>2021-05-08T12:45:06Z</time>
      </trkpt>
      <trkpt lat="40.4003760" lon="-3.8813800">
        <ele>657.1</ele>
        <time>2021-05-08T12:45:07Z</time>
      </trkpt>
      <trkpt lat="40.4004260" lon="-3.8813800">
        <ele>657.2</ele>
        <time>2021-05-08T12:45:08Z</time>
      </trkpt>
      <trkpt lat="40.4005210" lon="-3.8813380">
        <ele>657.5</ele>
        <time>2021-05-08T12:45:10Z</time>
      </trkpt>
      <trkpt lat="40.4006130" lon="-3.8812600">
        <ele>657.8</ele>
        <time>2021-05-08T12:45:12Z</time>
      </trkpt>
      <trkpt lat="40.4006570" lon="-3.8812160">
        <ele>658.0</ele>
        <time>2021-05-08T12:45:13Z</time>
      </trkpt>
      <trkpt lat="40.4007000" lon="-3.8811690">
        <ele>658.1</ele>
        <time>2021-05-08T12:45:14Z</time>
      </trkpt>
      <trkpt lat="40.4007550" lon="-3.8811040">
        <ele>658.2</ele>
        <time>2021-05-08T12:45:16Z</time>
      </trkpt>
      <trkpt lat="40.4008220" lon="-3.8810290">
        <ele>658.2</ele>
        <time>2021-05-08T12:45:17Z</time>
      </trkpt>
      <trkpt lat="40.4009090" lon="-3.8809350">
        <ele>658.3</ele>
        <time>2021-05-08T12:45:19Z</time>
      </trkpt>
      <trkpt lat="40.4009930" lon="-3.8808320">
        <ele>658.5</ele>
        <time>2021-05-08T12:45:21Z</time>
      </trkpt>
      <trkpt lat="40.4010330" lon="-3.8807800">
        <ele>658.6</ele>
        <time>2021-05-08T12:45:22Z</time>
      </trkpt>
      <trkpt lat="40.4011160" lon="-3.8806740">
        <ele>658.7</ele>
        <time>2021-05-08T12:45:24Z</time>
      </trkpt>
      <trkpt lat="40.4011560" lon="-3.8806170">
        <ele>658.8</ele>
        <time>2021-05-08T12:45:25Z</time>
      </trkpt>
      <trkpt lat="40.4012430" lon="-3.8805120">
        <ele>658.9</ele>
        <time>2021-05-08T12:45:27Z</time>
      </trkpt>
      <trkpt lat="40.4012870" lon="-3.8804630">
        <ele>659.0</ele>
        <time>2021-05-08T12:45:28Z</time>
      </trkpt>
      <trkpt lat="40.4013780" lon="-3.8803620">
        <ele>659.1</ele>
        <time>2021-05-08T12:45:30Z</time>
      </trkpt>
      <trkpt lat="40.4014620" lon="-3.8802610">
        <ele>659.2</ele>
        <time>2021-05-08T12:45:32Z</time>
      </trkpt>
      <trkpt lat="40.4015030" lon="-3.8802130">
        <ele>659.3</ele>
        <time>2021-05-08T12:45:33Z</time>
      </trkpt>
      <trkpt lat="40.4015430" lon="-3.8801610">
        <ele>659.4</ele>
        <time>2021-05-08T12:45:34Z</time>
      </trkpt>
      <trkpt lat="40.4016000" lon="-3.8800900">
        <ele>659.6</ele>
        <time>2021-05-08T12:45:36Z</time>
      </trkpt>
      <trkpt lat="40.4016600" lon="-3.8800150">
        <ele>659.7</ele>
        <time>2021-05-08T12:45:37Z</time>
      </trkpt>
      <trkpt lat="40.4017050" lon="-3.8799650">
        <ele>659.9</ele>
        <time>2021-05-08T12:45:38Z</time>
      </trkpt>
      <trkpt lat="40.4017860" lon="-3.8798640">
        <ele>660.1</ele>
        <time>2021-05-08T12:45:40Z</time>
      </trkpt>
      <trkpt lat="40.4018520" lon="-3.8797680">
        <ele>660.3</ele>
        <time>2021-05-08T12:45:42Z</time>
      </trkpt>
      <trkpt lat="40.4019190" lon="-3.8796780">
        <ele>660.5</ele>
        <time>2021-05-08T12:45:44Z</time>
      </trkpt>
      <trkpt lat="40.4019910" lon="-3.8795920">
        <ele>660.6</ele>
        <time>2021-05-08T12:45:46Z</time>
      </trkpt>
      <trkpt lat="40.4020300" lon="-3.8795470">
        <ele>660.8</ele>
        <time>2021-05-08T12:45:47Z</time>
      </trkpt>
      <trkpt lat="40.4021060" lon="-3.8794590">
        <ele>661.0</ele>
        <time>2021-05-08T12:45:49Z</time>
      </trkpt>
      <trkpt lat="40.4021770" lon="-3.8793680">
        <ele>661.2</ele>
        <time>2021-05-08T12:45:51Z</time>
      </trkpt>
      <trkpt lat="40.4022130" lon="-3.8793230">
        <ele>661.3</ele>
        <time>2021-05-08T12:45:52Z</time>
      </trkpt>
      <trkpt lat="40.4022810" lon="-3.8792360">
        <ele>661.4</ele>
        <time>2021-05-08T12:45:54Z</time>
      </trkpt>
      <trkpt lat="40.4023280" lon="-3.8791710">
        <ele>661.5</ele>
        <time>2021-05-08T12:45:56Z</time>
      </trkpt>
      <trkpt lat="40.4023850" lon="-3.8791100">
        <ele>661.6</ele>
        <time>2021-05-08T12:45:57Z</time>
      </trkpt>
      <trkpt lat="40.4024600" lon="-3.8790240">
        <ele>661.8</ele>
        <time>2021-05-08T12:45:59Z</time>
      </trkpt>
      <trkpt lat="40.4024960" lon="-3.8789790">
        <ele>661.9</ele>
        <time>2021-05-08T12:46:00Z</time>
      </trkpt>
      <trkpt lat="40.4025640" lon="-3.8788880">
        <ele>662.1</ele>
        <time>2021-05-08T12:46:02Z</time>
      </trkpt>
      <trkpt lat="40.4026320" lon="-3.8787990">
        <ele>662.3</ele>
        <time>2021-05-08T12:46:04Z</time>
      </trkpt>
      <trkpt lat="40.4026670" lon="-3.8787550">
        <ele>662.4</ele>
        <time>2021-05-08T12:46:05Z</time>
      </trkpt>
      <trkpt lat="40.4027370" lon="-3.8786730">
        <ele>662.6</ele>
        <time>2021-05-08T12:46:07Z</time>
      </trkpt>
      <trkpt lat="40.4028100" lon="-3.8785910">
        <ele>662.9</ele>
        <time>2021-05-08T12:46:09Z</time>
      </trkpt>
      <trkpt lat="40.4028820" lon="-3.8785040">
        <ele>663.1</ele>
        <time>2021-05-08T12:46:11Z</time>
      </trkpt>
      <trkpt lat="40.4029520" lon="-3.8784130">
        <ele>663.4</ele>
        <time>2021-05-08T12:46:13Z</time>
      </trkpt>
      <trkpt lat="40.4030210" lon="-3.8783260">
        <ele>663.7</ele>
        <time>2021-05-08T12:46:15Z</time>
      </trkpt>
      <trkpt lat="40.4030490" lon="-3.8782900">
        <ele>663.8</ele>
        <time>2021-05-08T12:46:16Z</time>
      </trkpt>
      <trkpt lat="40.4031180" lon="-3.8781980">
        <ele>664.1</ele>
        <time>2021-05-08T12:46:18Z</time>
      </trkpt>
      <trkpt lat="40.4031850" lon="-3.8781240">
        <ele>664.3</ele>
        <time>2021-05-08T12:46:20Z</time>
      </trkpt>
      <trkpt lat="40.4032180" lon="-3.8780860">
        <ele>664.4</ele>
        <time>2021-05-08T12:46:21Z</time>
      </trkpt>
      <trkpt lat="40.4032510" lon="-3.8780450">
        <ele>664.6</ele>
        <time>2021-05-08T12:46:22Z</time>
      </trkpt>
      <trkpt lat="40.4032990" lon="-3.8779790">
        <ele>664.7</ele>
        <time>2021-05-08T12:46:24Z</time>
      </trkpt>
      <trkpt lat="40.4033290" lon="-3.8779360">
        <ele>664.8</ele>
        <time>2021-05-08T12:46:25Z</time>
      </trkpt>
      <trkpt lat="40.4033860" lon="-3.8779250">
        <ele>664.9</ele>
        <time>2021-05-08T12:46:27Z</time>
      </trkpt>
      <trkpt lat="40.4034240" lon="-3.8778660">
        <ele>665.0</ele>
        <time>2021-05-08T12:46:28Z</time>
      </trkpt>
      <trkpt lat="40.4034560" lon="-3.8778130">
        <ele>665.1</ele>
        <time>2021-05-08T12:46:30Z</time>
      </trkpt>
      <trkpt lat="40.4034760" lon="-3.8777600">
        <ele>665.1</ele>
        <time>2021-05-08T12:46:31Z</time>
      </trkpt>
      <trkpt lat="40.4034930" lon="-3.8776940">
        <ele>665.1</ele>
        <time>2021-05-08T12:46:32Z</time>
      </trkpt>
      <trkpt lat="40.4035010" lon="-3.8776500">
        <ele>665.1</ele>
        <time>2021-05-08T12:46:33Z</time>
      </trkpt>
      <trkpt lat="40.4035080" lon="-3.8776140">
        <ele>665.1</ele>
        <time>2021-05-08T12:46:35Z</time>
      </trkpt>
      <trkpt lat="40.4035150" lon="-3.8775680">
        <ele>665.1</ele>
        <time>2021-05-08T12:46:36Z</time>
      </trkpt>
      <trkpt lat="40.4035140" lon="-3.8775270">
        <ele>665.1</ele>
        <time>2021-05-08T12:46:38Z</time>
      </trkpt>
      <trkpt lat="40.4035150" lon="-3.8775010">
        <ele>665.1</ele>
        <time>2021-05-08T12:46:39Z</time>
      </trkpt>
      <trkpt lat="40.4035150" lon="-3.8774450">
        <ele>665.1</ele>
        <time>2021-05-08T12:46:41Z</time>
      </trkpt>
      <trkpt lat="40.4035210" lon="-3.8773630">
        <ele>665.1</ele>
        <time>2021-05-08T12:46:42Z</time>
      </trkpt>
      <trkpt lat="40.4035390" lon="-3.8772930">
        <ele>665.0</ele>
        <time>2021-05-08T12:46:44Z</time>
      </trkpt>
      <trkpt lat="40.4035580" lon="-3.8771960">
        <ele>664.9</ele>
        <time>2021-05-08T12:46:46Z</time>
      </trkpt>
      <trkpt lat="40.4035610" lon="-3.8771050">
        <ele>664.8</ele>
        <time>2021-05-08T12:46:47Z</time>
      </trkpt>
      <trkpt lat="40.4035590" lon="-3.8770380">
        <ele>664.7</ele>
        <time>2021-05-08T12:46:48Z</time>
      </trkpt>
      <trkpt lat="40.4035460" lon="-3.8768930">
        <ele>664.4</ele>
        <time>2021-05-08T12:46:50Z</time>
      </trkpt>
      <trkpt lat="40.4035370" lon="-3.8768150">
        <ele>664.3</ele>
        <time>2021-05-08T12:46:51Z</time>
      </trkpt>
      <trkpt lat="40.4035310" lon="-3.8766710">
        <ele>663.9</ele>
        <time>2021-05-08T12:46:53Z</time>
      </trkpt>
      <trkpt lat="40.4034970" lon="-3.8765340">
        <ele>663.7</ele>
        <time>2021-05-08T12:46:55Z</time>
      </trkpt>
      <trkpt lat="40.4034780" lon="-3.8764620">
        <ele>663.5</ele>
        <time>2021-05-08T12:46:56Z</time>
      </trkpt>
      <trkpt lat="40.4034590" lon="-3.8763910">
        <ele>663.4</ele>
        <time>2021-05-08T12:46:57Z</time>
      </trkpt>
      <trkpt lat="40.4034490" lon="-3.8762460">
        <ele>663.2</ele>
        <time>2021-05-08T12:46:59Z</time>
      </trkpt>
      <trkpt lat="40.4034730" lon="-3.8761000">
        <ele>663.0</ele>
        <time>2021-05-08T12:47:01Z</time>
      </trkpt>
      <trkpt lat="40.4035050" lon="-3.8759640">
        <ele>662.9</ele>
        <time>2021-05-08T12:47:03Z</time>
      </trkpt>
      <trkpt lat="40.4035330" lon="-3.8759080">
        <ele>662.9</ele>
        <time>2021-05-08T12:47:04Z</time>
      </trkpt>
      <trkpt lat="40.4035670" lon="-3.8758590">
        <ele>662.8</ele>
        <time>2021-05-08T12:47:05Z</time>
      </trkpt>
      <trkpt lat="40.4036510" lon="-3.8757620">
        <ele>662.8</ele>
        <time>2021-05-08T12:47:07Z</time>
      </trkpt>
      <trkpt lat="40.4036970" lon="-3.8757140">
        <ele>662.8</ele>
        <time>2021-05-08T12:47:08Z</time>
      </trkpt>
      <trkpt lat="40.4037770" lon="-3.8756180">
        <ele>662.8</ele>
        <time>2021-05-08T12:47:10Z</time>
      </trkpt>
      <trkpt lat="40.4038080" lon="-3.8755620">
        <ele>662.8</ele>
        <time>2021-05-08T12:47:11Z</time>
      </trkpt>
      <trkpt lat="40.4038800" lon="-3.8754570">
        <ele>662.8</ele>
        <time>2021-05-08T12:47:13Z</time>
      </trkpt>
      <trkpt lat="40.4039530" lon="-3.8753510">
        <ele>662.9</ele>
        <time>2021-05-08T12:47:15Z</time>
      </trkpt>
      <trkpt lat="40.4040200" lon="-3.8752390">
        <ele>662.9</ele>
        <time>2021-05-08T12:47:17Z</time>
      </trkpt>
      <trkpt lat="40.4040540" lon="-3.8751760">
        <ele>662.9</ele>
        <time>2021-05-08T12:47:18Z</time>
      </trkpt>
      <trkpt lat="40.4041140" lon="-3.8750380">
        <ele>662.8</ele>
        <time>2021-05-08T12:47:20Z</time>
      </trkpt>
      <trkpt lat="40.4041310" lon="-3.8749600">
        <ele>662.8</ele>
        <time>2021-05-08T12:47:21Z</time>
      </trkpt>
      <trkpt lat="40.4041450" lon="-3.8747900">
        <ele>662.9</ele>
        <time>2021-05-08T12:47:23Z</time>
      </trkpt>
      <trkpt lat="40.4041440" lon="-3.8747060">
        <ele>662.9</ele>
        <time>2021-05-08T12:47:24Z</time>
      </trkpt>
      <trkpt lat="40.4041390" lon="-3.8746370">
        <ele>663.0</ele>
        <time>2021-05-08T12:47:25Z</time>
      </trkpt>
      <trkpt lat="40.4041360" lon="-3.8745740">
        <ele>663.1</ele>
        <time>2021-05-08T12:47:26Z</time>
      </trkpt>
      <trkpt lat="40.4041390" lon="-3.8744660">
        <ele>663.2</ele>
        <time>2021-05-08T12:47:28Z</time>
      </trkpt>
      <trkpt lat="40.4041470" lon="-3.8743940">
        <ele>663.4</ele>
        <time>2021-05-08T12:47:30Z</time>
      </trkpt>
      <trkpt lat="40.4041520" lon="-3.8743430">
        <ele>663.5</ele>
        <time>2021-05-08T12:47:31Z</time>
      </trkpt>
      <trkpt lat="40.4041670" lon="-3.8742690">
        <ele>663.7</ele>
        <time>2021-05-08T12:47:33Z</time>
      </trkpt>
      <trkpt lat="40.4041740" lon="-3.8742350">
        <ele>663.8</ele>
        <time>2021-05-08T12:47:34Z</time>
      </trkpt>
      <trkpt lat="40.4041750" lon="-3.8741800">
        <ele>663.9</ele>
        <time>2021-05-08T12:47:36Z</time>
      </trkpt>
      <trkpt lat="40.4041940" lon="-3.8741350">
        <ele>664.1</ele>
        <time>2021-05-08T12:47:37Z</time>
      </trkpt>
      <trkpt lat="40.4042060" lon="-3.8740970">
        <ele>664.2</ele>
        <time>2021-05-08T12:47:38Z</time>
      </trkpt>
      <trkpt lat="40.4042160" lon="-3.8740600">
        <ele>664.3</ele>
        <time>2021-05-08T12:47:39Z</time>
      </trkpt>
      <trkpt lat="40.4042160" lon="-3.8739880">
        <ele>664.4</ele>
        <time>2021-05-08T12:47:41Z</time>
      </trkpt>
      <trkpt lat="40.4042010" lon="-3.8739500">
        <ele>664.4</ele>
        <time>2021-05-08T12:47:42Z</time>
      </trkpt>
      <trkpt lat="40.4041780" lon="-3.8739190">
        <ele>664.4</ele>
        <time>2021-05-08T12:47:43Z</time>
      </trkpt>
      <trkpt lat="40.4041450" lon="-3.8738900">
        <ele>664.5</ele>
        <time>2021-05-08T12:47:44Z</time>
      </trkpt>
      <trkpt lat="40.4041050" lon="-3.8738510">
        <ele>664.5</ele>
        <time>2021-05-08T12:47:45Z</time>
      </trkpt>
      <trkpt lat="40.4040740" lon="-3.8738190">
        <ele>664.6</ele>
        <time>2021-05-08T12:47:46Z</time>
      </trkpt>
      <trkpt lat="40.4040370" lon="-3.8737750">
        <ele>664.7</ele>
        <time>2021-05-08T12:47:48Z</time>
      </trkpt>
      <trkpt lat="40.4040030" lon="-3.8737400">
        <ele>664.8</ele>
        <time>2021-05-08T12:47:49Z</time>
      </trkpt>
      <trkpt lat="40.4039640" lon="-3.8736970">
        <ele>664.9</ele>
        <time>2021-05-08T12:47:50Z</time>
      </trkpt>
      <trkpt lat="40.4039360" lon="-3.8736650">
        <ele>665.0</ele>
        <time>2021-05-08T12:47:51Z</time>
      </trkpt>
      <trkpt lat="40.4039070" lon="-3.8736350">
        <ele>665.1</ele>
        <time>2021-05-08T12:47:52Z</time>
      </trkpt>
      <trkpt lat="40.4038630" lon="-3.8735840">
        <ele>665.2</ele>
        <time>2021-05-08T12:47:53Z</time>
      </trkpt>
      <trkpt lat="40.4038290" lon="-3.8735400">
        <ele>665.4</ele>
        <time>2021-05-08T12:47:55Z</time>
      </trkpt>
      <trkpt lat="40.4038010" lon="-3.8735030">
        <ele>665.5</ele>
        <time>2021-05-08T12:47:56Z</time>
      </trkpt>
      <trkpt lat="40.4037630" lon="-3.8734580">
        <ele>665.6</ele>
        <time>2021-05-08T12:47:57Z</time>
      </trkpt>
      <trkpt lat="40.4037270" lon="-3.8734110">
        <ele>665.8</ele>
        <time>2021-05-08T12:47:59Z</time>
      </trkpt>
      <trkpt lat="40.4037010" lon="-3.8733850">
        <ele>665.9</ele>
        <time>2021-05-08T12:48:00Z</time>
      </trkpt>
      <trkpt lat="40.4036670" lon="-3.8733470">
        <ele>666.1</ele>
        <time>2021-05-08T12:48:01Z</time>
      </trkpt>
      <trkpt lat="40.4036380" lon="-3.8733130">
        <ele>666.2</ele>
        <time>2021-05-08T12:48:03Z</time>
      </trkpt>
      <trkpt lat="40.4036110" lon="-3.8732770">
        <ele>666.4</ele>
        <time>2021-05-08T12:48:04Z</time>
      </trkpt>
      <trkpt lat="40.4035780" lon="-3.8732290">
        <ele>666.5</ele>
        <time>2021-05-08T12:48:06Z</time>
      </trkpt>
      <trkpt lat="40.4035630" lon="-3.8731970">
        <ele>666.6</ele>
        <time>2021-05-08T12:48:07Z</time>
      </trkpt>
      <trkpt lat="40.4035380" lon="-3.8731560">
        <ele>666.8</ele>
        <time>2021-05-08T12:48:08Z</time>
      </trkpt>
      <trkpt lat="40.4035130" lon="-3.8731100">
        <ele>667.0</ele>
        <time>2021-05-08T12:48:10Z</time>
      </trkpt>
      <trkpt lat="40.4034740" lon="-3.8730660">
        <ele>667.2</ele>
        <time>2021-05-08T12:48:12Z</time>
      </trkpt>
      <trkpt lat="40.4034530" lon="-3.8730470">
        <ele>667.3</ele>
        <time>2021-05-08T12:48:13Z</time>
      </trkpt>
      <trkpt lat="40.4034230" lon="-3.8730100">
        <ele>667.5</ele>
        <time>2021-05-08T12:48:15Z</time>
      </trkpt>
      <trkpt lat="40.4033910" lon="-3.8729670">
        <ele>667.7</ele>
        <time>2021-05-08T12:48:17Z</time>
      </trkpt>
      <trkpt lat="40.4033690" lon="-3.8729400">
        <ele>667.8</ele>
        <time>2021-05-08T12:48:18Z</time>
      </trkpt>
      <trkpt lat="40.4033280" lon="-3.8728950">
        <ele>668.1</ele>
        <time>2021-05-08T12:48:20Z</time>
      </trkpt>
      <trkpt lat="40.4033050" lon="-3.8728640">
        <ele>668.3</ele>
        <time>2021-05-08T12:48:21Z</time>
      </trkpt>
      <trkpt lat="40.4032770" lon="-3.8728280">
        <ele>668.5</ele>
        <time>2021-05-08T12:48:22Z</time>
      </trkpt>
      <trkpt lat="40.4032390" lon="-3.8727800">
        <ele>668.8</ele>
        <time>2021-05-08T12:48:24Z</time>
      </trkpt>
      <trkpt lat="40.4032110" lon="-3.8727460">
        <ele>669.0</ele>
        <time>2021-05-08T12:48:25Z</time>
      </trkpt>
      <trkpt lat="40.4031680" lon="-3.8726880">
        <ele>669.3</ele>
        <time>2021-05-08T12:48:27Z</time>
      </trkpt>
      <trkpt lat="40.4031470" lon="-3.8726580">
        <ele>669.4</ele>
        <time>2021-05-08T12:48:28Z</time>
      </trkpt>
      <trkpt lat="40.4031060" lon="-3.8725990">
        <ele>669.7</ele>
        <time>2021-05-08T12:48:30Z</time>
      </trkpt>
      <trkpt lat="40.4030790" lon="-3.8725670">
        <ele>669.8</ele>
        <time>2021-05-08T12:48:31Z</time>
      </trkpt>
      <trkpt lat="40.4030370" lon="-3.8725120">
        <ele>670.0</ele>
        <time>2021-05-08T12:48:33Z</time>
      </trkpt>
      <trkpt lat="40.4030160" lon="-3.8724850">
        <ele>670.1</ele>
        <time>2021-05-08T12:48:34Z</time>
      </trkpt>
      <trkpt lat="40.4029790" lon="-3.8724360">
        <ele>670.3</ele>
        <time>2021-05-08T12:48:35Z</time>
      </trkpt>
      <trkpt lat="40.4029500" lon="-3.8723960">
        <ele>670.5</ele>
        <time>2021-05-08T12:48:37Z</time>
      </trkpt>
      <trkpt lat="40.4029080" lon="-3.8723390">
        <ele>670.8</ele>
        <time>2021-05-08T12:48:39Z</time>
      </trkpt>
      <trkpt lat="40.4028740" lon="-3.8722910">
        <ele>671.1</ele>
        <time>2021-05-08T12:48:40Z</time>
      </trkpt>
      <trkpt lat="40.4028510" lon="-3.8722530">
        <ele>671.3</ele>
        <time>2021-05-08T12:48:42Z</time>
      </trkpt>
      <trkpt lat="40.4028230" lon="-3.8722090">
        <ele>671.6</ele>
        <time>2021-05-08T12:48:43Z</time>
      </trkpt>
      <trkpt lat="40.4027960" lon="-3.8721640">
        <ele>671.9</ele>
        <time>2021-05-08T12:48:45Z</time>
      </trkpt>
      <trkpt lat="40.4027780" lon="-3.8721320">
        <ele>672.1</ele>
        <time>2021-05-08T12:48:46Z</time>
      </trkpt>
      <trkpt lat="40.4027520" lon="-3.8720830">
        <ele>672.4</ele>
        <time>2021-05-08T12:48:47Z</time>
      </trkpt>
      <trkpt lat="40.4027310" lon="-3.8720440">
        <ele>672.7</ele>
        <time>2021-05-08T12:48:48Z</time>
      </trkpt>
      <trkpt lat="40.4026970" lon="-3.8719720">
        <ele>673.2</ele>
        <time>2021-05-08T12:48:50Z</time>
      </trkpt>
      <trkpt lat="40.4026680" lon="-3.8719190">
        <ele>673.6</ele>
        <time>2021-05-08T12:48:52Z</time>
      </trkpt>
      <trkpt lat="40.4026440" lon="-3.8718810">
        <ele>673.9</ele>
        <time>2021-05-08T12:48:53Z</time>
      </trkpt>
      <trkpt lat="40.4026290" lon="-3.8718510">
        <ele>674.1</ele>
        <time>2021-05-08T12:48:54Z</time>
      </trkpt>
      <trkpt lat="40.4026000" lon="-3.8717960">
        <ele>674.6</ele>
        <time>2021-05-08T12:48:56Z</time>
      </trkpt>
      <trkpt lat="40.4025800" lon="-3.8717590">
        <ele>674.9</ele>
        <time>2021-05-08T12:48:57Z</time>
      </trkpt>
      <trkpt lat="40.4025740" lon="-3.8717490">
        <ele>675.0</ele>
        <time>2021-05-08T12:48:58Z</time>
      </trkpt>
      <trkpt lat="40.4025570" lon="-3.8717200">
        <ele>675.2</ele>
        <time>2021-05-08T12:48:59Z</time>
      </trkpt>
      <trkpt lat="40.4025300" lon="-3.8716730">
        <ele>675.6</ele>
        <time>2021-05-08T12:49:01Z</time>
      </trkpt>
      <trkpt lat="40.4025220" lon="-3.8716560">
        <ele>675.7</ele>
        <time>2021-05-08T12:49:02Z</time>
      </trkpt>
      <trkpt lat="40.4025130" lon="-3.8716390">
        <ele>675.9</ele>
        <time>2021-05-08T12:49:03Z</time>
      </trkpt>
      <trkpt lat="40.4024980" lon="-3.8716100">
        <ele>676.1</ele>
        <time>2021-05-08T12:49:04Z</time>
      </trkpt>
      <trkpt lat="40.4024790" lon="-3.8715730">
        <ele>676.4</ele>
        <time>2021-05-08T12:49:06Z</time>
      </trkpt>
      <trkpt lat="40.4024590" lon="-3.8715410">
        <ele>676.7</ele>
        <time>2021-05-08T12:49:07Z</time>
      </trkpt>
      <trkpt lat="40.4024340" lon="-3.8714940">
        <ele>677.1</ele>
        <time>2021-05-08T12:49:09Z</time>
      </trkpt>
      <trkpt lat="40.4024100" lon="-3.8714500">
        <ele>677.5</ele>
        <time>2021-05-08T12:49:11Z</time>
      </trkpt>
      <trkpt lat="40.4023920" lon="-3.8714220">
        <ele>677.7</ele>
        <time>2021-05-08T12:49:12Z</time>
      </trkpt>
      <trkpt lat="40.4023730" lon="-3.8713830">
        <ele>678.0</ele>
        <time>2021-05-08T12:49:13Z</time>
      </trkpt>
      <trkpt lat="40.4023490" lon="-3.8713380">
        <ele>678.4</ele>
        <time>2021-05-08T12:49:15Z</time>
      </trkpt>
      <trkpt lat="40.4023310" lon="-3.8712960">
        <ele>678.7</ele>
        <time>2021-05-08T12:49:16Z</time>
      </trkpt>
      <trkpt lat="40.4023250" lon="-3.8712810">
        <ele>678.9</ele>
        <time>2021-05-08T12:49:17Z</time>
      </trkpt>
      <trkpt lat="40.4023150" lon="-3.8712540">
        <ele>679.1</ele>
        <time>2021-05-08T12:49:18Z</time>
      </trkpt>
      <trkpt lat="40.4022980" lon="-3.8712190">
        <ele>679.3</ele>
        <time>2021-05-08T12:49:20Z</time>
      </trkpt>
      <trkpt lat="40.4022780" lon="-3.8711780">
        <ele>679.7</ele>
        <time>2021-05-08T12:49:21Z</time>
      </trkpt>
      <trkpt lat="40.4022650" lon="-3.8711530">
        <ele>679.9</ele>
        <time>2021-05-08T12:49:22Z</time>
      </trkpt>
      <trkpt lat="40.4022480" lon="-3.8711220">
        <ele>680.1</ele>
        <time>2021-05-08T12:49:24Z</time>
      </trkpt>
      <trkpt lat="40.4022310" lon="-3.8710850">
        <ele>680.4</ele>
        <time>2021-05-08T12:49:25Z</time>
      </trkpt>
      <trkpt lat="40.4022110" lon="-3.8710420">
        <ele>680.7</ele>
        <time>2021-05-08T12:49:27Z</time>
      </trkpt>
      <trkpt lat="40.4021890" lon="-3.8710000">
        <ele>681.1</ele>
        <time>2021-05-08T12:49:28Z</time>
      </trkpt>
      <trkpt lat="40.4021790" lon="-3.8709840">
        <ele>681.2</ele>
        <time>2021-05-08T12:49:29Z</time>
      </trkpt>
      <trkpt lat="40.4021610" lon="-3.8709490">
        <ele>681.5</ele>
        <time>2021-05-08T12:49:31Z</time>
      </trkpt>
      <trkpt lat="40.4021380" lon="-3.8709100">
        <ele>681.8</ele>
        <time>2021-05-08T12:49:33Z</time>
      </trkpt>
      <trkpt lat="40.4021220" lon="-3.8708800">
        <ele>682.1</ele>
        <time>2021-05-08T12:49:34Z</time>
      </trkpt>
      <trkpt lat="40.4020920" lon="-3.8708260">
        <ele>682.5</ele>
        <time>2021-05-08T12:49:36Z</time>
      </trkpt>
      <trkpt lat="40.4020740" lon="-3.8707870">
        <ele>682.8</ele>
        <time>2021-05-08T12:49:38Z</time>
      </trkpt>
      <trkpt lat="40.4020640" lon="-3.8707680">
        <ele>683.0</ele>
        <time>2021-05-08T12:49:39Z</time>
      </trkpt>
      <trkpt lat="40.4020370" lon="-3.8707140">
        <ele>683.4</ele>
        <time>2021-05-08T12:49:41Z</time>
      </trkpt>
      <trkpt lat="40.4020150" lon="-3.8706800">
        <ele>683.7</ele>
        <time>2021-05-08T12:49:42Z</time>
      </trkpt>
      <trkpt lat="40.4020060" lon="-3.8706670">
        <ele>683.9</ele>
        <time>2021-05-08T12:49:43Z</time>
      </trkpt>
      <trkpt lat="40.4019840" lon="-3.8706300">
        <ele>684.2</ele>
        <time>2021-05-08T12:49:45Z</time>
      </trkpt>
      <trkpt lat="40.4019780" lon="-3.8706190">
        <ele>684.3</ele>
        <time>2021-05-08T12:49:46Z</time>
      </trkpt>
      <trkpt lat="40.4019550" lon="-3.8705760">
        <ele>684.6</ele>
        <time>2021-05-08T12:49:47Z</time>
      </trkpt>
      <trkpt lat="40.4019460" lon="-3.8705590">
        <ele>684.8</ele>
        <time>2021-05-08T12:49:48Z</time>
      </trkpt>
      <trkpt lat="40.4019290" lon="-3.8705290">
        <ele>685.0</ele>
        <time>2021-05-08T12:49:50Z</time>
      </trkpt>
      <trkpt lat="40.4019140" lon="-3.8705060">
        <ele>685.2</ele>
        <time>2021-05-08T12:49:51Z</time>
      </trkpt>
      <trkpt lat="40.4018850" lon="-3.8704610">
        <ele>685.6</ele>
        <time>2021-05-08T12:49:53Z</time>
      </trkpt>
      <trkpt lat="40.4018680" lon="-3.8704190">
        <ele>685.9</ele>
        <time>2021-05-08T12:49:54Z</time>
      </trkpt>
      <trkpt lat="40.4018590" lon="-3.8704030">
        <ele>686.1</ele>
        <time>2021-05-08T12:49:55Z</time>
      </trkpt>
      <trkpt lat="40.4018290" lon="-3.8703500">
        <ele>686.5</ele>
        <time>2021-05-08T12:49:57Z</time>
      </trkpt>
      <trkpt lat="40.4018190" lon="-3.8703300">
        <ele>686.6</ele>
        <time>2021-05-08T12:49:58Z</time>
      </trkpt>
      <trkpt lat="40.4018090" lon="-3.8703100">
        <ele>686.8</ele>
        <time>2021-05-08T12:49:59Z</time>
      </trkpt>
      <trkpt lat="40.4017860" lon="-3.8702630">
        <ele>687.1</ele>
        <time>2021-05-08T12:50:00Z</time>
      </trkpt>
      <trkpt lat="40.4017770" lon="-3.8702460">
        <ele>687.3</ele>
        <time>2021-05-08T12:50:01Z</time>
      </trkpt>
      <trkpt lat="40.4017520" lon="-3.8702070">
        <ele>687.6</ele>
        <time>2021-05-08T12:50:03Z</time>
      </trkpt>
      <trkpt lat="40.4017420" lon="-3.8701920">
        <ele>687.7</ele>
        <time>2021-05-08T12:50:04Z</time>
      </trkpt>
      <trkpt lat="40.4017260" lon="-3.8701630">
        <ele>687.9</ele>
        <time>2021-05-08T12:50:06Z</time>
      </trkpt>
      <trkpt lat="40.4017080" lon="-3.8701370">
        <ele>688.1</ele>
        <time>2021-05-08T12:50:07Z</time>
      </trkpt>
      <trkpt lat="40.4016810" lon="-3.8700940">
        <ele>688.4</ele>
        <time>2021-05-08T12:50:09Z</time>
      </trkpt>
      <trkpt lat="40.4016630" lon="-3.8700630">
        <ele>688.7</ele>
        <time>2021-05-08T12:50:10Z</time>
      </trkpt>
      <trkpt lat="40.4016450" lon="-3.8700260">
        <ele>688.9</ele>
        <time>2021-05-08T12:50:11Z</time>
      </trkpt>
      <trkpt lat="40.4016380" lon="-3.8700150">
        <ele>689.0</ele>
        <time>2021-05-08T12:50:12Z</time>
      </trkpt>
      <trkpt lat="40.4016160" lon="-3.8699760">
        <ele>689.2</ele>
        <time>2021-05-08T12:50:14Z</time>
      </trkpt>
      <trkpt lat="40.4016080" lon="-3.8699640">
        <ele>689.3</ele>
        <time>2021-05-08T12:50:15Z</time>
      </trkpt>
      <trkpt lat="40.4015920" lon="-3.8699350">
        <ele>689.5</ele>
        <time>2021-05-08T12:50:16Z</time>
      </trkpt>
      <trkpt lat="40.4015730" lon="-3.8699010">
        <ele>689.6</ele>
        <time>2021-05-08T12:50:18Z</time>
      </trkpt>
      <trkpt lat="40.4015620" lon="-3.8698780">
        <ele>689.8</ele>
        <time>2021-05-08T12:50:19Z</time>
      </trkpt>
      <trkpt lat="40.4015320" lon="-3.8698320">
        <ele>690.0</ele>
        <time>2021-05-08T12:50:21Z</time>
      </trkpt>
      <trkpt lat="40.4015120" lon="-3.8698060">
        <ele>690.1</ele>
        <time>2021-05-08T12:50:22Z</time>
      </trkpt>
      <trkpt lat="40.4015060" lon="-3.8697950">
        <ele>690.1</ele>
        <time>2021-05-08T12:50:23Z</time>
      </trkpt>
      <trkpt lat="40.4014920" lon="-3.8697750">
        <ele>690.2</ele>
        <time>2021-05-08T12:50:25Z</time>
      </trkpt>
      <trkpt lat="40.4006440" lon="-3.8695890">
        <ele>689.6</ele>
        <time>2021-05-08T12:51:18Z</time>
      </trkpt>
      <trkpt lat="40.4006210" lon="-3.8695610">
        <ele>689.6</ele>
        <time>2021-05-08T12:51:19Z</time>
      </trkpt>
      <trkpt lat="40.4005600" lon="-3.8695120">
        <ele>689.7</ele>
        <time>2021-05-08T12:51:21Z</time>
      </trkpt>
      <trkpt lat="40.4005180" lon="-3.8694750">
        <ele>689.7</ele>
        <time>2021-05-08T12:51:22Z</time>
      </trkpt>
      <trkpt lat="40.4004880" lon="-3.8694380">
        <ele>689.8</ele>
        <time>2021-05-08T12:51:23Z</time>
      </trkpt>
      <trkpt lat="40.4004620" lon="-3.8693910">
        <ele>689.9</ele>
        <time>2021-05-08T12:51:24Z</time>
      </trkpt>
      <trkpt lat="40.4004390" lon="-3.8693360">
        <ele>690.0</ele>
        <time>2021-05-08T12:51:26Z</time>
      </trkpt>
      <trkpt lat="40.4004300" lon="-3.8692940">
        <ele>690.1</ele>
        <time>2021-05-08T12:51:27Z</time>
      </trkpt>
      <trkpt lat="40.4004100" lon="-3.8692610">
        <ele>690.1</ele>
        <time>2021-05-08T12:51:28Z</time>
      </trkpt>
      <trkpt lat="40.4003970" lon="-3.8692290">
        <ele>690.2</ele>
        <time>2021-05-08T12:51:30Z</time>
      </trkpt>
      <trkpt lat="40.4003930" lon="-3.8691890">
        <ele>690.2</ele>
        <time>2021-05-08T12:51:31Z</time>
      </trkpt>
      <trkpt lat="40.4004000" lon="-3.8691270">
        <ele>690.3</ele>
        <time>2021-05-08T12:51:33Z</time>
      </trkpt>
      <trkpt lat="40.4004000" lon="-3.8690900">
        <ele>690.3</ele>
        <time>2021-05-08T12:51:34Z</time>
      </trkpt>
      <trkpt lat="40.4003990" lon="-3.8690160">
        <ele>690.3</ele>
        <time>2021-05-08T12:51:35Z</time>
      </trkpt>
      <trkpt lat="40.4004030" lon="-3.8689530">
        <ele>690.4</ele>
        <time>2021-05-08T12:51:37Z</time>
      </trkpt>
      <trkpt lat="40.4004080" lon="-3.8689010">
        <ele>690.4</ele>
        <time>2021-05-08T12:51:38Z</time>
      </trkpt>
      <trkpt lat="40.4004150" lon="-3.8688520">
        <ele>690.5</ele>
        <time>2021-05-08T12:51:39Z</time>
      </trkpt>
      <trkpt lat="40.4004310" lon="-3.8687740">
        <ele>690.5</ele>
        <time>2021-05-08T12:51:41Z</time>
      </trkpt>
      <trkpt lat="40.4004550" lon="-3.8687210">
        <ele>690.8</ele>
        <time>2021-05-08T12:51:42Z</time>
      </trkpt>
      <trkpt lat="40.4005040" lon="-3.8686420">
        <ele>691.1</ele>
        <time>2021-05-08T12:51:44Z</time>
      </trkpt>
      <trkpt lat="40.4005270" lon="-3.8686050">
        <ele>691.2</ele>
        <time>2021-05-08T12:51:45Z</time>
      </trkpt>
      <trkpt lat="40.4005690" lon="-3.8685400">
        <ele>691.4</ele>
        <time>2021-05-08T12:51:47Z</time>
      </trkpt>
      <trkpt lat="40.4005980" lon="-3.8685060">
        <ele>691.5</ele>
        <time>2021-05-08T12:51:48Z</time>
      </trkpt>
      <trkpt lat="40.4006470" lon="-3.8684740">
        <ele>691.7</ele>
        <time>2021-05-08T12:51:49Z</time>
      </trkpt>
      <trkpt lat="40.4006810" lon="-3.8684530">
        <ele>691.8</ele>
        <time>2021-05-08T12:51:50Z</time>
      </trkpt>
      <trkpt lat="40.4007260" lon="-3.8684300">
        <ele>692.0</ele>
        <time>2021-05-08T12:51:51Z</time>
      </trkpt>
      <trkpt lat="40.4008140" lon="-3.8683750">
        <ele>692.3</ele>
        <time>2021-05-08T12:51:53Z</time>
      </trkpt>
      <trkpt lat="40.4008400" lon="-3.8683140">
        <ele>692.7</ele>
        <time>2021-05-08T12:51:54Z</time>
      </trkpt>
      <trkpt lat="40.4008650" lon="-3.8682670">
        <ele>692.8</ele>
        <time>2021-05-08T12:51:55Z</time>
      </trkpt>
      <trkpt lat="40.4008810" lon="-3.8682220">
        <ele>693.0</ele>
        <time>2021-05-08T12:51:56Z</time>
      </trkpt>
      <trkpt lat="40.4008860" lon="-3.8681340">
        <ele>693.2</ele>
        <time>2021-05-08T12:51:58Z</time>
      </trkpt>
      <trkpt lat="40.4008780" lon="-3.8681120">
        <ele>693.3</ele>
        <time>2021-05-08T12:51:59Z</time>
      </trkpt>
      <trkpt lat="40.4008530" lon="-3.8679860">
        <ele>693.6</ele>
        <time>2021-05-08T12:52:01Z</time>
      </trkpt>
      <trkpt lat="40.4008320" lon="-3.8678890">
        <ele>693.8</ele>
        <time>2021-05-08T12:52:02Z</time>
      </trkpt>
      <trkpt lat="40.4008190" lon="-3.8678230">
        <ele>693.9</ele>
        <time>2021-05-08T12:52:03Z</time>
      </trkpt>
      <trkpt lat="40.4008090" lon="-3.8677690">
        <ele>694.0</ele>
        <time>2021-05-08T12:52:04Z</time>
      </trkpt>
      <trkpt lat="40.4007900" lon="-3.8677120">
        <ele>694.1</ele>
        <time>2021-05-08T12:52:06Z</time>
      </trkpt>
      <trkpt lat="40.4007770" lon="-3.8676770">
        <ele>694.1</ele>
        <time>2021-05-08T12:52:07Z</time>
      </trkpt>
      <trkpt lat="40.4007640" lon="-3.8676410">
        <ele>694.2</ele>
        <time>2021-05-08T12:52:08Z</time>
      </trkpt>
      <trkpt lat="40.4007370" lon="-3.8675750">
        <ele>694.2</ele>
        <time>2021-05-08T12:52:10Z</time>
      </trkpt>
      <trkpt lat="40.4007000" lon="-3.8674930">
        <ele>694.3</ele>
        <time>2021-05-08T12:52:12Z</time>
      </trkpt>
      <trkpt lat="40.4006810" lon="-3.8674650">
        <ele>694.3</ele>
        <time>2021-05-08T12:52:13Z</time>
      </trkpt>
      <trkpt lat="40.4006620" lon="-3.8674270">
        <ele>694.3</ele>
        <time>2021-05-08T12:52:15Z</time>
      </trkpt>
      <trkpt lat="40.4006260" lon="-3.8673640">
        <ele>694.4</ele>
        <time>2021-05-08T12:52:17Z</time>
      </trkpt>
      <trkpt lat="40.4005870" lon="-3.8673230">
        <ele>694.4</ele>
        <time>2021-05-08T12:52:18Z</time>
      </trkpt>
      <trkpt lat="40.4005640" lon="-3.8672910">
        <ele>694.4</ele>
        <time>2021-05-08T12:52:19Z</time>
      </trkpt>
      <trkpt lat="40.4005390" lon="-3.8672560">
        <ele>694.4</ele>
        <time>2021-05-08T12:52:20Z</time>
      </trkpt>
      <trkpt lat="40.4005140" lon="-3.8672250">
        <ele>694.4</ele>
        <time>2021-05-08T12:52:21Z</time>
      </trkpt>
      <trkpt lat="40.4004770" lon="-3.8671970">
        <ele>694.4</ele>
        <time>2021-05-08T12:52:23Z</time>
      </trkpt>
      <trkpt lat="40.4004500" lon="-3.8671810">
        <ele>694.4</ele>
        <time>2021-05-08T12:52:24Z</time>
      </trkpt>
      <trkpt lat="40.4004010" lon="-3.8671630">
        <ele>694.4</ele>
        <time>2021-05-08T12:52:26Z</time>
      </trkpt>
      <trkpt lat="40.4003680" lon="-3.8671670">
        <ele>694.3</ele>
        <time>2021-05-08T12:52:27Z</time>
      </trkpt>
      <trkpt lat="40.4003270" lon="-3.8671710">
        <ele>694.3</ele>
        <time>2021-05-08T12:52:28Z</time>
      </trkpt>
      <trkpt lat="40.4002940" lon="-3.8671660">
        <ele>694.3</ele>
        <time>2021-05-08T12:52:29Z</time>
      </trkpt>
      <trkpt lat="40.4002490" lon="-3.8671420">
        <ele>694.2</ele>
        <time>2021-05-08T12:52:30Z</time>
      </trkpt>
      <trkpt lat="40.4002100" lon="-3.8671000">
        <ele>694.2</ele>
        <time>2021-05-08T12:52:32Z</time>
      </trkpt>
      <trkpt lat="40.4001920" lon="-3.8670480">
        <ele>694.2</ele>
        <time>2021-05-08T12:52:33Z</time>
      </trkpt>
      <trkpt lat="40.4001780" lon="-3.8669580">
        <ele>693.9</ele>
        <time>2021-05-08T12:52:35Z</time>
      </trkpt>
      <trkpt lat="40.4001690" lon="-3.8669070">
        <ele>693.7</ele>
        <time>2021-05-08T12:52:36Z</time>
      </trkpt>
      <trkpt lat="40.4001400" lon="-3.8668140">
        <ele>693.3</ele>
        <time>2021-05-08T12:52:38Z</time>
      </trkpt>
      <trkpt lat="40.4001170" lon="-3.8667710">
        <ele>693.1</ele>
        <time>2021-05-08T12:52:39Z</time>
      </trkpt>
      <trkpt lat="40.4000790" lon="-3.8666830">
        <ele>692.7</ele>
        <time>2021-05-08T12:52:41Z</time>
      </trkpt>
      <trkpt lat="40.4000620" lon="-3.8666080">
        <ele>692.6</ele>
        <time>2021-05-08T12:52:42Z</time>
      </trkpt>
      <trkpt lat="40.4000400" lon="-3.8665520">
        <ele>692.6</ele>
        <time>2021-05-08T12:52:43Z</time>
      </trkpt>
      <trkpt lat="40.4000240" lon="-3.8664270">
        <ele>692.4</ele>
        <time>2021-05-08T12:52:45Z</time>
      </trkpt>
      <trkpt lat="40.4000370" lon="-3.8662960">
        <ele>692.4</ele>
        <time>2021-05-08T12:52:47Z</time>
      </trkpt>
      <trkpt lat="40.4000820" lon="-3.8661880">
        <ele>692.5</ele>
        <time>2021-05-08T12:52:49Z</time>
      </trkpt>
      <trkpt lat="40.4001360" lon="-3.8660930">
        <ele>692.6</ele>
        <time>2021-05-08T12:52:51Z</time>
      </trkpt>
      <trkpt lat="40.4001620" lon="-3.8660420">
        <ele>692.6</ele>
        <time>2021-05-08T12:52:52Z</time>
      </trkpt>
      <trkpt lat="40.4001740" lon="-3.8660170">
        <ele>692.7</ele>
        <time>2021-05-08T12:52:53Z</time>
      </trkpt>
      <trkpt lat="40.4002210" lon="-3.8659600">
        <ele>692.7</ele>
        <time>2021-05-08T12:52:54Z</time>
      </trkpt>
      <trkpt lat="40.4002530" lon="-3.8659150">
        <ele>692.8</ele>
        <time>2021-05-08T12:52:56Z</time>
      </trkpt>
      <trkpt lat="40.4002770" lon="-3.8658710">
        <ele>692.8</ele>
        <time>2021-05-08T12:52:57Z</time>
      </trkpt>
      <trkpt lat="40.4002970" lon="-3.8658280">
        <ele>692.9</ele>
        <time>2021-05-08T12:52:58Z</time>
      </trkpt>
      <trkpt lat="40.4003120" lon="-3.8657860">
        <ele>692.9</ele>
        <time>2021-05-08T12:52:59Z</time>
      </trkpt>
      <trkpt lat="40.4003210" lon="-3.8657160">
        <ele>692.9</ele>
        <time>2021-05-08T12:53:00Z</time>
      </trkpt>
      <trkpt lat="40.4003140" lon="-3.8656650">
        <ele>692.9</ele>
        <time>2021-05-08T12:53:02Z</time>
      </trkpt>
      <trkpt lat="40.4003030" lon="-3.8656090">
        <ele>692.9</ele>
        <time>2021-05-08T12:53:03Z</time>
      </trkpt>
      <trkpt lat="40.4002970" lon="-3.8655650">
        <ele>692.9</ele>
        <time>2021-05-08T12:53:04Z</time>
      </trkpt>
      <trkpt lat="40.4002930" lon="-3.8655240">
        <ele>692.9</ele>
        <time>2021-05-08T12:53:05Z</time>
      </trkpt>
      <trkpt lat="40.4002830" lon="-3.8654510">
        <ele>692.9</ele>
        <time>2021-05-08T12:53:07Z</time>
      </trkpt>
      <trkpt lat="40.4002710" lon="-3.8654060">
        <ele>692.9</ele>
        <time>2021-05-08T12:53:08Z</time>
      </trkpt>
      <trkpt lat="40.4002520" lon="-3.8653290">
        <ele>692.8</ele>
        <time>2021-05-08T12:53:10Z</time>
      </trkpt>
      <trkpt lat="40.4002380" lon="-3.8652810">
        <ele>692.8</ele>
        <time>2021-05-08T12:53:11Z</time>
      </trkpt>
      <trkpt lat="40.4002230" lon="-3.8652370">
        <ele>692.7</ele>
        <time>2021-05-08T12:53:12Z</time>
      </trkpt>
      <trkpt lat="40.4002100" lon="-3.8651670">
        <ele>692.7</ele>
        <time>2021-05-08T12:53:13Z</time>
      </trkpt>
      <trkpt lat="40.4002040" lon="-3.8650970">
        <ele>692.6</ele>
        <time>2021-05-08T12:53:15Z</time>
      </trkpt>
      <trkpt lat="40.4002030" lon="-3.8650320">
        <ele>692.5</ele>
        <time>2021-05-08T12:53:16Z</time>
      </trkpt>
      <trkpt lat="40.4002000" lon="-3.8649710">
        <ele>692.2</ele>
        <time>2021-05-08T12:53:18Z</time>
      </trkpt>
      <trkpt lat="40.4002060" lon="-3.8648790">
        <ele>691.9</ele>
        <time>2021-05-08T12:53:20Z</time>
      </trkpt>
      <trkpt lat="40.4002110" lon="-3.8648350">
        <ele>691.7</ele>
        <time>2021-05-08T12:53:21Z</time>
      </trkpt>
      <trkpt lat="40.4002310" lon="-3.8647400">
        <ele>691.4</ele>
        <time>2021-05-08T12:53:23Z</time>
      </trkpt>
      <trkpt lat="40.4002470" lon="-3.8645990">
        <ele>690.9</ele>
        <time>2021-05-08T12:53:25Z</time>
      </trkpt>
      <trkpt lat="40.4002570" lon="-3.8644500">
        <ele>690.5</ele>
        <time>2021-05-08T12:53:27Z</time>
      </trkpt>
      <trkpt lat="40.4002550" lon="-3.8643660">
        <ele>690.4</ele>
        <time>2021-05-08T12:53:28Z</time>
      </trkpt>
      <trkpt lat="40.4002500" lon="-3.8642030">
        <ele>690.0</ele>
        <time>2021-05-08T12:53:30Z</time>
      </trkpt>
      <trkpt lat="40.4002420" lon="-3.8641160">
        <ele>689.9</ele>
        <time>2021-05-08T12:53:31Z</time>
      </trkpt>
      <trkpt lat="40.4002210" lon="-3.8639350">
        <ele>689.9</ele>
        <time>2021-05-08T12:53:33Z</time>
      </trkpt>
      <trkpt lat="40.4002020" lon="-3.8638450">
        <ele>690.0</ele>
        <time>2021-05-08T12:53:34Z</time>
      </trkpt>
      <trkpt lat="40.4001790" lon="-3.8637570">
        <ele>690.1</ele>
        <time>2021-05-08T12:53:35Z</time>
      </trkpt>
      <trkpt lat="40.4001570" lon="-3.8636780">
        <ele>690.2</ele>
        <time>2021-05-08T12:53:36Z</time>
      </trkpt>
      <trkpt lat="40.4001370" lon="-3.8636020">
        <ele>690.4</ele>
        <time>2021-05-08T12:53:37Z</time>
      </trkpt>
      <trkpt lat="40.4000970" lon="-3.8634590">
        <ele>690.7</ele>
        <time>2021-05-08T12:53:39Z</time>
      </trkpt>
      <trkpt lat="40.4000760" lon="-3.8633900">
        <ele>690.9</ele>
        <time>2021-05-08T12:53:40Z</time>
      </trkpt>
      <trkpt lat="40.4000580" lon="-3.8633290">
        <ele>691.0</ele>
        <time>2021-05-08T12:53:41Z</time>
      </trkpt>
      <trkpt lat="40.4000310" lon="-3.8632130">
        <ele>691.3</ele>
        <time>2021-05-08T12:53:43Z</time>
      </trkpt>
      <trkpt lat="40.4000200" lon="-3.8631620">
        <ele>691.5</ele>
        <time>2021-05-08T12:53:44Z</time>
      </trkpt>
      <trkpt lat="40.4000060" lon="-3.8630800">
        <ele>691.7</ele>
        <time>2021-05-08T12:53:46Z</time>
      </trkpt>
      <trkpt lat="40.3999930" lon="-3.8630200">
        <ele>691.9</ele>
        <time>2021-05-08T12:53:47Z</time>
      </trkpt>
      <trkpt lat="40.3999820" lon="-3.8629730">
        <ele>692.0</ele>
        <time>2021-05-08T12:53:48Z</time>
      </trkpt>
      <trkpt lat="40.3999740" lon="-3.8629190">
        <ele>692.2</ele>
        <time>2021-05-08T12:53:49Z</time>
      </trkpt>
      <trkpt lat="40.3999270" lon="-3.8628080">
        <ele>692.5</ele>
        <time>2021-05-08T12:53:51Z</time>
      </trkpt>
      <trkpt lat="40.3998930" lon="-3.8627840">
        <ele>692.7</ele>
        <time>2021-05-08T12:53:53Z</time>
      </trkpt>
      <trkpt lat="40.3998910" lon="-3.8627220">
        <ele>692.8</ele>
        <time>2021-05-08T12:53:54Z</time>
      </trkpt>
      <trkpt lat="40.3998830" lon="-3.8626690">
        <ele>692.9</ele>
        <time>2021-05-08T12:53:55Z</time>
      </trkpt>
      <trkpt lat="40.3998610" lon="-3.8625750">
        <ele>693.1</ele>
        <time>2021-05-08T12:53:57Z</time>
      </trkpt>
      <trkpt lat="40.3998500" lon="-3.8625310">
        <ele>693.2</ele>
        <time>2021-05-08T12:53:58Z</time>
      </trkpt>
      <trkpt lat="40.3998210" lon="-3.8624370">
        <ele>693.2</ele>
        <time>2021-05-08T12:54:00Z</time>
      </trkpt>
      <trkpt lat="40.3998070" lon="-3.8623970">
        <ele>693.2</ele>
        <time>2021-05-08T12:54:01Z</time>
      </trkpt>
      <trkpt lat="40.3997940" lon="-3.8623480">
        <ele>693.2</ele>
        <time>2021-05-08T12:54:02Z</time>
      </trkpt>
      <trkpt lat="40.3997900" lon="-3.8623320">
        <ele>693.2</ele>
        <time>2021-05-08T12:54:03Z</time>
      </trkpt>
      <trkpt lat="40.3997730" lon="-3.8622870">
        <ele>693.1</ele>
        <time>2021-05-08T12:54:04Z</time>
      </trkpt>
      <trkpt lat="40.3997640" lon="-3.8622410">
        <ele>693.1</ele>
        <time>2021-05-08T12:54:06Z</time>
      </trkpt>
      <trkpt lat="40.3997660" lon="-3.8622530">
        <ele>693.1</ele>
        <time>2021-05-08T12:57:22Z</time>
      </trkpt>
      <trkpt lat="40.3997640" lon="-3.8622460">
        <ele>693.0</ele>
        <time>2021-05-08T12:57:24Z</time>
      </trkpt>
      <trkpt lat="40.3997550" lon="-3.8622050">
        <ele>693.0</ele>
        <time>2021-05-08T12:57:26Z</time>
      </trkpt>
      <trkpt lat="40.3997430" lon="-3.8621770">
        <ele>692.9</ele>
        <time>2021-05-08T12:57:27Z</time>
      </trkpt>
      <trkpt lat="40.3997210" lon="-3.8621340">
        <ele>692.8</ele>
        <time>2021-05-08T12:57:29Z</time>
      </trkpt>
      <trkpt lat="40.3997080" lon="-3.8620710">
        <ele>692.6</ele>
        <time>2021-05-08T12:57:30Z</time>
      </trkpt>
      <trkpt lat="40.3996980" lon="-3.8620360">
        <ele>692.5</ele>
        <time>2021-05-08T12:57:31Z</time>
      </trkpt>
      <trkpt lat="40.3996840" lon="-3.8619780">
        <ele>692.4</ele>
        <time>2021-05-08T12:57:33Z</time>
      </trkpt>
      <trkpt lat="40.3996630" lon="-3.8619160">
        <ele>692.2</ele>
        <time>2021-05-08T12:57:34Z</time>
      </trkpt>
      <trkpt lat="40.3996280" lon="-3.8618260">
        <ele>691.9</ele>
        <time>2021-05-08T12:57:36Z</time>
      </trkpt>
      <trkpt lat="40.3996080" lon="-3.8617530">
        <ele>691.7</ele>
        <time>2021-05-08T12:57:37Z</time>
      </trkpt>
      <trkpt lat="40.3995940" lon="-3.8616730">
        <ele>691.5</ele>
        <time>2021-05-08T12:57:39Z</time>
      </trkpt>
      <trkpt lat="40.3995880" lon="-3.8616270">
        <ele>691.3</ele>
        <time>2021-05-08T12:57:40Z</time>
      </trkpt>
      <trkpt lat="40.3995820" lon="-3.8615330">
        <ele>690.8</ele>
        <time>2021-05-08T12:57:42Z</time>
      </trkpt>
      <trkpt lat="40.3995910" lon="-3.8614950">
        <ele>690.6</ele>
        <time>2021-05-08T12:57:43Z</time>
      </trkpt>
      <trkpt lat="40.3996140" lon="-3.8614370">
        <ele>690.4</ele>
        <time>2021-05-08T12:57:45Z</time>
      </trkpt>
      <trkpt lat="40.3996100" lon="-3.8613080">
        <ele>690.1</ele>
        <time>2021-05-08T12:57:47Z</time>
      </trkpt>
      <trkpt lat="40.3995880" lon="-3.8612650">
        <ele>690.0</ele>
        <time>2021-05-08T12:57:48Z</time>
      </trkpt>
      <trkpt lat="40.3995340" lon="-3.8611720">
        <ele>689.9</ele>
        <time>2021-05-08T12:57:50Z</time>
      </trkpt>
      <trkpt lat="40.3995140" lon="-3.8611140">
        <ele>689.8</ele>
        <time>2021-05-08T12:57:51Z</time>
      </trkpt>
      <trkpt lat="40.3994760" lon="-3.8609950">
        <ele>689.7</ele>
        <time>2021-05-08T12:57:53Z</time>
      </trkpt>
      <trkpt lat="40.3994570" lon="-3.8609360">
        <ele>689.7</ele>
        <time>2021-05-08T12:57:54Z</time>
      </trkpt>
      <trkpt lat="40.3994390" lon="-3.8608740">
        <ele>689.7</ele>
        <time>2021-05-08T12:57:55Z</time>
      </trkpt>
      <trkpt lat="40.3994240" lon="-3.8608130">
        <ele>689.7</ele>
        <time>2021-05-08T12:57:56Z</time>
      </trkpt>
      <trkpt lat="40.3994030" lon="-3.8607000">
        <ele>689.6</ele>
        <time>2021-05-08T12:57:58Z</time>
      </trkpt>
      <trkpt lat="40.3993900" lon="-3.8606440">
        <ele>689.6</ele>
        <time>2021-05-08T12:57:59Z</time>
      </trkpt>
      <trkpt lat="40.3993720" lon="-3.8605980">
        <ele>689.6</ele>
        <time>2021-05-08T12:58:00Z</time>
      </trkpt>
      <trkpt lat="40.3993410" lon="-3.8604930">
        <ele>689.6</ele>
        <time>2021-05-08T12:58:02Z</time>
      </trkpt>
      <trkpt lat="40.3993180" lon="-3.8603790">
        <ele>689.6</ele>
        <time>2021-05-08T12:58:04Z</time>
      </trkpt>
      <trkpt lat="40.3993040" lon="-3.8603220">
        <ele>689.6</ele>
        <time>2021-05-08T12:58:05Z</time>
      </trkpt>
      <trkpt lat="40.3992720" lon="-3.8601990">
        <ele>689.6</ele>
        <time>2021-05-08T12:58:07Z</time>
      </trkpt>
      <trkpt lat="40.3992510" lon="-3.8600970">
        <ele>689.7</ele>
        <time>2021-05-08T12:58:09Z</time>
      </trkpt>
      <trkpt lat="40.3992340" lon="-3.8600690">
        <ele>689.7</ele>
        <time>2021-05-08T12:58:11Z</time>
      </trkpt>
      <trkpt lat="40.3992250" lon="-3.8600290">
        <ele>689.7</ele>
        <time>2021-05-08T12:58:12Z</time>
      </trkpt>
      <trkpt lat="40.3992080" lon="-3.8599590">
        <ele>689.7</ele>
        <time>2021-05-08T12:58:13Z</time>
      </trkpt>
      <trkpt lat="40.3991900" lon="-3.8598740">
        <ele>689.8</ele>
        <time>2021-05-08T12:58:14Z</time>
      </trkpt>
      <trkpt lat="40.3991750" lon="-3.8597850">
        <ele>689.9</ele>
        <time>2021-05-08T12:58:16Z</time>
      </trkpt>
      <trkpt lat="40.3991660" lon="-3.8597320">
        <ele>690.0</ele>
        <time>2021-05-08T12:58:17Z</time>
      </trkpt>
      <trkpt lat="40.3991510" lon="-3.8596770">
        <ele>690.1</ele>
        <time>2021-05-08T12:58:18Z</time>
      </trkpt>
      <trkpt lat="40.3991260" lon="-3.8596030">
        <ele>690.2</ele>
        <time>2021-05-08T12:58:20Z</time>
      </trkpt>
      <trkpt lat="40.3991100" lon="-3.8595500">
        <ele>690.3</ele>
        <time>2021-05-08T12:58:21Z</time>
      </trkpt>
      <trkpt lat="40.3990960" lon="-3.8595020">
        <ele>690.3</ele>
        <time>2021-05-08T12:58:22Z</time>
      </trkpt>
      <trkpt lat="40.3990760" lon="-3.8594290">
        <ele>690.4</ele>
        <time>2021-05-08T12:58:24Z</time>
      </trkpt>
      <trkpt lat="40.3990650" lon="-3.8593570">
        <ele>690.5</ele>
        <time>2021-05-08T12:58:25Z</time>
      </trkpt>
      <trkpt lat="40.3990570" lon="-3.8592900">
        <ele>690.5</ele>
        <time>2021-05-08T12:58:26Z</time>
      </trkpt>
      <trkpt lat="40.3990500" lon="-3.8592290">
        <ele>690.6</ele>
        <time>2021-05-08T12:58:27Z</time>
      </trkpt>
      <trkpt lat="40.3990120" lon="-3.8591230">
        <ele>690.6</ele>
        <time>2021-05-08T12:58:29Z</time>
      </trkpt>
      <trkpt lat="40.3990020" lon="-3.8590680">
        <ele>690.6</ele>
        <time>2021-05-08T12:58:30Z</time>
      </trkpt>
      <trkpt lat="40.3989580" lon="-3.8589680">
        <ele>690.6</ele>
        <time>2021-05-08T12:58:32Z</time>
      </trkpt>
      <trkpt lat="40.3989340" lon="-3.8589180">
        <ele>690.6</ele>
        <time>2021-05-08T12:58:33Z</time>
      </trkpt>
      <trkpt lat="40.3989230" lon="-3.8588340">
        <ele>690.6</ele>
        <time>2021-05-08T12:58:34Z</time>
      </trkpt>
      <trkpt lat="40.3989620" lon="-3.8587390">
        <ele>691.3</ele>
        <time>2021-05-08T12:58:36Z</time>
      </trkpt>
      <trkpt lat="40.3990180" lon="-3.8587140">
        <ele>691.7</ele>
        <time>2021-05-08T12:58:37Z</time>
      </trkpt>
      <trkpt lat="40.3990720" lon="-3.8587210">
        <ele>692.0</ele>
        <time>2021-05-08T12:58:38Z</time>
      </trkpt>
      <trkpt lat="40.3991070" lon="-3.8587430">
        <ele>692.0</ele>
        <time>2021-05-08T12:58:39Z</time>
      </trkpt>
      <trkpt lat="40.3991470" lon="-3.8587770">
        <ele>691.9</ele>
        <time>2021-05-08T12:58:41Z</time>
      </trkpt>
      <trkpt lat="40.3991600" lon="-3.8588160">
        <ele>692.1</ele>
        <time>2021-05-08T12:58:42Z</time>
      </trkpt>
      <trkpt lat="40.3991820" lon="-3.8588860">
        <ele>691.5</ele>
        <time>2021-05-08T12:58:43Z</time>
      </trkpt>
      <trkpt lat="40.3992050" lon="-3.8589670">
        <ele>691.1</ele>
        <time>2021-05-08T12:58:45Z</time>
      </trkpt>
      <trkpt lat="40.3992430" lon="-3.8591010">
        <ele>690.4</ele>
        <time>2021-05-08T12:58:47Z</time>
      </trkpt>
      <trkpt lat="40.3992640" lon="-3.8591670">
        <ele>690.0</ele>
        <time>2021-05-08T12:58:48Z</time>
      </trkpt>
      <trkpt lat="40.3992840" lon="-3.8592260">
        <ele>689.9</ele>
        <time>2021-05-08T12:58:49Z</time>
      </trkpt>
      <trkpt lat="40.3993330" lon="-3.8593490">
        <ele>689.4</ele>
        <time>2021-05-08T12:58:51Z</time>
      </trkpt>
      <trkpt lat="40.3993900" lon="-3.8594590">
        <ele>689.2</ele>
        <time>2021-05-08T12:58:53Z</time>
      </trkpt>
      <trkpt lat="40.3994470" lon="-3.8595580">
        <ele>688.9</ele>
        <time>2021-05-08T12:58:55Z</time>
      </trkpt>
      <trkpt lat="40.3994810" lon="-3.8595990">
        <ele>688.8</ele>
        <time>2021-05-08T12:58:56Z</time>
      </trkpt>
      <trkpt lat="40.3995530" lon="-3.8596670">
        <ele>688.8</ele>
        <time>2021-05-08T12:58:58Z</time>
      </trkpt>
      <trkpt lat="40.3995980" lon="-3.8596870">
        <ele>688.7</ele>
        <time>2021-05-08T12:58:59Z</time>
      </trkpt>
      <trkpt lat="40.3996390" lon="-3.8597320">
        <ele>688.7</ele>
        <time>2021-05-08T12:59:01Z</time>
      </trkpt>
      <trkpt lat="40.3996700" lon="-3.8597540">
        <ele>688.7</ele>
        <time>2021-05-08T12:59:02Z</time>
      </trkpt>
      <trkpt lat="40.3997010" lon="-3.8597460">
        <ele>688.7</ele>
        <time>2021-05-08T12:59:03Z</time>
      </trkpt>
      <trkpt lat="40.3997060" lon="-3.8597360">
        <ele>688.7</ele>
        <time>2021-05-08T12:59:04Z</time>
      </trkpt>
      <trkpt lat="40.3997230" lon="-3.8596970">
        <ele>688.8</ele>
        <time>2021-05-08T12:59:05Z</time>
      </trkpt>
      <trkpt lat="40.3997320" lon="-3.8596830">
        <ele>688.8</ele>
        <time>2021-05-08T12:59:06Z</time>
      </trkpt>
      <trkpt lat="40.3997780" lon="-3.8596480">
        <ele>688.9</ele>
        <time>2021-05-08T12:59:08Z</time>
      </trkpt>
      <trkpt lat="40.3997940" lon="-3.8596380">
        <ele>688.9</ele>
        <time>2021-05-08T12:59:09Z</time>
      </trkpt>
      <trkpt lat="40.3998110" lon="-3.8596280">
        <ele>689.0</ele>
        <time>2021-05-08T12:59:10Z</time>
      </trkpt>
      <trkpt lat="40.3998540" lon="-3.8595870">
        <ele>689.2</ele>
        <time>2021-05-08T12:59:12Z</time>
      </trkpt>
      <trkpt lat="40.3998700" lon="-3.8595690">
        <ele>689.2</ele>
        <time>2021-05-08T12:59:13Z</time>
      </trkpt>
      <trkpt lat="40.3998850" lon="-3.8595510">
        <ele>689.2</ele>
        <time>2021-05-08T12:59:14Z</time>
      </trkpt>
      <trkpt lat="40.3998970" lon="-3.8595350">
        <ele>689.4</ele>
        <time>2021-05-08T12:59:15Z</time>
      </trkpt>
      <trkpt lat="40.3999050" lon="-3.8595070">
        <ele>689.4</ele>
        <time>2021-05-08T12:59:17Z</time>
      </trkpt>
      <trkpt lat="40.3998980" lon="-3.8594920">
        <ele>689.6</ele>
        <time>2021-05-08T12:59:18Z</time>
      </trkpt>
      <trkpt lat="40.3998900" lon="-3.8594770">
        <ele>689.7</ele>
        <time>2021-05-08T12:59:19Z</time>
      </trkpt>
      <trkpt lat="40.3998650" lon="-3.8594580">
        <ele>689.7</ele>
        <time>2021-05-08T12:59:21Z</time>
      </trkpt>
      <trkpt lat="40.3998330" lon="-3.8594420">
        <ele>689.8</ele>
        <time>2021-05-08T12:59:22Z</time>
      </trkpt>
      <trkpt lat="40.3997880" lon="-3.8594010">
        <ele>689.9</ele>
        <time>2021-05-08T12:59:23Z</time>
      </trkpt>
      <trkpt lat="40.3997480" lon="-3.8593540">
        <ele>690.0</ele>
        <time>2021-05-08T12:59:25Z</time>
      </trkpt>
      <trkpt lat="40.3997100" lon="-3.8592950">
        <ele>690.1</ele>
        <time>2021-05-08T12:59:26Z</time>
      </trkpt>
      <trkpt lat="40.3996630" lon="-3.8592240">
        <ele>690.2</ele>
        <time>2021-05-08T12:59:27Z</time>
      </trkpt>
      <trkpt lat="40.3996180" lon="-3.8591440">
        <ele>690.3</ele>
        <time>2021-05-08T12:59:29Z</time>
      </trkpt>
      <trkpt lat="40.3995940" lon="-3.8591070">
        <ele>690.4</ele>
        <time>2021-05-08T12:59:30Z</time>
      </trkpt>
      <trkpt lat="40.3995510" lon="-3.8590490">
        <ele>690.5</ele>
        <time>2021-05-08T12:59:31Z</time>
      </trkpt>
      <trkpt lat="40.3995150" lon="-3.8590000">
        <ele>690.5</ele>
        <time>2021-05-08T12:59:33Z</time>
      </trkpt>
      <trkpt lat="40.3994850" lon="-3.8589570">
        <ele>690.6</ele>
        <time>2021-05-08T12:59:34Z</time>
      </trkpt>
      <trkpt lat="40.3994570" lon="-3.8589100">
        <ele>690.7</ele>
        <time>2021-05-08T12:59:35Z</time>
      </trkpt>
      <trkpt lat="40.3994290" lon="-3.8588540">
        <ele>690.8</ele>
        <time>2021-05-08T12:59:36Z</time>
      </trkpt>
      <trkpt lat="40.3994010" lon="-3.8587760">
        <ele>690.9</ele>
        <time>2021-05-08T12:59:38Z</time>
      </trkpt>
      <trkpt lat="40.3993700" lon="-3.8586960">
        <ele>691.1</ele>
        <time>2021-05-08T12:59:39Z</time>
      </trkpt>
      <trkpt lat="40.3993370" lon="-3.8586380">
        <ele>691.2</ele>
        <time>2021-05-08T12:59:41Z</time>
      </trkpt>
      <trkpt lat="40.3993150" lon="-3.8585950">
        <ele>691.3</ele>
        <time>2021-05-08T12:59:42Z</time>
      </trkpt>
      <trkpt lat="40.3992810" lon="-3.8585190">
        <ele>691.5</ele>
        <time>2021-05-08T12:59:44Z</time>
      </trkpt>
      <trkpt lat="40.3992390" lon="-3.8584310">
        <ele>691.8</ele>
        <time>2021-05-08T12:59:45Z</time>
      </trkpt>
      <trkpt lat="40.3992110" lon="-3.8583810">
        <ele>691.9</ele>
        <time>2021-05-08T12:59:46Z</time>
      </trkpt>
      <trkpt lat="40.3991810" lon="-3.8583410">
        <ele>692.0</ele>
        <time>2021-05-08T12:59:48Z</time>
      </trkpt>
      <trkpt lat="40.3991500" lon="-3.8582920">
        <ele>692.1</ele>
        <time>2021-05-08T12:59:49Z</time>
      </trkpt>
      <trkpt lat="40.3991250" lon="-3.8582290">
        <ele>692.3</ele>
        <time>2021-05-08T12:59:50Z</time>
      </trkpt>
      <trkpt lat="40.3990960" lon="-3.8581590">
        <ele>692.5</ele>
        <time>2021-05-08T12:59:52Z</time>
      </trkpt>
      <trkpt lat="40.3990630" lon="-3.8581110">
        <ele>692.6</ele>
        <time>2021-05-08T12:59:53Z</time>
      </trkpt>
      <trkpt lat="40.3990310" lon="-3.8580820">
        <ele>692.7</ele>
        <time>2021-05-08T12:59:54Z</time>
      </trkpt>
      <trkpt lat="40.3989730" lon="-3.8580290">
        <ele>692.8</ele>
        <time>2021-05-08T12:59:55Z</time>
      </trkpt>
      <trkpt lat="40.3989370" lon="-3.8579870">
        <ele>693.0</ele>
        <time>2021-05-08T12:59:57Z</time>
      </trkpt>
      <trkpt lat="40.3989110" lon="-3.8579410">
        <ele>693.1</ele>
        <time>2021-05-08T12:59:58Z</time>
      </trkpt>
      <trkpt lat="40.3988940" lon="-3.8578920">
        <ele>693.3</ele>
        <time>2021-05-08T12:59:59Z</time>
      </trkpt>
      <trkpt lat="40.3988650" lon="-3.8578140">
        <ele>693.5</ele>
        <time>2021-05-08T13:00:01Z</time>
      </trkpt>
      <trkpt lat="40.3988540" lon="-3.8577770">
        <ele>693.7</ele>
        <time>2021-05-08T13:00:02Z</time>
      </trkpt>
      <trkpt lat="40.3988360" lon="-3.8576980">
        <ele>693.9</ele>
        <time>2021-05-08T13:00:04Z</time>
      </trkpt>
      <trkpt lat="40.3988260" lon="-3.8576530">
        <ele>694.1</ele>
        <time>2021-05-08T13:00:05Z</time>
      </trkpt>
      <trkpt lat="40.3988200" lon="-3.8575620">
        <ele>694.4</ele>
        <time>2021-05-08T13:00:06Z</time>
      </trkpt>
      <trkpt lat="40.3988210" lon="-3.8575140">
        <ele>694.6</ele>
        <time>2021-05-08T13:00:08Z</time>
      </trkpt>
      <trkpt lat="40.3988260" lon="-3.8574790">
        <ele>694.7</ele>
        <time>2021-05-08T13:00:09Z</time>
      </trkpt>
      <trkpt lat="40.3988550" lon="-3.8574180">
        <ele>695.0</ele>
        <time>2021-05-08T13:00:11Z</time>
      </trkpt>
      <trkpt lat="40.3988880" lon="-3.8573460">
        <ele>695.4</ele>
        <time>2021-05-08T13:00:12Z</time>
      </trkpt>
      <trkpt lat="40.3988920" lon="-3.8573030">
        <ele>695.6</ele>
        <time>2021-05-08T13:00:13Z</time>
      </trkpt>
      <trkpt lat="40.3988870" lon="-3.8572670">
        <ele>695.7</ele>
        <time>2021-05-08T13:00:14Z</time>
      </trkpt>
      <trkpt lat="40.3988610" lon="-3.8572250">
        <ele>696.0</ele>
        <time>2021-05-08T13:00:16Z</time>
      </trkpt>
      <trkpt lat="40.3988360" lon="-3.8571950">
        <ele>696.3</ele>
        <time>2021-05-08T13:00:17Z</time>
      </trkpt>
      <trkpt lat="40.3988030" lon="-3.8571590">
        <ele>696.6</ele>
        <time>2021-05-08T13:00:18Z</time>
      </trkpt>
      <trkpt lat="40.3987820" lon="-3.8571230">
        <ele>696.9</ele>
        <time>2021-05-08T13:00:19Z</time>
      </trkpt>
      <trkpt lat="40.3987580" lon="-3.8570760">
        <ele>697.3</ele>
        <time>2021-05-08T13:00:21Z</time>
      </trkpt>
      <trkpt lat="40.3987410" lon="-3.8570150">
        <ele>697.8</ele>
        <time>2021-05-08T13:00:23Z</time>
      </trkpt>
      <trkpt lat="40.3987350" lon="-3.8569710">
        <ele>698.1</ele>
        <time>2021-05-08T13:00:24Z</time>
      </trkpt>
      <trkpt lat="40.3987320" lon="-3.8569380">
        <ele>698.4</ele>
        <time>2021-05-08T13:00:25Z</time>
      </trkpt>
      <trkpt lat="40.3987300" lon="-3.8568950">
        <ele>698.8</ele>
        <time>2021-05-08T13:00:27Z</time>
      </trkpt>
      <trkpt lat="40.3987280" lon="-3.8568500">
        <ele>699.3</ele>
        <time>2021-05-08T13:00:28Z</time>
      </trkpt>
      <trkpt lat="40.3987270" lon="-3.8568360">
        <ele>699.4</ele>
        <time>2021-05-08T13:00:29Z</time>
      </trkpt>
      <trkpt lat="40.3987270" lon="-3.8567940">
        <ele>699.9</ele>
        <time>2021-05-08T13:00:31Z</time>
      </trkpt>
      <trkpt lat="40.3987270" lon="-3.8567830">
        <ele>700.0</ele>
        <time>2021-05-08T13:00:32Z</time>
      </trkpt>
      <trkpt lat="40.3987240" lon="-3.8567430">
        <ele>700.4</ele>
        <time>2021-05-08T13:00:33Z</time>
      </trkpt>
      <trkpt lat="40.3987230" lon="-3.8567300">
        <ele>700.6</ele>
        <time>2021-05-08T13:00:34Z</time>
      </trkpt>
      <trkpt lat="40.3987220" lon="-3.8566990">
        <ele>700.9</ele>
        <time>2021-05-08T13:00:35Z</time>
      </trkpt>
      <trkpt lat="40.3987150" lon="-3.8566570">
        <ele>701.4</ele>
        <time>2021-05-08T13:00:37Z</time>
      </trkpt>
      <trkpt lat="40.3987150" lon="-3.8566190">
        <ele>701.8</ele>
        <time>2021-05-08T13:00:38Z</time>
      </trkpt>
      <trkpt lat="40.3987160" lon="-3.8566070">
        <ele>701.9</ele>
        <time>2021-05-08T13:00:39Z</time>
      </trkpt>
      <trkpt lat="40.3987160" lon="-3.8565840">
        <ele>702.2</ele>
        <time>2021-05-08T13:00:40Z</time>
      </trkpt>
      <trkpt lat="40.3987070" lon="-3.8565510">
        <ele>702.5</ele>
        <time>2021-05-08T13:00:42Z</time>
      </trkpt>
      <trkpt lat="40.3986980" lon="-3.8565210">
        <ele>702.9</ele>
        <time>2021-05-08T13:00:43Z</time>
      </trkpt>
      <trkpt lat="40.3986860" lon="-3.8565020">
        <ele>703.1</ele>
        <time>2021-05-08T13:00:45Z</time>
      </trkpt>
      <trkpt lat="40.3986770" lon="-3.8564860">
        <ele>703.3</ele>
        <time>2021-05-08T13:00:46Z</time>
      </trkpt>
      <trkpt lat="40.3986790" lon="-3.8564610">
        <ele>703.6</ele>
        <time>2021-05-08T13:00:47Z</time>
      </trkpt>
      <trkpt lat="40.3986760" lon="-3.8564320">
        <ele>703.9</ele>
        <time>2021-05-08T13:00:48Z</time>
      </trkpt>
      <trkpt lat="40.3986680" lon="-3.8564030">
        <ele>704.2</ele>
        <time>2021-05-08T13:00:50Z</time>
      </trkpt>
      <trkpt lat="40.3986530" lon="-3.8563650">
        <ele>704.6</ele>
        <time>2021-05-08T13:00:51Z</time>
      </trkpt>
      <trkpt lat="40.3986390" lon="-3.8563240">
        <ele>705.1</ele>
        <time>2021-05-08T13:00:52Z</time>
      </trkpt>
      <trkpt lat="40.3986340" lon="-3.8563140">
        <ele>705.2</ele>
        <time>2021-05-08T13:00:53Z</time>
      </trkpt>
      <trkpt lat="40.3986190" lon="-3.8562630">
        <ele>705.8</ele>
        <time>2021-05-08T13:00:55Z</time>
      </trkpt>
      <trkpt lat="40.3986140" lon="-3.8562450">
        <ele>706.0</ele>
        <time>2021-05-08T13:00:56Z</time>
      </trkpt>
      <trkpt lat="40.3986110" lon="-3.8562240">
        <ele>706.2</ele>
        <time>2021-05-08T13:00:57Z</time>
      </trkpt>
      <trkpt lat="40.3986110" lon="-3.8562030">
        <ele>706.4</ele>
        <time>2021-05-08T13:00:58Z</time>
      </trkpt>
      <trkpt lat="40.3986160" lon="-3.8561810">
        <ele>706.7</ele>
        <time>2021-05-08T13:01:00Z</time>
      </trkpt>
      <trkpt lat="40.3986190" lon="-3.8561650">
        <ele>706.8</ele>
        <time>2021-05-08T13:01:01Z</time>
      </trkpt>
      <trkpt lat="40.3986170" lon="-3.8561500">
        <ele>707.0</ele>
        <time>2021-05-08T13:01:02Z</time>
      </trkpt>
      <trkpt lat="40.3986140" lon="-3.8561130">
        <ele>707.4</ele>
        <time>2021-05-08T13:01:04Z</time>
      </trkpt>
      <trkpt lat="40.3986160" lon="-3.8560770">
        <ele>707.7</ele>
        <time>2021-05-08T13:01:05Z</time>
      </trkpt>
      <trkpt lat="40.3986150" lon="-3.8560650">
        <ele>707.8</ele>
        <time>2021-05-08T13:01:06Z</time>
      </trkpt>
      <trkpt lat="40.3986170" lon="-3.8560300">
        <ele>708.2</ele>
        <time>2021-05-08T13:01:07Z</time>
      </trkpt>
      <trkpt lat="40.3986170" lon="-3.8560120">
        <ele>708.3</ele>
        <time>2021-05-08T13:01:09Z</time>
      </trkpt>
      <trkpt lat="40.3986180" lon="-3.8559930">
        <ele>708.5</ele>
        <time>2021-05-08T13:01:10Z</time>
      </trkpt>
      <trkpt lat="40.3986180" lon="-3.8559750">
        <ele>708.7</ele>
        <time>2021-05-08T13:01:11Z</time>
      </trkpt>
      <trkpt lat="40.3986190" lon="-3.8559590">
        <ele>708.8</ele>
        <time>2021-05-08T13:01:12Z</time>
      </trkpt>
      <trkpt lat="40.3986210" lon="-3.8559450">
        <ele>708.9</ele>
        <time>2021-05-08T13:01:13Z</time>
      </trkpt>
      <trkpt lat="40.3986260" lon="-3.8559250">
        <ele>709.1</ele>
        <time>2021-05-08T13:01:15Z</time>
      </trkpt>
      <trkpt lat="40.3986290" lon="-3.8559020">
        <ele>709.2</ele>
        <time>2021-05-08T13:01:16Z</time>
      </trkpt>
      <trkpt lat="40.3986270" lon="-3.8558760">
        <ele>709.4</ele>
        <time>2021-05-08T13:01:18Z</time>
      </trkpt>
      <trkpt lat="40.3986110" lon="-3.8558380">
        <ele>709.6</ele>
        <time>2021-05-08T13:01:19Z</time>
      </trkpt>
      <trkpt lat="40.3986060" lon="-3.8558260">
        <ele>709.6</ele>
        <time>2021-05-08T13:01:20Z</time>
      </trkpt>
      <trkpt lat="40.3985830" lon="-3.8557790">
        <ele>709.8</ele>
        <time>2021-05-08T13:01:21Z</time>
      </trkpt>
      <trkpt lat="40.3985730" lon="-3.8557610">
        <ele>709.8</ele>
        <time>2021-05-08T13:01:22Z</time>
      </trkpt>
      <trkpt lat="40.3985670" lon="-3.8557380">
        <ele>709.8</ele>
        <time>2021-05-08T13:01:24Z</time>
      </trkpt>
      <trkpt lat="40.3985740" lon="-3.8557640">
        <ele>709.8</ele>
        <time>2021-05-08T13:02:44Z</time>
      </trkpt>
      <trkpt lat="40.3985730" lon="-3.8557590">
        <ele>709.8</ele>
        <time>2021-05-08T13:02:46Z</time>
      </trkpt>
      <trkpt lat="40.3985700" lon="-3.8557460">
        <ele>709.8</ele>
        <time>2021-05-08T13:02:47Z</time>
      </trkpt>
      <trkpt lat="40.3985690" lon="-3.8557250">
        <ele>709.8</ele>
        <time>2021-05-08T13:02:48Z</time>
      </trkpt>
      <trkpt lat="40.3985710" lon="-3.8556590">
        <ele>709.7</ele>
        <time>2021-05-08T13:02:50Z</time>
      </trkpt>
      <trkpt lat="40.3985720" lon="-3.8556250">
        <ele>709.6</ele>
        <time>2021-05-08T13:02:51Z</time>
      </trkpt>
      <trkpt lat="40.3986050" lon="-3.8555400">
        <ele>709.3</ele>
        <time>2021-05-08T13:02:52Z</time>
      </trkpt>
      <trkpt lat="40.3986400" lon="-3.8554990">
        <ele>709.0</ele>
        <time>2021-05-08T13:02:54Z</time>
      </trkpt>
      <trkpt lat="40.3986900" lon="-3.8554440">
        <ele>708.5</ele>
        <time>2021-05-08T13:02:55Z</time>
      </trkpt>
      <trkpt lat="40.3987130" lon="-3.8554000">
        <ele>708.2</ele>
        <time>2021-05-08T13:02:56Z</time>
      </trkpt>
      <trkpt lat="40.3987360" lon="-3.8553420">
        <ele>707.7</ele>
        <time>2021-05-08T13:02:58Z</time>
      </trkpt>
      <trkpt lat="40.3987580" lon="-3.8552860">
        <ele>707.3</ele>
        <time>2021-05-08T13:02:59Z</time>
      </trkpt>
      <trkpt lat="40.3987710" lon="-3.8552260">
        <ele>706.9</ele>
        <time>2021-05-08T13:03:00Z</time>
      </trkpt>
      <trkpt lat="40.3987870" lon="-3.8550840">
        <ele>706.2</ele>
        <time>2021-05-08T13:03:02Z</time>
      </trkpt>
      <trkpt lat="40.3988080" lon="-3.8550010">
        <ele>706.0</ele>
        <time>2021-05-08T13:03:03Z</time>
      </trkpt>
      <trkpt lat="40.3988750" lon="-3.8548900">
        <ele>706.0</ele>
        <time>2021-05-08T13:03:05Z</time>
      </trkpt>
      <trkpt lat="40.3989310" lon="-3.8548750">
        <ele>706.1</ele>
        <time>2021-05-08T13:03:07Z</time>
      </trkpt>
      <trkpt lat="40.3989720" lon="-3.8548390">
        <ele>706.3</ele>
        <time>2021-05-08T13:03:09Z</time>
      </trkpt>
      <trkpt lat="40.3989960" lon="-3.8548260">
        <ele>706.5</ele>
        <time>2021-05-08T13:03:10Z</time>
      </trkpt>
      <trkpt lat="40.3990310" lon="-3.8547920">
        <ele>706.8</ele>
        <time>2021-05-08T13:03:12Z</time>
      </trkpt>
      <trkpt lat="40.3990650" lon="-3.8547700">
        <ele>707.0</ele>
        <time>2021-05-08T13:03:13Z</time>
      </trkpt>
      <trkpt lat="40.3990880" lon="-3.8547510">
        <ele>707.2</ele>
        <time>2021-05-08T13:03:14Z</time>
      </trkpt>
      <trkpt lat="40.3991060" lon="-3.8547200">
        <ele>707.3</ele>
        <time>2021-05-08T13:03:16Z</time>
      </trkpt>
      <trkpt lat="40.3991140" lon="-3.8547080">
        <ele>707.4</ele>
        <time>2021-05-08T13:03:17Z</time>
      </trkpt>
      <trkpt lat="40.3991470" lon="-3.8546770">
        <ele>707.7</ele>
        <time>2021-05-08T13:03:19Z</time>
      </trkpt>
      <trkpt lat="40.3991780" lon="-3.8546450">
        <ele>707.9</ele>
        <time>2021-05-08T13:03:20Z</time>
      </trkpt>
      <trkpt lat="40.3991910" lon="-3.8546290">
        <ele>708.0</ele>
        <time>2021-05-08T13:03:21Z</time>
      </trkpt>
      <trkpt lat="40.3992130" lon="-3.8546040">
        <ele>708.2</ele>
        <time>2021-05-08T13:03:23Z</time>
      </trkpt>
      <trkpt lat="40.3992440" lon="-3.8545730">
        <ele>708.5</ele>
        <time>2021-05-08T13:03:24Z</time>
      </trkpt>
      <trkpt lat="40.3992530" lon="-3.8545500">
        <ele>708.7</ele>
        <time>2021-05-08T13:03:25Z</time>
      </trkpt>
      <trkpt lat="40.3992660" lon="-3.8545240">
        <ele>708.9</ele>
        <time>2021-05-08T13:03:27Z</time>
      </trkpt>
      <trkpt lat="40.3992850" lon="-3.8544850">
        <ele>709.3</ele>
        <time>2021-05-08T13:03:28Z</time>
      </trkpt>
      <trkpt lat="40.3992900" lon="-3.8544740">
        <ele>709.4</ele>
        <time>2021-05-08T13:03:29Z</time>
      </trkpt>
      <trkpt lat="40.3993150" lon="-3.8544370">
        <ele>709.8</ele>
        <time>2021-05-08T13:03:31Z</time>
      </trkpt>
      <trkpt lat="40.3993340" lon="-3.8544150">
        <ele>710.0</ele>
        <time>2021-05-08T13:03:32Z</time>
      </trkpt>
      <trkpt lat="40.3993710" lon="-3.8543710">
        <ele>710.5</ele>
        <time>2021-05-08T13:03:34Z</time>
      </trkpt>
      <trkpt lat="40.3993980" lon="-3.8543430">
        <ele>710.9</ele>
        <time>2021-05-08T13:03:36Z</time>
      </trkpt>
      <trkpt lat="40.3994120" lon="-3.8543230">
        <ele>711.1</ele>
        <time>2021-05-08T13:03:37Z</time>
      </trkpt>
      <trkpt lat="40.3994340" lon="-3.8542940">
        <ele>711.5</ele>
        <time>2021-05-08T13:03:39Z</time>
      </trkpt>
      <trkpt lat="40.3994500" lon="-3.8542670">
        <ele>711.8</ele>
        <time>2021-05-08T13:03:40Z</time>
      </trkpt>
      <trkpt lat="40.3994570" lon="-3.8542570">
        <ele>711.9</ele>
        <time>2021-05-08T13:03:41Z</time>
      </trkpt>
      <trkpt lat="40.3994690" lon="-3.8542400">
        <ele>712.1</ele>
        <time>2021-05-08T13:03:42Z</time>
      </trkpt>
      <trkpt lat="40.3994760" lon="-3.8542170">
        <ele>712.3</ele>
        <time>2021-05-08T13:03:44Z</time>
      </trkpt>
      <trkpt lat="40.3994840" lon="-3.8541940">
        <ele>712.5</ele>
        <time>2021-05-08T13:03:45Z</time>
      </trkpt>
      <trkpt lat="40.3994870" lon="-3.8541840">
        <ele>712.6</ele>
        <time>2021-05-08T13:03:47Z</time>
      </trkpt>
      <trkpt lat="40.3994910" lon="-3.8541750">
        <ele>712.6</ele>
        <time>2021-05-08T13:03:49Z</time>
      </trkpt>
      <trkpt lat="40.3994940" lon="-3.8541650">
        <ele>712.7</ele>
        <time>2021-05-08T13:03:51Z</time>
      </trkpt>
      <trkpt lat="40.3994980" lon="-3.8541560">
        <ele>712.8</ele>
        <time>2021-05-08T13:03:53Z</time>
      </trkpt>
      <trkpt lat="40.3995010" lon="-3.8541460">
        <ele>712.9</ele>
        <time>2021-05-08T13:03:55Z</time>
      </trkpt>
      <trkpt lat="40.3995050" lon="-3.8541370">
        <ele>713.0</ele>
        <time>2021-05-08T13:03:59Z</time>
      </trkpt>
      <trkpt lat="40.3995080" lon="-3.8541270">
        <ele>713.1</ele>
        <time>2021-05-08T13:04:01Z</time>
      </trkpt>
      <trkpt lat="40.3995120" lon="-3.8541180">
        <ele>713.2</ele>
        <time>2021-05-08T13:04:02Z</time>
      </trkpt>
      <trkpt lat="40.3995240" lon="-3.8541020">
        <ele>713.4</ele>
        <time>2021-05-08T13:04:03Z</time>
      </trkpt>
      <trkpt lat="40.3995520" lon="-3.8540670">
        <ele>713.8</ele>
        <time>2021-05-08T13:04:05Z</time>
      </trkpt>
      <trkpt lat="40.3995620" lon="-3.8540510">
        <ele>713.9</ele>
        <time>2021-05-08T13:04:06Z</time>
      </trkpt>
      <trkpt lat="40.3995780" lon="-3.8540210">
        <ele>714.2</ele>
        <time>2021-05-08T13:04:08Z</time>
      </trkpt>
      <trkpt lat="40.3995910" lon="-3.8539860">
        <ele>714.6</ele>
        <time>2021-05-08T13:04:09Z</time>
      </trkpt>
      <trkpt lat="40.3995950" lon="-3.8539730">
        <ele>714.7</ele>
        <time>2021-05-08T13:04:10Z</time>
      </trkpt>
      <trkpt lat="40.3996120" lon="-3.8539320">
        <ele>715.1</ele>
        <time>2021-05-08T13:04:12Z</time>
      </trkpt>
      <trkpt lat="40.3996180" lon="-3.8539190">
        <ele>715.2</ele>
        <time>2021-05-08T13:04:13Z</time>
      </trkpt>
      <trkpt lat="40.3996390" lon="-3.8538910">
        <ele>715.6</ele>
        <time>2021-05-08T13:04:15Z</time>
      </trkpt>
      <trkpt lat="40.3996530" lon="-3.8538760">
        <ele>715.9</ele>
        <time>2021-05-08T13:04:16Z</time>
      </trkpt>
      <trkpt lat="40.3996660" lon="-3.8538640">
        <ele>716.1</ele>
        <time>2021-05-08T13:04:17Z</time>
      </trkpt>
      <trkpt lat="40.3996970" lon="-3.8538430">
        <ele>716.6</ele>
        <time>2021-05-08T13:04:19Z</time>
      </trkpt>
      <trkpt lat="40.3997080" lon="-3.8538370">
        <ele>716.8</ele>
        <time>2021-05-08T13:04:20Z</time>
      </trkpt>
      <trkpt lat="40.3997370" lon="-3.8538150">
        <ele>717.3</ele>
        <time>2021-05-08T13:04:22Z</time>
      </trkpt>
      <trkpt lat="40.3997420" lon="-3.8538060">
        <ele>717.4</ele>
        <time>2021-05-08T13:04:23Z</time>
      </trkpt>
      <trkpt lat="40.3997740" lon="-3.8537950">
        <ele>717.9</ele>
        <time>2021-05-08T13:04:25Z</time>
      </trkpt>
      <trkpt lat="40.3997890" lon="-3.8537890">
        <ele>718.2</ele>
        <time>2021-05-08T13:04:26Z</time>
      </trkpt>
      <trkpt lat="40.3998030" lon="-3.8537800">
        <ele>718.4</ele>
        <time>2021-05-08T13:04:27Z</time>
      </trkpt>
      <trkpt lat="40.3998160" lon="-3.8537730">
        <ele>718.7</ele>
        <time>2021-05-08T13:04:28Z</time>
      </trkpt>
      <trkpt lat="40.3998300" lon="-3.8537650">
        <ele>718.9</ele>
        <time>2021-05-08T13:04:29Z</time>
      </trkpt>
      <trkpt lat="40.3998420" lon="-3.8537510">
        <ele>719.2</ele>
        <time>2021-05-08T13:04:31Z</time>
      </trkpt>
      <trkpt lat="40.3998560" lon="-3.8537400">
        <ele>719.4</ele>
        <time>2021-05-08T13:04:32Z</time>
      </trkpt>
      <trkpt lat="40.3998710" lon="-3.8537300">
        <ele>719.7</ele>
        <time>2021-05-08T13:04:33Z</time>
      </trkpt>
      <trkpt lat="40.3998870" lon="-3.8537210">
        <ele>720.0</ele>
        <time>2021-05-08T13:04:34Z</time>
      </trkpt>
      <trkpt lat="40.3998990" lon="-3.8537090">
        <ele>720.2</ele>
        <time>2021-05-08T13:04:35Z</time>
      </trkpt>
      <trkpt lat="40.3999130" lon="-3.8537010">
        <ele>720.4</ele>
        <time>2021-05-08T13:04:36Z</time>
      </trkpt>
      <trkpt lat="40.3999310" lon="-3.8536910">
        <ele>720.7</ele>
        <time>2021-05-08T13:04:37Z</time>
      </trkpt>
      <trkpt lat="40.3999460" lon="-3.8536810">
        <ele>721.0</ele>
        <time>2021-05-08T13:04:38Z</time>
      </trkpt>
      <trkpt lat="40.3999750" lon="-3.8536570">
        <ele>721.5</ele>
        <time>2021-05-08T13:04:40Z</time>
      </trkpt>
      <trkpt lat="40.3999840" lon="-3.8536470">
        <ele>721.7</ele>
        <time>2021-05-08T13:04:41Z</time>
      </trkpt>
      <trkpt lat="40.3999960" lon="-3.8536340">
        <ele>721.9</ele>
        <time>2021-05-08T13:04:42Z</time>
      </trkpt>
      <trkpt lat="40.4000060" lon="-3.8536210">
        <ele>722.1</ele>
        <time>2021-05-08T13:04:44Z</time>
      </trkpt>
      <trkpt lat="40.4000180" lon="-3.8536020">
        <ele>722.4</ele>
        <time>2021-05-08T13:04:45Z</time>
      </trkpt>
      <trkpt lat="40.4000290" lon="-3.8535850">
        <ele>722.6</ele>
        <time>2021-05-08T13:04:46Z</time>
      </trkpt>
      <trkpt lat="40.4000590" lon="-3.8535560">
        <ele>722.9</ele>
        <time>2021-05-08T13:04:48Z</time>
      </trkpt>
      <trkpt lat="40.4000710" lon="-3.8535470">
        <ele>723.0</ele>
        <time>2021-05-08T13:04:49Z</time>
      </trkpt>
      <trkpt lat="40.4000870" lon="-3.8535340">
        <ele>723.1</ele>
        <time>2021-05-08T13:04:50Z</time>
      </trkpt>
      <trkpt lat="40.4000990" lon="-3.8535250">
        <ele>723.2</ele>
        <time>2021-05-08T13:04:52Z</time>
      </trkpt>
      <trkpt lat="40.4001180" lon="-3.8535240">
        <ele>723.3</ele>
        <time>2021-05-08T13:04:53Z</time>
      </trkpt>
      <trkpt lat="40.4001330" lon="-3.8535220">
        <ele>723.4</ele>
        <time>2021-05-08T13:04:54Z</time>
      </trkpt>
      <trkpt lat="40.4001500" lon="-3.8535160">
        <ele>723.6</ele>
        <time>2021-05-08T13:04:55Z</time>
      </trkpt>
      <trkpt lat="40.4001740" lon="-3.8534930">
        <ele>723.8</ele>
        <time>2021-05-08T13:04:57Z</time>
      </trkpt>
      <trkpt lat="40.4001810" lon="-3.8534830">
        <ele>723.8</ele>
        <time>2021-05-08T13:04:58Z</time>
      </trkpt>
      <trkpt lat="40.4001970" lon="-3.8534460">
        <ele>723.9</ele>
        <time>2021-05-08T13:04:59Z</time>
      </trkpt>
      <trkpt lat="40.4001940" lon="-3.8533870">
        <ele>724.0</ele>
        <time>2021-05-08T13:05:01Z</time>
      </trkpt>
      <trkpt lat="40.4001900" lon="-3.8533690">
        <ele>724.0</ele>
        <time>2021-05-08T13:05:02Z</time>
      </trkpt>
      <trkpt lat="40.4001860" lon="-3.8533510">
        <ele>724.0</ele>
        <time>2021-05-08T13:05:03Z</time>
      </trkpt>
      <trkpt lat="40.4001810" lon="-3.8533100">
        <ele>724.1</ele>
        <time>2021-05-08T13:05:04Z</time>
      </trkpt>
      <trkpt lat="40.4001800" lon="-3.8532910">
        <ele>724.1</ele>
        <time>2021-05-08T13:05:05Z</time>
      </trkpt>
      <trkpt lat="40.4001770" lon="-3.8532380">
        <ele>724.2</ele>
        <time>2021-05-08T13:05:06Z</time>
      </trkpt>
      <trkpt lat="40.4001750" lon="-3.8532190">
        <ele>724.2</ele>
        <time>2021-05-08T13:05:07Z</time>
      </trkpt>
      <trkpt lat="40.4001720" lon="-3.8531740">
        <ele>724.2</ele>
        <time>2021-05-08T13:05:09Z</time>
      </trkpt>
      <trkpt lat="40.4001700" lon="-3.8531440">
        <ele>724.3</ele>
        <time>2021-05-08T13:05:10Z</time>
      </trkpt>
      <trkpt lat="40.4001650" lon="-3.8530790">
        <ele>724.4</ele>
        <time>2021-05-08T13:05:12Z</time>
      </trkpt>
      <trkpt lat="40.4001620" lon="-3.8530480">
        <ele>724.4</ele>
        <time>2021-05-08T13:05:13Z</time>
      </trkpt>
      <trkpt lat="40.4001540" lon="-3.8529900">
        <ele>724.5</ele>
        <time>2021-05-08T13:05:15Z</time>
      </trkpt>
      <trkpt lat="40.4001440" lon="-3.8529420">
        <ele>724.5</ele>
        <time>2021-05-08T13:05:16Z</time>
      </trkpt>
      <trkpt lat="40.4001330" lon="-3.8528960">
        <ele>724.6</ele>
        <time>2021-05-08T13:05:18Z</time>
      </trkpt>
      <trkpt lat="40.4001170" lon="-3.8528500">
        <ele>724.6</ele>
        <time>2021-05-08T13:05:19Z</time>
      </trkpt>
      <trkpt lat="40.4000910" lon="-3.8527910">
        <ele>724.7</ele>
        <time>2021-05-08T13:05:21Z</time>
      </trkpt>
      <trkpt lat="40.4000800" lon="-3.8527700">
        <ele>724.7</ele>
        <time>2021-05-08T13:05:22Z</time>
      </trkpt>
      <trkpt lat="40.4000690" lon="-3.8527480">
        <ele>724.7</ele>
        <time>2021-05-08T13:05:23Z</time>
      </trkpt>
      <trkpt lat="40.4000460" lon="-3.8527090">
        <ele>724.7</ele>
        <time>2021-05-08T13:05:25Z</time>
      </trkpt>
      <trkpt lat="40.4000160" lon="-3.8526660">
        <ele>724.8</ele>
        <time>2021-05-08T13:05:26Z</time>
      </trkpt>
      <trkpt lat="40.3999960" lon="-3.8526240">
        <ele>724.8</ele>
        <time>2021-05-08T13:05:28Z</time>
      </trkpt>
      <trkpt lat="40.3999690" lon="-3.8525800">
        <ele>724.8</ele>
        <time>2021-05-08T13:05:29Z</time>
      </trkpt>
      <trkpt lat="40.3999370" lon="-3.8525180">
        <ele>724.9</ele>
        <time>2021-05-08T13:05:31Z</time>
      </trkpt>
      <trkpt lat="40.3999250" lon="-3.8524810">
        <ele>724.9</ele>
        <time>2021-05-08T13:05:32Z</time>
      </trkpt>
      <trkpt lat="40.3999090" lon="-3.8524330">
        <ele>724.8</ele>
        <time>2021-05-08T13:05:33Z</time>
      </trkpt>
      <trkpt lat="40.3998960" lon="-3.8523900">
        <ele>724.8</ele>
        <time>2021-05-08T13:05:34Z</time>
      </trkpt>
      <trkpt lat="40.3998830" lon="-3.8523270">
        <ele>724.8</ele>
        <time>2021-05-08T13:05:36Z</time>
      </trkpt>
      <trkpt lat="40.3998650" lon="-3.8522350">
        <ele>724.8</ele>
        <time>2021-05-08T13:05:37Z</time>
      </trkpt>
      <trkpt lat="40.3998430" lon="-3.8521700">
        <ele>724.8</ele>
        <time>2021-05-08T13:05:38Z</time>
      </trkpt>
      <trkpt lat="40.3998240" lon="-3.8521190">
        <ele>724.8</ele>
        <time>2021-05-08T13:05:40Z</time>
      </trkpt>
      <trkpt lat="40.3997980" lon="-3.8520480">
        <ele>724.8</ele>
        <time>2021-05-08T13:05:41Z</time>
      </trkpt>
      <trkpt lat="40.3997700" lon="-3.8519670">
        <ele>724.9</ele>
        <time>2021-05-08T13:05:42Z</time>
      </trkpt>
      <trkpt lat="40.3997470" lon="-3.8519070">
        <ele>724.9</ele>
        <time>2021-05-08T13:05:44Z</time>
      </trkpt>
      <trkpt lat="40.3997230" lon="-3.8518470">
        <ele>725.0</ele>
        <time>2021-05-08T13:05:45Z</time>
      </trkpt>
      <trkpt lat="40.3997030" lon="-3.8517950">
        <ele>725.0</ele>
        <time>2021-05-08T13:05:47Z</time>
      </trkpt>
      <trkpt lat="40.3996930" lon="-3.8517500">
        <ele>725.0</ele>
        <time>2021-05-08T13:05:48Z</time>
      </trkpt>
      <trkpt lat="40.3996940" lon="-3.8517070">
        <ele>725.0</ele>
        <time>2021-05-08T13:05:49Z</time>
      </trkpt>
      <trkpt lat="40.3996990" lon="-3.8516620">
        <ele>725.0</ele>
        <time>2021-05-08T13:05:50Z</time>
      </trkpt>
      <trkpt lat="40.3997010" lon="-3.8516210">
        <ele>725.0</ele>
        <time>2021-05-08T13:05:51Z</time>
      </trkpt>
      <trkpt lat="40.3996800" lon="-3.8515600">
        <ele>725.0</ele>
        <time>2021-05-08T13:05:52Z</time>
      </trkpt>
      <trkpt lat="40.3996660" lon="-3.8515120">
        <ele>725.0</ele>
        <time>2021-05-08T13:05:54Z</time>
      </trkpt>
      <trkpt lat="40.3996560" lon="-3.8514670">
        <ele>725.0</ele>
        <time>2021-05-08T13:05:55Z</time>
      </trkpt>
      <trkpt lat="40.3996430" lon="-3.8514150">
        <ele>725.0</ele>
        <time>2021-05-08T13:05:56Z</time>
      </trkpt>
      <trkpt lat="40.3996310" lon="-3.8513620">
        <ele>724.9</ele>
        <time>2021-05-08T13:05:57Z</time>
      </trkpt>
      <trkpt lat="40.3996150" lon="-3.8512700">
        <ele>724.7</ele>
        <time>2021-05-08T13:05:59Z</time>
      </trkpt>
      <trkpt lat="40.3996140" lon="-3.8512190">
        <ele>724.6</ele>
        <time>2021-05-08T13:06:00Z</time>
      </trkpt>
      <trkpt lat="40.3996360" lon="-3.8511490">
        <ele>724.4</ele>
        <time>2021-05-08T13:06:01Z</time>
      </trkpt>
      <trkpt lat="40.3996680" lon="-3.8510750">
        <ele>724.2</ele>
        <time>2021-05-08T13:06:02Z</time>
      </trkpt>
      <trkpt lat="40.3997800" lon="-3.8510040">
        <ele>723.9</ele>
        <time>2021-05-08T13:06:04Z</time>
      </trkpt>
      <trkpt lat="40.3999070" lon="-3.8508940">
        <ele>724.1</ele>
        <time>2021-05-08T13:06:06Z</time>
      </trkpt>
      <trkpt lat="40.4000180" lon="-3.8507930">
        <ele>724.8</ele>
        <time>2021-05-08T13:06:08Z</time>
      </trkpt>
      <trkpt lat="40.4000710" lon="-3.8507580">
        <ele>725.2</ele>
        <time>2021-05-08T13:06:09Z</time>
      </trkpt>
      <trkpt lat="40.4001120" lon="-3.8507300">
        <ele>725.6</ele>
        <time>2021-05-08T13:06:10Z</time>
      </trkpt>
      <trkpt lat="40.4001150" lon="-3.8507180">
        <ele>725.7</ele>
        <time>2021-05-08T13:06:11Z</time>
      </trkpt>
      <trkpt lat="40.4001690" lon="-3.8506900">
        <ele>726.1</ele>
        <time>2021-05-08T13:06:13Z</time>
      </trkpt>
      <trkpt lat="40.4002210" lon="-3.8506590">
        <ele>726.5</ele>
        <time>2021-05-08T13:06:15Z</time>
      </trkpt>
      <trkpt lat="40.4002460" lon="-3.8506430">
        <ele>726.7</ele>
        <time>2021-05-08T13:06:16Z</time>
      </trkpt>
      <trkpt lat="40.4002720" lon="-3.8506260">
        <ele>726.9</ele>
        <time>2021-05-08T13:06:17Z</time>
      </trkpt>
      <trkpt lat="40.4003250" lon="-3.8505930">
        <ele>727.1</ele>
        <time>2021-05-08T13:06:18Z</time>
      </trkpt>
      <trkpt lat="40.4003500" lon="-3.8505600">
        <ele>727.2</ele>
        <time>2021-05-08T13:06:20Z</time>
      </trkpt>
      <trkpt lat="40.4003570" lon="-3.8505030">
        <ele>727.3</ele>
        <time>2021-05-08T13:06:21Z</time>
      </trkpt>
      <trkpt lat="40.4003480" lon="-3.8504570">
        <ele>727.3</ele>
        <time>2021-05-08T13:06:22Z</time>
      </trkpt>
      <trkpt lat="40.4003280" lon="-3.8503900">
        <ele>727.3</ele>
        <time>2021-05-08T13:06:24Z</time>
      </trkpt>
      <trkpt lat="40.4003140" lon="-3.8503120">
        <ele>727.3</ele>
        <time>2021-05-08T13:06:26Z</time>
      </trkpt>
      <trkpt lat="40.4003070" lon="-3.8502570">
        <ele>727.2</ele>
        <time>2021-05-08T13:06:27Z</time>
      </trkpt>
      <trkpt lat="40.4002970" lon="-3.8501840">
        <ele>727.2</ele>
        <time>2021-05-08T13:06:28Z</time>
      </trkpt>
      <trkpt lat="40.4002670" lon="-3.8500750">
        <ele>727.1</ele>
        <time>2021-05-08T13:06:30Z</time>
      </trkpt>
      <trkpt lat="40.4002480" lon="-3.8500000">
        <ele>727.1</ele>
        <time>2021-05-08T13:06:31Z</time>
      </trkpt>
      <trkpt lat="40.4002310" lon="-3.8499140">
        <ele>727.2</ele>
        <time>2021-05-08T13:06:33Z</time>
      </trkpt>
      <trkpt lat="40.4002280" lon="-3.8498440">
        <ele>727.2</ele>
        <time>2021-05-08T13:06:34Z</time>
      </trkpt>
      <trkpt lat="40.4002270" lon="-3.8497610">
        <ele>727.2</ele>
        <time>2021-05-08T13:06:35Z</time>
      </trkpt>
      <trkpt lat="40.4002230" lon="-3.8496990">
        <ele>727.3</ele>
        <time>2021-05-08T13:06:36Z</time>
      </trkpt>
      <trkpt lat="40.4002290" lon="-3.8496000">
        <ele>727.4</ele>
        <time>2021-05-08T13:06:38Z</time>
      </trkpt>
      <trkpt lat="40.4002200" lon="-3.8494940">
        <ele>727.5</ele>
        <time>2021-05-08T13:06:39Z</time>
      </trkpt>
      <trkpt lat="40.4002140" lon="-3.8494450">
        <ele>727.5</ele>
        <time>2021-05-08T13:06:40Z</time>
      </trkpt>
      <trkpt lat="40.4002110" lon="-3.8493560">
        <ele>727.5</ele>
        <time>2021-05-08T13:06:42Z</time>
      </trkpt>
      <trkpt lat="40.4002030" lon="-3.8492540">
        <ele>727.5</ele>
        <time>2021-05-08T13:06:43Z</time>
      </trkpt>
      <trkpt lat="40.4002010" lon="-3.8491350">
        <ele>727.4</ele>
        <time>2021-05-08T13:06:45Z</time>
      </trkpt>
      <trkpt lat="40.4002080" lon="-3.8490450">
        <ele>727.3</ele>
        <time>2021-05-08T13:06:47Z</time>
      </trkpt>
      <trkpt lat="40.4002370" lon="-3.8489040">
        <ele>727.4</ele>
        <time>2021-05-08T13:06:49Z</time>
      </trkpt>
      <trkpt lat="40.4002660" lon="-3.8488420">
        <ele>727.6</ele>
        <time>2021-05-08T13:06:50Z</time>
      </trkpt>
      <trkpt lat="40.4002960" lon="-3.8487890">
        <ele>727.8</ele>
        <time>2021-05-08T13:06:51Z</time>
      </trkpt>
      <trkpt lat="40.4003530" lon="-3.8487020">
        <ele>728.2</ele>
        <time>2021-05-08T13:06:53Z</time>
      </trkpt>
      <trkpt lat="40.4003470" lon="-3.8486690">
        <ele>728.4</ele>
        <time>2021-05-08T13:06:54Z</time>
      </trkpt>
      <trkpt lat="40.4003580" lon="-3.8486020">
        <ele>728.7</ele>
        <time>2021-05-08T13:06:56Z</time>
      </trkpt>
      <trkpt lat="40.4003880" lon="-3.8485390">
        <ele>729.0</ele>
        <time>2021-05-08T13:06:57Z</time>
      </trkpt>
      <trkpt lat="40.4004080" lon="-3.8484780">
        <ele>729.3</ele>
        <time>2021-05-08T13:06:59Z</time>
      </trkpt>
      <trkpt lat="40.4004180" lon="-3.8484260">
        <ele>729.5</ele>
        <time>2021-05-08T13:07:00Z</time>
      </trkpt>
      <trkpt lat="40.4004230" lon="-3.8483640">
        <ele>729.7</ele>
        <time>2021-05-08T13:07:02Z</time>
      </trkpt>
      <trkpt lat="40.4004270" lon="-3.8483200">
        <ele>729.8</ele>
        <time>2021-05-08T13:07:03Z</time>
      </trkpt>
      <trkpt lat="40.4004430" lon="-3.8482570">
        <ele>730.0</ele>
        <time>2021-05-08T13:07:05Z</time>
      </trkpt>
      <trkpt lat="40.4004600" lon="-3.8481770">
        <ele>730.2</ele>
        <time>2021-05-08T13:07:07Z</time>
      </trkpt>
      <trkpt lat="40.4004670" lon="-3.8480680">
        <ele>730.3</ele>
        <time>2021-05-08T13:07:09Z</time>
      </trkpt>
      <trkpt lat="40.4004700" lon="-3.8480050">
        <ele>730.3</ele>
        <time>2021-05-08T13:07:10Z</time>
      </trkpt>
      <trkpt lat="40.4004750" lon="-3.8479180">
        <ele>730.4</ele>
        <time>2021-05-08T13:07:11Z</time>
      </trkpt>
      <trkpt lat="40.4004840" lon="-3.8478530">
        <ele>730.4</ele>
        <time>2021-05-08T13:07:13Z</time>
      </trkpt>
      <trkpt lat="40.4004950" lon="-3.8477860">
        <ele>730.5</ele>
        <time>2021-05-08T13:07:14Z</time>
      </trkpt>
      <trkpt lat="40.4004970" lon="-3.8477080">
        <ele>730.5</ele>
        <time>2021-05-08T13:07:15Z</time>
      </trkpt>
      <trkpt lat="40.4005030" lon="-3.8476500">
        <ele>730.6</ele>
        <time>2021-05-08T13:07:16Z</time>
      </trkpt>
      <trkpt lat="40.4005070" lon="-3.8475970">
        <ele>730.6</ele>
        <time>2021-05-08T13:07:17Z</time>
      </trkpt>
      <trkpt lat="40.4005100" lon="-3.8475220">
        <ele>730.6</ele>
        <time>2021-05-08T13:07:19Z</time>
      </trkpt>
      <trkpt lat="40.4005130" lon="-3.8474370">
        <ele>730.6</ele>
        <time>2021-05-08T13:07:21Z</time>
      </trkpt>
      <trkpt lat="40.4005160" lon="-3.8473800">
        <ele>730.6</ele>
        <time>2021-05-08T13:07:22Z</time>
      </trkpt>
      <trkpt lat="40.4005270" lon="-3.8473280">
        <ele>730.5</ele>
        <time>2021-05-08T13:07:23Z</time>
      </trkpt>
      <trkpt lat="40.4005650" lon="-3.8472600">
        <ele>730.4</ele>
        <time>2021-05-08T13:07:25Z</time>
      </trkpt>
      <trkpt lat="40.4005930" lon="-3.8472130">
        <ele>730.3</ele>
        <time>2021-05-08T13:07:26Z</time>
      </trkpt>
      <trkpt lat="40.4006200" lon="-3.8471690">
        <ele>730.2</ele>
        <time>2021-05-08T13:07:27Z</time>
      </trkpt>
      <trkpt lat="40.4006530" lon="-3.8470910">
        <ele>730.0</ele>
        <time>2021-05-08T13:07:28Z</time>
      </trkpt>
      <trkpt lat="40.4006670" lon="-3.8470010">
        <ele>729.8</ele>
        <time>2021-05-08T13:07:30Z</time>
      </trkpt>
      <trkpt lat="40.4006720" lon="-3.8469390">
        <ele>729.7</ele>
        <time>2021-05-08T13:07:31Z</time>
      </trkpt>
      <trkpt lat="40.4006730" lon="-3.8468000">
        <ele>729.6</ele>
        <time>2021-05-08T13:07:33Z</time>
      </trkpt>
      <trkpt lat="40.4006670" lon="-3.8466720">
        <ele>729.7</ele>
        <time>2021-05-08T13:07:35Z</time>
      </trkpt>
      <trkpt lat="40.4006490" lon="-3.8465810">
        <ele>729.7</ele>
        <time>2021-05-08T13:07:37Z</time>
      </trkpt>
      <trkpt lat="40.4006190" lon="-3.8465530">
        <ele>729.8</ele>
        <time>2021-05-08T13:07:38Z</time>
      </trkpt>
      <trkpt lat="40.4006100" lon="-3.8465060">
        <ele>729.9</ele>
        <time>2021-05-08T13:07:39Z</time>
      </trkpt>
      <trkpt lat="40.4006150" lon="-3.8464530">
        <ele>729.9</ele>
        <time>2021-05-08T13:07:40Z</time>
      </trkpt>
      <trkpt lat="40.4006390" lon="-3.8463710">
        <ele>730.0</ele>
        <time>2021-05-08T13:07:42Z</time>
      </trkpt>
      <trkpt lat="40.4006530" lon="-3.8463300">
        <ele>730.0</ele>
        <time>2021-05-08T13:07:43Z</time>
      </trkpt>
      <trkpt lat="40.4006570" lon="-3.8462890">
        <ele>730.1</ele>
        <time>2021-05-08T13:07:44Z</time>
      </trkpt>
      <trkpt lat="40.4006330" lon="-3.8462540">
        <ele>730.0</ele>
        <time>2021-05-08T13:07:46Z</time>
      </trkpt>
      <trkpt lat="40.4006210" lon="-3.8462460">
        <ele>730.0</ele>
        <time>2021-05-08T13:07:47Z</time>
      </trkpt>
      <trkpt lat="40.4005870" lon="-3.8462050">
        <ele>730.0</ele>
        <time>2021-05-08T13:07:49Z</time>
      </trkpt>
      <trkpt lat="40.4005760" lon="-3.8461930">
        <ele>730.0</ele>
        <time>2021-05-08T13:07:50Z</time>
      </trkpt>
      <trkpt lat="40.4005650" lon="-3.8461800">
        <ele>730.0</ele>
        <time>2021-05-08T13:07:51Z</time>
      </trkpt>
      <trkpt lat="40.4005480" lon="-3.8461500">
        <ele>729.9</ele>
        <time>2021-05-08T13:07:52Z</time>
      </trkpt>
      <trkpt lat="40.4005350" lon="-3.8460810">
        <ele>729.9</ele>
        <time>2021-05-08T13:07:54Z</time>
      </trkpt>
      <trkpt lat="40.4005280" lon="-3.8460430">
        <ele>729.8</ele>
        <time>2021-05-08T13:07:55Z</time>
      </trkpt>
      <trkpt lat="40.4005150" lon="-3.8460030">
        <ele>729.8</ele>
        <time>2021-05-08T13:07:56Z</time>
      </trkpt>
      <trkpt lat="40.4004970" lon="-3.8459520">
        <ele>729.8</ele>
        <time>2021-05-08T13:07:57Z</time>
      </trkpt>
      <trkpt lat="40.4004880" lon="-3.8459340">
        <ele>729.8</ele>
        <time>2021-05-08T13:07:58Z</time>
      </trkpt>
      <trkpt lat="40.4004730" lon="-3.8458990">
        <ele>729.7</ele>
        <time>2021-05-08T13:08:00Z</time>
      </trkpt>
      <trkpt lat="40.4004680" lon="-3.8458920">
        <ele>729.7</ele>
        <time>2021-05-08T13:08:01Z</time>
      </trkpt>
      <trkpt lat="40.4004630" lon="-3.8458840">
        <ele>729.7</ele>
        <time>2021-05-08T13:08:03Z</time>
      </trkpt>
      <trkpt lat="40.4004580" lon="-3.8458770">
        <ele>729.7</ele>
        <time>2021-05-08T13:08:05Z</time>
      </trkpt>
      <trkpt lat="40.4004540" lon="-3.8458700">
        <ele>729.7</ele>
        <time>2021-05-08T13:08:06Z</time>
      </trkpt>
      <trkpt lat="40.4004490" lon="-3.8458630">
        <ele>729.7</ele>
        <time>2021-05-08T13:08:07Z</time>
      </trkpt>
      <trkpt lat="40.4004440" lon="-3.8458550">
        <ele>729.7</ele>
        <time>2021-05-08T13:08:08Z</time>
      </trkpt>
      <trkpt lat="40.4004390" lon="-3.8458480">
        <ele>729.7</ele>
        <time>2021-05-08T13:08:10Z</time>
      </trkpt>
      <trkpt lat="40.4004340" lon="-3.8458410">
        <ele>729.7</ele>
        <time>2021-05-08T13:08:11Z</time>
      </trkpt>
      <trkpt lat="40.4004130" lon="-3.8457750">
        <ele>729.7</ele>
        <time>2021-05-08T13:08:13Z</time>
      </trkpt>
      <trkpt lat="40.4003960" lon="-3.8457140">
        <ele>729.7</ele>
        <time>2021-05-08T13:08:14Z</time>
      </trkpt>
      <trkpt lat="40.4003740" lon="-3.8456280">
        <ele>729.7</ele>
        <time>2021-05-08T13:08:15Z</time>
      </trkpt>
      <trkpt lat="40.4003610" lon="-3.8455600">
        <ele>729.7</ele>
        <time>2021-05-08T13:08:17Z</time>
      </trkpt>
      <trkpt lat="40.4003500" lon="-3.8455100">
        <ele>729.7</ele>
        <time>2021-05-08T13:08:18Z</time>
      </trkpt>
      <trkpt lat="40.4003330" lon="-3.8454630">
        <ele>729.7</ele>
        <time>2021-05-08T13:08:20Z</time>
      </trkpt>
      <trkpt lat="40.4003120" lon="-3.8454390">
        <ele>729.6</ele>
        <time>2021-05-08T13:08:21Z</time>
      </trkpt>
      <trkpt lat="40.4002900" lon="-3.8454210">
        <ele>729.6</ele>
        <time>2021-05-08T13:08:22Z</time>
      </trkpt>
      <trkpt lat="40.4002490" lon="-3.8453860">
        <ele>729.5</ele>
        <time>2021-05-08T13:08:24Z</time>
      </trkpt>
      <trkpt lat="40.4002230" lon="-3.8453610">
        <ele>729.5</ele>
        <time>2021-05-08T13:08:25Z</time>
      </trkpt>
      <trkpt lat="40.4002000" lon="-3.8453190">
        <ele>729.5</ele>
        <time>2021-05-08T13:08:26Z</time>
      </trkpt>
      <trkpt lat="40.4001900" lon="-3.8452560">
        <ele>729.4</ele>
        <time>2021-05-08T13:08:27Z</time>
      </trkpt>
      <trkpt lat="40.4001770" lon="-3.8452050">
        <ele>729.4</ele>
        <time>2021-05-08T13:08:29Z</time>
      </trkpt>
      <trkpt lat="40.4001580" lon="-3.8451710">
        <ele>729.3</ele>
        <time>2021-05-08T13:08:30Z</time>
      </trkpt>
      <trkpt lat="40.4001310" lon="-3.8451000">
        <ele>729.3</ele>
        <time>2021-05-08T13:08:32Z</time>
      </trkpt>
      <trkpt lat="40.4001150" lon="-3.8450620">
        <ele>729.2</ele>
        <time>2021-05-08T13:08:33Z</time>
      </trkpt>
      <trkpt lat="40.4000850" lon="-3.8449930">
        <ele>729.2</ele>
        <time>2021-05-08T13:08:35Z</time>
      </trkpt>
      <trkpt lat="40.4000590" lon="-3.8449370">
        <ele>729.2</ele>
        <time>2021-05-08T13:08:36Z</time>
      </trkpt>
      <trkpt lat="40.4000200" lon="-3.8448530">
        <ele>729.2</ele>
        <time>2021-05-08T13:08:38Z</time>
      </trkpt>
      <trkpt lat="40.3999890" lon="-3.8447690">
        <ele>729.2</ele>
        <time>2021-05-08T13:08:39Z</time>
      </trkpt>
      <trkpt lat="40.3999510" lon="-3.8446720">
        <ele>729.2</ele>
        <time>2021-05-08T13:08:41Z</time>
      </trkpt>
      <trkpt lat="40.3999070" lon="-3.8445640">
        <ele>729.2</ele>
        <time>2021-05-08T13:08:43Z</time>
      </trkpt>
      <trkpt lat="40.3998690" lon="-3.8444680">
        <ele>729.3</ele>
        <time>2021-05-08T13:08:45Z</time>
      </trkpt>
      <trkpt lat="40.3998590" lon="-3.8444060">
        <ele>729.4</ele>
        <time>2021-05-08T13:08:46Z</time>
      </trkpt>
      <trkpt lat="40.3998240" lon="-3.8442950">
        <ele>729.5</ele>
        <time>2021-05-08T13:08:48Z</time>
      </trkpt>
      <trkpt lat="40.3997910" lon="-3.8442010">
        <ele>729.6</ele>
        <time>2021-05-08T13:08:50Z</time>
      </trkpt>
      <trkpt lat="40.3997540" lon="-3.8441060">
        <ele>729.7</ele>
        <time>2021-05-08T13:08:52Z</time>
      </trkpt>
      <trkpt lat="40.3997360" lon="-3.8440510">
        <ele>729.7</ele>
        <time>2021-05-08T13:08:53Z</time>
      </trkpt>
      <trkpt lat="40.3997130" lon="-3.8439860">
        <ele>729.8</ele>
        <time>2021-05-08T13:08:54Z</time>
      </trkpt>
      <trkpt lat="40.3996880" lon="-3.8439230">
        <ele>729.9</ele>
        <time>2021-05-08T13:08:56Z</time>
      </trkpt>
      <trkpt lat="40.3996610" lon="-3.8438580">
        <ele>729.9</ele>
        <time>2021-05-08T13:08:57Z</time>
      </trkpt>
      <trkpt lat="40.3996370" lon="-3.8437960">
        <ele>730.0</ele>
        <time>2021-05-08T13:08:58Z</time>
      </trkpt>
      <trkpt lat="40.3995980" lon="-3.8436860">
        <ele>730.0</ele>
        <time>2021-05-08T13:09:00Z</time>
      </trkpt>
      <trkpt lat="40.3995760" lon="-3.8436360">
        <ele>730.0</ele>
        <time>2021-05-08T13:09:01Z</time>
      </trkpt>
      <trkpt lat="40.3995220" lon="-3.8435160">
        <ele>729.8</ele>
        <time>2021-05-08T13:09:03Z</time>
      </trkpt>
      <trkpt lat="40.3994950" lon="-3.8434590">
        <ele>729.8</ele>
        <time>2021-05-08T13:09:04Z</time>
      </trkpt>
      <trkpt lat="40.3994480" lon="-3.8433460">
        <ele>729.6</ele>
        <time>2021-05-08T13:09:06Z</time>
      </trkpt>
      <trkpt lat="40.3994250" lon="-3.8432900">
        <ele>729.5</ele>
        <time>2021-05-08T13:09:07Z</time>
      </trkpt>
      <trkpt lat="40.3993800" lon="-3.8431860">
        <ele>729.3</ele>
        <time>2021-05-08T13:09:09Z</time>
      </trkpt>
      <trkpt lat="40.3993330" lon="-3.8430690">
        <ele>729.2</ele>
        <time>2021-05-08T13:09:11Z</time>
      </trkpt>
      <trkpt lat="40.3992790" lon="-3.8429460">
        <ele>729.0</ele>
        <time>2021-05-08T13:09:13Z</time>
      </trkpt>
      <trkpt lat="40.3992500" lon="-3.8428840">
        <ele>728.9</ele>
        <time>2021-05-08T13:09:14Z</time>
      </trkpt>
      <trkpt lat="40.3992220" lon="-3.8428260">
        <ele>728.9</ele>
        <time>2021-05-08T13:09:15Z</time>
      </trkpt>
      <trkpt lat="40.3991630" lon="-3.8427100">
        <ele>728.7</ele>
        <time>2021-05-08T13:09:17Z</time>
      </trkpt>
      <trkpt lat="40.3991350" lon="-3.8426490">
        <ele>728.7</ele>
        <time>2021-05-08T13:09:18Z</time>
      </trkpt>
      <trkpt lat="40.3990890" lon="-3.8425210">
        <ele>728.6</ele>
        <time>2021-05-08T13:09:20Z</time>
      </trkpt>
      <trkpt lat="40.3990690" lon="-3.8424630">
        <ele>728.5</ele>
        <time>2021-05-08T13:09:21Z</time>
      </trkpt>
      <trkpt lat="40.3990240" lon="-3.8423290">
        <ele>728.5</ele>
        <time>2021-05-08T13:09:23Z</time>
      </trkpt>
      <trkpt lat="40.3989990" lon="-3.8422670">
        <ele>728.5</ele>
        <time>2021-05-08T13:09:24Z</time>
      </trkpt>
      <trkpt lat="40.3989400" lon="-3.8421450">
        <ele>728.6</ele>
        <time>2021-05-08T13:09:26Z</time>
      </trkpt>
      <trkpt lat="40.3989080" lon="-3.8420840">
        <ele>728.6</ele>
        <time>2021-05-08T13:09:27Z</time>
      </trkpt>
      <trkpt lat="40.3988560" lon="-3.8419670">
        <ele>728.7</ele>
        <time>2021-05-08T13:09:29Z</time>
      </trkpt>
      <trkpt lat="40.3988150" lon="-3.8418510">
        <ele>728.8</ele>
        <time>2021-05-08T13:09:31Z</time>
      </trkpt>
      <trkpt lat="40.3987970" lon="-3.8417920">
        <ele>728.8</ele>
        <time>2021-05-08T13:09:32Z</time>
      </trkpt>
      <trkpt lat="40.3987780" lon="-3.8417310">
        <ele>728.8</ele>
        <time>2021-05-08T13:09:33Z</time>
      </trkpt>
      <trkpt lat="40.3987470" lon="-3.8416010">
        <ele>728.8</ele>
        <time>2021-05-08T13:09:35Z</time>
      </trkpt>
      <trkpt lat="40.3987260" lon="-3.8414780">
        <ele>728.7</ele>
        <time>2021-05-08T13:09:37Z</time>
      </trkpt>
      <trkpt lat="40.3987180" lon="-3.8414210">
        <ele>728.7</ele>
        <time>2021-05-08T13:09:38Z</time>
      </trkpt>
      <trkpt lat="40.3987110" lon="-3.8412940">
        <ele>728.6</ele>
        <time>2021-05-08T13:09:40Z</time>
      </trkpt>
      <trkpt lat="40.3987140" lon="-3.8412300">
        <ele>728.5</ele>
        <time>2021-05-08T13:09:41Z</time>
      </trkpt>
      <trkpt lat="40.3987220" lon="-3.8411060">
        <ele>728.3</ele>
        <time>2021-05-08T13:09:43Z</time>
      </trkpt>
      <trkpt lat="40.3987370" lon="-3.8410380">
        <ele>728.2</ele>
        <time>2021-05-08T13:09:44Z</time>
      </trkpt>
      <trkpt lat="40.3987620" lon="-3.8409200">
        <ele>728.0</ele>
        <time>2021-05-08T13:09:46Z</time>
      </trkpt>
      <trkpt lat="40.3987790" lon="-3.8408520">
        <ele>727.9</ele>
        <time>2021-05-08T13:09:47Z</time>
      </trkpt>
      <trkpt lat="40.3988150" lon="-3.8407330">
        <ele>727.7</ele>
        <time>2021-05-08T13:09:49Z</time>
      </trkpt>
      <trkpt lat="40.3988460" lon="-3.8406060">
        <ele>727.5</ele>
        <time>2021-05-08T13:09:51Z</time>
      </trkpt>
      <trkpt lat="40.3988760" lon="-3.8404800">
        <ele>727.3</ele>
        <time>2021-05-08T13:09:53Z</time>
      </trkpt>
      <trkpt lat="40.3988910" lon="-3.8404190">
        <ele>727.2</ele>
        <time>2021-05-08T13:09:54Z</time>
      </trkpt>
      <trkpt lat="40.3989180" lon="-3.8402960">
        <ele>726.9</ele>
        <time>2021-05-08T13:09:56Z</time>
      </trkpt>
      <trkpt lat="40.3989450" lon="-3.8401660">
        <ele>726.6</ele>
        <time>2021-05-08T13:09:58Z</time>
      </trkpt>
      <trkpt lat="40.3989600" lon="-3.8401000">
        <ele>726.5</ele>
        <time>2021-05-08T13:09:59Z</time>
      </trkpt>
      <trkpt lat="40.3989880" lon="-3.8399880">
        <ele>726.3</ele>
        <time>2021-05-08T13:10:01Z</time>
      </trkpt>
      <trkpt lat="40.3990080" lon="-3.8399160">
        <ele>726.1</ele>
        <time>2021-05-08T13:10:03Z</time>
      </trkpt>
      <trkpt lat="40.3990290" lon="-3.8398070">
        <ele>725.9</ele>
        <time>2021-05-08T13:10:05Z</time>
      </trkpt>
      <trkpt lat="40.3990530" lon="-3.8397250">
        <ele>725.7</ele>
        <time>2021-05-08T13:10:07Z</time>
      </trkpt>
      <trkpt lat="40.3990730" lon="-3.8396380">
        <ele>725.5</ele>
        <time>2021-05-08T13:10:08Z</time>
      </trkpt>
      <trkpt lat="40.3991030" lon="-3.8395470">
        <ele>725.3</ele>
        <time>2021-05-08T13:10:10Z</time>
      </trkpt>
      <trkpt lat="40.3991300" lon="-3.8394540">
        <ele>725.0</ele>
        <time>2021-05-08T13:10:12Z</time>
      </trkpt>
      <trkpt lat="40.3991450" lon="-3.8393990">
        <ele>724.9</ele>
        <time>2021-05-08T13:10:14Z</time>
      </trkpt>
      <trkpt lat="40.3991500" lon="-3.8393490">
        <ele>724.8</ele>
        <time>2021-05-08T13:10:15Z</time>
      </trkpt>
      <trkpt lat="40.3991550" lon="-3.8393080">
        <ele>724.7</ele>
        <time>2021-05-08T13:10:16Z</time>
      </trkpt>
      <trkpt lat="40.3991710" lon="-3.8392680">
        <ele>724.6</ele>
        <time>2021-05-08T13:10:18Z</time>
      </trkpt>
      <trkpt lat="40.3991800" lon="-3.8392660">
        <ele>724.6</ele>
        <time>2021-05-08T13:10:19Z</time>
      </trkpt>
      <trkpt lat="40.3991900" lon="-3.8392650">
        <ele>724.5</ele>
        <time>2021-05-08T13:10:20Z</time>
      </trkpt>
      <trkpt lat="40.3991990" lon="-3.8392630">
        <ele>724.5</ele>
        <time>2021-05-08T13:10:21Z</time>
      </trkpt>
      <trkpt lat="40.3992080" lon="-3.8392190">
        <ele>724.4</ele>
        <time>2021-05-08T13:10:23Z</time>
      </trkpt>
      <trkpt lat="40.3992110" lon="-3.8392080">
        <ele>724.4</ele>
        <time>2021-05-08T13:10:24Z</time>
      </trkpt>
      <trkpt lat="40.3992040" lon="-3.8391240">
        <ele>724.2</ele>
        <time>2021-05-08T13:10:26Z</time>
      </trkpt>
      <trkpt lat="40.3991870" lon="-3.8390480">
        <ele>724.1</ele>
        <time>2021-05-08T13:10:27Z</time>
      </trkpt>
      <trkpt lat="40.3991800" lon="-3.8389990">
        <ele>724.1</ele>
        <time>2021-05-08T13:10:28Z</time>
      </trkpt>
      <trkpt lat="40.3991480" lon="-3.8389330">
        <ele>724.0</ele>
        <time>2021-05-08T13:10:30Z</time>
      </trkpt>
      <trkpt lat="40.3991300" lon="-3.8389110">
        <ele>724.0</ele>
        <time>2021-05-08T13:10:31Z</time>
      </trkpt>
      <trkpt lat="40.3991140" lon="-3.8388800">
        <ele>724.0</ele>
        <time>2021-05-08T13:10:33Z</time>
      </trkpt>
      <trkpt lat="40.3990910" lon="-3.8388590">
        <ele>724.0</ele>
        <time>2021-05-08T13:10:34Z</time>
      </trkpt>
      <trkpt lat="40.3990750" lon="-3.8388550">
        <ele>724.0</ele>
        <time>2021-05-08T13:10:35Z</time>
      </trkpt>
      <trkpt lat="40.3990120" lon="-3.8388400">
        <ele>724.0</ele>
        <time>2021-05-08T13:10:37Z</time>
      </trkpt>
      <trkpt lat="40.3989450" lon="-3.8388210">
        <ele>724.1</ele>
        <time>2021-05-08T13:10:39Z</time>
      </trkpt>
      <trkpt lat="40.3989080" lon="-3.8388050">
        <ele>724.1</ele>
        <time>2021-05-08T13:10:40Z</time>
      </trkpt>
      <trkpt lat="40.3988300" lon="-3.8387610">
        <ele>724.2</ele>
        <time>2021-05-08T13:10:42Z</time>
      </trkpt>
      <trkpt lat="40.3987430" lon="-3.8387110">
        <ele>724.2</ele>
        <time>2021-05-08T13:10:44Z</time>
      </trkpt>
      <trkpt lat="40.3986770" lon="-3.8386680">
        <ele>724.3</ele>
        <time>2021-05-08T13:10:45Z</time>
      </trkpt>
      <trkpt lat="40.3986320" lon="-3.8386360">
        <ele>724.3</ele>
        <time>2021-05-08T13:10:47Z</time>
      </trkpt>
      <trkpt lat="40.3985890" lon="-3.8386030">
        <ele>724.4</ele>
        <time>2021-05-08T13:10:48Z</time>
      </trkpt>
      <trkpt lat="40.3985540" lon="-3.8385710">
        <ele>724.4</ele>
        <time>2021-05-08T13:10:49Z</time>
      </trkpt>
      <trkpt lat="40.3985210" lon="-3.8385370">
        <ele>724.5</ele>
        <time>2021-05-08T13:10:50Z</time>
      </trkpt>
      <trkpt lat="40.3984640" lon="-3.8384680">
        <ele>724.6</ele>
        <time>2021-05-08T13:10:51Z</time>
      </trkpt>
      <trkpt lat="40.3984280" lon="-3.8384150">
        <ele>724.8</ele>
        <time>2021-05-08T13:10:53Z</time>
      </trkpt>
      <trkpt lat="40.3983980" lon="-3.8383540">
        <ele>724.9</ele>
        <time>2021-05-08T13:10:54Z</time>
      </trkpt>
      <trkpt lat="40.3983580" lon="-3.8382670">
        <ele>725.1</ele>
        <time>2021-05-08T13:10:56Z</time>
      </trkpt>
      <trkpt lat="40.3983360" lon="-3.8382160">
        <ele>725.3</ele>
        <time>2021-05-08T13:10:57Z</time>
      </trkpt>
      <trkpt lat="40.3983040" lon="-3.8381360">
        <ele>725.5</ele>
        <time>2021-05-08T13:10:59Z</time>
      </trkpt>
      <trkpt lat="40.3982860" lon="-3.8380800">
        <ele>725.7</ele>
        <time>2021-05-08T13:11:00Z</time>
      </trkpt>
      <trkpt lat="40.3982690" lon="-3.8380250">
        <ele>725.9</ele>
        <time>2021-05-08T13:11:01Z</time>
      </trkpt>
      <trkpt lat="40.3982350" lon="-3.8379300">
        <ele>726.3</ele>
        <time>2021-05-08T13:11:03Z</time>
      </trkpt>
      <trkpt lat="40.3982150" lon="-3.8378860">
        <ele>726.5</ele>
        <time>2021-05-08T13:11:04Z</time>
      </trkpt>
      <trkpt lat="40.3981970" lon="-3.8378150">
        <ele>726.8</ele>
        <time>2021-05-08T13:11:06Z</time>
      </trkpt>
      <trkpt lat="40.3981860" lon="-3.8377710">
        <ele>727.0</ele>
        <time>2021-05-08T13:11:07Z</time>
      </trkpt>
      <trkpt lat="40.3981670" lon="-3.8376920">
        <ele>727.4</ele>
        <time>2021-05-08T13:11:09Z</time>
      </trkpt>
      <trkpt lat="40.3981440" lon="-3.8376370">
        <ele>727.6</ele>
        <time>2021-05-08T13:11:10Z</time>
      </trkpt>
      <trkpt lat="40.3981220" lon="-3.8375940">
        <ele>727.9</ele>
        <time>2021-05-08T13:11:12Z</time>
      </trkpt>
      <trkpt lat="40.3981030" lon="-3.8375520">
        <ele>728.1</ele>
        <time>2021-05-08T13:11:13Z</time>
      </trkpt>
      <trkpt lat="40.3980860" lon="-3.8375080">
        <ele>728.4</ele>
        <time>2021-05-08T13:11:14Z</time>
      </trkpt>
      <trkpt lat="40.3980690" lon="-3.8374540">
        <ele>728.6</ele>
        <time>2021-05-08T13:11:16Z</time>
      </trkpt>
      <trkpt lat="40.3980580" lon="-3.8374080">
        <ele>728.9</ele>
        <time>2021-05-08T13:11:17Z</time>
      </trkpt>
      <trkpt lat="40.3980430" lon="-3.8373440">
        <ele>729.3</ele>
        <time>2021-05-08T13:11:19Z</time>
      </trkpt>
      <trkpt lat="40.3980320" lon="-3.8373060">
        <ele>729.5</ele>
        <time>2021-05-08T13:11:20Z</time>
      </trkpt>
      <trkpt lat="40.3980120" lon="-3.8372480">
        <ele>729.9</ele>
        <time>2021-05-08T13:11:22Z</time>
      </trkpt>
      <trkpt lat="40.3980000" lon="-3.8372100">
        <ele>730.1</ele>
        <time>2021-05-08T13:11:23Z</time>
      </trkpt>
      <trkpt lat="40.3979900" lon="-3.8371730">
        <ele>730.4</ele>
        <time>2021-05-08T13:11:24Z</time>
      </trkpt>
      <trkpt lat="40.3979650" lon="-3.8371060">
        <ele>730.8</ele>
        <time>2021-05-08T13:11:26Z</time>
      </trkpt>
      <trkpt lat="40.3979490" lon="-3.8370580">
        <ele>731.1</ele>
        <time>2021-05-08T13:11:27Z</time>
      </trkpt>
      <trkpt lat="40.3979350" lon="-3.8370180">
        <ele>731.4</ele>
        <time>2021-05-08T13:11:28Z</time>
      </trkpt>
      <trkpt lat="40.3979180" lon="-3.8369540">
        <ele>731.9</ele>
        <time>2021-05-08T13:11:30Z</time>
      </trkpt>
      <trkpt lat="40.3979090" lon="-3.8369170">
        <ele>732.1</ele>
        <time>2021-05-08T13:11:31Z</time>
      </trkpt>
      <trkpt lat="40.3978980" lon="-3.8368790">
        <ele>732.4</ele>
        <time>2021-05-08T13:11:32Z</time>
      </trkpt>
      <trkpt lat="40.3978800" lon="-3.8368290">
        <ele>732.7</ele>
        <time>2021-05-08T13:11:33Z</time>
      </trkpt>
      <trkpt lat="40.3978650" lon="-3.8368000">
        <ele>732.9</ele>
        <time>2021-05-08T13:11:35Z</time>
      </trkpt>
      <trkpt lat="40.3978460" lon="-3.8367730">
        <ele>733.1</ele>
        <time>2021-05-08T13:11:36Z</time>
      </trkpt>
      <trkpt lat="40.3978210" lon="-3.8367500">
        <ele>733.3</ele>
        <time>2021-05-08T13:11:38Z</time>
      </trkpt>
      <trkpt lat="40.3977970" lon="-3.8367280">
        <ele>733.5</ele>
        <time>2021-05-08T13:11:39Z</time>
      </trkpt>
      <trkpt lat="40.3977640" lon="-3.8367040">
        <ele>733.7</ele>
        <time>2021-05-08T13:11:40Z</time>
      </trkpt>
      <trkpt lat="40.3977540" lon="-3.8366980">
        <ele>733.8</ele>
        <time>2021-05-08T13:11:41Z</time>
      </trkpt>
      <trkpt lat="40.3977220" lon="-3.8366790">
        <ele>734.0</ele>
        <time>2021-05-08T13:11:43Z</time>
      </trkpt>
      <trkpt lat="40.3977010" lon="-3.8366820">
        <ele>734.2</ele>
        <time>2021-05-08T13:11:44Z</time>
      </trkpt>
      <trkpt lat="40.3976570" lon="-3.8366850">
        <ele>734.4</ele>
        <time>2021-05-08T13:11:46Z</time>
      </trkpt>
      <trkpt lat="40.3976130" lon="-3.8367160">
        <ele>734.7</ele>
        <time>2021-05-08T13:11:48Z</time>
      </trkpt>
      <trkpt lat="40.3975890" lon="-3.8367330">
        <ele>734.8</ele>
        <time>2021-05-08T13:11:49Z</time>
      </trkpt>
      <trkpt lat="40.3975600" lon="-3.8367450">
        <ele>734.9</ele>
        <time>2021-05-08T13:11:50Z</time>
      </trkpt>
      <trkpt lat="40.3975100" lon="-3.8367790">
        <ele>735.0</ele>
        <time>2021-05-08T13:11:52Z</time>
      </trkpt>
      <trkpt lat="40.3974610" lon="-3.8368020">
        <ele>735.1</ele>
        <time>2021-05-08T13:11:54Z</time>
      </trkpt>
      <trkpt lat="40.3974340" lon="-3.8368370">
        <ele>735.1</ele>
        <time>2021-05-08T13:11:55Z</time>
      </trkpt>
      <trkpt lat="40.3974200" lon="-3.8368710">
        <ele>735.2</ele>
        <time>2021-05-08T13:11:56Z</time>
      </trkpt>
      <trkpt lat="40.3974010" lon="-3.8369200">
        <ele>735.2</ele>
        <time>2021-05-08T13:11:58Z</time>
      </trkpt>
      <trkpt lat="40.3973870" lon="-3.8369510">
        <ele>735.2</ele>
        <time>2021-05-08T13:11:59Z</time>
      </trkpt>
      <trkpt lat="40.3973710" lon="-3.8369930">
        <ele>735.3</ele>
        <time>2021-05-08T13:12:00Z</time>
      </trkpt>
      <trkpt lat="40.3973610" lon="-3.8370480">
        <ele>735.3</ele>
        <time>2021-05-08T13:12:01Z</time>
      </trkpt>
      <trkpt lat="40.3973570" lon="-3.8371130">
        <ele>735.3</ele>
        <time>2021-05-08T13:12:03Z</time>
      </trkpt>
      <trkpt lat="40.3973590" lon="-3.8371810">
        <ele>735.2</ele>
        <time>2021-05-08T13:12:04Z</time>
      </trkpt>
      <trkpt lat="40.3973590" lon="-3.8372670">
        <ele>735.2</ele>
        <time>2021-05-08T13:12:06Z</time>
      </trkpt>
      <trkpt lat="40.3973520" lon="-3.8373310">
        <ele>735.1</ele>
        <time>2021-05-08T13:12:07Z</time>
      </trkpt>
      <trkpt lat="40.3973480" lon="-3.8374270">
        <ele>735.1</ele>
        <time>2021-05-08T13:12:09Z</time>
      </trkpt>
      <trkpt lat="40.3973450" lon="-3.8374840">
        <ele>735.1</ele>
        <time>2021-05-08T13:12:10Z</time>
      </trkpt>
      <trkpt lat="40.3973430" lon="-3.8375470">
        <ele>735.0</ele>
        <time>2021-05-08T13:12:11Z</time>
      </trkpt>
      <trkpt lat="40.3973410" lon="-3.8376090">
        <ele>735.0</ele>
        <time>2021-05-08T13:12:12Z</time>
      </trkpt>
      <trkpt lat="40.3973400" lon="-3.8377360">
        <ele>734.9</ele>
        <time>2021-05-08T13:12:14Z</time>
      </trkpt>
      <trkpt lat="40.3973380" lon="-3.8378580">
        <ele>734.8</ele>
        <time>2021-05-08T13:12:16Z</time>
      </trkpt>
      <trkpt lat="40.3973390" lon="-3.8379230">
        <ele>734.7</ele>
        <time>2021-05-08T13:12:17Z</time>
      </trkpt>
      <trkpt lat="40.3973400" lon="-3.8379890">
        <ele>734.7</ele>
        <time>2021-05-08T13:12:18Z</time>
      </trkpt>
      <trkpt lat="40.3973470" lon="-3.8381210">
        <ele>734.6</ele>
        <time>2021-05-08T13:12:20Z</time>
      </trkpt>
      <trkpt lat="40.3973510" lon="-3.8381930">
        <ele>734.6</ele>
        <time>2021-05-08T13:12:21Z</time>
      </trkpt>
      <trkpt lat="40.3973650" lon="-3.8383240">
        <ele>734.5</ele>
        <time>2021-05-08T13:12:23Z</time>
      </trkpt>
      <trkpt lat="40.3973740" lon="-3.8383930">
        <ele>734.5</ele>
        <time>2021-05-08T13:12:24Z</time>
      </trkpt>
      <trkpt lat="40.3973830" lon="-3.8384610">
        <ele>734.5</ele>
        <time>2021-05-08T13:12:25Z</time>
      </trkpt>
      <trkpt lat="40.3974050" lon="-3.8385930">
        <ele>734.4</ele>
        <time>2021-05-08T13:12:27Z</time>
      </trkpt>
      <trkpt lat="40.3974190" lon="-3.8386570">
        <ele>734.4</ele>
        <time>2021-05-08T13:12:28Z</time>
      </trkpt>
      <trkpt lat="40.3974510" lon="-3.8387890">
        <ele>734.4</ele>
        <time>2021-05-08T13:12:30Z</time>
      </trkpt>
      <trkpt lat="40.3974840" lon="-3.8389190">
        <ele>734.5</ele>
        <time>2021-05-08T13:12:32Z</time>
      </trkpt>
      <trkpt lat="40.3975220" lon="-3.8390420">
        <ele>734.6</ele>
        <time>2021-05-08T13:12:34Z</time>
      </trkpt>
      <trkpt lat="40.3975580" lon="-3.8391660">
        <ele>734.7</ele>
        <time>2021-05-08T13:12:36Z</time>
      </trkpt>
      <trkpt lat="40.3975920" lon="-3.8392860">
        <ele>734.9</ele>
        <time>2021-05-08T13:12:38Z</time>
      </trkpt>
      <trkpt lat="40.3976250" lon="-3.8394170">
        <ele>735.1</ele>
        <time>2021-05-08T13:12:40Z</time>
      </trkpt>
      <trkpt lat="40.3976610" lon="-3.8395340">
        <ele>735.3</ele>
        <time>2021-05-08T13:12:42Z</time>
      </trkpt>
      <trkpt lat="40.3976910" lon="-3.8396490">
        <ele>735.5</ele>
        <time>2021-05-08T13:12:44Z</time>
      </trkpt>
      <trkpt lat="40.3977110" lon="-3.8397490">
        <ele>735.7</ele>
        <time>2021-05-08T13:12:46Z</time>
      </trkpt>
      <trkpt lat="40.3977110" lon="-3.8398740">
        <ele>735.9</ele>
        <time>2021-05-08T13:12:48Z</time>
      </trkpt>
      <trkpt lat="40.3976980" lon="-3.8399380">
        <ele>736.0</ele>
        <time>2021-05-08T13:12:49Z</time>
      </trkpt>
      <trkpt lat="40.3976450" lon="-3.8400510">
        <ele>736.3</ele>
        <time>2021-05-08T13:12:51Z</time>
      </trkpt>
      <trkpt lat="40.3975800" lon="-3.8401410">
        <ele>736.3</ele>
        <time>2021-05-08T13:12:53Z</time>
      </trkpt>
      <trkpt lat="40.3975470" lon="-3.8401770">
        <ele>736.3</ele>
        <time>2021-05-08T13:12:54Z</time>
      </trkpt>
      <trkpt lat="40.3974560" lon="-3.8402360">
        <ele>736.4</ele>
        <time>2021-05-08T13:12:56Z</time>
      </trkpt>
      <trkpt lat="40.3974310" lon="-3.8402670">
        <ele>736.4</ele>
        <time>2021-05-08T13:12:57Z</time>
      </trkpt>
      <trkpt lat="40.3974030" lon="-3.8403120">
        <ele>736.4</ele>
        <time>2021-05-08T13:12:58Z</time>
      </trkpt>
      <trkpt lat="40.3973930" lon="-3.8403340">
        <ele>736.3</ele>
        <time>2021-05-08T13:12:59Z</time>
      </trkpt>
      <trkpt lat="40.3973760" lon="-3.8403920">
        <ele>736.3</ele>
        <time>2021-05-08T13:13:01Z</time>
      </trkpt>
      <trkpt lat="40.3973580" lon="-3.8404600">
        <ele>736.2</ele>
        <time>2021-05-08T13:13:02Z</time>
      </trkpt>
      <trkpt lat="40.3973430" lon="-3.8405060">
        <ele>736.1</ele>
        <time>2021-05-08T13:13:03Z</time>
      </trkpt>
      <trkpt lat="40.3973170" lon="-3.8405590">
        <ele>736.0</ele>
        <time>2021-05-08T13:13:04Z</time>
      </trkpt>
      <trkpt lat="40.3972530" lon="-3.8406500">
        <ele>735.8</ele>
        <time>2021-05-08T13:13:06Z</time>
      </trkpt>
      <trkpt lat="40.3972110" lon="-3.8406890">
        <ele>735.7</ele>
        <time>2021-05-08T13:13:07Z</time>
      </trkpt>
      <trkpt lat="40.3971630" lon="-3.8407170">
        <ele>735.6</ele>
        <time>2021-05-08T13:13:08Z</time>
      </trkpt>
      <trkpt lat="40.3970970" lon="-3.8407470">
        <ele>735.5</ele>
        <time>2021-05-08T13:13:10Z</time>
      </trkpt>
      <trkpt lat="40.3970350" lon="-3.8407590">
        <ele>735.3</ele>
        <time>2021-05-08T13:13:11Z</time>
      </trkpt>
      <trkpt lat="40.3970030" lon="-3.8407580">
        <ele>735.3</ele>
        <time>2021-05-08T13:13:12Z</time>
      </trkpt>
      <trkpt lat="40.3970310" lon="-3.8407630">
        <ele>735.2</ele>
        <time>2021-05-08T13:13:13Z</time>
      </trkpt>
      <trkpt lat="40.3969870" lon="-3.8407590">
        <ele>735.1</ele>
        <time>2021-05-08T13:13:14Z</time>
      </trkpt>
      <trkpt lat="40.3969100" lon="-3.8407350">
        <ele>735.0</ele>
        <time>2021-05-08T13:13:15Z</time>
      </trkpt>
      <trkpt lat="40.3968530" lon="-3.8407040">
        <ele>734.9</ele>
        <time>2021-05-08T13:13:17Z</time>
      </trkpt>
      <trkpt lat="40.3967790" lon="-3.8406650">
        <ele>734.8</ele>
        <time>2021-05-08T13:13:18Z</time>
      </trkpt>
      <trkpt lat="40.3966970" lon="-3.8405960">
        <ele>734.7</ele>
        <time>2021-05-08T13:13:20Z</time>
      </trkpt>
      <trkpt lat="40.3966300" lon="-3.8405330">
        <ele>734.6</ele>
        <time>2021-05-08T13:13:22Z</time>
      </trkpt>
      <trkpt lat="40.3965920" lon="-3.8405100">
        <ele>734.4</ele>
        <time>2021-05-08T13:13:23Z</time>
      </trkpt>
      <trkpt lat="40.3965320" lon="-3.8405150">
        <ele>734.2</ele>
        <time>2021-05-08T13:13:24Z</time>
      </trkpt>
      <trkpt lat="40.3964830" lon="-3.8405540">
        <ele>734.0</ele>
        <time>2021-05-08T13:13:26Z</time>
      </trkpt>
      <trkpt lat="40.3964390" lon="-3.8405950">
        <ele>733.8</ele>
        <time>2021-05-08T13:13:27Z</time>
      </trkpt>
      <trkpt lat="40.3964000" lon="-3.8406480">
        <ele>733.5</ele>
        <time>2021-05-08T13:13:29Z</time>
      </trkpt>
      <trkpt lat="40.3963780" lon="-3.8406870">
        <ele>733.4</ele>
        <time>2021-05-08T13:13:30Z</time>
      </trkpt>
      <trkpt lat="40.3963420" lon="-3.8407450">
        <ele>733.2</ele>
        <time>2021-05-08T13:13:31Z</time>
      </trkpt>
      <trkpt lat="40.3963110" lon="-3.8408120">
        <ele>733.1</ele>
        <time>2021-05-08T13:13:32Z</time>
      </trkpt>
      <trkpt lat="40.3962630" lon="-3.8409000">
        <ele>732.9</ele>
        <time>2021-05-08T13:13:34Z</time>
      </trkpt>
      <trkpt lat="40.3961820" lon="-3.8409780">
        <ele>732.6</ele>
        <time>2021-05-08T13:13:36Z</time>
      </trkpt>
      <trkpt lat="40.3961390" lon="-3.8410080">
        <ele>732.4</ele>
        <time>2021-05-08T13:13:37Z</time>
      </trkpt>
      <trkpt lat="40.3960960" lon="-3.8410380">
        <ele>732.3</ele>
        <time>2021-05-08T13:13:38Z</time>
      </trkpt>
      <trkpt lat="40.3959920" lon="-3.8411010">
        <ele>732.0</ele>
        <time>2021-05-08T13:13:40Z</time>
      </trkpt>
      <trkpt lat="40.3958720" lon="-3.8411460">
        <ele>731.7</ele>
        <time>2021-05-08T13:13:42Z</time>
      </trkpt>
      <trkpt lat="40.3957510" lon="-3.8411900">
        <ele>731.5</ele>
        <time>2021-05-08T13:13:44Z</time>
      </trkpt>
      <trkpt lat="40.3956490" lon="-3.8412180">
        <ele>731.3</ele>
        <time>2021-05-08T13:13:46Z</time>
      </trkpt>
      <trkpt lat="40.3956130" lon="-3.8412320">
        <ele>731.2</ele>
        <time>2021-05-08T13:13:47Z</time>
      </trkpt>
      <trkpt lat="40.3955970" lon="-3.8412440">
        <ele>731.2</ele>
        <time>2021-05-08T13:13:49Z</time>
      </trkpt>
      <trkpt lat="40.3955960" lon="-3.8412440">
        <ele>731.2</ele>
        <time>2021-05-08T13:13:50Z</time>
      </trkpt>
      <trkpt lat="40.3955990" lon="-3.8412420">
        <ele>731.2</ele>
        <time>2021-05-08T13:13:52Z</time>
      </trkpt>
      <trkpt lat="40.3956000" lon="-3.8412410">
        <ele>731.2</ele>
        <time>2021-05-08T13:13:53Z</time>
      </trkpt>
      <trkpt lat="40.3955990" lon="-3.8412410">
        <ele>731.2</ele>
        <time>2021-05-08T13:13:54Z</time>
      </trkpt>
      <trkpt lat="40.3956000" lon="-3.8412410">
        <ele>731.2</ele>
        <time>2021-05-08T13:13:56Z</time>
      </trkpt>
      <trkpt lat="40.3956000" lon="-3.8412410">
        <ele>731.2</ele>
        <time>2021-05-08T13:13:58Z</time>
      </trkpt>
      <trkpt lat="40.3956000" lon="-3.8412410">
        <ele>731.2</ele>
        <time>2021-05-08T13:13:59Z</time>
      </trkpt>
      <trkpt lat="40.3956000" lon="-3.8412410">
        <ele>731.2</ele>
        <time>2021-05-08T13:14:01Z</time>
      </trkpt>
      <trkpt lat="40.3955850" lon="-3.8412430">
        <ele>731.2</ele>
        <time>2021-05-08T13:14:06Z</time>
      </trkpt>
      <trkpt lat="40.3955610" lon="-3.8412620">
        <ele>731.2</ele>
        <time>2021-05-08T13:14:08Z</time>
      </trkpt>
      <trkpt lat="40.3955480" lon="-3.8412840">
        <ele>731.1</ele>
        <time>2021-05-08T13:14:09Z</time>
      </trkpt>
      <trkpt lat="40.3955200" lon="-3.8413460">
        <ele>731.1</ele>
        <time>2021-05-08T13:14:11Z</time>
      </trkpt>
      <trkpt lat="40.3954610" lon="-3.8414440">
        <ele>731.0</ele>
        <time>2021-05-08T13:14:13Z</time>
      </trkpt>
      <trkpt lat="40.3954270" lon="-3.8414750">
        <ele>730.9</ele>
        <time>2021-05-08T13:14:14Z</time>
      </trkpt>
      <trkpt lat="40.3953200" lon="-3.8414970">
        <ele>730.6</ele>
        <time>2021-05-08T13:14:16Z</time>
      </trkpt>
      <trkpt lat="40.3952600" lon="-3.8414920">
        <ele>730.4</ele>
        <time>2021-05-08T13:14:17Z</time>
      </trkpt>
      <trkpt lat="40.3952210" lon="-3.8414750">
        <ele>730.3</ele>
        <time>2021-05-08T13:14:18Z</time>
      </trkpt>
      <trkpt lat="40.3951070" lon="-3.8414040">
        <ele>729.8</ele>
        <time>2021-05-08T13:14:20Z</time>
      </trkpt>
      <trkpt lat="40.3950490" lon="-3.8413990">
        <ele>729.6</ele>
        <time>2021-05-08T13:14:21Z</time>
      </trkpt>
      <trkpt lat="40.3949950" lon="-3.8414120">
        <ele>729.5</ele>
        <time>2021-05-08T13:14:22Z</time>
      </trkpt>
      <trkpt lat="40.3949390" lon="-3.8414300">
        <ele>729.3</ele>
        <time>2021-05-08T13:14:23Z</time>
      </trkpt>
      <trkpt lat="40.3948310" lon="-3.8414630">
        <ele>729.0</ele>
        <time>2021-05-08T13:14:25Z</time>
      </trkpt>
      <trkpt lat="40.3947280" lon="-3.8414930">
        <ele>728.6</ele>
        <time>2021-05-08T13:14:27Z</time>
      </trkpt>
      <trkpt lat="40.3946740" lon="-3.8415080">
        <ele>728.4</ele>
        <time>2021-05-08T13:14:28Z</time>
      </trkpt>
      <trkpt lat="40.3946200" lon="-3.8415250">
        <ele>728.3</ele>
        <time>2021-05-08T13:14:29Z</time>
      </trkpt>
      <trkpt lat="40.3945130" lon="-3.8415630">
        <ele>728.2</ele>
        <time>2021-05-08T13:14:31Z</time>
      </trkpt>
      <trkpt lat="40.3944600" lon="-3.8415800">
        <ele>728.2</ele>
        <time>2021-05-08T13:14:32Z</time>
      </trkpt>
      <trkpt lat="40.3944090" lon="-3.8415910">
        <ele>728.1</ele>
        <time>2021-05-08T13:14:33Z</time>
      </trkpt>
      <trkpt lat="40.3943580" lon="-3.8416030">
        <ele>728.0</ele>
        <time>2021-05-08T13:14:34Z</time>
      </trkpt>
      <trkpt lat="40.3942650" lon="-3.8416470">
        <ele>727.9</ele>
        <time>2021-05-08T13:14:36Z</time>
      </trkpt>
      <trkpt lat="40.3942210" lon="-3.8416680">
        <ele>727.9</ele>
        <time>2021-05-08T13:14:37Z</time>
      </trkpt>
      <trkpt lat="40.3941780" lon="-3.8416860">
        <ele>727.8</ele>
        <time>2021-05-08T13:14:38Z</time>
      </trkpt>
      <trkpt lat="40.3941340" lon="-3.8417020">
        <ele>727.8</ele>
        <time>2021-05-08T13:14:39Z</time>
      </trkpt>
      <trkpt lat="40.3940600" lon="-3.8417250">
        <ele>727.8</ele>
        <time>2021-05-08T13:14:41Z</time>
      </trkpt>
      <trkpt lat="40.3940280" lon="-3.8417370">
        <ele>727.8</ele>
        <time>2021-05-08T13:14:42Z</time>
      </trkpt>
      <trkpt lat="40.3939320" lon="-3.8417690">
        <ele>727.9</ele>
        <time>2021-05-08T13:14:44Z</time>
      </trkpt>
      <trkpt lat="40.3938910" lon="-3.8417830">
        <ele>728.0</ele>
        <time>2021-05-08T13:14:45Z</time>
      </trkpt>
      <trkpt lat="40.3938910" lon="-3.8417920">
        <ele>728.0</ele>
        <time>2021-05-08T13:14:46Z</time>
      </trkpt>
      <trkpt lat="40.3939100" lon="-3.8418080">
        <ele>728.0</ele>
        <time>2021-05-08T13:14:47Z</time>
      </trkpt>
      <trkpt lat="40.3938450" lon="-3.8418350">
        <ele>728.1</ele>
        <time>2021-05-08T13:14:49Z</time>
      </trkpt>
      <trkpt lat="40.3937860" lon="-3.8418490">
        <ele>728.2</ele>
        <time>2021-05-08T13:14:50Z</time>
      </trkpt>
      <trkpt lat="40.3936780" lon="-3.8418700">
        <ele>728.4</ele>
        <time>2021-05-08T13:14:52Z</time>
      </trkpt>
      <trkpt lat="40.3936230" lon="-3.8418810">
        <ele>728.5</ele>
        <time>2021-05-08T13:14:53Z</time>
      </trkpt>
      <trkpt lat="40.3935280" lon="-3.8419100">
        <ele>728.8</ele>
        <time>2021-05-08T13:14:55Z</time>
      </trkpt>
      <trkpt lat="40.3934620" lon="-3.8419300">
        <ele>729.1</ele>
        <time>2021-05-08T13:14:56Z</time>
      </trkpt>
      <trkpt lat="40.3934000" lon="-3.8419470">
        <ele>729.3</ele>
        <time>2021-05-08T13:14:58Z</time>
      </trkpt>
      <trkpt lat="40.3933310" lon="-3.8419680">
        <ele>729.6</ele>
        <time>2021-05-08T13:15:00Z</time>
      </trkpt>
      <trkpt lat="40.3932830" lon="-3.8419820">
        <ele>729.9</ele>
        <time>2021-05-08T13:15:01Z</time>
      </trkpt>
      <trkpt lat="40.3932450" lon="-3.8419940">
        <ele>730.1</ele>
        <time>2021-05-08T13:15:02Z</time>
      </trkpt>
      <trkpt lat="40.3932120" lon="-3.8420050">
        <ele>730.2</ele>
        <time>2021-05-08T13:15:03Z</time>
      </trkpt>
      <trkpt lat="40.3931670" lon="-3.8420180">
        <ele>730.5</ele>
        <time>2021-05-08T13:15:04Z</time>
      </trkpt>
      <trkpt lat="40.3931230" lon="-3.8420260">
        <ele>730.8</ele>
        <time>2021-05-08T13:15:06Z</time>
      </trkpt>
      <trkpt lat="40.3930940" lon="-3.8420250">
        <ele>731.0</ele>
        <time>2021-05-08T13:15:07Z</time>
      </trkpt>
      <trkpt lat="40.3930540" lon="-3.8420290">
        <ele>731.2</ele>
        <time>2021-05-08T13:15:08Z</time>
      </trkpt>
      <trkpt lat="40.3930160" lon="-3.8420290">
        <ele>731.5</ele>
        <time>2021-05-08T13:15:09Z</time>
      </trkpt>
      <trkpt lat="40.3929590" lon="-3.8420340">
        <ele>731.9</ele>
        <time>2021-05-08T13:15:11Z</time>
      </trkpt>
      <trkpt lat="40.3929230" lon="-3.8420460">
        <ele>732.2</ele>
        <time>2021-05-08T13:15:13Z</time>
      </trkpt>
      <trkpt lat="40.3928690" lon="-3.8420680">
        <ele>732.7</ele>
        <time>2021-05-08T13:15:15Z</time>
      </trkpt>
      <trkpt lat="40.3928400" lon="-3.8420820">
        <ele>732.9</ele>
        <time>2021-05-08T13:15:16Z</time>
      </trkpt>
      <trkpt lat="40.3928050" lon="-3.8420850">
        <ele>733.2</ele>
        <time>2021-05-08T13:15:18Z</time>
      </trkpt>
      <trkpt lat="40.3927770" lon="-3.8420830">
        <ele>733.4</ele>
        <time>2021-05-08T13:15:19Z</time>
      </trkpt>
      <trkpt lat="40.3927530" lon="-3.8420820">
        <ele>733.9</ele>
        <time>2021-05-08T13:15:20Z</time>
      </trkpt>
      <trkpt lat="40.3927270" lon="-3.8420720">
        <ele>733.9</ele>
        <time>2021-05-08T13:15:22Z</time>
      </trkpt>
      <trkpt lat="40.3926960" lon="-3.8420390">
        <ele>734.0</ele>
        <time>2021-05-08T13:15:23Z</time>
      </trkpt>
      <trkpt lat="40.3926850" lon="-3.8420230">
        <ele>734.0</ele>
        <time>2021-05-08T13:15:24Z</time>
      </trkpt>
      <trkpt lat="40.3926760" lon="-3.8419820">
        <ele>734.1</ele>
        <time>2021-05-08T13:15:25Z</time>
      </trkpt>
      <trkpt lat="40.3926760" lon="-3.8419350">
        <ele>734.3</ele>
        <time>2021-05-08T13:15:27Z</time>
      </trkpt>
      <trkpt lat="40.3926700" lon="-3.8418620">
        <ele>734.4</ele>
        <time>2021-05-08T13:15:29Z</time>
      </trkpt>
      <trkpt lat="40.3926680" lon="-3.8418140">
        <ele>734.5</ele>
        <time>2021-05-08T13:15:30Z</time>
      </trkpt>
      <trkpt lat="40.3926670" lon="-3.8417330">
        <ele>734.7</ele>
        <time>2021-05-08T13:15:32Z</time>
      </trkpt>
      <trkpt lat="40.3926610" lon="-3.8416620">
        <ele>734.8</ele>
        <time>2021-05-08T13:15:34Z</time>
      </trkpt>
      <trkpt lat="40.3926590" lon="-3.8416030">
        <ele>734.9</ele>
        <time>2021-05-08T13:15:35Z</time>
      </trkpt>
      <trkpt lat="40.3926530" lon="-3.8415080">
        <ele>735.1</ele>
        <time>2021-05-08T13:15:37Z</time>
      </trkpt>
      <trkpt lat="40.3926510" lon="-3.8414420">
        <ele>735.2</ele>
        <time>2021-05-08T13:15:38Z</time>
      </trkpt>
      <trkpt lat="40.3926530" lon="-3.8413670">
        <ele>735.3</ele>
        <time>2021-05-08T13:15:40Z</time>
      </trkpt>
      <trkpt lat="40.3926490" lon="-3.8413190">
        <ele>735.3</ele>
        <time>2021-05-08T13:15:41Z</time>
      </trkpt>
      <trkpt lat="40.3926450" lon="-3.8412630">
        <ele>735.4</ele>
        <time>2021-05-08T13:15:42Z</time>
      </trkpt>
      <trkpt lat="40.3926390" lon="-3.8411820">
        <ele>735.5</ele>
        <time>2021-05-08T13:15:44Z</time>
      </trkpt>
      <trkpt lat="40.3926340" lon="-3.8411320">
        <ele>735.6</ele>
        <time>2021-05-08T13:15:45Z</time>
      </trkpt>
      <trkpt lat="40.3926300" lon="-3.8410820">
        <ele>735.7</ele>
        <time>2021-05-08T13:15:46Z</time>
      </trkpt>
      <trkpt lat="40.3926230" lon="-3.8409940">
        <ele>735.7</ele>
        <time>2021-05-08T13:15:48Z</time>
      </trkpt>
      <trkpt lat="40.3926120" lon="-3.8409170">
        <ele>735.8</ele>
        <time>2021-05-08T13:15:49Z</time>
      </trkpt>
      <trkpt lat="40.3926060" lon="-3.8408440">
        <ele>735.9</ele>
        <time>2021-05-08T13:15:51Z</time>
      </trkpt>
      <trkpt lat="40.3925980" lon="-3.8407910">
        <ele>735.9</ele>
        <time>2021-05-08T13:15:52Z</time>
      </trkpt>
      <trkpt lat="40.3925960" lon="-3.8407390">
        <ele>735.9</ele>
        <time>2021-05-08T13:15:53Z</time>
      </trkpt>
      <trkpt lat="40.3925930" lon="-3.8406930">
        <ele>736.0</ele>
        <time>2021-05-08T13:15:54Z</time>
      </trkpt>
      <trkpt lat="40.3925890" lon="-3.8406300">
        <ele>736.0</ele>
        <time>2021-05-08T13:15:56Z</time>
      </trkpt>
      <trkpt lat="40.3925850" lon="-3.8405840">
        <ele>736.1</ele>
        <time>2021-05-08T13:15:57Z</time>
      </trkpt>
      <trkpt lat="40.3925810" lon="-3.8404920">
        <ele>736.1</ele>
        <time>2021-05-08T13:15:59Z</time>
      </trkpt>
      <trkpt lat="40.3925770" lon="-3.8404200">
        <ele>736.2</ele>
        <time>2021-05-08T13:16:00Z</time>
      </trkpt>
      <trkpt lat="40.3925670" lon="-3.8403580">
        <ele>736.2</ele>
        <time>2021-05-08T13:16:02Z</time>
      </trkpt>
      <trkpt lat="40.3925630" lon="-3.8402980">
        <ele>736.3</ele>
        <time>2021-05-08T13:16:03Z</time>
      </trkpt>
      <trkpt lat="40.3925600" lon="-3.8402460">
        <ele>736.3</ele>
        <time>2021-05-08T13:16:04Z</time>
      </trkpt>
      <trkpt lat="40.3925540" lon="-3.8401930">
        <ele>736.4</ele>
        <time>2021-05-08T13:16:05Z</time>
      </trkpt>
      <trkpt lat="40.3925510" lon="-3.8401340">
        <ele>736.4</ele>
        <time>2021-05-08T13:16:07Z</time>
      </trkpt>
      <trkpt lat="40.3925480" lon="-3.8400880">
        <ele>736.4</ele>
        <time>2021-05-08T13:16:08Z</time>
      </trkpt>
      <trkpt lat="40.3925470" lon="-3.8400400">
        <ele>736.5</ele>
        <time>2021-05-08T13:16:09Z</time>
      </trkpt>
      <trkpt lat="40.3925450" lon="-3.8399920">
        <ele>736.5</ele>
        <time>2021-05-08T13:16:10Z</time>
      </trkpt>
      <trkpt lat="40.3925410" lon="-3.8399350">
        <ele>736.5</ele>
        <time>2021-05-08T13:16:11Z</time>
      </trkpt>
      <trkpt lat="40.3925410" lon="-3.8398870">
        <ele>736.5</ele>
        <time>2021-05-08T13:16:12Z</time>
      </trkpt>
      <trkpt lat="40.3925410" lon="-3.8398330">
        <ele>736.6</ele>
        <time>2021-05-08T13:16:13Z</time>
      </trkpt>
      <trkpt lat="40.3925390" lon="-3.8397460">
        <ele>736.6</ele>
        <time>2021-05-08T13:16:15Z</time>
      </trkpt>
      <trkpt lat="40.3925330" lon="-3.8396810">
        <ele>736.6</ele>
        <time>2021-05-08T13:16:16Z</time>
      </trkpt>
      <trkpt lat="40.3925260" lon="-3.8395950">
        <ele>736.7</ele>
        <time>2021-05-08T13:16:18Z</time>
      </trkpt>
      <trkpt lat="40.3925200" lon="-3.8395230">
        <ele>736.7</ele>
        <time>2021-05-08T13:16:19Z</time>
      </trkpt>
      <trkpt lat="40.3925160" lon="-3.8394330">
        <ele>736.7</ele>
        <time>2021-05-08T13:16:21Z</time>
      </trkpt>
      <trkpt lat="40.3925130" lon="-3.8393810">
        <ele>736.7</ele>
        <time>2021-05-08T13:16:22Z</time>
      </trkpt>
      <trkpt lat="40.3925030" lon="-3.8393070">
        <ele>736.7</ele>
        <time>2021-05-08T13:16:23Z</time>
      </trkpt>
      <trkpt lat="40.3924910" lon="-3.8392290">
        <ele>736.7</ele>
        <time>2021-05-08T13:16:25Z</time>
      </trkpt>
      <trkpt lat="40.3924850" lon="-3.8391320">
        <ele>736.7</ele>
        <time>2021-05-08T13:16:27Z</time>
      </trkpt>
      <trkpt lat="40.3924800" lon="-3.8390730">
        <ele>736.7</ele>
        <time>2021-05-08T13:16:28Z</time>
      </trkpt>
      <trkpt lat="40.3924730" lon="-3.8390030">
        <ele>736.6</ele>
        <time>2021-05-08T13:16:29Z</time>
      </trkpt>
      <trkpt lat="40.3924680" lon="-3.8388780">
        <ele>736.6</ele>
        <time>2021-05-08T13:16:31Z</time>
      </trkpt>
      <trkpt lat="40.3924270" lon="-3.8388030">
        <ele>736.5</ele>
        <time>2021-05-08T13:16:33Z</time>
      </trkpt>
      <trkpt lat="40.3924240" lon="-3.8387420">
        <ele>736.5</ele>
        <time>2021-05-08T13:16:34Z</time>
      </trkpt>
      <trkpt lat="40.3924580" lon="-3.8386430">
        <ele>736.5</ele>
        <time>2021-05-08T13:16:35Z</time>
      </trkpt>
      <trkpt lat="40.3924590" lon="-3.8385170">
        <ele>736.4</ele>
        <time>2021-05-08T13:16:37Z</time>
      </trkpt>
      <trkpt lat="40.3924420" lon="-3.8384120">
        <ele>736.3</ele>
        <time>2021-05-08T13:16:39Z</time>
      </trkpt>
      <trkpt lat="40.3924360" lon="-3.8382800">
        <ele>736.3</ele>
        <time>2021-05-08T13:16:41Z</time>
      </trkpt>
      <trkpt lat="40.3924290" lon="-3.8381960">
        <ele>736.2</ele>
        <time>2021-05-08T13:16:43Z</time>
      </trkpt>
      <trkpt lat="40.3924190" lon="-3.8381130">
        <ele>736.2</ele>
        <time>2021-05-08T13:16:44Z</time>
      </trkpt>
      <trkpt lat="40.3924160" lon="-3.8380460">
        <ele>736.2</ele>
        <time>2021-05-08T13:16:45Z</time>
      </trkpt>
      <trkpt lat="40.3924160" lon="-3.8379010">
        <ele>736.1</ele>
        <time>2021-05-08T13:16:47Z</time>
      </trkpt>
      <trkpt lat="40.3924110" lon="-3.8377680">
        <ele>736.0</ele>
        <time>2021-05-08T13:16:49Z</time>
      </trkpt>
      <trkpt lat="40.3924050" lon="-3.8376380">
        <ele>736.0</ele>
        <time>2021-05-08T13:16:51Z</time>
      </trkpt>
      <trkpt lat="40.3923960" lon="-3.8375660">
        <ele>736.0</ele>
        <time>2021-05-08T13:16:52Z</time>
      </trkpt>
      <trkpt lat="40.3923730" lon="-3.8374590">
        <ele>736.0</ele>
        <time>2021-05-08T13:16:54Z</time>
      </trkpt>
      <trkpt lat="40.3923500" lon="-3.8374000">
        <ele>735.9</ele>
        <time>2021-05-08T13:16:55Z</time>
      </trkpt>
      <trkpt lat="40.3923170" lon="-3.8373490">
        <ele>735.7</ele>
        <time>2021-05-08T13:16:56Z</time>
      </trkpt>
      <trkpt lat="40.3922850" lon="-3.8373050">
        <ele>735.7</ele>
        <time>2021-05-08T13:16:57Z</time>
      </trkpt>
      <trkpt lat="40.3922660" lon="-3.8372320">
        <ele>735.6</ele>
        <time>2021-05-08T13:16:59Z</time>
      </trkpt>
      <trkpt lat="40.3922600" lon="-3.8371670">
        <ele>735.5</ele>
        <time>2021-05-08T13:17:00Z</time>
      </trkpt>
      <trkpt lat="40.3921840" lon="-3.8370640">
        <ele>735.3</ele>
        <time>2021-05-08T13:17:02Z</time>
      </trkpt>
      <trkpt lat="40.3921010" lon="-3.8369970">
        <ele>735.1</ele>
        <time>2021-05-08T13:17:04Z</time>
      </trkpt>
      <trkpt lat="40.3920180" lon="-3.8369260">
        <ele>734.8</ele>
        <time>2021-05-08T13:17:06Z</time>
      </trkpt>
      <trkpt lat="40.3919420" lon="-3.8368460">
        <ele>734.6</ele>
        <time>2021-05-08T13:17:08Z</time>
      </trkpt>
      <trkpt lat="40.3919330" lon="-3.8368280">
        <ele>734.6</ele>
        <time>2021-05-08T13:17:09Z</time>
      </trkpt>
      <trkpt lat="40.3919000" lon="-3.8367730">
        <ele>734.5</ele>
        <time>2021-05-08T13:17:11Z</time>
      </trkpt>
      <trkpt lat="40.3918400" lon="-3.8366930">
        <ele>734.4</ele>
        <time>2021-05-08T13:17:12Z</time>
      </trkpt>
      <trkpt lat="40.3917800" lon="-3.8366250">
        <ele>734.3</ele>
        <time>2021-05-08T13:17:14Z</time>
      </trkpt>
      <trkpt lat="40.3917470" lon="-3.8365820">
        <ele>734.2</ele>
        <time>2021-05-08T13:17:15Z</time>
      </trkpt>
      <trkpt lat="40.3917120" lon="-3.8365340">
        <ele>734.1</ele>
        <time>2021-05-08T13:17:16Z</time>
      </trkpt>
      <trkpt lat="40.3916530" lon="-3.8364560">
        <ele>734.0</ele>
        <time>2021-05-08T13:17:18Z</time>
      </trkpt>
      <trkpt lat="40.3916200" lon="-3.8364120">
        <ele>733.9</ele>
        <time>2021-05-08T13:17:19Z</time>
      </trkpt>
      <trkpt lat="40.3915910" lon="-3.8363700">
        <ele>733.8</ele>
        <time>2021-05-08T13:17:20Z</time>
      </trkpt>
      <trkpt lat="40.3915540" lon="-3.8363300">
        <ele>733.7</ele>
        <time>2021-05-08T13:17:21Z</time>
      </trkpt>
      <trkpt lat="40.3914780" lon="-3.8362810">
        <ele>733.5</ele>
        <time>2021-05-08T13:17:23Z</time>
      </trkpt>
      <trkpt lat="40.3913950" lon="-3.8362070">
        <ele>733.3</ele>
        <time>2021-05-08T13:17:25Z</time>
      </trkpt>
      <trkpt lat="40.3913640" lon="-3.8361490">
        <ele>733.2</ele>
        <time>2021-05-08T13:17:26Z</time>
      </trkpt>
      <trkpt lat="40.3913240" lon="-3.8360150">
        <ele>733.1</ele>
        <time>2021-05-08T13:17:28Z</time>
      </trkpt>
      <trkpt lat="40.3912980" lon="-3.8358680">
        <ele>733.0</ele>
        <time>2021-05-08T13:17:30Z</time>
      </trkpt>
      <trkpt lat="40.3912880" lon="-3.8357290">
        <ele>733.0</ele>
        <time>2021-05-08T13:17:32Z</time>
      </trkpt>
      <trkpt lat="40.3912830" lon="-3.8356630">
        <ele>733.0</ele>
        <time>2021-05-08T13:17:33Z</time>
      </trkpt>
      <trkpt lat="40.3912680" lon="-3.8355350">
        <ele>733.0</ele>
        <time>2021-05-08T13:17:35Z</time>
      </trkpt>
      <trkpt lat="40.3912650" lon="-3.8354720">
        <ele>733.0</ele>
        <time>2021-05-08T13:17:36Z</time>
      </trkpt>
      <trkpt lat="40.3912640" lon="-3.8353480">
        <ele>733.0</ele>
        <time>2021-05-08T13:17:38Z</time>
      </trkpt>
      <trkpt lat="40.3912660" lon="-3.8353150">
        <ele>733.0</ele>
        <time>2021-05-08T13:17:39Z</time>
      </trkpt>
      <trkpt lat="40.3912660" lon="-3.8351820">
        <ele>733.1</ele>
        <time>2021-05-08T13:17:41Z</time>
      </trkpt>
      <trkpt lat="40.3912630" lon="-3.8351360">
        <ele>733.1</ele>
        <time>2021-05-08T13:17:42Z</time>
      </trkpt>
      <trkpt lat="40.3912430" lon="-3.8350260">
        <ele>733.1</ele>
        <time>2021-05-08T13:17:44Z</time>
      </trkpt>
      <trkpt lat="40.3912330" lon="-3.8349640">
        <ele>733.1</ele>
        <time>2021-05-08T13:17:45Z</time>
      </trkpt>
      <trkpt lat="40.3912080" lon="-3.8349010">
        <ele>733.1</ele>
        <time>2021-05-08T13:17:46Z</time>
      </trkpt>
      <trkpt lat="40.3911930" lon="-3.8348280">
        <ele>733.1</ele>
        <time>2021-05-08T13:17:48Z</time>
      </trkpt>
      <trkpt lat="40.3911870" lon="-3.8347600">
        <ele>733.1</ele>
        <time>2021-05-08T13:17:49Z</time>
      </trkpt>
      <trkpt lat="40.3911780" lon="-3.8346940">
        <ele>733.1</ele>
        <time>2021-05-08T13:17:50Z</time>
      </trkpt>
      <trkpt lat="40.3911810" lon="-3.8346430">
        <ele>733.1</ele>
        <time>2021-05-08T13:17:51Z</time>
      </trkpt>
      <trkpt lat="40.3911630" lon="-3.8345770">
        <ele>733.1</ele>
        <time>2021-05-08T13:17:53Z</time>
      </trkpt>
      <trkpt lat="40.3911480" lon="-3.8345180">
        <ele>733.1</ele>
        <time>2021-05-08T13:17:54Z</time>
      </trkpt>
      <trkpt lat="40.3911340" lon="-3.8344420">
        <ele>733.1</ele>
        <time>2021-05-08T13:17:56Z</time>
      </trkpt>
      <trkpt lat="40.3911240" lon="-3.8343810">
        <ele>733.0</ele>
        <time>2021-05-08T13:17:57Z</time>
      </trkpt>
      <trkpt lat="40.3911360" lon="-3.8342960">
        <ele>733.0</ele>
        <time>2021-05-08T13:17:58Z</time>
      </trkpt>
      <trkpt lat="40.3911300" lon="-3.8342250">
        <ele>733.0</ele>
        <time>2021-05-08T13:17:59Z</time>
      </trkpt>
      <trkpt lat="40.3911140" lon="-3.8341220">
        <ele>732.9</ele>
        <time>2021-05-08T13:18:01Z</time>
      </trkpt>
      <trkpt lat="40.3911040" lon="-3.8340350">
        <ele>732.9</ele>
        <time>2021-05-08T13:18:02Z</time>
      </trkpt>
      <trkpt lat="40.3911210" lon="-3.8339360">
        <ele>732.9</ele>
        <time>2021-05-08T13:18:04Z</time>
      </trkpt>
      <trkpt lat="40.3910900" lon="-3.8338300">
        <ele>732.8</ele>
        <time>2021-05-08T13:18:06Z</time>
      </trkpt>
      <trkpt lat="40.3910670" lon="-3.8337490">
        <ele>732.8</ele>
        <time>2021-05-08T13:18:07Z</time>
      </trkpt>
      <trkpt lat="40.3910670" lon="-3.8336890">
        <ele>732.7</ele>
        <time>2021-05-08T13:18:08Z</time>
      </trkpt>
      <trkpt lat="40.3910680" lon="-3.8335590">
        <ele>732.6</ele>
        <time>2021-05-08T13:18:10Z</time>
      </trkpt>
      <trkpt lat="40.3910710" lon="-3.8334900">
        <ele>732.6</ele>
        <time>2021-05-08T13:18:11Z</time>
      </trkpt>
      <trkpt lat="40.3910640" lon="-3.8333470">
        <ele>732.5</ele>
        <time>2021-05-08T13:18:13Z</time>
      </trkpt>
      <trkpt lat="40.3910640" lon="-3.8332070">
        <ele>732.5</ele>
        <time>2021-05-08T13:18:15Z</time>
      </trkpt>
      <trkpt lat="40.3910630" lon="-3.8331440">
        <ele>732.5</ele>
        <time>2021-05-08T13:18:16Z</time>
      </trkpt>
      <trkpt lat="40.3910560" lon="-3.8330130">
        <ele>732.5</ele>
        <time>2021-05-08T13:18:18Z</time>
      </trkpt>
      <trkpt lat="40.3910520" lon="-3.8329480">
        <ele>732.5</ele>
        <time>2021-05-08T13:18:19Z</time>
      </trkpt>
      <trkpt lat="40.3910430" lon="-3.8328520">
        <ele>732.5</ele>
        <time>2021-05-08T13:18:21Z</time>
      </trkpt>
      <trkpt lat="40.3910290" lon="-3.8327750">
        <ele>732.5</ele>
        <time>2021-05-08T13:18:22Z</time>
      </trkpt>
      <trkpt lat="40.3910220" lon="-3.8327330">
        <ele>732.5</ele>
        <time>2021-05-08T13:18:23Z</time>
      </trkpt>
      <trkpt lat="40.3910180" lon="-3.8326700">
        <ele>732.5</ele>
        <time>2021-05-08T13:18:24Z</time>
      </trkpt>
      <trkpt lat="40.3910130" lon="-3.8325590">
        <ele>732.5</ele>
        <time>2021-05-08T13:18:26Z</time>
      </trkpt>
      <trkpt lat="40.3910070" lon="-3.8324420">
        <ele>732.5</ele>
        <time>2021-05-08T13:18:28Z</time>
      </trkpt>
      <trkpt lat="40.3910020" lon="-3.8323420">
        <ele>732.5</ele>
        <time>2021-05-08T13:18:30Z</time>
      </trkpt>
      <trkpt lat="40.3910050" lon="-3.8322650">
        <ele>732.5</ele>
        <time>2021-05-08T13:18:31Z</time>
      </trkpt>
      <trkpt lat="40.3910120" lon="-3.8321640">
        <ele>732.5</ele>
        <time>2021-05-08T13:18:33Z</time>
      </trkpt>
      <trkpt lat="40.3910120" lon="-3.8321050">
        <ele>732.4</ele>
        <time>2021-05-08T13:18:34Z</time>
      </trkpt>
      <trkpt lat="40.3910100" lon="-3.8320400">
        <ele>732.4</ele>
        <time>2021-05-08T13:18:35Z</time>
      </trkpt>
      <trkpt lat="40.3910090" lon="-3.8319300">
        <ele>732.4</ele>
        <time>2021-05-08T13:18:37Z</time>
      </trkpt>
      <trkpt lat="40.3910060" lon="-3.8318620">
        <ele>732.4</ele>
        <time>2021-05-08T13:18:38Z</time>
      </trkpt>
      <trkpt lat="40.3910030" lon="-3.8317900">
        <ele>732.4</ele>
        <time>2021-05-08T13:18:39Z</time>
      </trkpt>
      <trkpt lat="40.3910000" lon="-3.8317280">
        <ele>732.4</ele>
        <time>2021-05-08T13:18:40Z</time>
      </trkpt>
      <trkpt lat="40.3909950" lon="-3.8316520">
        <ele>732.3</ele>
        <time>2021-05-08T13:18:42Z</time>
      </trkpt>
      <trkpt lat="40.3909790" lon="-3.8315620">
        <ele>732.3</ele>
        <time>2021-05-08T13:18:43Z</time>
      </trkpt>
      <trkpt lat="40.3909690" lon="-3.8314970">
        <ele>732.2</ele>
        <time>2021-05-08T13:18:44Z</time>
      </trkpt>
      <trkpt lat="40.3909520" lon="-3.8313710">
        <ele>732.1</ele>
        <time>2021-05-08T13:18:46Z</time>
      </trkpt>
      <trkpt lat="40.3909440" lon="-3.8313010">
        <ele>732.1</ele>
        <time>2021-05-08T13:18:47Z</time>
      </trkpt>
      <trkpt lat="40.3909250" lon="-3.8311690">
        <ele>731.9</ele>
        <time>2021-05-08T13:18:49Z</time>
      </trkpt>
      <trkpt lat="40.3909090" lon="-3.8311060">
        <ele>731.8</ele>
        <time>2021-05-08T13:18:50Z</time>
      </trkpt>
      <trkpt lat="40.3908830" lon="-3.8309860">
        <ele>731.6</ele>
        <time>2021-05-08T13:18:52Z</time>
      </trkpt>
      <trkpt lat="40.3908640" lon="-3.8309260">
        <ele>731.4</ele>
        <time>2021-05-08T13:18:53Z</time>
      </trkpt>
      <trkpt lat="40.3908150" lon="-3.8308080">
        <ele>731.3</ele>
        <time>2021-05-08T13:18:55Z</time>
      </trkpt>
      <trkpt lat="40.3907820" lon="-3.8307580">
        <ele>731.2</ele>
        <time>2021-05-08T13:18:56Z</time>
      </trkpt>
      <trkpt lat="40.3907040" lon="-3.8306930">
        <ele>731.0</ele>
        <time>2021-05-08T13:18:58Z</time>
      </trkpt>
      <trkpt lat="40.3906400" lon="-3.8306570">
        <ele>730.9</ele>
        <time>2021-05-08T13:19:00Z</time>
      </trkpt>
      <trkpt lat="40.3906050" lon="-3.8306320">
        <ele>730.8</ele>
        <time>2021-05-08T13:19:01Z</time>
      </trkpt>
      <trkpt lat="40.3905210" lon="-3.8305660">
        <ele>730.6</ele>
        <time>2021-05-08T13:19:03Z</time>
      </trkpt>
      <trkpt lat="40.3904760" lon="-3.8305310">
        <ele>730.5</ele>
        <time>2021-05-08T13:19:04Z</time>
      </trkpt>
      <trkpt lat="40.3904320" lon="-3.8305000">
        <ele>730.4</ele>
        <time>2021-05-08T13:19:05Z</time>
      </trkpt>
      <trkpt lat="40.3903820" lon="-3.8304650">
        <ele>730.3</ele>
        <time>2021-05-08T13:19:06Z</time>
      </trkpt>
      <trkpt lat="40.3903270" lon="-3.8304140">
        <ele>730.2</ele>
        <time>2021-05-08T13:19:08Z</time>
      </trkpt>
      <trkpt lat="40.3902870" lon="-3.8303830">
        <ele>730.2</ele>
        <time>2021-05-08T13:19:09Z</time>
      </trkpt>
      <trkpt lat="40.3902360" lon="-3.8303470">
        <ele>730.1</ele>
        <time>2021-05-08T13:19:10Z</time>
      </trkpt>
      <trkpt lat="40.3901880" lon="-3.8303230">
        <ele>729.9</ele>
        <time>2021-05-08T13:19:12Z</time>
      </trkpt>
      <trkpt lat="40.3901090" lon="-3.8302840">
        <ele>729.7</ele>
        <time>2021-05-08T13:19:14Z</time>
      </trkpt>
      <trkpt lat="40.3900570" lon="-3.8302490">
        <ele>729.5</ele>
        <time>2021-05-08T13:19:16Z</time>
      </trkpt>
      <trkpt lat="40.3900220" lon="-3.8302340">
        <ele>729.4</ele>
        <time>2021-05-08T13:19:17Z</time>
      </trkpt>
      <trkpt lat="40.3899660" lon="-3.8302010">
        <ele>729.2</ele>
        <time>2021-05-08T13:19:19Z</time>
      </trkpt>
      <trkpt lat="40.3899230" lon="-3.8301680">
        <ele>729.1</ele>
        <time>2021-05-08T13:19:20Z</time>
      </trkpt>
      <trkpt lat="40.3898680" lon="-3.8301200">
        <ele>728.9</ele>
        <time>2021-05-08T13:19:21Z</time>
      </trkpt>
      <trkpt lat="40.3897800" lon="-3.8300590">
        <ele>728.7</ele>
        <time>2021-05-08T13:19:23Z</time>
      </trkpt>
      <trkpt lat="40.3897350" lon="-3.8300380">
        <ele>728.6</ele>
        <time>2021-05-08T13:19:24Z</time>
      </trkpt>
      <trkpt lat="40.3896460" lon="-3.8299920">
        <ele>728.4</ele>
        <time>2021-05-08T13:19:26Z</time>
      </trkpt>
      <trkpt lat="40.3895620" lon="-3.8299280">
        <ele>728.3</ele>
        <time>2021-05-08T13:19:28Z</time>
      </trkpt>
      <trkpt lat="40.3895160" lon="-3.8298960">
        <ele>728.2</ele>
        <time>2021-05-08T13:19:29Z</time>
      </trkpt>
      <trkpt lat="40.3894270" lon="-3.8298310">
        <ele>728.2</ele>
        <time>2021-05-08T13:19:31Z</time>
      </trkpt>
      <trkpt lat="40.3893410" lon="-3.8297650">
        <ele>728.1</ele>
        <time>2021-05-08T13:19:33Z</time>
      </trkpt>
      <trkpt lat="40.3892980" lon="-3.8297310">
        <ele>728.0</ele>
        <time>2021-05-08T13:19:34Z</time>
      </trkpt>
      <trkpt lat="40.3892150" lon="-3.8296630">
        <ele>728.0</ele>
        <time>2021-05-08T13:19:36Z</time>
      </trkpt>
      <trkpt lat="40.3891320" lon="-3.8295890">
        <ele>727.9</ele>
        <time>2021-05-08T13:19:38Z</time>
      </trkpt>
      <trkpt lat="40.3890920" lon="-3.8295510">
        <ele>727.8</ele>
        <time>2021-05-08T13:19:39Z</time>
      </trkpt>
      <trkpt lat="40.3890140" lon="-3.8294860">
        <ele>727.7</ele>
        <time>2021-05-08T13:19:41Z</time>
      </trkpt>
      <trkpt lat="40.3889770" lon="-3.8294550">
        <ele>727.6</ele>
        <time>2021-05-08T13:19:42Z</time>
      </trkpt>
      <trkpt lat="40.3889390" lon="-3.8294260">
        <ele>727.5</ele>
        <time>2021-05-08T13:19:43Z</time>
      </trkpt>
      <trkpt lat="40.3888740" lon="-3.8293690">
        <ele>727.4</ele>
        <time>2021-05-08T13:19:45Z</time>
      </trkpt>
      <trkpt lat="40.3888270" lon="-3.8293300">
        <ele>727.3</ele>
        <time>2021-05-08T13:19:46Z</time>
      </trkpt>
      <trkpt lat="40.3887840" lon="-3.8292930">
        <ele>727.2</ele>
        <time>2021-05-08T13:19:47Z</time>
      </trkpt>
      <trkpt lat="40.3887050" lon="-3.8292220">
        <ele>727.0</ele>
        <time>2021-05-08T13:19:49Z</time>
      </trkpt>
      <trkpt lat="40.3886440" lon="-3.8291770">
        <ele>726.9</ele>
        <time>2021-05-08T13:19:51Z</time>
      </trkpt>
      <trkpt lat="40.3886010" lon="-3.8291500">
        <ele>726.8</ele>
        <time>2021-05-08T13:19:52Z</time>
      </trkpt>
      <trkpt lat="40.3885010" lon="-3.8290820">
        <ele>726.4</ele>
        <time>2021-05-08T13:19:54Z</time>
      </trkpt>
      <trkpt lat="40.3884570" lon="-3.8290470">
        <ele>726.3</ele>
        <time>2021-05-08T13:19:55Z</time>
      </trkpt>
      <trkpt lat="40.3883700" lon="-3.8289730">
        <ele>726.0</ele>
        <time>2021-05-08T13:19:57Z</time>
      </trkpt>
      <trkpt lat="40.3883290" lon="-3.8289350">
        <ele>725.8</ele>
        <time>2021-05-08T13:19:58Z</time>
      </trkpt>
      <trkpt lat="40.3882460" lon="-3.8288500">
        <ele>725.6</ele>
        <time>2021-05-08T13:20:00Z</time>
      </trkpt>
      <trkpt lat="40.3881600" lon="-3.8287750">
        <ele>725.3</ele>
        <time>2021-05-08T13:20:02Z</time>
      </trkpt>
      <trkpt lat="40.3881160" lon="-3.8287370">
        <ele>725.2</ele>
        <time>2021-05-08T13:20:03Z</time>
      </trkpt>
      <trkpt lat="40.3880270" lon="-3.8286630">
        <ele>724.9</ele>
        <time>2021-05-08T13:20:05Z</time>
      </trkpt>
      <trkpt lat="40.3879340" lon="-3.8285850">
        <ele>724.7</ele>
        <time>2021-05-08T13:20:07Z</time>
      </trkpt>
      <trkpt lat="40.3878910" lon="-3.8285460">
        <ele>724.6</ele>
        <time>2021-05-08T13:20:08Z</time>
      </trkpt>
      <trkpt lat="40.3878480" lon="-3.8285050">
        <ele>724.5</ele>
        <time>2021-05-08T13:20:09Z</time>
      </trkpt>
      <trkpt lat="40.3877680" lon="-3.8284160">
        <ele>724.3</ele>
        <time>2021-05-08T13:20:11Z</time>
      </trkpt>
      <trkpt lat="40.3876920" lon="-3.8283320">
        <ele>724.1</ele>
        <time>2021-05-08T13:20:13Z</time>
      </trkpt>
      <trkpt lat="40.3876060" lon="-3.8282540">
        <ele>723.9</ele>
        <time>2021-05-08T13:20:15Z</time>
      </trkpt>
      <trkpt lat="40.3875580" lon="-3.8282190">
        <ele>723.8</ele>
        <time>2021-05-08T13:20:16Z</time>
      </trkpt>
      <trkpt lat="40.3875120" lon="-3.8281810">
        <ele>723.8</ele>
        <time>2021-05-08T13:20:17Z</time>
      </trkpt>
      <trkpt lat="40.3874730" lon="-3.8281430">
        <ele>723.7</ele>
        <time>2021-05-08T13:20:18Z</time>
      </trkpt>
      <trkpt lat="40.3873930" lon="-3.8280670">
        <ele>723.6</ele>
        <time>2021-05-08T13:20:20Z</time>
      </trkpt>
      <trkpt lat="40.3873490" lon="-3.8280220">
        <ele>723.5</ele>
        <time>2021-05-08T13:20:21Z</time>
      </trkpt>
      <trkpt lat="40.3873150" lon="-3.8279850">
        <ele>723.5</ele>
        <time>2021-05-08T13:20:22Z</time>
      </trkpt>
      <trkpt lat="40.3872760" lon="-3.8279450">
        <ele>723.4</ele>
        <time>2021-05-08T13:20:23Z</time>
      </trkpt>
      <trkpt lat="40.3871920" lon="-3.8278750">
        <ele>723.3</ele>
        <time>2021-05-08T13:20:25Z</time>
      </trkpt>
      <trkpt lat="40.3871470" lon="-3.8278480">
        <ele>723.3</ele>
        <time>2021-05-08T13:20:26Z</time>
      </trkpt>
      <trkpt lat="40.3871020" lon="-3.8278210">
        <ele>723.2</ele>
        <time>2021-05-08T13:20:27Z</time>
      </trkpt>
      <trkpt lat="40.3870170" lon="-3.8277580">
        <ele>723.1</ele>
        <time>2021-05-08T13:20:29Z</time>
      </trkpt>
      <trkpt lat="40.3869750" lon="-3.8277210">
        <ele>723.1</ele>
        <time>2021-05-08T13:20:30Z</time>
      </trkpt>
      <trkpt lat="40.3868880" lon="-3.8276590">
        <ele>723.0</ele>
        <time>2021-05-08T13:20:32Z</time>
      </trkpt>
      <trkpt lat="40.3868010" lon="-3.8275980">
        <ele>722.9</ele>
        <time>2021-05-08T13:20:34Z</time>
      </trkpt>
      <trkpt lat="40.3867600" lon="-3.8275600">
        <ele>722.8</ele>
        <time>2021-05-08T13:20:35Z</time>
      </trkpt>
      <trkpt lat="40.3866780" lon="-3.8274880">
        <ele>722.8</ele>
        <time>2021-05-08T13:20:37Z</time>
      </trkpt>
      <trkpt lat="40.3866000" lon="-3.8274130">
        <ele>722.7</ele>
        <time>2021-05-08T13:20:39Z</time>
      </trkpt>
      <trkpt lat="40.3865190" lon="-3.8273310">
        <ele>722.6</ele>
        <time>2021-05-08T13:20:41Z</time>
      </trkpt>
      <trkpt lat="40.3864820" lon="-3.8272930">
        <ele>722.6</ele>
        <time>2021-05-08T13:20:42Z</time>
      </trkpt>
      <trkpt lat="40.3864410" lon="-3.8272500">
        <ele>722.5</ele>
        <time>2021-05-08T13:20:43Z</time>
      </trkpt>
      <trkpt lat="40.3863610" lon="-3.8271600">
        <ele>722.5</ele>
        <time>2021-05-08T13:20:45Z</time>
      </trkpt>
      <trkpt lat="40.3862820" lon="-3.8270670">
        <ele>722.5</ele>
        <time>2021-05-08T13:20:47Z</time>
      </trkpt>
      <trkpt lat="40.3862000" lon="-3.8269790">
        <ele>722.5</ele>
        <time>2021-05-08T13:20:49Z</time>
      </trkpt>
      <trkpt lat="40.3861200" lon="-3.8268880">
        <ele>722.5</ele>
        <time>2021-05-08T13:20:51Z</time>
      </trkpt>
      <trkpt lat="40.3860810" lon="-3.8268380">
        <ele>722.4</ele>
        <time>2021-05-08T13:20:52Z</time>
      </trkpt>
      <trkpt lat="40.3860420" lon="-3.8267880">
        <ele>722.4</ele>
        <time>2021-05-08T13:20:53Z</time>
      </trkpt>
      <trkpt lat="40.3859620" lon="-3.8267040">
        <ele>722.4</ele>
        <time>2021-05-08T13:20:55Z</time>
      </trkpt>
      <trkpt lat="40.3859170" lon="-3.8266670">
        <ele>722.3</ele>
        <time>2021-05-08T13:20:56Z</time>
      </trkpt>
      <trkpt lat="40.3858350" lon="-3.8265860">
        <ele>722.3</ele>
        <time>2021-05-08T13:20:58Z</time>
      </trkpt>
      <trkpt lat="40.3857560" lon="-3.8265100">
        <ele>722.2</ele>
        <time>2021-05-08T13:21:00Z</time>
      </trkpt>
      <trkpt lat="40.3856820" lon="-3.8264330">
        <ele>722.2</ele>
        <time>2021-05-08T13:21:02Z</time>
      </trkpt>
      <trkpt lat="40.3856590" lon="-3.8264110">
        <ele>722.1</ele>
        <time>2021-05-08T13:21:03Z</time>
      </trkpt>
      <trkpt lat="40.3856190" lon="-3.8263750">
        <ele>722.1</ele>
        <time>2021-05-08T13:21:04Z</time>
      </trkpt>
      <trkpt lat="40.3855490" lon="-3.8263110">
        <ele>722.1</ele>
        <time>2021-05-08T13:21:06Z</time>
      </trkpt>
      <trkpt lat="40.3855140" lon="-3.8262700">
        <ele>722.0</ele>
        <time>2021-05-08T13:21:08Z</time>
      </trkpt>
      <trkpt lat="40.3854630" lon="-3.8262160">
        <ele>722.0</ele>
        <time>2021-05-08T13:21:09Z</time>
      </trkpt>
      <trkpt lat="40.3854180" lon="-3.8261680">
        <ele>722.0</ele>
        <time>2021-05-08T13:21:10Z</time>
      </trkpt>
      <trkpt lat="40.3853500" lon="-3.8260600">
        <ele>721.9</ele>
        <time>2021-05-08T13:21:12Z</time>
      </trkpt>
      <trkpt lat="40.3852660" lon="-3.8259810">
        <ele>721.9</ele>
        <time>2021-05-08T13:21:14Z</time>
      </trkpt>
      <trkpt lat="40.3851910" lon="-3.8259170">
        <ele>721.8</ele>
        <time>2021-05-08T13:21:16Z</time>
      </trkpt>
      <trkpt lat="40.3851120" lon="-3.8258500">
        <ele>721.7</ele>
        <time>2021-05-08T13:21:18Z</time>
      </trkpt>
      <trkpt lat="40.3850380" lon="-3.8257800">
        <ele>721.6</ele>
        <time>2021-05-08T13:21:20Z</time>
      </trkpt>
      <trkpt lat="40.3850020" lon="-3.8257440">
        <ele>721.6</ele>
        <time>2021-05-08T13:21:21Z</time>
      </trkpt>
      <trkpt lat="40.3849660" lon="-3.8257080">
        <ele>721.6</ele>
        <time>2021-05-08T13:21:22Z</time>
      </trkpt>
      <trkpt lat="40.3849290" lon="-3.8256670">
        <ele>721.5</ele>
        <time>2021-05-08T13:21:23Z</time>
      </trkpt>
      <trkpt lat="40.3848500" lon="-3.8255970">
        <ele>721.4</ele>
        <time>2021-05-08T13:21:25Z</time>
      </trkpt>
      <trkpt lat="40.3848090" lon="-3.8255670">
        <ele>721.3</ele>
        <time>2021-05-08T13:21:26Z</time>
      </trkpt>
      <trkpt lat="40.3847660" lon="-3.8255450">
        <ele>721.3</ele>
        <time>2021-05-08T13:21:27Z</time>
      </trkpt>
      <trkpt lat="40.3846770" lon="-3.8255160">
        <ele>721.2</ele>
        <time>2021-05-08T13:21:29Z</time>
      </trkpt>
      <trkpt lat="40.3845820" lon="-3.8254820">
        <ele>721.1</ele>
        <time>2021-05-08T13:21:31Z</time>
      </trkpt>
      <trkpt lat="40.3845340" lon="-3.8254580">
        <ele>721.0</ele>
        <time>2021-05-08T13:21:32Z</time>
      </trkpt>
      <trkpt lat="40.3844420" lon="-3.8254120">
        <ele>720.9</ele>
        <time>2021-05-08T13:21:34Z</time>
      </trkpt>
      <trkpt lat="40.3844010" lon="-3.8253890">
        <ele>720.9</ele>
        <time>2021-05-08T13:21:35Z</time>
      </trkpt>
      <trkpt lat="40.3843180" lon="-3.8253280">
        <ele>720.8</ele>
        <time>2021-05-08T13:21:37Z</time>
      </trkpt>
      <trkpt lat="40.3842530" lon="-3.8252720">
        <ele>720.7</ele>
        <time>2021-05-08T13:21:39Z</time>
      </trkpt>
      <trkpt lat="40.3841570" lon="-3.8252030">
        <ele>720.6</ele>
        <time>2021-05-08T13:21:41Z</time>
      </trkpt>
      <trkpt lat="40.3841150" lon="-3.8251700">
        <ele>720.5</ele>
        <time>2021-05-08T13:21:42Z</time>
      </trkpt>
      <trkpt lat="40.3840730" lon="-3.8251350">
        <ele>720.4</ele>
        <time>2021-05-08T13:21:43Z</time>
      </trkpt>
      <trkpt lat="40.3839870" lon="-3.8250660">
        <ele>720.3</ele>
        <time>2021-05-08T13:21:45Z</time>
      </trkpt>
      <trkpt lat="40.3839010" lon="-3.8249950">
        <ele>720.1</ele>
        <time>2021-05-08T13:21:47Z</time>
      </trkpt>
      <trkpt lat="40.3838600" lon="-3.8249620">
        <ele>720.1</ele>
        <time>2021-05-08T13:21:48Z</time>
      </trkpt>
      <trkpt lat="40.3837780" lon="-3.8248840">
        <ele>720.0</ele>
        <time>2021-05-08T13:21:50Z</time>
      </trkpt>
      <trkpt lat="40.3836940" lon="-3.8248160">
        <ele>719.9</ele>
        <time>2021-05-08T13:21:52Z</time>
      </trkpt>
      <trkpt lat="40.3836520" lon="-3.8247840">
        <ele>719.8</ele>
        <time>2021-05-08T13:21:53Z</time>
      </trkpt>
      <trkpt lat="40.3835620" lon="-3.8247350">
        <ele>719.7</ele>
        <time>2021-05-08T13:21:55Z</time>
      </trkpt>
      <trkpt lat="40.3835140" lon="-3.8247210">
        <ele>719.6</ele>
        <time>2021-05-08T13:21:56Z</time>
      </trkpt>
      <trkpt lat="40.3834640" lon="-3.8247110">
        <ele>719.5</ele>
        <time>2021-05-08T13:21:57Z</time>
      </trkpt>
      <trkpt lat="40.3833700" lon="-3.8246920">
        <ele>719.3</ele>
        <time>2021-05-08T13:21:59Z</time>
      </trkpt>
      <trkpt lat="40.3833250" lon="-3.8246730">
        <ele>719.3</ele>
        <time>2021-05-08T13:22:00Z</time>
      </trkpt>
      <trkpt lat="40.3832370" lon="-3.8246150">
        <ele>719.1</ele>
        <time>2021-05-08T13:22:02Z</time>
      </trkpt>
      <trkpt lat="40.3831930" lon="-3.8245820">
        <ele>719.1</ele>
        <time>2021-05-08T13:22:03Z</time>
      </trkpt>
      <trkpt lat="40.3831490" lon="-3.8245460">
        <ele>719.0</ele>
        <time>2021-05-08T13:22:05Z</time>
      </trkpt>
      <trkpt lat="40.3830620" lon="-3.8244740">
        <ele>718.9</ele>
        <time>2021-05-08T13:22:06Z</time>
      </trkpt>
      <trkpt lat="40.3829710" lon="-3.8243850">
        <ele>718.8</ele>
        <time>2021-05-08T13:22:08Z</time>
      </trkpt>
      <trkpt lat="40.3828930" lon="-3.8242850">
        <ele>718.7</ele>
        <time>2021-05-08T13:22:10Z</time>
      </trkpt>
      <trkpt lat="40.3828560" lon="-3.8242340">
        <ele>718.7</ele>
        <time>2021-05-08T13:22:11Z</time>
      </trkpt>
      <trkpt lat="40.3827830" lon="-3.8241450">
        <ele>718.5</ele>
        <time>2021-05-08T13:22:13Z</time>
      </trkpt>
      <trkpt lat="40.3827490" lon="-3.8241070">
        <ele>718.5</ele>
        <time>2021-05-08T13:22:14Z</time>
      </trkpt>
      <trkpt lat="40.3826950" lon="-3.8240540">
        <ele>718.4</ele>
        <time>2021-05-08T13:22:16Z</time>
      </trkpt>
      <trkpt lat="40.3826560" lon="-3.8240210">
        <ele>718.3</ele>
        <time>2021-05-08T13:22:17Z</time>
      </trkpt>
      <trkpt lat="40.3825620" lon="-3.8239600">
        <ele>718.1</ele>
        <time>2021-05-08T13:22:19Z</time>
      </trkpt>
      <trkpt lat="40.3825210" lon="-3.8239340">
        <ele>718.0</ele>
        <time>2021-05-08T13:22:20Z</time>
      </trkpt>
      <trkpt lat="40.3825070" lon="-3.8239580">
        <ele>718.0</ele>
        <time>2021-05-08T13:22:22Z</time>
      </trkpt>
      <trkpt lat="40.3825030" lon="-3.8239900">
        <ele>717.9</ele>
        <time>2021-05-08T13:22:23Z</time>
      </trkpt>
      <trkpt lat="40.3823980" lon="-3.8239500">
        <ele>717.7</ele>
        <time>2021-05-08T13:22:24Z</time>
      </trkpt>
      <trkpt lat="40.3822980" lon="-3.8238350">
        <ele>717.4</ele>
        <time>2021-05-08T13:22:26Z</time>
      </trkpt>
      <trkpt lat="40.3822380" lon="-3.8238050">
        <ele>717.3</ele>
        <time>2021-05-08T13:22:28Z</time>
      </trkpt>
      <trkpt lat="40.3821380" lon="-3.8237760">
        <ele>717.1</ele>
        <time>2021-05-08T13:22:29Z</time>
      </trkpt>
      <trkpt lat="40.3820860" lon="-3.8237620">
        <ele>717.0</ele>
        <time>2021-05-08T13:22:30Z</time>
      </trkpt>
      <trkpt lat="40.3819900" lon="-3.8237280">
        <ele>716.8</ele>
        <time>2021-05-08T13:22:32Z</time>
      </trkpt>
      <trkpt lat="40.3819010" lon="-3.8236940">
        <ele>716.6</ele>
        <time>2021-05-08T13:22:34Z</time>
      </trkpt>
      <trkpt lat="40.3818520" lon="-3.8236620">
        <ele>716.4</ele>
        <time>2021-05-08T13:22:36Z</time>
      </trkpt>
      <trkpt lat="40.3817750" lon="-3.8236230">
        <ele>716.3</ele>
        <time>2021-05-08T13:22:38Z</time>
      </trkpt>
      <trkpt lat="40.3816660" lon="-3.8235840">
        <ele>716.1</ele>
        <time>2021-05-08T13:22:40Z</time>
      </trkpt>
      <trkpt lat="40.3816150" lon="-3.8235600">
        <ele>716.1</ele>
        <time>2021-05-08T13:22:41Z</time>
      </trkpt>
      <trkpt lat="40.3815160" lon="-3.8235130">
        <ele>716.0</ele>
        <time>2021-05-08T13:22:43Z</time>
      </trkpt>
      <trkpt lat="40.3814680" lon="-3.8234900">
        <ele>715.9</ele>
        <time>2021-05-08T13:22:44Z</time>
      </trkpt>
      <trkpt lat="40.3813790" lon="-3.8234300">
        <ele>715.8</ele>
        <time>2021-05-08T13:22:46Z</time>
      </trkpt>
      <trkpt lat="40.3813390" lon="-3.8234050">
        <ele>715.8</ele>
        <time>2021-05-08T13:22:47Z</time>
      </trkpt>
      <trkpt lat="40.3813030" lon="-3.8233320">
        <ele>715.8</ele>
        <time>2021-05-08T13:22:49Z</time>
      </trkpt>
      <trkpt lat="40.3812590" lon="-3.8233030">
        <ele>715.8</ele>
        <time>2021-05-08T13:22:50Z</time>
      </trkpt>
      <trkpt lat="40.3811980" lon="-3.8232910">
        <ele>715.7</ele>
        <time>2021-05-08T13:22:51Z</time>
      </trkpt>
      <trkpt lat="40.3811480" lon="-3.8232640">
        <ele>715.7</ele>
        <time>2021-05-08T13:22:52Z</time>
      </trkpt>
      <trkpt lat="40.3810740" lon="-3.8232170">
        <ele>715.6</ele>
        <time>2021-05-08T13:22:54Z</time>
      </trkpt>
      <trkpt lat="40.3810020" lon="-3.8231530">
        <ele>715.5</ele>
        <time>2021-05-08T13:22:56Z</time>
      </trkpt>
      <trkpt lat="40.3809580" lon="-3.8231500">
        <ele>715.4</ele>
        <time>2021-05-08T13:22:57Z</time>
      </trkpt>
      <trkpt lat="40.3809020" lon="-3.8230970">
        <ele>715.3</ele>
        <time>2021-05-08T13:22:59Z</time>
      </trkpt>
      <trkpt lat="40.3808660" lon="-3.8230550">
        <ele>715.2</ele>
        <time>2021-05-08T13:23:00Z</time>
      </trkpt>
      <trkpt lat="40.3808210" lon="-3.8230020">
        <ele>715.1</ele>
        <time>2021-05-08T13:23:01Z</time>
      </trkpt>
      <trkpt lat="40.3807440" lon="-3.8229270">
        <ele>715.0</ele>
        <time>2021-05-08T13:23:03Z</time>
      </trkpt>
      <trkpt lat="40.3807030" lon="-3.8228910">
        <ele>715.0</ele>
        <time>2021-05-08T13:23:04Z</time>
      </trkpt>
      <trkpt lat="40.3806210" lon="-3.8228150">
        <ele>714.8</ele>
        <time>2021-05-08T13:23:06Z</time>
      </trkpt>
      <trkpt lat="40.3805840" lon="-3.8227830">
        <ele>714.8</ele>
        <time>2021-05-08T13:23:07Z</time>
      </trkpt>
      <trkpt lat="40.3805050" lon="-3.8227190">
        <ele>714.7</ele>
        <time>2021-05-08T13:23:09Z</time>
      </trkpt>
      <trkpt lat="40.3804640" lon="-3.8226840">
        <ele>714.6</ele>
        <time>2021-05-08T13:23:10Z</time>
      </trkpt>
      <trkpt lat="40.3803880" lon="-3.8226070">
        <ele>714.6</ele>
        <time>2021-05-08T13:23:12Z</time>
      </trkpt>
      <trkpt lat="40.3803110" lon="-3.8225150">
        <ele>714.5</ele>
        <time>2021-05-08T13:23:14Z</time>
      </trkpt>
      <trkpt lat="40.3802300" lon="-3.8224210">
        <ele>714.4</ele>
        <time>2021-05-08T13:23:16Z</time>
      </trkpt>
      <trkpt lat="40.3801470" lon="-3.8223400">
        <ele>714.4</ele>
        <time>2021-05-08T13:23:18Z</time>
      </trkpt>
      <trkpt lat="40.3801090" lon="-3.8223000">
        <ele>714.4</ele>
        <time>2021-05-08T13:23:19Z</time>
      </trkpt>
      <trkpt lat="40.3800700" lon="-3.8222620">
        <ele>714.4</ele>
        <time>2021-05-08T13:23:20Z</time>
      </trkpt>
      <trkpt lat="40.3799880" lon="-3.8221840">
        <ele>714.3</ele>
        <time>2021-05-08T13:23:22Z</time>
      </trkpt>
      <trkpt lat="40.3799480" lon="-3.8221420">
        <ele>714.3</ele>
        <time>2021-05-08T13:23:23Z</time>
      </trkpt>
      <trkpt lat="40.3799100" lon="-3.8221000">
        <ele>714.3</ele>
        <time>2021-05-08T13:23:24Z</time>
      </trkpt>
      <trkpt lat="40.3798400" lon="-3.8220210">
        <ele>714.3</ele>
        <time>2021-05-08T13:23:26Z</time>
      </trkpt>
      <trkpt lat="40.3797690" lon="-3.8219420">
        <ele>714.2</ele>
        <time>2021-05-08T13:23:28Z</time>
      </trkpt>
      <trkpt lat="40.3796940" lon="-3.8218600">
        <ele>714.2</ele>
        <time>2021-05-08T13:23:30Z</time>
      </trkpt>
      <trkpt lat="40.3796190" lon="-3.8217760">
        <ele>714.2</ele>
        <time>2021-05-08T13:23:32Z</time>
      </trkpt>
      <trkpt lat="40.3795500" lon="-3.8216920">
        <ele>714.3</ele>
        <time>2021-05-08T13:23:34Z</time>
      </trkpt>
      <trkpt lat="40.3795160" lon="-3.8216490">
        <ele>714.3</ele>
        <time>2021-05-08T13:23:35Z</time>
      </trkpt>
      <trkpt lat="40.3794540" lon="-3.8215570">
        <ele>714.3</ele>
        <time>2021-05-08T13:23:37Z</time>
      </trkpt>
      <trkpt lat="40.3794210" lon="-3.8215120">
        <ele>714.3</ele>
        <time>2021-05-08T13:23:38Z</time>
      </trkpt>
      <trkpt lat="40.3793530" lon="-3.8214360">
        <ele>714.3</ele>
        <time>2021-05-08T13:23:40Z</time>
      </trkpt>
      <trkpt lat="40.3793170" lon="-3.8213980">
        <ele>714.3</ele>
        <time>2021-05-08T13:23:41Z</time>
      </trkpt>
      <trkpt lat="40.3792850" lon="-3.8213590">
        <ele>714.3</ele>
        <time>2021-05-08T13:23:42Z</time>
      </trkpt>
      <trkpt lat="40.3792520" lon="-3.8213210">
        <ele>714.3</ele>
        <time>2021-05-08T13:23:43Z</time>
      </trkpt>
      <trkpt lat="40.3792150" lon="-3.8212790">
        <ele>714.3</ele>
        <time>2021-05-08T13:23:44Z</time>
      </trkpt>
      <trkpt lat="40.3791370" lon="-3.8212030">
        <ele>714.3</ele>
        <time>2021-05-08T13:23:46Z</time>
      </trkpt>
      <trkpt lat="40.3791010" lon="-3.8211680">
        <ele>714.3</ele>
        <time>2021-05-08T13:23:47Z</time>
      </trkpt>
      <trkpt lat="40.3790240" lon="-3.8210880">
        <ele>714.3</ele>
        <time>2021-05-08T13:23:49Z</time>
      </trkpt>
      <trkpt lat="40.3789450" lon="-3.8210010">
        <ele>714.3</ele>
        <time>2021-05-08T13:23:51Z</time>
      </trkpt>
      <trkpt lat="40.3789080" lon="-3.8209600">
        <ele>714.3</ele>
        <time>2021-05-08T13:23:52Z</time>
      </trkpt>
      <trkpt lat="40.3788300" lon="-3.8208830">
        <ele>714.3</ele>
        <time>2021-05-08T13:23:54Z</time>
      </trkpt>
      <trkpt lat="40.3787470" lon="-3.8208120">
        <ele>714.3</ele>
        <time>2021-05-08T13:23:56Z</time>
      </trkpt>
      <trkpt lat="40.3787050" lon="-3.8207790">
        <ele>714.3</ele>
        <time>2021-05-08T13:23:57Z</time>
      </trkpt>
      <trkpt lat="40.3786630" lon="-3.8207480">
        <ele>714.3</ele>
        <time>2021-05-08T13:23:58Z</time>
      </trkpt>
      <trkpt lat="40.3786220" lon="-3.8207160">
        <ele>714.3</ele>
        <time>2021-05-08T13:23:59Z</time>
      </trkpt>
      <trkpt lat="40.3785820" lon="-3.8206830">
        <ele>714.3</ele>
        <time>2021-05-08T13:24:00Z</time>
      </trkpt>
      <trkpt lat="40.3785060" lon="-3.8206110">
        <ele>714.3</ele>
        <time>2021-05-08T13:24:02Z</time>
      </trkpt>
      <trkpt lat="40.3784710" lon="-3.8205770">
        <ele>714.3</ele>
        <time>2021-05-08T13:24:03Z</time>
      </trkpt>
      <trkpt lat="40.3784190" lon="-3.8205330">
        <ele>714.3</ele>
        <time>2021-05-08T13:24:05Z</time>
      </trkpt>
      <trkpt lat="40.3783680" lon="-3.8204900">
        <ele>714.3</ele>
        <time>2021-05-08T13:24:07Z</time>
      </trkpt>
      <trkpt lat="40.3782920" lon="-3.8204120">
        <ele>714.3</ele>
        <time>2021-05-08T13:24:08Z</time>
      </trkpt>
      <trkpt lat="40.3782180" lon="-3.8203350">
        <ele>714.3</ele>
        <time>2021-05-08T13:24:10Z</time>
      </trkpt>
      <trkpt lat="40.3781790" lon="-3.8203010">
        <ele>714.3</ele>
        <time>2021-05-08T13:24:11Z</time>
      </trkpt>
      <trkpt lat="40.3781010" lon="-3.8202330">
        <ele>714.3</ele>
        <time>2021-05-08T13:24:13Z</time>
      </trkpt>
      <trkpt lat="40.3780600" lon="-3.8201960">
        <ele>714.3</ele>
        <time>2021-05-08T13:24:14Z</time>
      </trkpt>
      <trkpt lat="40.3780220" lon="-3.8201580">
        <ele>714.3</ele>
        <time>2021-05-08T13:24:15Z</time>
      </trkpt>
      <trkpt lat="40.3779800" lon="-3.8201230">
        <ele>714.3</ele>
        <time>2021-05-08T13:24:16Z</time>
      </trkpt>
      <trkpt lat="40.3778980" lon="-3.8200580">
        <ele>714.3</ele>
        <time>2021-05-08T13:24:18Z</time>
      </trkpt>
      <trkpt lat="40.3778540" lon="-3.8200180">
        <ele>714.3</ele>
        <time>2021-05-08T13:24:19Z</time>
      </trkpt>
      <trkpt lat="40.3777650" lon="-3.8199390">
        <ele>714.2</ele>
        <time>2021-05-08T13:24:21Z</time>
      </trkpt>
      <trkpt lat="40.3776770" lon="-3.8198650">
        <ele>714.2</ele>
        <time>2021-05-08T13:24:23Z</time>
      </trkpt>
      <trkpt lat="40.3775940" lon="-3.8197910">
        <ele>714.1</ele>
        <time>2021-05-08T13:24:25Z</time>
      </trkpt>
      <trkpt lat="40.3775500" lon="-3.8197540">
        <ele>714.0</ele>
        <time>2021-05-08T13:24:26Z</time>
      </trkpt>
      <trkpt lat="40.3774630" lon="-3.8196810">
        <ele>713.9</ele>
        <time>2021-05-08T13:24:28Z</time>
      </trkpt>
      <trkpt lat="40.3774160" lon="-3.8196440">
        <ele>713.9</ele>
        <time>2021-05-08T13:24:29Z</time>
      </trkpt>
      <trkpt lat="40.3773250" lon="-3.8195740">
        <ele>713.8</ele>
        <time>2021-05-08T13:24:31Z</time>
      </trkpt>
      <trkpt lat="40.3772780" lon="-3.8195420">
        <ele>713.7</ele>
        <time>2021-05-08T13:24:32Z</time>
      </trkpt>
      <trkpt lat="40.3771820" lon="-3.8194780">
        <ele>713.6</ele>
        <time>2021-05-08T13:24:34Z</time>
      </trkpt>
      <trkpt lat="40.3770820" lon="-3.8194020">
        <ele>713.4</ele>
        <time>2021-05-08T13:24:36Z</time>
      </trkpt>
      <trkpt lat="40.3769850" lon="-3.8193300">
        <ele>713.3</ele>
        <time>2021-05-08T13:24:38Z</time>
      </trkpt>
      <trkpt lat="40.3768870" lon="-3.8192530">
        <ele>713.2</ele>
        <time>2021-05-08T13:24:40Z</time>
      </trkpt>
      <trkpt lat="40.3768390" lon="-3.8192120">
        <ele>713.1</ele>
        <time>2021-05-08T13:24:41Z</time>
      </trkpt>
      <trkpt lat="40.3767530" lon="-3.8191470">
        <ele>713.0</ele>
        <time>2021-05-08T13:24:43Z</time>
      </trkpt>
      <trkpt lat="40.3767100" lon="-3.8191160">
        <ele>712.9</ele>
        <time>2021-05-08T13:24:44Z</time>
      </trkpt>
      <trkpt lat="40.3766700" lon="-3.8190880">
        <ele>712.9</ele>
        <time>2021-05-08T13:24:45Z</time>
      </trkpt>
      <trkpt lat="40.3765950" lon="-3.8190280">
        <ele>712.8</ele>
        <time>2021-05-08T13:24:47Z</time>
      </trkpt>
      <trkpt lat="40.3765510" lon="-3.8189950">
        <ele>712.8</ele>
        <time>2021-05-08T13:24:48Z</time>
      </trkpt>
      <trkpt lat="40.3765200" lon="-3.8189670">
        <ele>712.7</ele>
        <time>2021-05-08T13:24:49Z</time>
      </trkpt>
      <trkpt lat="40.3764390" lon="-3.8189060">
        <ele>712.6</ele>
        <time>2021-05-08T13:24:51Z</time>
      </trkpt>
      <trkpt lat="40.3763510" lon="-3.8188400">
        <ele>712.5</ele>
        <time>2021-05-08T13:24:53Z</time>
      </trkpt>
      <trkpt lat="40.3762630" lon="-3.8187790">
        <ele>712.4</ele>
        <time>2021-05-08T13:24:55Z</time>
      </trkpt>
      <trkpt lat="40.3761750" lon="-3.8187140">
        <ele>712.3</ele>
        <time>2021-05-08T13:24:57Z</time>
      </trkpt>
      <trkpt lat="40.3761320" lon="-3.8186840">
        <ele>712.2</ele>
        <time>2021-05-08T13:24:58Z</time>
      </trkpt>
      <trkpt lat="40.3760900" lon="-3.8186510">
        <ele>712.2</ele>
        <time>2021-05-08T13:24:59Z</time>
      </trkpt>
      <trkpt lat="40.3760040" lon="-3.8185780">
        <ele>712.0</ele>
        <time>2021-05-08T13:25:01Z</time>
      </trkpt>
      <trkpt lat="40.3759070" lon="-3.8185020">
        <ele>711.9</ele>
        <time>2021-05-08T13:25:03Z</time>
      </trkpt>
      <trkpt lat="40.3758590" lon="-3.8184620">
        <ele>711.9</ele>
        <time>2021-05-08T13:25:04Z</time>
      </trkpt>
      <trkpt lat="40.3757690" lon="-3.8183790">
        <ele>711.8</ele>
        <time>2021-05-08T13:25:06Z</time>
      </trkpt>
      <trkpt lat="40.3756720" lon="-3.8182830">
        <ele>711.7</ele>
        <time>2021-05-08T13:25:08Z</time>
      </trkpt>
      <trkpt lat="40.3755890" lon="-3.8181960">
        <ele>711.5</ele>
        <time>2021-05-08T13:25:10Z</time>
      </trkpt>
      <trkpt lat="40.3755030" lon="-3.8180890">
        <ele>711.3</ele>
        <time>2021-05-08T13:25:12Z</time>
      </trkpt>
      <trkpt lat="40.3754180" lon="-3.8179840">
        <ele>711.1</ele>
        <time>2021-05-08T13:25:14Z</time>
      </trkpt>
      <trkpt lat="40.3753340" lon="-3.8178830">
        <ele>711.0</ele>
        <time>2021-05-08T13:25:16Z</time>
      </trkpt>
      <trkpt lat="40.3752950" lon="-3.8178310">
        <ele>710.9</ele>
        <time>2021-05-08T13:25:17Z</time>
      </trkpt>
      <trkpt lat="40.3752150" lon="-3.8177160">
        <ele>710.8</ele>
        <time>2021-05-08T13:25:19Z</time>
      </trkpt>
      <trkpt lat="40.3751410" lon="-3.8175930">
        <ele>710.6</ele>
        <time>2021-05-08T13:25:21Z</time>
      </trkpt>
      <trkpt lat="40.3750660" lon="-3.8174640">
        <ele>710.5</ele>
        <time>2021-05-08T13:25:23Z</time>
      </trkpt>
      <trkpt lat="40.3750300" lon="-3.8173970">
        <ele>710.4</ele>
        <time>2021-05-08T13:25:24Z</time>
      </trkpt>
      <trkpt lat="40.3749910" lon="-3.8173290">
        <ele>710.3</ele>
        <time>2021-05-08T13:25:25Z</time>
      </trkpt>
      <trkpt lat="40.3749520" lon="-3.8172620">
        <ele>710.2</ele>
        <time>2021-05-08T13:25:26Z</time>
      </trkpt>
      <trkpt lat="40.3748720" lon="-3.8171160">
        <ele>709.9</ele>
        <time>2021-05-08T13:25:28Z</time>
      </trkpt>
      <trkpt lat="40.3748380" lon="-3.8170460">
        <ele>709.8</ele>
        <time>2021-05-08T13:25:29Z</time>
      </trkpt>
      <trkpt lat="40.3748010" lon="-3.8169790">
        <ele>709.7</ele>
        <time>2021-05-08T13:25:30Z</time>
      </trkpt>
      <trkpt lat="40.3747270" lon="-3.8168490">
        <ele>709.5</ele>
        <time>2021-05-08T13:25:32Z</time>
      </trkpt>
      <trkpt lat="40.3746550" lon="-3.8167180">
        <ele>709.3</ele>
        <time>2021-05-08T13:25:34Z</time>
      </trkpt>
      <trkpt lat="40.3746200" lon="-3.8166500">
        <ele>709.2</ele>
        <time>2021-05-08T13:25:35Z</time>
      </trkpt>
      <trkpt lat="40.3745470" lon="-3.8165260">
        <ele>709.0</ele>
        <time>2021-05-08T13:25:37Z</time>
      </trkpt>
      <trkpt lat="40.3744680" lon="-3.8164070">
        <ele>708.8</ele>
        <time>2021-05-08T13:25:39Z</time>
      </trkpt>
      <trkpt lat="40.3744250" lon="-3.8163460">
        <ele>708.7</ele>
        <time>2021-05-08T13:25:40Z</time>
      </trkpt>
      <trkpt lat="40.3743800" lon="-3.8162830">
        <ele>708.7</ele>
        <time>2021-05-08T13:25:41Z</time>
      </trkpt>
      <trkpt lat="40.3743360" lon="-3.8162170">
        <ele>708.6</ele>
        <time>2021-05-08T13:25:42Z</time>
      </trkpt>
      <trkpt lat="40.3742570" lon="-3.8160870">
        <ele>708.5</ele>
        <time>2021-05-08T13:25:44Z</time>
      </trkpt>
      <trkpt lat="40.3742160" lon="-3.8160200">
        <ele>708.4</ele>
        <time>2021-05-08T13:25:45Z</time>
      </trkpt>
      <trkpt lat="40.3741780" lon="-3.8159510">
        <ele>708.4</ele>
        <time>2021-05-08T13:25:46Z</time>
      </trkpt>
      <trkpt lat="40.3741090" lon="-3.8158130">
        <ele>708.2</ele>
        <time>2021-05-08T13:25:48Z</time>
      </trkpt>
      <trkpt lat="40.3740710" lon="-3.8157490">
        <ele>708.1</ele>
        <time>2021-05-08T13:25:49Z</time>
      </trkpt>
      <trkpt lat="40.3740380" lon="-3.8156900">
        <ele>708.1</ele>
        <time>2021-05-08T13:25:50Z</time>
      </trkpt>
      <trkpt lat="40.3739820" lon="-3.8155780">
        <ele>708.0</ele>
        <time>2021-05-08T13:25:52Z</time>
      </trkpt>
      <trkpt lat="40.3739540" lon="-3.8155220">
        <ele>708.0</ele>
        <time>2021-05-08T13:25:53Z</time>
      </trkpt>
      <trkpt lat="40.3739070" lon="-3.8154140">
        <ele>707.9</ele>
        <time>2021-05-08T13:25:55Z</time>
      </trkpt>
      <trkpt lat="40.3738620" lon="-3.8153410">
        <ele>707.9</ele>
        <time>2021-05-08T13:25:57Z</time>
      </trkpt>
      <trkpt lat="40.3738380" lon="-3.8153010">
        <ele>707.9</ele>
        <time>2021-05-08T13:25:58Z</time>
      </trkpt>
      <trkpt lat="40.3738060" lon="-3.8152410">
        <ele>708.0</ele>
        <time>2021-05-08T13:25:59Z</time>
      </trkpt>
      <trkpt lat="40.3737530" lon="-3.8151310">
        <ele>708.0</ele>
        <time>2021-05-08T13:26:01Z</time>
      </trkpt>
      <trkpt lat="40.3737290" lon="-3.8150780">
        <ele>708.0</ele>
        <time>2021-05-08T13:26:02Z</time>
      </trkpt>
      <trkpt lat="40.3736870" lon="-3.8149920">
        <ele>708.0</ele>
        <time>2021-05-08T13:26:04Z</time>
      </trkpt>
      <trkpt lat="40.3736630" lon="-3.8149510">
        <ele>708.0</ele>
        <time>2021-05-08T13:26:05Z</time>
      </trkpt>
      <trkpt lat="40.3735980" lon="-3.8148280">
        <ele>708.1</ele>
        <time>2021-05-08T13:26:07Z</time>
      </trkpt>
      <trkpt lat="40.3735370" lon="-3.8147190">
        <ele>708.1</ele>
        <time>2021-05-08T13:26:09Z</time>
      </trkpt>
      <trkpt lat="40.3734750" lon="-3.8146080">
        <ele>708.1</ele>
        <time>2021-05-08T13:26:11Z</time>
      </trkpt>
      <trkpt lat="40.3734470" lon="-3.8145540">
        <ele>708.1</ele>
        <time>2021-05-08T13:26:12Z</time>
      </trkpt>
      <trkpt lat="40.3733930" lon="-3.8144420">
        <ele>708.0</ele>
        <time>2021-05-08T13:26:14Z</time>
      </trkpt>
      <trkpt lat="40.3733450" lon="-3.8143240">
        <ele>708.0</ele>
        <time>2021-05-08T13:26:16Z</time>
      </trkpt>
      <trkpt lat="40.3733200" lon="-3.8142630">
        <ele>707.9</ele>
        <time>2021-05-08T13:26:17Z</time>
      </trkpt>
      <trkpt lat="40.3732650" lon="-3.8141460">
        <ele>707.9</ele>
        <time>2021-05-08T13:26:19Z</time>
      </trkpt>
      <trkpt lat="40.3732100" lon="-3.8140280">
        <ele>707.9</ele>
        <time>2021-05-08T13:26:21Z</time>
      </trkpt>
      <trkpt lat="40.3731530" lon="-3.8139180">
        <ele>707.9</ele>
        <time>2021-05-08T13:26:23Z</time>
      </trkpt>
      <trkpt lat="40.3730990" lon="-3.8138050">
        <ele>707.8</ele>
        <time>2021-05-08T13:26:25Z</time>
      </trkpt>
      <trkpt lat="40.3730720" lon="-3.8137510">
        <ele>707.8</ele>
        <time>2021-05-08T13:26:26Z</time>
      </trkpt>
      <trkpt lat="40.3730160" lon="-3.8136420">
        <ele>707.8</ele>
        <time>2021-05-08T13:26:28Z</time>
      </trkpt>
      <trkpt lat="40.3729890" lon="-3.8135830">
        <ele>707.8</ele>
        <time>2021-05-08T13:26:29Z</time>
      </trkpt>
      <trkpt lat="40.3729340" lon="-3.8134740">
        <ele>707.7</ele>
        <time>2021-05-08T13:26:31Z</time>
      </trkpt>
      <trkpt lat="40.3729070" lon="-3.8134180">
        <ele>707.7</ele>
        <time>2021-05-08T13:26:32Z</time>
      </trkpt>
      <trkpt lat="40.3728510" lon="-3.8133030">
        <ele>707.7</ele>
        <time>2021-05-08T13:26:34Z</time>
      </trkpt>
      <trkpt lat="40.3728220" lon="-3.8132510">
        <ele>707.6</ele>
        <time>2021-05-08T13:26:35Z</time>
      </trkpt>
      <trkpt lat="40.3727650" lon="-3.8131390">
        <ele>707.6</ele>
        <time>2021-05-08T13:26:37Z</time>
      </trkpt>
      <trkpt lat="40.3727100" lon="-3.8130260">
        <ele>707.5</ele>
        <time>2021-05-08T13:26:39Z</time>
      </trkpt>
      <trkpt lat="40.3726560" lon="-3.8129250">
        <ele>707.5</ele>
        <time>2021-05-08T13:26:41Z</time>
      </trkpt>
      <trkpt lat="40.3726320" lon="-3.8128880">
        <ele>707.5</ele>
        <time>2021-05-08T13:26:42Z</time>
      </trkpt>
      <trkpt lat="40.3725790" lon="-3.8128010">
        <ele>707.4</ele>
        <time>2021-05-08T13:26:44Z</time>
      </trkpt>
      <trkpt lat="40.3725480" lon="-3.8127450">
        <ele>707.4</ele>
        <time>2021-05-08T13:26:45Z</time>
      </trkpt>
      <trkpt lat="40.3724820" lon="-3.8126360">
        <ele>707.3</ele>
        <time>2021-05-08T13:26:47Z</time>
      </trkpt>
      <trkpt lat="40.3724500" lon="-3.8125780">
        <ele>707.3</ele>
        <time>2021-05-08T13:26:48Z</time>
      </trkpt>
      <trkpt lat="40.3723990" lon="-3.8124560">
        <ele>707.2</ele>
        <time>2021-05-08T13:26:50Z</time>
      </trkpt>
      <trkpt lat="40.3723710" lon="-3.8123920">
        <ele>707.2</ele>
        <time>2021-05-08T13:26:52Z</time>
      </trkpt>
      <trkpt lat="40.3723150" lon="-3.8122730">
        <ele>707.2</ele>
        <time>2021-05-08T13:26:53Z</time>
      </trkpt>
      <trkpt lat="40.3722570" lon="-3.8121580">
        <ele>707.2</ele>
        <time>2021-05-08T13:26:55Z</time>
      </trkpt>
      <trkpt lat="40.3722230" lon="-3.8120970">
        <ele>707.2</ele>
        <time>2021-05-08T13:26:56Z</time>
      </trkpt>
      <trkpt lat="40.3721900" lon="-3.8120350">
        <ele>707.1</ele>
        <time>2021-05-08T13:26:57Z</time>
      </trkpt>
      <trkpt lat="40.3721270" lon="-3.8119160">
        <ele>707.1</ele>
        <time>2021-05-08T13:26:59Z</time>
      </trkpt>
      <trkpt lat="40.3720970" lon="-3.8118560">
        <ele>707.1</ele>
        <time>2021-05-08T13:27:00Z</time>
      </trkpt>
      <trkpt lat="40.3720670" lon="-3.8117960">
        <ele>707.1</ele>
        <time>2021-05-08T13:27:01Z</time>
      </trkpt>
      <trkpt lat="40.3720360" lon="-3.8117360">
        <ele>707.1</ele>
        <time>2021-05-08T13:27:02Z</time>
      </trkpt>
      <trkpt lat="40.3719750" lon="-3.8116230">
        <ele>707.1</ele>
        <time>2021-05-08T13:27:04Z</time>
      </trkpt>
      <trkpt lat="40.3719450" lon="-3.8115620">
        <ele>707.1</ele>
        <time>2021-05-08T13:27:05Z</time>
      </trkpt>
      <trkpt lat="40.3718850" lon="-3.8114490">
        <ele>707.0</ele>
        <time>2021-05-08T13:27:07Z</time>
      </trkpt>
      <trkpt lat="40.3718240" lon="-3.8113270">
        <ele>706.9</ele>
        <time>2021-05-08T13:27:09Z</time>
      </trkpt>
      <trkpt lat="40.3717960" lon="-3.8112630">
        <ele>706.9</ele>
        <time>2021-05-08T13:27:10Z</time>
      </trkpt>
      <trkpt lat="40.3717400" lon="-3.8111400">
        <ele>706.8</ele>
        <time>2021-05-08T13:27:12Z</time>
      </trkpt>
      <trkpt lat="40.3716830" lon="-3.8110250">
        <ele>706.7</ele>
        <time>2021-05-08T13:27:14Z</time>
      </trkpt>
      <trkpt lat="40.3716250" lon="-3.8109090">
        <ele>706.7</ele>
        <time>2021-05-08T13:27:16Z</time>
      </trkpt>
      <trkpt lat="40.3715650" lon="-3.8107990">
        <ele>706.7</ele>
        <time>2021-05-08T13:27:18Z</time>
      </trkpt>
      <trkpt lat="40.3715370" lon="-3.8107390">
        <ele>706.6</ele>
        <time>2021-05-08T13:27:19Z</time>
      </trkpt>
      <trkpt lat="40.3715070" lon="-3.8106770">
        <ele>706.6</ele>
        <time>2021-05-08T13:27:20Z</time>
      </trkpt>
      <trkpt lat="40.3714470" lon="-3.8105590">
        <ele>706.6</ele>
        <time>2021-05-08T13:27:22Z</time>
      </trkpt>
      <trkpt lat="40.3713850" lon="-3.8104420">
        <ele>706.6</ele>
        <time>2021-05-08T13:27:24Z</time>
      </trkpt>
      <trkpt lat="40.3713320" lon="-3.8103390">
        <ele>706.6</ele>
        <time>2021-05-08T13:27:26Z</time>
      </trkpt>
      <trkpt lat="40.3712690" lon="-3.8102150">
        <ele>706.5</ele>
        <time>2021-05-08T13:27:28Z</time>
      </trkpt>
      <trkpt lat="40.3712160" lon="-3.8101030">
        <ele>706.5</ele>
        <time>2021-05-08T13:27:30Z</time>
      </trkpt>
      <trkpt lat="40.3711910" lon="-3.8100450">
        <ele>706.5</ele>
        <time>2021-05-08T13:27:32Z</time>
      </trkpt>
      <trkpt lat="40.3711450" lon="-3.8099290">
        <ele>706.5</ele>
        <time>2021-05-08T13:27:33Z</time>
      </trkpt>
      <trkpt lat="40.3711200" lon="-3.8098690">
        <ele>706.5</ele>
        <time>2021-05-08T13:27:34Z</time>
      </trkpt>
      <trkpt lat="40.3710700" lon="-3.8097570">
        <ele>706.5</ele>
        <time>2021-05-08T13:27:36Z</time>
      </trkpt>
      <trkpt lat="40.3710230" lon="-3.8096580">
        <ele>706.5</ele>
        <time>2021-05-08T13:27:38Z</time>
      </trkpt>
      <trkpt lat="40.3709870" lon="-3.8095690">
        <ele>706.5</ele>
        <time>2021-05-08T13:27:40Z</time>
      </trkpt>
      <trkpt lat="40.3709620" lon="-3.8095130">
        <ele>706.5</ele>
        <time>2021-05-08T13:27:41Z</time>
      </trkpt>
      <trkpt lat="40.3709390" lon="-3.8094580">
        <ele>706.5</ele>
        <time>2021-05-08T13:27:42Z</time>
      </trkpt>
      <trkpt lat="40.3709140" lon="-3.8094030">
        <ele>706.5</ele>
        <time>2021-05-08T13:27:43Z</time>
      </trkpt>
      <trkpt lat="40.3708900" lon="-3.8093540">
        <ele>706.5</ele>
        <time>2021-05-08T13:27:44Z</time>
      </trkpt>
      <trkpt lat="40.3708370" lon="-3.8092530">
        <ele>706.5</ele>
        <time>2021-05-08T13:27:46Z</time>
      </trkpt>
      <trkpt lat="40.3708170" lon="-3.8092050">
        <ele>706.5</ele>
        <time>2021-05-08T13:27:47Z</time>
      </trkpt>
      <trkpt lat="40.3707730" lon="-3.8090860">
        <ele>706.4</ele>
        <time>2021-05-08T13:27:49Z</time>
      </trkpt>
      <trkpt lat="40.3707290" lon="-3.8090390">
        <ele>706.4</ele>
        <time>2021-05-08T13:27:51Z</time>
      </trkpt>
      <trkpt lat="40.3706870" lon="-3.8090090">
        <ele>706.4</ele>
        <time>2021-05-08T13:27:52Z</time>
      </trkpt>
      <trkpt lat="40.3706690" lon="-3.8089320">
        <ele>706.3</ele>
        <time>2021-05-08T13:27:53Z</time>
      </trkpt>
      <trkpt lat="40.3706270" lon="-3.8087890">
        <ele>706.2</ele>
        <time>2021-05-08T13:27:55Z</time>
      </trkpt>
      <trkpt lat="40.3706000" lon="-3.8087290">
        <ele>706.2</ele>
        <time>2021-05-08T13:27:56Z</time>
      </trkpt>
      <trkpt lat="40.3705780" lon="-3.8086680">
        <ele>706.2</ele>
        <time>2021-05-08T13:27:57Z</time>
      </trkpt>
      <trkpt lat="40.3705270" lon="-3.8085440">
        <ele>706.1</ele>
        <time>2021-05-08T13:27:59Z</time>
      </trkpt>
      <trkpt lat="40.3705060" lon="-3.8084970">
        <ele>706.0</ele>
        <time>2021-05-08T13:28:00Z</time>
      </trkpt>
      <trkpt lat="40.3704580" lon="-3.8083780">
        <ele>705.9</ele>
        <time>2021-05-08T13:28:02Z</time>
      </trkpt>
      <trkpt lat="40.3704060" lon="-3.8082610">
        <ele>705.8</ele>
        <time>2021-05-08T13:28:04Z</time>
      </trkpt>
      <trkpt lat="40.3703570" lon="-3.8081460">
        <ele>705.6</ele>
        <time>2021-05-08T13:28:06Z</time>
      </trkpt>
      <trkpt lat="40.3703290" lon="-3.8080850">
        <ele>705.6</ele>
        <time>2021-05-08T13:28:07Z</time>
      </trkpt>
      <trkpt lat="40.3702830" lon="-3.8079660">
        <ele>705.4</ele>
        <time>2021-05-08T13:28:09Z</time>
      </trkpt>
      <trkpt lat="40.3702570" lon="-3.8079090">
        <ele>705.3</ele>
        <time>2021-05-08T13:28:10Z</time>
      </trkpt>
      <trkpt lat="40.3702290" lon="-3.8078500">
        <ele>705.2</ele>
        <time>2021-05-08T13:28:11Z</time>
      </trkpt>
      <trkpt lat="40.3701740" lon="-3.8077410">
        <ele>705.0</ele>
        <time>2021-05-08T13:28:13Z</time>
      </trkpt>
      <trkpt lat="40.3701470" lon="-3.8076830">
        <ele>704.9</ele>
        <time>2021-05-08T13:28:14Z</time>
      </trkpt>
      <trkpt lat="40.3701060" lon="-3.8075740">
        <ele>704.7</ele>
        <time>2021-05-08T13:28:16Z</time>
      </trkpt>
      <trkpt lat="40.3700850" lon="-3.8075230">
        <ele>704.6</ele>
        <time>2021-05-08T13:28:17Z</time>
      </trkpt>
      <trkpt lat="40.3700360" lon="-3.8074210">
        <ele>704.4</ele>
        <time>2021-05-08T13:28:19Z</time>
      </trkpt>
      <trkpt lat="40.3700100" lon="-3.8073690">
        <ele>704.3</ele>
        <time>2021-05-08T13:28:20Z</time>
      </trkpt>
      <trkpt lat="40.3699830" lon="-3.8073160">
        <ele>704.2</ele>
        <time>2021-05-08T13:28:21Z</time>
      </trkpt>
      <trkpt lat="40.3699330" lon="-3.8071940">
        <ele>703.9</ele>
        <time>2021-05-08T13:28:23Z</time>
      </trkpt>
      <trkpt lat="40.3698800" lon="-3.8070750">
        <ele>703.7</ele>
        <time>2021-05-08T13:28:25Z</time>
      </trkpt>
      <trkpt lat="40.3698530" lon="-3.8070180">
        <ele>703.5</ele>
        <time>2021-05-08T13:28:26Z</time>
      </trkpt>
      <trkpt lat="40.3698240" lon="-3.8069590">
        <ele>703.4</ele>
        <time>2021-05-08T13:28:27Z</time>
      </trkpt>
      <trkpt lat="40.3697640" lon="-3.8068350">
        <ele>703.1</ele>
        <time>2021-05-08T13:28:29Z</time>
      </trkpt>
      <trkpt lat="40.3697410" lon="-3.8067710">
        <ele>703.0</ele>
        <time>2021-05-08T13:28:30Z</time>
      </trkpt>
      <trkpt lat="40.3696890" lon="-3.8066480">
        <ele>702.8</ele>
        <time>2021-05-08T13:28:32Z</time>
      </trkpt>
      <trkpt lat="40.3696370" lon="-3.8065350">
        <ele>702.5</ele>
        <time>2021-05-08T13:28:34Z</time>
      </trkpt>
      <trkpt lat="40.3696070" lon="-3.8064790">
        <ele>702.4</ele>
        <time>2021-05-08T13:28:35Z</time>
      </trkpt>
      <trkpt lat="40.3695580" lon="-3.8063570">
        <ele>702.3</ele>
        <time>2021-05-08T13:28:37Z</time>
      </trkpt>
      <trkpt lat="40.3695070" lon="-3.8062250">
        <ele>702.1</ele>
        <time>2021-05-08T13:28:39Z</time>
      </trkpt>
      <trkpt lat="40.3694900" lon="-3.8061750">
        <ele>702.1</ele>
        <time>2021-05-08T13:28:40Z</time>
      </trkpt>
      <trkpt lat="40.3694690" lon="-3.8061180">
        <ele>702.0</ele>
        <time>2021-05-08T13:28:41Z</time>
      </trkpt>
      <trkpt lat="40.3694440" lon="-3.8060570">
        <ele>702.0</ele>
        <time>2021-05-08T13:28:42Z</time>
      </trkpt>
      <trkpt lat="40.3693900" lon="-3.8059480">
        <ele>701.9</ele>
        <time>2021-05-08T13:28:44Z</time>
      </trkpt>
      <trkpt lat="40.3693650" lon="-3.8058970">
        <ele>701.8</ele>
        <time>2021-05-08T13:28:45Z</time>
      </trkpt>
      <trkpt lat="40.3693140" lon="-3.8057890">
        <ele>701.8</ele>
        <time>2021-05-08T13:28:47Z</time>
      </trkpt>
      <trkpt lat="40.3692590" lon="-3.8056720">
        <ele>701.8</ele>
        <time>2021-05-08T13:28:49Z</time>
      </trkpt>
      <trkpt lat="40.3692330" lon="-3.8056160">
        <ele>701.8</ele>
        <time>2021-05-08T13:28:50Z</time>
      </trkpt>
      <trkpt lat="40.3691830" lon="-3.8055120">
        <ele>701.8</ele>
        <time>2021-05-08T13:28:52Z</time>
      </trkpt>
      <trkpt lat="40.3691610" lon="-3.8054600">
        <ele>701.8</ele>
        <time>2021-05-08T13:28:53Z</time>
      </trkpt>
      <trkpt lat="40.3691470" lon="-3.8054280">
        <ele>701.8</ele>
        <time>2021-05-08T13:28:54Z</time>
      </trkpt>
      <trkpt lat="40.3691270" lon="-3.8053880">
        <ele>701.8</ele>
        <time>2021-05-08T13:28:55Z</time>
      </trkpt>
      <trkpt lat="40.3691030" lon="-3.8053380">
        <ele>701.8</ele>
        <time>2021-05-08T13:28:56Z</time>
      </trkpt>
      <trkpt lat="40.3690630" lon="-3.8052590">
        <ele>701.8</ele>
        <time>2021-05-08T13:28:58Z</time>
      </trkpt>
      <trkpt lat="40.3690460" lon="-3.8052220">
        <ele>701.8</ele>
        <time>2021-05-08T13:28:59Z</time>
      </trkpt>
      <trkpt lat="40.3690370" lon="-3.8052110">
        <ele>701.8</ele>
        <time>2021-05-08T13:29:00Z</time>
      </trkpt>
      <trkpt lat="40.3690070" lon="-3.8051570">
        <ele>701.9</ele>
        <time>2021-05-08T13:29:02Z</time>
      </trkpt>
      <trkpt lat="40.3689780" lon="-3.8050960">
        <ele>702.0</ele>
        <time>2021-05-08T13:29:03Z</time>
      </trkpt>
      <trkpt lat="40.3689580" lon="-3.8050160">
        <ele>702.1</ele>
        <time>2021-05-08T13:29:04Z</time>
      </trkpt>
      <trkpt lat="40.3689400" lon="-3.8049690">
        <ele>702.2</ele>
        <time>2021-05-08T13:29:06Z</time>
      </trkpt>
      <trkpt lat="40.3688940" lon="-3.8048940">
        <ele>702.4</ele>
        <time>2021-05-08T13:29:07Z</time>
      </trkpt>
      <trkpt lat="40.3688700" lon="-3.8048600">
        <ele>702.6</ele>
        <time>2021-05-08T13:29:08Z</time>
      </trkpt>
      <trkpt lat="40.3688420" lon="-3.8048300">
        <ele>702.7</ele>
        <time>2021-05-08T13:29:09Z</time>
      </trkpt>
      <trkpt lat="40.3687970" lon="-3.8047860">
        <ele>703.1</ele>
        <time>2021-05-08T13:29:10Z</time>
      </trkpt>
      <trkpt lat="40.3687770" lon="-3.8047620">
        <ele>703.1</ele>
        <time>2021-05-08T13:29:12Z</time>
      </trkpt>
      <trkpt lat="40.3687760" lon="-3.8047670">
        <ele>703.1</ele>
        <time>2021-05-08T13:29:13Z</time>
      </trkpt>
      <trkpt lat="40.3687680" lon="-3.8047500">
        <ele>703.1</ele>
        <time>2021-05-08T13:29:15Z</time>
      </trkpt>
      <trkpt lat="40.3687460" lon="-3.8047550">
        <ele>703.2</ele>
        <time>2021-05-08T13:29:16Z</time>
      </trkpt>
      <trkpt lat="40.3687230" lon="-3.8047720">
        <ele>703.2</ele>
        <time>2021-05-08T13:29:18Z</time>
      </trkpt>
      <trkpt lat="40.3686790" lon="-3.8047770">
        <ele>703.3</ele>
        <time>2021-05-08T13:29:19Z</time>
      </trkpt>
      <trkpt lat="40.3686530" lon="-3.8047770">
        <ele>703.4</ele>
        <time>2021-05-08T13:29:20Z</time>
      </trkpt>
      <trkpt lat="40.3686180" lon="-3.8047770">
        <ele>703.4</ele>
        <time>2021-05-08T13:29:22Z</time>
      </trkpt>
      <trkpt lat="40.3685760" lon="-3.8047900">
        <ele>703.6</ele>
        <time>2021-05-08T13:29:23Z</time>
      </trkpt>
      <trkpt lat="40.3685460" lon="-3.8048220">
        <ele>703.5</ele>
        <time>2021-05-08T13:29:25Z</time>
      </trkpt>
      <trkpt lat="40.3685200" lon="-3.8048460">
        <ele>703.4</ele>
        <time>2021-05-08T13:29:26Z</time>
      </trkpt>
      <trkpt lat="40.3684950" lon="-3.8048820">
        <ele>703.4</ele>
        <time>2021-05-08T13:29:28Z</time>
      </trkpt>
      <trkpt lat="40.3684640" lon="-3.8049300">
        <ele>703.3</ele>
        <time>2021-05-08T13:29:30Z</time>
      </trkpt>
      <trkpt lat="40.3684540" lon="-3.8049440">
        <ele>703.3</ele>
        <time>2021-05-08T13:29:31Z</time>
      </trkpt>
      <trkpt lat="40.3684430" lon="-3.8049590">
        <ele>703.2</ele>
        <time>2021-05-08T13:29:32Z</time>
      </trkpt>
      <trkpt lat="40.3684360" lon="-3.8049760">
        <ele>703.2</ele>
        <time>2021-05-08T13:29:33Z</time>
      </trkpt>
      <trkpt lat="40.3684120" lon="-3.8050080">
        <ele>703.2</ele>
        <time>2021-05-08T13:29:35Z</time>
      </trkpt>
      <trkpt lat="40.3684020" lon="-3.8050240">
        <ele>703.1</ele>
        <time>2021-05-08T13:29:36Z</time>
      </trkpt>
      <trkpt lat="40.3683950" lon="-3.8050390">
        <ele>703.1</ele>
        <time>2021-05-08T13:29:37Z</time>
      </trkpt>
      <trkpt lat="40.3683880" lon="-3.8050570">
        <ele>703.1</ele>
        <time>2021-05-08T13:29:38Z</time>
      </trkpt>
      <trkpt lat="40.3683770" lon="-3.8050800">
        <ele>703.1</ele>
        <time>2021-05-08T13:29:40Z</time>
      </trkpt>
      <trkpt lat="40.3683700" lon="-3.8050940">
        <ele>703.1</ele>
        <time>2021-05-08T13:29:41Z</time>
      </trkpt>
      <trkpt lat="40.3683590" lon="-3.8051090">
        <ele>703.0</ele>
        <time>2021-05-08T13:29:42Z</time>
      </trkpt>
      <trkpt lat="40.3683460" lon="-3.8051220">
        <ele>703.0</ele>
        <time>2021-05-08T13:29:44Z</time>
      </trkpt>
      <trkpt lat="40.3683350" lon="-3.8051390">
        <ele>703.0</ele>
        <time>2021-05-08T13:29:45Z</time>
      </trkpt>
      <trkpt lat="40.3683230" lon="-3.8051020">
        <ele>703.0</ele>
        <time>2021-05-08T13:29:47Z</time>
      </trkpt>
      <trkpt lat="40.3683270" lon="-3.8050880">
        <ele>703.0</ele>
        <time>2021-05-08T13:29:48Z</time>
      </trkpt>
      <trkpt lat="40.3683560" lon="-3.8050690">
        <ele>702.9</ele>
        <time>2021-05-08T13:29:49Z</time>
      </trkpt>
      <trkpt lat="40.3683680" lon="-3.8050600">
        <ele>702.9</ele>
        <time>2021-05-08T13:29:50Z</time>
      </trkpt>
      <trkpt lat="40.3683930" lon="-3.8050250">
        <ele>702.9</ele>
        <time>2021-05-08T13:29:52Z</time>
      </trkpt>
      <trkpt lat="40.3684150" lon="-3.8049890">
        <ele>702.9</ele>
        <time>2021-05-08T13:29:54Z</time>
      </trkpt>
      <trkpt lat="40.3684090" lon="-3.8049530">
        <ele>702.8</ele>
        <time>2021-05-08T13:29:56Z</time>
      </trkpt>
      <trkpt lat="40.3683750" lon="-3.8049290">
        <ele>703.1</ele>
        <time>2021-05-08T13:29:57Z</time>
      </trkpt>
      <trkpt lat="40.3683330" lon="-3.8048880">
        <ele>703.5</ele>
        <time>2021-05-08T13:29:59Z</time>
      </trkpt>
      <trkpt lat="40.3682940" lon="-3.8048370">
        <ele>703.8</ele>
        <time>2021-05-08T13:30:01Z</time>
      </trkpt>
      <trkpt lat="40.3682680" lon="-3.8047980">
        <ele>704.1</ele>
        <time>2021-05-08T13:30:02Z</time>
      </trkpt>
      <trkpt lat="40.3682400" lon="-3.8047570">
        <ele>704.4</ele>
        <time>2021-05-08T13:30:03Z</time>
      </trkpt>
      <trkpt lat="40.3682250" lon="-3.8047340">
        <ele>704.8</ele>
        <time>2021-05-08T13:30:04Z</time>
      </trkpt>
      <trkpt lat="40.3682050" lon="-3.8047080">
        <ele>705.2</ele>
        <time>2021-05-08T13:30:06Z</time>
      </trkpt>
      <trkpt lat="40.3681880" lon="-3.8047060">
        <ele>705.3</ele>
        <time>2021-05-08T13:30:07Z</time>
      </trkpt>
      <trkpt lat="40.3681630" lon="-3.8047580">
        <ele>705.4</ele>
        <time>2021-05-08T13:30:09Z</time>
      </trkpt>
      <trkpt lat="40.3681350" lon="-3.8048040">
        <ele>705.5</ele>
        <time>2021-05-08T13:30:10Z</time>
      </trkpt>
      <trkpt lat="40.3681140" lon="-3.8048420">
        <ele>705.6</ele>
        <time>2021-05-08T13:30:11Z</time>
      </trkpt>
      <trkpt lat="40.3680970" lon="-3.8048580">
        <ele>705.6</ele>
        <time>2021-05-08T13:30:13Z</time>
      </trkpt>
      <trkpt lat="40.3680800" lon="-3.8048470">
        <ele>705.7</ele>
        <time>2021-05-08T13:30:14Z</time>
      </trkpt>
      <trkpt lat="40.3680850" lon="-3.8048060">
        <ele>705.8</ele>
        <time>2021-05-08T13:30:15Z</time>
      </trkpt>
      <trkpt lat="40.3680960" lon="-3.8047930">
        <ele>705.8</ele>
        <time>2021-05-08T13:30:16Z</time>
      </trkpt>
      <trkpt lat="40.3681240" lon="-3.8047700">
        <ele>705.9</ele>
        <time>2021-05-08T13:30:17Z</time>
      </trkpt>
      <trkpt lat="40.3682190" lon="-3.8046650">
        <ele>705.1</ele>
        <time>2021-05-08T13:30:19Z</time>
      </trkpt>
      <trkpt lat="40.3683310" lon="-3.8045280">
        <ele>704.7</ele>
        <time>2021-05-08T13:30:21Z</time>
      </trkpt>
      <trkpt lat="40.3684210" lon="-3.8044070">
        <ele>704.5</ele>
        <time>2021-05-08T13:30:23Z</time>
      </trkpt>
      <trkpt lat="40.3684160" lon="-3.8043850">
        <ele>704.5</ele>
        <time>2021-05-08T13:30:24Z</time>
      </trkpt>
      <trkpt lat="40.3684440" lon="-3.8043600">
        <ele>704.4</ele>
        <time>2021-05-08T13:30:26Z</time>
      </trkpt>
      <trkpt lat="40.3684460" lon="-3.8042830">
        <ele>704.4</ele>
        <time>2021-05-08T13:30:28Z</time>
      </trkpt>
      <trkpt lat="40.3684370" lon="-3.8042490">
        <ele>704.3</ele>
        <time>2021-05-08T13:30:29Z</time>
      </trkpt>
      <trkpt lat="40.3684150" lon="-3.8042260">
        <ele>704.3</ele>
        <time>2021-05-08T13:30:30Z</time>
      </trkpt>
      <trkpt lat="40.3683690" lon="-3.8041800">
        <ele>704.3</ele>
        <time>2021-05-08T13:30:32Z</time>
      </trkpt>
      <trkpt lat="40.3683220" lon="-3.8041360">
        <ele>704.3</ele>
        <time>2021-05-08T13:30:34Z</time>
      </trkpt>
      <trkpt lat="40.3682700" lon="-3.8040780">
        <ele>704.1</ele>
        <time>2021-05-08T13:30:36Z</time>
      </trkpt>
      <trkpt lat="40.3682490" lon="-3.8040470">
        <ele>704.1</ele>
        <time>2021-05-08T13:30:38Z</time>
      </trkpt>
      <trkpt lat="40.3682510" lon="-3.8040620">
        <ele>704.0</ele>
        <time>2021-05-08T13:30:39Z</time>
      </trkpt>
      <trkpt lat="40.3682440" lon="-3.8040720">
        <ele>704.0</ele>
        <time>2021-05-08T13:30:41Z</time>
      </trkpt>
      <trkpt lat="40.3682410" lon="-3.8040700">
        <ele>704.0</ele>
        <time>2021-05-08T13:30:42Z</time>
      </trkpt>
      <trkpt lat="40.3682380" lon="-3.8040710">
        <ele>703.9</ele>
        <time>2021-05-08T13:30:43Z</time>
      </trkpt>
      <trkpt lat="40.3682320" lon="-3.8040800">
        <ele>703.9</ele>
        <time>2021-05-08T13:30:44Z</time>
      </trkpt>
      <trkpt lat="40.3682200" lon="-3.8041000">
        <ele>703.8</ele>
        <time>2021-05-08T13:30:45Z</time>
      </trkpt>
      <trkpt lat="40.3682100" lon="-3.8041150">
        <ele>703.7</ele>
        <time>2021-05-08T13:30:47Z</time>
      </trkpt>
      <trkpt lat="40.3682000" lon="-3.8041300">
        <ele>703.6</ele>
        <time>2021-05-08T13:30:49Z</time>
      </trkpt>
      <trkpt lat="40.3681900" lon="-3.8041450">
        <ele>703.5</ele>
        <time>2021-05-08T13:30:51Z</time>
      </trkpt>
      <trkpt lat="40.3681800" lon="-3.8041600">
        <ele>703.5</ele>
        <time>2021-05-08T13:30:52Z</time>
      </trkpt>
      <trkpt lat="40.3681700" lon="-3.8041750">
        <ele>703.4</ele>
        <time>2021-05-08T13:30:54Z</time>
      </trkpt>
      <trkpt lat="40.3681600" lon="-3.8041900">
        <ele>703.3</ele>
        <time>2021-05-08T13:30:59Z</time>
      </trkpt>
      <trkpt lat="40.3681500" lon="-3.8042050">
        <ele>703.3</ele>
        <time>2021-05-08T13:31:00Z</time>
      </trkpt>
      <trkpt lat="40.3681040" lon="-3.8042630">
        <ele>703.1</ele>
        <time>2021-05-08T13:31:02Z</time>
      </trkpt>
      <trkpt lat="40.3680630" lon="-3.8043260">
        <ele>703.0</ele>
        <time>2021-05-08T13:31:03Z</time>
      </trkpt>
      <trkpt lat="40.3679880" lon="-3.8044560">
        <ele>702.9</ele>
        <time>2021-05-08T13:31:04Z</time>
      </trkpt>
      <trkpt lat="40.3679510" lon="-3.8045150">
        <ele>702.9</ele>
        <time>2021-05-08T13:31:06Z</time>
      </trkpt>
      <trkpt lat="40.3678970" lon="-3.8045940">
        <ele>702.8</ele>
        <time>2021-05-08T13:31:08Z</time>
      </trkpt>
      <trkpt lat="40.3678540" lon="-3.8046580">
        <ele>702.7</ele>
        <time>2021-05-08T13:31:10Z</time>
      </trkpt>
      <trkpt lat="40.3678050" lon="-3.8047240">
        <ele>702.7</ele>
        <time>2021-05-08T13:31:11Z</time>
      </trkpt>
      <trkpt lat="40.3677520" lon="-3.8047940">
        <ele>702.6</ele>
        <time>2021-05-08T13:31:13Z</time>
      </trkpt>
      <trkpt lat="40.3676820" lon="-3.8048590">
        <ele>702.5</ele>
        <time>2021-05-08T13:31:15Z</time>
      </trkpt>
      <trkpt lat="40.3676310" lon="-3.8048830">
        <ele>702.5</ele>
        <time>2021-05-08T13:31:16Z</time>
      </trkpt>
      <trkpt lat="40.3675320" lon="-3.8049470">
        <ele>702.3</ele>
        <time>2021-05-08T13:31:18Z</time>
      </trkpt>
      <trkpt lat="40.3674630" lon="-3.8050430">
        <ele>702.2</ele>
        <time>2021-05-08T13:31:20Z</time>
      </trkpt>
      <trkpt lat="40.3674290" lon="-3.8050800">
        <ele>702.2</ele>
        <time>2021-05-08T13:31:21Z</time>
      </trkpt>
      <trkpt lat="40.3673950" lon="-3.8051160">
        <ele>702.1</ele>
        <time>2021-05-08T13:31:22Z</time>
      </trkpt>
      <trkpt lat="40.3673570" lon="-3.8051560">
        <ele>702.1</ele>
        <time>2021-05-08T13:31:23Z</time>
      </trkpt>
      <trkpt lat="40.3673210" lon="-3.8052020">
        <ele>702.0</ele>
        <time>2021-05-08T13:31:24Z</time>
      </trkpt>
      <trkpt lat="40.3672860" lon="-3.8052500">
        <ele>702.0</ele>
        <time>2021-05-08T13:31:25Z</time>
      </trkpt>
      <trkpt lat="40.3672530" lon="-3.8052980">
        <ele>701.9</ele>
        <time>2021-05-08T13:31:26Z</time>
      </trkpt>
      <trkpt lat="40.3671840" lon="-3.8053870">
        <ele>701.8</ele>
        <time>2021-05-08T13:31:28Z</time>
      </trkpt>
      <trkpt lat="40.3671500" lon="-3.8054290">
        <ele>701.7</ele>
        <time>2021-05-08T13:31:29Z</time>
      </trkpt>
      <trkpt lat="40.3671180" lon="-3.8054730">
        <ele>701.6</ele>
        <time>2021-05-08T13:31:30Z</time>
      </trkpt>
      <trkpt lat="40.3671050" lon="-3.8055100">
        <ele>701.6</ele>
        <time>2021-05-08T13:31:31Z</time>
      </trkpt>
      <trkpt lat="40.3670380" lon="-3.8056070">
        <ele>701.4</ele>
        <time>2021-05-08T13:31:33Z</time>
      </trkpt>
      <trkpt lat="40.3669930" lon="-3.8056560">
        <ele>701.4</ele>
        <time>2021-05-08T13:31:34Z</time>
      </trkpt>
      <trkpt lat="40.3669180" lon="-3.8057530">
        <ele>701.2</ele>
        <time>2021-05-08T13:31:36Z</time>
      </trkpt>
      <trkpt lat="40.3668490" lon="-3.8058420">
        <ele>701.0</ele>
        <time>2021-05-08T13:31:38Z</time>
      </trkpt>
      <trkpt lat="40.3668150" lon="-3.8058830">
        <ele>701.0</ele>
        <time>2021-05-08T13:31:39Z</time>
      </trkpt>
      <trkpt lat="40.3667420" lon="-3.8059710">
        <ele>700.8</ele>
        <time>2021-05-08T13:31:41Z</time>
      </trkpt>
      <trkpt lat="40.3667000" lon="-3.8060160">
        <ele>700.6</ele>
        <time>2021-05-08T13:31:42Z</time>
      </trkpt>
      <trkpt lat="40.3666450" lon="-3.8060760">
        <ele>700.5</ele>
        <time>2021-05-08T13:31:44Z</time>
      </trkpt>
      <trkpt lat="40.3666140" lon="-3.8061100">
        <ele>700.3</ele>
        <time>2021-05-08T13:31:45Z</time>
      </trkpt>
      <trkpt lat="40.3665620" lon="-3.8061700">
        <ele>700.2</ele>
        <time>2021-05-08T13:31:47Z</time>
      </trkpt>
      <trkpt lat="40.3665210" lon="-3.8062400">
        <ele>700.0</ele>
        <time>2021-05-08T13:31:48Z</time>
      </trkpt>
      <trkpt lat="40.3664910" lon="-3.8062820">
        <ele>699.9</ele>
        <time>2021-05-08T13:31:49Z</time>
      </trkpt>
      <trkpt lat="40.3664450" lon="-3.8063230">
        <ele>699.7</ele>
        <time>2021-05-08T13:31:50Z</time>
      </trkpt>
      <trkpt lat="40.3664040" lon="-3.8063580">
        <ele>699.6</ele>
        <time>2021-05-08T13:31:51Z</time>
      </trkpt>
      <trkpt lat="40.3663550" lon="-3.8064360">
        <ele>699.5</ele>
        <time>2021-05-08T13:31:53Z</time>
      </trkpt>
      <trkpt lat="40.3663170" lon="-3.8064780">
        <ele>699.4</ele>
        <time>2021-05-08T13:31:54Z</time>
      </trkpt>
      <trkpt lat="40.3662840" lon="-3.8065160">
        <ele>699.4</ele>
        <time>2021-05-08T13:31:55Z</time>
      </trkpt>
      <trkpt lat="40.3662400" lon="-3.8065460">
        <ele>699.4</ele>
        <time>2021-05-08T13:31:56Z</time>
      </trkpt>
      <trkpt lat="40.3662160" lon="-3.8065670">
        <ele>699.4</ele>
        <time>2021-05-08T13:31:57Z</time>
      </trkpt>
      <trkpt lat="40.3661790" lon="-3.8066120">
        <ele>699.3</ele>
        <time>2021-05-08T13:31:59Z</time>
      </trkpt>
      <trkpt lat="40.3661330" lon="-3.8066590">
        <ele>699.3</ele>
        <time>2021-05-08T13:32:00Z</time>
      </trkpt>
      <trkpt lat="40.3660650" lon="-3.8067250">
        <ele>699.3</ele>
        <time>2021-05-08T13:32:02Z</time>
      </trkpt>
      <trkpt lat="40.3660810" lon="-3.8067740">
        <ele>699.3</ele>
        <time>2021-05-08T13:32:04Z</time>
      </trkpt>
      <trkpt lat="40.3660560" lon="-3.8068250">
        <ele>699.2</ele>
        <time>2021-05-08T13:32:05Z</time>
      </trkpt>
      <trkpt lat="40.3659760" lon="-3.8068960">
        <ele>699.2</ele>
        <time>2021-05-08T13:32:06Z</time>
      </trkpt>
      <trkpt lat="40.3659200" lon="-3.8069280">
        <ele>699.2</ele>
        <time>2021-05-08T13:32:07Z</time>
      </trkpt>
      <trkpt lat="40.3658670" lon="-3.8069630">
        <ele>699.2</ele>
        <time>2021-05-08T13:32:08Z</time>
      </trkpt>
      <trkpt lat="40.3658060" lon="-3.8070470">
        <ele>699.2</ele>
        <time>2021-05-08T13:32:10Z</time>
      </trkpt>
      <trkpt lat="40.3657100" lon="-3.8071140">
        <ele>699.1</ele>
        <time>2021-05-08T13:32:12Z</time>
      </trkpt>
      <trkpt lat="40.3656190" lon="-3.8071880">
        <ele>699.1</ele>
        <time>2021-05-08T13:32:14Z</time>
      </trkpt>
      <trkpt lat="40.3655720" lon="-3.8072630">
        <ele>699.0</ele>
        <time>2021-05-08T13:32:15Z</time>
      </trkpt>
      <trkpt lat="40.3655650" lon="-3.8072970">
        <ele>698.9</ele>
        <time>2021-05-08T13:32:16Z</time>
      </trkpt>
      <trkpt lat="40.3655800" lon="-3.8073450">
        <ele>698.8</ele>
        <time>2021-05-08T13:32:18Z</time>
      </trkpt>
      <trkpt lat="40.3656030" lon="-3.8073650">
        <ele>698.8</ele>
        <time>2021-05-08T13:32:19Z</time>
      </trkpt>
      <trkpt lat="40.3656370" lon="-3.8073590">
        <ele>698.7</ele>
        <time>2021-05-08T13:32:20Z</time>
      </trkpt>
      <trkpt lat="40.3656730" lon="-3.8073370">
        <ele>698.6</ele>
        <time>2021-05-08T13:32:21Z</time>
      </trkpt>
      <trkpt lat="40.3657150" lon="-3.8073440">
        <ele>698.5</ele>
        <time>2021-05-08T13:32:23Z</time>
      </trkpt>
      <trkpt lat="40.3657230" lon="-3.8074100">
        <ele>698.4</ele>
        <time>2021-05-08T13:32:24Z</time>
      </trkpt>
      <trkpt lat="40.3656830" lon="-3.8074890">
        <ele>698.3</ele>
        <time>2021-05-08T13:32:25Z</time>
      </trkpt>
      <trkpt lat="40.3656000" lon="-3.8075830">
        <ele>698.1</ele>
        <time>2021-05-08T13:32:27Z</time>
      </trkpt>
      <trkpt lat="40.3655200" lon="-3.8076830">
        <ele>697.9</ele>
        <time>2021-05-08T13:32:29Z</time>
      </trkpt>
      <trkpt lat="40.3654790" lon="-3.8077340">
        <ele>697.8</ele>
        <time>2021-05-08T13:32:30Z</time>
      </trkpt>
      <trkpt lat="40.3653940" lon="-3.8078320">
        <ele>697.7</ele>
        <time>2021-05-08T13:32:32Z</time>
      </trkpt>
      <trkpt lat="40.3653520" lon="-3.8078840">
        <ele>697.6</ele>
        <time>2021-05-08T13:32:33Z</time>
      </trkpt>
      <trkpt lat="40.3653120" lon="-3.8079380">
        <ele>697.6</ele>
        <time>2021-05-08T13:32:34Z</time>
      </trkpt>
      <trkpt lat="40.3652700" lon="-3.8079920">
        <ele>697.5</ele>
        <time>2021-05-08T13:32:35Z</time>
      </trkpt>
      <trkpt lat="40.3651860" lon="-3.8080920">
        <ele>697.5</ele>
        <time>2021-05-08T13:32:37Z</time>
      </trkpt>
      <trkpt lat="40.3651020" lon="-3.8081760">
        <ele>697.5</ele>
        <time>2021-05-08T13:32:39Z</time>
      </trkpt>
      <trkpt lat="40.3650580" lon="-3.8082140">
        <ele>697.5</ele>
        <time>2021-05-08T13:32:40Z</time>
      </trkpt>
      <trkpt lat="40.3650140" lon="-3.8082490">
        <ele>697.5</ele>
        <time>2021-05-08T13:32:41Z</time>
      </trkpt>
      <trkpt lat="40.3649710" lon="-3.8082820">
        <ele>697.5</ele>
        <time>2021-05-08T13:32:42Z</time>
      </trkpt>
      <trkpt lat="40.3648830" lon="-3.8083510">
        <ele>697.6</ele>
        <time>2021-05-08T13:32:44Z</time>
      </trkpt>
      <trkpt lat="40.3648430" lon="-3.8083850">
        <ele>697.7</ele>
        <time>2021-05-08T13:32:45Z</time>
      </trkpt>
      <trkpt lat="40.3648020" lon="-3.8084180">
        <ele>697.7</ele>
        <time>2021-05-08T13:32:46Z</time>
      </trkpt>
      <trkpt lat="40.3647300" lon="-3.8084900">
        <ele>697.8</ele>
        <time>2021-05-08T13:32:48Z</time>
      </trkpt>
      <trkpt lat="40.3646950" lon="-3.8085260">
        <ele>697.8</ele>
        <time>2021-05-08T13:32:49Z</time>
      </trkpt>
      <trkpt lat="40.3646380" lon="-3.8085810">
        <ele>697.9</ele>
        <time>2021-05-08T13:32:51Z</time>
      </trkpt>
      <trkpt lat="40.3645610" lon="-3.8086440">
        <ele>698.0</ele>
        <time>2021-05-08T13:32:53Z</time>
      </trkpt>
      <trkpt lat="40.3644870" lon="-3.8086910">
        <ele>698.1</ele>
        <time>2021-05-08T13:32:55Z</time>
      </trkpt>
      <trkpt lat="40.3644450" lon="-3.8087160">
        <ele>698.1</ele>
        <time>2021-05-08T13:32:56Z</time>
      </trkpt>
      <trkpt lat="40.3643570" lon="-3.8087520">
        <ele>698.1</ele>
        <time>2021-05-08T13:32:58Z</time>
      </trkpt>
      <trkpt lat="40.3643070" lon="-3.8087670">
        <ele>698.0</ele>
        <time>2021-05-08T13:32:59Z</time>
      </trkpt>
      <trkpt lat="40.3642580" lon="-3.8087780">
        <ele>698.0</ele>
        <time>2021-05-08T13:33:00Z</time>
      </trkpt>
      <trkpt lat="40.3642000" lon="-3.8087900">
        <ele>698.0</ele>
        <time>2021-05-08T13:33:02Z</time>
      </trkpt>
      <trkpt lat="40.3640990" lon="-3.8088050">
        <ele>697.9</ele>
        <time>2021-05-08T13:33:03Z</time>
      </trkpt>
      <trkpt lat="40.3640450" lon="-3.8088060">
        <ele>697.9</ele>
        <time>2021-05-08T13:33:04Z</time>
      </trkpt>
      <trkpt lat="40.3639900" lon="-3.8088010">
        <ele>697.8</ele>
        <time>2021-05-08T13:33:05Z</time>
      </trkpt>
      <trkpt lat="40.3639380" lon="-3.8088020">
        <ele>697.8</ele>
        <time>2021-05-08T13:33:06Z</time>
      </trkpt>
      <trkpt lat="40.3638370" lon="-3.8088170">
        <ele>697.6</ele>
        <time>2021-05-08T13:33:08Z</time>
      </trkpt>
      <trkpt lat="40.3637240" lon="-3.8088270">
        <ele>697.4</ele>
        <time>2021-05-08T13:33:10Z</time>
      </trkpt>
      <trkpt lat="40.3636660" lon="-3.8088350">
        <ele>697.3</ele>
        <time>2021-05-08T13:33:11Z</time>
      </trkpt>
      <trkpt lat="40.3635500" lon="-3.8088520">
        <ele>697.1</ele>
        <time>2021-05-08T13:33:13Z</time>
      </trkpt>
      <trkpt lat="40.3634320" lon="-3.8088820">
        <ele>696.9</ele>
        <time>2021-05-08T13:33:15Z</time>
      </trkpt>
      <trkpt lat="40.3633170" lon="-3.8089000">
        <ele>696.7</ele>
        <time>2021-05-08T13:33:17Z</time>
      </trkpt>
      <trkpt lat="40.3631990" lon="-3.8089070">
        <ele>696.5</ele>
        <time>2021-05-08T13:33:19Z</time>
      </trkpt>
      <trkpt lat="40.3630780" lon="-3.8089100">
        <ele>696.3</ele>
        <time>2021-05-08T13:33:21Z</time>
      </trkpt>
      <trkpt lat="40.3629620" lon="-3.8089150">
        <ele>696.1</ele>
        <time>2021-05-08T13:33:23Z</time>
      </trkpt>
      <trkpt lat="40.3629220" lon="-3.8089320">
        <ele>696.1</ele>
        <time>2021-05-08T13:33:24Z</time>
      </trkpt>
      <trkpt lat="40.3628740" lon="-3.8089580">
        <ele>696.1</ele>
        <time>2021-05-08T13:33:25Z</time>
      </trkpt>
      <trkpt lat="40.3628210" lon="-3.8089810">
        <ele>696.1</ele>
        <time>2021-05-08T13:33:26Z</time>
      </trkpt>
      <trkpt lat="40.3627130" lon="-3.8089890">
        <ele>696.1</ele>
        <time>2021-05-08T13:33:28Z</time>
      </trkpt>
      <trkpt lat="40.3626020" lon="-3.8089790">
        <ele>696.2</ele>
        <time>2021-05-08T13:33:30Z</time>
      </trkpt>
      <trkpt lat="40.3625250" lon="-3.8089160">
        <ele>696.4</ele>
        <time>2021-05-08T13:33:32Z</time>
      </trkpt>
      <trkpt lat="40.3625150" lon="-3.8088880">
        <ele>696.4</ele>
        <time>2021-05-08T13:33:33Z</time>
      </trkpt>
      <trkpt lat="40.3624940" lon="-3.8087990">
        <ele>696.5</ele>
        <time>2021-05-08T13:33:35Z</time>
      </trkpt>
      <trkpt lat="40.3624920" lon="-3.8086970">
        <ele>696.5</ele>
        <time>2021-05-08T13:33:37Z</time>
      </trkpt>
      <trkpt lat="40.3624900" lon="-3.8086580">
        <ele>696.5</ele>
        <time>2021-05-08T13:33:38Z</time>
      </trkpt>
      <trkpt lat="40.3624880" lon="-3.8086210">
        <ele>696.5</ele>
        <time>2021-05-08T13:33:39Z</time>
      </trkpt>
      <trkpt lat="40.3624900" lon="-3.8085490">
        <ele>696.5</ele>
        <time>2021-05-08T13:33:40Z</time>
      </trkpt>
      <trkpt lat="40.3624710" lon="-3.8084760">
        <ele>696.5</ele>
        <time>2021-05-08T13:33:42Z</time>
      </trkpt>
      <trkpt lat="40.3624350" lon="-3.8084220">
        <ele>696.4</ele>
        <time>2021-05-08T13:33:43Z</time>
      </trkpt>
      <trkpt lat="40.3623490" lon="-3.8083140">
        <ele>696.0</ele>
        <time>2021-05-08T13:33:45Z</time>
      </trkpt>
      <trkpt lat="40.3623060" lon="-3.8082610">
        <ele>695.7</ele>
        <time>2021-05-08T13:33:46Z</time>
      </trkpt>
      <trkpt lat="40.3622650" lon="-3.8082140">
        <ele>695.4</ele>
        <time>2021-05-08T13:33:47Z</time>
      </trkpt>
      <trkpt lat="40.3622240" lon="-3.8081740">
        <ele>695.0</ele>
        <time>2021-05-08T13:33:48Z</time>
      </trkpt>
      <trkpt lat="40.3621870" lon="-3.8081380">
        <ele>694.6</ele>
        <time>2021-05-08T13:33:49Z</time>
      </trkpt>
      <trkpt lat="40.3621520" lon="-3.8080770">
        <ele>694.0</ele>
        <time>2021-05-08T13:33:51Z</time>
      </trkpt>
      <trkpt lat="40.3620750" lon="-3.8080380">
        <ele>693.2</ele>
        <time>2021-05-08T13:33:52Z</time>
      </trkpt>
      <trkpt lat="40.3620250" lon="-3.8080100">
        <ele>692.6</ele>
        <time>2021-05-08T13:33:53Z</time>
      </trkpt>
      <trkpt lat="40.3619170" lon="-3.8079700">
        <ele>691.5</ele>
        <time>2021-05-08T13:33:55Z</time>
      </trkpt>
      <trkpt lat="40.3617930" lon="-3.8079100">
        <ele>690.6</ele>
        <time>2021-05-08T13:33:57Z</time>
      </trkpt>
      <trkpt lat="40.3617280" lon="-3.8078780">
        <ele>690.2</ele>
        <time>2021-05-08T13:33:58Z</time>
      </trkpt>
      <trkpt lat="40.3616600" lon="-3.8078480">
        <ele>689.9</ele>
        <time>2021-05-08T13:33:59Z</time>
      </trkpt>
      <trkpt lat="40.3615160" lon="-3.8077860">
        <ele>689.4</ele>
        <time>2021-05-08T13:34:01Z</time>
      </trkpt>
      <trkpt lat="40.3614440" lon="-3.8077590">
        <ele>689.2</ele>
        <time>2021-05-08T13:34:02Z</time>
      </trkpt>
      <trkpt lat="40.3613010" lon="-3.8077120">
        <ele>688.9</ele>
        <time>2021-05-08T13:34:04Z</time>
      </trkpt>
      <trkpt lat="40.3611680" lon="-3.8076650">
        <ele>688.9</ele>
        <time>2021-05-08T13:34:06Z</time>
      </trkpt>
      <trkpt lat="40.3610490" lon="-3.8076240">
        <ele>688.8</ele>
        <time>2021-05-08T13:34:08Z</time>
      </trkpt>
      <trkpt lat="40.3609420" lon="-3.8075740">
        <ele>688.8</ele>
        <time>2021-05-08T13:34:10Z</time>
      </trkpt>
      <trkpt lat="40.3608410" lon="-3.8075300">
        <ele>688.8</ele>
        <time>2021-05-08T13:34:12Z</time>
      </trkpt>
      <trkpt lat="40.3607890" lon="-3.8075160">
        <ele>688.8</ele>
        <time>2021-05-08T13:34:13Z</time>
      </trkpt>
      <trkpt lat="40.3606870" lon="-3.8075180">
        <ele>688.7</ele>
        <time>2021-05-08T13:34:15Z</time>
      </trkpt>
      <trkpt lat="40.3606440" lon="-3.8075180">
        <ele>688.6</ele>
        <time>2021-05-08T13:34:16Z</time>
      </trkpt>
      <trkpt lat="40.3605990" lon="-3.8075180">
        <ele>688.5</ele>
        <time>2021-05-08T13:34:17Z</time>
      </trkpt>
      <trkpt lat="40.3605020" lon="-3.8075090">
        <ele>688.1</ele>
        <time>2021-05-08T13:34:19Z</time>
      </trkpt>
      <trkpt lat="40.3604000" lon="-3.8074810">
        <ele>687.5</ele>
        <time>2021-05-08T13:34:21Z</time>
      </trkpt>
      <trkpt lat="40.3603510" lon="-3.8074610">
        <ele>687.2</ele>
        <time>2021-05-08T13:34:22Z</time>
      </trkpt>
      <trkpt lat="40.3602430" lon="-3.8074530">
        <ele>686.5</ele>
        <time>2021-05-08T13:34:24Z</time>
      </trkpt>
      <trkpt lat="40.3601810" lon="-3.8074660">
        <ele>686.1</ele>
        <time>2021-05-08T13:34:25Z</time>
      </trkpt>
      <trkpt lat="40.3600440" lon="-3.8074750">
        <ele>685.2</ele>
        <time>2021-05-08T13:34:27Z</time>
      </trkpt>
      <trkpt lat="40.3599720" lon="-3.8074480">
        <ele>684.7</ele>
        <time>2021-05-08T13:34:28Z</time>
      </trkpt>
      <trkpt lat="40.3598440" lon="-3.8074110">
        <ele>683.9</ele>
        <time>2021-05-08T13:34:30Z</time>
      </trkpt>
      <trkpt lat="40.3597330" lon="-3.8074320">
        <ele>683.3</ele>
        <time>2021-05-08T13:34:32Z</time>
      </trkpt>
      <trkpt lat="40.3596060" lon="-3.8074580">
        <ele>682.6</ele>
        <time>2021-05-08T13:34:34Z</time>
      </trkpt>
      <trkpt lat="40.3594680" lon="-3.8074380">
        <ele>682.0</ele>
        <time>2021-05-08T13:34:36Z</time>
      </trkpt>
      <trkpt lat="40.3594070" lon="-3.8074100">
        <ele>681.7</ele>
        <time>2021-05-08T13:34:37Z</time>
      </trkpt>
      <trkpt lat="40.3592810" lon="-3.8073720">
        <ele>681.1</ele>
        <time>2021-05-08T13:34:39Z</time>
      </trkpt>
      <trkpt lat="40.3592180" lon="-3.8073560">
        <ele>680.8</ele>
        <time>2021-05-08T13:34:40Z</time>
      </trkpt>
      <trkpt lat="40.3590990" lon="-3.8073000">
        <ele>680.4</ele>
        <time>2021-05-08T13:34:42Z</time>
      </trkpt>
      <trkpt lat="40.3590450" lon="-3.8072640">
        <ele>680.2</ele>
        <time>2021-05-08T13:34:43Z</time>
      </trkpt>
      <trkpt lat="40.3589900" lon="-3.8072200">
        <ele>680.0</ele>
        <time>2021-05-08T13:34:44Z</time>
      </trkpt>
      <trkpt lat="40.3588770" lon="-3.8071360">
        <ele>679.5</ele>
        <time>2021-05-08T13:34:46Z</time>
      </trkpt>
      <trkpt lat="40.3587580" lon="-3.8070710">
        <ele>679.1</ele>
        <time>2021-05-08T13:34:48Z</time>
      </trkpt>
      <trkpt lat="40.3586390" lon="-3.8069830">
        <ele>678.6</ele>
        <time>2021-05-08T13:34:50Z</time>
      </trkpt>
      <trkpt lat="40.3585240" lon="-3.8068860">
        <ele>678.2</ele>
        <time>2021-05-08T13:34:52Z</time>
      </trkpt>
      <trkpt lat="40.3584660" lon="-3.8068270">
        <ele>678.0</ele>
        <time>2021-05-08T13:34:53Z</time>
      </trkpt>
      <trkpt lat="40.3583690" lon="-3.8066930">
        <ele>677.8</ele>
        <time>2021-05-08T13:34:55Z</time>
      </trkpt>
      <trkpt lat="40.3582820" lon="-3.8065500">
        <ele>677.6</ele>
        <time>2021-05-08T13:34:57Z</time>
      </trkpt>
      <trkpt lat="40.3581980" lon="-3.8064260">
        <ele>677.6</ele>
        <time>2021-05-08T13:34:59Z</time>
      </trkpt>
      <trkpt lat="40.3581070" lon="-3.8063420">
        <ele>677.6</ele>
        <time>2021-05-08T13:35:01Z</time>
      </trkpt>
      <trkpt lat="40.3580210" lon="-3.8062830">
        <ele>677.5</ele>
        <time>2021-05-08T13:35:03Z</time>
      </trkpt>
      <trkpt lat="40.3580000" lon="-3.8062570">
        <ele>677.5</ele>
        <time>2021-05-08T13:35:04Z</time>
      </trkpt>
      <trkpt lat="40.3579640" lon="-3.8062090">
        <ele>677.4</ele>
        <time>2021-05-08T13:35:05Z</time>
      </trkpt>
      <trkpt lat="40.3579170" lon="-3.8061370">
        <ele>677.4</ele>
        <time>2021-05-08T13:35:07Z</time>
      </trkpt>
      <trkpt lat="40.3578910" lon="-3.8060950">
        <ele>677.3</ele>
        <time>2021-05-08T13:35:08Z</time>
      </trkpt>
      <trkpt lat="40.3578770" lon="-3.8060660">
        <ele>677.3</ele>
        <time>2021-05-08T13:35:09Z</time>
      </trkpt>
      <trkpt lat="40.3578450" lon="-3.8059940">
        <ele>677.2</ele>
        <time>2021-05-08T13:35:11Z</time>
      </trkpt>
      <trkpt lat="40.3578040" lon="-3.8059940">
        <ele>677.2</ele>
        <time>2021-05-08T13:35:12Z</time>
      </trkpt>
      <trkpt lat="40.3577580" lon="-3.8058850">
        <ele>677.3</ele>
        <time>2021-05-08T13:35:14Z</time>
      </trkpt>
      <trkpt lat="40.3577370" lon="-3.8058190">
        <ele>677.3</ele>
        <time>2021-05-08T13:35:15Z</time>
      </trkpt>
      <trkpt lat="40.3576760" lon="-3.8056940">
        <ele>677.3</ele>
        <time>2021-05-08T13:35:17Z</time>
      </trkpt>
      <trkpt lat="40.3576270" lon="-3.8055850">
        <ele>677.3</ele>
        <time>2021-05-08T13:35:19Z</time>
      </trkpt>
      <trkpt lat="40.3575930" lon="-3.8055210">
        <ele>677.3</ele>
        <time>2021-05-08T13:35:20Z</time>
      </trkpt>
      <trkpt lat="40.3575340" lon="-3.8054230">
        <ele>677.4</ele>
        <time>2021-05-08T13:35:22Z</time>
      </trkpt>
      <trkpt lat="40.3575000" lon="-3.8053640">
        <ele>677.4</ele>
        <time>2021-05-08T13:35:23Z</time>
      </trkpt>
      <trkpt lat="40.3574290" lon="-3.8052580">
        <ele>677.4</ele>
        <time>2021-05-08T13:35:25Z</time>
      </trkpt>
      <trkpt lat="40.3573960" lon="-3.8052040">
        <ele>677.5</ele>
        <time>2021-05-08T13:35:26Z</time>
      </trkpt>
      <trkpt lat="40.3573260" lon="-3.8050930">
        <ele>677.5</ele>
        <time>2021-05-08T13:35:28Z</time>
      </trkpt>
      <trkpt lat="40.3572510" lon="-3.8050050">
        <ele>677.5</ele>
        <time>2021-05-08T13:35:30Z</time>
      </trkpt>
      <trkpt lat="40.3571800" lon="-3.8049200">
        <ele>677.5</ele>
        <time>2021-05-08T13:35:32Z</time>
      </trkpt>
      <trkpt lat="40.3571610" lon="-3.8048900">
        <ele>677.5</ele>
        <time>2021-05-08T13:35:33Z</time>
      </trkpt>
      <trkpt lat="40.3571370" lon="-3.8048440">
        <ele>677.5</ele>
        <time>2021-05-08T13:35:34Z</time>
      </trkpt>
      <trkpt lat="40.3570880" lon="-3.8047500">
        <ele>677.6</ele>
        <time>2021-05-08T13:35:36Z</time>
      </trkpt>
      <trkpt lat="40.3570620" lon="-3.8047100">
        <ele>677.6</ele>
        <time>2021-05-08T13:35:37Z</time>
      </trkpt>
      <trkpt lat="40.3570690" lon="-3.8046590">
        <ele>677.6</ele>
        <time>2021-05-08T13:35:38Z</time>
      </trkpt>
      <trkpt lat="40.3570730" lon="-3.8046300">
        <ele>677.6</ele>
        <time>2021-05-08T13:35:39Z</time>
      </trkpt>
      <trkpt lat="40.3570430" lon="-3.8045640">
        <ele>677.6</ele>
        <time>2021-05-08T13:35:41Z</time>
      </trkpt>
      <trkpt lat="40.3570280" lon="-3.8045030">
        <ele>677.6</ele>
        <time>2021-05-08T13:35:42Z</time>
      </trkpt>
      <trkpt lat="40.3570140" lon="-3.8044420">
        <ele>677.6</ele>
        <time>2021-05-08T13:35:43Z</time>
      </trkpt>
      <trkpt lat="40.3569680" lon="-3.8043660">
        <ele>677.5</ele>
        <time>2021-05-08T13:35:44Z</time>
      </trkpt>
      <trkpt lat="40.3569120" lon="-3.8043260">
        <ele>677.4</ele>
        <time>2021-05-08T13:35:45Z</time>
      </trkpt>
      <trkpt lat="40.3568590" lon="-3.8042510">
        <ele>677.2</ele>
        <time>2021-05-08T13:35:47Z</time>
      </trkpt>
      <trkpt lat="40.3568420" lon="-3.8041970">
        <ele>677.0</ele>
        <time>2021-05-08T13:35:48Z</time>
      </trkpt>
      <trkpt lat="40.3568110" lon="-3.8040510">
        <ele>676.7</ele>
        <time>2021-05-08T13:35:50Z</time>
      </trkpt>
      <trkpt lat="40.3567920" lon="-3.8039690">
        <ele>676.6</ele>
        <time>2021-05-08T13:35:51Z</time>
      </trkpt>
      <trkpt lat="40.3567610" lon="-3.8038310">
        <ele>676.5</ele>
        <time>2021-05-08T13:35:53Z</time>
      </trkpt>
      <trkpt lat="40.3567130" lon="-3.8037370">
        <ele>676.7</ele>
        <time>2021-05-08T13:35:55Z</time>
      </trkpt>
      <trkpt lat="40.3566860" lon="-3.8037070">
        <ele>676.8</ele>
        <time>2021-05-08T13:35:56Z</time>
      </trkpt>
      <trkpt lat="40.3566290" lon="-3.8036610">
        <ele>676.9</ele>
        <time>2021-05-08T13:35:58Z</time>
      </trkpt>
      <trkpt lat="40.3565980" lon="-3.8036240">
        <ele>677.0</ele>
        <time>2021-05-08T13:35:59Z</time>
      </trkpt>
      <trkpt lat="40.3565810" lon="-3.8035850">
        <ele>677.0</ele>
        <time>2021-05-08T13:36:00Z</time>
      </trkpt>
      <trkpt lat="40.3565660" lon="-3.8035420">
        <ele>677.0</ele>
        <time>2021-05-08T13:36:01Z</time>
      </trkpt>
      <trkpt lat="40.3565510" lon="-3.8034860">
        <ele>677.1</ele>
        <time>2021-05-08T13:36:02Z</time>
      </trkpt>
      <trkpt lat="40.3565390" lon="-3.8034290">
        <ele>677.2</ele>
        <time>2021-05-08T13:36:03Z</time>
      </trkpt>
      <trkpt lat="40.3565300" lon="-3.8033830">
        <ele>677.2</ele>
        <time>2021-05-08T13:36:04Z</time>
      </trkpt>
      <trkpt lat="40.3565230" lon="-3.8033250">
        <ele>677.3</ele>
        <time>2021-05-08T13:36:06Z</time>
      </trkpt>
      <trkpt lat="40.3565130" lon="-3.8032730">
        <ele>677.4</ele>
        <time>2021-05-08T13:36:07Z</time>
      </trkpt>
      <trkpt lat="40.3564940" lon="-3.8032130">
        <ele>677.5</ele>
        <time>2021-05-08T13:36:08Z</time>
      </trkpt>
      <trkpt lat="40.3564720" lon="-3.8031520">
        <ele>677.6</ele>
        <time>2021-05-08T13:36:09Z</time>
      </trkpt>
      <trkpt lat="40.3564490" lon="-3.8030870">
        <ele>677.8</ele>
        <time>2021-05-08T13:36:11Z</time>
      </trkpt>
      <trkpt lat="40.3564270" lon="-3.8030220">
        <ele>678.0</ele>
        <time>2021-05-08T13:36:12Z</time>
      </trkpt>
      <trkpt lat="40.3564100" lon="-3.8029850">
        <ele>678.1</ele>
        <time>2021-05-08T13:36:13Z</time>
      </trkpt>
      <trkpt lat="40.3563970" lon="-3.8029420">
        <ele>678.2</ele>
        <time>2021-05-08T13:36:15Z</time>
      </trkpt>
      <trkpt lat="40.3563840" lon="-3.8028970">
        <ele>678.3</ele>
        <time>2021-05-08T13:36:16Z</time>
      </trkpt>
      <trkpt lat="40.3563710" lon="-3.8028560">
        <ele>678.4</ele>
        <time>2021-05-08T13:36:17Z</time>
      </trkpt>
      <trkpt lat="40.3563580" lon="-3.8028140">
        <ele>678.5</ele>
        <time>2021-05-08T13:36:18Z</time>
      </trkpt>
      <trkpt lat="40.3563360" lon="-3.8027530">
        <ele>678.7</ele>
        <time>2021-05-08T13:36:19Z</time>
      </trkpt>
      <trkpt lat="40.3563220" lon="-3.8027120">
        <ele>678.7</ele>
        <time>2021-05-08T13:36:21Z</time>
      </trkpt>
      <trkpt lat="40.3563070" lon="-3.8026760">
        <ele>678.8</ele>
        <time>2021-05-08T13:36:22Z</time>
      </trkpt>
      <trkpt lat="40.3562770" lon="-3.8026350">
        <ele>678.9</ele>
        <time>2021-05-08T13:36:24Z</time>
      </trkpt>
      <trkpt lat="40.3562570" lon="-3.8025960">
        <ele>679.0</ele>
        <time>2021-05-08T13:36:25Z</time>
      </trkpt>
      <trkpt lat="40.3562520" lon="-3.8025800">
        <ele>679.0</ele>
        <time>2021-05-08T13:36:26Z</time>
      </trkpt>
      <trkpt lat="40.3562540" lon="-3.8025140">
        <ele>679.1</ele>
        <time>2021-05-08T13:36:28Z</time>
      </trkpt>
      <trkpt lat="40.3562550" lon="-3.8024490">
        <ele>679.2</ele>
        <time>2021-05-08T13:36:29Z</time>
      </trkpt>
      <trkpt lat="40.3562590" lon="-3.8023760">
        <ele>679.4</ele>
        <time>2021-05-08T13:36:30Z</time>
      </trkpt>
      <trkpt lat="40.3562520" lon="-3.8023140">
        <ele>679.4</ele>
        <time>2021-05-08T13:36:32Z</time>
      </trkpt>
      <trkpt lat="40.3562350" lon="-3.8022490">
        <ele>679.5</ele>
        <time>2021-05-08T13:36:34Z</time>
      </trkpt>
      <trkpt lat="40.3562200" lon="-3.8022090">
        <ele>679.6</ele>
        <time>2021-05-08T13:36:35Z</time>
      </trkpt>
      <trkpt lat="40.3561960" lon="-3.8021530">
        <ele>679.6</ele>
        <time>2021-05-08T13:36:36Z</time>
      </trkpt>
      <trkpt lat="40.3561790" lon="-3.8021040">
        <ele>679.7</ele>
        <time>2021-05-08T13:36:38Z</time>
      </trkpt>
      <trkpt lat="40.3561540" lon="-3.8020380">
        <ele>679.7</ele>
        <time>2021-05-08T13:36:40Z</time>
      </trkpt>
      <trkpt lat="40.3561390" lon="-3.8019800">
        <ele>679.8</ele>
        <time>2021-05-08T13:36:41Z</time>
      </trkpt>
      <trkpt lat="40.3561420" lon="-3.8019280">
        <ele>679.8</ele>
        <time>2021-05-08T13:36:42Z</time>
      </trkpt>
      <trkpt lat="40.3561360" lon="-3.8018540">
        <ele>679.8</ele>
        <time>2021-05-08T13:36:43Z</time>
      </trkpt>
      <trkpt lat="40.3561490" lon="-3.8018060">
        <ele>679.8</ele>
        <time>2021-05-08T13:36:44Z</time>
      </trkpt>
      <trkpt lat="40.3561470" lon="-3.8017550">
        <ele>679.8</ele>
        <time>2021-05-08T13:36:46Z</time>
      </trkpt>
      <trkpt lat="40.3561330" lon="-3.8017210">
        <ele>679.8</ele>
        <time>2021-05-08T13:36:47Z</time>
      </trkpt>
      <trkpt lat="40.3561180" lon="-3.8016720">
        <ele>679.8</ele>
        <time>2021-05-08T13:36:48Z</time>
      </trkpt>
      <trkpt lat="40.3561090" lon="-3.8016250">
        <ele>679.7</ele>
        <time>2021-05-08T13:36:49Z</time>
      </trkpt>
      <trkpt lat="40.3560930" lon="-3.8015590">
        <ele>679.7</ele>
        <time>2021-05-08T13:36:51Z</time>
      </trkpt>
      <trkpt lat="40.3560800" lon="-3.8015040">
        <ele>679.7</ele>
        <time>2021-05-08T13:36:52Z</time>
      </trkpt>
      <trkpt lat="40.3560680" lon="-3.8014470">
        <ele>679.6</ele>
        <time>2021-05-08T13:36:54Z</time>
      </trkpt>
      <trkpt lat="40.3560640" lon="-3.8013890">
        <ele>679.6</ele>
        <time>2021-05-08T13:36:55Z</time>
      </trkpt>
      <trkpt lat="40.3560560" lon="-3.8013170">
        <ele>679.5</ele>
        <time>2021-05-08T13:36:56Z</time>
      </trkpt>
      <trkpt lat="40.3560440" lon="-3.8012580">
        <ele>679.5</ele>
        <time>2021-05-08T13:36:58Z</time>
      </trkpt>
      <trkpt lat="40.3560450" lon="-3.8011900">
        <ele>679.4</ele>
        <time>2021-05-08T13:36:59Z</time>
      </trkpt>
      <trkpt lat="40.3560370" lon="-3.8011200">
        <ele>679.4</ele>
        <time>2021-05-08T13:37:00Z</time>
      </trkpt>
      <trkpt lat="40.3559910" lon="-3.8009670">
        <ele>679.2</ele>
        <time>2021-05-08T13:37:02Z</time>
      </trkpt>
      <trkpt lat="40.3559260" lon="-3.8008280">
        <ele>679.2</ele>
        <time>2021-05-08T13:37:04Z</time>
      </trkpt>
      <trkpt lat="40.3558950" lon="-3.8007690">
        <ele>679.3</ele>
        <time>2021-05-08T13:37:05Z</time>
      </trkpt>
      <trkpt lat="40.3558340" lon="-3.8006650">
        <ele>679.3</ele>
        <time>2021-05-08T13:37:07Z</time>
      </trkpt>
      <trkpt lat="40.3558060" lon="-3.8006180">
        <ele>679.4</ele>
        <time>2021-05-08T13:37:08Z</time>
      </trkpt>
      <trkpt lat="40.3557810" lon="-3.8005670">
        <ele>679.4</ele>
        <time>2021-05-08T13:37:09Z</time>
      </trkpt>
      <trkpt lat="40.3557560" lon="-3.8005200">
        <ele>679.4</ele>
        <time>2021-05-08T13:37:10Z</time>
      </trkpt>
      <trkpt lat="40.3557120" lon="-3.8004420">
        <ele>679.5</ele>
        <time>2021-05-08T13:37:12Z</time>
      </trkpt>
      <trkpt lat="40.3556860" lon="-3.8003900">
        <ele>679.5</ele>
        <time>2021-05-08T13:37:13Z</time>
      </trkpt>
      <trkpt lat="40.3556620" lon="-3.8003450">
        <ele>679.5</ele>
        <time>2021-05-08T13:37:14Z</time>
      </trkpt>
      <trkpt lat="40.3556100" lon="-3.8002630">
        <ele>679.6</ele>
        <time>2021-05-08T13:37:16Z</time>
      </trkpt>
      <trkpt lat="40.3556170" lon="-3.8002160">
        <ele>679.7</ele>
        <time>2021-05-08T13:37:17Z</time>
      </trkpt>
      <trkpt lat="40.3556240" lon="-3.8001970">
        <ele>679.7</ele>
        <time>2021-05-08T13:37:18Z</time>
      </trkpt>
      <trkpt lat="40.3555810" lon="-3.8001460">
        <ele>679.8</ele>
        <time>2021-05-08T13:37:19Z</time>
      </trkpt>
      <trkpt lat="40.3555340" lon="-3.8000880">
        <ele>679.9</ele>
        <time>2021-05-08T13:37:20Z</time>
      </trkpt>
      <trkpt lat="40.3554760" lon="-3.8000190">
        <ele>680.0</ele>
        <time>2021-05-08T13:37:22Z</time>
      </trkpt>
      <trkpt lat="40.3554100" lon="-3.7999360">
        <ele>680.0</ele>
        <time>2021-05-08T13:37:24Z</time>
      </trkpt>
      <trkpt lat="40.3553670" lon="-3.7998680">
        <ele>680.1</ele>
        <time>2021-05-08T13:37:25Z</time>
      </trkpt>
      <trkpt lat="40.3553250" lon="-3.7998000">
        <ele>680.1</ele>
        <time>2021-05-08T13:37:27Z</time>
      </trkpt>
      <trkpt lat="40.3552570" lon="-3.7997300">
        <ele>680.2</ele>
        <time>2021-05-08T13:37:29Z</time>
      </trkpt>
      <trkpt lat="40.3552100" lon="-3.7996760">
        <ele>680.2</ele>
        <time>2021-05-08T13:37:30Z</time>
      </trkpt>
      <trkpt lat="40.3551770" lon="-3.7996290">
        <ele>680.3</ele>
        <time>2021-05-08T13:37:32Z</time>
      </trkpt>
      <trkpt lat="40.3551440" lon="-3.7995840">
        <ele>680.3</ele>
        <time>2021-05-08T13:37:33Z</time>
      </trkpt>
      <trkpt lat="40.3551140" lon="-3.7995450">
        <ele>680.3</ele>
        <time>2021-05-08T13:37:34Z</time>
      </trkpt>
      <trkpt lat="40.3550710" lon="-3.7994930">
        <ele>680.4</ele>
        <time>2021-05-08T13:37:35Z</time>
      </trkpt>
      <trkpt lat="40.3550350" lon="-3.7994500">
        <ele>680.5</ele>
        <time>2021-05-08T13:37:37Z</time>
      </trkpt>
      <trkpt lat="40.3550040" lon="-3.7994170">
        <ele>680.5</ele>
        <time>2021-05-08T13:37:38Z</time>
      </trkpt>
      <trkpt lat="40.3549710" lon="-3.7993800">
        <ele>680.5</ele>
        <time>2021-05-08T13:37:39Z</time>
      </trkpt>
      <trkpt lat="40.3549420" lon="-3.7993460">
        <ele>680.6</ele>
        <time>2021-05-08T13:37:40Z</time>
      </trkpt>
      <trkpt lat="40.3549090" lon="-3.7993050">
        <ele>680.6</ele>
        <time>2021-05-08T13:37:41Z</time>
      </trkpt>
      <trkpt lat="40.3548790" lon="-3.7992720">
        <ele>680.6</ele>
        <time>2021-05-08T13:37:42Z</time>
      </trkpt>
      <trkpt lat="40.3548420" lon="-3.7992310">
        <ele>680.7</ele>
        <time>2021-05-08T13:37:44Z</time>
      </trkpt>
      <trkpt lat="40.3548110" lon="-3.7991980">
        <ele>680.7</ele>
        <time>2021-05-08T13:37:45Z</time>
      </trkpt>
      <trkpt lat="40.3547820" lon="-3.7991640">
        <ele>680.7</ele>
        <time>2021-05-08T13:37:46Z</time>
      </trkpt>
      <trkpt lat="40.3547470" lon="-3.7991200">
        <ele>680.7</ele>
        <time>2021-05-08T13:37:47Z</time>
      </trkpt>
      <trkpt lat="40.3547150" lon="-3.7990710">
        <ele>680.8</ele>
        <time>2021-05-08T13:37:49Z</time>
      </trkpt>
      <trkpt lat="40.3546920" lon="-3.7990300">
        <ele>680.8</ele>
        <time>2021-05-08T13:37:50Z</time>
      </trkpt>
      <trkpt lat="40.3546640" lon="-3.7989790">
        <ele>680.8</ele>
        <time>2021-05-08T13:37:51Z</time>
      </trkpt>
      <trkpt lat="40.3546450" lon="-3.7989310">
        <ele>680.8</ele>
        <time>2021-05-08T13:37:52Z</time>
      </trkpt>
      <trkpt lat="40.3546230" lon="-3.7988630">
        <ele>680.8</ele>
        <time>2021-05-08T13:37:54Z</time>
      </trkpt>
      <trkpt lat="40.3545970" lon="-3.7987820">
        <ele>680.8</ele>
        <time>2021-05-08T13:37:56Z</time>
      </trkpt>
      <trkpt lat="40.3545790" lon="-3.7987410">
        <ele>680.8</ele>
        <time>2021-05-08T13:37:57Z</time>
      </trkpt>
      <trkpt lat="40.3545380" lon="-3.7986660">
        <ele>680.9</ele>
        <time>2021-05-08T13:37:59Z</time>
      </trkpt>
      <trkpt lat="40.3545090" lon="-3.7986020">
        <ele>680.9</ele>
        <time>2021-05-08T13:38:00Z</time>
      </trkpt>
      <trkpt lat="40.3544880" lon="-3.7985550">
        <ele>680.9</ele>
        <time>2021-05-08T13:38:02Z</time>
      </trkpt>
      <trkpt lat="40.3544690" lon="-3.7985030">
        <ele>680.9</ele>
        <time>2021-05-08T13:38:03Z</time>
      </trkpt>
      <trkpt lat="40.3544450" lon="-3.7984480">
        <ele>681.0</ele>
        <time>2021-05-08T13:38:04Z</time>
      </trkpt>
      <trkpt lat="40.3544130" lon="-3.7983670">
        <ele>681.0</ele>
        <time>2021-05-08T13:38:06Z</time>
      </trkpt>
      <trkpt lat="40.3543860" lon="-3.7983250">
        <ele>681.0</ele>
        <time>2021-05-08T13:38:07Z</time>
      </trkpt>
      <trkpt lat="40.3543610" lon="-3.7982790">
        <ele>681.0</ele>
        <time>2021-05-08T13:38:08Z</time>
      </trkpt>
      <trkpt lat="40.3543330" lon="-3.7982270">
        <ele>681.0</ele>
        <time>2021-05-08T13:38:09Z</time>
      </trkpt>
      <trkpt lat="40.3542990" lon="-3.7981550">
        <ele>681.1</ele>
        <time>2021-05-08T13:38:10Z</time>
      </trkpt>
      <trkpt lat="40.3542740" lon="-3.7981110">
        <ele>681.1</ele>
        <time>2021-05-08T13:38:12Z</time>
      </trkpt>
      <trkpt lat="40.3542520" lon="-3.7980680">
        <ele>681.1</ele>
        <time>2021-05-08T13:38:13Z</time>
      </trkpt>
      <trkpt lat="40.3542300" lon="-3.7980240">
        <ele>681.2</ele>
        <time>2021-05-08T13:38:14Z</time>
      </trkpt>
      <trkpt lat="40.3541960" lon="-3.7979690">
        <ele>681.2</ele>
        <time>2021-05-08T13:38:15Z</time>
      </trkpt>
      <trkpt lat="40.3541690" lon="-3.7979210">
        <ele>681.3</ele>
        <time>2021-05-08T13:38:17Z</time>
      </trkpt>
      <trkpt lat="40.3541320" lon="-3.7978760">
        <ele>681.3</ele>
        <time>2021-05-08T13:38:18Z</time>
      </trkpt>
      <trkpt lat="40.3540870" lon="-3.7978410">
        <ele>681.6</ele>
        <time>2021-05-08T13:38:19Z</time>
      </trkpt>
      <trkpt lat="40.3540480" lon="-3.7978370">
        <ele>681.7</ele>
        <time>2021-05-08T13:38:20Z</time>
      </trkpt>
      <trkpt lat="40.3540080" lon="-3.7978700">
        <ele>682.0</ele>
        <time>2021-05-08T13:38:22Z</time>
      </trkpt>
      <trkpt lat="40.3539940" lon="-3.7979040">
        <ele>682.1</ele>
        <time>2021-05-08T13:38:23Z</time>
      </trkpt>
      <trkpt lat="40.3539900" lon="-3.7979540">
        <ele>682.2</ele>
        <time>2021-05-08T13:38:25Z</time>
      </trkpt>
      <trkpt lat="40.3539860" lon="-3.7979670">
        <ele>682.3</ele>
        <time>2021-05-08T13:38:26Z</time>
      </trkpt>
      <trkpt lat="40.3539880" lon="-3.7979660">
        <ele>682.3</ele>
        <time>2021-05-08T13:38:27Z</time>
      </trkpt>
      <trkpt lat="40.3539860" lon="-3.7979680">
        <ele>682.3</ele>
        <time>2021-05-08T13:38:28Z</time>
      </trkpt>
      <trkpt lat="40.3539850" lon="-3.7979690">
        <ele>682.3</ele>
        <time>2021-05-08T13:38:29Z</time>
      </trkpt>
      <trkpt lat="40.3539850" lon="-3.7979670">
        <ele>682.3</ele>
        <time>2021-05-08T13:38:31Z</time>
      </trkpt>
      <trkpt lat="40.3539840" lon="-3.7979670">
        <ele>682.3</ele>
        <time>2021-05-08T13:38:32Z</time>
      </trkpt>
      <trkpt lat="40.3539840" lon="-3.7979670">
        <ele>682.3</ele>
        <time>2021-05-08T13:38:33Z</time>
      </trkpt>
      <trkpt lat="40.3539840" lon="-3.7979680">
        <ele>682.3</ele>
        <time>2021-05-08T13:38:34Z</time>
      </trkpt>
      <trkpt lat="40.3539850" lon="-3.7979690">
        <ele>682.3</ele>
        <time>2021-05-08T13:38:36Z</time>
      </trkpt>
      <trkpt lat="40.3539910" lon="-3.7979920">
        <ele>682.4</ele>
        <time>2021-05-08T13:38:40Z</time>
      </trkpt>
      <trkpt lat="40.3539870" lon="-3.7980420">
        <ele>682.5</ele>
        <time>2021-05-08T13:38:41Z</time>
      </trkpt>
      <trkpt lat="40.3539830" lon="-3.7980990">
        <ele>682.6</ele>
        <time>2021-05-08T13:38:43Z</time>
      </trkpt>
      <trkpt lat="40.3539750" lon="-3.7981780">
        <ele>682.6</ele>
        <time>2021-05-08T13:38:44Z</time>
      </trkpt>
      <trkpt lat="40.3539420" lon="-3.7983240">
        <ele>682.7</ele>
        <time>2021-05-08T13:38:46Z</time>
      </trkpt>
      <trkpt lat="40.3539160" lon="-3.7983770">
        <ele>682.7</ele>
        <time>2021-05-08T13:38:47Z</time>
      </trkpt>
      <trkpt lat="40.3538420" lon="-3.7984560">
        <ele>682.7</ele>
        <time>2021-05-08T13:38:49Z</time>
      </trkpt>
      <trkpt lat="40.3537900" lon="-3.7984770">
        <ele>682.7</ele>
        <time>2021-05-08T13:38:51Z</time>
      </trkpt>
      <trkpt lat="40.3537490" lon="-3.7984960">
        <ele>682.8</ele>
        <time>2021-05-08T13:38:52Z</time>
      </trkpt>
      <trkpt lat="40.3536720" lon="-3.7985300">
        <ele>682.9</ele>
        <time>2021-05-08T13:38:54Z</time>
      </trkpt>
      <trkpt lat="40.3536320" lon="-3.7985410">
        <ele>682.9</ele>
        <time>2021-05-08T13:38:55Z</time>
      </trkpt>
      <trkpt lat="40.3535540" lon="-3.7985700">
        <ele>683.0</ele>
        <time>2021-05-08T13:38:57Z</time>
      </trkpt>
      <trkpt lat="40.3535140" lon="-3.7985940">
        <ele>683.0</ele>
        <time>2021-05-08T13:38:58Z</time>
      </trkpt>
      <trkpt lat="40.3534740" lon="-3.7986280">
        <ele>683.1</ele>
        <time>2021-05-08T13:38:59Z</time>
      </trkpt>
      <trkpt lat="40.3534300" lon="-3.7986650">
        <ele>683.1</ele>
        <time>2021-05-08T13:39:00Z</time>
      </trkpt>
      <trkpt lat="40.3533800" lon="-3.7987140">
        <ele>683.3</ele>
        <time>2021-05-08T13:39:02Z</time>
      </trkpt>
      <trkpt lat="40.3533490" lon="-3.7987550">
        <ele>683.3</ele>
        <time>2021-05-08T13:39:03Z</time>
      </trkpt>
      <trkpt lat="40.3533280" lon="-3.7987960">
        <ele>683.4</ele>
        <time>2021-05-08T13:39:04Z</time>
      </trkpt>
      <trkpt lat="40.3533010" lon="-3.7988350">
        <ele>683.5</ele>
        <time>2021-05-08T13:39:05Z</time>
      </trkpt>
      <trkpt lat="40.3532590" lon="-3.7988930">
        <ele>683.7</ele>
        <time>2021-05-08T13:39:07Z</time>
      </trkpt>
      <trkpt lat="40.3532100" lon="-3.7989500">
        <ele>684.0</ele>
        <time>2021-05-08T13:39:09Z</time>
      </trkpt>
      <trkpt lat="40.3531630" lon="-3.7989990">
        <ele>684.3</ele>
        <time>2021-05-08T13:39:11Z</time>
      </trkpt>
      <trkpt lat="40.3531310" lon="-3.7990360">
        <ele>684.6</ele>
        <time>2021-05-08T13:39:12Z</time>
      </trkpt>
      <trkpt lat="40.3531030" lon="-3.7990670">
        <ele>684.9</ele>
        <time>2021-05-08T13:39:13Z</time>
      </trkpt>
      <trkpt lat="40.3530690" lon="-3.7990970">
        <ele>685.2</ele>
        <time>2021-05-08T13:39:14Z</time>
      </trkpt>
      <trkpt lat="40.3530420" lon="-3.7991250">
        <ele>685.4</ele>
        <time>2021-05-08T13:39:15Z</time>
      </trkpt>
      <trkpt lat="40.3530020" lon="-3.7991730">
        <ele>685.8</ele>
        <time>2021-05-08T13:39:17Z</time>
      </trkpt>
      <trkpt lat="40.3529730" lon="-3.7992050">
        <ele>686.0</ele>
        <time>2021-05-08T13:39:18Z</time>
      </trkpt>
      <trkpt lat="40.3529500" lon="-3.7992310">
        <ele>686.2</ele>
        <time>2021-05-08T13:39:19Z</time>
      </trkpt>
      <trkpt lat="40.3529010" lon="-3.7992830">
        <ele>686.7</ele>
        <time>2021-05-08T13:39:21Z</time>
      </trkpt>
      <trkpt lat="40.3528490" lon="-3.7993310">
        <ele>687.1</ele>
        <time>2021-05-08T13:39:23Z</time>
      </trkpt>
      <trkpt lat="40.3528160" lon="-3.7993680">
        <ele>687.3</ele>
        <time>2021-05-08T13:39:24Z</time>
      </trkpt>
      <trkpt lat="40.3527740" lon="-3.7994080">
        <ele>687.6</ele>
        <time>2021-05-08T13:39:25Z</time>
      </trkpt>
      <trkpt lat="40.3527450" lon="-3.7994320">
        <ele>687.8</ele>
        <time>2021-05-08T13:39:27Z</time>
      </trkpt>
      <trkpt lat="40.3527130" lon="-3.7994580">
        <ele>688.1</ele>
        <time>2021-05-08T13:39:28Z</time>
      </trkpt>
      <trkpt lat="40.3526700" lon="-3.7995060">
        <ele>688.4</ele>
        <time>2021-05-08T13:39:30Z</time>
      </trkpt>
      <trkpt lat="40.3526430" lon="-3.7995270">
        <ele>688.5</ele>
        <time>2021-05-08T13:39:31Z</time>
      </trkpt>
      <trkpt lat="40.3526020" lon="-3.7995700">
        <ele>688.8</ele>
        <time>2021-05-08T13:39:33Z</time>
      </trkpt>
      <trkpt lat="40.3525880" lon="-3.7995830">
        <ele>688.9</ele>
        <time>2021-05-08T13:39:34Z</time>
      </trkpt>
      <trkpt lat="40.3525730" lon="-3.7995960">
        <ele>689.0</ele>
        <time>2021-05-08T13:39:35Z</time>
      </trkpt>
      <trkpt lat="40.3525430" lon="-3.7996260">
        <ele>689.2</ele>
        <time>2021-05-08T13:39:37Z</time>
      </trkpt>
      <trkpt lat="40.3525310" lon="-3.7996370">
        <ele>689.3</ele>
        <time>2021-05-08T13:39:38Z</time>
      </trkpt>
      <trkpt lat="40.3524980" lon="-3.7996770">
        <ele>689.6</ele>
        <time>2021-05-08T13:39:40Z</time>
      </trkpt>
      <trkpt lat="40.3524780" lon="-3.7997020">
        <ele>689.7</ele>
        <time>2021-05-08T13:39:41Z</time>
      </trkpt>
      <trkpt lat="40.3524460" lon="-3.7997390">
        <ele>689.9</ele>
        <time>2021-05-08T13:39:42Z</time>
      </trkpt>
      <trkpt lat="40.3524130" lon="-3.7997720">
        <ele>690.1</ele>
        <time>2021-05-08T13:39:44Z</time>
      </trkpt>
      <trkpt lat="40.3523820" lon="-3.7998030">
        <ele>690.3</ele>
        <time>2021-05-08T13:39:45Z</time>
      </trkpt>
      <trkpt lat="40.3523410" lon="-3.7998500">
        <ele>690.6</ele>
        <time>2021-05-08T13:39:47Z</time>
      </trkpt>
      <trkpt lat="40.3523170" lon="-3.7998770">
        <ele>690.7</ele>
        <time>2021-05-08T13:39:48Z</time>
      </trkpt>
      <trkpt lat="40.3522940" lon="-3.7998990">
        <ele>690.8</ele>
        <time>2021-05-08T13:39:49Z</time>
      </trkpt>
      <trkpt lat="40.3522560" lon="-3.7999360">
        <ele>691.1</ele>
        <time>2021-05-08T13:39:50Z</time>
      </trkpt>
      <trkpt lat="40.3522300" lon="-3.7999640">
        <ele>691.2</ele>
        <time>2021-05-08T13:39:52Z</time>
      </trkpt>
      <trkpt lat="40.3521920" lon="-3.8000110">
        <ele>691.5</ele>
        <time>2021-05-08T13:39:54Z</time>
      </trkpt>
      <trkpt lat="40.3521710" lon="-3.8000390">
        <ele>691.6</ele>
        <time>2021-05-08T13:39:55Z</time>
      </trkpt>
      <trkpt lat="40.3521360" lon="-3.8000730">
        <ele>691.8</ele>
        <time>2021-05-08T13:39:57Z</time>
      </trkpt>
      <trkpt lat="40.3521100" lon="-3.8000990">
        <ele>692.0</ele>
        <time>2021-05-08T13:39:58Z</time>
      </trkpt>
      <trkpt lat="40.3520770" lon="-3.8001370">
        <ele>692.2</ele>
        <time>2021-05-08T13:39:59Z</time>
      </trkpt>
      <trkpt lat="40.3520460" lon="-3.8001730">
        <ele>692.4</ele>
        <time>2021-05-08T13:40:01Z</time>
      </trkpt>
      <trkpt lat="40.3520170" lon="-3.8002050">
        <ele>692.6</ele>
        <time>2021-05-08T13:40:02Z</time>
      </trkpt>
      <trkpt lat="40.3519900" lon="-3.8002360">
        <ele>692.8</ele>
        <time>2021-05-08T13:40:04Z</time>
      </trkpt>
      <trkpt lat="40.3519680" lon="-3.8002610">
        <ele>692.9</ele>
        <time>2021-05-08T13:40:05Z</time>
      </trkpt>
      <trkpt lat="40.3519450" lon="-3.8002840">
        <ele>693.1</ele>
        <time>2021-05-08T13:40:06Z</time>
      </trkpt>
      <trkpt lat="40.3519210" lon="-3.8003050">
        <ele>693.2</ele>
        <time>2021-05-08T13:40:07Z</time>
      </trkpt>
      <trkpt lat="40.3518980" lon="-3.8003290">
        <ele>693.3</ele>
        <time>2021-05-08T13:40:08Z</time>
      </trkpt>
      <trkpt lat="40.3518660" lon="-3.8003620">
        <ele>693.5</ele>
        <time>2021-05-08T13:40:10Z</time>
      </trkpt>
      <trkpt lat="40.3518320" lon="-3.8004030">
        <ele>693.7</ele>
        <time>2021-05-08T13:40:12Z</time>
      </trkpt>
      <trkpt lat="40.3517940" lon="-3.8004360">
        <ele>693.9</ele>
        <time>2021-05-08T13:40:13Z</time>
      </trkpt>
      <trkpt lat="40.3517770" lon="-3.8004520">
        <ele>694.0</ele>
        <time>2021-05-08T13:40:14Z</time>
      </trkpt>
      <trkpt lat="40.3517480" lon="-3.8004840">
        <ele>694.2</ele>
        <time>2021-05-08T13:40:16Z</time>
      </trkpt>
      <trkpt lat="40.3517120" lon="-3.8005210">
        <ele>694.4</ele>
        <time>2021-05-08T13:40:17Z</time>
      </trkpt>
      <trkpt lat="40.3516840" lon="-3.8005500">
        <ele>694.5</ele>
        <time>2021-05-08T13:40:19Z</time>
      </trkpt>
      <trkpt lat="40.3516400" lon="-3.8005850">
        <ele>694.7</ele>
        <time>2021-05-08T13:40:21Z</time>
      </trkpt>
      <trkpt lat="40.3516170" lon="-3.8006100">
        <ele>694.8</ele>
        <time>2021-05-08T13:40:22Z</time>
      </trkpt>
      <trkpt lat="40.3515950" lon="-3.8006340">
        <ele>694.9</ele>
        <time>2021-05-08T13:40:23Z</time>
      </trkpt>
      <trkpt lat="40.3515660" lon="-3.8006630">
        <ele>695.1</ele>
        <time>2021-05-08T13:40:24Z</time>
      </trkpt>
      <trkpt lat="40.3515450" lon="-3.8006820">
        <ele>695.1</ele>
        <time>2021-05-08T13:40:25Z</time>
      </trkpt>
      <trkpt lat="40.3515180" lon="-3.8007080">
        <ele>695.3</ele>
        <time>2021-05-08T13:40:27Z</time>
      </trkpt>
      <trkpt lat="40.3514900" lon="-3.8007360">
        <ele>695.4</ele>
        <time>2021-05-08T13:40:28Z</time>
      </trkpt>
      <trkpt lat="40.3514680" lon="-3.8007580">
        <ele>695.5</ele>
        <time>2021-05-08T13:40:29Z</time>
      </trkpt>
      <trkpt lat="40.3514410" lon="-3.8007840">
        <ele>695.6</ele>
        <time>2021-05-08T13:40:30Z</time>
      </trkpt>
      <trkpt lat="40.3514170" lon="-3.8008070">
        <ele>695.7</ele>
        <time>2021-05-08T13:40:32Z</time>
      </trkpt>
      <trkpt lat="40.3513880" lon="-3.8008360">
        <ele>695.8</ele>
        <time>2021-05-08T13:40:33Z</time>
      </trkpt>
      <trkpt lat="40.3513480" lon="-3.8008840">
        <ele>695.9</ele>
        <time>2021-05-08T13:40:35Z</time>
      </trkpt>
      <trkpt lat="40.3513040" lon="-3.8009080">
        <ele>696.0</ele>
        <time>2021-05-08T13:40:37Z</time>
      </trkpt>
      <trkpt lat="40.3512790" lon="-3.8009310">
        <ele>696.0</ele>
        <time>2021-05-08T13:40:38Z</time>
      </trkpt>
      <trkpt lat="40.3512540" lon="-3.8009500">
        <ele>696.1</ele>
        <time>2021-05-08T13:40:39Z</time>
      </trkpt>
      <trkpt lat="40.3512300" lon="-3.8009750">
        <ele>696.1</ele>
        <time>2021-05-08T13:40:40Z</time>
      </trkpt>
      <trkpt lat="40.3511970" lon="-3.8010090">
        <ele>696.2</ele>
        <time>2021-05-08T13:40:41Z</time>
      </trkpt>
      <trkpt lat="40.3511650" lon="-3.8010390">
        <ele>696.2</ele>
        <time>2021-05-08T13:40:43Z</time>
      </trkpt>
      <trkpt lat="40.3511450" lon="-3.8010650">
        <ele>696.2</ele>
        <time>2021-05-08T13:40:44Z</time>
      </trkpt>
      <trkpt lat="40.3511260" lon="-3.8010900">
        <ele>696.3</ele>
        <time>2021-05-08T13:40:45Z</time>
      </trkpt>
      <trkpt lat="40.3510930" lon="-3.8011240">
        <ele>696.3</ele>
        <time>2021-05-08T13:40:47Z</time>
      </trkpt>
      <trkpt lat="40.3510750" lon="-3.8011680">
        <ele>696.3</ele>
        <time>2021-05-08T13:40:49Z</time>
      </trkpt>
      <trkpt lat="40.3510490" lon="-3.8011860">
        <ele>696.3</ele>
        <time>2021-05-08T13:40:50Z</time>
      </trkpt>
      <trkpt lat="40.3510120" lon="-3.8012190">
        <ele>696.3</ele>
        <time>2021-05-08T13:40:51Z</time>
      </trkpt>
      <trkpt lat="40.3509840" lon="-3.8012480">
        <ele>696.3</ele>
        <time>2021-05-08T13:40:52Z</time>
      </trkpt>
      <trkpt lat="40.3509450" lon="-3.8012830">
        <ele>696.3</ele>
        <time>2021-05-08T13:40:54Z</time>
      </trkpt>
      <trkpt lat="40.3509130" lon="-3.8013130">
        <ele>696.3</ele>
        <time>2021-05-08T13:40:55Z</time>
      </trkpt>
      <trkpt lat="40.3508730" lon="-3.8013470">
        <ele>696.3</ele>
        <time>2021-05-08T13:40:56Z</time>
      </trkpt>
      <trkpt lat="40.3508330" lon="-3.8013880">
        <ele>696.3</ele>
        <time>2021-05-08T13:40:58Z</time>
      </trkpt>
      <trkpt lat="40.3507870" lon="-3.8014370">
        <ele>696.3</ele>
        <time>2021-05-08T13:41:00Z</time>
      </trkpt>
      <trkpt lat="40.3507630" lon="-3.8014650">
        <ele>696.3</ele>
        <time>2021-05-08T13:41:01Z</time>
      </trkpt>
      <trkpt lat="40.3507090" lon="-3.8015160">
        <ele>696.3</ele>
        <time>2021-05-08T13:41:03Z</time>
      </trkpt>
      <trkpt lat="40.3506850" lon="-3.8015460">
        <ele>696.3</ele>
        <time>2021-05-08T13:41:04Z</time>
      </trkpt>
      <trkpt lat="40.3506380" lon="-3.8016010">
        <ele>696.3</ele>
        <time>2021-05-08T13:41:06Z</time>
      </trkpt>
      <trkpt lat="40.3506160" lon="-3.8016310">
        <ele>696.3</ele>
        <time>2021-05-08T13:41:07Z</time>
      </trkpt>
      <trkpt lat="40.3505820" lon="-3.8016900">
        <ele>696.3</ele>
        <time>2021-05-08T13:41:08Z</time>
      </trkpt>
      <trkpt lat="40.3505550" lon="-3.8017350">
        <ele>696.3</ele>
        <time>2021-05-08T13:41:10Z</time>
      </trkpt>
      <trkpt lat="40.3505170" lon="-3.8017560">
        <ele>696.3</ele>
        <time>2021-05-08T13:41:11Z</time>
      </trkpt>
      <trkpt lat="40.3504860" lon="-3.8017840">
        <ele>696.3</ele>
        <time>2021-05-08T13:41:12Z</time>
      </trkpt>
      <trkpt lat="40.3504410" lon="-3.8018290">
        <ele>696.3</ele>
        <time>2021-05-08T13:41:13Z</time>
      </trkpt>
      <trkpt lat="40.3503830" lon="-3.8018990">
        <ele>696.2</ele>
        <time>2021-05-08T13:41:15Z</time>
      </trkpt>
      <trkpt lat="40.3503370" lon="-3.8019480">
        <ele>696.2</ele>
        <time>2021-05-08T13:41:16Z</time>
      </trkpt>
      <trkpt lat="40.3502940" lon="-3.8019850">
        <ele>696.1</ele>
        <time>2021-05-08T13:41:18Z</time>
      </trkpt>
      <trkpt lat="40.3502510" lon="-3.8020250">
        <ele>696.1</ele>
        <time>2021-05-08T13:41:19Z</time>
      </trkpt>
      <trkpt lat="40.3502190" lon="-3.8020570">
        <ele>696.0</ele>
        <time>2021-05-08T13:41:20Z</time>
      </trkpt>
      <trkpt lat="40.3501770" lon="-3.8021080">
        <ele>696.0</ele>
        <time>2021-05-08T13:41:22Z</time>
      </trkpt>
      <trkpt lat="40.3501260" lon="-3.8021540">
        <ele>695.9</ele>
        <time>2021-05-08T13:41:23Z</time>
      </trkpt>
      <trkpt lat="40.3500750" lon="-3.8022020">
        <ele>695.9</ele>
        <time>2021-05-08T13:41:25Z</time>
      </trkpt>
      <trkpt lat="40.3500050" lon="-3.8022780">
        <ele>695.8</ele>
        <time>2021-05-08T13:41:27Z</time>
      </trkpt>
      <trkpt lat="40.3499560" lon="-3.8023300">
        <ele>695.8</ele>
        <time>2021-05-08T13:41:28Z</time>
      </trkpt>
      <trkpt lat="40.3499090" lon="-3.8023780">
        <ele>695.7</ele>
        <time>2021-05-08T13:41:30Z</time>
      </trkpt>
      <trkpt lat="40.3498530" lon="-3.8024340">
        <ele>695.6</ele>
        <time>2021-05-08T13:41:32Z</time>
      </trkpt>
      <trkpt lat="40.3498150" lon="-3.8024730">
        <ele>695.6</ele>
        <time>2021-05-08T13:41:33Z</time>
      </trkpt>
      <trkpt lat="40.3497740" lon="-3.8025160">
        <ele>695.5</ele>
        <time>2021-05-08T13:41:34Z</time>
      </trkpt>
      <trkpt lat="40.3497380" lon="-3.8025860">
        <ele>695.5</ele>
        <time>2021-05-08T13:41:35Z</time>
      </trkpt>
      <trkpt lat="40.3496990" lon="-3.8026260">
        <ele>695.4</ele>
        <time>2021-05-08T13:41:36Z</time>
      </trkpt>
      <trkpt lat="40.3496510" lon="-3.8026760">
        <ele>695.4</ele>
        <time>2021-05-08T13:41:38Z</time>
      </trkpt>
      <trkpt lat="40.3496120" lon="-3.8027020">
        <ele>695.3</ele>
        <time>2021-05-08T13:41:39Z</time>
      </trkpt>
      <trkpt lat="40.3495700" lon="-3.8027150">
        <ele>695.3</ele>
        <time>2021-05-08T13:41:41Z</time>
      </trkpt>
      <trkpt lat="40.3495430" lon="-3.8026890">
        <ele>695.3</ele>
        <time>2021-05-08T13:41:42Z</time>
      </trkpt>
      <trkpt lat="40.3495370" lon="-3.8026790">
        <ele>695.3</ele>
        <time>2021-05-08T13:41:43Z</time>
      </trkpt>
      <trkpt lat="40.3495270" lon="-3.8026370">
        <ele>695.2</ele>
        <time>2021-05-08T13:41:44Z</time>
      </trkpt>
      <trkpt lat="40.3495150" lon="-3.8025980">
        <ele>695.2</ele>
        <time>2021-05-08T13:41:46Z</time>
      </trkpt>
      <trkpt lat="40.3495080" lon="-3.8025750">
        <ele>695.2</ele>
        <time>2021-05-08T13:41:47Z</time>
      </trkpt>
      <trkpt lat="40.3494820" lon="-3.8025590">
        <ele>695.2</ele>
        <time>2021-05-08T13:41:49Z</time>
      </trkpt>
      <trkpt lat="40.3494560" lon="-3.8025830">
        <ele>695.2</ele>
        <time>2021-05-08T13:41:50Z</time>
      </trkpt>
      <trkpt lat="40.3494480" lon="-3.8025900">
        <ele>695.2</ele>
        <time>2021-05-08T13:41:51Z</time>
      </trkpt>
      <trkpt lat="40.3494320" lon="-3.8025950">
        <ele>695.2</ele>
        <time>2021-05-08T13:41:52Z</time>
      </trkpt>
      <trkpt lat="40.3494080" lon="-3.8026060">
        <ele>695.1</ele>
        <time>2021-05-08T13:41:54Z</time>
      </trkpt>
      <trkpt lat="40.3493800" lon="-3.8026320">
        <ele>695.1</ele>
        <time>2021-05-08T13:41:55Z</time>
      </trkpt>
      <trkpt lat="40.3493580" lon="-3.8026580">
        <ele>695.1</ele>
        <time>2021-05-08T13:41:57Z</time>
      </trkpt>
      <trkpt lat="40.3493370" lon="-3.8026840">
        <ele>695.0</ele>
        <time>2021-05-08T13:41:58Z</time>
      </trkpt>
      <trkpt lat="40.3492980" lon="-3.8026980">
        <ele>695.0</ele>
        <time>2021-05-08T13:41:59Z</time>
      </trkpt>
      <trkpt lat="40.3492710" lon="-3.8026950">
        <ele>695.0</ele>
        <time>2021-05-08T13:42:01Z</time>
      </trkpt>
      <trkpt lat="40.3492700" lon="-3.8026870">
        <ele>695.0</ele>
        <time>2021-05-08T13:42:02Z</time>
      </trkpt>
      <trkpt lat="40.3492750" lon="-3.8026790">
        <ele>695.0</ele>
        <time>2021-05-08T13:42:03Z</time>
      </trkpt>
      <trkpt lat="40.3492800" lon="-3.8026750">
        <ele>695.0</ele>
        <time>2021-05-08T13:42:04Z</time>
      </trkpt>
      <trkpt lat="40.3492850" lon="-3.8026710">
        <ele>694.9</ele>
        <time>2021-05-08T13:42:05Z</time>
      </trkpt>
      <trkpt lat="40.3493430" lon="-3.8027050">
        <ele>694.9</ele>
        <time>2021-05-08T16:46:41Z</time>
      </trkpt>
      <trkpt lat="40.3493480" lon="-3.8027040">
        <ele>694.9</ele>
        <time>2021-05-08T16:46:43Z</time>
      </trkpt>
      <trkpt lat="40.3493520" lon="-3.8027030">
        <ele>694.9</ele>
        <time>2021-05-08T16:46:44Z</time>
      </trkpt>
      <trkpt lat="40.3493570" lon="-3.8027020">
        <ele>694.9</ele>
        <time>2021-05-08T16:46:45Z</time>
      </trkpt>
      <trkpt lat="40.3493620" lon="-3.8027010">
        <ele>694.9</ele>
        <time>2021-05-08T16:46:46Z</time>
      </trkpt>
      <trkpt lat="40.3493660" lon="-3.8027000">
        <ele>694.9</ele>
        <time>2021-05-08T16:46:48Z</time>
      </trkpt>
      <trkpt lat="40.3493710" lon="-3.8026990">
        <ele>694.9</ele>
        <time>2021-05-08T16:46:49Z</time>
      </trkpt>
      <trkpt lat="40.3493760" lon="-3.8026980">
        <ele>694.9</ele>
        <time>2021-05-08T16:46:50Z</time>
      </trkpt>
      <trkpt lat="40.3493800" lon="-3.8026960">
        <ele>694.9</ele>
        <time>2021-05-08T16:46:51Z</time>
      </trkpt>
      <trkpt lat="40.3493850" lon="-3.8026950">
        <ele>694.9</ele>
        <time>2021-05-08T16:46:53Z</time>
      </trkpt>
      <trkpt lat="40.3493890" lon="-3.8026940">
        <ele>694.9</ele>
        <time>2021-05-08T16:46:54Z</time>
      </trkpt>
      <trkpt lat="40.3493940" lon="-3.8026930">
        <ele>695.0</ele>
        <time>2021-05-08T16:46:56Z</time>
      </trkpt>
      <trkpt lat="40.3493990" lon="-3.8026920">
        <ele>695.0</ele>
        <time>2021-05-08T16:46:58Z</time>
      </trkpt>
      <trkpt lat="40.3494030" lon="-3.8026910">
        <ele>695.0</ele>
        <time>2021-05-08T16:47:00Z</time>
      </trkpt>
      <trkpt lat="40.3494080" lon="-3.8026900">
        <ele>695.0</ele>
        <time>2021-05-08T16:47:01Z</time>
      </trkpt>
      <trkpt lat="40.3494130" lon="-3.8026890">
        <ele>695.0</ele>
        <time>2021-05-08T16:47:26Z</time>
      </trkpt>
      <trkpt lat="40.3494170" lon="-3.8026880">
        <ele>695.0</ele>
        <time>2021-05-08T16:47:28Z</time>
      </trkpt>
      <trkpt lat="40.3494220" lon="-3.8026870">
        <ele>695.0</ele>
        <time>2021-05-08T16:47:30Z</time>
      </trkpt>
      <trkpt lat="40.3494270" lon="-3.8026860">
        <ele>695.0</ele>
        <time>2021-05-08T16:47:31Z</time>
      </trkpt>
      <trkpt lat="40.3494310" lon="-3.8026850">
        <ele>695.0</ele>
        <time>2021-05-08T16:47:33Z</time>
      </trkpt>
      <trkpt lat="40.3494360" lon="-3.8026840">
        <ele>695.0</ele>
        <time>2021-05-08T16:47:35Z</time>
      </trkpt>
      <trkpt lat="40.3494410" lon="-3.8026830">
        <ele>695.0</ele>
        <time>2021-05-08T16:47:36Z</time>
      </trkpt>
      <trkpt lat="40.3494450" lon="-3.8026810">
        <ele>695.0</ele>
        <time>2021-05-08T16:47:37Z</time>
      </trkpt>
      <trkpt lat="40.3494500" lon="-3.8026800">
        <ele>695.0</ele>
        <time>2021-05-08T16:47:39Z</time>
      </trkpt>
      <trkpt lat="40.3494540" lon="-3.8026790">
        <ele>695.1</ele>
        <time>2021-05-08T16:47:46Z</time>
      </trkpt>
      <trkpt lat="40.3494590" lon="-3.8026780">
        <ele>695.1</ele>
        <time>2021-05-08T16:47:47Z</time>
      </trkpt>
      <trkpt lat="40.3494640" lon="-3.8026770">
        <ele>695.1</ele>
        <time>2021-05-08T16:47:48Z</time>
      </trkpt>
      <trkpt lat="40.3494680" lon="-3.8026760">
        <ele>695.1</ele>
        <time>2021-05-08T16:47:49Z</time>
      </trkpt>
      <trkpt lat="40.3494730" lon="-3.8026750">
        <ele>695.1</ele>
        <time>2021-05-08T16:47:50Z</time>
      </trkpt>
      <trkpt lat="40.3495020" lon="-3.8026640">
        <ele>695.1</ele>
        <time>2021-05-08T16:47:52Z</time>
      </trkpt>
      <trkpt lat="40.3495090" lon="-3.8026610">
        <ele>695.1</ele>
        <time>2021-05-08T16:47:53Z</time>
      </trkpt>
      <trkpt lat="40.3495280" lon="-3.8026680">
        <ele>695.2</ele>
        <time>2021-05-08T16:47:54Z</time>
      </trkpt>
      <trkpt lat="40.3495390" lon="-3.8026730">
        <ele>695.2</ele>
        <time>2021-05-08T16:47:56Z</time>
      </trkpt>
      <trkpt lat="40.3495460" lon="-3.8026640">
        <ele>695.2</ele>
        <time>2021-05-08T16:47:57Z</time>
      </trkpt>
      <trkpt lat="40.3495570" lon="-3.8026430">
        <ele>695.2</ele>
        <time>2021-05-08T16:47:58Z</time>
      </trkpt>
      <trkpt lat="40.3495770" lon="-3.8026190">
        <ele>695.3</ele>
        <time>2021-05-08T16:47:59Z</time>
      </trkpt>
      <trkpt lat="40.3496050" lon="-3.8025910">
        <ele>695.3</ele>
        <time>2021-05-08T16:48:01Z</time>
      </trkpt>
      <trkpt lat="40.3496420" lon="-3.8025570">
        <ele>695.4</ele>
        <time>2021-05-08T16:48:02Z</time>
      </trkpt>
      <trkpt lat="40.3496570" lon="-3.8025440">
        <ele>695.5</ele>
        <time>2021-05-08T16:48:03Z</time>
      </trkpt>
      <trkpt lat="40.3496820" lon="-3.8025170">
        <ele>695.5</ele>
        <time>2021-05-08T16:48:04Z</time>
      </trkpt>
      <trkpt lat="40.3497050" lon="-3.8025080">
        <ele>695.6</ele>
        <time>2021-05-08T16:48:06Z</time>
      </trkpt>
      <trkpt lat="40.3497270" lon="-3.8024950">
        <ele>695.6</ele>
        <time>2021-05-08T16:48:08Z</time>
      </trkpt>
      <trkpt lat="40.3497550" lon="-3.8024730">
        <ele>695.7</ele>
        <time>2021-05-08T16:48:09Z</time>
      </trkpt>
      <trkpt lat="40.3497880" lon="-3.8024400">
        <ele>695.7</ele>
        <time>2021-05-08T16:48:10Z</time>
      </trkpt>
      <trkpt lat="40.3498250" lon="-3.8023970">
        <ele>695.8</ele>
        <time>2021-05-08T16:48:11Z</time>
      </trkpt>
      <trkpt lat="40.3498590" lon="-3.8023610">
        <ele>695.8</ele>
        <time>2021-05-08T16:48:12Z</time>
      </trkpt>
      <trkpt lat="40.3499000" lon="-3.8023200">
        <ele>695.9</ele>
        <time>2021-05-08T16:48:14Z</time>
      </trkpt>
      <trkpt lat="40.3499430" lon="-3.8022750">
        <ele>696.0</ele>
        <time>2021-05-08T16:48:15Z</time>
      </trkpt>
      <trkpt lat="40.3499910" lon="-3.8022200">
        <ele>696.1</ele>
        <time>2021-05-08T16:48:16Z</time>
      </trkpt>
      <trkpt lat="40.3500370" lon="-3.8021670">
        <ele>696.2</ele>
        <time>2021-05-08T16:48:18Z</time>
      </trkpt>
      <trkpt lat="40.3500820" lon="-3.8021230">
        <ele>696.3</ele>
        <time>2021-05-08T16:48:19Z</time>
      </trkpt>
      <trkpt lat="40.3501180" lon="-3.8020910">
        <ele>696.3</ele>
        <time>2021-05-08T16:48:20Z</time>
      </trkpt>
      <trkpt lat="40.3501480" lon="-3.8020600">
        <ele>696.4</ele>
        <time>2021-05-08T16:48:21Z</time>
      </trkpt>
      <trkpt lat="40.3501880" lon="-3.8020240">
        <ele>696.4</ele>
        <time>2021-05-08T16:48:23Z</time>
      </trkpt>
      <trkpt lat="40.3502180" lon="-3.8019950">
        <ele>696.5</ele>
        <time>2021-05-08T16:48:24Z</time>
      </trkpt>
      <trkpt lat="40.3502730" lon="-3.8019460">
        <ele>696.6</ele>
        <time>2021-05-08T16:48:25Z</time>
      </trkpt>
      <trkpt lat="40.3503060" lon="-3.8019160">
        <ele>696.6</ele>
        <time>2021-05-08T16:48:27Z</time>
      </trkpt>
      <trkpt lat="40.3503410" lon="-3.8018810">
        <ele>696.7</ele>
        <time>2021-05-08T16:48:28Z</time>
      </trkpt>
      <trkpt lat="40.3503720" lon="-3.8018460">
        <ele>696.7</ele>
        <time>2021-05-08T16:48:29Z</time>
      </trkpt>
      <trkpt lat="40.3504130" lon="-3.8018020">
        <ele>696.8</ele>
        <time>2021-05-08T16:48:30Z</time>
      </trkpt>
      <trkpt lat="40.3504560" lon="-3.8017520">
        <ele>696.9</ele>
        <time>2021-05-08T16:48:31Z</time>
      </trkpt>
      <trkpt lat="40.3504840" lon="-3.8017160">
        <ele>696.9</ele>
        <time>2021-05-08T16:48:33Z</time>
      </trkpt>
      <trkpt lat="40.3505420" lon="-3.8016580">
        <ele>696.9</ele>
        <time>2021-05-08T16:48:34Z</time>
      </trkpt>
      <trkpt lat="40.3505800" lon="-3.8016250">
        <ele>697.0</ele>
        <time>2021-05-08T16:48:35Z</time>
      </trkpt>
      <trkpt lat="40.3506370" lon="-3.8015800">
        <ele>697.0</ele>
        <time>2021-05-08T16:48:37Z</time>
      </trkpt>
      <trkpt lat="40.3506640" lon="-3.8015580">
        <ele>697.1</ele>
        <time>2021-05-08T16:48:38Z</time>
      </trkpt>
      <trkpt lat="40.3507070" lon="-3.8015070">
        <ele>697.1</ele>
        <time>2021-05-08T16:48:40Z</time>
      </trkpt>
      <trkpt lat="40.3507590" lon="-3.8014510">
        <ele>697.2</ele>
        <time>2021-05-08T16:48:41Z</time>
      </trkpt>
      <trkpt lat="40.3508110" lon="-3.8013990">
        <ele>697.2</ele>
        <time>2021-05-08T16:48:43Z</time>
      </trkpt>
      <trkpt lat="40.3508580" lon="-3.8013520">
        <ele>697.2</ele>
        <time>2021-05-08T16:48:44Z</time>
      </trkpt>
      <trkpt lat="40.3508990" lon="-3.8013040">
        <ele>697.3</ele>
        <time>2021-05-08T16:48:46Z</time>
      </trkpt>
      <trkpt lat="40.3509550" lon="-3.8012480">
        <ele>697.3</ele>
        <time>2021-05-08T16:48:47Z</time>
      </trkpt>
      <trkpt lat="40.3509980" lon="-3.8012020">
        <ele>697.4</ele>
        <time>2021-05-08T16:48:48Z</time>
      </trkpt>
      <trkpt lat="40.3510360" lon="-3.8011630">
        <ele>697.4</ele>
        <time>2021-05-08T16:48:50Z</time>
      </trkpt>
      <trkpt lat="40.3510710" lon="-3.8011350">
        <ele>697.4</ele>
        <time>2021-05-08T16:48:51Z</time>
      </trkpt>
      <trkpt lat="40.3511380" lon="-3.8010790">
        <ele>697.5</ele>
        <time>2021-05-08T16:48:52Z</time>
      </trkpt>
      <trkpt lat="40.3511740" lon="-3.8010480">
        <ele>697.5</ele>
        <time>2021-05-08T16:48:54Z</time>
      </trkpt>
      <trkpt lat="40.3512200" lon="-3.8009930">
        <ele>697.5</ele>
        <time>2021-05-08T16:48:55Z</time>
      </trkpt>
      <trkpt lat="40.3512610" lon="-3.8009410">
        <ele>697.4</ele>
        <time>2021-05-08T16:48:56Z</time>
      </trkpt>
      <trkpt lat="40.3513060" lon="-3.8008940">
        <ele>697.4</ele>
        <time>2021-05-08T16:48:58Z</time>
      </trkpt>
      <trkpt lat="40.3513480" lon="-3.8008640">
        <ele>697.3</ele>
        <time>2021-05-08T16:48:59Z</time>
      </trkpt>
      <trkpt lat="40.3513840" lon="-3.8008320">
        <ele>697.3</ele>
        <time>2021-05-08T16:49:01Z</time>
      </trkpt>
      <trkpt lat="40.3514370" lon="-3.8007740">
        <ele>697.1</ele>
        <time>2021-05-08T16:49:02Z</time>
      </trkpt>
      <trkpt lat="40.3514850" lon="-3.8007170">
        <ele>697.0</ele>
        <time>2021-05-08T16:49:04Z</time>
      </trkpt>
      <trkpt lat="40.3515320" lon="-3.8006710">
        <ele>696.8</ele>
        <time>2021-05-08T16:49:05Z</time>
      </trkpt>
      <trkpt lat="40.3515650" lon="-3.8006290">
        <ele>696.7</ele>
        <time>2021-05-08T16:49:07Z</time>
      </trkpt>
      <trkpt lat="40.3516120" lon="-3.8005730">
        <ele>696.5</ele>
        <time>2021-05-08T16:49:08Z</time>
      </trkpt>
      <trkpt lat="40.3516440" lon="-3.8005400">
        <ele>696.4</ele>
        <time>2021-05-08T16:49:10Z</time>
      </trkpt>
      <trkpt lat="40.3516820" lon="-3.8004970">
        <ele>696.2</ele>
        <time>2021-05-08T16:49:11Z</time>
      </trkpt>
      <trkpt lat="40.3517120" lon="-3.8004590">
        <ele>696.0</ele>
        <time>2021-05-08T16:49:13Z</time>
      </trkpt>
      <trkpt lat="40.3517280" lon="-3.8004320">
        <ele>695.9</ele>
        <time>2021-05-08T16:49:14Z</time>
      </trkpt>
      <trkpt lat="40.3517620" lon="-3.8003860">
        <ele>695.8</ele>
        <time>2021-05-08T16:49:16Z</time>
      </trkpt>
      <trkpt lat="40.3517940" lon="-3.8003600">
        <ele>695.6</ele>
        <time>2021-05-08T16:49:17Z</time>
      </trkpt>
      <trkpt lat="40.3518060" lon="-3.8003450">
        <ele>695.5</ele>
        <time>2021-05-08T16:49:18Z</time>
      </trkpt>
      <trkpt lat="40.3518170" lon="-3.8003300">
        <ele>695.5</ele>
        <time>2021-05-08T16:49:20Z</time>
      </trkpt>
      <trkpt lat="40.3518270" lon="-3.8003190">
        <ele>695.4</ele>
        <time>2021-05-08T16:49:21Z</time>
      </trkpt>
      <trkpt lat="40.3518510" lon="-3.8002910">
        <ele>695.3</ele>
        <time>2021-05-08T16:49:23Z</time>
      </trkpt>
      <trkpt lat="40.3518560" lon="-3.8002810">
        <ele>695.2</ele>
        <time>2021-05-08T16:49:24Z</time>
      </trkpt>
      <trkpt lat="40.3518810" lon="-3.8002590">
        <ele>695.1</ele>
        <time>2021-05-08T16:49:25Z</time>
      </trkpt>
      <trkpt lat="40.3519020" lon="-3.8002360">
        <ele>695.0</ele>
        <time>2021-05-08T16:49:27Z</time>
      </trkpt>
      <trkpt lat="40.3519800" lon="-3.8001290">
        <ele>694.4</ele>
        <time>2021-05-08T16:49:29Z</time>
      </trkpt>
      <trkpt lat="40.3520880" lon="-3.8000330">
        <ele>693.8</ele>
        <time>2021-05-08T16:49:31Z</time>
      </trkpt>
      <trkpt lat="40.3522140" lon="-3.7999230">
        <ele>693.2</ele>
        <time>2021-05-08T16:49:33Z</time>
      </trkpt>
      <trkpt lat="40.3522810" lon="-3.7998600">
        <ele>692.9</ele>
        <time>2021-05-08T16:49:34Z</time>
      </trkpt>
      <trkpt lat="40.3523970" lon="-3.7997220">
        <ele>692.2</ele>
        <time>2021-05-08T16:49:36Z</time>
      </trkpt>
      <trkpt lat="40.3525310" lon="-3.7995880">
        <ele>691.4</ele>
        <time>2021-05-08T16:49:38Z</time>
      </trkpt>
      <trkpt lat="40.3526690" lon="-3.7994540">
        <ele>690.5</ele>
        <time>2021-05-08T16:49:40Z</time>
      </trkpt>
      <trkpt lat="40.3527400" lon="-3.7993840">
        <ele>690.1</ele>
        <time>2021-05-08T16:49:41Z</time>
      </trkpt>
      <trkpt lat="40.3528740" lon="-3.7992410">
        <ele>689.3</ele>
        <time>2021-05-08T16:49:43Z</time>
      </trkpt>
      <trkpt lat="40.3529480" lon="-3.7991740">
        <ele>688.8</ele>
        <time>2021-05-08T16:49:44Z</time>
      </trkpt>
      <trkpt lat="40.3530920" lon="-3.7990450">
        <ele>687.7</ele>
        <time>2021-05-08T16:49:46Z</time>
      </trkpt>
      <trkpt lat="40.3532310" lon="-3.7989110">
        <ele>686.7</ele>
        <time>2021-05-08T16:49:48Z</time>
      </trkpt>
      <trkpt lat="40.3533520" lon="-3.7987600">
        <ele>685.7</ele>
        <time>2021-05-08T16:49:50Z</time>
      </trkpt>
      <trkpt lat="40.3534400" lon="-3.7985960">
        <ele>684.9</ele>
        <time>2021-05-08T16:49:52Z</time>
      </trkpt>
      <trkpt lat="40.3534710" lon="-3.7984130">
        <ele>683.7</ele>
        <time>2021-05-08T16:49:54Z</time>
      </trkpt>
      <trkpt lat="40.3534660" lon="-3.7982110">
        <ele>683.4</ele>
        <time>2021-05-08T16:49:56Z</time>
      </trkpt>
      <trkpt lat="40.3534820" lon="-3.7979970">
        <ele>683.4</ele>
        <time>2021-05-08T16:49:58Z</time>
      </trkpt>
      <trkpt lat="40.3535820" lon="-3.7978250">
        <ele>683.4</ele>
        <time>2021-05-08T16:50:00Z</time>
      </trkpt>
      <trkpt lat="40.3536580" lon="-3.7977860">
        <ele>683.4</ele>
        <time>2021-05-08T16:50:01Z</time>
      </trkpt>
      <trkpt lat="40.3537440" lon="-3.7977800">
        <ele>683.3</ele>
        <time>2021-05-08T16:50:02Z</time>
      </trkpt>
      <trkpt lat="40.3538220" lon="-3.7977990">
        <ele>683.3</ele>
        <time>2021-05-08T16:50:03Z</time>
      </trkpt>
      <trkpt lat="40.3539720" lon="-3.7978450">
        <ele>682.5</ele>
        <time>2021-05-08T16:50:05Z</time>
      </trkpt>
      <trkpt lat="40.3540460" lon="-3.7978430">
        <ele>682.0</ele>
        <time>2021-05-08T16:50:06Z</time>
      </trkpt>
      <trkpt lat="40.3541900" lon="-3.7978720">
        <ele>681.3</ele>
        <time>2021-05-08T16:50:08Z</time>
      </trkpt>
      <trkpt lat="40.3542370" lon="-3.7979360">
        <ele>681.2</ele>
        <time>2021-05-08T16:50:09Z</time>
      </trkpt>
      <trkpt lat="40.3542900" lon="-3.7980650">
        <ele>681.1</ele>
        <time>2021-05-08T16:50:11Z</time>
      </trkpt>
      <trkpt lat="40.3543100" lon="-3.7980960">
        <ele>681.0</ele>
        <time>2021-05-08T16:50:12Z</time>
      </trkpt>
      <trkpt lat="40.3543450" lon="-3.7981240">
        <ele>680.9</ele>
        <time>2021-05-08T16:50:14Z</time>
      </trkpt>
      <trkpt lat="40.3543730" lon="-3.7981280">
        <ele>680.7</ele>
        <time>2021-05-08T16:50:15Z</time>
      </trkpt>
      <trkpt lat="40.3544050" lon="-3.7981250">
        <ele>680.6</ele>
        <time>2021-05-08T16:50:16Z</time>
      </trkpt>
      <trkpt lat="40.3544400" lon="-3.7981060">
        <ele>680.4</ele>
        <time>2021-05-08T16:50:17Z</time>
      </trkpt>
      <trkpt lat="40.3544860" lon="-3.7980820">
        <ele>680.2</ele>
        <time>2021-05-08T16:50:18Z</time>
      </trkpt>
      <trkpt lat="40.3545270" lon="-3.7980710">
        <ele>679.9</ele>
        <time>2021-05-08T16:50:20Z</time>
      </trkpt>
      <trkpt lat="40.3545710" lon="-3.7980280">
        <ele>679.7</ele>
        <time>2021-05-08T16:50:21Z</time>
      </trkpt>
      <trkpt lat="40.3546190" lon="-3.7979740">
        <ele>679.5</ele>
        <time>2021-05-08T16:50:23Z</time>
      </trkpt>
      <trkpt lat="40.3546670" lon="-3.7979240">
        <ele>679.0</ele>
        <time>2021-05-08T16:50:24Z</time>
      </trkpt>
      <trkpt lat="40.3547020" lon="-3.7978900">
        <ele>678.7</ele>
        <time>2021-05-08T16:50:25Z</time>
      </trkpt>
      <trkpt lat="40.3547410" lon="-3.7978620">
        <ele>678.5</ele>
        <time>2021-05-08T16:50:26Z</time>
      </trkpt>
      <trkpt lat="40.3547970" lon="-3.7978350">
        <ele>678.0</ele>
        <time>2021-05-08T16:50:28Z</time>
      </trkpt>
      <trkpt lat="40.3548980" lon="-3.7977970">
        <ele>677.3</ele>
        <time>2021-05-08T16:50:30Z</time>
      </trkpt>
      <trkpt lat="40.3549970" lon="-3.7977800">
        <ele>676.6</ele>
        <time>2021-05-08T16:50:32Z</time>
      </trkpt>
      <trkpt lat="40.3550470" lon="-3.7977740">
        <ele>676.5</ele>
        <time>2021-05-08T16:50:33Z</time>
      </trkpt>
      <trkpt lat="40.3551500" lon="-3.7977660">
        <ele>675.8</ele>
        <time>2021-05-08T16:50:35Z</time>
      </trkpt>
      <trkpt lat="40.3552020" lon="-3.7977620">
        <ele>675.6</ele>
        <time>2021-05-08T16:50:36Z</time>
      </trkpt>
      <trkpt lat="40.3553130" lon="-3.7977670">
        <ele>674.9</ele>
        <time>2021-05-08T16:50:38Z</time>
      </trkpt>
      <trkpt lat="40.3553740" lon="-3.7977570">
        <ele>674.7</ele>
        <time>2021-05-08T16:50:39Z</time>
      </trkpt>
      <trkpt lat="40.3554990" lon="-3.7977130">
        <ele>674.1</ele>
        <time>2021-05-08T16:50:41Z</time>
      </trkpt>
      <trkpt lat="40.3555620" lon="-3.7976870">
        <ele>673.7</ele>
        <time>2021-05-08T16:50:42Z</time>
      </trkpt>
      <trkpt lat="40.3556950" lon="-3.7976630">
        <ele>673.3</ele>
        <time>2021-05-08T16:50:44Z</time>
      </trkpt>
      <trkpt lat="40.3558280" lon="-3.7976590">
        <ele>673.3</ele>
        <time>2021-05-08T16:50:46Z</time>
      </trkpt>
      <trkpt lat="40.3559610" lon="-3.7976180">
        <ele>673.3</ele>
        <time>2021-05-08T16:50:48Z</time>
      </trkpt>
      <trkpt lat="40.3560290" lon="-3.7975930">
        <ele>673.5</ele>
        <time>2021-05-08T16:50:49Z</time>
      </trkpt>
      <trkpt lat="40.3560970" lon="-3.7975690">
        <ele>673.4</ele>
        <time>2021-05-08T16:50:50Z</time>
      </trkpt>
      <trkpt lat="40.3562380" lon="-3.7975440">
        <ele>673.5</ele>
        <time>2021-05-08T16:50:52Z</time>
      </trkpt>
      <trkpt lat="40.3563640" lon="-3.7975410">
        <ele>673.5</ele>
        <time>2021-05-08T16:50:54Z</time>
      </trkpt>
      <trkpt lat="40.3564600" lon="-3.7975840">
        <ele>673.4</ele>
        <time>2021-05-08T16:50:56Z</time>
      </trkpt>
      <trkpt lat="40.3564900" lon="-3.7976460">
        <ele>673.3</ele>
        <time>2021-05-08T16:50:57Z</time>
      </trkpt>
      <trkpt lat="40.3565270" lon="-3.7977820">
        <ele>673.2</ele>
        <time>2021-05-08T16:50:59Z</time>
      </trkpt>
      <trkpt lat="40.3565430" lon="-3.7978540">
        <ele>673.2</ele>
        <time>2021-05-08T16:51:00Z</time>
      </trkpt>
      <trkpt lat="40.3565550" lon="-3.7979260">
        <ele>673.2</ele>
        <time>2021-05-08T16:51:01Z</time>
      </trkpt>
      <trkpt lat="40.3565750" lon="-3.7980720">
        <ele>673.4</ele>
        <time>2021-05-08T16:51:03Z</time>
      </trkpt>
      <trkpt lat="40.3565850" lon="-3.7981430">
        <ele>673.4</ele>
        <time>2021-05-08T16:51:04Z</time>
      </trkpt>
      <trkpt lat="40.3565940" lon="-3.7982130">
        <ele>673.5</ele>
        <time>2021-05-08T16:51:05Z</time>
      </trkpt>
      <trkpt lat="40.3566070" lon="-3.7983550">
        <ele>673.7</ele>
        <time>2021-05-08T16:51:07Z</time>
      </trkpt>
      <trkpt lat="40.3566220" lon="-3.7984970">
        <ele>673.8</ele>
        <time>2021-05-08T16:51:09Z</time>
      </trkpt>
      <trkpt lat="40.3566230" lon="-3.7985700">
        <ele>673.9</ele>
        <time>2021-05-08T16:51:10Z</time>
      </trkpt>
      <trkpt lat="40.3566310" lon="-3.7987110">
        <ele>674.1</ele>
        <time>2021-05-08T16:51:12Z</time>
      </trkpt>
      <trkpt lat="40.3566460" lon="-3.7988540">
        <ele>674.3</ele>
        <time>2021-05-08T16:51:14Z</time>
      </trkpt>
      <trkpt lat="40.3566580" lon="-3.7989270">
        <ele>674.4</ele>
        <time>2021-05-08T16:51:15Z</time>
      </trkpt>
      <trkpt lat="40.3566830" lon="-3.7990720">
        <ele>674.6</ele>
        <time>2021-05-08T16:51:17Z</time>
      </trkpt>
      <trkpt lat="40.3566930" lon="-3.7991450">
        <ele>674.7</ele>
        <time>2021-05-08T16:51:18Z</time>
      </trkpt>
      <trkpt lat="40.3567150" lon="-3.7992790">
        <ele>674.9</ele>
        <time>2021-05-08T16:51:20Z</time>
      </trkpt>
      <trkpt lat="40.3567270" lon="-3.7993420">
        <ele>675.0</ele>
        <time>2021-05-08T16:51:21Z</time>
      </trkpt>
      <trkpt lat="40.3567410" lon="-3.7994740">
        <ele>675.3</ele>
        <time>2021-05-08T16:51:23Z</time>
      </trkpt>
      <trkpt lat="40.3567510" lon="-3.7995420">
        <ele>675.4</ele>
        <time>2021-05-08T16:51:24Z</time>
      </trkpt>
      <trkpt lat="40.3567700" lon="-3.7996640">
        <ele>675.7</ele>
        <time>2021-05-08T16:51:26Z</time>
      </trkpt>
      <trkpt lat="40.3567740" lon="-3.7997060">
        <ele>675.7</ele>
        <time>2021-05-08T16:51:27Z</time>
      </trkpt>
      <trkpt lat="40.3567750" lon="-3.7997630">
        <ele>675.8</ele>
        <time>2021-05-08T16:51:28Z</time>
      </trkpt>
      <trkpt lat="40.3567680" lon="-3.7998560">
        <ele>675.9</ele>
        <time>2021-05-08T16:51:30Z</time>
      </trkpt>
      <trkpt lat="40.3567650" lon="-3.7999060">
        <ele>676.0</ele>
        <time>2021-05-08T16:51:31Z</time>
      </trkpt>
      <trkpt lat="40.3567670" lon="-3.7999570">
        <ele>676.0</ele>
        <time>2021-05-08T16:51:32Z</time>
      </trkpt>
      <trkpt lat="40.3567810" lon="-3.8000030">
        <ele>676.0</ele>
        <time>2021-05-08T16:51:33Z</time>
      </trkpt>
      <trkpt lat="40.3568210" lon="-3.8000160">
        <ele>676.0</ele>
        <time>2021-05-08T16:51:34Z</time>
      </trkpt>
      <trkpt lat="40.3568290" lon="-3.8000960">
        <ele>676.0</ele>
        <time>2021-05-08T16:51:35Z</time>
      </trkpt>
      <trkpt lat="40.3568190" lon="-3.8001730">
        <ele>675.9</ele>
        <time>2021-05-08T16:51:37Z</time>
      </trkpt>
      <trkpt lat="40.3568090" lon="-3.8002780">
        <ele>675.9</ele>
        <time>2021-05-08T16:51:38Z</time>
      </trkpt>
      <trkpt lat="40.3568110" lon="-3.8003380">
        <ele>675.8</ele>
        <time>2021-05-08T16:51:39Z</time>
      </trkpt>
      <trkpt lat="40.3568090" lon="-3.8004030">
        <ele>675.8</ele>
        <time>2021-05-08T16:51:41Z</time>
      </trkpt>
      <trkpt lat="40.3568080" lon="-3.8004730">
        <ele>675.7</ele>
        <time>2021-05-08T16:51:42Z</time>
      </trkpt>
      <trkpt lat="40.3568000" lon="-3.8005270">
        <ele>675.7</ele>
        <time>2021-05-08T16:51:43Z</time>
      </trkpt>
      <trkpt lat="40.3567810" lon="-3.8005820">
        <ele>675.8</ele>
        <time>2021-05-08T16:51:44Z</time>
      </trkpt>
      <trkpt lat="40.3567170" lon="-3.8006140">
        <ele>676.0</ele>
        <time>2021-05-08T16:51:46Z</time>
      </trkpt>
      <trkpt lat="40.3566760" lon="-3.8006400">
        <ele>676.0</ele>
        <time>2021-05-08T16:51:47Z</time>
      </trkpt>
      <trkpt lat="40.3566470" lon="-3.8006890">
        <ele>676.2</ele>
        <time>2021-05-08T16:51:48Z</time>
      </trkpt>
      <trkpt lat="40.3566240" lon="-3.8007440">
        <ele>676.3</ele>
        <time>2021-05-08T16:51:49Z</time>
      </trkpt>
      <trkpt lat="40.3565880" lon="-3.8008150">
        <ele>676.5</ele>
        <time>2021-05-08T16:51:51Z</time>
      </trkpt>
      <trkpt lat="40.3565430" lon="-3.8008760">
        <ele>676.7</ele>
        <time>2021-05-08T16:51:53Z</time>
      </trkpt>
      <trkpt lat="40.3565090" lon="-3.8009030">
        <ele>676.8</ele>
        <time>2021-05-08T16:51:54Z</time>
      </trkpt>
      <trkpt lat="40.3564610" lon="-3.8009450">
        <ele>677.0</ele>
        <time>2021-05-08T16:51:55Z</time>
      </trkpt>
      <trkpt lat="40.3564270" lon="-3.8009750">
        <ele>677.1</ele>
        <time>2021-05-08T16:51:56Z</time>
      </trkpt>
      <trkpt lat="40.3563910" lon="-3.8010180">
        <ele>677.2</ele>
        <time>2021-05-08T16:51:58Z</time>
      </trkpt>
      <trkpt lat="40.3563690" lon="-3.8010550">
        <ele>677.3</ele>
        <time>2021-05-08T16:51:59Z</time>
      </trkpt>
      <trkpt lat="40.3563310" lon="-3.8011160">
        <ele>677.5</ele>
        <time>2021-05-08T16:52:00Z</time>
      </trkpt>
      <trkpt lat="40.3563050" lon="-3.8011420">
        <ele>677.6</ele>
        <time>2021-05-08T16:52:01Z</time>
      </trkpt>
      <trkpt lat="40.3562660" lon="-3.8011440">
        <ele>677.7</ele>
        <time>2021-05-08T16:52:03Z</time>
      </trkpt>
      <trkpt lat="40.3562470" lon="-3.8011190">
        <ele>677.8</ele>
        <time>2021-05-08T16:52:04Z</time>
      </trkpt>
      <trkpt lat="40.3562350" lon="-3.8010890">
        <ele>677.9</ele>
        <time>2021-05-08T16:52:05Z</time>
      </trkpt>
      <trkpt lat="40.3562210" lon="-3.8010790">
        <ele>677.9</ele>
        <time>2021-05-08T16:52:07Z</time>
      </trkpt>
      <trkpt lat="40.3562130" lon="-3.8010620">
        <ele>678.0</ele>
        <time>2021-05-08T16:52:08Z</time>
      </trkpt>
      <trkpt lat="40.3562130" lon="-3.8010580">
        <ele>678.0</ele>
        <time>2021-05-08T16:52:09Z</time>
      </trkpt>
      <trkpt lat="40.3562120" lon="-3.8010580">
        <ele>678.0</ele>
        <time>2021-05-08T16:52:11Z</time>
      </trkpt>
      <trkpt lat="40.3562080" lon="-3.8010650">
        <ele>678.0</ele>
        <time>2021-05-08T16:52:12Z</time>
      </trkpt>
      <trkpt lat="40.3562060" lon="-3.8010660">
        <ele>678.0</ele>
        <time>2021-05-08T16:52:14Z</time>
      </trkpt>
      <trkpt lat="40.3562040" lon="-3.8010650">
        <ele>678.0</ele>
        <time>2021-05-08T16:52:15Z</time>
      </trkpt>
      <trkpt lat="40.3562030" lon="-3.8010630">
        <ele>678.0</ele>
        <time>2021-05-08T16:52:17Z</time>
      </trkpt>
      <trkpt lat="40.3562020" lon="-3.8010630">
        <ele>678.0</ele>
        <time>2021-05-08T16:52:18Z</time>
      </trkpt>
      <trkpt lat="40.3562020" lon="-3.8010480">
        <ele>678.1</ele>
        <time>2021-05-08T16:52:19Z</time>
      </trkpt>
      <trkpt lat="40.3561850" lon="-3.8010220">
        <ele>678.1</ele>
        <time>2021-05-08T16:52:21Z</time>
      </trkpt>
      <trkpt lat="40.3561700" lon="-3.8010160">
        <ele>678.2</ele>
        <time>2021-05-08T16:52:22Z</time>
      </trkpt>
      <trkpt lat="40.3561130" lon="-3.8010380">
        <ele>679.3</ele>
        <time>2021-05-08T16:52:24Z</time>
      </trkpt>
      <trkpt lat="40.3560920" lon="-3.8011040">
        <ele>679.4</ele>
        <time>2021-05-08T16:52:26Z</time>
      </trkpt>
      <trkpt lat="40.3561080" lon="-3.8011630">
        <ele>679.4</ele>
        <time>2021-05-08T16:52:27Z</time>
      </trkpt>
      <trkpt lat="40.3561220" lon="-3.8012060">
        <ele>679.5</ele>
        <time>2021-05-08T16:52:28Z</time>
      </trkpt>
      <trkpt lat="40.3561330" lon="-3.8012650">
        <ele>679.5</ele>
        <time>2021-05-08T16:52:30Z</time>
      </trkpt>
      <trkpt lat="40.3561420" lon="-3.8013150">
        <ele>679.6</ele>
        <time>2021-05-08T16:52:31Z</time>
      </trkpt>
      <trkpt lat="40.3561470" lon="-3.8013710">
        <ele>679.6</ele>
        <time>2021-05-08T16:52:32Z</time>
      </trkpt>
      <trkpt lat="40.3561460" lon="-3.8013920">
        <ele>679.6</ele>
        <time>2021-05-08T16:52:33Z</time>
      </trkpt>
      <trkpt lat="40.3561440" lon="-3.8014360">
        <ele>679.7</ele>
        <time>2021-05-08T16:52:34Z</time>
      </trkpt>
      <trkpt lat="40.3561490" lon="-3.8014870">
        <ele>679.7</ele>
        <time>2021-05-08T16:52:36Z</time>
      </trkpt>
      <trkpt lat="40.3561550" lon="-3.8015580">
        <ele>679.7</ele>
        <time>2021-05-08T16:52:37Z</time>
      </trkpt>
      <trkpt lat="40.3561640" lon="-3.8016320">
        <ele>679.8</ele>
        <time>2021-05-08T16:52:39Z</time>
      </trkpt>
      <trkpt lat="40.3561760" lon="-3.8017000">
        <ele>679.8</ele>
        <time>2021-05-08T16:52:40Z</time>
      </trkpt>
      <trkpt lat="40.3561840" lon="-3.8017500">
        <ele>679.8</ele>
        <time>2021-05-08T16:52:41Z</time>
      </trkpt>
      <trkpt lat="40.3562080" lon="-3.8018170">
        <ele>679.8</ele>
        <time>2021-05-08T16:52:43Z</time>
      </trkpt>
      <trkpt lat="40.3562290" lon="-3.8019010">
        <ele>679.8</ele>
        <time>2021-05-08T16:52:44Z</time>
      </trkpt>
      <trkpt lat="40.3562470" lon="-3.8019830">
        <ele>679.7</ele>
        <time>2021-05-08T16:52:46Z</time>
      </trkpt>
      <trkpt lat="40.3562590" lon="-3.8020480">
        <ele>679.7</ele>
        <time>2021-05-08T16:52:47Z</time>
      </trkpt>
      <trkpt lat="40.3562810" lon="-3.8021840">
        <ele>679.6</ele>
        <time>2021-05-08T16:52:49Z</time>
      </trkpt>
      <trkpt lat="40.3563150" lon="-3.8023180">
        <ele>679.4</ele>
        <time>2021-05-08T16:52:51Z</time>
      </trkpt>
      <trkpt lat="40.3563320" lon="-3.8023830">
        <ele>679.3</ele>
        <time>2021-05-08T16:52:52Z</time>
      </trkpt>
      <trkpt lat="40.3563430" lon="-3.8024500">
        <ele>679.2</ele>
        <time>2021-05-08T16:52:53Z</time>
      </trkpt>
      <trkpt lat="40.3563490" lon="-3.8025870">
        <ele>678.9</ele>
        <time>2021-05-08T16:52:55Z</time>
      </trkpt>
      <trkpt lat="40.3563740" lon="-3.8027170">
        <ele>678.7</ele>
        <time>2021-05-08T16:52:57Z</time>
      </trkpt>
      <trkpt lat="40.3564280" lon="-3.8028460">
        <ele>678.3</ele>
        <time>2021-05-08T16:52:59Z</time>
      </trkpt>
      <trkpt lat="40.3564790" lon="-3.8029850">
        <ele>677.9</ele>
        <time>2021-05-08T16:53:01Z</time>
      </trkpt>
      <trkpt lat="40.3565260" lon="-3.8031360">
        <ele>677.6</ele>
        <time>2021-05-08T16:53:03Z</time>
      </trkpt>
      <trkpt lat="40.3565580" lon="-3.8032150">
        <ele>677.4</ele>
        <time>2021-05-08T16:53:04Z</time>
      </trkpt>
      <trkpt lat="40.3566030" lon="-3.8033850">
        <ele>677.1</ele>
        <time>2021-05-08T16:53:06Z</time>
      </trkpt>
      <trkpt lat="40.3566200" lon="-3.8034740">
        <ele>677.1</ele>
        <time>2021-05-08T16:53:07Z</time>
      </trkpt>
      <trkpt lat="40.3566530" lon="-3.8036350">
        <ele>676.9</ele>
        <time>2021-05-08T16:53:09Z</time>
      </trkpt>
      <trkpt lat="40.3566880" lon="-3.8037140">
        <ele>676.8</ele>
        <time>2021-05-08T16:53:11Z</time>
      </trkpt>
      <trkpt lat="40.3567530" lon="-3.8037830">
        <ele>676.5</ele>
        <time>2021-05-08T16:53:13Z</time>
      </trkpt>
      <trkpt lat="40.3568250" lon="-3.8039310">
        <ele>676.5</ele>
        <time>2021-05-08T16:53:15Z</time>
      </trkpt>
      <trkpt lat="40.3568540" lon="-3.8041030">
        <ele>676.8</ele>
        <time>2021-05-08T16:53:17Z</time>
      </trkpt>
      <trkpt lat="40.3568700" lon="-3.8041860">
        <ele>677.1</ele>
        <time>2021-05-08T16:53:18Z</time>
      </trkpt>
      <trkpt lat="40.3568900" lon="-3.8042580">
        <ele>677.3</ele>
        <time>2021-05-08T16:53:19Z</time>
      </trkpt>
      <trkpt lat="40.3569510" lon="-3.8043630">
        <ele>677.5</ele>
        <time>2021-05-08T16:53:21Z</time>
      </trkpt>
      <trkpt lat="40.3570130" lon="-3.8044630">
        <ele>677.6</ele>
        <time>2021-05-08T16:53:23Z</time>
      </trkpt>
      <trkpt lat="40.3570490" lon="-3.8045790">
        <ele>677.6</ele>
        <time>2021-05-08T16:53:25Z</time>
      </trkpt>
      <trkpt lat="40.3570820" lon="-3.8047060">
        <ele>677.6</ele>
        <time>2021-05-08T16:53:27Z</time>
      </trkpt>
      <trkpt lat="40.3571020" lon="-3.8047610">
        <ele>677.6</ele>
        <time>2021-05-08T16:53:28Z</time>
      </trkpt>
      <trkpt lat="40.3571590" lon="-3.8048710">
        <ele>677.5</ele>
        <time>2021-05-08T16:53:30Z</time>
      </trkpt>
      <trkpt lat="40.3571940" lon="-3.8049260">
        <ele>677.5</ele>
        <time>2021-05-08T16:53:31Z</time>
      </trkpt>
      <trkpt lat="40.3572370" lon="-3.8049810">
        <ele>677.5</ele>
        <time>2021-05-08T16:53:32Z</time>
      </trkpt>
      <trkpt lat="40.3573250" lon="-3.8050830">
        <ele>677.5</ele>
        <time>2021-05-08T16:53:34Z</time>
      </trkpt>
      <trkpt lat="40.3573950" lon="-3.8051760">
        <ele>677.5</ele>
        <time>2021-05-08T16:53:36Z</time>
      </trkpt>
      <trkpt lat="40.3574250" lon="-3.8052260">
        <ele>677.5</ele>
        <time>2021-05-08T16:53:37Z</time>
      </trkpt>
      <trkpt lat="40.3574850" lon="-3.8053330">
        <ele>677.4</ele>
        <time>2021-05-08T16:53:39Z</time>
      </trkpt>
      <trkpt lat="40.3575170" lon="-3.8053870">
        <ele>677.4</ele>
        <time>2021-05-08T16:53:40Z</time>
      </trkpt>
      <trkpt lat="40.3575500" lon="-3.8054380">
        <ele>677.4</ele>
        <time>2021-05-08T16:53:41Z</time>
      </trkpt>
      <trkpt lat="40.3575810" lon="-3.8054890">
        <ele>677.3</ele>
        <time>2021-05-08T16:53:42Z</time>
      </trkpt>
      <trkpt lat="40.3576090" lon="-3.8055430">
        <ele>677.3</ele>
        <time>2021-05-08T16:53:43Z</time>
      </trkpt>
      <trkpt lat="40.3576370" lon="-3.8055940">
        <ele>677.3</ele>
        <time>2021-05-08T16:53:44Z</time>
      </trkpt>
      <trkpt lat="40.3576990" lon="-3.8056750">
        <ele>677.3</ele>
        <time>2021-05-08T16:53:46Z</time>
      </trkpt>
      <trkpt lat="40.3577270" lon="-3.8057090">
        <ele>677.3</ele>
        <time>2021-05-08T16:53:47Z</time>
      </trkpt>
      <trkpt lat="40.3577970" lon="-3.8058120">
        <ele>677.3</ele>
        <time>2021-05-08T16:53:49Z</time>
      </trkpt>
      <trkpt lat="40.3578260" lon="-3.8058690">
        <ele>677.3</ele>
        <time>2021-05-08T16:53:50Z</time>
      </trkpt>
      <trkpt lat="40.3578510" lon="-3.8059250">
        <ele>677.2</ele>
        <time>2021-05-08T16:53:51Z</time>
      </trkpt>
      <trkpt lat="40.3578970" lon="-3.8060380">
        <ele>677.3</ele>
        <time>2021-05-08T16:53:53Z</time>
      </trkpt>
      <trkpt lat="40.3579190" lon="-3.8060990">
        <ele>677.3</ele>
        <time>2021-05-08T16:53:54Z</time>
      </trkpt>
      <trkpt lat="40.3579670" lon="-3.8062120">
        <ele>677.5</ele>
        <time>2021-05-08T16:53:56Z</time>
      </trkpt>
      <trkpt lat="40.3580330" lon="-3.8063120">
        <ele>677.6</ele>
        <time>2021-05-08T16:53:58Z</time>
      </trkpt>
      <trkpt lat="40.3580680" lon="-3.8063510">
        <ele>677.6</ele>
        <time>2021-05-08T16:53:59Z</time>
      </trkpt>
      <trkpt lat="40.3581070" lon="-3.8063850">
        <ele>677.6</ele>
        <time>2021-05-08T16:54:00Z</time>
      </trkpt>
      <trkpt lat="40.3581830" lon="-3.8064380">
        <ele>677.6</ele>
        <time>2021-05-08T16:54:02Z</time>
      </trkpt>
      <trkpt lat="40.3582560" lon="-3.8065230">
        <ele>677.6</ele>
        <time>2021-05-08T16:54:04Z</time>
      </trkpt>
      <trkpt lat="40.3583330" lon="-3.8066270">
        <ele>677.7</ele>
        <time>2021-05-08T16:54:06Z</time>
      </trkpt>
      <trkpt lat="40.3584180" lon="-3.8067340">
        <ele>677.8</ele>
        <time>2021-05-08T16:54:08Z</time>
      </trkpt>
      <trkpt lat="40.3584910" lon="-3.8068390">
        <ele>678.1</ele>
        <time>2021-05-08T16:54:10Z</time>
      </trkpt>
      <trkpt lat="40.3585270" lon="-3.8068870">
        <ele>678.2</ele>
        <time>2021-05-08T16:54:11Z</time>
      </trkpt>
      <trkpt lat="40.3586090" lon="-3.8069760">
        <ele>678.5</ele>
        <time>2021-05-08T16:54:13Z</time>
      </trkpt>
      <trkpt lat="40.3587000" lon="-3.8070480">
        <ele>678.9</ele>
        <time>2021-05-08T16:54:15Z</time>
      </trkpt>
      <trkpt lat="40.3587950" lon="-3.8071130">
        <ele>679.3</ele>
        <time>2021-05-08T16:54:17Z</time>
      </trkpt>
      <trkpt lat="40.3588390" lon="-3.8071430">
        <ele>679.4</ele>
        <time>2021-05-08T16:54:18Z</time>
      </trkpt>
      <trkpt lat="40.3589220" lon="-3.8071950">
        <ele>679.8</ele>
        <time>2021-05-08T16:54:20Z</time>
      </trkpt>
      <trkpt lat="40.3589520" lon="-3.8072170">
        <ele>679.9</ele>
        <time>2021-05-08T16:54:21Z</time>
      </trkpt>
      <trkpt lat="40.3589940" lon="-3.8072480">
        <ele>680.1</ele>
        <time>2021-05-08T16:54:22Z</time>
      </trkpt>
      <trkpt lat="40.3590630" lon="-3.8072970">
        <ele>680.3</ele>
        <time>2021-05-08T16:54:24Z</time>
      </trkpt>
      <trkpt lat="40.3591200" lon="-3.8073340">
        <ele>680.5</ele>
        <time>2021-05-08T16:54:25Z</time>
      </trkpt>
      <trkpt lat="40.3591770" lon="-3.8073530">
        <ele>680.7</ele>
        <time>2021-05-08T16:54:26Z</time>
      </trkpt>
      <trkpt lat="40.3592140" lon="-3.8073620">
        <ele>680.9</ele>
        <time>2021-05-08T16:54:27Z</time>
      </trkpt>
      <trkpt lat="40.3592660" lon="-3.8073830">
        <ele>681.1</ele>
        <time>2021-05-08T16:54:28Z</time>
      </trkpt>
      <trkpt lat="40.3593200" lon="-3.8074150">
        <ele>681.3</ele>
        <time>2021-05-08T16:54:30Z</time>
      </trkpt>
      <trkpt lat="40.3593680" lon="-3.8074310">
        <ele>681.6</ele>
        <time>2021-05-08T16:54:31Z</time>
      </trkpt>
      <trkpt lat="40.3594160" lon="-3.8074460">
        <ele>681.8</ele>
        <time>2021-05-08T16:54:32Z</time>
      </trkpt>
      <trkpt lat="40.3594970" lon="-3.8074740">
        <ele>682.2</ele>
        <time>2021-05-08T16:54:34Z</time>
      </trkpt>
      <trkpt lat="40.3595620" lon="-3.8074940">
        <ele>682.5</ele>
        <time>2021-05-08T16:54:35Z</time>
      </trkpt>
      <trkpt lat="40.3596200" lon="-3.8075130">
        <ele>682.8</ele>
        <time>2021-05-08T16:54:36Z</time>
      </trkpt>
      <trkpt lat="40.3596630" lon="-3.8075230">
        <ele>683.0</ele>
        <time>2021-05-08T16:54:37Z</time>
      </trkpt>
      <trkpt lat="40.3597120" lon="-3.8075200">
        <ele>683.3</ele>
        <time>2021-05-08T16:54:39Z</time>
      </trkpt>
      <trkpt lat="40.3597830" lon="-3.8074980">
        <ele>683.7</ele>
        <time>2021-05-08T16:54:40Z</time>
      </trkpt>
      <trkpt lat="40.3598290" lon="-3.8074850">
        <ele>684.0</ele>
        <time>2021-05-08T16:54:41Z</time>
      </trkpt>
      <trkpt lat="40.3598710" lon="-3.8074730">
        <ele>684.2</ele>
        <time>2021-05-08T16:54:42Z</time>
      </trkpt>
      <trkpt lat="40.3599090" lon="-3.8074650">
        <ele>684.5</ele>
        <time>2021-05-08T16:54:44Z</time>
      </trkpt>
      <trkpt lat="40.3599400" lon="-3.8074580">
        <ele>684.6</ele>
        <time>2021-05-08T16:54:45Z</time>
      </trkpt>
      <trkpt lat="40.3599930" lon="-3.8074620">
        <ele>685.0</ele>
        <time>2021-05-08T16:54:47Z</time>
      </trkpt>
      <trkpt lat="40.3600280" lon="-3.8074740">
        <ele>685.2</ele>
        <time>2021-05-08T16:54:48Z</time>
      </trkpt>
      <trkpt lat="40.3600620" lon="-3.8074860">
        <ele>685.4</ele>
        <time>2021-05-08T16:54:49Z</time>
      </trkpt>
      <trkpt lat="40.3600940" lon="-3.8075030">
        <ele>685.7</ele>
        <time>2021-05-08T16:54:50Z</time>
      </trkpt>
      <trkpt lat="40.3601320" lon="-3.8075230">
        <ele>685.9</ele>
        <time>2021-05-08T16:54:52Z</time>
      </trkpt>
      <trkpt lat="40.3601630" lon="-3.8075280">
        <ele>686.2</ele>
        <time>2021-05-08T16:54:53Z</time>
      </trkpt>
      <trkpt lat="40.3602100" lon="-3.8075180">
        <ele>686.5</ele>
        <time>2021-05-08T16:54:54Z</time>
      </trkpt>
      <trkpt lat="40.3602440" lon="-3.8075090">
        <ele>686.7</ele>
        <time>2021-05-08T16:54:55Z</time>
      </trkpt>
      <trkpt lat="40.3602740" lon="-3.8075010">
        <ele>686.9</ele>
        <time>2021-05-08T16:54:57Z</time>
      </trkpt>
      <trkpt lat="40.3603060" lon="-3.8074960">
        <ele>687.1</ele>
        <time>2021-05-08T16:54:58Z</time>
      </trkpt>
      <trkpt lat="40.3603290" lon="-3.8074950">
        <ele>687.2</ele>
        <time>2021-05-08T16:54:59Z</time>
      </trkpt>
      <trkpt lat="40.3603610" lon="-3.8074980">
        <ele>687.4</ele>
        <time>2021-05-08T16:55:01Z</time>
      </trkpt>
      <trkpt lat="40.3604130" lon="-3.8075060">
        <ele>687.7</ele>
        <time>2021-05-08T16:55:02Z</time>
      </trkpt>
      <trkpt lat="40.3604650" lon="-3.8075210">
        <ele>688.0</ele>
        <time>2021-05-08T16:55:04Z</time>
      </trkpt>
      <trkpt lat="40.3605140" lon="-3.8075390">
        <ele>688.2</ele>
        <time>2021-05-08T16:55:06Z</time>
      </trkpt>
      <trkpt lat="40.3605550" lon="-3.8075510">
        <ele>688.4</ele>
        <time>2021-05-08T16:55:07Z</time>
      </trkpt>
      <trkpt lat="40.3605920" lon="-3.8075620">
        <ele>688.5</ele>
        <time>2021-05-08T16:55:08Z</time>
      </trkpt>
      <trkpt lat="40.3606310" lon="-3.8075740">
        <ele>688.6</ele>
        <time>2021-05-08T16:55:09Z</time>
      </trkpt>
      <trkpt lat="40.3606770" lon="-3.8075830">
        <ele>688.7</ele>
        <time>2021-05-08T16:55:10Z</time>
      </trkpt>
      <trkpt lat="40.3607440" lon="-3.8075870">
        <ele>688.8</ele>
        <time>2021-05-08T16:55:12Z</time>
      </trkpt>
      <trkpt lat="40.3607750" lon="-3.8075900">
        <ele>688.8</ele>
        <time>2021-05-08T16:55:13Z</time>
      </trkpt>
      <trkpt lat="40.3608300" lon="-3.8076050">
        <ele>688.8</ele>
        <time>2021-05-08T16:55:14Z</time>
      </trkpt>
      <trkpt lat="40.3608860" lon="-3.8076240">
        <ele>688.8</ele>
        <time>2021-05-08T16:55:16Z</time>
      </trkpt>
      <trkpt lat="40.3609330" lon="-3.8076420">
        <ele>688.8</ele>
        <time>2021-05-08T16:55:17Z</time>
      </trkpt>
      <trkpt lat="40.3609980" lon="-3.8076550">
        <ele>688.8</ele>
        <time>2021-05-08T16:55:18Z</time>
      </trkpt>
      <trkpt lat="40.3610470" lon="-3.8076520">
        <ele>688.8</ele>
        <time>2021-05-08T16:55:19Z</time>
      </trkpt>
      <trkpt lat="40.3610920" lon="-3.8076780">
        <ele>688.9</ele>
        <time>2021-05-08T16:55:21Z</time>
      </trkpt>
      <trkpt lat="40.3611620" lon="-3.8077040">
        <ele>688.9</ele>
        <time>2021-05-08T16:55:22Z</time>
      </trkpt>
      <trkpt lat="40.3612080" lon="-3.8077220">
        <ele>688.9</ele>
        <time>2021-05-08T16:55:23Z</time>
      </trkpt>
      <trkpt lat="40.3612710" lon="-3.8077560">
        <ele>688.9</ele>
        <time>2021-05-08T16:55:25Z</time>
      </trkpt>
      <trkpt lat="40.3613160" lon="-3.8077750">
        <ele>689.0</ele>
        <time>2021-05-08T16:55:26Z</time>
      </trkpt>
      <trkpt lat="40.3613630" lon="-3.8077830">
        <ele>689.1</ele>
        <time>2021-05-08T16:55:27Z</time>
      </trkpt>
      <trkpt lat="40.3614200" lon="-3.8077950">
        <ele>689.2</ele>
        <time>2021-05-08T16:55:29Z</time>
      </trkpt>
      <trkpt lat="40.3614960" lon="-3.8077920">
        <ele>689.4</ele>
        <time>2021-05-08T16:55:31Z</time>
      </trkpt>
      <trkpt lat="40.3615700" lon="-3.8078270">
        <ele>689.6</ele>
        <time>2021-05-08T16:55:33Z</time>
      </trkpt>
      <trkpt lat="40.3616260" lon="-3.8078630">
        <ele>689.9</ele>
        <time>2021-05-08T16:55:34Z</time>
      </trkpt>
      <trkpt lat="40.3616750" lon="-3.8078790">
        <ele>690.1</ele>
        <time>2021-05-08T16:55:35Z</time>
      </trkpt>
      <trkpt lat="40.3617180" lon="-3.8078870">
        <ele>690.3</ele>
        <time>2021-05-08T16:55:36Z</time>
      </trkpt>
      <trkpt lat="40.3617600" lon="-3.8078980">
        <ele>690.5</ele>
        <time>2021-05-08T16:55:38Z</time>
      </trkpt>
      <trkpt lat="40.3617980" lon="-3.8079140">
        <ele>690.8</ele>
        <time>2021-05-08T16:55:39Z</time>
      </trkpt>
      <trkpt lat="40.3618640" lon="-3.8079360">
        <ele>691.3</ele>
        <time>2021-05-08T16:55:40Z</time>
      </trkpt>
      <trkpt lat="40.3619190" lon="-3.8079560">
        <ele>691.7</ele>
        <time>2021-05-08T16:55:42Z</time>
      </trkpt>
      <trkpt lat="40.3619750" lon="-3.8079800">
        <ele>692.3</ele>
        <time>2021-05-08T16:55:43Z</time>
      </trkpt>
      <trkpt lat="40.3620170" lon="-3.8080070">
        <ele>692.8</ele>
        <time>2021-05-08T16:55:45Z</time>
      </trkpt>
      <trkpt lat="40.3620710" lon="-3.8080340">
        <ele>693.4</ele>
        <time>2021-05-08T16:55:46Z</time>
      </trkpt>
      <trkpt lat="40.3621050" lon="-3.8080540">
        <ele>693.8</ele>
        <time>2021-05-08T16:55:47Z</time>
      </trkpt>
      <trkpt lat="40.3621300" lon="-3.8080780">
        <ele>694.1</ele>
        <time>2021-05-08T16:55:49Z</time>
      </trkpt>
      <trkpt lat="40.3621660" lon="-3.8081090">
        <ele>694.5</ele>
        <time>2021-05-08T16:55:51Z</time>
      </trkpt>
      <trkpt lat="40.3622000" lon="-3.8081310">
        <ele>694.8</ele>
        <time>2021-05-08T16:55:52Z</time>
      </trkpt>
      <trkpt lat="40.3622110" lon="-3.8081400">
        <ele>694.9</ele>
        <time>2021-05-08T16:55:53Z</time>
      </trkpt>
      <trkpt lat="40.3622410" lon="-3.8081510">
        <ele>695.2</ele>
        <time>2021-05-08T16:55:54Z</time>
      </trkpt>
      <trkpt lat="40.3622650" lon="-3.8081830">
        <ele>695.4</ele>
        <time>2021-05-08T16:55:56Z</time>
      </trkpt>
      <trkpt lat="40.3622800" lon="-3.8082140">
        <ele>695.6</ele>
        <time>2021-05-08T16:55:57Z</time>
      </trkpt>
      <trkpt lat="40.3623190" lon="-3.8082670">
        <ele>695.9</ele>
        <time>2021-05-08T16:55:58Z</time>
      </trkpt>
      <trkpt lat="40.3623490" lon="-3.8082980">
        <ele>696.1</ele>
        <time>2021-05-08T16:56:00Z</time>
      </trkpt>
      <trkpt lat="40.3623920" lon="-3.8083440">
        <ele>696.3</ele>
        <time>2021-05-08T16:56:01Z</time>
      </trkpt>
      <trkpt lat="40.3624120" lon="-3.8083730">
        <ele>696.3</ele>
        <time>2021-05-08T16:56:03Z</time>
      </trkpt>
      <trkpt lat="40.3624300" lon="-3.8084030">
        <ele>696.4</ele>
        <time>2021-05-08T16:56:04Z</time>
      </trkpt>
      <trkpt lat="40.3624630" lon="-3.8084540">
        <ele>696.5</ele>
        <time>2021-05-08T16:56:05Z</time>
      </trkpt>
      <trkpt lat="40.3624830" lon="-3.8084990">
        <ele>696.5</ele>
        <time>2021-05-08T16:56:06Z</time>
      </trkpt>
      <trkpt lat="40.3624970" lon="-3.8085580">
        <ele>696.5</ele>
        <time>2021-05-08T16:56:08Z</time>
      </trkpt>
      <trkpt lat="40.3625070" lon="-3.8086210">
        <ele>696.5</ele>
        <time>2021-05-08T16:56:09Z</time>
      </trkpt>
      <trkpt lat="40.3625150" lon="-3.8086900">
        <ele>696.5</ele>
        <time>2021-05-08T16:56:11Z</time>
      </trkpt>
      <trkpt lat="40.3625200" lon="-3.8087480">
        <ele>696.5</ele>
        <time>2021-05-08T16:56:12Z</time>
      </trkpt>
      <trkpt lat="40.3625260" lon="-3.8088210">
        <ele>696.4</ele>
        <time>2021-05-08T16:56:13Z</time>
      </trkpt>
      <trkpt lat="40.3625370" lon="-3.8088800">
        <ele>696.4</ele>
        <time>2021-05-08T16:56:14Z</time>
      </trkpt>
      <trkpt lat="40.3625940" lon="-3.8089730">
        <ele>696.2</ele>
        <time>2021-05-08T16:56:16Z</time>
      </trkpt>
      <trkpt lat="40.3626360" lon="-3.8090030">
        <ele>696.1</ele>
        <time>2021-05-08T16:56:17Z</time>
      </trkpt>
      <trkpt lat="40.3627360" lon="-3.8090140">
        <ele>696.1</ele>
        <time>2021-05-08T16:56:19Z</time>
      </trkpt>
      <trkpt lat="40.3627840" lon="-3.8090070">
        <ele>696.1</ele>
        <time>2021-05-08T16:56:20Z</time>
      </trkpt>
      <trkpt lat="40.3628270" lon="-3.8090010">
        <ele>696.1</ele>
        <time>2021-05-08T16:56:21Z</time>
      </trkpt>
      <trkpt lat="40.3629150" lon="-3.8089790">
        <ele>696.1</ele>
        <time>2021-05-08T16:56:23Z</time>
      </trkpt>
      <trkpt lat="40.3629640" lon="-3.8089560">
        <ele>696.2</ele>
        <time>2021-05-08T16:56:24Z</time>
      </trkpt>
      <trkpt lat="40.3630610" lon="-3.8089270">
        <ele>696.3</ele>
        <time>2021-05-08T16:56:26Z</time>
      </trkpt>
      <trkpt lat="40.3631060" lon="-3.8089160">
        <ele>696.3</ele>
        <time>2021-05-08T16:56:27Z</time>
      </trkpt>
      <trkpt lat="40.3631970" lon="-3.8089040">
        <ele>696.5</ele>
        <time>2021-05-08T16:56:29Z</time>
      </trkpt>
      <trkpt lat="40.3632860" lon="-3.8088970">
        <ele>696.6</ele>
        <time>2021-05-08T16:56:31Z</time>
      </trkpt>
      <trkpt lat="40.3633330" lon="-3.8088910">
        <ele>696.7</ele>
        <time>2021-05-08T16:56:32Z</time>
      </trkpt>
      <trkpt lat="40.3633810" lon="-3.8088850">
        <ele>696.8</ele>
        <time>2021-05-08T16:56:33Z</time>
      </trkpt>
      <trkpt lat="40.3634260" lon="-3.8088820">
        <ele>696.9</ele>
        <time>2021-05-08T16:56:34Z</time>
      </trkpt>
      <trkpt lat="40.3635030" lon="-3.8088780">
        <ele>697.0</ele>
        <time>2021-05-08T16:56:36Z</time>
      </trkpt>
      <trkpt lat="40.3636000" lon="-3.8088620">
        <ele>697.2</ele>
        <time>2021-05-08T16:56:38Z</time>
      </trkpt>
      <trkpt lat="40.3636980" lon="-3.8088500">
        <ele>697.4</ele>
        <time>2021-05-08T16:56:40Z</time>
      </trkpt>
      <trkpt lat="40.3637440" lon="-3.8088460">
        <ele>697.5</ele>
        <time>2021-05-08T16:56:41Z</time>
      </trkpt>
      <trkpt lat="40.3637880" lon="-3.8088430">
        <ele>697.6</ele>
        <time>2021-05-08T16:56:42Z</time>
      </trkpt>
      <trkpt lat="40.3638820" lon="-3.8088290">
        <ele>697.7</ele>
        <time>2021-05-08T16:56:44Z</time>
      </trkpt>
      <trkpt lat="40.3639310" lon="-3.8088230">
        <ele>697.8</ele>
        <time>2021-05-08T16:56:45Z</time>
      </trkpt>
      <trkpt lat="40.3639800" lon="-3.8088190">
        <ele>697.8</ele>
        <time>2021-05-08T16:56:46Z</time>
      </trkpt>
      <trkpt lat="40.3640810" lon="-3.8088190">
        <ele>697.9</ele>
        <time>2021-05-08T16:56:48Z</time>
      </trkpt>
      <trkpt lat="40.3641780" lon="-3.8088160">
        <ele>698.0</ele>
        <time>2021-05-08T16:56:50Z</time>
      </trkpt>
      <trkpt lat="40.3642720" lon="-3.8087870">
        <ele>698.0</ele>
        <time>2021-05-08T16:56:52Z</time>
      </trkpt>
      <trkpt lat="40.3643200" lon="-3.8087680">
        <ele>698.0</ele>
        <time>2021-05-08T16:56:53Z</time>
      </trkpt>
      <trkpt lat="40.3644160" lon="-3.8087230">
        <ele>698.1</ele>
        <time>2021-05-08T16:56:55Z</time>
      </trkpt>
      <trkpt lat="40.3644640" lon="-3.8086980">
        <ele>698.1</ele>
        <time>2021-05-08T16:56:56Z</time>
      </trkpt>
      <trkpt lat="40.3645120" lon="-3.8086700">
        <ele>698.0</ele>
        <time>2021-05-08T16:56:57Z</time>
      </trkpt>
      <trkpt lat="40.3646050" lon="-3.8086110">
        <ele>697.9</ele>
        <time>2021-05-08T16:56:59Z</time>
      </trkpt>
      <trkpt lat="40.3646530" lon="-3.8085750">
        <ele>697.9</ele>
        <time>2021-05-08T16:57:00Z</time>
      </trkpt>
      <trkpt lat="40.3647010" lon="-3.8085300">
        <ele>697.8</ele>
        <time>2021-05-08T16:57:01Z</time>
      </trkpt>
      <trkpt lat="40.3648000" lon="-3.8084300">
        <ele>697.7</ele>
        <time>2021-05-08T16:57:03Z</time>
      </trkpt>
      <trkpt lat="40.3648510" lon="-3.8083860">
        <ele>697.6</ele>
        <time>2021-05-08T16:57:04Z</time>
      </trkpt>
      <trkpt lat="40.3649510" lon="-3.8083050">
        <ele>697.5</ele>
        <time>2021-05-08T16:57:06Z</time>
      </trkpt>
      <trkpt lat="40.3650050" lon="-3.8082690">
        <ele>697.5</ele>
        <time>2021-05-08T16:57:07Z</time>
      </trkpt>
      <trkpt lat="40.3650550" lon="-3.8082330">
        <ele>697.5</ele>
        <time>2021-05-08T16:57:08Z</time>
      </trkpt>
      <trkpt lat="40.3651530" lon="-3.8081480">
        <ele>697.5</ele>
        <time>2021-05-08T16:57:10Z</time>
      </trkpt>
      <trkpt lat="40.3652430" lon="-3.8080470">
        <ele>697.5</ele>
        <time>2021-05-08T16:57:12Z</time>
      </trkpt>
      <trkpt lat="40.3653300" lon="-3.8079320">
        <ele>697.6</ele>
        <time>2021-05-08T16:57:14Z</time>
      </trkpt>
      <trkpt lat="40.3653750" lon="-3.8078690">
        <ele>697.7</ele>
        <time>2021-05-08T16:57:15Z</time>
      </trkpt>
      <trkpt lat="40.3654160" lon="-3.8078060">
        <ele>697.7</ele>
        <time>2021-05-08T16:57:16Z</time>
      </trkpt>
      <trkpt lat="40.3655020" lon="-3.8076890">
        <ele>697.9</ele>
        <time>2021-05-08T16:57:18Z</time>
      </trkpt>
      <trkpt lat="40.3655450" lon="-3.8076350">
        <ele>698.0</ele>
        <time>2021-05-08T16:57:19Z</time>
      </trkpt>
      <trkpt lat="40.3655870" lon="-3.8075770">
        <ele>698.1</ele>
        <time>2021-05-08T16:57:20Z</time>
      </trkpt>
      <trkpt lat="40.3656690" lon="-3.8074620">
        <ele>698.3</ele>
        <time>2021-05-08T16:57:22Z</time>
      </trkpt>
      <trkpt lat="40.3657100" lon="-3.8074020">
        <ele>698.4</ele>
        <time>2021-05-08T16:57:23Z</time>
      </trkpt>
      <trkpt lat="40.3657920" lon="-3.8072920">
        <ele>698.7</ele>
        <time>2021-05-08T16:57:25Z</time>
      </trkpt>
      <trkpt lat="40.3658350" lon="-3.8072440">
        <ele>698.8</ele>
        <time>2021-05-08T16:57:26Z</time>
      </trkpt>
      <trkpt lat="40.3658790" lon="-3.8071980">
        <ele>699.0</ele>
        <time>2021-05-08T16:57:27Z</time>
      </trkpt>
      <trkpt lat="40.3659200" lon="-3.8071510">
        <ele>699.1</ele>
        <time>2021-05-08T16:57:28Z</time>
      </trkpt>
      <trkpt lat="40.3659990" lon="-3.8070550">
        <ele>699.1</ele>
        <time>2021-05-08T16:57:30Z</time>
      </trkpt>
      <trkpt lat="40.3660370" lon="-3.8070040">
        <ele>699.2</ele>
        <time>2021-05-08T16:57:31Z</time>
      </trkpt>
      <trkpt lat="40.3660750" lon="-3.8069470">
        <ele>699.2</ele>
        <time>2021-05-08T16:57:32Z</time>
      </trkpt>
      <trkpt lat="40.3661410" lon="-3.8068240">
        <ele>699.2</ele>
        <time>2021-05-08T16:57:34Z</time>
      </trkpt>
      <trkpt lat="40.3662140" lon="-3.8067100">
        <ele>699.2</ele>
        <time>2021-05-08T16:57:36Z</time>
      </trkpt>
      <trkpt lat="40.3662990" lon="-3.8066200">
        <ele>699.3</ele>
        <time>2021-05-08T16:57:38Z</time>
      </trkpt>
      <trkpt lat="40.3663420" lon="-3.8065850">
        <ele>699.3</ele>
        <time>2021-05-08T16:57:39Z</time>
      </trkpt>
      <trkpt lat="40.3664380" lon="-3.8065160">
        <ele>699.3</ele>
        <time>2021-05-08T16:57:41Z</time>
      </trkpt>
      <trkpt lat="40.3664840" lon="-3.8064740">
        <ele>699.4</ele>
        <time>2021-05-08T16:57:42Z</time>
      </trkpt>
      <trkpt lat="40.3665280" lon="-3.8064250">
        <ele>699.4</ele>
        <time>2021-05-08T16:57:43Z</time>
      </trkpt>
      <trkpt lat="40.3666110" lon="-3.8063110">
        <ele>699.6</ele>
        <time>2021-05-08T16:57:45Z</time>
      </trkpt>
      <trkpt lat="40.3666550" lon="-3.8062570">
        <ele>699.7</ele>
        <time>2021-05-08T16:57:46Z</time>
      </trkpt>
      <trkpt lat="40.3667500" lon="-3.8061540">
        <ele>700.0</ele>
        <time>2021-05-08T16:57:48Z</time>
      </trkpt>
      <trkpt lat="40.3668260" lon="-3.8060500">
        <ele>700.4</ele>
        <time>2021-05-08T16:57:50Z</time>
      </trkpt>
      <trkpt lat="40.3668860" lon="-3.8059450">
        <ele>700.6</ele>
        <time>2021-05-08T16:57:52Z</time>
      </trkpt>
      <trkpt lat="40.3669150" lon="-3.8058970">
        <ele>700.7</ele>
        <time>2021-05-08T16:57:53Z</time>
      </trkpt>
      <trkpt lat="40.3669450" lon="-3.8058520">
        <ele>700.8</ele>
        <time>2021-05-08T16:57:54Z</time>
      </trkpt>
      <trkpt lat="40.3670150" lon="-3.8057560">
        <ele>701.0</ele>
        <time>2021-05-08T16:57:56Z</time>
      </trkpt>
      <trkpt lat="40.3670900" lon="-3.8056610">
        <ele>701.2</ele>
        <time>2021-05-08T16:57:58Z</time>
      </trkpt>
      <trkpt lat="40.3671270" lon="-3.8056140">
        <ele>701.3</ele>
        <time>2021-05-08T16:57:59Z</time>
      </trkpt>
      <trkpt lat="40.3671990" lon="-3.8055280">
        <ele>701.5</ele>
        <time>2021-05-08T16:58:01Z</time>
      </trkpt>
      <trkpt lat="40.3672620" lon="-3.8054410">
        <ele>701.6</ele>
        <time>2021-05-08T16:58:03Z</time>
      </trkpt>
      <trkpt lat="40.3673210" lon="-3.8053440">
        <ele>701.8</ele>
        <time>2021-05-08T16:58:05Z</time>
      </trkpt>
      <trkpt lat="40.3673870" lon="-3.8052530">
        <ele>701.9</ele>
        <time>2021-05-08T16:58:07Z</time>
      </trkpt>
      <trkpt lat="40.3674230" lon="-3.8052110">
        <ele>702.0</ele>
        <time>2021-05-08T16:58:08Z</time>
      </trkpt>
      <trkpt lat="40.3674940" lon="-3.8051260">
        <ele>702.1</ele>
        <time>2021-05-08T16:58:10Z</time>
      </trkpt>
      <trkpt lat="40.3675700" lon="-3.8050400">
        <ele>702.2</ele>
        <time>2021-05-08T16:58:12Z</time>
      </trkpt>
      <trkpt lat="40.3676070" lon="-3.8049930">
        <ele>702.3</ele>
        <time>2021-05-08T16:58:13Z</time>
      </trkpt>
      <trkpt lat="40.3676430" lon="-3.8049450">
        <ele>702.3</ele>
        <time>2021-05-08T16:58:14Z</time>
      </trkpt>
      <trkpt lat="40.3677110" lon="-3.8048560">
        <ele>702.5</ele>
        <time>2021-05-08T16:58:16Z</time>
      </trkpt>
      <trkpt lat="40.3677810" lon="-3.8047660">
        <ele>702.6</ele>
        <time>2021-05-08T16:58:18Z</time>
      </trkpt>
      <trkpt lat="40.3678150" lon="-3.8047200">
        <ele>702.6</ele>
        <time>2021-05-08T16:58:19Z</time>
      </trkpt>
      <trkpt lat="40.3678470" lon="-3.8046720">
        <ele>702.7</ele>
        <time>2021-05-08T16:58:20Z</time>
      </trkpt>
      <trkpt lat="40.3678790" lon="-3.8046220">
        <ele>702.7</ele>
        <time>2021-05-08T16:58:21Z</time>
      </trkpt>
      <trkpt lat="40.3679470" lon="-3.8045280">
        <ele>702.8</ele>
        <time>2021-05-08T16:58:23Z</time>
      </trkpt>
      <trkpt lat="40.3679830" lon="-3.8044780">
        <ele>702.9</ele>
        <time>2021-05-08T16:58:24Z</time>
      </trkpt>
      <trkpt lat="40.3680550" lon="-3.8043760">
        <ele>703.0</ele>
        <time>2021-05-08T16:58:26Z</time>
      </trkpt>
      <trkpt lat="40.3681270" lon="-3.8042820">
        <ele>703.1</ele>
        <time>2021-05-08T16:58:28Z</time>
      </trkpt>
      <trkpt lat="40.3682040" lon="-3.8042020">
        <ele>703.4</ele>
        <time>2021-05-08T16:58:30Z</time>
      </trkpt>
      <trkpt lat="40.3682420" lon="-3.8041620">
        <ele>703.6</ele>
        <time>2021-05-08T16:58:31Z</time>
      </trkpt>
      <trkpt lat="40.3682800" lon="-3.8041100">
        <ele>703.9</ele>
        <time>2021-05-08T16:58:33Z</time>
      </trkpt>
      <trkpt lat="40.3682810" lon="-3.8041040">
        <ele>704.1</ele>
        <time>2021-05-08T16:58:35Z</time>
      </trkpt>
      <trkpt lat="40.3682820" lon="-3.8041030">
        <ele>704.1</ele>
        <time>2021-05-08T16:58:37Z</time>
      </trkpt>
      <trkpt lat="40.3682880" lon="-3.8041000">
        <ele>704.2</ele>
        <time>2021-05-08T16:58:38Z</time>
      </trkpt>
      <trkpt lat="40.3682920" lon="-3.8041020">
        <ele>704.2</ele>
        <time>2021-05-08T16:58:39Z</time>
      </trkpt>
      <trkpt lat="40.3682950" lon="-3.8041090">
        <ele>704.2</ele>
        <time>2021-05-08T16:58:40Z</time>
      </trkpt>
      <trkpt lat="40.3683060" lon="-3.8041090">
        <ele>704.2</ele>
        <time>2021-05-08T16:58:42Z</time>
      </trkpt>
      <trkpt lat="40.3683110" lon="-3.8041030">
        <ele>704.2</ele>
        <time>2021-05-08T16:58:43Z</time>
      </trkpt>
      <trkpt lat="40.3683240" lon="-3.8041020">
        <ele>704.2</ele>
        <time>2021-05-08T16:58:44Z</time>
      </trkpt>
      <trkpt lat="40.3683500" lon="-3.8041160">
        <ele>704.3</ele>
        <time>2021-05-08T16:58:46Z</time>
      </trkpt>
      <trkpt lat="40.3683850" lon="-3.8041730">
        <ele>704.3</ele>
        <time>2021-05-08T16:58:47Z</time>
      </trkpt>
      <trkpt lat="40.3684160" lon="-3.8042170">
        <ele>704.3</ele>
        <time>2021-05-08T16:58:49Z</time>
      </trkpt>
      <trkpt lat="40.3684500" lon="-3.8042660">
        <ele>704.4</ele>
        <time>2021-05-08T16:58:50Z</time>
      </trkpt>
      <trkpt lat="40.3684740" lon="-3.8043260">
        <ele>704.4</ele>
        <time>2021-05-08T16:58:52Z</time>
      </trkpt>
      <trkpt lat="40.3684800" lon="-3.8043690">
        <ele>704.4</ele>
        <time>2021-05-08T16:58:53Z</time>
      </trkpt>
      <trkpt lat="40.3684610" lon="-3.8044020">
        <ele>704.4</ele>
        <time>2021-05-08T16:58:54Z</time>
      </trkpt>
      <trkpt lat="40.3684380" lon="-3.8044060">
        <ele>704.5</ele>
        <time>2021-05-08T16:58:56Z</time>
      </trkpt>
      <trkpt lat="40.3684310" lon="-3.8044110">
        <ele>704.5</ele>
        <time>2021-05-08T16:58:57Z</time>
      </trkpt>
      <trkpt lat="40.3684120" lon="-3.8044530">
        <ele>704.5</ele>
        <time>2021-05-08T16:58:59Z</time>
      </trkpt>
      <trkpt lat="40.3684050" lon="-3.8044650">
        <ele>704.5</ele>
        <time>2021-05-08T16:59:00Z</time>
      </trkpt>
      <trkpt lat="40.3683770" lon="-3.8045100">
        <ele>704.6</ele>
        <time>2021-05-08T16:59:01Z</time>
      </trkpt>
      <trkpt lat="40.3683640" lon="-3.8045280">
        <ele>704.6</ele>
        <time>2021-05-08T16:59:02Z</time>
      </trkpt>
      <trkpt lat="40.3683310" lon="-3.8045810">
        <ele>704.7</ele>
        <time>2021-05-08T16:59:03Z</time>
      </trkpt>
      <trkpt lat="40.3682880" lon="-3.8046490">
        <ele>704.9</ele>
        <time>2021-05-08T16:59:05Z</time>
      </trkpt>
      <trkpt lat="40.3682570" lon="-3.8046950">
        <ele>705.0</ele>
        <time>2021-05-08T16:59:06Z</time>
      </trkpt>
      <trkpt lat="40.3682260" lon="-3.8047330">
        <ele>705.1</ele>
        <time>2021-05-08T16:59:07Z</time>
      </trkpt>
      <trkpt lat="40.3681930" lon="-3.8047680">
        <ele>705.2</ele>
        <time>2021-05-08T16:59:09Z</time>
      </trkpt>
      <trkpt lat="40.3681690" lon="-3.8048020">
        <ele>708.6</ele>
        <time>2021-05-08T16:59:10Z</time>
      </trkpt>
      <trkpt lat="40.3681600" lon="-3.8048140">
        <ele>708.6</ele>
        <time>2021-05-08T16:59:11Z</time>
      </trkpt>
      <trkpt lat="40.3681330" lon="-3.8048410">
        <ele>708.8</ele>
        <time>2021-05-08T16:59:12Z</time>
      </trkpt>
      <trkpt lat="40.3681240" lon="-3.8048500">
        <ele>708.8</ele>
        <time>2021-05-08T16:59:13Z</time>
      </trkpt>
      <trkpt lat="40.3681190" lon="-3.8048730">
        <ele>708.9</ele>
        <time>2021-05-08T16:59:16Z</time>
      </trkpt>
      <trkpt lat="40.3681300" lon="-3.8048670">
        <ele>708.9</ele>
        <time>2021-05-08T16:59:17Z</time>
      </trkpt>
      <trkpt lat="40.3681420" lon="-3.8048600">
        <ele>709.0</ele>
        <time>2021-05-08T16:59:18Z</time>
      </trkpt>
      <trkpt lat="40.3681530" lon="-3.8048530">
        <ele>709.0</ele>
        <time>2021-05-08T16:59:19Z</time>
      </trkpt>
      <trkpt lat="40.3681700" lon="-3.8048130">
        <ele>709.1</ele>
        <time>2021-05-08T16:59:20Z</time>
      </trkpt>
      <trkpt lat="40.3681910" lon="-3.8047870">
        <ele>709.1</ele>
        <time>2021-05-08T16:59:21Z</time>
      </trkpt>
      <trkpt lat="40.3682080" lon="-3.8047660">
        <ele>709.1</ele>
        <time>2021-05-08T16:59:23Z</time>
      </trkpt>
      <trkpt lat="40.3682360" lon="-3.8047360">
        <ele>709.2</ele>
        <time>2021-05-08T16:59:25Z</time>
      </trkpt>
      <trkpt lat="40.3682620" lon="-3.8047740">
        <ele>709.2</ele>
        <time>2021-05-08T16:59:26Z</time>
      </trkpt>
      <trkpt lat="40.3682860" lon="-3.8048100">
        <ele>709.2</ele>
        <time>2021-05-08T16:59:27Z</time>
      </trkpt>
      <trkpt lat="40.3683200" lon="-3.8048530">
        <ele>709.1</ele>
        <time>2021-05-08T16:59:29Z</time>
      </trkpt>
      <trkpt lat="40.3683590" lon="-3.8049110">
        <ele>709.0</ele>
        <time>2021-05-08T16:59:31Z</time>
      </trkpt>
      <trkpt lat="40.3683830" lon="-3.8049540">
        <ele>708.8</ele>
        <time>2021-05-08T16:59:32Z</time>
      </trkpt>
      <trkpt lat="40.3684070" lon="-3.8049780">
        <ele>708.7</ele>
        <time>2021-05-08T16:59:33Z</time>
      </trkpt>
      <trkpt lat="40.3684360" lon="-3.8050050">
        <ele>708.5</ele>
        <time>2021-05-08T16:59:34Z</time>
      </trkpt>
      <trkpt lat="40.3684420" lon="-3.8050380">
        <ele>708.4</ele>
        <time>2021-05-08T16:59:35Z</time>
      </trkpt>
      <trkpt lat="40.3683970" lon="-3.8050660">
        <ele>708.0</ele>
        <time>2021-05-08T16:59:37Z</time>
      </trkpt>
      <trkpt lat="40.3683650" lon="-3.8050950">
        <ele>707.7</ele>
        <time>2021-05-08T16:59:38Z</time>
      </trkpt>
      <trkpt lat="40.3683360" lon="-3.8051320">
        <ele>707.4</ele>
        <time>2021-05-08T16:59:39Z</time>
      </trkpt>
      <trkpt lat="40.3683140" lon="-3.8051710">
        <ele>707.1</ele>
        <time>2021-05-08T16:59:40Z</time>
      </trkpt>
      <trkpt lat="40.3683390" lon="-3.8051880">
        <ele>706.8</ele>
        <time>2021-05-08T16:59:42Z</time>
      </trkpt>
      <trkpt lat="40.3683660" lon="-3.8051540">
        <ele>706.5</ele>
        <time>2021-05-08T16:59:43Z</time>
      </trkpt>
      <trkpt lat="40.3684250" lon="-3.8050530">
        <ele>705.7</ele>
        <time>2021-05-08T16:59:45Z</time>
      </trkpt>
      <trkpt lat="40.3685120" lon="-3.8049180">
        <ele>704.4</ele>
        <time>2021-05-08T16:59:47Z</time>
      </trkpt>
      <trkpt lat="40.3686100" lon="-3.8048070">
        <ele>703.9</ele>
        <time>2021-05-08T16:59:49Z</time>
      </trkpt>
      <trkpt lat="40.3686650" lon="-3.8047810">
        <ele>703.6</ele>
        <time>2021-05-08T16:59:50Z</time>
      </trkpt>
      <trkpt lat="40.3687590" lon="-3.8047840">
        <ele>703.3</ele>
        <time>2021-05-08T16:59:52Z</time>
      </trkpt>
      <trkpt lat="40.3688050" lon="-3.8047840">
        <ele>702.9</ele>
        <time>2021-05-08T16:59:53Z</time>
      </trkpt>
      <trkpt lat="40.3688290" lon="-3.8047800">
        <ele>702.8</ele>
        <time>2021-05-08T16:59:54Z</time>
      </trkpt>
      <trkpt lat="40.3688800" lon="-3.8048150">
        <ele>702.6</ele>
        <time>2021-05-08T16:59:56Z</time>
      </trkpt>
      <trkpt lat="40.3689190" lon="-3.8048960">
        <ele>702.3</ele>
        <time>2021-05-08T16:59:57Z</time>
      </trkpt>
      <trkpt lat="40.3689390" lon="-3.8049570">
        <ele>702.2</ele>
        <time>2021-05-08T16:59:58Z</time>
      </trkpt>
      <trkpt lat="40.3689720" lon="-3.8050380">
        <ele>702.0</ele>
        <time>2021-05-08T17:00:00Z</time>
      </trkpt>
      <trkpt lat="40.3690210" lon="-3.8051440">
        <ele>701.9</ele>
        <time>2021-05-08T17:00:02Z</time>
      </trkpt>
      <trkpt lat="40.3690460" lon="-3.8051940">
        <ele>701.8</ele>
        <time>2021-05-08T17:00:03Z</time>
      </trkpt>
      <trkpt lat="40.3690730" lon="-3.8052480">
        <ele>701.8</ele>
        <time>2021-05-08T17:00:04Z</time>
      </trkpt>
      <trkpt lat="40.3691250" lon="-3.8053480">
        <ele>701.8</ele>
        <time>2021-05-08T17:00:06Z</time>
      </trkpt>
      <trkpt lat="40.3691780" lon="-3.8054540">
        <ele>701.8</ele>
        <time>2021-05-08T17:00:08Z</time>
      </trkpt>
      <trkpt lat="40.3692030" lon="-3.8055140">
        <ele>701.8</ele>
        <time>2021-05-08T17:00:09Z</time>
      </trkpt>
      <trkpt lat="40.3692470" lon="-3.8056370">
        <ele>701.8</ele>
        <time>2021-05-08T17:00:11Z</time>
      </trkpt>
      <trkpt lat="40.3692710" lon="-3.8056990">
        <ele>701.8</ele>
        <time>2021-05-08T17:00:12Z</time>
      </trkpt>
      <trkpt lat="40.3692970" lon="-3.8057600">
        <ele>701.8</ele>
        <time>2021-05-08T17:00:13Z</time>
      </trkpt>
      <trkpt lat="40.3693520" lon="-3.8058820">
        <ele>701.8</ele>
        <time>2021-05-08T17:00:15Z</time>
      </trkpt>
      <trkpt lat="40.3693870" lon="-3.8059440">
        <ele>701.9</ele>
        <time>2021-05-08T17:00:16Z</time>
      </trkpt>
      <trkpt lat="40.3694470" lon="-3.8060640">
        <ele>702.0</ele>
        <time>2021-05-08T17:00:18Z</time>
      </trkpt>
      <trkpt lat="40.3695040" lon="-3.8061950">
        <ele>702.1</ele>
        <time>2021-05-08T17:00:20Z</time>
      </trkpt>
      <trkpt lat="40.3695330" lon="-3.8062610">
        <ele>702.2</ele>
        <time>2021-05-08T17:00:21Z</time>
      </trkpt>
      <trkpt lat="40.3695600" lon="-3.8063250">
        <ele>702.2</ele>
        <time>2021-05-08T17:00:22Z</time>
      </trkpt>
      <trkpt lat="40.3695860" lon="-3.8063860">
        <ele>702.3</ele>
        <time>2021-05-08T17:00:23Z</time>
      </trkpt>
      <trkpt lat="40.3696130" lon="-3.8064390">
        <ele>702.4</ele>
        <time>2021-05-08T17:00:24Z</time>
      </trkpt>
      <trkpt lat="40.3696390" lon="-3.8064910">
        <ele>702.5</ele>
        <time>2021-05-08T17:00:25Z</time>
      </trkpt>
      <trkpt lat="40.3696900" lon="-3.8066090">
        <ele>702.7</ele>
        <time>2021-05-08T17:00:27Z</time>
      </trkpt>
      <trkpt lat="40.3697160" lon="-3.8066680">
        <ele>702.8</ele>
        <time>2021-05-08T17:00:28Z</time>
      </trkpt>
      <trkpt lat="40.3697600" lon="-3.8067890">
        <ele>703.0</ele>
        <time>2021-05-08T17:00:30Z</time>
      </trkpt>
      <trkpt lat="40.3697830" lon="-3.8068480">
        <ele>703.1</ele>
        <time>2021-05-08T17:00:31Z</time>
      </trkpt>
      <trkpt lat="40.3698390" lon="-3.8069640">
        <ele>703.4</ele>
        <time>2021-05-08T17:00:33Z</time>
      </trkpt>
      <trkpt lat="40.3698860" lon="-3.8070910">
        <ele>703.6</ele>
        <time>2021-05-08T17:00:35Z</time>
      </trkpt>
      <trkpt lat="40.3699270" lon="-3.8072210">
        <ele>703.9</ele>
        <time>2021-05-08T17:00:37Z</time>
      </trkpt>
      <trkpt lat="40.3699520" lon="-3.8072820">
        <ele>704.0</ele>
        <time>2021-05-08T17:00:38Z</time>
      </trkpt>
      <trkpt lat="40.3699830" lon="-3.8073400">
        <ele>704.1</ele>
        <time>2021-05-08T17:00:39Z</time>
      </trkpt>
      <trkpt lat="40.3700160" lon="-3.8074020">
        <ele>704.3</ele>
        <time>2021-05-08T17:00:40Z</time>
      </trkpt>
      <trkpt lat="40.3700770" lon="-3.8075310">
        <ele>704.5</ele>
        <time>2021-05-08T17:00:42Z</time>
      </trkpt>
      <trkpt lat="40.3701050" lon="-3.8075890">
        <ele>704.6</ele>
        <time>2021-05-08T17:00:43Z</time>
      </trkpt>
      <trkpt lat="40.3701590" lon="-3.8077010">
        <ele>704.8</ele>
        <time>2021-05-08T17:00:45Z</time>
      </trkpt>
      <trkpt lat="40.3701870" lon="-3.8077530">
        <ele>704.9</ele>
        <time>2021-05-08T17:00:46Z</time>
      </trkpt>
      <trkpt lat="40.3702390" lon="-3.8078700">
        <ele>705.1</ele>
        <time>2021-05-08T17:00:48Z</time>
      </trkpt>
      <trkpt lat="40.3702890" lon="-3.8079850">
        <ele>705.3</ele>
        <time>2021-05-08T17:00:50Z</time>
      </trkpt>
      <trkpt lat="40.3703070" lon="-3.8080370">
        <ele>705.4</ele>
        <time>2021-05-08T17:00:51Z</time>
      </trkpt>
      <trkpt lat="40.3703190" lon="-3.8080690">
        <ele>705.4</ele>
        <time>2021-05-08T17:00:52Z</time>
      </trkpt>
      <trkpt lat="40.3703370" lon="-3.8081130">
        <ele>705.5</ele>
        <time>2021-05-08T17:00:53Z</time>
      </trkpt>
      <trkpt lat="40.3703950" lon="-3.8082330">
        <ele>705.7</ele>
        <time>2021-05-08T17:00:55Z</time>
      </trkpt>
      <trkpt lat="40.3704120" lon="-3.8082660">
        <ele>705.7</ele>
        <time>2021-05-08T17:00:56Z</time>
      </trkpt>
      <trkpt lat="40.3704350" lon="-3.8083180">
        <ele>705.8</ele>
        <time>2021-05-08T17:00:57Z</time>
      </trkpt>
      <trkpt lat="40.3704620" lon="-3.8083800">
        <ele>705.8</ele>
        <time>2021-05-08T17:00:58Z</time>
      </trkpt>
      <trkpt lat="40.3704870" lon="-3.8084660">
        <ele>705.9</ele>
        <time>2021-05-08T17:00:59Z</time>
      </trkpt>
      <trkpt lat="40.3705080" lon="-3.8085070">
        <ele>706.0</ele>
        <time>2021-05-08T17:01:00Z</time>
      </trkpt>
      <trkpt lat="40.3705270" lon="-3.8085490">
        <ele>706.0</ele>
        <time>2021-05-08T17:01:02Z</time>
      </trkpt>
      <trkpt lat="40.3705510" lon="-3.8085920">
        <ele>706.0</ele>
        <time>2021-05-08T17:01:03Z</time>
      </trkpt>
      <trkpt lat="40.3705690" lon="-3.8086320">
        <ele>706.1</ele>
        <time>2021-05-08T17:01:04Z</time>
      </trkpt>
      <trkpt lat="40.3705930" lon="-3.8086940">
        <ele>706.1</ele>
        <time>2021-05-08T17:01:05Z</time>
      </trkpt>
      <trkpt lat="40.3706080" lon="-3.8087430">
        <ele>706.2</ele>
        <time>2021-05-08T17:01:07Z</time>
      </trkpt>
      <trkpt lat="40.3706270" lon="-3.8088130">
        <ele>706.2</ele>
        <time>2021-05-08T17:01:08Z</time>
      </trkpt>
      <trkpt lat="40.3706480" lon="-3.8088250">
        <ele>706.2</ele>
        <time>2021-05-08T17:01:10Z</time>
      </trkpt>
      <trkpt lat="40.3706570" lon="-3.8088000">
        <ele>706.2</ele>
        <time>2021-05-08T17:01:11Z</time>
      </trkpt>
      <trkpt lat="40.3706720" lon="-3.8087340">
        <ele>706.2</ele>
        <time>2021-05-08T17:01:12Z</time>
      </trkpt>
      <trkpt lat="40.3706890" lon="-3.8087000">
        <ele>706.2</ele>
        <time>2021-05-08T17:01:13Z</time>
      </trkpt>
      <trkpt lat="40.3707180" lon="-3.8086610">
        <ele>706.3</ele>
        <time>2021-05-08T17:01:15Z</time>
      </trkpt>
      <trkpt lat="40.3707660" lon="-3.8086180">
        <ele>706.2</ele>
        <time>2021-05-08T17:01:16Z</time>
      </trkpt>
      <trkpt lat="40.3708150" lon="-3.8085700">
        <ele>706.1</ele>
        <time>2021-05-08T17:01:17Z</time>
      </trkpt>
      <trkpt lat="40.3708570" lon="-3.8085300">
        <ele>706.0</ele>
        <time>2021-05-08T17:01:19Z</time>
      </trkpt>
      <trkpt lat="40.3709030" lon="-3.8084910">
        <ele>706.0</ele>
        <time>2021-05-08T17:01:20Z</time>
      </trkpt>
      <trkpt lat="40.3709990" lon="-3.8084210">
        <ele>705.9</ele>
        <time>2021-05-08T17:01:22Z</time>
      </trkpt>
      <trkpt lat="40.3710930" lon="-3.8083560">
        <ele>705.8</ele>
        <time>2021-05-08T17:01:24Z</time>
      </trkpt>
      <trkpt lat="40.3711360" lon="-3.8083190">
        <ele>705.8</ele>
        <time>2021-05-08T17:01:25Z</time>
      </trkpt>
      <trkpt lat="40.3712210" lon="-3.8082430">
        <ele>705.7</ele>
        <time>2021-05-08T17:01:27Z</time>
      </trkpt>
      <trkpt lat="40.3712610" lon="-3.8081990">
        <ele>705.6</ele>
        <time>2021-05-08T17:01:28Z</time>
      </trkpt>
      <trkpt lat="40.3713020" lon="-3.8081540">
        <ele>705.6</ele>
        <time>2021-05-08T17:01:29Z</time>
      </trkpt>
      <trkpt lat="40.3713470" lon="-3.8081110">
        <ele>705.5</ele>
        <time>2021-05-08T17:01:30Z</time>
      </trkpt>
      <trkpt lat="40.3714460" lon="-3.8080290">
        <ele>705.4</ele>
        <time>2021-05-08T17:01:32Z</time>
      </trkpt>
      <trkpt lat="40.3714960" lon="-3.8079850">
        <ele>705.3</ele>
        <time>2021-05-08T17:01:33Z</time>
      </trkpt>
      <trkpt lat="40.3715840" lon="-3.8078950">
        <ele>705.0</ele>
        <time>2021-05-08T17:01:35Z</time>
      </trkpt>
      <trkpt lat="40.3716700" lon="-3.8078060">
        <ele>704.8</ele>
        <time>2021-05-08T17:01:37Z</time>
      </trkpt>
      <trkpt lat="40.3717600" lon="-3.8077140">
        <ele>704.7</ele>
        <time>2021-05-08T17:01:39Z</time>
      </trkpt>
      <trkpt lat="40.3718090" lon="-3.8076690">
        <ele>704.6</ele>
        <time>2021-05-08T17:01:40Z</time>
      </trkpt>
      <trkpt lat="40.3718550" lon="-3.8076230">
        <ele>704.6</ele>
        <time>2021-05-08T17:01:41Z</time>
      </trkpt>
      <trkpt lat="40.3719460" lon="-3.8075290">
        <ele>704.5</ele>
        <time>2021-05-08T17:01:43Z</time>
      </trkpt>
      <trkpt lat="40.3719920" lon="-3.8074830">
        <ele>704.5</ele>
        <time>2021-05-08T17:01:44Z</time>
      </trkpt>
      <trkpt lat="40.3720750" lon="-3.8073840">
        <ele>704.5</ele>
        <time>2021-05-08T17:01:46Z</time>
      </trkpt>
      <trkpt lat="40.3721170" lon="-3.8073300">
        <ele>704.5</ele>
        <time>2021-05-08T17:01:47Z</time>
      </trkpt>
      <trkpt lat="40.3721620" lon="-3.8072740">
        <ele>704.5</ele>
        <time>2021-05-08T17:01:48Z</time>
      </trkpt>
      <trkpt lat="40.3722090" lon="-3.8072260">
        <ele>704.5</ele>
        <time>2021-05-08T17:01:49Z</time>
      </trkpt>
      <trkpt lat="40.3723030" lon="-3.8071420">
        <ele>704.4</ele>
        <time>2021-05-08T17:01:51Z</time>
      </trkpt>
      <trkpt lat="40.3723440" lon="-3.8070960">
        <ele>704.4</ele>
        <time>2021-05-08T17:01:52Z</time>
      </trkpt>
      <trkpt lat="40.3723850" lon="-3.8070500">
        <ele>704.4</ele>
        <time>2021-05-08T17:01:53Z</time>
      </trkpt>
      <trkpt lat="40.3724740" lon="-3.8069590">
        <ele>704.4</ele>
        <time>2021-05-08T17:01:55Z</time>
      </trkpt>
      <trkpt lat="40.3725220" lon="-3.8069130">
        <ele>704.4</ele>
        <time>2021-05-08T17:01:56Z</time>
      </trkpt>
      <trkpt lat="40.3726190" lon="-3.8068120">
        <ele>704.4</ele>
        <time>2021-05-08T17:01:58Z</time>
      </trkpt>
      <trkpt lat="40.3726670" lon="-3.8067570">
        <ele>704.4</ele>
        <time>2021-05-08T17:01:59Z</time>
      </trkpt>
      <trkpt lat="40.3727650" lon="-3.8066400">
        <ele>704.4</ele>
        <time>2021-05-08T17:02:01Z</time>
      </trkpt>
      <trkpt lat="40.3728130" lon="-3.8065760">
        <ele>704.3</ele>
        <time>2021-05-08T17:02:02Z</time>
      </trkpt>
      <trkpt lat="40.3729060" lon="-3.8064510">
        <ele>704.1</ele>
        <time>2021-05-08T17:02:04Z</time>
      </trkpt>
      <trkpt lat="40.3729980" lon="-3.8063140">
        <ele>703.8</ele>
        <time>2021-05-08T17:02:06Z</time>
      </trkpt>
      <trkpt lat="40.3730450" lon="-3.8062430">
        <ele>703.7</ele>
        <time>2021-05-08T17:02:07Z</time>
      </trkpt>
      <trkpt lat="40.3731400" lon="-3.8060960">
        <ele>703.4</ele>
        <time>2021-05-08T17:02:09Z</time>
      </trkpt>
      <trkpt lat="40.3732360" lon="-3.8059390">
        <ele>703.2</ele>
        <time>2021-05-08T17:02:11Z</time>
      </trkpt>
      <trkpt lat="40.3733280" lon="-3.8057580">
        <ele>703.1</ele>
        <time>2021-05-08T17:02:13Z</time>
      </trkpt>
      <trkpt lat="40.3733750" lon="-3.8056740">
        <ele>703.1</ele>
        <time>2021-05-08T17:02:14Z</time>
      </trkpt>
      <trkpt lat="40.3734760" lon="-3.8055200">
        <ele>703.2</ele>
        <time>2021-05-08T17:02:16Z</time>
      </trkpt>
      <trkpt lat="40.3735280" lon="-3.8054430">
        <ele>703.3</ele>
        <time>2021-05-08T17:02:17Z</time>
      </trkpt>
      <trkpt lat="40.3736300" lon="-3.8052980">
        <ele>703.5</ele>
        <time>2021-05-08T17:02:19Z</time>
      </trkpt>
      <trkpt lat="40.3737280" lon="-3.8051660">
        <ele>703.8</ele>
        <time>2021-05-08T17:02:21Z</time>
      </trkpt>
      <trkpt lat="40.3737760" lon="-3.8051030">
        <ele>704.0</ele>
        <time>2021-05-08T17:02:22Z</time>
      </trkpt>
      <trkpt lat="40.3738220" lon="-3.8050450">
        <ele>704.1</ele>
        <time>2021-05-08T17:02:23Z</time>
      </trkpt>
      <trkpt lat="40.3739090" lon="-3.8049290">
        <ele>704.2</ele>
        <time>2021-05-08T17:02:25Z</time>
      </trkpt>
      <trkpt lat="40.3739890" lon="-3.8048010">
        <ele>704.3</ele>
        <time>2021-05-08T17:02:27Z</time>
      </trkpt>
      <trkpt lat="40.3740360" lon="-3.8047430">
        <ele>704.3</ele>
        <time>2021-05-08T17:02:28Z</time>
      </trkpt>
      <trkpt lat="40.3741440" lon="-3.8046430">
        <ele>704.2</ele>
        <time>2021-05-08T17:02:30Z</time>
      </trkpt>
      <trkpt lat="40.3741970" lon="-3.8045870">
        <ele>704.2</ele>
        <time>2021-05-08T17:02:31Z</time>
      </trkpt>
      <trkpt lat="40.3742920" lon="-3.8044730">
        <ele>703.9</ele>
        <time>2021-05-08T17:02:33Z</time>
      </trkpt>
      <trkpt lat="40.3743870" lon="-3.8043400">
        <ele>703.5</ele>
        <time>2021-05-08T17:02:35Z</time>
      </trkpt>
      <trkpt lat="40.3744330" lon="-3.8042670">
        <ele>703.2</ele>
        <time>2021-05-08T17:02:36Z</time>
      </trkpt>
      <trkpt lat="40.3745330" lon="-3.8041160">
        <ele>702.6</ele>
        <time>2021-05-08T17:02:38Z</time>
      </trkpt>
      <trkpt lat="40.3745950" lon="-3.8040450">
        <ele>702.2</ele>
        <time>2021-05-08T17:02:39Z</time>
      </trkpt>
      <trkpt lat="40.3747250" lon="-3.8039060">
        <ele>701.4</ele>
        <time>2021-05-08T17:02:41Z</time>
      </trkpt>
      <trkpt lat="40.3748400" lon="-3.8037790">
        <ele>700.7</ele>
        <time>2021-05-08T17:02:43Z</time>
      </trkpt>
      <trkpt lat="40.3749400" lon="-3.8036460">
        <ele>700.1</ele>
        <time>2021-05-08T17:02:45Z</time>
      </trkpt>
      <trkpt lat="40.3749820" lon="-3.8035720">
        <ele>699.8</ele>
        <time>2021-05-08T17:02:46Z</time>
      </trkpt>
      <trkpt lat="40.3750460" lon="-3.8034100">
        <ele>699.5</ele>
        <time>2021-05-08T17:02:48Z</time>
      </trkpt>
      <trkpt lat="40.3750730" lon="-3.8033300">
        <ele>699.3</ele>
        <time>2021-05-08T17:02:49Z</time>
      </trkpt>
      <trkpt lat="40.3750910" lon="-3.8031840">
        <ele>699.2</ele>
        <time>2021-05-08T17:02:51Z</time>
      </trkpt>
      <trkpt lat="40.3750820" lon="-3.8031210">
        <ele>699.1</ele>
        <time>2021-05-08T17:02:52Z</time>
      </trkpt>
      <trkpt lat="40.3750150" lon="-3.8030220">
        <ele>699.0</ele>
        <time>2021-05-08T17:02:54Z</time>
      </trkpt>
      <trkpt lat="40.3749720" lon="-3.8029730">
        <ele>699.0</ele>
        <time>2021-05-08T17:02:55Z</time>
      </trkpt>
      <trkpt lat="40.3749330" lon="-3.8029210">
        <ele>699.0</ele>
        <time>2021-05-08T17:02:56Z</time>
      </trkpt>
      <trkpt lat="40.3748900" lon="-3.8028190">
        <ele>699.0</ele>
        <time>2021-05-08T17:02:58Z</time>
      </trkpt>
      <trkpt lat="40.3748930" lon="-3.8027690">
        <ele>698.5</ele>
        <time>2021-05-08T17:02:59Z</time>
      </trkpt>
      <trkpt lat="40.3749440" lon="-3.8026560">
        <ele>697.8</ele>
        <time>2021-05-08T17:03:01Z</time>
      </trkpt>
      <trkpt lat="40.3749860" lon="-3.8025920">
        <ele>697.4</ele>
        <time>2021-05-08T17:03:02Z</time>
      </trkpt>
      <trkpt lat="40.3750880" lon="-3.8024440">
        <ele>696.6</ele>
        <time>2021-05-08T17:03:04Z</time>
      </trkpt>
      <trkpt lat="40.3752030" lon="-3.8022500">
        <ele>696.4</ele>
        <time>2021-05-08T17:03:06Z</time>
      </trkpt>
      <trkpt lat="40.3752990" lon="-3.8020600">
        <ele>696.6</ele>
        <time>2021-05-08T17:03:08Z</time>
      </trkpt>
      <trkpt lat="40.3753410" lon="-3.8019720">
        <ele>696.9</ele>
        <time>2021-05-08T17:03:09Z</time>
      </trkpt>
      <trkpt lat="40.3753820" lon="-3.8018860">
        <ele>697.1</ele>
        <time>2021-05-08T17:03:10Z</time>
      </trkpt>
      <trkpt lat="40.3754720" lon="-3.8017440">
        <ele>697.6</ele>
        <time>2021-05-08T17:03:12Z</time>
      </trkpt>
      <trkpt lat="40.3755640" lon="-3.8016310">
        <ele>697.9</ele>
        <time>2021-05-08T17:03:14Z</time>
      </trkpt>
      <trkpt lat="40.3756220" lon="-3.8015000">
        <ele>698.2</ele>
        <time>2021-05-08T17:03:16Z</time>
      </trkpt>
      <trkpt lat="40.3757030" lon="-3.8013880">
        <ele>698.6</ele>
        <time>2021-05-08T17:03:18Z</time>
      </trkpt>
      <trkpt lat="40.3757530" lon="-3.8013440">
        <ele>698.8</ele>
        <time>2021-05-08T17:03:19Z</time>
      </trkpt>
      <trkpt lat="40.3758190" lon="-3.8012350">
        <ele>699.1</ele>
        <time>2021-05-08T17:03:21Z</time>
      </trkpt>
      <trkpt lat="40.3758400" lon="-3.8011720">
        <ele>699.2</ele>
        <time>2021-05-08T17:03:22Z</time>
      </trkpt>
      <trkpt lat="40.3759100" lon="-3.8010820">
        <ele>699.4</ele>
        <time>2021-05-08T17:03:24Z</time>
      </trkpt>
      <trkpt lat="40.3759900" lon="-3.8009880">
        <ele>699.5</ele>
        <time>2021-05-08T17:03:26Z</time>
      </trkpt>
      <trkpt lat="40.3760680" lon="-3.8008810">
        <ele>699.6</ele>
        <time>2021-05-08T17:03:28Z</time>
      </trkpt>
      <trkpt lat="40.3761380" lon="-3.8007710">
        <ele>699.7</ele>
        <time>2021-05-08T17:03:30Z</time>
      </trkpt>
      <trkpt lat="40.3761720" lon="-3.8007150">
        <ele>699.7</ele>
        <time>2021-05-08T17:03:31Z</time>
      </trkpt>
      <trkpt lat="40.3762380" lon="-3.8006040">
        <ele>699.8</ele>
        <time>2021-05-08T17:03:33Z</time>
      </trkpt>
      <trkpt lat="40.3762730" lon="-3.8005440">
        <ele>699.8</ele>
        <time>2021-05-08T17:03:34Z</time>
      </trkpt>
      <trkpt lat="40.3763370" lon="-3.8004210">
        <ele>699.8</ele>
        <time>2021-05-08T17:03:36Z</time>
      </trkpt>
      <trkpt lat="40.3763710" lon="-3.8003590">
        <ele>699.8</ele>
        <time>2021-05-08T17:03:37Z</time>
      </trkpt>
      <trkpt lat="40.3764080" lon="-3.8002980">
        <ele>699.8</ele>
        <time>2021-05-08T17:03:38Z</time>
      </trkpt>
      <trkpt lat="40.3764450" lon="-3.8002370">
        <ele>699.7</ele>
        <time>2021-05-08T17:03:39Z</time>
      </trkpt>
      <trkpt lat="40.3765280" lon="-3.8001150">
        <ele>699.6</ele>
        <time>2021-05-08T17:03:41Z</time>
      </trkpt>
      <trkpt lat="40.3766200" lon="-3.8000080">
        <ele>699.4</ele>
        <time>2021-05-08T17:03:43Z</time>
      </trkpt>
      <trkpt lat="40.3767210" lon="-3.7999000">
        <ele>699.1</ele>
        <time>2021-05-08T17:03:45Z</time>
      </trkpt>
      <trkpt lat="40.3768240" lon="-3.7997900">
        <ele>698.9</ele>
        <time>2021-05-08T17:03:47Z</time>
      </trkpt>
      <trkpt lat="40.3769070" lon="-3.7996650">
        <ele>698.7</ele>
        <time>2021-05-08T17:03:49Z</time>
      </trkpt>
      <trkpt lat="40.3769500" lon="-3.7995990">
        <ele>698.6</ele>
        <time>2021-05-08T17:03:50Z</time>
      </trkpt>
      <trkpt lat="40.3770390" lon="-3.7994690">
        <ele>698.5</ele>
        <time>2021-05-08T17:03:52Z</time>
      </trkpt>
      <trkpt lat="40.3771230" lon="-3.7993300">
        <ele>698.3</ele>
        <time>2021-05-08T17:03:54Z</time>
      </trkpt>
      <trkpt lat="40.3771610" lon="-3.7992520">
        <ele>698.2</ele>
        <time>2021-05-08T17:03:55Z</time>
      </trkpt>
      <trkpt lat="40.3772490" lon="-3.7991190">
        <ele>698.1</ele>
        <time>2021-05-08T17:03:57Z</time>
      </trkpt>
      <trkpt lat="40.3773340" lon="-3.7990020">
        <ele>698.1</ele>
        <time>2021-05-08T17:03:59Z</time>
      </trkpt>
      <trkpt lat="40.3774020" lon="-3.7988730">
        <ele>698.1</ele>
        <time>2021-05-08T17:04:01Z</time>
      </trkpt>
      <trkpt lat="40.3774330" lon="-3.7988040">
        <ele>698.1</ele>
        <time>2021-05-08T17:04:02Z</time>
      </trkpt>
      <trkpt lat="40.3774930" lon="-3.7986750">
        <ele>698.1</ele>
        <time>2021-05-08T17:04:04Z</time>
      </trkpt>
      <trkpt lat="40.3775310" lon="-3.7986260">
        <ele>698.2</ele>
        <time>2021-05-08T17:04:05Z</time>
      </trkpt>
      <trkpt lat="40.3776130" lon="-3.7985530">
        <ele>698.2</ele>
        <time>2021-05-08T17:04:07Z</time>
      </trkpt>
      <trkpt lat="40.3776620" lon="-3.7985160">
        <ele>698.2</ele>
        <time>2021-05-08T17:04:09Z</time>
      </trkpt>
      <trkpt lat="40.3776770" lon="-3.7984330">
        <ele>698.1</ele>
        <time>2021-05-08T17:04:11Z</time>
      </trkpt>
      <trkpt lat="40.3776620" lon="-3.7983870">
        <ele>698.0</ele>
        <time>2021-05-08T17:04:12Z</time>
      </trkpt>
      <trkpt lat="40.3776340" lon="-3.7983300">
        <ele>698.0</ele>
        <time>2021-05-08T17:04:13Z</time>
      </trkpt>
      <trkpt lat="40.3775720" lon="-3.7982360">
        <ele>697.8</ele>
        <time>2021-05-08T17:04:15Z</time>
      </trkpt>
      <trkpt lat="40.3775630" lon="-3.7981720">
        <ele>697.7</ele>
        <time>2021-05-08T17:04:17Z</time>
      </trkpt>
      <trkpt lat="40.3775900" lon="-3.7981270">
        <ele>697.7</ele>
        <time>2021-05-08T17:04:18Z</time>
      </trkpt>
      <trkpt lat="40.3777060" lon="-3.7980200">
        <ele>697.7</ele>
        <time>2021-05-08T17:04:20Z</time>
      </trkpt>
      <trkpt lat="40.3777860" lon="-3.7979070">
        <ele>697.8</ele>
        <time>2021-05-08T17:04:22Z</time>
      </trkpt>
      <trkpt lat="40.3778190" lon="-3.7978570">
        <ele>697.9</ele>
        <time>2021-05-08T17:04:23Z</time>
      </trkpt>
      <trkpt lat="40.3778880" lon="-3.7977600">
        <ele>697.9</ele>
        <time>2021-05-08T17:04:25Z</time>
      </trkpt>
      <trkpt lat="40.3779250" lon="-3.7977100">
        <ele>698.0</ele>
        <time>2021-05-08T17:04:26Z</time>
      </trkpt>
      <trkpt lat="40.3779970" lon="-3.7976120">
        <ele>698.1</ele>
        <time>2021-05-08T17:04:28Z</time>
      </trkpt>
      <trkpt lat="40.3780320" lon="-3.7975610">
        <ele>698.2</ele>
        <time>2021-05-08T17:04:29Z</time>
      </trkpt>
      <trkpt lat="40.3781030" lon="-3.7974610">
        <ele>698.3</ele>
        <time>2021-05-08T17:04:31Z</time>
      </trkpt>
      <trkpt lat="40.3781700" lon="-3.7973510">
        <ele>698.4</ele>
        <time>2021-05-08T17:04:33Z</time>
      </trkpt>
      <trkpt lat="40.3782440" lon="-3.7972470">
        <ele>698.4</ele>
        <time>2021-05-08T17:04:35Z</time>
      </trkpt>
      <trkpt lat="40.3782840" lon="-3.7971910">
        <ele>698.5</ele>
        <time>2021-05-08T17:04:36Z</time>
      </trkpt>
      <trkpt lat="40.3783250" lon="-3.7971370">
        <ele>698.5</ele>
        <time>2021-05-08T17:04:37Z</time>
      </trkpt>
      <trkpt lat="40.3783640" lon="-3.7970830">
        <ele>698.6</ele>
        <time>2021-05-08T17:04:38Z</time>
      </trkpt>
      <trkpt lat="40.3784010" lon="-3.7970360">
        <ele>698.6</ele>
        <time>2021-05-08T17:04:39Z</time>
      </trkpt>
      <trkpt lat="40.3784800" lon="-3.7969350">
        <ele>698.7</ele>
        <time>2021-05-08T17:04:41Z</time>
      </trkpt>
      <trkpt lat="40.3785560" lon="-3.7968310">
        <ele>698.8</ele>
        <time>2021-05-08T17:04:43Z</time>
      </trkpt>
      <trkpt lat="40.3785940" lon="-3.7967850">
        <ele>698.8</ele>
        <time>2021-05-08T17:04:44Z</time>
      </trkpt>
      <trkpt lat="40.3786720" lon="-3.7966850">
        <ele>698.8</ele>
        <time>2021-05-08T17:04:46Z</time>
      </trkpt>
      <trkpt lat="40.3787140" lon="-3.7966410">
        <ele>698.9</ele>
        <time>2021-05-08T17:04:47Z</time>
      </trkpt>
      <trkpt lat="40.3787970" lon="-3.7965400">
        <ele>698.9</ele>
        <time>2021-05-08T17:04:49Z</time>
      </trkpt>
      <trkpt lat="40.3788870" lon="-3.7964320">
        <ele>698.9</ele>
        <time>2021-05-08T17:04:51Z</time>
      </trkpt>
      <trkpt lat="40.3789330" lon="-3.7963680">
        <ele>698.8</ele>
        <time>2021-05-08T17:04:52Z</time>
      </trkpt>
      <trkpt lat="40.3789760" lon="-3.7963010">
        <ele>698.8</ele>
        <time>2021-05-08T17:04:53Z</time>
      </trkpt>
      <trkpt lat="40.3790600" lon="-3.7961740">
        <ele>698.8</ele>
        <time>2021-05-08T17:04:55Z</time>
      </trkpt>
      <trkpt lat="40.3791030" lon="-3.7961150">
        <ele>698.7</ele>
        <time>2021-05-08T17:04:56Z</time>
      </trkpt>
      <trkpt lat="40.3791920" lon="-3.7960010">
        <ele>698.6</ele>
        <time>2021-05-08T17:04:58Z</time>
      </trkpt>
      <trkpt lat="40.3792370" lon="-3.7959410">
        <ele>698.5</ele>
        <time>2021-05-08T17:04:59Z</time>
      </trkpt>
      <trkpt lat="40.3793290" lon="-3.7958250">
        <ele>698.4</ele>
        <time>2021-05-08T17:05:01Z</time>
      </trkpt>
      <trkpt lat="40.3794270" lon="-3.7956970">
        <ele>698.3</ele>
        <time>2021-05-08T17:05:03Z</time>
      </trkpt>
      <trkpt lat="40.3794760" lon="-3.7956300">
        <ele>698.3</ele>
        <time>2021-05-08T17:05:04Z</time>
      </trkpt>
      <trkpt lat="40.3795710" lon="-3.7955020">
        <ele>698.1</ele>
        <time>2021-05-08T17:05:06Z</time>
      </trkpt>
      <trkpt lat="40.3796180" lon="-3.7954350">
        <ele>698.1</ele>
        <time>2021-05-08T17:05:07Z</time>
      </trkpt>
      <trkpt lat="40.3797070" lon="-3.7953030">
        <ele>697.9</ele>
        <time>2021-05-08T17:05:09Z</time>
      </trkpt>
      <trkpt lat="40.3798010" lon="-3.7951870">
        <ele>697.8</ele>
        <time>2021-05-08T17:05:11Z</time>
      </trkpt>
      <trkpt lat="40.3798980" lon="-3.7950700">
        <ele>697.7</ele>
        <time>2021-05-08T17:05:13Z</time>
      </trkpt>
      <trkpt lat="40.3799510" lon="-3.7950080">
        <ele>697.6</ele>
        <time>2021-05-08T17:05:14Z</time>
      </trkpt>
      <trkpt lat="40.3800510" lon="-3.7948790">
        <ele>697.5</ele>
        <time>2021-05-08T17:05:16Z</time>
      </trkpt>
      <trkpt lat="40.3800990" lon="-3.7948180">
        <ele>697.4</ele>
        <time>2021-05-08T17:05:17Z</time>
      </trkpt>
      <trkpt lat="40.3801770" lon="-3.7946890">
        <ele>697.3</ele>
        <time>2021-05-08T17:05:19Z</time>
      </trkpt>
      <trkpt lat="40.3802170" lon="-3.7946250">
        <ele>697.3</ele>
        <time>2021-05-08T17:05:20Z</time>
      </trkpt>
      <trkpt lat="40.3803150" lon="-3.7945110">
        <ele>697.3</ele>
        <time>2021-05-08T17:05:22Z</time>
      </trkpt>
      <trkpt lat="40.3803630" lon="-3.7944550">
        <ele>697.3</ele>
        <time>2021-05-08T17:05:23Z</time>
      </trkpt>
      <trkpt lat="40.3804110" lon="-3.7943980">
        <ele>697.3</ele>
        <time>2021-05-08T17:05:24Z</time>
      </trkpt>
      <trkpt lat="40.3804560" lon="-3.7943410">
        <ele>697.3</ele>
        <time>2021-05-08T17:05:25Z</time>
      </trkpt>
      <trkpt lat="40.3804970" lon="-3.7942780">
        <ele>697.4</ele>
        <time>2021-05-08T17:05:26Z</time>
      </trkpt>
      <trkpt lat="40.3805840" lon="-3.7941630">
        <ele>697.5</ele>
        <time>2021-05-08T17:05:28Z</time>
      </trkpt>
      <trkpt lat="40.3806320" lon="-3.7941070">
        <ele>697.5</ele>
        <time>2021-05-08T17:05:29Z</time>
      </trkpt>
      <trkpt lat="40.3807210" lon="-3.7939940">
        <ele>697.6</ele>
        <time>2021-05-08T17:05:31Z</time>
      </trkpt>
      <trkpt lat="40.3807660" lon="-3.7939380">
        <ele>697.6</ele>
        <time>2021-05-08T17:05:32Z</time>
      </trkpt>
      <trkpt lat="40.3808530" lon="-3.7938260">
        <ele>697.7</ele>
        <time>2021-05-08T17:05:34Z</time>
      </trkpt>
      <trkpt lat="40.3808980" lon="-3.7937670">
        <ele>697.7</ele>
        <time>2021-05-08T17:05:35Z</time>
      </trkpt>
      <trkpt lat="40.3809420" lon="-3.7937100">
        <ele>697.7</ele>
        <time>2021-05-08T17:05:36Z</time>
      </trkpt>
      <trkpt lat="40.3810270" lon="-3.7936040">
        <ele>697.7</ele>
        <time>2021-05-08T17:05:38Z</time>
      </trkpt>
      <trkpt lat="40.3810700" lon="-3.7935480">
        <ele>697.7</ele>
        <time>2021-05-08T17:05:39Z</time>
      </trkpt>
      <trkpt lat="40.3811560" lon="-3.7934330">
        <ele>697.7</ele>
        <time>2021-05-08T17:05:41Z</time>
      </trkpt>
      <trkpt lat="40.3812000" lon="-3.7933740">
        <ele>697.7</ele>
        <time>2021-05-08T17:05:42Z</time>
      </trkpt>
      <trkpt lat="40.3812920" lon="-3.7932530">
        <ele>697.7</ele>
        <time>2021-05-08T17:05:44Z</time>
      </trkpt>
      <trkpt lat="40.3813860" lon="-3.7931270">
        <ele>697.5</ele>
        <time>2021-05-08T17:05:46Z</time>
      </trkpt>
      <trkpt lat="40.3814340" lon="-3.7930670">
        <ele>697.4</ele>
        <time>2021-05-08T17:05:47Z</time>
      </trkpt>
      <trkpt lat="40.3815230" lon="-3.7929410">
        <ele>697.1</ele>
        <time>2021-05-08T17:05:49Z</time>
      </trkpt>
      <trkpt lat="40.3816070" lon="-3.7928190">
        <ele>696.8</ele>
        <time>2021-05-08T17:05:51Z</time>
      </trkpt>
      <trkpt lat="40.3816530" lon="-3.7927570">
        <ele>696.7</ele>
        <time>2021-05-08T17:05:52Z</time>
      </trkpt>
      <trkpt lat="40.3817520" lon="-3.7926400">
        <ele>696.3</ele>
        <time>2021-05-08T17:05:54Z</time>
      </trkpt>
      <trkpt lat="40.3818520" lon="-3.7925070">
        <ele>695.7</ele>
        <time>2021-05-08T17:05:56Z</time>
      </trkpt>
      <trkpt lat="40.3819570" lon="-3.7923640">
        <ele>695.0</ele>
        <time>2021-05-08T17:05:58Z</time>
      </trkpt>
      <trkpt lat="40.3820170" lon="-3.7923030">
        <ele>694.7</ele>
        <time>2021-05-08T17:05:59Z</time>
      </trkpt>
      <trkpt lat="40.3821360" lon="-3.7921630">
        <ele>693.8</ele>
        <time>2021-05-08T17:06:01Z</time>
      </trkpt>
      <trkpt lat="40.3822660" lon="-3.7920200">
        <ele>693.1</ele>
        <time>2021-05-08T17:06:03Z</time>
      </trkpt>
      <trkpt lat="40.3823310" lon="-3.7919410">
        <ele>692.7</ele>
        <time>2021-05-08T17:06:04Z</time>
      </trkpt>
      <trkpt lat="40.3823930" lon="-3.7918580">
        <ele>692.5</ele>
        <time>2021-05-08T17:06:05Z</time>
      </trkpt>
      <trkpt lat="40.3824500" lon="-3.7917710">
        <ele>692.2</ele>
        <time>2021-05-08T17:06:06Z</time>
      </trkpt>
      <trkpt lat="40.3825610" lon="-3.7916090">
        <ele>691.8</ele>
        <time>2021-05-08T17:06:08Z</time>
      </trkpt>
      <trkpt lat="40.3826230" lon="-3.7915290">
        <ele>691.5</ele>
        <time>2021-05-08T17:06:09Z</time>
      </trkpt>
      <trkpt lat="40.3827370" lon="-3.7913680">
        <ele>691.1</ele>
        <time>2021-05-08T17:06:11Z</time>
      </trkpt>
      <trkpt lat="40.3827930" lon="-3.7912870">
        <ele>690.9</ele>
        <time>2021-05-08T17:06:12Z</time>
      </trkpt>
      <trkpt lat="40.3829140" lon="-3.7911180">
        <ele>690.8</ele>
        <time>2021-05-08T17:06:14Z</time>
      </trkpt>
      <trkpt lat="40.3829720" lon="-3.7910330">
        <ele>690.8</ele>
        <time>2021-05-08T17:06:15Z</time>
      </trkpt>
      <trkpt lat="40.3830310" lon="-3.7909500">
        <ele>690.6</ele>
        <time>2021-05-08T17:06:16Z</time>
      </trkpt>
      <trkpt lat="40.3831170" lon="-3.7907720">
        <ele>690.3</ele>
        <time>2021-05-08T17:06:18Z</time>
      </trkpt>
      <trkpt lat="40.3831310" lon="-3.7905620">
        <ele>690.0</ele>
        <time>2021-05-08T17:06:20Z</time>
      </trkpt>
      <trkpt lat="40.3830780" lon="-3.7903730">
        <ele>689.8</ele>
        <time>2021-05-08T17:06:22Z</time>
      </trkpt>
      <trkpt lat="40.3829910" lon="-3.7902170">
        <ele>689.5</ele>
        <time>2021-05-08T17:06:24Z</time>
      </trkpt>
      <trkpt lat="40.3829010" lon="-3.7900550">
        <ele>689.3</ele>
        <time>2021-05-08T17:06:26Z</time>
      </trkpt>
      <trkpt lat="40.3828140" lon="-3.7898800">
        <ele>689.0</ele>
        <time>2021-05-08T17:06:28Z</time>
      </trkpt>
      <trkpt lat="40.3827690" lon="-3.7897930">
        <ele>688.9</ele>
        <time>2021-05-08T17:06:29Z</time>
      </trkpt>
      <trkpt lat="40.3826820" lon="-3.7896210">
        <ele>688.7</ele>
        <time>2021-05-08T17:06:31Z</time>
      </trkpt>
      <trkpt lat="40.3826050" lon="-3.7894520">
        <ele>688.6</ele>
        <time>2021-05-08T17:06:33Z</time>
      </trkpt>
      <trkpt lat="40.3825350" lon="-3.7892820">
        <ele>688.4</ele>
        <time>2021-05-08T17:06:35Z</time>
      </trkpt>
      <trkpt lat="40.3824990" lon="-3.7891980">
        <ele>688.3</ele>
        <time>2021-05-08T17:06:36Z</time>
      </trkpt>
      <trkpt lat="40.3824620" lon="-3.7891110">
        <ele>688.2</ele>
        <time>2021-05-08T17:06:37Z</time>
      </trkpt>
      <trkpt lat="40.3823850" lon="-3.7889550">
        <ele>687.9</ele>
        <time>2021-05-08T17:06:39Z</time>
      </trkpt>
      <trkpt lat="40.3823250" lon="-3.7887900">
        <ele>687.7</ele>
        <time>2021-05-08T17:06:41Z</time>
      </trkpt>
      <trkpt lat="40.3822910" lon="-3.7887070">
        <ele>687.5</ele>
        <time>2021-05-08T17:06:42Z</time>
      </trkpt>
      <trkpt lat="40.3822540" lon="-3.7886300">
        <ele>687.3</ele>
        <time>2021-05-08T17:06:43Z</time>
      </trkpt>
      <trkpt lat="40.3822110" lon="-3.7885550">
        <ele>687.1</ele>
        <time>2021-05-08T17:06:44Z</time>
      </trkpt>
      <trkpt lat="40.3821600" lon="-3.7884850">
        <ele>686.9</ele>
        <time>2021-05-08T17:06:45Z</time>
      </trkpt>
      <trkpt lat="40.3820320" lon="-3.7883600">
        <ele>686.4</ele>
        <time>2021-05-08T17:06:47Z</time>
      </trkpt>
      <trkpt lat="40.3819690" lon="-3.7882900">
        <ele>686.1</ele>
        <time>2021-05-08T17:06:48Z</time>
      </trkpt>
      <trkpt lat="40.3818670" lon="-3.7881160">
        <ele>685.6</ele>
        <time>2021-05-08T17:06:50Z</time>
      </trkpt>
      <trkpt lat="40.3817740" lon="-3.7879310">
        <ele>685.3</ele>
        <time>2021-05-08T17:06:52Z</time>
      </trkpt>
      <trkpt lat="40.3817280" lon="-3.7878350">
        <ele>685.2</ele>
        <time>2021-05-08T17:06:53Z</time>
      </trkpt>
      <trkpt lat="40.3816810" lon="-3.7877430">
        <ele>685.1</ele>
        <time>2021-05-08T17:06:54Z</time>
      </trkpt>
      <trkpt lat="40.3815910" lon="-3.7875680">
        <ele>685.0</ele>
        <time>2021-05-08T17:06:56Z</time>
      </trkpt>
      <trkpt lat="40.3815530" lon="-3.7874860">
        <ele>685.0</ele>
        <time>2021-05-08T17:06:57Z</time>
      </trkpt>
      <trkpt lat="40.3814610" lon="-3.7873410">
        <ele>685.1</ele>
        <time>2021-05-08T17:06:59Z</time>
      </trkpt>
      <trkpt lat="40.3814160" lon="-3.7872770">
        <ele>685.2</ele>
        <time>2021-05-08T17:07:00Z</time>
      </trkpt>
      <trkpt lat="40.3813850" lon="-3.7872110">
        <ele>685.2</ele>
        <time>2021-05-08T17:07:01Z</time>
      </trkpt>
      <trkpt lat="40.3813560" lon="-3.7871430">
        <ele>685.3</ele>
        <time>2021-05-08T17:07:02Z</time>
      </trkpt>
      <trkpt lat="40.3812980" lon="-3.7870190">
        <ele>685.5</ele>
        <time>2021-05-08T17:07:04Z</time>
      </trkpt>
      <trkpt lat="40.3812310" lon="-3.7869060">
        <ele>685.8</ele>
        <time>2021-05-08T17:07:06Z</time>
      </trkpt>
      <trkpt lat="40.3812020" lon="-3.7868490">
        <ele>686.0</ele>
        <time>2021-05-08T17:07:07Z</time>
      </trkpt>
      <trkpt lat="40.3811490" lon="-3.7867360">
        <ele>686.5</ele>
        <time>2021-05-08T17:07:09Z</time>
      </trkpt>
      <trkpt lat="40.3811240" lon="-3.7866860">
        <ele>686.7</ele>
        <time>2021-05-08T17:07:10Z</time>
      </trkpt>
      <trkpt lat="40.3810860" lon="-3.7865990">
        <ele>686.9</ele>
        <time>2021-05-08T17:07:12Z</time>
      </trkpt>
      <trkpt lat="40.3810360" lon="-3.7864950">
        <ele>687.2</ele>
        <time>2021-05-08T17:07:14Z</time>
      </trkpt>
      <trkpt lat="40.3809870" lon="-3.7864040">
        <ele>687.6</ele>
        <time>2021-05-08T17:07:16Z</time>
      </trkpt>
      <trkpt lat="40.3809600" lon="-3.7863540">
        <ele>687.9</ele>
        <time>2021-05-08T17:07:17Z</time>
      </trkpt>
      <trkpt lat="40.3809310" lon="-3.7863060">
        <ele>688.1</ele>
        <time>2021-05-08T17:07:18Z</time>
      </trkpt>
      <trkpt lat="40.3809150" lon="-3.7862770">
        <ele>688.3</ele>
        <time>2021-05-08T17:07:20Z</time>
      </trkpt>
      <trkpt lat="40.3809000" lon="-3.7862490">
        <ele>688.4</ele>
        <time>2021-05-08T17:07:21Z</time>
      </trkpt>
      <trkpt lat="40.3808550" lon="-3.7861670">
        <ele>688.9</ele>
        <time>2021-05-08T17:07:23Z</time>
      </trkpt>
      <trkpt lat="40.3808040" lon="-3.7860650">
        <ele>689.4</ele>
        <time>2021-05-08T17:07:25Z</time>
      </trkpt>
      <trkpt lat="40.3807790" lon="-3.7860150">
        <ele>689.7</ele>
        <time>2021-05-08T17:07:26Z</time>
      </trkpt>
      <trkpt lat="40.3807390" lon="-3.7859320">
        <ele>690.2</ele>
        <time>2021-05-08T17:07:27Z</time>
      </trkpt>
      <trkpt lat="40.3807070" lon="-3.7858850">
        <ele>690.5</ele>
        <time>2021-05-08T17:07:29Z</time>
      </trkpt>
      <trkpt lat="40.3806760" lon="-3.7858380">
        <ele>690.7</ele>
        <time>2021-05-08T17:07:30Z</time>
      </trkpt>
      <trkpt lat="40.3806470" lon="-3.7857940">
        <ele>691.0</ele>
        <time>2021-05-08T17:07:31Z</time>
      </trkpt>
      <trkpt lat="40.3806150" lon="-3.7857370">
        <ele>691.2</ele>
        <time>2021-05-08T17:07:33Z</time>
      </trkpt>
      <trkpt lat="40.3805940" lon="-3.7856930">
        <ele>691.4</ele>
        <time>2021-05-08T17:07:34Z</time>
      </trkpt>
      <trkpt lat="40.3805460" lon="-3.7856010">
        <ele>691.8</ele>
        <time>2021-05-08T17:07:36Z</time>
      </trkpt>
      <trkpt lat="40.3804920" lon="-3.7855130">
        <ele>692.2</ele>
        <time>2021-05-08T17:07:38Z</time>
      </trkpt>
      <trkpt lat="40.3804420" lon="-3.7854310">
        <ele>692.5</ele>
        <time>2021-05-08T17:07:40Z</time>
      </trkpt>
      <trkpt lat="40.3803900" lon="-3.7853470">
        <ele>692.7</ele>
        <time>2021-05-08T17:07:42Z</time>
      </trkpt>
      <trkpt lat="40.3803600" lon="-3.7853060">
        <ele>692.8</ele>
        <time>2021-05-08T17:07:43Z</time>
      </trkpt>
      <trkpt lat="40.3803160" lon="-3.7852600">
        <ele>693.0</ele>
        <time>2021-05-08T17:07:44Z</time>
      </trkpt>
      <trkpt lat="40.3802670" lon="-3.7852090">
        <ele>693.1</ele>
        <time>2021-05-08T17:07:46Z</time>
      </trkpt>
      <trkpt lat="40.3802370" lon="-3.7851770">
        <ele>693.1</ele>
        <time>2021-05-08T17:07:47Z</time>
      </trkpt>
      <trkpt lat="40.3801680" lon="-3.7851070">
        <ele>693.2</ele>
        <time>2021-05-08T17:07:49Z</time>
      </trkpt>
      <trkpt lat="40.3801050" lon="-3.7850400">
        <ele>693.3</ele>
        <time>2021-05-08T17:07:51Z</time>
      </trkpt>
      <trkpt lat="40.3800380" lon="-3.7849760">
        <ele>693.2</ele>
        <time>2021-05-08T17:07:53Z</time>
      </trkpt>
      <trkpt lat="40.3799560" lon="-3.7849100">
        <ele>693.1</ele>
        <time>2021-05-08T17:07:55Z</time>
      </trkpt>
      <trkpt lat="40.3799190" lon="-3.7848760">
        <ele>692.9</ele>
        <time>2021-05-08T17:07:56Z</time>
      </trkpt>
      <trkpt lat="40.3798820" lon="-3.7848550">
        <ele>692.8</ele>
        <time>2021-05-08T17:07:57Z</time>
      </trkpt>
      <trkpt lat="40.3798420" lon="-3.7848230">
        <ele>692.7</ele>
        <time>2021-05-08T17:07:58Z</time>
      </trkpt>
      <trkpt lat="40.3797600" lon="-3.7847580">
        <ele>692.3</ele>
        <time>2021-05-08T17:08:00Z</time>
      </trkpt>
      <trkpt lat="40.3797140" lon="-3.7847240">
        <ele>692.0</ele>
        <time>2021-05-08T17:08:01Z</time>
      </trkpt>
      <trkpt lat="40.3796040" lon="-3.7846650">
        <ele>691.5</ele>
        <time>2021-05-08T17:08:03Z</time>
      </trkpt>
      <trkpt lat="40.3794910" lon="-3.7846110">
        <ele>690.9</ele>
        <time>2021-05-08T17:08:05Z</time>
      </trkpt>
      <trkpt lat="40.3793690" lon="-3.7845550">
        <ele>690.3</ele>
        <time>2021-05-08T17:08:07Z</time>
      </trkpt>
      <trkpt lat="40.3792470" lon="-3.7845000">
        <ele>689.8</ele>
        <time>2021-05-08T17:08:09Z</time>
      </trkpt>
      <trkpt lat="40.3791170" lon="-3.7844450">
        <ele>689.5</ele>
        <time>2021-05-08T17:08:11Z</time>
      </trkpt>
      <trkpt lat="40.3790530" lon="-3.7844200">
        <ele>689.4</ele>
        <time>2021-05-08T17:08:12Z</time>
      </trkpt>
      <trkpt lat="40.3789880" lon="-3.7843900">
        <ele>689.3</ele>
        <time>2021-05-08T17:08:13Z</time>
      </trkpt>
      <trkpt lat="40.3789220" lon="-3.7843590">
        <ele>689.3</ele>
        <time>2021-05-08T17:08:14Z</time>
      </trkpt>
      <trkpt lat="40.3787870" lon="-3.7843040">
        <ele>689.2</ele>
        <time>2021-05-08T17:08:16Z</time>
      </trkpt>
      <trkpt lat="40.3787250" lon="-3.7842730">
        <ele>689.2</ele>
        <time>2021-05-08T17:08:17Z</time>
      </trkpt>
      <trkpt lat="40.3786620" lon="-3.7842400">
        <ele>689.3</ele>
        <time>2021-05-08T17:08:18Z</time>
      </trkpt>
      <trkpt lat="40.3785430" lon="-3.7841760">
        <ele>689.5</ele>
        <time>2021-05-08T17:08:20Z</time>
      </trkpt>
      <trkpt lat="40.3784850" lon="-3.7841470">
        <ele>689.7</ele>
        <time>2021-05-08T17:08:21Z</time>
      </trkpt>
      <trkpt lat="40.3784300" lon="-3.7841180">
        <ele>689.8</ele>
        <time>2021-05-08T17:08:22Z</time>
      </trkpt>
      <trkpt lat="40.3783320" lon="-3.7840670">
        <ele>690.1</ele>
        <time>2021-05-08T17:08:24Z</time>
      </trkpt>
      <trkpt lat="40.3782470" lon="-3.7840200">
        <ele>690.4</ele>
        <time>2021-05-08T17:08:26Z</time>
      </trkpt>
      <trkpt lat="40.3781940" lon="-3.7839880">
        <ele>690.6</ele>
        <time>2021-05-08T17:08:28Z</time>
      </trkpt>
      <trkpt lat="40.3781540" lon="-3.7839660">
        <ele>690.8</ele>
        <time>2021-05-08T17:08:29Z</time>
      </trkpt>
      <trkpt lat="40.3780910" lon="-3.7839390">
        <ele>691.0</ele>
        <time>2021-05-08T17:08:31Z</time>
      </trkpt>
      <trkpt lat="40.3780610" lon="-3.7839230">
        <ele>691.1</ele>
        <time>2021-05-08T17:08:32Z</time>
      </trkpt>
      <trkpt lat="40.3780490" lon="-3.7839160">
        <ele>691.2</ele>
        <time>2021-05-08T17:08:33Z</time>
      </trkpt>
      <trkpt lat="40.3780240" lon="-3.7838980">
        <ele>691.3</ele>
        <time>2021-05-08T17:08:34Z</time>
      </trkpt>
      <trkpt lat="40.3780110" lon="-3.7838880">
        <ele>691.3</ele>
        <time>2021-05-08T17:08:36Z</time>
      </trkpt>
      <trkpt lat="40.3780000" lon="-3.7838820">
        <ele>691.3</ele>
        <time>2021-05-08T17:08:37Z</time>
      </trkpt>
      <trkpt lat="40.3779890" lon="-3.7838760">
        <ele>691.4</ele>
        <time>2021-05-08T17:08:39Z</time>
      </trkpt>
      <trkpt lat="40.3779780" lon="-3.7838700">
        <ele>691.4</ele>
        <time>2021-05-08T17:08:41Z</time>
      </trkpt>
      <trkpt lat="40.3779670" lon="-3.7838650">
        <ele>691.4</ele>
        <time>2021-05-08T17:08:42Z</time>
      </trkpt>
      <trkpt lat="40.3779560" lon="-3.7838590">
        <ele>691.5</ele>
        <time>2021-05-08T17:08:44Z</time>
      </trkpt>
      <trkpt lat="40.3779450" lon="-3.7838530">
        <ele>691.5</ele>
        <time>2021-05-08T17:08:46Z</time>
      </trkpt>
      <trkpt lat="40.3779340" lon="-3.7838470">
        <ele>691.5</ele>
        <time>2021-05-08T17:08:56Z</time>
      </trkpt>
      <trkpt lat="40.3779230" lon="-3.7838410">
        <ele>691.5</ele>
        <time>2021-05-08T17:08:57Z</time>
      </trkpt>
      <trkpt lat="40.3778680" lon="-3.7838150">
        <ele>691.6</ele>
        <time>2021-05-08T17:08:58Z</time>
      </trkpt>
      <trkpt lat="40.3778190" lon="-3.7837940">
        <ele>691.7</ele>
        <time>2021-05-08T17:08:59Z</time>
      </trkpt>
      <trkpt lat="40.3777480" lon="-3.7837730">
        <ele>691.7</ele>
        <time>2021-05-08T17:09:01Z</time>
      </trkpt>
      <trkpt lat="40.3776810" lon="-3.7837390">
        <ele>691.8</ele>
        <time>2021-05-08T17:09:03Z</time>
      </trkpt>
      <trkpt lat="40.3775960" lon="-3.7836710">
        <ele>691.9</ele>
        <time>2021-05-08T17:09:05Z</time>
      </trkpt>
      <trkpt lat="40.3775060" lon="-3.7836070">
        <ele>692.0</ele>
        <time>2021-05-08T17:09:07Z</time>
      </trkpt>
      <trkpt lat="40.3774610" lon="-3.7835730">
        <ele>692.1</ele>
        <time>2021-05-08T17:09:08Z</time>
      </trkpt>
      <trkpt lat="40.3773730" lon="-3.7834980">
        <ele>692.2</ele>
        <time>2021-05-08T17:09:10Z</time>
      </trkpt>
      <trkpt lat="40.3772820" lon="-3.7834310">
        <ele>692.3</ele>
        <time>2021-05-08T17:09:12Z</time>
      </trkpt>
      <trkpt lat="40.3771910" lon="-3.7833530">
        <ele>692.3</ele>
        <time>2021-05-08T17:09:14Z</time>
      </trkpt>
      <trkpt lat="40.3770970" lon="-3.7832840">
        <ele>692.2</ele>
        <time>2021-05-08T17:09:16Z</time>
      </trkpt>
      <trkpt lat="40.3770000" lon="-3.7832240">
        <ele>692.2</ele>
        <time>2021-05-08T17:09:18Z</time>
      </trkpt>
      <trkpt lat="40.3769500" lon="-3.7831960">
        <ele>692.2</ele>
        <time>2021-05-08T17:09:19Z</time>
      </trkpt>
      <trkpt lat="40.3768520" lon="-3.7831260">
        <ele>692.1</ele>
        <time>2021-05-08T17:09:21Z</time>
      </trkpt>
      <trkpt lat="40.3767370" lon="-3.7830630">
        <ele>691.9</ele>
        <time>2021-05-08T17:09:23Z</time>
      </trkpt>
      <trkpt lat="40.3766850" lon="-3.7830240">
        <ele>691.9</ele>
        <time>2021-05-08T17:09:24Z</time>
      </trkpt>
      <trkpt lat="40.3766360" lon="-3.7829770">
        <ele>691.8</ele>
        <time>2021-05-08T17:09:25Z</time>
      </trkpt>
      <trkpt lat="40.3765330" lon="-3.7828840">
        <ele>691.7</ele>
        <time>2021-05-08T17:09:27Z</time>
      </trkpt>
      <trkpt lat="40.3764190" lon="-3.7827790">
        <ele>691.6</ele>
        <time>2021-05-08T17:09:29Z</time>
      </trkpt>
      <trkpt lat="40.3763080" lon="-3.7826550">
        <ele>691.5</ele>
        <time>2021-05-08T17:09:31Z</time>
      </trkpt>
      <trkpt lat="40.3762560" lon="-3.7825970">
        <ele>691.5</ele>
        <time>2021-05-08T17:09:32Z</time>
      </trkpt>
      <trkpt lat="40.3762070" lon="-3.7825360">
        <ele>691.4</ele>
        <time>2021-05-08T17:09:33Z</time>
      </trkpt>
      <trkpt lat="40.3761040" lon="-3.7824060">
        <ele>691.2</ele>
        <time>2021-05-08T17:09:35Z</time>
      </trkpt>
      <trkpt lat="40.3760060" lon="-3.7822690">
        <ele>690.9</ele>
        <time>2021-05-08T17:09:37Z</time>
      </trkpt>
      <trkpt lat="40.3759590" lon="-3.7822020">
        <ele>690.8</ele>
        <time>2021-05-08T17:09:38Z</time>
      </trkpt>
      <trkpt lat="40.3759150" lon="-3.7821310">
        <ele>690.6</ele>
        <time>2021-05-08T17:09:39Z</time>
      </trkpt>
      <trkpt lat="40.3758350" lon="-3.7819860">
        <ele>690.4</ele>
        <time>2021-05-08T17:09:41Z</time>
      </trkpt>
      <trkpt lat="40.3757990" lon="-3.7819180">
        <ele>690.2</ele>
        <time>2021-05-08T17:09:42Z</time>
      </trkpt>
      <trkpt lat="40.3757570" lon="-3.7818320">
        <ele>690.1</ele>
        <time>2021-05-08T17:09:44Z</time>
      </trkpt>
      <trkpt lat="40.3757420" lon="-3.7818000">
        <ele>690.0</ele>
        <time>2021-05-08T17:09:45Z</time>
      </trkpt>
      <trkpt lat="40.3757280" lon="-3.7817610">
        <ele>689.9</ele>
        <time>2021-05-08T17:09:47Z</time>
      </trkpt>
      <trkpt lat="40.3757280" lon="-3.7817610">
        <ele>689.9</ele>
        <time>2021-05-08T17:09:49Z</time>
      </trkpt>
      <trkpt lat="40.3757310" lon="-3.7817550">
        <ele>689.9</ele>
        <time>2021-05-08T17:09:50Z</time>
      </trkpt>
      <trkpt lat="40.3757310" lon="-3.7817560">
        <ele>689.9</ele>
        <time>2021-05-08T17:09:51Z</time>
      </trkpt>
      <trkpt lat="40.3757300" lon="-3.7817560">
        <ele>689.9</ele>
        <time>2021-05-08T17:09:52Z</time>
      </trkpt>
      <trkpt lat="40.3757320" lon="-3.7817570">
        <ele>689.9</ele>
        <time>2021-05-08T17:09:53Z</time>
      </trkpt>
      <trkpt lat="40.3757350" lon="-3.7817620">
        <ele>689.9</ele>
        <time>2021-05-08T17:09:55Z</time>
      </trkpt>
      <trkpt lat="40.3757380" lon="-3.7817640">
        <ele>689.9</ele>
        <time>2021-05-08T17:09:57Z</time>
      </trkpt>
      <trkpt lat="40.3757100" lon="-3.7816780">
        <ele>689.7</ele>
        <time>2021-05-08T17:10:21Z</time>
      </trkpt>
      <trkpt lat="40.3756980" lon="-3.7816400">
        <ele>689.6</ele>
        <time>2021-05-08T17:10:22Z</time>
      </trkpt>
      <trkpt lat="40.3756880" lon="-3.7815960">
        <ele>689.5</ele>
        <time>2021-05-08T17:10:23Z</time>
      </trkpt>
      <trkpt lat="40.3756690" lon="-3.7815380">
        <ele>689.4</ele>
        <time>2021-05-08T17:10:24Z</time>
      </trkpt>
      <trkpt lat="40.3756400" lon="-3.7814210">
        <ele>689.2</ele>
        <time>2021-05-08T17:10:26Z</time>
      </trkpt>
      <trkpt lat="40.3756090" lon="-3.7812820">
        <ele>688.9</ele>
        <time>2021-05-08T17:10:28Z</time>
      </trkpt>
      <trkpt lat="40.3755740" lon="-3.7811220">
        <ele>688.5</ele>
        <time>2021-05-08T17:10:30Z</time>
      </trkpt>
      <trkpt lat="40.3755400" lon="-3.7809440">
        <ele>688.1</ele>
        <time>2021-05-08T17:10:32Z</time>
      </trkpt>
      <trkpt lat="40.3755210" lon="-3.7808480">
        <ele>687.9</ele>
        <time>2021-05-08T17:10:33Z</time>
      </trkpt>
      <trkpt lat="40.3754890" lon="-3.7806560">
        <ele>687.6</ele>
        <time>2021-05-08T17:10:35Z</time>
      </trkpt>
      <trkpt lat="40.3754740" lon="-3.7805580">
        <ele>687.4</ele>
        <time>2021-05-08T17:10:36Z</time>
      </trkpt>
      <trkpt lat="40.3754590" lon="-3.7804560">
        <ele>687.3</ele>
        <time>2021-05-08T17:10:37Z</time>
      </trkpt>
      <trkpt lat="40.3754440" lon="-3.7803550">
        <ele>687.1</ele>
        <time>2021-05-08T17:10:38Z</time>
      </trkpt>
      <trkpt lat="40.3754120" lon="-3.7801540">
        <ele>686.9</ele>
        <time>2021-05-08T17:10:40Z</time>
      </trkpt>
      <trkpt lat="40.3753870" lon="-3.7799580">
        <ele>686.7</ele>
        <time>2021-05-08T17:10:42Z</time>
      </trkpt>
      <trkpt lat="40.3753710" lon="-3.7798650">
        <ele>686.6</ele>
        <time>2021-05-08T17:10:43Z</time>
      </trkpt>
      <trkpt lat="40.3753440" lon="-3.7796800">
        <ele>686.4</ele>
        <time>2021-05-08T17:10:45Z</time>
      </trkpt>
      <trkpt lat="40.3753210" lon="-3.7794990">
        <ele>686.2</ele>
        <time>2021-05-08T17:10:47Z</time>
      </trkpt>
      <trkpt lat="40.3753100" lon="-3.7794090">
        <ele>686.1</ele>
        <time>2021-05-08T17:10:48Z</time>
      </trkpt>
      <trkpt lat="40.3752860" lon="-3.7792280">
        <ele>685.9</ele>
        <time>2021-05-08T17:10:50Z</time>
      </trkpt>
      <trkpt lat="40.3752740" lon="-3.7791380">
        <ele>685.8</ele>
        <time>2021-05-08T17:10:51Z</time>
      </trkpt>
      <trkpt lat="40.3752390" lon="-3.7789650">
        <ele>685.7</ele>
        <time>2021-05-08T17:10:53Z</time>
      </trkpt>
      <trkpt lat="40.3752180" lon="-3.7788820">
        <ele>685.6</ele>
        <time>2021-05-08T17:10:54Z</time>
      </trkpt>
      <trkpt lat="40.3752030" lon="-3.7787940">
        <ele>685.5</ele>
        <time>2021-05-08T17:10:55Z</time>
      </trkpt>
      <trkpt lat="40.3751770" lon="-3.7786280">
        <ele>685.4</ele>
        <time>2021-05-08T17:10:57Z</time>
      </trkpt>
      <trkpt lat="40.3751440" lon="-3.7784640">
        <ele>685.3</ele>
        <time>2021-05-08T17:10:59Z</time>
      </trkpt>
      <trkpt lat="40.3751320" lon="-3.7783800">
        <ele>685.2</ele>
        <time>2021-05-08T17:11:00Z</time>
      </trkpt>
      <trkpt lat="40.3751040" lon="-3.7782220">
        <ele>685.1</ele>
        <time>2021-05-08T17:11:02Z</time>
      </trkpt>
      <trkpt lat="40.3750740" lon="-3.7780640">
        <ele>685.0</ele>
        <time>2021-05-08T17:11:04Z</time>
      </trkpt>
      <trkpt lat="40.3750600" lon="-3.7779880">
        <ele>684.9</ele>
        <time>2021-05-08T17:11:05Z</time>
      </trkpt>
      <trkpt lat="40.3750290" lon="-3.7778290">
        <ele>684.8</ele>
        <time>2021-05-08T17:11:07Z</time>
      </trkpt>
      <trkpt lat="40.3749990" lon="-3.7776660">
        <ele>684.5</ele>
        <time>2021-05-08T17:11:09Z</time>
      </trkpt>
      <trkpt lat="40.3749700" lon="-3.7774980">
        <ele>684.3</ele>
        <time>2021-05-08T17:11:11Z</time>
      </trkpt>
      <trkpt lat="40.3749610" lon="-3.7774140">
        <ele>684.2</ele>
        <time>2021-05-08T17:11:12Z</time>
      </trkpt>
      <trkpt lat="40.3749440" lon="-3.7772530">
        <ele>684.0</ele>
        <time>2021-05-08T17:11:14Z</time>
      </trkpt>
      <trkpt lat="40.3749320" lon="-3.7771720">
        <ele>683.9</ele>
        <time>2021-05-08T17:11:15Z</time>
      </trkpt>
      <trkpt lat="40.3749080" lon="-3.7769990">
        <ele>683.8</ele>
        <time>2021-05-08T17:11:17Z</time>
      </trkpt>
      <trkpt lat="40.3748960" lon="-3.7769080">
        <ele>683.7</ele>
        <time>2021-05-08T17:11:18Z</time>
      </trkpt>
      <trkpt lat="40.3748670" lon="-3.7767300">
        <ele>683.7</ele>
        <time>2021-05-08T17:11:20Z</time>
      </trkpt>
      <trkpt lat="40.3748540" lon="-3.7766460">
        <ele>683.6</ele>
        <time>2021-05-08T17:11:21Z</time>
      </trkpt>
      <trkpt lat="40.3748320" lon="-3.7764600">
        <ele>683.7</ele>
        <time>2021-05-08T17:11:23Z</time>
      </trkpt>
      <trkpt lat="40.3748210" lon="-3.7763640">
        <ele>683.6</ele>
        <time>2021-05-08T17:11:24Z</time>
      </trkpt>
      <trkpt lat="40.3748090" lon="-3.7762730">
        <ele>683.4</ele>
        <time>2021-05-08T17:11:25Z</time>
      </trkpt>
      <trkpt lat="40.3747760" lon="-3.7760830">
        <ele>683.1</ele>
        <time>2021-05-08T17:11:27Z</time>
      </trkpt>
      <trkpt lat="40.3747400" lon="-3.7758900">
        <ele>682.8</ele>
        <time>2021-05-08T17:11:29Z</time>
      </trkpt>
      <trkpt lat="40.3747060" lon="-3.7756880">
        <ele>682.4</ele>
        <time>2021-05-08T17:11:31Z</time>
      </trkpt>
      <trkpt lat="40.3746690" lon="-3.7754870">
        <ele>682.1</ele>
        <time>2021-05-08T17:11:33Z</time>
      </trkpt>
      <trkpt lat="40.3746460" lon="-3.7753830">
        <ele>681.9</ele>
        <time>2021-05-08T17:11:34Z</time>
      </trkpt>
      <trkpt lat="40.3746080" lon="-3.7751760">
        <ele>681.7</ele>
        <time>2021-05-08T17:11:36Z</time>
      </trkpt>
      <trkpt lat="40.3745810" lon="-3.7749740">
        <ele>681.4</ele>
        <time>2021-05-08T17:11:38Z</time>
      </trkpt>
      <trkpt lat="40.3745570" lon="-3.7747760">
        <ele>681.1</ele>
        <time>2021-05-08T17:11:40Z</time>
      </trkpt>
      <trkpt lat="40.3745410" lon="-3.7746770">
        <ele>681.0</ele>
        <time>2021-05-08T17:11:41Z</time>
      </trkpt>
      <trkpt lat="40.3745220" lon="-3.7745740">
        <ele>680.8</ele>
        <time>2021-05-08T17:11:42Z</time>
      </trkpt>
      <trkpt lat="40.3744840" lon="-3.7743580">
        <ele>680.4</ele>
        <time>2021-05-08T17:11:44Z</time>
      </trkpt>
      <trkpt lat="40.3744670" lon="-3.7742520">
        <ele>680.2</ele>
        <time>2021-05-08T17:11:45Z</time>
      </trkpt>
      <trkpt lat="40.3744320" lon="-3.7740480">
        <ele>679.9</ele>
        <time>2021-05-08T17:11:47Z</time>
      </trkpt>
      <trkpt lat="40.3744210" lon="-3.7739400">
        <ele>679.7</ele>
        <time>2021-05-08T17:11:48Z</time>
      </trkpt>
      <trkpt lat="40.3743990" lon="-3.7737360">
        <ele>679.5</ele>
        <time>2021-05-08T17:11:50Z</time>
      </trkpt>
      <trkpt lat="40.3743740" lon="-3.7735700">
        <ele>679.4</ele>
        <time>2021-05-08T17:11:52Z</time>
      </trkpt>
      <trkpt lat="40.3743600" lon="-3.7735140">
        <ele>679.4</ele>
        <time>2021-05-08T17:11:53Z</time>
      </trkpt>
      <trkpt lat="40.3743470" lon="-3.7734920">
        <ele>679.4</ele>
        <time>2021-05-08T17:11:54Z</time>
      </trkpt>
      <trkpt lat="40.3743300" lon="-3.7734700">
        <ele>679.4</ele>
        <time>2021-05-08T17:11:56Z</time>
      </trkpt>
      <trkpt lat="40.3743280" lon="-3.7734750">
        <ele>679.4</ele>
        <time>2021-05-08T17:11:57Z</time>
      </trkpt>
      <trkpt lat="40.3743290" lon="-3.7734790">
        <ele>679.4</ele>
        <time>2021-05-08T17:11:59Z</time>
      </trkpt>
      <trkpt lat="40.3743300" lon="-3.7734800">
        <ele>679.4</ele>
        <time>2021-05-08T17:12:00Z</time>
      </trkpt>
      <trkpt lat="40.3743300" lon="-3.7734810">
        <ele>679.4</ele>
        <time>2021-05-08T17:12:02Z</time>
      </trkpt>
      <trkpt lat="40.3743300" lon="-3.7734810">
        <ele>679.4</ele>
        <time>2021-05-08T17:12:03Z</time>
      </trkpt>
      <trkpt lat="40.3743300" lon="-3.7734810">
        <ele>679.4</ele>
        <time>2021-05-08T17:12:04Z</time>
      </trkpt>
      <trkpt lat="40.3743300" lon="-3.7734810">
        <ele>679.4</ele>
        <time>2021-05-08T17:12:06Z</time>
      </trkpt>
      <trkpt lat="40.3743300" lon="-3.7734810">
        <ele>679.4</ele>
        <time>2021-05-08T17:12:07Z</time>
      </trkpt>
      <trkpt lat="40.3743140" lon="-3.7733910">
        <ele>679.4</ele>
        <time>2021-05-08T17:12:36Z</time>
      </trkpt>
      <trkpt lat="40.3742980" lon="-3.7733170">
        <ele>679.4</ele>
        <time>2021-05-08T17:12:38Z</time>
      </trkpt>
      <trkpt lat="40.3742930" lon="-3.7732670">
        <ele>679.4</ele>
        <time>2021-05-08T17:12:39Z</time>
      </trkpt>
      <trkpt lat="40.3742820" lon="-3.7732010">
        <ele>679.4</ele>
        <time>2021-05-08T17:12:40Z</time>
      </trkpt>
      <trkpt lat="40.3742620" lon="-3.7731000">
        <ele>679.4</ele>
        <time>2021-05-08T17:12:42Z</time>
      </trkpt>
      <trkpt lat="40.3742490" lon="-3.7729930">
        <ele>679.4</ele>
        <time>2021-05-08T17:12:44Z</time>
      </trkpt>
      <trkpt lat="40.3742350" lon="-3.7729200">
        <ele>679.4</ele>
        <time>2021-05-08T17:12:45Z</time>
      </trkpt>
      <trkpt lat="40.3742190" lon="-3.7728360">
        <ele>679.4</ele>
        <time>2021-05-08T17:12:46Z</time>
      </trkpt>
      <trkpt lat="40.3741910" lon="-3.7726730">
        <ele>679.4</ele>
        <time>2021-05-08T17:12:48Z</time>
      </trkpt>
      <trkpt lat="40.3741780" lon="-3.7725980">
        <ele>679.4</ele>
        <time>2021-05-08T17:12:49Z</time>
      </trkpt>
      <trkpt lat="40.3741490" lon="-3.7724480">
        <ele>679.4</ele>
        <time>2021-05-08T17:12:51Z</time>
      </trkpt>
      <trkpt lat="40.3741260" lon="-3.7722900">
        <ele>679.5</ele>
        <time>2021-05-08T17:12:53Z</time>
      </trkpt>
      <trkpt lat="40.3741170" lon="-3.7722140">
        <ele>679.5</ele>
        <time>2021-05-08T17:12:54Z</time>
      </trkpt>
      <trkpt lat="40.3740970" lon="-3.7720570">
        <ele>679.5</ele>
        <time>2021-05-08T17:12:56Z</time>
      </trkpt>
      <trkpt lat="40.3740680" lon="-3.7718970">
        <ele>679.5</ele>
        <time>2021-05-08T17:12:58Z</time>
      </trkpt>
      <trkpt lat="40.3740430" lon="-3.7717430">
        <ele>679.5</ele>
        <time>2021-05-08T17:13:00Z</time>
      </trkpt>
      <trkpt lat="40.3740180" lon="-3.7715850">
        <ele>679.5</ele>
        <time>2021-05-08T17:13:02Z</time>
      </trkpt>
      <trkpt lat="40.3740060" lon="-3.7714980">
        <ele>679.6</ele>
        <time>2021-05-08T17:13:03Z</time>
      </trkpt>
      <trkpt lat="40.3739930" lon="-3.7714140">
        <ele>679.6</ele>
        <time>2021-05-08T17:13:04Z</time>
      </trkpt>
      <trkpt lat="40.3739680" lon="-3.7712600">
        <ele>679.7</ele>
        <time>2021-05-08T17:13:06Z</time>
      </trkpt>
      <trkpt lat="40.3739560" lon="-3.7711840">
        <ele>679.7</ele>
        <time>2021-05-08T17:13:07Z</time>
      </trkpt>
      <trkpt lat="40.3739260" lon="-3.7710340">
        <ele>679.9</ele>
        <time>2021-05-08T17:13:09Z</time>
      </trkpt>
      <trkpt lat="40.3739050" lon="-3.7708820">
        <ele>680.3</ele>
        <time>2021-05-08T17:13:11Z</time>
      </trkpt>
      <trkpt lat="40.3738920" lon="-3.7708120">
        <ele>680.4</ele>
        <time>2021-05-08T17:13:12Z</time>
      </trkpt>
      <trkpt lat="40.3738640" lon="-3.7706770">
        <ele>680.6</ele>
        <time>2021-05-08T17:13:14Z</time>
      </trkpt>
      <trkpt lat="40.3738530" lon="-3.7706060">
        <ele>680.7</ele>
        <time>2021-05-08T17:13:15Z</time>
      </trkpt>
      <trkpt lat="40.3738440" lon="-3.7705330">
        <ele>680.8</ele>
        <time>2021-05-08T17:13:16Z</time>
      </trkpt>
      <trkpt lat="40.3738350" lon="-3.7704620">
        <ele>680.8</ele>
        <time>2021-05-08T17:13:17Z</time>
      </trkpt>
      <trkpt lat="40.3738170" lon="-3.7703240">
        <ele>680.9</ele>
        <time>2021-05-08T17:13:19Z</time>
      </trkpt>
      <trkpt lat="40.3738060" lon="-3.7702570">
        <ele>681.0</ele>
        <time>2021-05-08T17:13:20Z</time>
      </trkpt>
      <trkpt lat="40.3737860" lon="-3.7701230">
        <ele>681.2</ele>
        <time>2021-05-08T17:13:22Z</time>
      </trkpt>
      <trkpt lat="40.3737750" lon="-3.7700540">
        <ele>681.2</ele>
        <time>2021-05-08T17:13:23Z</time>
      </trkpt>
      <trkpt lat="40.3737540" lon="-3.7699170">
        <ele>681.4</ele>
        <time>2021-05-08T17:13:25Z</time>
      </trkpt>
      <trkpt lat="40.3737460" lon="-3.7698490">
        <ele>681.5</ele>
        <time>2021-05-08T17:13:26Z</time>
      </trkpt>
      <trkpt lat="40.3737300" lon="-3.7697130">
        <ele>681.6</ele>
        <time>2021-05-08T17:13:28Z</time>
      </trkpt>
      <trkpt lat="40.3737190" lon="-3.7696450">
        <ele>681.6</ele>
        <time>2021-05-08T17:13:29Z</time>
      </trkpt>
      <trkpt lat="40.3736900" lon="-3.7695080">
        <ele>681.8</ele>
        <time>2021-05-08T17:13:31Z</time>
      </trkpt>
      <trkpt lat="40.3736690" lon="-3.7693670">
        <ele>682.0</ele>
        <time>2021-05-08T17:13:33Z</time>
      </trkpt>
      <trkpt lat="40.3736530" lon="-3.7692250">
        <ele>682.1</ele>
        <time>2021-05-08T17:13:35Z</time>
      </trkpt>
      <trkpt lat="40.3736370" lon="-3.7690820">
        <ele>682.2</ele>
        <time>2021-05-08T17:13:37Z</time>
      </trkpt>
      <trkpt lat="40.3736100" lon="-3.7689380">
        <ele>682.4</ele>
        <time>2021-05-08T17:13:39Z</time>
      </trkpt>
      <trkpt lat="40.3735790" lon="-3.7688000">
        <ele>682.6</ele>
        <time>2021-05-08T17:13:41Z</time>
      </trkpt>
      <trkpt lat="40.3735610" lon="-3.7687300">
        <ele>682.7</ele>
        <time>2021-05-08T17:13:42Z</time>
      </trkpt>
      <trkpt lat="40.3735320" lon="-3.7685940">
        <ele>682.9</ele>
        <time>2021-05-08T17:13:44Z</time>
      </trkpt>
      <trkpt lat="40.3735100" lon="-3.7684530">
        <ele>683.0</ele>
        <time>2021-05-08T17:13:46Z</time>
      </trkpt>
      <trkpt lat="40.3734890" lon="-3.7683180">
        <ele>683.2</ele>
        <time>2021-05-08T17:13:48Z</time>
      </trkpt>
      <trkpt lat="40.3734790" lon="-3.7682540">
        <ele>683.2</ele>
        <time>2021-05-08T17:13:49Z</time>
      </trkpt>
      <trkpt lat="40.3734640" lon="-3.7681190">
        <ele>683.4</ele>
        <time>2021-05-08T17:13:51Z</time>
      </trkpt>
      <trkpt lat="40.3734570" lon="-3.7680490">
        <ele>683.4</ele>
        <time>2021-05-08T17:13:52Z</time>
      </trkpt>
      <trkpt lat="40.3734270" lon="-3.7679190">
        <ele>683.4</ele>
        <time>2021-05-08T17:13:54Z</time>
      </trkpt>
      <trkpt lat="40.3734110" lon="-3.7677800">
        <ele>683.4</ele>
        <time>2021-05-08T17:13:56Z</time>
      </trkpt>
      <trkpt lat="40.3733960" lon="-3.7677080">
        <ele>683.4</ele>
        <time>2021-05-08T17:13:57Z</time>
      </trkpt>
      <trkpt lat="40.3733710" lon="-3.7675620">
        <ele>683.4</ele>
        <time>2021-05-08T17:13:59Z</time>
      </trkpt>
      <trkpt lat="40.3733610" lon="-3.7674880">
        <ele>683.4</ele>
        <time>2021-05-08T17:14:00Z</time>
      </trkpt>
      <trkpt lat="40.3733480" lon="-3.7673380">
        <ele>683.3</ele>
        <time>2021-05-08T17:14:02Z</time>
      </trkpt>
      <trkpt lat="40.3733270" lon="-3.7672010">
        <ele>683.3</ele>
        <time>2021-05-08T17:14:04Z</time>
      </trkpt>
      <trkpt lat="40.3733030" lon="-3.7670540">
        <ele>683.1</ele>
        <time>2021-05-08T17:14:06Z</time>
      </trkpt>
      <trkpt lat="40.3732770" lon="-3.7668990">
        <ele>683.0</ele>
        <time>2021-05-08T17:14:08Z</time>
      </trkpt>
      <trkpt lat="40.3732550" lon="-3.7667410">
        <ele>682.8</ele>
        <time>2021-05-08T17:14:10Z</time>
      </trkpt>
      <trkpt lat="40.3732510" lon="-3.7666550">
        <ele>682.7</ele>
        <time>2021-05-08T17:14:11Z</time>
      </trkpt>
      <trkpt lat="40.3732350" lon="-3.7664920">
        <ele>682.6</ele>
        <time>2021-05-08T17:14:13Z</time>
      </trkpt>
      <trkpt lat="40.3732260" lon="-3.7664110">
        <ele>682.5</ele>
        <time>2021-05-08T17:14:14Z</time>
      </trkpt>
      <trkpt lat="40.3731930" lon="-3.7662540">
        <ele>682.3</ele>
        <time>2021-05-08T17:14:16Z</time>
      </trkpt>
      <trkpt lat="40.3731800" lon="-3.7661920">
        <ele>682.2</ele>
        <time>2021-05-08T17:14:17Z</time>
      </trkpt>
      <trkpt lat="40.3731610" lon="-3.7661370">
        <ele>682.1</ele>
        <time>2021-05-08T17:14:19Z</time>
      </trkpt>
      <trkpt lat="40.3731440" lon="-3.7661210">
        <ele>682.1</ele>
        <time>2021-05-08T17:14:21Z</time>
      </trkpt>
      <trkpt lat="40.3731420" lon="-3.7661310">
        <ele>682.1</ele>
        <time>2021-05-08T17:14:23Z</time>
      </trkpt>
      <trkpt lat="40.3731430" lon="-3.7661320">
        <ele>682.1</ele>
        <time>2021-05-08T17:14:24Z</time>
      </trkpt>
      <trkpt lat="40.3731440" lon="-3.7661330">
        <ele>682.1</ele>
        <time>2021-05-08T17:14:26Z</time>
      </trkpt>
      <trkpt lat="40.3731440" lon="-3.7661330">
        <ele>682.1</ele>
        <time>2021-05-08T17:14:28Z</time>
      </trkpt>
      <trkpt lat="40.3731440" lon="-3.7661330">
        <ele>682.1</ele>
        <time>2021-05-08T17:14:30Z</time>
      </trkpt>
      <trkpt lat="40.3731440" lon="-3.7661330">
        <ele>682.1</ele>
        <time>2021-05-08T17:14:31Z</time>
      </trkpt>
      <trkpt lat="40.3731230" lon="-3.7661040">
        <ele>682.0</ele>
        <time>2021-05-08T17:14:51Z</time>
      </trkpt>
      <trkpt lat="40.3730970" lon="-3.7660430">
        <ele>681.9</ele>
        <time>2021-05-08T17:14:53Z</time>
      </trkpt>
      <trkpt lat="40.3730710" lon="-3.7659960">
        <ele>681.8</ele>
        <time>2021-05-08T17:14:54Z</time>
      </trkpt>
      <trkpt lat="40.3730410" lon="-3.7659470">
        <ele>681.7</ele>
        <time>2021-05-08T17:14:55Z</time>
      </trkpt>
      <trkpt lat="40.3730090" lon="-3.7659040">
        <ele>681.6</ele>
        <time>2021-05-08T17:14:56Z</time>
      </trkpt>
      <trkpt lat="40.3729790" lon="-3.7658630">
        <ele>681.5</ele>
        <time>2021-05-08T17:14:57Z</time>
      </trkpt>
      <trkpt lat="40.3729270" lon="-3.7657730">
        <ele>681.5</ele>
        <time>2021-05-08T17:14:59Z</time>
      </trkpt>
      <trkpt lat="40.3729020" lon="-3.7657090">
        <ele>681.6</ele>
        <time>2021-05-08T17:15:00Z</time>
      </trkpt>
      <trkpt lat="40.3728910" lon="-3.7655640">
        <ele>681.8</ele>
        <time>2021-05-08T17:15:02Z</time>
      </trkpt>
      <trkpt lat="40.3729000" lon="-3.7654960">
        <ele>681.7</ele>
        <time>2021-05-08T17:15:03Z</time>
      </trkpt>
      <trkpt lat="40.3729170" lon="-3.7654240">
        <ele>681.5</ele>
        <time>2021-05-08T17:15:04Z</time>
      </trkpt>
      <trkpt lat="40.3729580" lon="-3.7652770">
        <ele>681.2</ele>
        <time>2021-05-08T17:15:06Z</time>
      </trkpt>
      <trkpt lat="40.3729890" lon="-3.7651200">
        <ele>680.9</ele>
        <time>2021-05-08T17:15:08Z</time>
      </trkpt>
      <trkpt lat="40.3729930" lon="-3.7649460">
        <ele>680.5</ele>
        <time>2021-05-08T17:15:10Z</time>
      </trkpt>
      <trkpt lat="40.3729820" lon="-3.7648550">
        <ele>680.4</ele>
        <time>2021-05-08T17:15:11Z</time>
      </trkpt>
      <trkpt lat="40.3729670" lon="-3.7647690">
        <ele>680.2</ele>
        <time>2021-05-08T17:15:12Z</time>
      </trkpt>
      <trkpt lat="40.3729340" lon="-3.7645970">
        <ele>680.0</ele>
        <time>2021-05-08T17:15:14Z</time>
      </trkpt>
      <trkpt lat="40.3729030" lon="-3.7644180">
        <ele>679.7</ele>
        <time>2021-05-08T17:15:16Z</time>
      </trkpt>
      <trkpt lat="40.3728710" lon="-3.7642370">
        <ele>679.3</ele>
        <time>2021-05-08T17:15:18Z</time>
      </trkpt>
      <trkpt lat="40.3728320" lon="-3.7640500">
        <ele>678.8</ele>
        <time>2021-05-08T17:15:20Z</time>
      </trkpt>
      <trkpt lat="40.3728170" lon="-3.7639530">
        <ele>678.5</ele>
        <time>2021-05-08T17:15:21Z</time>
      </trkpt>
      <trkpt lat="40.3727830" lon="-3.7637600">
        <ele>678.1</ele>
        <time>2021-05-08T17:15:23Z</time>
      </trkpt>
      <trkpt lat="40.3727700" lon="-3.7636660">
        <ele>678.0</ele>
        <time>2021-05-08T17:15:24Z</time>
      </trkpt>
      <trkpt lat="40.3727460" lon="-3.7634710">
        <ele>677.7</ele>
        <time>2021-05-08T17:15:26Z</time>
      </trkpt>
      <trkpt lat="40.3727190" lon="-3.7632760">
        <ele>677.5</ele>
        <time>2021-05-08T17:15:28Z</time>
      </trkpt>
      <trkpt lat="40.3727070" lon="-3.7631730">
        <ele>677.4</ele>
        <time>2021-05-08T17:15:29Z</time>
      </trkpt>
      <trkpt lat="40.3726980" lon="-3.7630670">
        <ele>677.3</ele>
        <time>2021-05-08T17:15:30Z</time>
      </trkpt>
      <trkpt lat="40.3726650" lon="-3.7628730">
        <ele>677.1</ele>
        <time>2021-05-08T17:15:32Z</time>
      </trkpt>
      <trkpt lat="40.3726510" lon="-3.7627760">
        <ele>677.0</ele>
        <time>2021-05-08T17:15:33Z</time>
      </trkpt>
      <trkpt lat="40.3726340" lon="-3.7626780">
        <ele>677.0</ele>
        <time>2021-05-08T17:15:34Z</time>
      </trkpt>
      <trkpt lat="40.3726160" lon="-3.7625820">
        <ele>676.9</ele>
        <time>2021-05-08T17:15:35Z</time>
      </trkpt>
      <trkpt lat="40.3725980" lon="-3.7624820">
        <ele>676.8</ele>
        <time>2021-05-08T17:15:36Z</time>
      </trkpt>
      <trkpt lat="40.3725700" lon="-3.7622830">
        <ele>677.0</ele>
        <time>2021-05-08T17:15:38Z</time>
      </trkpt>
      <trkpt lat="40.3725620" lon="-3.7621830">
        <ele>676.9</ele>
        <time>2021-05-08T17:15:39Z</time>
      </trkpt>
      <trkpt lat="40.3725410" lon="-3.7619860">
        <ele>676.9</ele>
        <time>2021-05-08T17:15:41Z</time>
      </trkpt>
      <trkpt lat="40.3725050" lon="-3.7617950">
        <ele>676.8</ele>
        <time>2021-05-08T17:15:43Z</time>
      </trkpt>
      <trkpt lat="40.3724670" lon="-3.7616010">
        <ele>676.9</ele>
        <time>2021-05-08T17:15:45Z</time>
      </trkpt>
      <trkpt lat="40.3724470" lon="-3.7615070">
        <ele>676.9</ele>
        <time>2021-05-08T17:15:46Z</time>
      </trkpt>
      <trkpt lat="40.3724180" lon="-3.7613270">
        <ele>677.1</ele>
        <time>2021-05-08T17:15:48Z</time>
      </trkpt>
      <trkpt lat="40.3723930" lon="-3.7611470">
        <ele>677.3</ele>
        <time>2021-05-08T17:15:50Z</time>
      </trkpt>
      <trkpt lat="40.3723860" lon="-3.7609640">
        <ele>677.5</ele>
        <time>2021-05-08T17:15:52Z</time>
      </trkpt>
      <trkpt lat="40.3723830" lon="-3.7607980">
        <ele>677.7</ele>
        <time>2021-05-08T17:15:54Z</time>
      </trkpt>
      <trkpt lat="40.3723780" lon="-3.7606410">
        <ele>677.8</ele>
        <time>2021-05-08T17:15:56Z</time>
      </trkpt>
      <trkpt lat="40.3723710" lon="-3.7605630">
        <ele>677.8</ele>
        <time>2021-05-08T17:15:57Z</time>
      </trkpt>
      <trkpt lat="40.3723640" lon="-3.7604920">
        <ele>677.9</ele>
        <time>2021-05-08T17:15:58Z</time>
      </trkpt>
      <trkpt lat="40.3723520" lon="-3.7603450">
        <ele>678.1</ele>
        <time>2021-05-08T17:16:00Z</time>
      </trkpt>
      <trkpt lat="40.3723440" lon="-3.7602720">
        <ele>678.1</ele>
        <time>2021-05-08T17:16:01Z</time>
      </trkpt>
      <trkpt lat="40.3723260" lon="-3.7601240">
        <ele>678.2</ele>
        <time>2021-05-08T17:16:03Z</time>
      </trkpt>
      <trkpt lat="40.3723120" lon="-3.7600480">
        <ele>678.4</ele>
        <time>2021-05-08T17:16:04Z</time>
      </trkpt>
      <trkpt lat="40.3722820" lon="-3.7598990">
        <ele>678.7</ele>
        <time>2021-05-08T17:16:06Z</time>
      </trkpt>
      <trkpt lat="40.3722620" lon="-3.7597440">
        <ele>679.0</ele>
        <time>2021-05-08T17:16:08Z</time>
      </trkpt>
      <trkpt lat="40.3722510" lon="-3.7596640">
        <ele>679.2</ele>
        <time>2021-05-08T17:16:09Z</time>
      </trkpt>
      <trkpt lat="40.3722410" lon="-3.7595880">
        <ele>679.3</ele>
        <time>2021-05-08T17:16:10Z</time>
      </trkpt>
      <trkpt lat="40.3722250" lon="-3.7595140">
        <ele>679.4</ele>
        <time>2021-05-08T17:16:11Z</time>
      </trkpt>
      <trkpt lat="40.3722170" lon="-3.7594370">
        <ele>679.5</ele>
        <time>2021-05-08T17:16:12Z</time>
      </trkpt>
      <trkpt lat="40.3722000" lon="-3.7592910">
        <ele>679.5</ele>
        <time>2021-05-08T17:16:14Z</time>
      </trkpt>
      <trkpt lat="40.3721880" lon="-3.7591390">
        <ele>679.6</ele>
        <time>2021-05-08T17:16:16Z</time>
      </trkpt>
      <trkpt lat="40.3721820" lon="-3.7590580">
        <ele>679.6</ele>
        <time>2021-05-08T17:16:17Z</time>
      </trkpt>
      <trkpt lat="40.3721620" lon="-3.7589040">
        <ele>679.7</ele>
        <time>2021-05-08T17:16:19Z</time>
      </trkpt>
      <trkpt lat="40.3721430" lon="-3.7587560">
        <ele>679.7</ele>
        <time>2021-05-08T17:16:21Z</time>
      </trkpt>
      <trkpt lat="40.3721320" lon="-3.7586820">
        <ele>679.7</ele>
        <time>2021-05-08T17:16:22Z</time>
      </trkpt>
      <trkpt lat="40.3721210" lon="-3.7586050">
        <ele>679.7</ele>
        <time>2021-05-08T17:16:23Z</time>
      </trkpt>
      <trkpt lat="40.3721130" lon="-3.7585280">
        <ele>679.7</ele>
        <time>2021-05-08T17:16:24Z</time>
      </trkpt>
      <trkpt lat="40.3720960" lon="-3.7583700">
        <ele>679.6</ele>
        <time>2021-05-08T17:16:26Z</time>
      </trkpt>
      <trkpt lat="40.3720860" lon="-3.7582940">
        <ele>679.6</ele>
        <time>2021-05-08T17:16:27Z</time>
      </trkpt>
      <trkpt lat="40.3720750" lon="-3.7581640">
        <ele>679.5</ele>
        <time>2021-05-08T17:16:29Z</time>
      </trkpt>
      <trkpt lat="40.3720710" lon="-3.7580870">
        <ele>679.4</ele>
        <time>2021-05-08T17:16:31Z</time>
      </trkpt>
      <trkpt lat="40.3720690" lon="-3.7580560">
        <ele>679.4</ele>
        <time>2021-05-08T17:16:32Z</time>
      </trkpt>
      <trkpt lat="40.3720650" lon="-3.7580150">
        <ele>679.4</ele>
        <time>2021-05-08T17:16:34Z</time>
      </trkpt>
      <trkpt lat="40.3720630" lon="-3.7580000">
        <ele>679.4</ele>
        <time>2021-05-08T17:16:35Z</time>
      </trkpt>
      <trkpt lat="40.3720700" lon="-3.7579990">
        <ele>679.4</ele>
        <time>2021-05-08T17:16:36Z</time>
      </trkpt>
      <trkpt lat="40.3720630" lon="-3.7579510">
        <ele>679.3</ele>
        <time>2021-05-08T17:16:38Z</time>
      </trkpt>
      <trkpt lat="40.3720650" lon="-3.7578890">
        <ele>679.3</ele>
        <time>2021-05-08T17:16:39Z</time>
      </trkpt>
      <trkpt lat="40.3720870" lon="-3.7578470">
        <ele>679.1</ele>
        <time>2021-05-08T17:16:40Z</time>
      </trkpt>
      <trkpt lat="40.3721250" lon="-3.7578360">
        <ele>678.9</ele>
        <time>2021-05-08T17:16:41Z</time>
      </trkpt>
      <trkpt lat="40.3721790" lon="-3.7578420">
        <ele>678.7</ele>
        <time>2021-05-08T17:16:43Z</time>
      </trkpt>
      <trkpt lat="40.3722140" lon="-3.7578440">
        <ele>678.6</ele>
        <time>2021-05-08T17:16:44Z</time>
      </trkpt>
      <trkpt lat="40.3722310" lon="-3.7578070">
        <ele>678.5</ele>
        <time>2021-05-08T17:16:45Z</time>
      </trkpt>
      <trkpt lat="40.3723110" lon="-3.7577120">
        <ele>678.0</ele>
        <time>2021-05-08T17:16:47Z</time>
      </trkpt>
      <trkpt lat="40.3723520" lon="-3.7576430">
        <ele>677.8</ele>
        <time>2021-05-08T17:16:48Z</time>
      </trkpt>
      <trkpt lat="40.3724440" lon="-3.7575330">
        <ele>677.3</ele>
        <time>2021-05-08T17:16:50Z</time>
      </trkpt>
      <trkpt lat="40.3725470" lon="-3.7574380">
        <ele>676.8</ele>
        <time>2021-05-08T17:16:52Z</time>
      </trkpt>
      <trkpt lat="40.3726580" lon="-3.7573520">
        <ele>676.6</ele>
        <time>2021-05-08T17:16:54Z</time>
      </trkpt>
      <trkpt lat="40.3727130" lon="-3.7573030">
        <ele>676.4</ele>
        <time>2021-05-08T17:16:55Z</time>
      </trkpt>
      <trkpt lat="40.3727680" lon="-3.7572530">
        <ele>676.1</ele>
        <time>2021-05-08T17:16:56Z</time>
      </trkpt>
      <trkpt lat="40.3728820" lon="-3.7571480">
        <ele>675.7</ele>
        <time>2021-05-08T17:16:58Z</time>
      </trkpt>
      <trkpt lat="40.3729360" lon="-3.7570910">
        <ele>675.4</ele>
        <time>2021-05-08T17:16:59Z</time>
      </trkpt>
      <trkpt lat="40.3729940" lon="-3.7570360">
        <ele>675.2</ele>
        <time>2021-05-08T17:17:00Z</time>
      </trkpt>
      <trkpt lat="40.3730490" lon="-3.7569810">
        <ele>675.0</ele>
        <time>2021-05-08T17:17:01Z</time>
      </trkpt>
      <trkpt lat="40.3731600" lon="-3.7568750">
        <ele>674.6</ele>
        <time>2021-05-08T17:17:03Z</time>
      </trkpt>
      <trkpt lat="40.3732180" lon="-3.7568170">
        <ele>674.4</ele>
        <time>2021-05-08T17:17:04Z</time>
      </trkpt>
      <trkpt lat="40.3732810" lon="-3.7567600">
        <ele>674.2</ele>
        <time>2021-05-08T17:17:05Z</time>
      </trkpt>
      <trkpt lat="40.3734120" lon="-3.7566510">
        <ele>673.8</ele>
        <time>2021-05-08T17:17:07Z</time>
      </trkpt>
      <trkpt lat="40.3735420" lon="-3.7565440">
        <ele>673.3</ele>
        <time>2021-05-08T17:17:09Z</time>
      </trkpt>
      <trkpt lat="40.3736690" lon="-3.7564250">
        <ele>672.9</ele>
        <time>2021-05-08T17:17:11Z</time>
      </trkpt>
      <trkpt lat="40.3737310" lon="-3.7563580">
        <ele>672.6</ele>
        <time>2021-05-08T17:17:12Z</time>
      </trkpt>
      <trkpt lat="40.3738610" lon="-3.7562280">
        <ele>672.2</ele>
        <time>2021-05-08T17:17:14Z</time>
      </trkpt>
      <trkpt lat="40.3739850" lon="-3.7560870">
        <ele>671.8</ele>
        <time>2021-05-08T17:17:16Z</time>
      </trkpt>
      <trkpt lat="40.3741030" lon="-3.7559580">
        <ele>671.5</ele>
        <time>2021-05-08T17:17:18Z</time>
      </trkpt>
      <trkpt lat="40.3741510" lon="-3.7559050">
        <ele>671.3</ele>
        <time>2021-05-08T17:17:19Z</time>
      </trkpt>
      <trkpt lat="40.3741930" lon="-3.7558520">
        <ele>671.2</ele>
        <time>2021-05-08T17:17:20Z</time>
      </trkpt>
      <trkpt lat="40.3742340" lon="-3.7557980">
        <ele>671.1</ele>
        <time>2021-05-08T17:17:21Z</time>
      </trkpt>
      <trkpt lat="40.3742780" lon="-3.7557390">
        <ele>670.9</ele>
        <time>2021-05-08T17:17:22Z</time>
      </trkpt>
      <trkpt lat="40.3743650" lon="-3.7556090">
        <ele>670.6</ele>
        <time>2021-05-08T17:17:24Z</time>
      </trkpt>
      <trkpt lat="40.3744610" lon="-3.7554710">
        <ele>670.5</ele>
        <time>2021-05-08T17:17:26Z</time>
      </trkpt>
      <trkpt lat="40.3745590" lon="-3.7553370">
        <ele>670.3</ele>
        <time>2021-05-08T17:17:28Z</time>
      </trkpt>
      <trkpt lat="40.3746110" lon="-3.7552770">
        <ele>670.1</ele>
        <time>2021-05-08T17:17:29Z</time>
      </trkpt>
      <trkpt lat="40.3747160" lon="-3.7551610">
        <ele>669.9</ele>
        <time>2021-05-08T17:17:31Z</time>
      </trkpt>
      <trkpt lat="40.3747590" lon="-3.7550890">
        <ele>669.7</ele>
        <time>2021-05-08T17:17:32Z</time>
      </trkpt>
      <trkpt lat="40.3748550" lon="-3.7549460">
        <ele>669.4</ele>
        <time>2021-05-08T17:17:34Z</time>
      </trkpt>
      <trkpt lat="40.3749540" lon="-3.7548090">
        <ele>669.0</ele>
        <time>2021-05-08T17:17:36Z</time>
      </trkpt>
      <trkpt lat="40.3750570" lon="-3.7546830">
        <ele>668.7</ele>
        <time>2021-05-08T17:17:38Z</time>
      </trkpt>
      <trkpt lat="40.3751090" lon="-3.7546200">
        <ele>668.6</ele>
        <time>2021-05-08T17:17:39Z</time>
      </trkpt>
      <trkpt lat="40.3751960" lon="-3.7544860">
        <ele>668.3</ele>
        <time>2021-05-08T17:17:41Z</time>
      </trkpt>
      <trkpt lat="40.3752280" lon="-3.7544180">
        <ele>668.2</ele>
        <time>2021-05-08T17:17:42Z</time>
      </trkpt>
      <trkpt lat="40.3752800" lon="-3.7542990">
        <ele>668.0</ele>
        <time>2021-05-08T17:17:44Z</time>
      </trkpt>
      <trkpt lat="40.3752960" lon="-3.7542520">
        <ele>667.9</ele>
        <time>2021-05-08T17:17:45Z</time>
      </trkpt>
      <trkpt lat="40.3753010" lon="-3.7542320">
        <ele>667.9</ele>
        <time>2021-05-08T17:17:46Z</time>
      </trkpt>
      <trkpt lat="40.3753140" lon="-3.7542010">
        <ele>667.9</ele>
        <time>2021-05-08T17:17:48Z</time>
      </trkpt>
      <trkpt lat="40.3753210" lon="-3.7541750">
        <ele>667.8</ele>
        <time>2021-05-08T17:17:50Z</time>
      </trkpt>
      <trkpt lat="40.3753260" lon="-3.7541560">
        <ele>667.8</ele>
        <time>2021-05-08T17:17:51Z</time>
      </trkpt>
      <trkpt lat="40.3753380" lon="-3.7541340">
        <ele>667.8</ele>
        <time>2021-05-08T17:17:52Z</time>
      </trkpt>
      <trkpt lat="40.3753650" lon="-3.7541040">
        <ele>667.8</ele>
        <time>2021-05-08T17:17:53Z</time>
      </trkpt>
      <trkpt lat="40.3754090" lon="-3.7540790">
        <ele>667.8</ele>
        <time>2021-05-08T17:17:55Z</time>
      </trkpt>
      <trkpt lat="40.3754200" lon="-3.7540680">
        <ele>667.8</ele>
        <time>2021-05-08T17:17:57Z</time>
      </trkpt>
      <trkpt lat="40.3754230" lon="-3.7540580">
        <ele>667.8</ele>
        <time>2021-05-08T17:17:59Z</time>
      </trkpt>
      <trkpt lat="40.3754230" lon="-3.7540560">
        <ele>667.8</ele>
        <time>2021-05-08T17:18:00Z</time>
      </trkpt>
      <trkpt lat="40.3754340" lon="-3.7540500">
        <ele>667.8</ele>
        <time>2021-05-08T17:18:01Z</time>
      </trkpt>
      <trkpt lat="40.3754690" lon="-3.7540220">
        <ele>667.8</ele>
        <time>2021-05-08T17:18:03Z</time>
      </trkpt>
      <trkpt lat="40.3755350" lon="-3.7539890">
        <ele>667.7</ele>
        <time>2021-05-08T17:18:05Z</time>
      </trkpt>
      <trkpt lat="40.3755780" lon="-3.7539650">
        <ele>667.6</ele>
        <time>2021-05-08T17:18:06Z</time>
      </trkpt>
      <trkpt lat="40.3756440" lon="-3.7539360">
        <ele>667.5</ele>
        <time>2021-05-08T17:18:08Z</time>
      </trkpt>
      <trkpt lat="40.3757040" lon="-3.7539220">
        <ele>667.3</ele>
        <time>2021-05-08T17:18:09Z</time>
      </trkpt>
      <trkpt lat="40.3758050" lon="-3.7538970">
        <ele>667.0</ele>
        <time>2021-05-08T17:18:11Z</time>
      </trkpt>
      <trkpt lat="40.3758620" lon="-3.7538810">
        <ele>666.9</ele>
        <time>2021-05-08T17:18:12Z</time>
      </trkpt>
      <trkpt lat="40.3759720" lon="-3.7538500">
        <ele>666.5</ele>
        <time>2021-05-08T17:18:14Z</time>
      </trkpt>
      <trkpt lat="40.3760790" lon="-3.7537980">
        <ele>666.3</ele>
        <time>2021-05-08T17:18:16Z</time>
      </trkpt>
      <trkpt lat="40.3761340" lon="-3.7537690">
        <ele>666.1</ele>
        <time>2021-05-08T17:18:17Z</time>
      </trkpt>
      <trkpt lat="40.3762430" lon="-3.7536760">
        <ele>665.8</ele>
        <time>2021-05-08T17:18:19Z</time>
      </trkpt>
      <trkpt lat="40.3763000" lon="-3.7536210">
        <ele>665.5</ele>
        <time>2021-05-08T17:18:20Z</time>
      </trkpt>
      <trkpt lat="40.3763470" lon="-3.7535650">
        <ele>665.2</ele>
        <time>2021-05-08T17:18:21Z</time>
      </trkpt>
      <trkpt lat="40.3763900" lon="-3.7535100">
        <ele>665.0</ele>
        <time>2021-05-08T17:18:22Z</time>
      </trkpt>
      <trkpt lat="40.3764910" lon="-3.7534330">
        <ele>664.1</ele>
        <time>2021-05-08T17:18:24Z</time>
      </trkpt>
      <trkpt lat="40.3765770" lon="-3.7533530">
        <ele>663.1</ele>
        <time>2021-05-08T17:18:26Z</time>
      </trkpt>
      <trkpt lat="40.3765980" lon="-3.7533270">
        <ele>662.8</ele>
        <time>2021-05-08T17:18:27Z</time>
      </trkpt>
      <trkpt lat="40.3766720" lon="-3.7532600">
        <ele>662.0</ele>
        <time>2021-05-08T17:18:29Z</time>
      </trkpt>
      <trkpt lat="40.3766930" lon="-3.7532100">
        <ele>660.9</ele>
        <time>2021-05-08T17:18:30Z</time>
      </trkpt>
      <trkpt lat="40.3766950" lon="-3.7531840">
        <ele>660.8</ele>
        <time>2021-05-08T17:18:31Z</time>
      </trkpt>
      <trkpt lat="40.3766960" lon="-3.7531080">
        <ele>660.4</ele>
        <time>2021-05-08T17:18:32Z</time>
      </trkpt>
      <trkpt lat="40.3766790" lon="-3.7530380">
        <ele>660.1</ele>
        <time>2021-05-08T17:18:34Z</time>
      </trkpt>
      <trkpt lat="40.3766120" lon="-3.7529200">
        <ele>659.5</ele>
        <time>2021-05-08T17:18:36Z</time>
      </trkpt>
      <trkpt lat="40.3765640" lon="-3.7527900">
        <ele>659.1</ele>
        <time>2021-05-08T17:18:38Z</time>
      </trkpt>
      <trkpt lat="40.3765430" lon="-3.7526400">
        <ele>658.7</ele>
        <time>2021-05-08T17:18:40Z</time>
      </trkpt>
      <trkpt lat="40.3765560" lon="-3.7525720">
        <ele>658.6</ele>
        <time>2021-05-08T17:18:41Z</time>
      </trkpt>
      <trkpt lat="40.3766030" lon="-3.7525290">
        <ele>658.5</ele>
        <time>2021-05-08T17:18:42Z</time>
      </trkpt>
      <trkpt lat="40.3766670" lon="-3.7524970">
        <ele>658.4</ele>
        <time>2021-05-08T17:18:43Z</time>
      </trkpt>
      <trkpt lat="40.3767210" lon="-3.7524360">
        <ele>658.4</ele>
        <time>2021-05-08T17:18:45Z</time>
      </trkpt>
      <trkpt lat="40.3766980" lon="-3.7523490">
        <ele>658.3</ele>
        <time>2021-05-08T17:18:46Z</time>
      </trkpt>
      <trkpt lat="40.3766530" lon="-3.7521920">
        <ele>658.1</ele>
        <time>2021-05-08T17:18:48Z</time>
      </trkpt>
      <trkpt lat="40.3766380" lon="-3.7521020">
        <ele>657.9</ele>
        <time>2021-05-08T17:18:49Z</time>
      </trkpt>
      <trkpt lat="40.3766130" lon="-3.7519200">
        <ele>657.7</ele>
        <time>2021-05-08T17:18:51Z</time>
      </trkpt>
      <trkpt lat="40.3765870" lon="-3.7517370">
        <ele>657.4</ele>
        <time>2021-05-08T17:18:53Z</time>
      </trkpt>
      <trkpt lat="40.3765550" lon="-3.7515510">
        <ele>657.1</ele>
        <time>2021-05-08T17:18:55Z</time>
      </trkpt>
      <trkpt lat="40.3765180" lon="-3.7513630">
        <ele>656.7</ele>
        <time>2021-05-08T17:18:57Z</time>
      </trkpt>
      <trkpt lat="40.3764770" lon="-3.7511650">
        <ele>656.3</ele>
        <time>2021-05-08T17:18:59Z</time>
      </trkpt>
      <trkpt lat="40.3764370" lon="-3.7509590">
        <ele>656.0</ele>
        <time>2021-05-08T17:19:01Z</time>
      </trkpt>
      <trkpt lat="40.3763720" lon="-3.7507790">
        <ele>655.8</ele>
        <time>2021-05-08T17:19:03Z</time>
      </trkpt>
      <trkpt lat="40.3762530" lon="-3.7507160">
        <ele>655.7</ele>
        <time>2021-05-08T17:19:05Z</time>
      </trkpt>
      <trkpt lat="40.3761180" lon="-3.7507160">
        <ele>655.7</ele>
        <time>2021-05-08T17:19:07Z</time>
      </trkpt>
      <trkpt lat="40.3760490" lon="-3.7506810">
        <ele>655.6</ele>
        <time>2021-05-08T17:19:09Z</time>
      </trkpt>
      <trkpt lat="40.3760280" lon="-3.7506550">
        <ele>655.6</ele>
        <time>2021-05-08T17:19:10Z</time>
      </trkpt>
      <trkpt lat="40.3759840" lon="-3.7505900">
        <ele>655.5</ele>
        <time>2021-05-08T17:19:12Z</time>
      </trkpt>
      <trkpt lat="40.3759690" lon="-3.7505410">
        <ele>655.5</ele>
        <time>2021-05-08T17:19:13Z</time>
      </trkpt>
      <trkpt lat="40.3759660" lon="-3.7505240">
        <ele>655.4</ele>
        <time>2021-05-08T17:19:14Z</time>
      </trkpt>
      <trkpt lat="40.3759690" lon="-3.7504670">
        <ele>655.3</ele>
        <time>2021-05-08T17:19:15Z</time>
      </trkpt>
      <trkpt lat="40.3759840" lon="-3.7504320">
        <ele>655.2</ele>
        <time>2021-05-08T17:19:16Z</time>
      </trkpt>
      <trkpt lat="40.3760250" lon="-3.7503860">
        <ele>654.9</ele>
        <time>2021-05-08T17:19:17Z</time>
      </trkpt>
      <trkpt lat="40.3761030" lon="-3.7502780">
        <ele>654.4</ele>
        <time>2021-05-08T17:19:19Z</time>
      </trkpt>
      <trkpt lat="40.3761330" lon="-3.7502030">
        <ele>654.1</ele>
        <time>2021-05-08T17:19:20Z</time>
      </trkpt>
      <trkpt lat="40.3761520" lon="-3.7500310">
        <ele>653.6</ele>
        <time>2021-05-08T17:19:22Z</time>
      </trkpt>
      <trkpt lat="40.3761660" lon="-3.7498670">
        <ele>653.3</ele>
        <time>2021-05-08T17:19:24Z</time>
      </trkpt>
      <trkpt lat="40.3762150" lon="-3.7496970">
        <ele>653.0</ele>
        <time>2021-05-08T17:19:26Z</time>
      </trkpt>
      <trkpt lat="40.3762290" lon="-3.7496120">
        <ele>652.9</ele>
        <time>2021-05-08T17:19:27Z</time>
      </trkpt>
      <trkpt lat="40.3762300" lon="-3.7495290">
        <ele>652.9</ele>
        <time>2021-05-08T17:19:28Z</time>
      </trkpt>
      <trkpt lat="40.3761970" lon="-3.7493850">
        <ele>653.0</ele>
        <time>2021-05-08T17:19:30Z</time>
      </trkpt>
      <trkpt lat="40.3761810" lon="-3.7493150">
        <ele>653.1</ele>
        <time>2021-05-08T17:19:31Z</time>
      </trkpt>
      <trkpt lat="40.3761550" lon="-3.7492480">
        <ele>653.3</ele>
        <time>2021-05-08T17:19:32Z</time>
      </trkpt>
      <trkpt lat="40.3761200" lon="-3.7492000">
        <ele>653.5</ele>
        <time>2021-05-08T17:19:33Z</time>
      </trkpt>
      <trkpt lat="40.3760770" lon="-3.7491600">
        <ele>653.7</ele>
        <time>2021-05-08T17:19:35Z</time>
      </trkpt>
      <trkpt lat="40.3760430" lon="-3.7491210">
        <ele>653.9</ele>
        <time>2021-05-08T17:19:37Z</time>
      </trkpt>
      <trkpt lat="40.3760340" lon="-3.7490750">
        <ele>654.1</ele>
        <time>2021-05-08T17:19:39Z</time>
      </trkpt>
      <trkpt lat="40.3760320" lon="-3.7490600">
        <ele>654.2</ele>
        <time>2021-05-08T17:19:40Z</time>
      </trkpt>
      <trkpt lat="40.3760030" lon="-3.7490020">
        <ele>654.3</ele>
        <time>2021-05-08T17:19:41Z</time>
      </trkpt>
      <trkpt lat="40.3759740" lon="-3.7489440">
        <ele>654.5</ele>
        <time>2021-05-08T17:19:42Z</time>
      </trkpt>
      <trkpt lat="40.3759500" lon="-3.7488950">
        <ele>654.6</ele>
        <time>2021-05-08T17:19:44Z</time>
      </trkpt>
      <trkpt lat="40.3759290" lon="-3.7488560">
        <ele>654.7</ele>
        <time>2021-05-08T17:19:45Z</time>
      </trkpt>
      <trkpt lat="40.3759030" lon="-3.7488020">
        <ele>654.8</ele>
        <time>2021-05-08T17:19:46Z</time>
      </trkpt>
      <trkpt lat="40.3758780" lon="-3.7487430">
        <ele>654.9</ele>
        <time>2021-05-08T17:19:47Z</time>
      </trkpt>
      <trkpt lat="40.3758520" lon="-3.7486880">
        <ele>655.0</ele>
        <time>2021-05-08T17:19:48Z</time>
      </trkpt>
      <trkpt lat="40.3758260" lon="-3.7486370">
        <ele>655.1</ele>
        <time>2021-05-08T17:19:49Z</time>
      </trkpt>
      <trkpt lat="40.3757940" lon="-3.7485710">
        <ele>655.1</ele>
        <time>2021-05-08T17:19:50Z</time>
      </trkpt>
      <trkpt lat="40.3757660" lon="-3.7485120">
        <ele>655.1</ele>
        <time>2021-05-08T17:19:52Z</time>
      </trkpt>
      <trkpt lat="40.3757130" lon="-3.7483930">
        <ele>655.1</ele>
        <time>2021-05-08T17:19:54Z</time>
      </trkpt>
      <trkpt lat="40.3756720" lon="-3.7482990">
        <ele>655.0</ele>
        <time>2021-05-08T17:19:56Z</time>
      </trkpt>
      <trkpt lat="40.3756570" lon="-3.7482540">
        <ele>655.0</ele>
        <time>2021-05-08T17:19:57Z</time>
      </trkpt>
      <trkpt lat="40.3756170" lon="-3.7482070">
        <ele>654.9</ele>
        <time>2021-05-08T17:19:58Z</time>
      </trkpt>
      <trkpt lat="40.3755520" lon="-3.7481060">
        <ele>654.9</ele>
        <time>2021-05-08T17:20:00Z</time>
      </trkpt>
      <trkpt lat="40.3754920" lon="-3.7480130">
        <ele>654.9</ele>
        <time>2021-05-08T17:20:02Z</time>
      </trkpt>
      <trkpt lat="40.3754290" lon="-3.7479060">
        <ele>654.9</ele>
        <time>2021-05-08T17:20:04Z</time>
      </trkpt>
      <trkpt lat="40.3753960" lon="-3.7478490">
        <ele>654.9</ele>
        <time>2021-05-08T17:20:05Z</time>
      </trkpt>
      <trkpt lat="40.3753610" lon="-3.7477920">
        <ele>654.8</ele>
        <time>2021-05-08T17:20:06Z</time>
      </trkpt>
      <trkpt lat="40.3752900" lon="-3.7476800">
        <ele>654.7</ele>
        <time>2021-05-08T17:20:08Z</time>
      </trkpt>
      <trkpt lat="40.3752550" lon="-3.7476250">
        <ele>654.7</ele>
        <time>2021-05-08T17:20:09Z</time>
      </trkpt>
      <trkpt lat="40.3751910" lon="-3.7475070">
        <ele>654.5</ele>
        <time>2021-05-08T17:20:11Z</time>
      </trkpt>
      <trkpt lat="40.3751190" lon="-3.7473670">
        <ele>654.2</ele>
        <time>2021-05-08T17:20:13Z</time>
      </trkpt>
      <trkpt lat="40.3750300" lon="-3.7472140">
        <ele>653.6</ele>
        <time>2021-05-08T17:20:15Z</time>
      </trkpt>
      <trkpt lat="40.3749830" lon="-3.7471350">
        <ele>653.3</ele>
        <time>2021-05-08T17:20:16Z</time>
      </trkpt>
      <trkpt lat="40.3748930" lon="-3.7469750">
        <ele>652.7</ele>
        <time>2021-05-08T17:20:18Z</time>
      </trkpt>
      <trkpt lat="40.3748450" lon="-3.7468260">
        <ele>652.2</ele>
        <time>2021-05-08T17:20:20Z</time>
      </trkpt>
      <trkpt lat="40.3747980" lon="-3.7467330">
        <ele>652.2</ele>
        <time>2021-05-08T17:20:22Z</time>
      </trkpt>
      <trkpt lat="40.3747310" lon="-3.7466710">
        <ele>652.2</ele>
        <time>2021-05-08T17:20:24Z</time>
      </trkpt>
      <trkpt lat="40.3747020" lon="-3.7466350">
        <ele>652.3</ele>
        <time>2021-05-08T17:20:25Z</time>
      </trkpt>
      <trkpt lat="40.3746630" lon="-3.7465600">
        <ele>652.3</ele>
        <time>2021-05-08T17:20:27Z</time>
      </trkpt>
      <trkpt lat="40.3746460" lon="-3.7465120">
        <ele>652.4</ele>
        <time>2021-05-08T17:20:28Z</time>
      </trkpt>
      <trkpt lat="40.3746030" lon="-3.7464720">
        <ele>652.4</ele>
        <time>2021-05-08T17:20:30Z</time>
      </trkpt>
      <trkpt lat="40.3745760" lon="-3.7463990">
        <ele>652.3</ele>
        <time>2021-05-08T17:20:31Z</time>
      </trkpt>
      <trkpt lat="40.3745470" lon="-3.7463360">
        <ele>652.3</ele>
        <time>2021-05-08T17:20:32Z</time>
      </trkpt>
      <trkpt lat="40.3744830" lon="-3.7462160">
        <ele>652.3</ele>
        <time>2021-05-08T17:20:34Z</time>
      </trkpt>
      <trkpt lat="40.3744470" lon="-3.7461580">
        <ele>652.2</ele>
        <time>2021-05-08T17:20:35Z</time>
      </trkpt>
      <trkpt lat="40.3744090" lon="-3.7460990">
        <ele>652.1</ele>
        <time>2021-05-08T17:20:36Z</time>
      </trkpt>
      <trkpt lat="40.3743360" lon="-3.7459800">
        <ele>651.9</ele>
        <time>2021-05-08T17:20:38Z</time>
      </trkpt>
      <trkpt lat="40.3742630" lon="-3.7458670">
        <ele>651.6</ele>
        <time>2021-05-08T17:20:40Z</time>
      </trkpt>
      <trkpt lat="40.3741890" lon="-3.7457500">
        <ele>651.3</ele>
        <time>2021-05-08T17:20:42Z</time>
      </trkpt>
      <trkpt lat="40.3741590" lon="-3.7456920">
        <ele>651.2</ele>
        <time>2021-05-08T17:20:43Z</time>
      </trkpt>
      <trkpt lat="40.3741040" lon="-3.7455340">
        <ele>650.9</ele>
        <time>2021-05-08T17:20:45Z</time>
      </trkpt>
      <trkpt lat="40.3740340" lon="-3.7453770">
        <ele>650.7</ele>
        <time>2021-05-08T17:20:47Z</time>
      </trkpt>
      <trkpt lat="40.3739940" lon="-3.7453090">
        <ele>650.6</ele>
        <time>2021-05-08T17:20:48Z</time>
      </trkpt>
      <trkpt lat="40.3739110" lon="-3.7451670">
        <ele>650.6</ele>
        <time>2021-05-08T17:20:50Z</time>
      </trkpt>
      <trkpt lat="40.3738280" lon="-3.7450290">
        <ele>650.6</ele>
        <time>2021-05-08T17:20:52Z</time>
      </trkpt>
      <trkpt lat="40.3737390" lon="-3.7449060">
        <ele>650.6</ele>
        <time>2021-05-08T17:20:54Z</time>
      </trkpt>
      <trkpt lat="40.3736950" lon="-3.7448480">
        <ele>650.7</ele>
        <time>2021-05-08T17:20:55Z</time>
      </trkpt>
      <trkpt lat="40.3736100" lon="-3.7447290">
        <ele>650.7</ele>
        <time>2021-05-08T17:20:57Z</time>
      </trkpt>
      <trkpt lat="40.3735680" lon="-3.7446620">
        <ele>650.7</ele>
        <time>2021-05-08T17:20:58Z</time>
      </trkpt>
      <trkpt lat="40.3735290" lon="-3.7445890">
        <ele>650.7</ele>
        <time>2021-05-08T17:20:59Z</time>
      </trkpt>
      <trkpt lat="40.3734670" lon="-3.7444310">
        <ele>650.6</ele>
        <time>2021-05-08T17:21:01Z</time>
      </trkpt>
      <trkpt lat="40.3734380" lon="-3.7443570">
        <ele>650.5</ele>
        <time>2021-05-08T17:21:02Z</time>
      </trkpt>
      <trkpt lat="40.3733780" lon="-3.7442120">
        <ele>650.3</ele>
        <time>2021-05-08T17:21:04Z</time>
      </trkpt>
      <trkpt lat="40.3733090" lon="-3.7440640">
        <ele>650.2</ele>
        <time>2021-05-08T17:21:06Z</time>
      </trkpt>
      <trkpt lat="40.3732750" lon="-3.7439910">
        <ele>650.2</ele>
        <time>2021-05-08T17:21:07Z</time>
      </trkpt>
      <trkpt lat="40.3732130" lon="-3.7438520">
        <ele>650.1</ele>
        <time>2021-05-08T17:21:09Z</time>
      </trkpt>
      <trkpt lat="40.3731870" lon="-3.7437830">
        <ele>650.0</ele>
        <time>2021-05-08T17:21:10Z</time>
      </trkpt>
      <trkpt lat="40.3731610" lon="-3.7436370">
        <ele>649.8</ele>
        <time>2021-05-08T17:21:12Z</time>
      </trkpt>
      <trkpt lat="40.3731480" lon="-3.7434740">
        <ele>649.4</ele>
        <time>2021-05-08T17:21:14Z</time>
      </trkpt>
      <trkpt lat="40.3731430" lon="-3.7433880">
        <ele>649.1</ele>
        <time>2021-05-08T17:21:15Z</time>
      </trkpt>
      <trkpt lat="40.3731300" lon="-3.7432400">
        <ele>648.6</ele>
        <time>2021-05-08T17:21:17Z</time>
      </trkpt>
      <trkpt lat="40.3731250" lon="-3.7431750">
        <ele>648.4</ele>
        <time>2021-05-08T17:21:18Z</time>
      </trkpt>
      <trkpt lat="40.3731130" lon="-3.7430420">
        <ele>648.0</ele>
        <time>2021-05-08T17:21:20Z</time>
      </trkpt>
      <trkpt lat="40.3731050" lon="-3.7429710">
        <ele>647.7</ele>
        <time>2021-05-08T17:21:21Z</time>
      </trkpt>
      <trkpt lat="40.3731000" lon="-3.7428180">
        <ele>647.2</ele>
        <time>2021-05-08T17:21:23Z</time>
      </trkpt>
      <trkpt lat="40.3730990" lon="-3.7427350">
        <ele>646.9</ele>
        <time>2021-05-08T17:21:24Z</time>
      </trkpt>
      <trkpt lat="40.3730940" lon="-3.7425440">
        <ele>646.1</ele>
        <time>2021-05-08T17:21:26Z</time>
      </trkpt>
      <trkpt lat="40.3730930" lon="-3.7424470">
        <ele>645.7</ele>
        <time>2021-05-08T17:21:27Z</time>
      </trkpt>
      <trkpt lat="40.3731010" lon="-3.7422750">
        <ele>645.0</ele>
        <time>2021-05-08T17:21:29Z</time>
      </trkpt>
      <trkpt lat="40.3731050" lon="-3.7422150">
        <ele>644.8</ele>
        <time>2021-05-08T17:21:30Z</time>
      </trkpt>
      <trkpt lat="40.3731070" lon="-3.7421830">
        <ele>644.7</ele>
        <time>2021-05-08T17:21:32Z</time>
      </trkpt>
      <trkpt lat="40.3731090" lon="-3.7421800">
        <ele>644.7</ele>
        <time>2021-05-08T17:21:33Z</time>
      </trkpt>
      <trkpt lat="40.3731100" lon="-3.7421820">
        <ele>644.6</ele>
        <time>2021-05-08T17:21:34Z</time>
      </trkpt>
      <trkpt lat="40.3731110" lon="-3.7421830">
        <ele>644.6</ele>
        <time>2021-05-08T17:21:36Z</time>
      </trkpt>
      <trkpt lat="40.3731080" lon="-3.7421790">
        <ele>644.6</ele>
        <time>2021-05-08T17:21:37Z</time>
      </trkpt>
      <trkpt lat="40.3731100" lon="-3.7421800">
        <ele>644.6</ele>
        <time>2021-05-08T17:21:39Z</time>
      </trkpt>
      <trkpt lat="40.3731130" lon="-3.7421830">
        <ele>644.6</ele>
        <time>2021-05-08T17:21:41Z</time>
      </trkpt>
      <trkpt lat="40.3731170" lon="-3.7421840">
        <ele>644.6</ele>
        <time>2021-05-08T17:21:43Z</time>
      </trkpt>
      <trkpt lat="40.3731120" lon="-3.7421040">
        <ele>644.2</ele>
        <time>2021-05-08T17:22:31Z</time>
      </trkpt>
      <trkpt lat="40.3731130" lon="-3.7420630">
        <ele>644.1</ele>
        <time>2021-05-08T17:22:32Z</time>
      </trkpt>
      <trkpt lat="40.3731210" lon="-3.7420060">
        <ele>644.0</ele>
        <time>2021-05-08T17:22:34Z</time>
      </trkpt>
      <trkpt lat="40.3731240" lon="-3.7419410">
        <ele>643.9</ele>
        <time>2021-05-08T17:22:35Z</time>
      </trkpt>
      <trkpt lat="40.3731340" lon="-3.7418520">
        <ele>643.4</ele>
        <time>2021-05-08T17:22:36Z</time>
      </trkpt>
      <trkpt lat="40.3731480" lon="-3.7417490">
        <ele>642.9</ele>
        <time>2021-05-08T17:22:38Z</time>
      </trkpt>
      <trkpt lat="40.3731740" lon="-3.7416070">
        <ele>642.2</ele>
        <time>2021-05-08T17:22:40Z</time>
      </trkpt>
      <trkpt lat="40.3731950" lon="-3.7414560">
        <ele>641.4</ele>
        <time>2021-05-08T17:22:42Z</time>
      </trkpt>
      <trkpt lat="40.3732080" lon="-3.7413760">
        <ele>640.9</ele>
        <time>2021-05-08T17:22:43Z</time>
      </trkpt>
      <trkpt lat="40.3732270" lon="-3.7412970">
        <ele>640.5</ele>
        <time>2021-05-08T17:22:44Z</time>
      </trkpt>
      <trkpt lat="40.3732680" lon="-3.7411350">
        <ele>639.5</ele>
        <time>2021-05-08T17:22:46Z</time>
      </trkpt>
      <trkpt lat="40.3733140" lon="-3.7409600">
        <ele>638.3</ele>
        <time>2021-05-08T17:22:48Z</time>
      </trkpt>
      <trkpt lat="40.3733690" lon="-3.7407830">
        <ele>637.0</ele>
        <time>2021-05-08T17:22:50Z</time>
      </trkpt>
      <trkpt lat="40.3734000" lon="-3.7406490">
        <ele>636.1</ele>
        <time>2021-05-08T17:22:52Z</time>
      </trkpt>
      <trkpt lat="40.3734150" lon="-3.7405840">
        <ele>635.7</ele>
        <time>2021-05-08T17:22:53Z</time>
      </trkpt>
      <trkpt lat="40.3734210" lon="-3.7405470">
        <ele>635.4</ele>
        <time>2021-05-08T17:22:54Z</time>
      </trkpt>
      <trkpt lat="40.3734420" lon="-3.7404070">
        <ele>634.6</ele>
        <time>2021-05-08T17:22:56Z</time>
      </trkpt>
      <trkpt lat="40.3734790" lon="-3.7402500">
        <ele>633.6</ele>
        <time>2021-05-08T17:22:58Z</time>
      </trkpt>
      <trkpt lat="40.3734980" lon="-3.7401630">
        <ele>633.1</ele>
        <time>2021-05-08T17:22:59Z</time>
      </trkpt>
      <trkpt lat="40.3735090" lon="-3.7400670">
        <ele>632.5</ele>
        <time>2021-05-08T17:23:00Z</time>
      </trkpt>
      <trkpt lat="40.3735400" lon="-3.7398660">
        <ele>631.4</ele>
        <time>2021-05-08T17:23:02Z</time>
      </trkpt>
      <trkpt lat="40.3735510" lon="-3.7397640">
        <ele>630.9</ele>
        <time>2021-05-08T17:23:03Z</time>
      </trkpt>
      <trkpt lat="40.3735760" lon="-3.7395480">
        <ele>629.8</ele>
        <time>2021-05-08T17:23:05Z</time>
      </trkpt>
      <trkpt lat="40.3735930" lon="-3.7394430">
        <ele>629.3</ele>
        <time>2021-05-08T17:23:06Z</time>
      </trkpt>
      <trkpt lat="40.3736200" lon="-3.7392180">
        <ele>628.3</ele>
        <time>2021-05-08T17:23:08Z</time>
      </trkpt>
      <trkpt lat="40.3736340" lon="-3.7389960">
        <ele>627.5</ele>
        <time>2021-05-08T17:23:10Z</time>
      </trkpt>
      <trkpt lat="40.3736310" lon="-3.7388900">
        <ele>627.1</ele>
        <time>2021-05-08T17:23:11Z</time>
      </trkpt>
      <trkpt lat="40.3736220" lon="-3.7388090">
        <ele>626.8</ele>
        <time>2021-05-08T17:23:12Z</time>
      </trkpt>
      <trkpt lat="40.3736050" lon="-3.7387460">
        <ele>626.6</ele>
        <time>2021-05-08T17:23:14Z</time>
      </trkpt>
      <trkpt lat="40.3735970" lon="-3.7387260">
        <ele>626.5</ele>
        <time>2021-05-08T17:23:16Z</time>
      </trkpt>
      <trkpt lat="40.3735940" lon="-3.7387290">
        <ele>626.5</ele>
        <time>2021-05-08T17:23:18Z</time>
      </trkpt>
      <trkpt lat="40.3735930" lon="-3.7387310">
        <ele>626.5</ele>
        <time>2021-05-08T17:23:19Z</time>
      </trkpt>
      <trkpt lat="40.3735920" lon="-3.7387320">
        <ele>626.5</ele>
        <time>2021-05-08T17:23:21Z</time>
      </trkpt>
      <trkpt lat="40.3735930" lon="-3.7387330">
        <ele>626.5</ele>
        <time>2021-05-08T17:23:22Z</time>
      </trkpt>
      <trkpt lat="40.3735930" lon="-3.7387330">
        <ele>626.5</ele>
        <time>2021-05-08T17:23:24Z</time>
      </trkpt>
      <trkpt lat="40.3735930" lon="-3.7387330">
        <ele>626.5</ele>
        <time>2021-05-08T17:23:25Z</time>
      </trkpt>
      <trkpt lat="40.3735930" lon="-3.7387330">
        <ele>626.5</ele>
        <time>2021-05-08T17:23:26Z</time>
      </trkpt>
      <trkpt lat="40.3735840" lon="-3.7386780">
        <ele>626.3</ele>
        <time>2021-05-08T17:23:43Z</time>
      </trkpt>
      <trkpt lat="40.3735840" lon="-3.7386400">
        <ele>626.2</ele>
        <time>2021-05-08T17:23:44Z</time>
      </trkpt>
      <trkpt lat="40.3735880" lon="-3.7385790">
        <ele>626.0</ele>
        <time>2021-05-08T17:23:45Z</time>
      </trkpt>
      <trkpt lat="40.3735910" lon="-3.7384950">
        <ele>625.8</ele>
        <time>2021-05-08T17:23:46Z</time>
      </trkpt>
      <trkpt lat="40.3735860" lon="-3.7384120">
        <ele>625.5</ele>
        <time>2021-05-08T17:23:48Z</time>
      </trkpt>
      <trkpt lat="40.3735810" lon="-3.7382770">
        <ele>625.0</ele>
        <time>2021-05-08T17:23:50Z</time>
      </trkpt>
      <trkpt lat="40.3735770" lon="-3.7381980">
        <ele>624.7</ele>
        <time>2021-05-08T17:23:51Z</time>
      </trkpt>
      <trkpt lat="40.3735700" lon="-3.7381140">
        <ele>624.5</ele>
        <time>2021-05-08T17:23:52Z</time>
      </trkpt>
      <trkpt lat="40.3735340" lon="-3.7379460">
        <ele>624.0</ele>
        <time>2021-05-08T17:23:54Z</time>
      </trkpt>
      <trkpt lat="40.3734850" lon="-3.7378830">
        <ele>623.8</ele>
        <time>2021-05-08T17:23:55Z</time>
      </trkpt>
      <trkpt lat="40.3734270" lon="-3.7378270">
        <ele>623.6</ele>
        <time>2021-05-08T17:23:56Z</time>
      </trkpt>
      <trkpt lat="40.3733850" lon="-3.7376580">
        <ele>623.2</ele>
        <time>2021-05-08T17:23:58Z</time>
      </trkpt>
      <trkpt lat="40.3733880" lon="-3.7375610">
        <ele>623.0</ele>
        <time>2021-05-08T17:23:59Z</time>
      </trkpt>
      <trkpt lat="40.3733950" lon="-3.7374680">
        <ele>622.7</ele>
        <time>2021-05-08T17:24:00Z</time>
      </trkpt>
      <trkpt lat="40.3734350" lon="-3.7372960">
        <ele>622.3</ele>
        <time>2021-05-08T17:24:02Z</time>
      </trkpt>
      <trkpt lat="40.3734740" lon="-3.7372140">
        <ele>622.1</ele>
        <time>2021-05-08T17:24:03Z</time>
      </trkpt>
      <trkpt lat="40.3735620" lon="-3.7370520">
        <ele>621.7</ele>
        <time>2021-05-08T17:24:05Z</time>
      </trkpt>
      <trkpt lat="40.3736260" lon="-3.7368910">
        <ele>621.3</ele>
        <time>2021-05-08T17:24:07Z</time>
      </trkpt>
      <trkpt lat="40.3736550" lon="-3.7367730">
        <ele>620.9</ele>
        <time>2021-05-08T17:24:09Z</time>
      </trkpt>
      <trkpt lat="40.3736610" lon="-3.7367260">
        <ele>620.8</ele>
        <time>2021-05-08T17:24:10Z</time>
      </trkpt>
      <trkpt lat="40.3736600" lon="-3.7366810">
        <ele>620.7</ele>
        <time>2021-05-08T17:24:11Z</time>
      </trkpt>
      <trkpt lat="40.3736330" lon="-3.7366000">
        <ele>620.5</ele>
        <time>2021-05-08T17:24:13Z</time>
      </trkpt>
      <trkpt lat="40.3736160" lon="-3.7365280">
        <ele>620.3</ele>
        <time>2021-05-08T17:24:14Z</time>
      </trkpt>
      <trkpt lat="40.3735980" lon="-3.7363720">
        <ele>620.0</ele>
        <time>2021-05-08T17:24:16Z</time>
      </trkpt>
      <trkpt lat="40.3735970" lon="-3.7362200">
        <ele>619.8</ele>
        <time>2021-05-08T17:24:18Z</time>
      </trkpt>
      <trkpt lat="40.3736100" lon="-3.7361460">
        <ele>619.7</ele>
        <time>2021-05-08T17:24:19Z</time>
      </trkpt>
      <trkpt lat="40.3736410" lon="-3.7359840">
        <ele>619.5</ele>
        <time>2021-05-08T17:24:21Z</time>
      </trkpt>
      <trkpt lat="40.3736400" lon="-3.7358030">
        <ele>619.2</ele>
        <time>2021-05-08T17:24:23Z</time>
      </trkpt>
      <trkpt lat="40.3736360" lon="-3.7357160">
        <ele>619.1</ele>
        <time>2021-05-08T17:24:24Z</time>
      </trkpt>
      <trkpt lat="40.3736180" lon="-3.7355530">
        <ele>618.8</ele>
        <time>2021-05-08T17:24:26Z</time>
      </trkpt>
      <trkpt lat="40.3736090" lon="-3.7354680">
        <ele>618.7</ele>
        <time>2021-05-08T17:24:27Z</time>
      </trkpt>
      <trkpt lat="40.3735980" lon="-3.7352920">
        <ele>618.4</ele>
        <time>2021-05-08T17:24:29Z</time>
      </trkpt>
      <trkpt lat="40.3735920" lon="-3.7352020">
        <ele>618.3</ele>
        <time>2021-05-08T17:24:30Z</time>
      </trkpt>
      <trkpt lat="40.3735820" lon="-3.7350840">
        <ele>618.1</ele>
        <time>2021-05-08T17:24:32Z</time>
      </trkpt>
      <trkpt lat="40.3735760" lon="-3.7349940">
        <ele>618.0</ele>
        <time>2021-05-08T17:24:34Z</time>
      </trkpt>
      <trkpt lat="40.3735590" lon="-3.7348470">
        <ele>617.8</ele>
        <time>2021-05-08T17:24:36Z</time>
      </trkpt>
      <trkpt lat="40.3735490" lon="-3.7347750">
        <ele>617.7</ele>
        <time>2021-05-08T17:24:37Z</time>
      </trkpt>
      <trkpt lat="40.3735360" lon="-3.7346340">
        <ele>617.4</ele>
        <time>2021-05-08T17:24:39Z</time>
      </trkpt>
      <trkpt lat="40.3734520" lon="-3.7345630">
        <ele>617.2</ele>
        <time>2021-05-08T17:24:41Z</time>
      </trkpt>
      <trkpt lat="40.3733410" lon="-3.7345400">
        <ele>616.9</ele>
        <time>2021-05-08T17:24:43Z</time>
      </trkpt>
      <trkpt lat="40.3733120" lon="-3.7344950">
        <ele>616.8</ele>
        <time>2021-05-08T17:24:44Z</time>
      </trkpt>
      <trkpt lat="40.3732600" lon="-3.7343530">
        <ele>616.7</ele>
        <time>2021-05-08T17:24:46Z</time>
      </trkpt>
      <trkpt lat="40.3732030" lon="-3.7342120">
        <ele>616.6</ele>
        <time>2021-05-08T17:24:48Z</time>
      </trkpt>
      <trkpt lat="40.3731800" lon="-3.7340760">
        <ele>616.5</ele>
        <time>2021-05-08T17:24:50Z</time>
      </trkpt>
      <trkpt lat="40.3731970" lon="-3.7339330">
        <ele>616.4</ele>
        <time>2021-05-08T17:24:52Z</time>
      </trkpt>
      <trkpt lat="40.3732120" lon="-3.7338550">
        <ele>616.4</ele>
        <time>2021-05-08T17:24:53Z</time>
      </trkpt>
      <trkpt lat="40.3732310" lon="-3.7337750">
        <ele>616.3</ele>
        <time>2021-05-08T17:24:54Z</time>
      </trkpt>
      <trkpt lat="40.3732520" lon="-3.7336930">
        <ele>616.3</ele>
        <time>2021-05-08T17:24:55Z</time>
      </trkpt>
      <trkpt lat="40.3732970" lon="-3.7335270">
        <ele>616.2</ele>
        <time>2021-05-08T17:24:57Z</time>
      </trkpt>
      <trkpt lat="40.3733270" lon="-3.7333570">
        <ele>616.1</ele>
        <time>2021-05-08T17:24:59Z</time>
      </trkpt>
      <trkpt lat="40.3733400" lon="-3.7332680">
        <ele>616.0</ele>
        <time>2021-05-08T17:25:00Z</time>
      </trkpt>
      <trkpt lat="40.3733570" lon="-3.7330870">
        <ele>615.9</ele>
        <time>2021-05-08T17:25:02Z</time>
      </trkpt>
      <trkpt lat="40.3733660" lon="-3.7328990">
        <ele>615.8</ele>
        <time>2021-05-08T17:25:04Z</time>
      </trkpt>
      <trkpt lat="40.3733700" lon="-3.7328060">
        <ele>615.7</ele>
        <time>2021-05-08T17:25:05Z</time>
      </trkpt>
      <trkpt lat="40.3733710" lon="-3.7327120">
        <ele>615.6</ele>
        <time>2021-05-08T17:25:06Z</time>
      </trkpt>
      <trkpt lat="40.3733540" lon="-3.7325180">
        <ele>615.3</ele>
        <time>2021-05-08T17:25:08Z</time>
      </trkpt>
      <trkpt lat="40.3733360" lon="-3.7323210">
        <ele>615.1</ele>
        <time>2021-05-08T17:25:10Z</time>
      </trkpt>
      <trkpt lat="40.3733250" lon="-3.7322210">
        <ele>615.0</ele>
        <time>2021-05-08T17:25:11Z</time>
      </trkpt>
      <trkpt lat="40.3733140" lon="-3.7321200">
        <ele>614.9</ele>
        <time>2021-05-08T17:25:12Z</time>
      </trkpt>
      <trkpt lat="40.3732970" lon="-3.7319250">
        <ele>614.7</ele>
        <time>2021-05-08T17:25:14Z</time>
      </trkpt>
      <trkpt lat="40.3732890" lon="-3.7318330">
        <ele>614.6</ele>
        <time>2021-05-08T17:25:15Z</time>
      </trkpt>
      <trkpt lat="40.3732730" lon="-3.7316580">
        <ele>614.4</ele>
        <time>2021-05-08T17:25:17Z</time>
      </trkpt>
      <trkpt lat="40.3732550" lon="-3.7314740">
        <ele>614.1</ele>
        <time>2021-05-08T17:25:19Z</time>
      </trkpt>
      <trkpt lat="40.3732460" lon="-3.7312860">
        <ele>613.9</ele>
        <time>2021-05-08T17:25:21Z</time>
      </trkpt>
      <trkpt lat="40.3732290" lon="-3.7311050">
        <ele>613.8</ele>
        <time>2021-05-08T17:25:23Z</time>
      </trkpt>
      <trkpt lat="40.3731980" lon="-3.7309300">
        <ele>613.6</ele>
        <time>2021-05-08T17:25:25Z</time>
      </trkpt>
      <trkpt lat="40.3731770" lon="-3.7307630">
        <ele>613.4</ele>
        <time>2021-05-08T17:25:27Z</time>
      </trkpt>
      <trkpt lat="40.3731610" lon="-3.7305860">
        <ele>613.3</ele>
        <time>2021-05-08T17:25:29Z</time>
      </trkpt>
      <trkpt lat="40.3731550" lon="-3.7304940">
        <ele>613.2</ele>
        <time>2021-05-08T17:25:30Z</time>
      </trkpt>
      <trkpt lat="40.3731500" lon="-3.7304000">
        <ele>613.1</ele>
        <time>2021-05-08T17:25:31Z</time>
      </trkpt>
      <trkpt lat="40.3731380" lon="-3.7302030">
        <ele>613.0</ele>
        <time>2021-05-08T17:25:33Z</time>
      </trkpt>
      <trkpt lat="40.3731170" lon="-3.7300060">
        <ele>612.9</ele>
        <time>2021-05-08T17:25:35Z</time>
      </trkpt>
      <trkpt lat="40.3730980" lon="-3.7298240">
        <ele>612.9</ele>
        <time>2021-05-08T17:25:37Z</time>
      </trkpt>
      <trkpt lat="40.3730880" lon="-3.7297390">
        <ele>612.9</ele>
        <time>2021-05-08T17:25:38Z</time>
      </trkpt>
      <trkpt lat="40.3730710" lon="-3.7295630">
        <ele>612.8</ele>
        <time>2021-05-08T17:25:40Z</time>
      </trkpt>
      <trkpt lat="40.3730630" lon="-3.7294680">
        <ele>612.8</ele>
        <time>2021-05-08T17:25:41Z</time>
      </trkpt>
      <trkpt lat="40.3730530" lon="-3.7293760">
        <ele>612.7</ele>
        <time>2021-05-08T17:25:42Z</time>
      </trkpt>
      <trkpt lat="40.3730440" lon="-3.7292820">
        <ele>612.7</ele>
        <time>2021-05-08T17:25:43Z</time>
      </trkpt>
      <trkpt lat="40.3730300" lon="-3.7290920">
        <ele>612.5</ele>
        <time>2021-05-08T17:25:45Z</time>
      </trkpt>
      <trkpt lat="40.3730250" lon="-3.7289960">
        <ele>612.4</ele>
        <time>2021-05-08T17:25:46Z</time>
      </trkpt>
      <trkpt lat="40.3730190" lon="-3.7288100">
        <ele>612.1</ele>
        <time>2021-05-08T17:25:48Z</time>
      </trkpt>
      <trkpt lat="40.3730230" lon="-3.7287140">
        <ele>612.0</ele>
        <time>2021-05-08T17:25:49Z</time>
      </trkpt>
      <trkpt lat="40.3730330" lon="-3.7285150">
        <ele>611.7</ele>
        <time>2021-05-08T17:25:51Z</time>
      </trkpt>
      <trkpt lat="40.3730400" lon="-3.7284110">
        <ele>611.5</ele>
        <time>2021-05-08T17:25:52Z</time>
      </trkpt>
      <trkpt lat="40.3730600" lon="-3.7282040">
        <ele>611.0</ele>
        <time>2021-05-08T17:25:54Z</time>
      </trkpt>
      <trkpt lat="40.3730690" lon="-3.7280950">
        <ele>610.7</ele>
        <time>2021-05-08T17:25:55Z</time>
      </trkpt>
      <trkpt lat="40.3730830" lon="-3.7279010">
        <ele>610.2</ele>
        <time>2021-05-08T17:25:57Z</time>
      </trkpt>
      <trkpt lat="40.3730870" lon="-3.7278160">
        <ele>609.9</ele>
        <time>2021-05-08T17:25:58Z</time>
      </trkpt>
      <trkpt lat="40.3731000" lon="-3.7276470">
        <ele>609.5</ele>
        <time>2021-05-08T17:26:00Z</time>
      </trkpt>
      <trkpt lat="40.3731080" lon="-3.7275540">
        <ele>609.3</ele>
        <time>2021-05-08T17:26:01Z</time>
      </trkpt>
      <trkpt lat="40.3731100" lon="-3.7273530">
        <ele>608.7</ele>
        <time>2021-05-08T17:26:03Z</time>
      </trkpt>
      <trkpt lat="40.3731070" lon="-3.7271420">
        <ele>608.3</ele>
        <time>2021-05-08T17:26:05Z</time>
      </trkpt>
      <trkpt lat="40.3731200" lon="-3.7269290">
        <ele>607.9</ele>
        <time>2021-05-08T17:26:07Z</time>
      </trkpt>
      <trkpt lat="40.3731370" lon="-3.7267190">
        <ele>607.6</ele>
        <time>2021-05-08T17:26:09Z</time>
      </trkpt>
      <trkpt lat="40.3731440" lon="-3.7266140">
        <ele>607.5</ele>
        <time>2021-05-08T17:26:10Z</time>
      </trkpt>
      <trkpt lat="40.3731560" lon="-3.7264190">
        <ele>607.3</ele>
        <time>2021-05-08T17:26:12Z</time>
      </trkpt>
      <trkpt lat="40.3731600" lon="-3.7263220">
        <ele>607.2</ele>
        <time>2021-05-08T17:26:13Z</time>
      </trkpt>
      <trkpt lat="40.3731660" lon="-3.7261460">
        <ele>607.1</ele>
        <time>2021-05-08T17:26:15Z</time>
      </trkpt>
      <trkpt lat="40.3732250" lon="-3.7260950">
        <ele>607.0</ele>
        <time>2021-05-08T17:26:17Z</time>
      </trkpt>
      <trkpt lat="40.3732690" lon="-3.7260810">
        <ele>606.9</ele>
        <time>2021-05-08T17:26:18Z</time>
      </trkpt>
      <trkpt lat="40.3732810" lon="-3.7259670">
        <ele>606.8</ele>
        <time>2021-05-08T17:26:20Z</time>
      </trkpt>
      <trkpt lat="40.3732660" lon="-3.7258800">
        <ele>606.7</ele>
        <time>2021-05-08T17:26:21Z</time>
      </trkpt>
      <trkpt lat="40.3732530" lon="-3.7257220">
        <ele>606.5</ele>
        <time>2021-05-08T17:26:23Z</time>
      </trkpt>
      <trkpt lat="40.3732670" lon="-3.7255590">
        <ele>606.3</ele>
        <time>2021-05-08T17:26:25Z</time>
      </trkpt>
      <trkpt lat="40.3732870" lon="-3.7253940">
        <ele>606.1</ele>
        <time>2021-05-08T17:26:27Z</time>
      </trkpt>
      <trkpt lat="40.3732970" lon="-3.7253130">
        <ele>605.9</ele>
        <time>2021-05-08T17:26:28Z</time>
      </trkpt>
      <trkpt lat="40.3733240" lon="-3.7251460">
        <ele>605.7</ele>
        <time>2021-05-08T17:26:30Z</time>
      </trkpt>
      <trkpt lat="40.3733050" lon="-3.7249910">
        <ele>605.5</ele>
        <time>2021-05-08T17:26:32Z</time>
      </trkpt>
      <trkpt lat="40.3732770" lon="-3.7249250">
        <ele>605.3</ele>
        <time>2021-05-08T17:26:33Z</time>
      </trkpt>
      <trkpt lat="40.3732770" lon="-3.7247640">
        <ele>604.9</ele>
        <time>2021-05-08T17:26:35Z</time>
      </trkpt>
      <trkpt lat="40.3732950" lon="-3.7245780">
        <ele>604.6</ele>
        <time>2021-05-08T17:26:37Z</time>
      </trkpt>
      <trkpt lat="40.3733010" lon="-3.7244810">
        <ele>604.4</ele>
        <time>2021-05-08T17:26:38Z</time>
      </trkpt>
      <trkpt lat="40.3733060" lon="-3.7243840">
        <ele>604.2</ele>
        <time>2021-05-08T17:26:39Z</time>
      </trkpt>
      <trkpt lat="40.3733150" lon="-3.7241930">
        <ele>603.9</ele>
        <time>2021-05-08T17:26:41Z</time>
      </trkpt>
      <trkpt lat="40.3733300" lon="-3.7239910">
        <ele>603.5</ele>
        <time>2021-05-08T17:26:43Z</time>
      </trkpt>
      <trkpt lat="40.3733380" lon="-3.7237810">
        <ele>603.3</ele>
        <time>2021-05-08T17:26:45Z</time>
      </trkpt>
      <trkpt lat="40.3733430" lon="-3.7236790">
        <ele>603.2</ele>
        <time>2021-05-08T17:26:46Z</time>
      </trkpt>
      <trkpt lat="40.3733500" lon="-3.7235770">
        <ele>603.0</ele>
        <time>2021-05-08T17:26:47Z</time>
      </trkpt>
      <trkpt lat="40.3733670" lon="-3.7233650">
        <ele>602.9</ele>
        <time>2021-05-08T17:26:49Z</time>
      </trkpt>
      <trkpt lat="40.3733820" lon="-3.7231560">
        <ele>602.8</ele>
        <time>2021-05-08T17:26:51Z</time>
      </trkpt>
      <trkpt lat="40.3733940" lon="-3.7229580">
        <ele>602.7</ele>
        <time>2021-05-08T17:26:53Z</time>
      </trkpt>
      <trkpt lat="40.3734010" lon="-3.7228600">
        <ele>602.6</ele>
        <time>2021-05-08T17:26:54Z</time>
      </trkpt>
      <trkpt lat="40.3734070" lon="-3.7227620">
        <ele>602.6</ele>
        <time>2021-05-08T17:26:55Z</time>
      </trkpt>
      <trkpt lat="40.3734150" lon="-3.7225720">
        <ele>602.5</ele>
        <time>2021-05-08T17:26:57Z</time>
      </trkpt>
      <trkpt lat="40.3734190" lon="-3.7224830">
        <ele>602.4</ele>
        <time>2021-05-08T17:26:58Z</time>
      </trkpt>
      <trkpt lat="40.3734290" lon="-3.7223140">
        <ele>602.4</ele>
        <time>2021-05-08T17:27:00Z</time>
      </trkpt>
      <trkpt lat="40.3734410" lon="-3.7221390">
        <ele>602.3</ele>
        <time>2021-05-08T17:27:02Z</time>
      </trkpt>
      <trkpt lat="40.3734520" lon="-3.7219920">
        <ele>602.2</ele>
        <time>2021-05-08T17:27:04Z</time>
      </trkpt>
      <trkpt lat="40.3734520" lon="-3.7219600">
        <ele>602.2</ele>
        <time>2021-05-08T17:27:05Z</time>
      </trkpt>
      <trkpt lat="40.3734500" lon="-3.7219450">
        <ele>602.2</ele>
        <time>2021-05-08T17:27:07Z</time>
      </trkpt>
      <trkpt lat="40.3734510" lon="-3.7219340">
        <ele>602.2</ele>
        <time>2021-05-08T17:27:08Z</time>
      </trkpt>
      <trkpt lat="40.3734510" lon="-3.7219250">
        <ele>602.2</ele>
        <time>2021-05-08T17:27:10Z</time>
      </trkpt>
      <trkpt lat="40.3734520" lon="-3.7219160">
        <ele>602.2</ele>
        <time>2021-05-08T17:27:11Z</time>
      </trkpt>
      <trkpt lat="40.3734530" lon="-3.7219060">
        <ele>602.2</ele>
        <time>2021-05-08T17:27:12Z</time>
      </trkpt>
      <trkpt lat="40.3734530" lon="-3.7218970">
        <ele>602.2</ele>
        <time>2021-05-08T17:27:14Z</time>
      </trkpt>
      <trkpt lat="40.3734540" lon="-3.7218880">
        <ele>602.2</ele>
        <time>2021-05-08T17:27:15Z</time>
      </trkpt>
      <trkpt lat="40.3734550" lon="-3.7218370">
        <ele>602.1</ele>
        <time>2021-05-08T17:27:16Z</time>
      </trkpt>
      <trkpt lat="40.3734620" lon="-3.7217880">
        <ele>602.1</ele>
        <time>2021-05-08T17:27:17Z</time>
      </trkpt>
      <trkpt lat="40.3734690" lon="-3.7217240">
        <ele>602.0</ele>
        <time>2021-05-08T17:27:19Z</time>
      </trkpt>
      <trkpt lat="40.3734650" lon="-3.7216620">
        <ele>602.0</ele>
        <time>2021-05-08T17:27:20Z</time>
      </trkpt>
      <trkpt lat="40.3734590" lon="-3.7216040">
        <ele>602.0</ele>
        <time>2021-05-08T17:27:21Z</time>
      </trkpt>
      <trkpt lat="40.3734540" lon="-3.7215370">
        <ele>601.9</ele>
        <time>2021-05-08T17:27:22Z</time>
      </trkpt>
      <trkpt lat="40.3734500" lon="-3.7214600">
        <ele>601.9</ele>
        <time>2021-05-08T17:27:24Z</time>
      </trkpt>
      <trkpt lat="40.3734460" lon="-3.7213720">
        <ele>601.8</ele>
        <time>2021-05-08T17:27:25Z</time>
      </trkpt>
      <trkpt lat="40.3734410" lon="-3.7212940">
        <ele>601.8</ele>
        <time>2021-05-08T17:27:27Z</time>
      </trkpt>
      <trkpt lat="40.3734410" lon="-3.7212310">
        <ele>601.8</ele>
        <time>2021-05-08T17:27:28Z</time>
      </trkpt>
      <trkpt lat="40.3734480" lon="-3.7211330">
        <ele>601.7</ele>
        <time>2021-05-08T17:27:29Z</time>
      </trkpt>
      <trkpt lat="40.3734560" lon="-3.7210260">
        <ele>601.6</ele>
        <time>2021-05-08T17:27:31Z</time>
      </trkpt>
      <trkpt lat="40.3734740" lon="-3.7208790">
        <ele>601.5</ele>
        <time>2021-05-08T17:27:33Z</time>
      </trkpt>
      <trkpt lat="40.3734830" lon="-3.7208020">
        <ele>601.4</ele>
        <time>2021-05-08T17:27:34Z</time>
      </trkpt>
      <trkpt lat="40.3734970" lon="-3.7206490">
        <ele>601.4</ele>
        <time>2021-05-08T17:27:36Z</time>
      </trkpt>
      <trkpt lat="40.3735030" lon="-3.7205740">
        <ele>601.4</ele>
        <time>2021-05-08T17:27:37Z</time>
      </trkpt>
      <trkpt lat="40.3735110" lon="-3.7204960">
        <ele>601.4</ele>
        <time>2021-05-08T17:27:38Z</time>
      </trkpt>
      <trkpt lat="40.3735190" lon="-3.7203540">
        <ele>601.4</ele>
        <time>2021-05-08T17:27:40Z</time>
      </trkpt>
      <trkpt lat="40.3735050" lon="-3.7202150">
        <ele>601.4</ele>
        <time>2021-05-08T17:27:42Z</time>
      </trkpt>
      <trkpt lat="40.3734300" lon="-3.7201370">
        <ele>601.4</ele>
        <time>2021-05-08T17:27:44Z</time>
      </trkpt>
      <trkpt lat="40.3734020" lon="-3.7201080">
        <ele>601.4</ele>
        <time>2021-05-08T17:27:46Z</time>
      </trkpt>
      <trkpt lat="40.3733960" lon="-3.7201030">
        <ele>601.4</ele>
        <time>2021-05-08T17:27:48Z</time>
      </trkpt>
      <trkpt lat="40.3733950" lon="-3.7201040">
        <ele>601.4</ele>
        <time>2021-05-08T17:27:49Z</time>
      </trkpt>
      <trkpt lat="40.3733930" lon="-3.7201050">
        <ele>601.4</ele>
        <time>2021-05-08T17:27:50Z</time>
      </trkpt>
      <trkpt lat="40.3733960" lon="-3.7201160">
        <ele>601.4</ele>
        <time>2021-05-08T17:27:51Z</time>
      </trkpt>
      <trkpt lat="40.3733980" lon="-3.7200750">
        <ele>601.4</ele>
        <time>2021-05-08T17:27:52Z</time>
      </trkpt>
      <trkpt lat="40.3733980" lon="-3.7200270">
        <ele>601.4</ele>
        <time>2021-05-08T17:27:54Z</time>
      </trkpt>
      <trkpt lat="40.3733900" lon="-3.7199570">
        <ele>601.4</ele>
        <time>2021-05-08T17:27:55Z</time>
      </trkpt>
      <trkpt lat="40.3733780" lon="-3.7198760">
        <ele>601.4</ele>
        <time>2021-05-08T17:27:57Z</time>
      </trkpt>
      <trkpt lat="40.3733710" lon="-3.7197870">
        <ele>601.4</ele>
        <time>2021-05-08T17:27:58Z</time>
      </trkpt>
      <trkpt lat="40.3733740" lon="-3.7196980">
        <ele>601.3</ele>
        <time>2021-05-08T17:27:59Z</time>
      </trkpt>
      <trkpt lat="40.3733810" lon="-3.7195840">
        <ele>601.2</ele>
        <time>2021-05-08T17:28:01Z</time>
      </trkpt>
      <trkpt lat="40.3733760" lon="-3.7194490">
        <ele>601.2</ele>
        <time>2021-05-08T17:28:03Z</time>
      </trkpt>
      <trkpt lat="40.3733560" lon="-3.7193130">
        <ele>601.1</ele>
        <time>2021-05-08T17:28:05Z</time>
      </trkpt>
      <trkpt lat="40.3733570" lon="-3.7191710">
        <ele>601.1</ele>
        <time>2021-05-08T17:28:07Z</time>
      </trkpt>
      <trkpt lat="40.3733630" lon="-3.7190150">
        <ele>601.0</ele>
        <time>2021-05-08T17:28:09Z</time>
      </trkpt>
      <trkpt lat="40.3733670" lon="-3.7189330">
        <ele>600.9</ele>
        <time>2021-05-08T17:28:10Z</time>
      </trkpt>
      <trkpt lat="40.3733720" lon="-3.7188490">
        <ele>600.9</ele>
        <time>2021-05-08T17:28:11Z</time>
      </trkpt>
      <trkpt lat="40.3733770" lon="-3.7187680">
        <ele>600.8</ele>
        <time>2021-05-08T17:28:12Z</time>
      </trkpt>
      <trkpt lat="40.3733860" lon="-3.7186020">
        <ele>600.7</ele>
        <time>2021-05-08T17:28:14Z</time>
      </trkpt>
      <trkpt lat="40.3733920" lon="-3.7185190">
        <ele>600.7</ele>
        <time>2021-05-08T17:28:15Z</time>
      </trkpt>
      <trkpt lat="40.3734010" lon="-3.7183510">
        <ele>600.5</ele>
        <time>2021-05-08T17:28:17Z</time>
      </trkpt>
      <trkpt lat="40.3734020" lon="-3.7182720">
        <ele>600.5</ele>
        <time>2021-05-08T17:28:18Z</time>
      </trkpt>
      <trkpt lat="40.3734020" lon="-3.7181140">
        <ele>600.3</ele>
        <time>2021-05-08T17:28:20Z</time>
      </trkpt>
      <trkpt lat="40.3733980" lon="-3.7179510">
        <ele>600.2</ele>
        <time>2021-05-08T17:28:22Z</time>
      </trkpt>
      <trkpt lat="40.3733970" lon="-3.7178730">
        <ele>600.1</ele>
        <time>2021-05-08T17:28:23Z</time>
      </trkpt>
      <trkpt lat="40.3733950" lon="-3.7178030">
        <ele>600.0</ele>
        <time>2021-05-08T17:28:24Z</time>
      </trkpt>
      <trkpt lat="40.3733940" lon="-3.7177400">
        <ele>600.0</ele>
        <time>2021-05-08T17:28:26Z</time>
      </trkpt>
      <trkpt lat="40.3733920" lon="-3.7176970">
        <ele>599.9</ele>
        <time>2021-05-08T17:28:27Z</time>
      </trkpt>
      <trkpt lat="40.3733910" lon="-3.7175900">
        <ele>599.9</ele>
        <time>2021-05-08T17:28:29Z</time>
      </trkpt>
      <trkpt lat="40.3733930" lon="-3.7175390">
        <ele>600.0</ele>
        <time>2021-05-08T17:28:30Z</time>
      </trkpt>
      <trkpt lat="40.3733520" lon="-3.7174990">
        <ele>600.0</ele>
        <time>2021-05-08T17:28:31Z</time>
      </trkpt>
      <trkpt lat="40.3733570" lon="-3.7174330">
        <ele>600.1</ele>
        <time>2021-05-08T17:28:32Z</time>
      </trkpt>
      <trkpt lat="40.3733700" lon="-3.7173750">
        <ele>600.2</ele>
        <time>2021-05-08T17:28:34Z</time>
      </trkpt>
      <trkpt lat="40.3733770" lon="-3.7173200">
        <ele>600.2</ele>
        <time>2021-05-08T17:28:35Z</time>
      </trkpt>
      <trkpt lat="40.3733890" lon="-3.7171650">
        <ele>600.2</ele>
        <time>2021-05-08T17:28:37Z</time>
      </trkpt>
      <trkpt lat="40.3733860" lon="-3.7170880">
        <ele>600.2</ele>
        <time>2021-05-08T17:28:38Z</time>
      </trkpt>
      <trkpt lat="40.3733840" lon="-3.7170110">
        <ele>600.2</ele>
        <time>2021-05-08T17:28:39Z</time>
      </trkpt>
      <trkpt lat="40.3733870" lon="-3.7168510">
        <ele>600.1</ele>
        <time>2021-05-08T17:28:41Z</time>
      </trkpt>
      <trkpt lat="40.3733880" lon="-3.7167710">
        <ele>600.0</ele>
        <time>2021-05-08T17:28:42Z</time>
      </trkpt>
      <trkpt lat="40.3733880" lon="-3.7166160">
        <ele>599.9</ele>
        <time>2021-05-08T17:28:44Z</time>
      </trkpt>
      <trkpt lat="40.3733900" lon="-3.7165340">
        <ele>599.9</ele>
        <time>2021-05-08T17:28:45Z</time>
      </trkpt>
      <trkpt lat="40.3733930" lon="-3.7163730">
        <ele>599.8</ele>
        <time>2021-05-08T17:28:47Z</time>
      </trkpt>
      <trkpt lat="40.3733910" lon="-3.7162960">
        <ele>599.7</ele>
        <time>2021-05-08T17:28:48Z</time>
      </trkpt>
      <trkpt lat="40.3733890" lon="-3.7161400">
        <ele>599.6</ele>
        <time>2021-05-08T17:28:50Z</time>
      </trkpt>
      <trkpt lat="40.3733880" lon="-3.7160560">
        <ele>599.6</ele>
        <time>2021-05-08T17:28:51Z</time>
      </trkpt>
      <trkpt lat="40.3733920" lon="-3.7158990">
        <ele>599.4</ele>
        <time>2021-05-08T17:28:53Z</time>
      </trkpt>
      <trkpt lat="40.3733940" lon="-3.7157270">
        <ele>599.0</ele>
        <time>2021-05-08T17:28:55Z</time>
      </trkpt>
      <trkpt lat="40.3734080" lon="-3.7155310">
        <ele>598.7</ele>
        <time>2021-05-08T17:28:57Z</time>
      </trkpt>
      <trkpt lat="40.3734230" lon="-3.7153480">
        <ele>598.7</ele>
        <time>2021-05-08T17:28:59Z</time>
      </trkpt>
      <trkpt lat="40.3734260" lon="-3.7152670">
        <ele>598.7</ele>
        <time>2021-05-08T17:29:00Z</time>
      </trkpt>
      <trkpt lat="40.3734350" lon="-3.7151000">
        <ele>598.5</ele>
        <time>2021-05-08T17:29:02Z</time>
      </trkpt>
      <trkpt lat="40.3734420" lon="-3.7149220">
        <ele>598.2</ele>
        <time>2021-05-08T17:29:04Z</time>
      </trkpt>
      <trkpt lat="40.3734490" lon="-3.7147380">
        <ele>598.0</ele>
        <time>2021-05-08T17:29:06Z</time>
      </trkpt>
      <trkpt lat="40.3734510" lon="-3.7146440">
        <ele>597.8</ele>
        <time>2021-05-08T17:29:07Z</time>
      </trkpt>
      <trkpt lat="40.3734550" lon="-3.7144580">
        <ele>597.5</ele>
        <time>2021-05-08T17:29:09Z</time>
      </trkpt>
      <trkpt lat="40.3734620" lon="-3.7142650">
        <ele>597.3</ele>
        <time>2021-05-08T17:29:11Z</time>
      </trkpt>
      <trkpt lat="40.3734630" lon="-3.7140700">
        <ele>597.1</ele>
        <time>2021-05-08T17:29:13Z</time>
      </trkpt>
      <trkpt lat="40.3734660" lon="-3.7139710">
        <ele>596.9</ele>
        <time>2021-05-08T17:29:14Z</time>
      </trkpt>
      <trkpt lat="40.3734710" lon="-3.7137820">
        <ele>596.7</ele>
        <time>2021-05-08T17:29:16Z</time>
      </trkpt>
      <trkpt lat="40.3734670" lon="-3.7135990">
        <ele>596.4</ele>
        <time>2021-05-08T17:29:18Z</time>
      </trkpt>
      <trkpt lat="40.3734400" lon="-3.7134120">
        <ele>596.1</ele>
        <time>2021-05-08T17:29:20Z</time>
      </trkpt>
      <trkpt lat="40.3733900" lon="-3.7132230">
        <ele>595.9</ele>
        <time>2021-05-08T17:29:22Z</time>
      </trkpt>
      <trkpt lat="40.3733620" lon="-3.7131250">
        <ele>595.8</ele>
        <time>2021-05-08T17:29:23Z</time>
      </trkpt>
      <trkpt lat="40.3733050" lon="-3.7129330">
        <ele>595.8</ele>
        <time>2021-05-08T17:29:25Z</time>
      </trkpt>
      <trkpt lat="40.3732400" lon="-3.7127630">
        <ele>595.8</ele>
        <time>2021-05-08T17:29:27Z</time>
      </trkpt>
      <trkpt lat="40.3731250" lon="-3.7126730">
        <ele>595.8</ele>
        <time>2021-05-08T17:29:29Z</time>
      </trkpt>
      <trkpt lat="40.3730560" lon="-3.7126510">
        <ele>595.8</ele>
        <time>2021-05-08T17:29:30Z</time>
      </trkpt>
      <trkpt lat="40.3729950" lon="-3.7126260">
        <ele>595.9</ele>
        <time>2021-05-08T17:29:31Z</time>
      </trkpt>
      <trkpt lat="40.3729200" lon="-3.7125070">
        <ele>596.0</ele>
        <time>2021-05-08T17:29:33Z</time>
      </trkpt>
      <trkpt lat="40.3729100" lon="-3.7124230">
        <ele>596.0</ele>
        <time>2021-05-08T17:29:34Z</time>
      </trkpt>
      <trkpt lat="40.3729090" lon="-3.7122660">
        <ele>596.0</ele>
        <time>2021-05-08T17:29:36Z</time>
      </trkpt>
      <trkpt lat="40.3729570" lon="-3.7121160">
        <ele>595.7</ele>
        <time>2021-05-08T17:29:38Z</time>
      </trkpt>
      <trkpt lat="40.3730060" lon="-3.7120500">
        <ele>595.6</ele>
        <time>2021-05-08T17:29:39Z</time>
      </trkpt>
      <trkpt lat="40.3731000" lon="-3.7119210">
        <ele>595.3</ele>
        <time>2021-05-08T17:29:41Z</time>
      </trkpt>
      <trkpt lat="40.3730940" lon="-3.7117570">
        <ele>595.0</ele>
        <time>2021-05-08T17:29:43Z</time>
      </trkpt>
      <trkpt lat="40.3730270" lon="-3.7115950">
        <ele>594.8</ele>
        <time>2021-05-08T17:29:45Z</time>
      </trkpt>
      <trkpt lat="40.3729700" lon="-3.7114340">
        <ele>594.7</ele>
        <time>2021-05-08T17:29:47Z</time>
      </trkpt>
      <trkpt lat="40.3729240" lon="-3.7112650">
        <ele>594.7</ele>
        <time>2021-05-08T17:29:49Z</time>
      </trkpt>
      <trkpt lat="40.3728980" lon="-3.7111830">
        <ele>594.7</ele>
        <time>2021-05-08T17:29:50Z</time>
      </trkpt>
      <trkpt lat="40.3728500" lon="-3.7110190">
        <ele>594.7</ele>
        <time>2021-05-08T17:29:52Z</time>
      </trkpt>
      <trkpt lat="40.3727960" lon="-3.7108580">
        <ele>594.7</ele>
        <time>2021-05-08T17:29:54Z</time>
      </trkpt>
      <trkpt lat="40.3727260" lon="-3.7107160">
        <ele>594.7</ele>
        <time>2021-05-08T17:29:56Z</time>
      </trkpt>
      <trkpt lat="40.3727040" lon="-3.7106320">
        <ele>594.8</ele>
        <time>2021-05-08T17:29:57Z</time>
      </trkpt>
      <trkpt lat="40.3726760" lon="-3.7104540">
        <ele>594.8</ele>
        <time>2021-05-08T17:29:59Z</time>
      </trkpt>
      <trkpt lat="40.3726560" lon="-3.7103810">
        <ele>594.8</ele>
        <time>2021-05-08T17:30:00Z</time>
      </trkpt>
      <trkpt lat="40.3726100" lon="-3.7102320">
        <ele>594.8</ele>
        <time>2021-05-08T17:30:02Z</time>
      </trkpt>
      <trkpt lat="40.3725880" lon="-3.7101510">
        <ele>594.8</ele>
        <time>2021-05-08T17:30:03Z</time>
      </trkpt>
      <trkpt lat="40.3725440" lon="-3.7099970">
        <ele>594.8</ele>
        <time>2021-05-08T17:30:05Z</time>
      </trkpt>
      <trkpt lat="40.3725190" lon="-3.7099220">
        <ele>594.8</ele>
        <time>2021-05-08T17:30:06Z</time>
      </trkpt>
      <trkpt lat="40.3724840" lon="-3.7097570">
        <ele>594.8</ele>
        <time>2021-05-08T17:30:08Z</time>
      </trkpt>
      <trkpt lat="40.3724350" lon="-3.7095940">
        <ele>594.8</ele>
        <time>2021-05-08T17:30:10Z</time>
      </trkpt>
      <trkpt lat="40.3724110" lon="-3.7095120">
        <ele>594.8</ele>
        <time>2021-05-08T17:30:11Z</time>
      </trkpt>
      <trkpt lat="40.3723690" lon="-3.7093530">
        <ele>594.8</ele>
        <time>2021-05-08T17:30:13Z</time>
      </trkpt>
      <trkpt lat="40.3723490" lon="-3.7092750">
        <ele>594.8</ele>
        <time>2021-05-08T17:30:14Z</time>
      </trkpt>
      <trkpt lat="40.3723060" lon="-3.7091130">
        <ele>594.9</ele>
        <time>2021-05-08T17:30:16Z</time>
      </trkpt>
      <trkpt lat="40.3722610" lon="-3.7089590">
        <ele>594.9</ele>
        <time>2021-05-08T17:30:18Z</time>
      </trkpt>
      <trkpt lat="40.3722140" lon="-3.7088060">
        <ele>594.9</ele>
        <time>2021-05-08T17:30:20Z</time>
      </trkpt>
      <trkpt lat="40.3721890" lon="-3.7087310">
        <ele>595.0</ele>
        <time>2021-05-08T17:30:21Z</time>
      </trkpt>
      <trkpt lat="40.3721480" lon="-3.7085760">
        <ele>594.9</ele>
        <time>2021-05-08T17:30:23Z</time>
      </trkpt>
      <trkpt lat="40.3721070" lon="-3.7084140">
        <ele>594.9</ele>
        <time>2021-05-08T17:30:25Z</time>
      </trkpt>
      <trkpt lat="40.3720860" lon="-3.7083320">
        <ele>594.9</ele>
        <time>2021-05-08T17:30:26Z</time>
      </trkpt>
      <trkpt lat="40.3720420" lon="-3.7081730">
        <ele>594.9</ele>
        <time>2021-05-08T17:30:28Z</time>
      </trkpt>
      <trkpt lat="40.3720180" lon="-3.7080920">
        <ele>594.9</ele>
        <time>2021-05-08T17:30:29Z</time>
      </trkpt>
      <trkpt lat="40.3719750" lon="-3.7079290">
        <ele>594.9</ele>
        <time>2021-05-08T17:30:31Z</time>
      </trkpt>
      <trkpt lat="40.3719520" lon="-3.7078480">
        <ele>595.0</ele>
        <time>2021-05-08T17:30:32Z</time>
      </trkpt>
      <trkpt lat="40.3719300" lon="-3.7077680">
        <ele>595.0</ele>
        <time>2021-05-08T17:30:33Z</time>
      </trkpt>
      <trkpt lat="40.3719090" lon="-3.7076900">
        <ele>595.0</ele>
        <time>2021-05-08T17:30:34Z</time>
      </trkpt>
      <trkpt lat="40.3718660" lon="-3.7075370">
        <ele>595.0</ele>
        <time>2021-05-08T17:30:36Z</time>
      </trkpt>
      <trkpt lat="40.3718270" lon="-3.7073770">
        <ele>595.1</ele>
        <time>2021-05-08T17:30:38Z</time>
      </trkpt>
      <trkpt lat="40.3718080" lon="-3.7072970">
        <ele>595.1</ele>
        <time>2021-05-08T17:30:39Z</time>
      </trkpt>
      <trkpt lat="40.3717890" lon="-3.7072200">
        <ele>595.1</ele>
        <time>2021-05-08T17:30:40Z</time>
      </trkpt>
      <trkpt lat="40.3717470" lon="-3.7070670">
        <ele>595.0</ele>
        <time>2021-05-08T17:30:42Z</time>
      </trkpt>
      <trkpt lat="40.3717030" lon="-3.7069130">
        <ele>595.0</ele>
        <time>2021-05-08T17:30:44Z</time>
      </trkpt>
      <trkpt lat="40.3716810" lon="-3.7068360">
        <ele>595.0</ele>
        <time>2021-05-08T17:30:45Z</time>
      </trkpt>
      <trkpt lat="40.3716570" lon="-3.7067600">
        <ele>595.0</ele>
        <time>2021-05-08T17:30:46Z</time>
      </trkpt>
      <trkpt lat="40.3716100" lon="-3.7066080">
        <ele>595.0</ele>
        <time>2021-05-08T17:30:48Z</time>
      </trkpt>
      <trkpt lat="40.3715650" lon="-3.7064540">
        <ele>595.0</ele>
        <time>2021-05-08T17:30:50Z</time>
      </trkpt>
      <trkpt lat="40.3715200" lon="-3.7063060">
        <ele>595.0</ele>
        <time>2021-05-08T17:30:52Z</time>
      </trkpt>
      <trkpt lat="40.3714770" lon="-3.7061470">
        <ele>595.0</ele>
        <time>2021-05-08T17:30:54Z</time>
      </trkpt>
      <trkpt lat="40.3714570" lon="-3.7060670">
        <ele>595.0</ele>
        <time>2021-05-08T17:30:55Z</time>
      </trkpt>
      <trkpt lat="40.3714150" lon="-3.7059080">
        <ele>595.0</ele>
        <time>2021-05-08T17:30:57Z</time>
      </trkpt>
      <trkpt lat="40.3713690" lon="-3.7057530">
        <ele>595.1</ele>
        <time>2021-05-08T17:30:59Z</time>
      </trkpt>
      <trkpt lat="40.3713350" lon="-3.7055950">
        <ele>595.1</ele>
        <time>2021-05-08T17:31:01Z</time>
      </trkpt>
      <trkpt lat="40.3713150" lon="-3.7055140">
        <ele>595.1</ele>
        <time>2021-05-08T17:31:02Z</time>
      </trkpt>
      <trkpt lat="40.3712760" lon="-3.7053650">
        <ele>595.1</ele>
        <time>2021-05-08T17:31:04Z</time>
      </trkpt>
      <trkpt lat="40.3712570" lon="-3.7052960">
        <ele>595.2</ele>
        <time>2021-05-08T17:31:05Z</time>
      </trkpt>
      <trkpt lat="40.3712400" lon="-3.7052270">
        <ele>595.2</ele>
        <time>2021-05-08T17:31:06Z</time>
      </trkpt>
      <trkpt lat="40.3712300" lon="-3.7051360">
        <ele>595.3</ele>
        <time>2021-05-08T17:31:08Z</time>
      </trkpt>
      <trkpt lat="40.3712590" lon="-3.7050940">
        <ele>595.2</ele>
        <time>2021-05-08T17:31:10Z</time>
      </trkpt>
      <trkpt lat="40.3712930" lon="-3.7050950">
        <ele>595.2</ele>
        <time>2021-05-08T17:31:11Z</time>
      </trkpt>
      <trkpt lat="40.3713290" lon="-3.7050940">
        <ele>595.2</ele>
        <time>2021-05-08T17:31:12Z</time>
      </trkpt>
      <trkpt lat="40.3713620" lon="-3.7050780">
        <ele>595.2</ele>
        <time>2021-05-08T17:31:13Z</time>
      </trkpt>
      <trkpt lat="40.3713710" lon="-3.7050710">
        <ele>595.2</ele>
        <time>2021-05-08T17:31:14Z</time>
      </trkpt>
      <trkpt lat="40.3714200" lon="-3.7050240">
        <ele>595.1</ele>
        <time>2021-05-08T17:31:16Z</time>
      </trkpt>
      <trkpt lat="40.3714440" lon="-3.7049980">
        <ele>595.1</ele>
        <time>2021-05-08T17:31:17Z</time>
      </trkpt>
      <trkpt lat="40.3715190" lon="-3.7049650">
        <ele>594.9</ele>
        <time>2021-05-08T17:31:19Z</time>
      </trkpt>
      <trkpt lat="40.3715710" lon="-3.7049280">
        <ele>594.8</ele>
        <time>2021-05-08T17:31:20Z</time>
      </trkpt>
      <trkpt lat="40.3716470" lon="-3.7047860">
        <ele>594.5</ele>
        <time>2021-05-08T17:31:22Z</time>
      </trkpt>
      <trkpt lat="40.3716510" lon="-3.7046990">
        <ele>594.5</ele>
        <time>2021-05-08T17:31:23Z</time>
      </trkpt>
      <trkpt lat="40.3716360" lon="-3.7046000">
        <ele>594.5</ele>
        <time>2021-05-08T17:31:24Z</time>
      </trkpt>
      <trkpt lat="40.3715600" lon="-3.7044520">
        <ele>594.5</ele>
        <time>2021-05-08T17:31:26Z</time>
      </trkpt>
      <trkpt lat="40.3714670" lon="-3.7043440">
        <ele>594.6</ele>
        <time>2021-05-08T17:31:28Z</time>
      </trkpt>
      <trkpt lat="40.3713900" lon="-3.7042430">
        <ele>594.6</ele>
        <time>2021-05-08T17:31:30Z</time>
      </trkpt>
      <trkpt lat="40.3713550" lon="-3.7041160">
        <ele>594.5</ele>
        <time>2021-05-08T17:31:32Z</time>
      </trkpt>
      <trkpt lat="40.3713810" lon="-3.7039640">
        <ele>594.4</ele>
        <time>2021-05-08T17:31:34Z</time>
      </trkpt>
      <trkpt lat="40.3714050" lon="-3.7038920">
        <ele>594.3</ele>
        <time>2021-05-08T17:31:35Z</time>
      </trkpt>
      <trkpt lat="40.3714640" lon="-3.7037530">
        <ele>594.2</ele>
        <time>2021-05-08T17:31:37Z</time>
      </trkpt>
      <trkpt lat="40.3715010" lon="-3.7036880">
        <ele>594.1</ele>
        <time>2021-05-08T17:31:38Z</time>
      </trkpt>
      <trkpt lat="40.3715410" lon="-3.7036250">
        <ele>594.0</ele>
        <time>2021-05-08T17:31:39Z</time>
      </trkpt>
      <trkpt lat="40.3716240" lon="-3.7035040">
        <ele>593.8</ele>
        <time>2021-05-08T17:31:41Z</time>
      </trkpt>
      <trkpt lat="40.3716810" lon="-3.7034450">
        <ele>593.6</ele>
        <time>2021-05-08T17:31:42Z</time>
      </trkpt>
      <trkpt lat="40.3718250" lon="-3.7033630">
        <ele>593.2</ele>
        <time>2021-05-08T17:31:44Z</time>
      </trkpt>
      <trkpt lat="40.3719030" lon="-3.7033410">
        <ele>593.0</ele>
        <time>2021-05-08T17:31:45Z</time>
      </trkpt>
      <trkpt lat="40.3720560" lon="-3.7032880">
        <ele>592.7</ele>
        <time>2021-05-08T17:31:47Z</time>
      </trkpt>
      <trkpt lat="40.3722020" lon="-3.7032190">
        <ele>592.4</ele>
        <time>2021-05-08T17:31:49Z</time>
      </trkpt>
      <trkpt lat="40.3722770" lon="-3.7031910">
        <ele>592.3</ele>
        <time>2021-05-08T17:31:50Z</time>
      </trkpt>
      <trkpt lat="40.3723520" lon="-3.7031610">
        <ele>592.2</ele>
        <time>2021-05-08T17:31:51Z</time>
      </trkpt>
      <trkpt lat="40.3725010" lon="-3.7031030">
        <ele>592.0</ele>
        <time>2021-05-08T17:31:53Z</time>
      </trkpt>
      <trkpt lat="40.3726400" lon="-3.7030510">
        <ele>591.9</ele>
        <time>2021-05-08T17:31:55Z</time>
      </trkpt>
      <trkpt lat="40.3727160" lon="-3.7030260">
        <ele>591.8</ele>
        <time>2021-05-08T17:31:56Z</time>
      </trkpt>
      <trkpt lat="40.3728590" lon="-3.7029720">
        <ele>591.7</ele>
        <time>2021-05-08T17:31:58Z</time>
      </trkpt>
      <trkpt lat="40.3729980" lon="-3.7029190">
        <ele>591.5</ele>
        <time>2021-05-08T17:32:00Z</time>
      </trkpt>
      <trkpt lat="40.3730670" lon="-3.7029000">
        <ele>591.4</ele>
        <time>2021-05-08T17:32:01Z</time>
      </trkpt>
      <trkpt lat="40.3731360" lon="-3.7028900">
        <ele>591.3</ele>
        <time>2021-05-08T17:32:02Z</time>
      </trkpt>
      <trkpt lat="40.3732500" lon="-3.7028760">
        <ele>591.3</ele>
        <time>2021-05-08T17:32:04Z</time>
      </trkpt>
      <trkpt lat="40.3732750" lon="-3.7027590">
        <ele>591.2</ele>
        <time>2021-05-08T17:32:06Z</time>
      </trkpt>
      <trkpt lat="40.3732670" lon="-3.7026720">
        <ele>591.3</ele>
        <time>2021-05-08T17:32:07Z</time>
      </trkpt>
      <trkpt lat="40.3732500" lon="-3.7025310">
        <ele>591.1</ele>
        <time>2021-05-08T17:32:09Z</time>
      </trkpt>
      <trkpt lat="40.3732390" lon="-3.7023980">
        <ele>591.0</ele>
        <time>2021-05-08T17:32:11Z</time>
      </trkpt>
      <trkpt lat="40.3732410" lon="-3.7023330">
        <ele>590.9</ele>
        <time>2021-05-08T17:32:12Z</time>
      </trkpt>
      <trkpt lat="40.3732470" lon="-3.7022650">
        <ele>590.8</ele>
        <time>2021-05-08T17:32:13Z</time>
      </trkpt>
      <trkpt lat="40.3732510" lon="-3.7021900">
        <ele>590.8</ele>
        <time>2021-05-08T17:32:14Z</time>
      </trkpt>
      <trkpt lat="40.3732380" lon="-3.7020350">
        <ele>590.7</ele>
        <time>2021-05-08T17:32:16Z</time>
      </trkpt>
      <trkpt lat="40.3732140" lon="-3.7018700">
        <ele>590.6</ele>
        <time>2021-05-08T17:32:18Z</time>
      </trkpt>
      <trkpt lat="40.3732000" lon="-3.7017810">
        <ele>590.5</ele>
        <time>2021-05-08T17:32:19Z</time>
      </trkpt>
      <trkpt lat="40.3731880" lon="-3.7016930">
        <ele>590.5</ele>
        <time>2021-05-08T17:32:20Z</time>
      </trkpt>
      <trkpt lat="40.3731660" lon="-3.7015150">
        <ele>590.4</ele>
        <time>2021-05-08T17:32:22Z</time>
      </trkpt>
      <trkpt lat="40.3731450" lon="-3.7013350">
        <ele>590.5</ele>
        <time>2021-05-08T17:32:24Z</time>
      </trkpt>
      <trkpt lat="40.3731500" lon="-3.7011490">
        <ele>590.6</ele>
        <time>2021-05-08T17:32:26Z</time>
      </trkpt>
      <trkpt lat="40.3731600" lon="-3.7009700">
        <ele>590.8</ele>
        <time>2021-05-08T17:32:28Z</time>
      </trkpt>
      <trkpt lat="40.3731630" lon="-3.7008820">
        <ele>590.9</ele>
        <time>2021-05-08T17:32:29Z</time>
      </trkpt>
      <trkpt lat="40.3731720" lon="-3.7007060">
        <ele>591.0</ele>
        <time>2021-05-08T17:32:31Z</time>
      </trkpt>
      <trkpt lat="40.3731750" lon="-3.7006190">
        <ele>591.0</ele>
        <time>2021-05-08T17:32:32Z</time>
      </trkpt>
      <trkpt lat="40.3731770" lon="-3.7004530">
        <ele>591.1</ele>
        <time>2021-05-08T17:32:34Z</time>
      </trkpt>
      <trkpt lat="40.3731800" lon="-3.7003720">
        <ele>591.2</ele>
        <time>2021-05-08T17:32:35Z</time>
      </trkpt>
      <trkpt lat="40.3731810" lon="-3.7002110">
        <ele>591.3</ele>
        <time>2021-05-08T17:32:37Z</time>
      </trkpt>
      <trkpt lat="40.3731800" lon="-3.7000430">
        <ele>591.4</ele>
        <time>2021-05-08T17:32:39Z</time>
      </trkpt>
      <trkpt lat="40.3731910" lon="-3.6998720">
        <ele>591.6</ele>
        <time>2021-05-08T17:32:41Z</time>
      </trkpt>
      <trkpt lat="40.3731950" lon="-3.6997880">
        <ele>591.6</ele>
        <time>2021-05-08T17:32:42Z</time>
      </trkpt>
      <trkpt lat="40.3731950" lon="-3.6997000">
        <ele>591.7</ele>
        <time>2021-05-08T17:32:43Z</time>
      </trkpt>
      <trkpt lat="40.3731910" lon="-3.6996090">
        <ele>591.8</ele>
        <time>2021-05-08T17:32:44Z</time>
      </trkpt>
      <trkpt lat="40.3731930" lon="-3.6994340">
        <ele>592.0</ele>
        <time>2021-05-08T17:32:46Z</time>
      </trkpt>
      <trkpt lat="40.3732020" lon="-3.6993470">
        <ele>592.1</ele>
        <time>2021-05-08T17:32:47Z</time>
      </trkpt>
      <trkpt lat="40.3732110" lon="-3.6992660">
        <ele>592.3</ele>
        <time>2021-05-08T17:32:48Z</time>
      </trkpt>
      <trkpt lat="40.3732370" lon="-3.6991060">
        <ele>592.6</ele>
        <time>2021-05-08T17:32:50Z</time>
      </trkpt>
      <trkpt lat="40.3732630" lon="-3.6990330">
        <ele>592.8</ele>
        <time>2021-05-08T17:32:51Z</time>
      </trkpt>
      <trkpt lat="40.3732930" lon="-3.6988860">
        <ele>593.1</ele>
        <time>2021-05-08T17:32:53Z</time>
      </trkpt>
      <trkpt lat="40.3732920" lon="-3.6988120">
        <ele>593.2</ele>
        <time>2021-05-08T17:32:54Z</time>
      </trkpt>
      <trkpt lat="40.3732710" lon="-3.6986650">
        <ele>593.5</ele>
        <time>2021-05-08T17:32:56Z</time>
      </trkpt>
      <trkpt lat="40.3732360" lon="-3.6985260">
        <ele>593.7</ele>
        <time>2021-05-08T17:32:58Z</time>
      </trkpt>
      <trkpt lat="40.3731860" lon="-3.6983930">
        <ele>593.9</ele>
        <time>2021-05-08T17:33:00Z</time>
      </trkpt>
      <trkpt lat="40.3731560" lon="-3.6983320">
        <ele>594.0</ele>
        <time>2021-05-08T17:33:01Z</time>
      </trkpt>
      <trkpt lat="40.3730960" lon="-3.6982080">
        <ele>594.2</ele>
        <time>2021-05-08T17:33:03Z</time>
      </trkpt>
      <trkpt lat="40.3730560" lon="-3.6980720">
        <ele>594.3</ele>
        <time>2021-05-08T17:33:05Z</time>
      </trkpt>
      <trkpt lat="40.3730380" lon="-3.6979270">
        <ele>594.3</ele>
        <time>2021-05-08T17:33:07Z</time>
      </trkpt>
      <trkpt lat="40.3730320" lon="-3.6978500">
        <ele>594.3</ele>
        <time>2021-05-08T17:33:08Z</time>
      </trkpt>
      <trkpt lat="40.3730220" lon="-3.6976890">
        <ele>594.1</ele>
        <time>2021-05-08T17:33:10Z</time>
      </trkpt>
      <trkpt lat="40.3730120" lon="-3.6975170">
        <ele>593.8</ele>
        <time>2021-05-08T17:33:12Z</time>
      </trkpt>
      <trkpt lat="40.3730070" lon="-3.6974240">
        <ele>593.6</ele>
        <time>2021-05-08T17:33:13Z</time>
      </trkpt>
      <trkpt lat="40.3730050" lon="-3.6973310">
        <ele>593.4</ele>
        <time>2021-05-08T17:33:14Z</time>
      </trkpt>
      <trkpt lat="40.3730030" lon="-3.6971390">
        <ele>593.1</ele>
        <time>2021-05-08T17:33:16Z</time>
      </trkpt>
      <trkpt lat="40.3730020" lon="-3.6970420">
        <ele>592.9</ele>
        <time>2021-05-08T17:33:17Z</time>
      </trkpt>
      <trkpt lat="40.3729940" lon="-3.6968500">
        <ele>592.6</ele>
        <time>2021-05-08T17:33:19Z</time>
      </trkpt>
      <trkpt lat="40.3729850" lon="-3.6966540">
        <ele>592.2</ele>
        <time>2021-05-08T17:33:21Z</time>
      </trkpt>
      <trkpt lat="40.3729850" lon="-3.6965580">
        <ele>592.0</ele>
        <time>2021-05-08T17:33:22Z</time>
      </trkpt>
      <trkpt lat="40.3729950" lon="-3.6964610">
        <ele>591.9</ele>
        <time>2021-05-08T17:33:23Z</time>
      </trkpt>
      <trkpt lat="40.3730820" lon="-3.6963160">
        <ele>591.7</ele>
        <time>2021-05-08T17:33:25Z</time>
      </trkpt>
      <trkpt lat="40.3731520" lon="-3.6962720">
        <ele>591.5</ele>
        <time>2021-05-08T17:33:26Z</time>
      </trkpt>
      <trkpt lat="40.3732980" lon="-3.6962110">
        <ele>591.3</ele>
        <time>2021-05-08T17:33:28Z</time>
      </trkpt>
      <trkpt lat="40.3734210" lon="-3.6961430">
        <ele>591.1</ele>
        <time>2021-05-08T17:33:30Z</time>
      </trkpt>
      <trkpt lat="40.3734480" lon="-3.6960740">
        <ele>591.0</ele>
        <time>2021-05-08T17:33:31Z</time>
      </trkpt>
      <trkpt lat="40.3734940" lon="-3.6958910">
        <ele>590.8</ele>
        <time>2021-05-08T17:33:33Z</time>
      </trkpt>
      <trkpt lat="40.3735980" lon="-3.6957550">
        <ele>590.6</ele>
        <time>2021-05-08T17:33:35Z</time>
      </trkpt>
      <trkpt lat="40.3737300" lon="-3.6956420">
        <ele>590.2</ele>
        <time>2021-05-08T17:33:37Z</time>
      </trkpt>
      <trkpt lat="40.3737930" lon="-3.6955880">
        <ele>590.1</ele>
        <time>2021-05-08T17:33:38Z</time>
      </trkpt>
      <trkpt lat="40.3739350" lon="-3.6954810">
        <ele>589.8</ele>
        <time>2021-05-08T17:33:40Z</time>
      </trkpt>
      <trkpt lat="40.3740940" lon="-3.6954310">
        <ele>589.5</ele>
        <time>2021-05-08T17:33:42Z</time>
      </trkpt>
      <trkpt lat="40.3742650" lon="-3.6954340">
        <ele>589.1</ele>
        <time>2021-05-08T17:33:44Z</time>
      </trkpt>
      <trkpt lat="40.3744350" lon="-3.6954590">
        <ele>588.9</ele>
        <time>2021-05-08T17:33:46Z</time>
      </trkpt>
      <trkpt lat="40.3745970" lon="-3.6954990">
        <ele>588.6</ele>
        <time>2021-05-08T17:33:48Z</time>
      </trkpt>
      <trkpt lat="40.3746810" lon="-3.6955140">
        <ele>588.5</ele>
        <time>2021-05-08T17:33:49Z</time>
      </trkpt>
      <trkpt lat="40.3747650" lon="-3.6955270">
        <ele>588.4</ele>
        <time>2021-05-08T17:33:50Z</time>
      </trkpt>
      <trkpt lat="40.3749230" lon="-3.6955410">
        <ele>588.3</ele>
        <time>2021-05-08T17:33:52Z</time>
      </trkpt>
      <trkpt lat="40.3750560" lon="-3.6954450">
        <ele>588.2</ele>
        <time>2021-05-08T17:33:54Z</time>
      </trkpt>
      <trkpt lat="40.3751190" lon="-3.6954000">
        <ele>588.2</ele>
        <time>2021-05-08T17:33:55Z</time>
      </trkpt>
      <trkpt lat="40.3752530" lon="-3.6953560">
        <ele>588.2</ele>
        <time>2021-05-08T17:33:57Z</time>
      </trkpt>
      <trkpt lat="40.3753370" lon="-3.6952270">
        <ele>588.1</ele>
        <time>2021-05-08T17:33:59Z</time>
      </trkpt>
      <trkpt lat="40.3753410" lon="-3.6950610">
        <ele>587.9</ele>
        <time>2021-05-08T17:34:01Z</time>
      </trkpt>
      <trkpt lat="40.3753410" lon="-3.6949910">
        <ele>587.8</ele>
        <time>2021-05-08T17:34:02Z</time>
      </trkpt>
      <trkpt lat="40.3753580" lon="-3.6948260">
        <ele>587.7</ele>
        <time>2021-05-08T17:34:04Z</time>
      </trkpt>
      <trkpt lat="40.3753920" lon="-3.6946610">
        <ele>587.6</ele>
        <time>2021-05-08T17:34:06Z</time>
      </trkpt>
      <trkpt lat="40.3754010" lon="-3.6945730">
        <ele>587.4</ele>
        <time>2021-05-08T17:34:07Z</time>
      </trkpt>
      <trkpt lat="40.3754400" lon="-3.6944170">
        <ele>587.1</ele>
        <time>2021-05-08T17:34:09Z</time>
      </trkpt>
      <trkpt lat="40.3754670" lon="-3.6943410">
        <ele>587.0</ele>
        <time>2021-05-08T17:34:10Z</time>
      </trkpt>
      <trkpt lat="40.3755590" lon="-3.6942120">
        <ele>586.5</ele>
        <time>2021-05-08T17:34:12Z</time>
      </trkpt>
      <trkpt lat="40.3756340" lon="-3.6941790">
        <ele>586.2</ele>
        <time>2021-05-08T17:34:13Z</time>
      </trkpt>
      <trkpt lat="40.3757960" lon="-3.6941340">
        <ele>585.6</ele>
        <time>2021-05-08T17:34:15Z</time>
      </trkpt>
      <trkpt lat="40.3759340" lon="-3.6940320">
        <ele>585.0</ele>
        <time>2021-05-08T17:34:17Z</time>
      </trkpt>
      <trkpt lat="40.3760380" lon="-3.6938670">
        <ele>584.2</ele>
        <time>2021-05-08T17:34:19Z</time>
      </trkpt>
      <trkpt lat="40.3760650" lon="-3.6937560">
        <ele>583.7</ele>
        <time>2021-05-08T17:34:20Z</time>
      </trkpt>
      <trkpt lat="40.3760730" lon="-3.6936330">
        <ele>583.1</ele>
        <time>2021-05-08T17:34:21Z</time>
      </trkpt>
      <trkpt lat="40.3760650" lon="-3.6935040">
        <ele>582.4</ele>
        <time>2021-05-08T17:34:22Z</time>
      </trkpt>
      <trkpt lat="40.3760420" lon="-3.6933820">
        <ele>581.8</ele>
        <time>2021-05-08T17:34:23Z</time>
      </trkpt>
      <trkpt lat="40.3759450" lon="-3.6931390">
        <ele>580.8</ele>
        <time>2021-05-08T17:34:25Z</time>
      </trkpt>
      <trkpt lat="40.3758700" lon="-3.6928930">
        <ele>580.3</ele>
        <time>2021-05-08T17:34:27Z</time>
      </trkpt>
      <trkpt lat="40.3758080" lon="-3.6927160">
        <ele>579.9</ele>
        <time>2021-05-08T17:34:29Z</time>
      </trkpt>
      <trkpt lat="40.3757950" lon="-3.6925840">
        <ele>579.7</ele>
        <time>2021-05-08T17:34:31Z</time>
      </trkpt>
      <trkpt lat="40.3758050" lon="-3.6924440">
        <ele>579.6</ele>
        <time>2021-05-08T17:34:33Z</time>
      </trkpt>
      <trkpt lat="40.3757880" lon="-3.6923720">
        <ele>579.5</ele>
        <time>2021-05-08T17:34:34Z</time>
      </trkpt>
      <trkpt lat="40.3757600" lon="-3.6922990">
        <ele>579.4</ele>
        <time>2021-05-08T17:34:35Z</time>
      </trkpt>
      <trkpt lat="40.3757300" lon="-3.6922270">
        <ele>579.3</ele>
        <time>2021-05-08T17:34:36Z</time>
      </trkpt>
      <trkpt lat="40.3756990" lon="-3.6920790">
        <ele>579.2</ele>
        <time>2021-05-08T17:34:38Z</time>
      </trkpt>
      <trkpt lat="40.3757670" lon="-3.6919650">
        <ele>579.0</ele>
        <time>2021-05-08T17:34:40Z</time>
      </trkpt>
      <trkpt lat="40.3758840" lon="-3.6918980">
        <ele>578.8</ele>
        <time>2021-05-08T17:34:42Z</time>
      </trkpt>
      <trkpt lat="40.3759990" lon="-3.6918270">
        <ele>578.6</ele>
        <time>2021-05-08T17:34:44Z</time>
      </trkpt>
      <trkpt lat="40.3760580" lon="-3.6917870">
        <ele>578.5</ele>
        <time>2021-05-08T17:34:45Z</time>
      </trkpt>
      <trkpt lat="40.3761210" lon="-3.6917460">
        <ele>578.3</ele>
        <time>2021-05-08T17:34:46Z</time>
      </trkpt>
      <trkpt lat="40.3761890" lon="-3.6917030">
        <ele>578.2</ele>
        <time>2021-05-08T17:34:47Z</time>
      </trkpt>
      <trkpt lat="40.3763260" lon="-3.6916140">
        <ele>578.0</ele>
        <time>2021-05-08T17:34:49Z</time>
      </trkpt>
      <trkpt lat="40.3763920" lon="-3.6915670">
        <ele>577.9</ele>
        <time>2021-05-08T17:34:50Z</time>
      </trkpt>
      <trkpt lat="40.3765250" lon="-3.6914780">
        <ele>577.8</ele>
        <time>2021-05-08T17:34:52Z</time>
      </trkpt>
      <trkpt lat="40.3766570" lon="-3.6913880">
        <ele>577.6</ele>
        <time>2021-05-08T17:34:54Z</time>
      </trkpt>
      <trkpt lat="40.3767880" lon="-3.6913030">
        <ele>577.4</ele>
        <time>2021-05-08T17:34:56Z</time>
      </trkpt>
      <trkpt lat="40.3769110" lon="-3.6912180">
        <ele>577.3</ele>
        <time>2021-05-08T17:34:58Z</time>
      </trkpt>
      <trkpt lat="40.3769730" lon="-3.6911760">
        <ele>577.2</ele>
        <time>2021-05-08T17:34:59Z</time>
      </trkpt>
      <trkpt lat="40.3770880" lon="-3.6911030">
        <ele>577.0</ele>
        <time>2021-05-08T17:35:01Z</time>
      </trkpt>
      <trkpt lat="40.3771770" lon="-3.6910460">
        <ele>576.9</ele>
        <time>2021-05-08T17:35:03Z</time>
      </trkpt>
      <trkpt lat="40.3772780" lon="-3.6909890">
        <ele>576.8</ele>
        <time>2021-05-08T17:35:05Z</time>
      </trkpt>
      <trkpt lat="40.3773320" lon="-3.6909530">
        <ele>576.8</ele>
        <time>2021-05-08T17:35:06Z</time>
      </trkpt>
      <trkpt lat="40.3774350" lon="-3.6908850">
        <ele>576.6</ele>
        <time>2021-05-08T17:35:08Z</time>
      </trkpt>
      <trkpt lat="40.3774890" lon="-3.6908500">
        <ele>576.6</ele>
        <time>2021-05-08T17:35:09Z</time>
      </trkpt>
      <trkpt lat="40.3775420" lon="-3.6908140">
        <ele>576.5</ele>
        <time>2021-05-08T17:35:10Z</time>
      </trkpt>
      <trkpt lat="40.3776380" lon="-3.6907330">
        <ele>576.4</ele>
        <time>2021-05-08T17:35:12Z</time>
      </trkpt>
      <trkpt lat="40.3776670" lon="-3.6906730">
        <ele>576.3</ele>
        <time>2021-05-08T17:35:13Z</time>
      </trkpt>
      <trkpt lat="40.3776880" lon="-3.6905940">
        <ele>576.2</ele>
        <time>2021-05-08T17:35:14Z</time>
      </trkpt>
      <trkpt lat="40.3776920" lon="-3.6905020">
        <ele>576.2</ele>
        <time>2021-05-08T17:35:15Z</time>
      </trkpt>
      <trkpt lat="40.3776960" lon="-3.6904190">
        <ele>576.2</ele>
        <time>2021-05-08T17:35:16Z</time>
      </trkpt>
      <trkpt lat="40.3777120" lon="-3.6903140">
        <ele>576.1</ele>
        <time>2021-05-08T17:35:18Z</time>
      </trkpt>
      <trkpt lat="40.3777200" lon="-3.6902480">
        <ele>576.0</ele>
        <time>2021-05-08T17:35:20Z</time>
      </trkpt>
      <trkpt lat="40.3777290" lon="-3.6901600">
        <ele>576.1</ele>
        <time>2021-05-08T17:35:22Z</time>
      </trkpt>
      <trkpt lat="40.3777260" lon="-3.6901070">
        <ele>576.2</ele>
        <time>2021-05-08T17:35:23Z</time>
      </trkpt>
      <trkpt lat="40.3777180" lon="-3.6901190">
        <ele>576.2</ele>
        <time>2021-05-08T17:35:24Z</time>
      </trkpt>
      <trkpt lat="40.3777150" lon="-3.6900500">
        <ele>576.3</ele>
        <time>2021-05-08T17:35:26Z</time>
      </trkpt>
      <trkpt lat="40.3777240" lon="-3.6899630">
        <ele>576.5</ele>
        <time>2021-05-08T17:35:28Z</time>
      </trkpt>
      <trkpt lat="40.3777350" lon="-3.6898480">
        <ele>576.7</ele>
        <time>2021-05-08T17:35:30Z</time>
      </trkpt>
      <trkpt lat="40.3777010" lon="-3.6897960">
        <ele>576.9</ele>
        <time>2021-05-08T17:35:31Z</time>
      </trkpt>
      <trkpt lat="40.3776530" lon="-3.6897800">
        <ele>576.9</ele>
        <time>2021-05-08T17:35:32Z</time>
      </trkpt>
      <trkpt lat="40.3776010" lon="-3.6897680">
        <ele>576.9</ele>
        <time>2021-05-08T17:35:33Z</time>
      </trkpt>
      <trkpt lat="40.3775230" lon="-3.6897530">
        <ele>576.9</ele>
        <time>2021-05-08T17:35:35Z</time>
      </trkpt>
      <trkpt lat="40.3774140" lon="-3.6897170">
        <ele>576.9</ele>
        <time>2021-05-08T17:35:37Z</time>
      </trkpt>
      <trkpt lat="40.3773100" lon="-3.6896830">
        <ele>576.9</ele>
        <time>2021-05-08T17:35:39Z</time>
      </trkpt>
      <trkpt lat="40.3772110" lon="-3.6896450">
        <ele>576.9</ele>
        <time>2021-05-08T17:35:41Z</time>
      </trkpt>
      <trkpt lat="40.3771670" lon="-3.6896240">
        <ele>576.9</ele>
        <time>2021-05-08T17:35:42Z</time>
      </trkpt>
      <trkpt lat="40.3770730" lon="-3.6895970">
        <ele>576.9</ele>
        <time>2021-05-08T17:35:44Z</time>
      </trkpt>
      <trkpt lat="40.3770250" lon="-3.6895840">
        <ele>576.9</ele>
        <time>2021-05-08T17:35:45Z</time>
      </trkpt>
      <trkpt lat="40.3769770" lon="-3.6895700">
        <ele>576.9</ele>
        <time>2021-05-08T17:35:46Z</time>
      </trkpt>
      <trkpt lat="40.3768820" lon="-3.6895360">
        <ele>576.8</ele>
        <time>2021-05-08T17:35:48Z</time>
      </trkpt>
      <trkpt lat="40.3768330" lon="-3.6895180">
        <ele>576.8</ele>
        <time>2021-05-08T17:35:49Z</time>
      </trkpt>
      <trkpt lat="40.3767310" lon="-3.6894830">
        <ele>576.8</ele>
        <time>2021-05-08T17:35:51Z</time>
      </trkpt>
      <trkpt lat="40.3766200" lon="-3.6894530">
        <ele>576.8</ele>
        <time>2021-05-08T17:35:53Z</time>
      </trkpt>
      <trkpt lat="40.3765180" lon="-3.6894270">
        <ele>576.8</ele>
        <time>2021-05-08T17:35:55Z</time>
      </trkpt>
      <trkpt lat="40.3764650" lon="-3.6894150">
        <ele>576.8</ele>
        <time>2021-05-08T17:35:56Z</time>
      </trkpt>
      <trkpt lat="40.3763590" lon="-3.6894000">
        <ele>576.8</ele>
        <time>2021-05-08T17:35:58Z</time>
      </trkpt>
      <trkpt lat="40.3763080" lon="-3.6893920">
        <ele>576.9</ele>
        <time>2021-05-08T17:35:59Z</time>
      </trkpt>
      <trkpt lat="40.3762050" lon="-3.6893720">
        <ele>576.9</ele>
        <time>2021-05-08T17:36:01Z</time>
      </trkpt>
      <trkpt lat="40.3761510" lon="-3.6893620">
        <ele>576.9</ele>
        <time>2021-05-08T17:36:02Z</time>
      </trkpt>
      <trkpt lat="40.3760480" lon="-3.6893440">
        <ele>576.9</ele>
        <time>2021-05-08T17:36:04Z</time>
      </trkpt>
      <trkpt lat="40.3759530" lon="-3.6893240">
        <ele>576.9</ele>
        <time>2021-05-08T17:36:06Z</time>
      </trkpt>
      <trkpt lat="40.3758670" lon="-3.6892870">
        <ele>576.9</ele>
        <time>2021-05-08T17:36:08Z</time>
      </trkpt>
      <trkpt lat="40.3758250" lon="-3.6892700">
        <ele>576.8</ele>
        <time>2021-05-08T17:36:09Z</time>
      </trkpt>
      <trkpt lat="40.3757320" lon="-3.6892400">
        <ele>576.8</ele>
        <time>2021-05-08T17:36:11Z</time>
      </trkpt>
      <trkpt lat="40.3756800" lon="-3.6892260">
        <ele>576.8</ele>
        <time>2021-05-08T17:36:12Z</time>
      </trkpt>
      <trkpt lat="40.3756250" lon="-3.6892170">
        <ele>576.7</ele>
        <time>2021-05-08T17:36:13Z</time>
      </trkpt>
      <trkpt lat="40.3755690" lon="-3.6892130">
        <ele>576.7</ele>
        <time>2021-05-08T17:36:14Z</time>
      </trkpt>
      <trkpt lat="40.3754620" lon="-3.6892070">
        <ele>576.7</ele>
        <time>2021-05-08T17:36:16Z</time>
      </trkpt>
      <trkpt lat="40.3754070" lon="-3.6892030">
        <ele>576.7</ele>
        <time>2021-05-08T17:36:17Z</time>
      </trkpt>
      <trkpt lat="40.3753050" lon="-3.6891860">
        <ele>576.7</ele>
        <time>2021-05-08T17:36:19Z</time>
      </trkpt>
      <trkpt lat="40.3752160" lon="-3.6891630">
        <ele>576.6</ele>
        <time>2021-05-08T17:36:21Z</time>
      </trkpt>
      <trkpt lat="40.3751690" lon="-3.6891500">
        <ele>576.6</ele>
        <time>2021-05-08T17:36:22Z</time>
      </trkpt>
      <trkpt lat="40.3750780" lon="-3.6891200">
        <ele>576.6</ele>
        <time>2021-05-08T17:36:24Z</time>
      </trkpt>
      <trkpt lat="40.3750270" lon="-3.6891050">
        <ele>576.6</ele>
        <time>2021-05-08T17:36:25Z</time>
      </trkpt>
      <trkpt lat="40.3749230" lon="-3.6890910">
        <ele>576.6</ele>
        <time>2021-05-08T17:36:27Z</time>
      </trkpt>
      <trkpt lat="40.3748680" lon="-3.6890870">
        <ele>576.5</ele>
        <time>2021-05-08T17:36:28Z</time>
      </trkpt>
      <trkpt lat="40.3748110" lon="-3.6890830">
        <ele>576.5</ele>
        <time>2021-05-08T17:36:29Z</time>
      </trkpt>
      <trkpt lat="40.3746970" lon="-3.6890700">
        <ele>576.4</ele>
        <time>2021-05-08T17:36:31Z</time>
      </trkpt>
      <trkpt lat="40.3746390" lon="-3.6890630">
        <ele>576.4</ele>
        <time>2021-05-08T17:36:32Z</time>
      </trkpt>
      <trkpt lat="40.3745260" lon="-3.6890480">
        <ele>576.2</ele>
        <time>2021-05-08T17:36:34Z</time>
      </trkpt>
      <trkpt lat="40.3744180" lon="-3.6890320">
        <ele>576.1</ele>
        <time>2021-05-08T17:36:36Z</time>
      </trkpt>
      <trkpt lat="40.3743640" lon="-3.6890230">
        <ele>576.1</ele>
        <time>2021-05-08T17:36:37Z</time>
      </trkpt>
      <trkpt lat="40.3743080" lon="-3.6890130">
        <ele>576.0</ele>
        <time>2021-05-08T17:36:38Z</time>
      </trkpt>
      <trkpt lat="40.3741950" lon="-3.6889840">
        <ele>575.9</ele>
        <time>2021-05-08T17:36:40Z</time>
      </trkpt>
      <trkpt lat="40.3741350" lon="-3.6889660">
        <ele>575.8</ele>
        <time>2021-05-08T17:36:41Z</time>
      </trkpt>
      <trkpt lat="40.3740110" lon="-3.6889330">
        <ele>575.8</ele>
        <time>2021-05-08T17:36:43Z</time>
      </trkpt>
      <trkpt lat="40.3739560" lon="-3.6889220">
        <ele>575.9</ele>
        <time>2021-05-08T17:36:44Z</time>
      </trkpt>
      <trkpt lat="40.3738810" lon="-3.6888980">
        <ele>575.9</ele>
        <time>2021-05-08T17:36:46Z</time>
      </trkpt>
      <trkpt lat="40.3738370" lon="-3.6888480">
        <ele>575.9</ele>
        <time>2021-05-08T17:36:48Z</time>
      </trkpt>
      <trkpt lat="40.3738330" lon="-3.6888030">
        <ele>576.0</ele>
        <time>2021-05-08T17:36:49Z</time>
      </trkpt>
      <trkpt lat="40.3738310" lon="-3.6887560">
        <ele>576.0</ele>
        <time>2021-05-08T17:36:50Z</time>
      </trkpt>
      <trkpt lat="40.3738190" lon="-3.6886270">
        <ele>575.4</ele>
        <time>2021-05-08T17:36:52Z</time>
      </trkpt>
      <trkpt lat="40.3738270" lon="-3.6884550">
        <ele>574.5</ele>
        <time>2021-05-08T17:36:54Z</time>
      </trkpt>
      <trkpt lat="40.3738330" lon="-3.6883700">
        <ele>574.1</ele>
        <time>2021-05-08T17:36:55Z</time>
      </trkpt>
      <trkpt lat="40.3738390" lon="-3.6882790">
        <ele>573.6</ele>
        <time>2021-05-08T17:36:56Z</time>
      </trkpt>
      <trkpt lat="40.3738440" lon="-3.6880840">
        <ele>572.6</ele>
        <time>2021-05-08T17:36:58Z</time>
      </trkpt>
      <trkpt lat="40.3738470" lon="-3.6879780">
        <ele>572.1</ele>
        <time>2021-05-08T17:36:59Z</time>
      </trkpt>
      <trkpt lat="40.3738590" lon="-3.6878750">
        <ele>571.7</ele>
        <time>2021-05-08T17:37:00Z</time>
      </trkpt>
      <trkpt lat="40.3738780" lon="-3.6877700">
        <ele>571.3</ele>
        <time>2021-05-08T17:37:02Z</time>
      </trkpt>
      <trkpt lat="40.3738710" lon="-3.6877600">
        <ele>571.3</ele>
        <time>2021-05-08T17:37:03Z</time>
      </trkpt>
      <trkpt lat="40.3738830" lon="-3.6876330">
        <ele>570.9</ele>
        <time>2021-05-08T17:37:05Z</time>
      </trkpt>
      <trkpt lat="40.3738840" lon="-3.6875570">
        <ele>570.9</ele>
        <time>2021-05-08T17:37:06Z</time>
      </trkpt>
      <trkpt lat="40.3738790" lon="-3.6874430">
        <ele>571.0</ele>
        <time>2021-05-08T17:37:07Z</time>
      </trkpt>
      <trkpt lat="40.3738800" lon="-3.6873510">
        <ele>571.0</ele>
        <time>2021-05-08T17:37:09Z</time>
      </trkpt>
      <trkpt lat="40.3738850" lon="-3.6872520">
        <ele>571.0</ele>
        <time>2021-05-08T17:37:10Z</time>
      </trkpt>
      <trkpt lat="40.3738910" lon="-3.6871790">
        <ele>571.0</ele>
        <time>2021-05-08T17:37:11Z</time>
      </trkpt>
      <trkpt lat="40.3738980" lon="-3.6871100">
        <ele>570.9</ele>
        <time>2021-05-08T17:37:13Z</time>
      </trkpt>
      <trkpt lat="40.3739090" lon="-3.6870250">
        <ele>570.9</ele>
        <time>2021-05-08T17:37:14Z</time>
      </trkpt>
      <trkpt lat="40.3739270" lon="-3.6869200">
        <ele>570.8</ele>
        <time>2021-05-08T17:37:16Z</time>
      </trkpt>
      <trkpt lat="40.3739400" lon="-3.6867670">
        <ele>570.6</ele>
        <time>2021-05-08T17:37:18Z</time>
      </trkpt>
      <trkpt lat="40.3739390" lon="-3.6867060">
        <ele>570.6</ele>
        <time>2021-05-08T17:37:19Z</time>
      </trkpt>
      <trkpt lat="40.3739690" lon="-3.6866440">
        <ele>570.6</ele>
        <time>2021-05-08T17:37:20Z</time>
      </trkpt>
      <trkpt lat="40.3739630" lon="-3.6866090">
        <ele>570.5</ele>
        <time>2021-05-08T17:37:22Z</time>
      </trkpt>
      <trkpt lat="40.3739630" lon="-3.6866090">
        <ele>570.3</ele>
        <time>2021-05-08T17:37:23Z</time>
      </trkpt>
      <trkpt lat="40.3739710" lon="-3.6865800">
        <ele>570.2</ele>
        <time>2021-05-08T17:37:24Z</time>
      </trkpt>
      <trkpt lat="40.3739660" lon="-3.6865580">
        <ele>570.1</ele>
        <time>2021-05-08T17:37:26Z</time>
      </trkpt>
      <trkpt lat="40.3739280" lon="-3.6865210">
        <ele>570.0</ele>
        <time>2021-05-08T17:37:27Z</time>
      </trkpt>
      <trkpt lat="40.3739080" lon="-3.6865090">
        <ele>570.0</ele>
        <time>2021-05-08T17:37:28Z</time>
      </trkpt>
      <trkpt lat="40.3738750" lon="-3.6864820">
        <ele>569.9</ele>
        <time>2021-05-08T17:37:30Z</time>
      </trkpt>
      <trkpt lat="40.3738920" lon="-3.6863780">
        <ele>570.3</ele>
        <time>2021-05-08T17:37:32Z</time>
      </trkpt>
      <trkpt lat="40.3739140" lon="-3.6862970">
        <ele>570.5</ele>
        <time>2021-05-08T17:37:33Z</time>
      </trkpt>
      <trkpt lat="40.3739470" lon="-3.6862150">
        <ele>570.5</ele>
        <time>2021-05-08T17:37:34Z</time>
      </trkpt>
      <trkpt lat="40.3739740" lon="-3.6861770">
        <ele>570.6</ele>
        <time>2021-05-08T17:37:36Z</time>
      </trkpt>
      <trkpt lat="40.3739840" lon="-3.6861170">
        <ele>570.6</ele>
        <time>2021-05-08T17:37:37Z</time>
      </trkpt>
      <trkpt lat="40.3739570" lon="-3.6860310">
        <ele>570.7</ele>
        <time>2021-05-08T17:37:38Z</time>
      </trkpt>
      <trkpt lat="40.3739510" lon="-3.6859580">
        <ele>570.8</ele>
        <time>2021-05-08T17:37:40Z</time>
      </trkpt>
      <trkpt lat="40.3739520" lon="-3.6858210">
        <ele>570.9</ele>
        <time>2021-05-08T17:37:42Z</time>
      </trkpt>
      <trkpt lat="40.3739610" lon="-3.6856940">
        <ele>571.0</ele>
        <time>2021-05-08T17:37:44Z</time>
      </trkpt>
      <trkpt lat="40.3739660" lon="-3.6855750">
        <ele>571.1</ele>
        <time>2021-05-08T17:37:46Z</time>
      </trkpt>
      <trkpt lat="40.3739730" lon="-3.6854460">
        <ele>571.2</ele>
        <time>2021-05-08T17:37:48Z</time>
      </trkpt>
      <trkpt lat="40.3739790" lon="-3.6853690">
        <ele>571.3</ele>
        <time>2021-05-08T17:37:49Z</time>
      </trkpt>
      <trkpt lat="40.3739890" lon="-3.6852330">
        <ele>571.4</ele>
        <time>2021-05-08T17:37:51Z</time>
      </trkpt>
      <trkpt lat="40.3739970" lon="-3.6850870">
        <ele>571.6</ele>
        <time>2021-05-08T17:37:53Z</time>
      </trkpt>
      <trkpt lat="40.3740040" lon="-3.6849350">
        <ele>571.7</ele>
        <time>2021-05-08T17:37:55Z</time>
      </trkpt>
      <trkpt lat="40.3740150" lon="-3.6847860">
        <ele>571.8</ele>
        <time>2021-05-08T17:37:57Z</time>
      </trkpt>
      <trkpt lat="40.3740270" lon="-3.6846490">
        <ele>571.8</ele>
        <time>2021-05-08T17:37:59Z</time>
      </trkpt>
      <trkpt lat="40.3740300" lon="-3.6845820">
        <ele>571.8</ele>
        <time>2021-05-08T17:38:00Z</time>
      </trkpt>
      <trkpt lat="40.3740380" lon="-3.6844490">
        <ele>571.9</ele>
        <time>2021-05-08T17:38:02Z</time>
      </trkpt>
      <trkpt lat="40.3740360" lon="-3.6843900">
        <ele>572.0</ele>
        <time>2021-05-08T17:38:03Z</time>
      </trkpt>
      <trkpt lat="40.3740400" lon="-3.6842930">
        <ele>572.0</ele>
        <time>2021-05-08T17:38:05Z</time>
      </trkpt>
      <trkpt lat="40.3740460" lon="-3.6841590">
        <ele>572.2</ele>
        <time>2021-05-08T17:38:07Z</time>
      </trkpt>
      <trkpt lat="40.3740500" lon="-3.6840280">
        <ele>572.3</ele>
        <time>2021-05-08T17:38:09Z</time>
      </trkpt>
      <trkpt lat="40.3740580" lon="-3.6839040">
        <ele>572.4</ele>
        <time>2021-05-08T17:38:11Z</time>
      </trkpt>
      <trkpt lat="40.3740520" lon="-3.6837790">
        <ele>572.6</ele>
        <time>2021-05-08T17:38:13Z</time>
      </trkpt>
      <trkpt lat="40.3739990" lon="-3.6836760">
        <ele>572.7</ele>
        <time>2021-05-08T17:38:15Z</time>
      </trkpt>
      <trkpt lat="40.3739590" lon="-3.6836290">
        <ele>572.8</ele>
        <time>2021-05-08T17:38:16Z</time>
      </trkpt>
      <trkpt lat="40.3739290" lon="-3.6835730">
        <ele>572.8</ele>
        <time>2021-05-08T17:38:17Z</time>
      </trkpt>
      <trkpt lat="40.3739070" lon="-3.6834360">
        <ele>572.8</ele>
        <time>2021-05-08T17:38:19Z</time>
      </trkpt>
      <trkpt lat="40.3739090" lon="-3.6832910">
        <ele>572.9</ele>
        <time>2021-05-08T17:38:21Z</time>
      </trkpt>
      <trkpt lat="40.3739440" lon="-3.6831540">
        <ele>572.9</ele>
        <time>2021-05-08T17:38:23Z</time>
      </trkpt>
      <trkpt lat="40.3739630" lon="-3.6830150">
        <ele>573.1</ele>
        <time>2021-05-08T17:38:25Z</time>
      </trkpt>
      <trkpt lat="40.3739550" lon="-3.6829410">
        <ele>573.1</ele>
        <time>2021-05-08T17:38:26Z</time>
      </trkpt>
      <trkpt lat="40.3739330" lon="-3.6828720">
        <ele>573.1</ele>
        <time>2021-05-08T17:38:27Z</time>
      </trkpt>
      <trkpt lat="40.3739040" lon="-3.6828120">
        <ele>573.2</ele>
        <time>2021-05-08T17:38:28Z</time>
      </trkpt>
      <trkpt lat="40.3738630" lon="-3.6827340">
        <ele>573.2</ele>
        <time>2021-05-08T17:38:30Z</time>
      </trkpt>
      <trkpt lat="40.3738430" lon="-3.6826980">
        <ele>573.2</ele>
        <time>2021-05-08T17:38:31Z</time>
      </trkpt>
      <trkpt lat="40.3738290" lon="-3.6826770">
        <ele>573.3</ele>
        <time>2021-05-08T17:38:32Z</time>
      </trkpt>
      <trkpt lat="40.3737840" lon="-3.6826810">
        <ele>573.3</ele>
        <time>2021-05-08T17:38:34Z</time>
      </trkpt>
      <trkpt lat="40.3737470" lon="-3.6826970">
        <ele>573.3</ele>
        <time>2021-05-08T17:38:35Z</time>
      </trkpt>
      <trkpt lat="40.3737100" lon="-3.6827090">
        <ele>573.3</ele>
        <time>2021-05-08T17:38:36Z</time>
      </trkpt>
      <trkpt lat="40.3736910" lon="-3.6826620">
        <ele>573.3</ele>
        <time>2021-05-08T17:38:38Z</time>
      </trkpt>
      <trkpt lat="40.3736670" lon="-3.6825740">
        <ele>573.3</ele>
        <time>2021-05-08T17:38:39Z</time>
      </trkpt>
      <trkpt lat="40.3736440" lon="-3.6824980">
        <ele>573.2</ele>
        <time>2021-05-08T17:38:40Z</time>
      </trkpt>
      <trkpt lat="40.3735930" lon="-3.6823910">
        <ele>573.1</ele>
        <time>2021-05-08T17:38:42Z</time>
      </trkpt>
      <trkpt lat="40.3735560" lon="-3.6823200">
        <ele>573.1</ele>
        <time>2021-05-08T17:38:43Z</time>
      </trkpt>
      <trkpt lat="40.3735170" lon="-3.6822460">
        <ele>573.0</ele>
        <time>2021-05-08T17:38:44Z</time>
      </trkpt>
      <trkpt lat="40.3734810" lon="-3.6821770">
        <ele>573.0</ele>
        <time>2021-05-08T17:38:45Z</time>
      </trkpt>
      <trkpt lat="40.3733910" lon="-3.6820580">
        <ele>572.9</ele>
        <time>2021-05-08T17:38:47Z</time>
      </trkpt>
      <trkpt lat="40.3733380" lon="-3.6820160">
        <ele>572.9</ele>
        <time>2021-05-08T17:38:48Z</time>
      </trkpt>
      <trkpt lat="40.3732310" lon="-3.6819390">
        <ele>572.9</ele>
        <time>2021-05-08T17:38:50Z</time>
      </trkpt>
      <trkpt lat="40.3731820" lon="-3.6818910">
        <ele>572.9</ele>
        <time>2021-05-08T17:38:51Z</time>
      </trkpt>
      <trkpt lat="40.3731340" lon="-3.6818370">
        <ele>572.9</ele>
        <time>2021-05-08T17:38:52Z</time>
      </trkpt>
      <trkpt lat="40.3730880" lon="-3.6817830">
        <ele>572.9</ele>
        <time>2021-05-08T17:38:53Z</time>
      </trkpt>
      <trkpt lat="40.3730020" lon="-3.6816850">
        <ele>572.9</ele>
        <time>2021-05-08T17:38:55Z</time>
      </trkpt>
      <trkpt lat="40.3729200" lon="-3.6815830">
        <ele>572.9</ele>
        <time>2021-05-08T17:38:57Z</time>
      </trkpt>
      <trkpt lat="40.3728800" lon="-3.6815300">
        <ele>572.9</ele>
        <time>2021-05-08T17:38:58Z</time>
      </trkpt>
      <trkpt lat="40.3727860" lon="-3.6814360">
        <ele>572.8</ele>
        <time>2021-05-08T17:39:00Z</time>
      </trkpt>
      <trkpt lat="40.3727370" lon="-3.6813970">
        <ele>572.8</ele>
        <time>2021-05-08T17:39:01Z</time>
      </trkpt>
      <trkpt lat="40.3726330" lon="-3.6813180">
        <ele>572.6</ele>
        <time>2021-05-08T17:39:03Z</time>
      </trkpt>
      <trkpt lat="40.3725210" lon="-3.6812610">
        <ele>572.5</ele>
        <time>2021-05-08T17:39:05Z</time>
      </trkpt>
      <trkpt lat="40.3724620" lon="-3.6812300">
        <ele>572.5</ele>
        <time>2021-05-08T17:39:06Z</time>
      </trkpt>
      <trkpt lat="40.3723420" lon="-3.6811750">
        <ele>572.3</ele>
        <time>2021-05-08T17:39:08Z</time>
      </trkpt>
      <trkpt lat="40.3722780" lon="-3.6811530">
        <ele>572.3</ele>
        <time>2021-05-08T17:39:09Z</time>
      </trkpt>
      <trkpt lat="40.3721470" lon="-3.6811160">
        <ele>572.2</ele>
        <time>2021-05-08T17:39:11Z</time>
      </trkpt>
      <trkpt lat="40.3720150" lon="-3.6810770">
        <ele>572.2</ele>
        <time>2021-05-08T17:39:13Z</time>
      </trkpt>
      <trkpt lat="40.3719520" lon="-3.6810580">
        <ele>572.2</ele>
        <time>2021-05-08T17:39:14Z</time>
      </trkpt>
      <trkpt lat="40.3718260" lon="-3.6810210">
        <ele>572.2</ele>
        <time>2021-05-08T17:39:16Z</time>
      </trkpt>
      <trkpt lat="40.3717030" lon="-3.6809860">
        <ele>572.2</ele>
        <time>2021-05-08T17:39:18Z</time>
      </trkpt>
      <trkpt lat="40.3715800" lon="-3.6809440">
        <ele>572.2</ele>
        <time>2021-05-08T17:39:20Z</time>
      </trkpt>
      <trkpt lat="40.3715190" lon="-3.6809170">
        <ele>572.2</ele>
        <time>2021-05-08T17:39:21Z</time>
      </trkpt>
      <trkpt lat="40.3714600" lon="-3.6808900">
        <ele>572.2</ele>
        <time>2021-05-08T17:39:22Z</time>
      </trkpt>
      <trkpt lat="40.3713440" lon="-3.6808470">
        <ele>572.2</ele>
        <time>2021-05-08T17:39:24Z</time>
      </trkpt>
      <trkpt lat="40.3712870" lon="-3.6808260">
        <ele>572.2</ele>
        <time>2021-05-08T17:39:25Z</time>
      </trkpt>
      <trkpt lat="40.3712290" lon="-3.6808020">
        <ele>572.2</ele>
        <time>2021-05-08T17:39:26Z</time>
      </trkpt>
      <trkpt lat="40.3711170" lon="-3.6807560">
        <ele>572.3</ele>
        <time>2021-05-08T17:39:28Z</time>
      </trkpt>
      <trkpt lat="40.3710610" lon="-3.6807340">
        <ele>572.4</ele>
        <time>2021-05-08T17:39:29Z</time>
      </trkpt>
      <trkpt lat="40.3710080" lon="-3.6807120">
        <ele>572.5</ele>
        <time>2021-05-08T17:39:30Z</time>
      </trkpt>
      <trkpt lat="40.3709650" lon="-3.6806210">
        <ele>572.5</ele>
        <time>2021-05-08T17:39:32Z</time>
      </trkpt>
      <trkpt lat="40.3709900" lon="-3.6805410">
        <ele>572.6</ele>
        <time>2021-05-08T17:39:34Z</time>
      </trkpt>
      <trkpt lat="40.3710100" lon="-3.6805170">
        <ele>572.6</ele>
        <time>2021-05-08T17:39:35Z</time>
      </trkpt>
      <trkpt lat="40.3710300" lon="-3.6804350">
        <ele>572.6</ele>
        <time>2021-05-08T17:39:37Z</time>
      </trkpt>
      <trkpt lat="40.3710390" lon="-3.6803390">
        <ele>572.5</ele>
        <time>2021-05-08T17:39:39Z</time>
      </trkpt>
      <trkpt lat="40.3709920" lon="-3.6803470">
        <ele>572.5</ele>
        <time>2021-05-08T17:39:40Z</time>
      </trkpt>
      <trkpt lat="40.3709450" lon="-3.6803140">
        <ele>572.4</ele>
        <time>2021-05-08T17:39:42Z</time>
      </trkpt>
      <trkpt lat="40.3708980" lon="-3.6802730">
        <ele>572.4</ele>
        <time>2021-05-08T17:39:43Z</time>
      </trkpt>
      <trkpt lat="40.3708360" lon="-3.6802160">
        <ele>572.3</ele>
        <time>2021-05-08T17:39:44Z</time>
      </trkpt>
      <trkpt lat="40.3707250" lon="-3.6801740">
        <ele>572.2</ele>
        <time>2021-05-08T17:39:46Z</time>
      </trkpt>
      <trkpt lat="40.3706680" lon="-3.6801600">
        <ele>572.1</ele>
        <time>2021-05-08T17:39:47Z</time>
      </trkpt>
      <trkpt lat="40.3706120" lon="-3.6801380">
        <ele>572.0</ele>
        <time>2021-05-08T17:39:48Z</time>
      </trkpt>
      <trkpt lat="40.3705560" lon="-3.6801150">
        <ele>572.0</ele>
        <time>2021-05-08T17:39:49Z</time>
      </trkpt>
      <trkpt lat="40.3704450" lon="-3.6800680">
        <ele>571.8</ele>
        <time>2021-05-08T17:39:51Z</time>
      </trkpt>
      <trkpt lat="40.3703890" lon="-3.6800440">
        <ele>571.8</ele>
        <time>2021-05-08T17:39:52Z</time>
      </trkpt>
      <trkpt lat="40.3702710" lon="-3.6799880">
        <ele>571.6</ele>
        <time>2021-05-08T17:39:54Z</time>
      </trkpt>
      <trkpt lat="40.3701570" lon="-3.6799320">
        <ele>571.6</ele>
        <time>2021-05-08T17:39:56Z</time>
      </trkpt>
      <trkpt lat="40.3700440" lon="-3.6798800">
        <ele>571.5</ele>
        <time>2021-05-08T17:39:58Z</time>
      </trkpt>
      <trkpt lat="40.3699300" lon="-3.6798240">
        <ele>571.5</ele>
        <time>2021-05-08T17:40:00Z</time>
      </trkpt>
      <trkpt lat="40.3698760" lon="-3.6797960">
        <ele>571.5</ele>
        <time>2021-05-08T17:40:01Z</time>
      </trkpt>
      <trkpt lat="40.3697630" lon="-3.6797440">
        <ele>571.5</ele>
        <time>2021-05-08T17:40:03Z</time>
      </trkpt>
      <trkpt lat="40.3697060" lon="-3.6797160">
        <ele>571.4</ele>
        <time>2021-05-08T17:40:04Z</time>
      </trkpt>
      <trkpt lat="40.3695840" lon="-3.6796540">
        <ele>571.4</ele>
        <time>2021-05-08T17:40:06Z</time>
      </trkpt>
      <trkpt lat="40.3695230" lon="-3.6796200">
        <ele>571.4</ele>
        <time>2021-05-08T17:40:07Z</time>
      </trkpt>
      <trkpt lat="40.3694020" lon="-3.6795350">
        <ele>571.5</ele>
        <time>2021-05-08T17:40:09Z</time>
      </trkpt>
      <trkpt lat="40.3693430" lon="-3.6794860">
        <ele>571.6</ele>
        <time>2021-05-08T17:40:10Z</time>
      </trkpt>
      <trkpt lat="40.3692320" lon="-3.6793740">
        <ele>571.6</ele>
        <time>2021-05-08T17:40:12Z</time>
      </trkpt>
      <trkpt lat="40.3691900" lon="-3.6793070">
        <ele>571.6</ele>
        <time>2021-05-08T17:40:13Z</time>
      </trkpt>
      <trkpt lat="40.3691580" lon="-3.6792310">
        <ele>571.6</ele>
        <time>2021-05-08T17:40:14Z</time>
      </trkpt>
      <trkpt lat="40.3691120" lon="-3.6790640">
        <ele>571.7</ele>
        <time>2021-05-08T17:40:16Z</time>
      </trkpt>
      <trkpt lat="40.3690920" lon="-3.6788970">
        <ele>571.8</ele>
        <time>2021-05-08T17:40:18Z</time>
      </trkpt>
      <trkpt lat="40.3690750" lon="-3.6787410">
        <ele>572.0</ele>
        <time>2021-05-08T17:40:20Z</time>
      </trkpt>
      <trkpt lat="40.3690410" lon="-3.6785660">
        <ele>572.1</ele>
        <time>2021-05-08T17:40:22Z</time>
      </trkpt>
      <trkpt lat="40.3690330" lon="-3.6784700">
        <ele>572.2</ele>
        <time>2021-05-08T17:40:23Z</time>
      </trkpt>
      <trkpt lat="40.3690550" lon="-3.6783000">
        <ele>572.4</ele>
        <time>2021-05-08T17:40:25Z</time>
      </trkpt>
      <trkpt lat="40.3690980" lon="-3.6781510">
        <ele>572.6</ele>
        <time>2021-05-08T17:40:26Z</time>
      </trkpt>
      <trkpt lat="40.3691400" lon="-3.6779850">
        <ele>572.7</ele>
        <time>2021-05-08T17:40:29Z</time>
      </trkpt>
      <trkpt lat="40.3691500" lon="-3.6778990">
        <ele>572.8</ele>
        <time>2021-05-08T17:40:30Z</time>
      </trkpt>
      <trkpt lat="40.3691590" lon="-3.6777240">
        <ele>573.0</ele>
        <time>2021-05-08T17:40:32Z</time>
      </trkpt>
      <trkpt lat="40.3691680" lon="-3.6775260">
        <ele>573.2</ele>
        <time>2021-05-08T17:40:33Z</time>
      </trkpt>
      <trkpt lat="40.3691930" lon="-3.6774450">
        <ele>573.3</ele>
        <time>2021-05-08T17:40:35Z</time>
      </trkpt>
      <trkpt lat="40.3692350" lon="-3.6773740">
        <ele>573.5</ele>
        <time>2021-05-08T17:40:36Z</time>
      </trkpt>
      <trkpt lat="40.3692810" lon="-3.6773310">
        <ele>573.6</ele>
        <time>2021-05-08T17:40:37Z</time>
      </trkpt>
      <trkpt lat="40.3693100" lon="-3.6772640">
        <ele>573.8</ele>
        <time>2021-05-08T17:40:38Z</time>
      </trkpt>
      <trkpt lat="40.3693270" lon="-3.6771890">
        <ele>574.0</ele>
        <time>2021-05-08T17:40:39Z</time>
      </trkpt>
      <trkpt lat="40.3693470" lon="-3.6770530">
        <ele>574.4</ele>
        <time>2021-05-08T17:40:41Z</time>
      </trkpt>
      <trkpt lat="40.3693490" lon="-3.6769900">
        <ele>574.5</ele>
        <time>2021-05-08T17:40:42Z</time>
      </trkpt>
      <trkpt lat="40.3693440" lon="-3.6768900">
        <ele>574.7</ele>
        <time>2021-05-08T17:40:44Z</time>
      </trkpt>
      <trkpt lat="40.3693400" lon="-3.6768420">
        <ele>574.7</ele>
        <time>2021-05-08T17:40:45Z</time>
      </trkpt>
      <trkpt lat="40.3693240" lon="-3.6767260">
        <ele>574.9</ele>
        <time>2021-05-08T17:40:47Z</time>
      </trkpt>
      <trkpt lat="40.3693180" lon="-3.6766780">
        <ele>575.0</ele>
        <time>2021-05-08T17:40:48Z</time>
      </trkpt>
      <trkpt lat="40.3693090" lon="-3.6765790">
        <ele>575.1</ele>
        <time>2021-05-08T17:40:50Z</time>
      </trkpt>
      <trkpt lat="40.3693530" lon="-3.6765420">
        <ele>575.2</ele>
        <time>2021-05-08T17:40:51Z</time>
      </trkpt>
      <trkpt lat="40.3693270" lon="-3.6764810">
        <ele>575.3</ele>
        <time>2021-05-08T17:40:52Z</time>
      </trkpt>
      <trkpt lat="40.3692780" lon="-3.6764010">
        <ele>575.4</ele>
        <time>2021-05-08T17:40:53Z</time>
      </trkpt>
      <trkpt lat="40.3692330" lon="-3.6763430">
        <ele>575.6</ele>
        <time>2021-05-08T17:40:55Z</time>
      </trkpt>
      <trkpt lat="40.3691940" lon="-3.6762930">
        <ele>575.7</ele>
        <time>2021-05-08T17:40:56Z</time>
      </trkpt>
      <trkpt lat="40.3691570" lon="-3.6762380">
        <ele>575.8</ele>
        <time>2021-05-08T17:40:57Z</time>
      </trkpt>
      <trkpt lat="40.3690990" lon="-3.6761560">
        <ele>576.0</ele>
        <time>2021-05-08T17:40:58Z</time>
      </trkpt>
      <trkpt lat="40.3690600" lon="-3.6761110">
        <ele>576.2</ele>
        <time>2021-05-08T17:41:00Z</time>
      </trkpt>
      <trkpt lat="40.3689850" lon="-3.6760170">
        <ele>576.4</ele>
        <time>2021-05-08T17:41:02Z</time>
      </trkpt>
      <trkpt lat="40.3689510" lon="-3.6759470">
        <ele>576.6</ele>
        <time>2021-05-08T17:41:04Z</time>
      </trkpt>
      <trkpt lat="40.3688610" lon="-3.6758520">
        <ele>576.9</ele>
        <time>2021-05-08T17:41:06Z</time>
      </trkpt>
      <trkpt lat="40.3688230" lon="-3.6758030">
        <ele>577.0</ele>
        <time>2021-05-08T17:41:07Z</time>
      </trkpt>
      <trkpt lat="40.3687590" lon="-3.6757090">
        <ele>577.2</ele>
        <time>2021-05-08T17:41:09Z</time>
      </trkpt>
      <trkpt lat="40.3687250" lon="-3.6756630">
        <ele>577.3</ele>
        <time>2021-05-08T17:41:10Z</time>
      </trkpt>
      <trkpt lat="40.3686950" lon="-3.6756160">
        <ele>577.4</ele>
        <time>2021-05-08T17:41:11Z</time>
      </trkpt>
      <trkpt lat="40.3686250" lon="-3.6755280">
        <ele>577.5</ele>
        <time>2021-05-08T17:41:13Z</time>
      </trkpt>
      <trkpt lat="40.3685880" lon="-3.6754850">
        <ele>577.6</ele>
        <time>2021-05-08T17:41:14Z</time>
      </trkpt>
      <trkpt lat="40.3685500" lon="-3.6754430">
        <ele>577.7</ele>
        <time>2021-05-08T17:41:15Z</time>
      </trkpt>
      <trkpt lat="40.3684810" lon="-3.6753630">
        <ele>577.8</ele>
        <time>2021-05-08T17:41:17Z</time>
      </trkpt>
      <trkpt lat="40.3684170" lon="-3.6752800">
        <ele>578.0</ele>
        <time>2021-05-08T17:41:19Z</time>
      </trkpt>
      <trkpt lat="40.3683560" lon="-3.6751980">
        <ele>578.1</ele>
        <time>2021-05-08T17:41:21Z</time>
      </trkpt>
      <trkpt lat="40.3682890" lon="-3.6751190">
        <ele>578.3</ele>
        <time>2021-05-08T17:41:23Z</time>
      </trkpt>
      <trkpt lat="40.3682190" lon="-3.6750380">
        <ele>578.4</ele>
        <time>2021-05-08T17:41:25Z</time>
      </trkpt>
      <trkpt lat="40.3681850" lon="-3.6750020">
        <ele>578.5</ele>
        <time>2021-05-08T17:41:26Z</time>
      </trkpt>
      <trkpt lat="40.3681200" lon="-3.6749200">
        <ele>578.7</ele>
        <time>2021-05-08T17:41:28Z</time>
      </trkpt>
      <trkpt lat="40.3680490" lon="-3.6748370">
        <ele>578.9</ele>
        <time>2021-05-08T17:41:30Z</time>
      </trkpt>
      <trkpt lat="40.3679750" lon="-3.6747510">
        <ele>579.1</ele>
        <time>2021-05-08T17:41:32Z</time>
      </trkpt>
      <trkpt lat="40.3678910" lon="-3.6746850">
        <ele>579.3</ele>
        <time>2021-05-08T17:41:34Z</time>
      </trkpt>
      <trkpt lat="40.3678130" lon="-3.6746140">
        <ele>579.5</ele>
        <time>2021-05-08T17:41:36Z</time>
      </trkpt>
      <trkpt lat="40.3677750" lon="-3.6745760">
        <ele>579.6</ele>
        <time>2021-05-08T17:41:37Z</time>
      </trkpt>
      <trkpt lat="40.3677350" lon="-3.6745370">
        <ele>579.7</ele>
        <time>2021-05-08T17:41:38Z</time>
      </trkpt>
      <trkpt lat="40.3676530" lon="-3.6744720">
        <ele>579.9</ele>
        <time>2021-05-08T17:41:40Z</time>
      </trkpt>
      <trkpt lat="40.3676100" lon="-3.6744390">
        <ele>580.0</ele>
        <time>2021-05-08T17:41:41Z</time>
      </trkpt>
      <trkpt lat="40.3675690" lon="-3.6744040">
        <ele>580.1</ele>
        <time>2021-05-08T17:41:42Z</time>
      </trkpt>
      <trkpt lat="40.3674860" lon="-3.6743350">
        <ele>580.3</ele>
        <time>2021-05-08T17:41:43Z</time>
      </trkpt>
      <trkpt lat="40.3673990" lon="-3.6742670">
        <ele>580.5</ele>
        <time>2021-05-08T17:41:46Z</time>
      </trkpt>
      <trkpt lat="40.3673080" lon="-3.6742050">
        <ele>580.7</ele>
        <time>2021-05-08T17:41:47Z</time>
      </trkpt>
      <trkpt lat="40.3672660" lon="-3.6741700">
        <ele>580.8</ele>
        <time>2021-05-08T17:41:49Z</time>
      </trkpt>
      <trkpt lat="40.3672220" lon="-3.6741320">
        <ele>580.9</ele>
        <time>2021-05-08T17:41:50Z</time>
      </trkpt>
      <trkpt lat="40.3671800" lon="-3.6740980">
        <ele>581.1</ele>
        <time>2021-05-08T17:41:51Z</time>
      </trkpt>
      <trkpt lat="40.3670970" lon="-3.6740240">
        <ele>581.3</ele>
        <time>2021-05-08T17:41:52Z</time>
      </trkpt>
      <trkpt lat="40.3670150" lon="-3.6739540">
        <ele>581.6</ele>
        <time>2021-05-08T17:41:54Z</time>
      </trkpt>
      <trkpt lat="40.3669740" lon="-3.6739200">
        <ele>581.7</ele>
        <time>2021-05-08T17:41:55Z</time>
      </trkpt>
      <trkpt lat="40.3668960" lon="-3.6738560">
        <ele>581.9</ele>
        <time>2021-05-08T17:41:57Z</time>
      </trkpt>
      <trkpt lat="40.3668550" lon="-3.6738240">
        <ele>582.1</ele>
        <time>2021-05-08T17:41:59Z</time>
      </trkpt>
      <trkpt lat="40.3667760" lon="-3.6737610">
        <ele>582.4</ele>
        <time>2021-05-08T17:42:01Z</time>
      </trkpt>
      <trkpt lat="40.3667040" lon="-3.6736970">
        <ele>582.6</ele>
        <time>2021-05-08T17:42:02Z</time>
      </trkpt>
      <trkpt lat="40.3666270" lon="-3.6736370">
        <ele>582.9</ele>
        <time>2021-05-08T17:42:05Z</time>
      </trkpt>
      <trkpt lat="40.3666000" lon="-3.6736180">
        <ele>583.0</ele>
        <time>2021-05-08T17:42:06Z</time>
      </trkpt>
      <trkpt lat="40.3665630" lon="-3.6735910">
        <ele>583.1</ele>
        <time>2021-05-08T17:42:07Z</time>
      </trkpt>
      <trkpt lat="40.3664880" lon="-3.6735390">
        <ele>583.4</ele>
        <time>2021-05-08T17:42:09Z</time>
      </trkpt>
      <trkpt lat="40.3664470" lon="-3.6735290">
        <ele>583.5</ele>
        <time>2021-05-08T17:42:10Z</time>
      </trkpt>
      <trkpt lat="40.3664060" lon="-3.6734970">
        <ele>583.7</ele>
        <time>2021-05-08T17:42:11Z</time>
      </trkpt>
      <trkpt lat="40.3663470" lon="-3.6734250">
        <ele>584.0</ele>
        <time>2021-05-08T17:42:12Z</time>
      </trkpt>
      <trkpt lat="40.3663100" lon="-3.6733690">
        <ele>584.2</ele>
        <time>2021-05-08T17:42:13Z</time>
      </trkpt>
      <trkpt lat="40.3662730" lon="-3.6733220">
        <ele>584.4</ele>
        <time>2021-05-08T17:42:14Z</time>
      </trkpt>
      <trkpt lat="40.3662300" lon="-3.6732670">
        <ele>584.6</ele>
        <time>2021-05-08T17:42:16Z</time>
      </trkpt>
      <trkpt lat="40.3662160" lon="-3.6731860">
        <ele>584.7</ele>
        <time>2021-05-08T17:42:17Z</time>
      </trkpt>
      <trkpt lat="40.3662210" lon="-3.6731050">
        <ele>584.6</ele>
        <time>2021-05-08T17:42:18Z</time>
      </trkpt>
      <trkpt lat="40.3662260" lon="-3.6730380">
        <ele>584.6</ele>
        <time>2021-05-08T17:42:19Z</time>
      </trkpt>
      <trkpt lat="40.3662690" lon="-3.6729090">
        <ele>584.5</ele>
        <time>2021-05-08T17:42:21Z</time>
      </trkpt>
      <trkpt lat="40.3662950" lon="-3.6728460">
        <ele>584.5</ele>
        <time>2021-05-08T17:42:22Z</time>
      </trkpt>
      <trkpt lat="40.3663210" lon="-3.6727840">
        <ele>584.4</ele>
        <time>2021-05-08T17:42:23Z</time>
      </trkpt>
      <trkpt lat="40.3663670" lon="-3.6726650">
        <ele>584.4</ele>
        <time>2021-05-08T17:42:25Z</time>
      </trkpt>
      <trkpt lat="40.3663890" lon="-3.6726040">
        <ele>584.4</ele>
        <time>2021-05-08T17:42:26Z</time>
      </trkpt>
      <trkpt lat="40.3664320" lon="-3.6724790">
        <ele>584.4</ele>
        <time>2021-05-08T17:42:28Z</time>
      </trkpt>
      <trkpt lat="40.3664750" lon="-3.6723600">
        <ele>584.4</ele>
        <time>2021-05-08T17:42:30Z</time>
      </trkpt>
      <trkpt lat="40.3665150" lon="-3.6722280">
        <ele>584.5</ele>
        <time>2021-05-08T17:42:32Z</time>
      </trkpt>
      <trkpt lat="40.3665370" lon="-3.6721620">
        <ele>584.5</ele>
        <time>2021-05-08T17:42:34Z</time>
      </trkpt>
      <trkpt lat="40.3665800" lon="-3.6720250">
        <ele>584.5</ele>
        <time>2021-05-08T17:42:35Z</time>
      </trkpt>
      <trkpt lat="40.3666260" lon="-3.6718880">
        <ele>584.6</ele>
        <time>2021-05-08T17:42:37Z</time>
      </trkpt>
      <trkpt lat="40.3666900" lon="-3.6716780">
        <ele>584.7</ele>
        <time>2021-05-08T17:42:40Z</time>
      </trkpt>
      <trkpt lat="40.3667150" lon="-3.6716040">
        <ele>584.7</ele>
        <time>2021-05-08T17:42:41Z</time>
      </trkpt>
      <trkpt lat="40.3667610" lon="-3.6714570">
        <ele>584.8</ele>
        <time>2021-05-08T17:42:43Z</time>
      </trkpt>
      <trkpt lat="40.3667820" lon="-3.6713860">
        <ele>584.8</ele>
        <time>2021-05-08T17:42:45Z</time>
      </trkpt>
      <trkpt lat="40.3668280" lon="-3.6712420">
        <ele>584.9</ele>
        <time>2021-05-08T17:42:47Z</time>
      </trkpt>
      <trkpt lat="40.3668760" lon="-3.6711030">
        <ele>584.9</ele>
        <time>2021-05-08T17:42:48Z</time>
      </trkpt>
      <trkpt lat="40.3669030" lon="-3.6710320">
        <ele>585.0</ele>
        <time>2021-05-08T17:42:50Z</time>
      </trkpt>
      <trkpt lat="40.3669510" lon="-3.6708830">
        <ele>585.1</ele>
        <time>2021-05-08T17:42:51Z</time>
      </trkpt>
      <trkpt lat="40.3669720" lon="-3.6708040">
        <ele>585.1</ele>
        <time>2021-05-08T17:42:52Z</time>
      </trkpt>
      <trkpt lat="40.3670160" lon="-3.6706510">
        <ele>585.2</ele>
        <time>2021-05-08T17:42:54Z</time>
      </trkpt>
      <trkpt lat="40.3670380" lon="-3.6705690">
        <ele>585.3</ele>
        <time>2021-05-08T17:42:55Z</time>
      </trkpt>
      <trkpt lat="40.3670860" lon="-3.6704200">
        <ele>585.4</ele>
        <time>2021-05-08T17:42:57Z</time>
      </trkpt>
      <trkpt lat="40.3671120" lon="-3.6703440">
        <ele>585.5</ele>
        <time>2021-05-08T17:42:58Z</time>
      </trkpt>
      <trkpt lat="40.3671630" lon="-3.6701910">
        <ele>585.7</ele>
        <time>2021-05-08T17:43:00Z</time>
      </trkpt>
      <trkpt lat="40.3672100" lon="-3.6700390">
        <ele>585.9</ele>
        <time>2021-05-08T17:43:02Z</time>
      </trkpt>
      <trkpt lat="40.3672530" lon="-3.6698880">
        <ele>586.2</ele>
        <time>2021-05-08T17:43:04Z</time>
      </trkpt>
      <trkpt lat="40.3672780" lon="-3.6698210">
        <ele>586.4</ele>
        <time>2021-05-08T17:43:05Z</time>
      </trkpt>
      <trkpt lat="40.3673010" lon="-3.6697500">
        <ele>586.5</ele>
        <time>2021-05-08T17:43:06Z</time>
      </trkpt>
      <trkpt lat="40.3673420" lon="-3.6696050">
        <ele>586.9</ele>
        <time>2021-05-08T17:43:08Z</time>
      </trkpt>
      <trkpt lat="40.3673620" lon="-3.6695360">
        <ele>587.1</ele>
        <time>2021-05-08T17:43:09Z</time>
      </trkpt>
      <trkpt lat="40.3673830" lon="-3.6694650">
        <ele>587.3</ele>
        <time>2021-05-08T17:43:10Z</time>
      </trkpt>
      <trkpt lat="40.3674250" lon="-3.6693290">
        <ele>587.7</ele>
        <time>2021-05-08T17:43:12Z</time>
      </trkpt>
      <trkpt lat="40.3674460" lon="-3.6692610">
        <ele>587.9</ele>
        <time>2021-05-08T17:43:13Z</time>
      </trkpt>
      <trkpt lat="40.3674840" lon="-3.6691340">
        <ele>588.2</ele>
        <time>2021-05-08T17:43:15Z</time>
      </trkpt>
      <trkpt lat="40.3675200" lon="-3.6690120">
        <ele>588.6</ele>
        <time>2021-05-08T17:43:17Z</time>
      </trkpt>
      <trkpt lat="40.3675350" lon="-3.6689520">
        <ele>588.7</ele>
        <time>2021-05-08T17:43:18Z</time>
      </trkpt>
      <trkpt lat="40.3675590" lon="-3.6688300">
        <ele>589.1</ele>
        <time>2021-05-08T17:43:20Z</time>
      </trkpt>
      <trkpt lat="40.3675700" lon="-3.6687700">
        <ele>589.3</ele>
        <time>2021-05-08T17:43:21Z</time>
      </trkpt>
      <trkpt lat="40.3675810" lon="-3.6687100">
        <ele>589.5</ele>
        <time>2021-05-08T17:43:22Z</time>
      </trkpt>
      <trkpt lat="40.3675970" lon="-3.6685980">
        <ele>589.8</ele>
        <time>2021-05-08T17:43:24Z</time>
      </trkpt>
      <trkpt lat="40.3676070" lon="-3.6685010">
        <ele>590.1</ele>
        <time>2021-05-08T17:43:27Z</time>
      </trkpt>
      <trkpt lat="40.3676210" lon="-3.6683790">
        <ele>590.4</ele>
        <time>2021-05-08T17:43:28Z</time>
      </trkpt>
      <trkpt lat="40.3676290" lon="-3.6683080">
        <ele>590.5</ele>
        <time>2021-05-08T17:43:30Z</time>
      </trkpt>
      <trkpt lat="40.3676400" lon="-3.6682570">
        <ele>590.7</ele>
        <time>2021-05-08T17:43:31Z</time>
      </trkpt>
      <trkpt lat="40.3676440" lon="-3.6682360">
        <ele>590.7</ele>
        <time>2021-05-08T17:43:33Z</time>
      </trkpt>
      <trkpt lat="40.3676470" lon="-3.6682160">
        <ele>590.7</ele>
        <time>2021-05-08T17:43:34Z</time>
      </trkpt>
      <trkpt lat="40.3676620" lon="-3.6679910">
        <ele>591.2</ele>
        <time>2021-05-08T17:43:35Z</time>
      </trkpt>
      <trkpt lat="40.3676680" lon="-3.6679070">
        <ele>591.3</ele>
        <time>2021-05-08T17:43:36Z</time>
      </trkpt>
      <trkpt lat="40.3676730" lon="-3.6678380">
        <ele>591.4</ele>
        <time>2021-05-08T17:43:38Z</time>
      </trkpt>
      <trkpt lat="40.3676840" lon="-3.6677130">
        <ele>591.7</ele>
        <time>2021-05-08T17:43:39Z</time>
      </trkpt>
      <trkpt lat="40.3676890" lon="-3.6675860">
        <ele>591.9</ele>
        <time>2021-05-08T17:43:41Z</time>
      </trkpt>
      <trkpt lat="40.3676930" lon="-3.6674580">
        <ele>592.1</ele>
        <time>2021-05-08T17:43:43Z</time>
      </trkpt>
      <trkpt lat="40.3676980" lon="-3.6674000">
        <ele>592.2</ele>
        <time>2021-05-08T17:43:44Z</time>
      </trkpt>
      <trkpt lat="40.3677050" lon="-3.6672840">
        <ele>592.4</ele>
        <time>2021-05-08T17:43:46Z</time>
      </trkpt>
      <trkpt lat="40.3677100" lon="-3.6672280">
        <ele>592.5</ele>
        <time>2021-05-08T17:43:47Z</time>
      </trkpt>
      <trkpt lat="40.3677180" lon="-3.6671130">
        <ele>592.7</ele>
        <time>2021-05-08T17:43:50Z</time>
      </trkpt>
      <trkpt lat="40.3677210" lon="-3.6670650">
        <ele>592.7</ele>
        <time>2021-05-08T17:43:51Z</time>
      </trkpt>
      <trkpt lat="40.3677250" lon="-3.6669360">
        <ele>592.9</ele>
        <time>2021-05-08T17:43:52Z</time>
      </trkpt>
      <trkpt lat="40.3677270" lon="-3.6668730">
        <ele>593.0</ele>
        <time>2021-05-08T17:43:54Z</time>
      </trkpt>
      <trkpt lat="40.3677330" lon="-3.6667560">
        <ele>593.1</ele>
        <time>2021-05-08T17:43:55Z</time>
      </trkpt>
      <trkpt lat="40.3677350" lon="-3.6666970">
        <ele>593.2</ele>
        <time>2021-05-08T17:43:56Z</time>
      </trkpt>
      <trkpt lat="40.3677440" lon="-3.6665190">
        <ele>593.5</ele>
        <time>2021-05-08T17:43:59Z</time>
      </trkpt>
      <trkpt lat="40.3677440" lon="-3.6664570">
        <ele>593.6</ele>
        <time>2021-05-08T17:44:01Z</time>
      </trkpt>
      <trkpt lat="40.3677470" lon="-3.6663950">
        <ele>593.7</ele>
        <time>2021-05-08T17:44:02Z</time>
      </trkpt>
      <trkpt lat="40.3677530" lon="-3.6662780">
        <ele>593.9</ele>
        <time>2021-05-08T17:44:04Z</time>
      </trkpt>
      <trkpt lat="40.3677570" lon="-3.6662180">
        <ele>594.0</ele>
        <time>2021-05-08T17:44:05Z</time>
      </trkpt>
      <trkpt lat="40.3677670" lon="-3.6660900">
        <ele>594.2</ele>
        <time>2021-05-08T17:44:07Z</time>
      </trkpt>
      <trkpt lat="40.3677750" lon="-3.6660270">
        <ele>594.3</ele>
        <time>2021-05-08T17:44:08Z</time>
      </trkpt>
      <trkpt lat="40.3677870" lon="-3.6659060">
        <ele>594.4</ele>
        <time>2021-05-08T17:44:10Z</time>
      </trkpt>
      <trkpt lat="40.3677930" lon="-3.6657860">
        <ele>594.6</ele>
        <time>2021-05-08T17:44:11Z</time>
      </trkpt>
      <trkpt lat="40.3677960" lon="-3.6656630">
        <ele>594.8</ele>
        <time>2021-05-08T17:44:14Z</time>
      </trkpt>
      <trkpt lat="40.3678000" lon="-3.6656010">
        <ele>594.9</ele>
        <time>2021-05-08T17:44:15Z</time>
      </trkpt>
      <trkpt lat="40.3678090" lon="-3.6654760">
        <ele>595.1</ele>
        <time>2021-05-08T17:44:17Z</time>
      </trkpt>
      <trkpt lat="40.3678140" lon="-3.6653540">
        <ele>595.3</ele>
        <time>2021-05-08T17:44:19Z</time>
      </trkpt>
      <trkpt lat="40.3678160" lon="-3.6652910">
        <ele>595.4</ele>
        <time>2021-05-08T17:44:20Z</time>
      </trkpt>
      <trkpt lat="40.3678180" lon="-3.6652290">
        <ele>595.5</ele>
        <time>2021-05-08T17:44:21Z</time>
      </trkpt>
      <trkpt lat="40.3678200" lon="-3.6651110">
        <ele>595.7</ele>
        <time>2021-05-08T17:44:23Z</time>
      </trkpt>
      <trkpt lat="40.3678180" lon="-3.6650490">
        <ele>595.8</ele>
        <time>2021-05-08T17:44:24Z</time>
      </trkpt>
      <trkpt lat="40.3678140" lon="-3.6649230">
        <ele>596.0</ele>
        <time>2021-05-08T17:44:26Z</time>
      </trkpt>
      <trkpt lat="40.3678140" lon="-3.6648610">
        <ele>596.1</ele>
        <time>2021-05-08T17:44:27Z</time>
      </trkpt>
      <trkpt lat="40.3678170" lon="-3.6647480">
        <ele>596.3</ele>
        <time>2021-05-08T17:44:29Z</time>
      </trkpt>
      <trkpt lat="40.3678150" lon="-3.6646310">
        <ele>596.5</ele>
        <time>2021-05-08T17:44:31Z</time>
      </trkpt>
      <trkpt lat="40.3678050" lon="-3.6645300">
        <ele>596.6</ele>
        <time>2021-05-08T17:44:33Z</time>
      </trkpt>
      <trkpt lat="40.3677950" lon="-3.6644200">
        <ele>596.8</ele>
        <time>2021-05-08T17:44:35Z</time>
      </trkpt>
      <trkpt lat="40.3677890" lon="-3.6643060">
        <ele>597.1</ele>
        <time>2021-05-08T17:44:37Z</time>
      </trkpt>
      <trkpt lat="40.3677830" lon="-3.6641930">
        <ele>597.3</ele>
        <time>2021-05-08T17:44:39Z</time>
      </trkpt>
      <trkpt lat="40.3677650" lon="-3.6641300">
        <ele>597.4</ele>
        <time>2021-05-08T17:44:40Z</time>
      </trkpt>
      <trkpt lat="40.3677600" lon="-3.6640650">
        <ele>597.5</ele>
        <time>2021-05-08T17:44:41Z</time>
      </trkpt>
      <trkpt lat="40.3677470" lon="-3.6639880">
        <ele>597.6</ele>
        <time>2021-05-08T17:44:42Z</time>
      </trkpt>
      <trkpt lat="40.3677200" lon="-3.6639140">
        <ele>597.9</ele>
        <time>2021-05-08T17:44:44Z</time>
      </trkpt>
      <trkpt lat="40.3676720" lon="-3.6638260">
        <ele>597.9</ele>
        <time>2021-05-08T17:44:46Z</time>
      </trkpt>
      <trkpt lat="40.3676410" lon="-3.6638370">
        <ele>597.9</ele>
        <time>2021-05-08T17:44:47Z</time>
      </trkpt>
      <trkpt lat="40.3675950" lon="-3.6637650">
        <ele>598.0</ele>
        <time>2021-05-08T17:44:49Z</time>
      </trkpt>
      <trkpt lat="40.3675460" lon="-3.6635800">
        <ele>598.1</ele>
        <time>2021-05-08T17:44:51Z</time>
      </trkpt>
      <trkpt lat="40.3675510" lon="-3.6634360">
        <ele>598.3</ele>
        <time>2021-05-08T17:44:53Z</time>
      </trkpt>
      <trkpt lat="40.3675870" lon="-3.6632980">
        <ele>598.4</ele>
        <time>2021-05-08T17:44:55Z</time>
      </trkpt>
      <trkpt lat="40.3676180" lon="-3.6631570">
        <ele>598.4</ele>
        <time>2021-05-08T17:44:56Z</time>
      </trkpt>
      <trkpt lat="40.3676270" lon="-3.6630810">
        <ele>598.4</ele>
        <time>2021-05-08T17:44:58Z</time>
      </trkpt>
      <trkpt lat="40.3676290" lon="-3.6629210">
        <ele>598.4</ele>
        <time>2021-05-08T17:45:00Z</time>
      </trkpt>
      <trkpt lat="40.3676250" lon="-3.6627610">
        <ele>598.4</ele>
        <time>2021-05-08T17:45:02Z</time>
      </trkpt>
      <trkpt lat="40.3676080" lon="-3.6626040">
        <ele>598.5</ele>
        <time>2021-05-08T17:45:03Z</time>
      </trkpt>
      <trkpt lat="40.3675970" lon="-3.6625270">
        <ele>598.5</ele>
        <time>2021-05-08T17:45:05Z</time>
      </trkpt>
      <trkpt lat="40.3675890" lon="-3.6624500">
        <ele>598.6</ele>
        <time>2021-05-08T17:45:06Z</time>
      </trkpt>
      <trkpt lat="40.3675750" lon="-3.6622940">
        <ele>598.8</ele>
        <time>2021-05-08T17:45:08Z</time>
      </trkpt>
      <trkpt lat="40.3675630" lon="-3.6621430">
        <ele>598.9</ele>
        <time>2021-05-08T17:45:10Z</time>
      </trkpt>
      <trkpt lat="40.3675510" lon="-3.6619910">
        <ele>599.1</ele>
        <time>2021-05-08T17:45:12Z</time>
      </trkpt>
      <trkpt lat="40.3675430" lon="-3.6619140">
        <ele>599.1</ele>
        <time>2021-05-08T17:45:13Z</time>
      </trkpt>
      <trkpt lat="40.3675340" lon="-3.6618380">
        <ele>599.2</ele>
        <time>2021-05-08T17:45:14Z</time>
      </trkpt>
      <trkpt lat="40.3675150" lon="-3.6616890">
        <ele>599.4</ele>
        <time>2021-05-08T17:45:16Z</time>
      </trkpt>
      <trkpt lat="40.3674950" lon="-3.6615410">
        <ele>599.6</ele>
        <time>2021-05-08T17:45:18Z</time>
      </trkpt>
      <trkpt lat="40.3674870" lon="-3.6614660">
        <ele>599.7</ele>
        <time>2021-05-08T17:45:19Z</time>
      </trkpt>
      <trkpt lat="40.3674680" lon="-3.6613200">
        <ele>599.9</ele>
        <time>2021-05-08T17:45:20Z</time>
      </trkpt>
      <trkpt lat="40.3674570" lon="-3.6612490">
        <ele>599.9</ele>
        <time>2021-05-08T17:45:22Z</time>
      </trkpt>
      <trkpt lat="40.3674470" lon="-3.6611780">
        <ele>600.0</ele>
        <time>2021-05-08T17:45:23Z</time>
      </trkpt>
      <trkpt lat="40.3674180" lon="-3.6609570">
        <ele>600.4</ele>
        <time>2021-05-08T17:45:25Z</time>
      </trkpt>
      <trkpt lat="40.3674080" lon="-3.6608800">
        <ele>600.5</ele>
        <time>2021-05-08T17:45:27Z</time>
      </trkpt>
      <trkpt lat="40.3673880" lon="-3.6607290">
        <ele>600.7</ele>
        <time>2021-05-08T17:45:29Z</time>
      </trkpt>
      <trkpt lat="40.3673750" lon="-3.6606550">
        <ele>600.8</ele>
        <time>2021-05-08T17:45:30Z</time>
      </trkpt>
      <trkpt lat="40.3673520" lon="-3.6605080">
        <ele>601.0</ele>
        <time>2021-05-08T17:45:32Z</time>
      </trkpt>
      <trkpt lat="40.3673420" lon="-3.6604300">
        <ele>601.1</ele>
        <time>2021-05-08T17:45:33Z</time>
      </trkpt>
      <trkpt lat="40.3673280" lon="-3.6602780">
        <ele>601.3</ele>
        <time>2021-05-08T17:45:34Z</time>
      </trkpt>
      <trkpt lat="40.3673130" lon="-3.6601240">
        <ele>601.5</ele>
        <time>2021-05-08T17:45:36Z</time>
      </trkpt>
      <trkpt lat="40.3673050" lon="-3.6600480">
        <ele>601.6</ele>
        <time>2021-05-08T17:45:38Z</time>
      </trkpt>
      <trkpt lat="40.3672890" lon="-3.6599000">
        <ele>601.9</ele>
        <time>2021-05-08T17:45:40Z</time>
      </trkpt>
      <trkpt lat="40.3672800" lon="-3.6597540">
        <ele>602.1</ele>
        <time>2021-05-08T17:45:42Z</time>
      </trkpt>
      <trkpt lat="40.3672710" lon="-3.6596010">
        <ele>602.3</ele>
        <time>2021-05-08T17:45:43Z</time>
      </trkpt>
      <trkpt lat="40.3672630" lon="-3.6595190">
        <ele>602.4</ele>
        <time>2021-05-08T17:45:45Z</time>
      </trkpt>
      <trkpt lat="40.3672570" lon="-3.6594480">
        <ele>602.4</ele>
        <time>2021-05-08T17:45:46Z</time>
      </trkpt>
      <trkpt lat="40.3672530" lon="-3.6593160">
        <ele>602.4</ele>
        <time>2021-05-08T17:45:47Z</time>
      </trkpt>
      <trkpt lat="40.3672550" lon="-3.6592510">
        <ele>602.4</ele>
        <time>2021-05-08T17:45:49Z</time>
      </trkpt>
      <trkpt lat="40.3672380" lon="-3.6591180">
        <ele>602.3</ele>
        <time>2021-05-08T17:45:51Z</time>
      </trkpt>
      <trkpt lat="40.3672150" lon="-3.6589660">
        <ele>602.2</ele>
        <time>2021-05-08T17:45:53Z</time>
      </trkpt>
      <trkpt lat="40.3671990" lon="-3.6587880">
        <ele>602.4</ele>
        <time>2021-05-08T17:45:55Z</time>
      </trkpt>
      <trkpt lat="40.3671860" lon="-3.6587020">
        <ele>602.5</ele>
        <time>2021-05-08T17:45:56Z</time>
      </trkpt>
      <trkpt lat="40.3671550" lon="-3.6585520">
        <ele>602.7</ele>
        <time>2021-05-08T17:45:58Z</time>
      </trkpt>
      <trkpt lat="40.3671290" lon="-3.6583980">
        <ele>602.9</ele>
        <time>2021-05-08T17:46:00Z</time>
      </trkpt>
      <trkpt lat="40.3671050" lon="-3.6582470">
        <ele>603.1</ele>
        <time>2021-05-08T17:46:02Z</time>
      </trkpt>
      <trkpt lat="40.3670810" lon="-3.6580980">
        <ele>603.3</ele>
        <time>2021-05-08T17:46:04Z</time>
      </trkpt>
      <trkpt lat="40.3670720" lon="-3.6580230">
        <ele>603.4</ele>
        <time>2021-05-08T17:46:05Z</time>
      </trkpt>
      <trkpt lat="40.3670530" lon="-3.6578790">
        <ele>603.6</ele>
        <time>2021-05-08T17:46:07Z</time>
      </trkpt>
      <trkpt lat="40.3670330" lon="-3.6577360">
        <ele>603.8</ele>
        <time>2021-05-08T17:46:09Z</time>
      </trkpt>
      <trkpt lat="40.3670240" lon="-3.6576670">
        <ele>603.9</ele>
        <time>2021-05-08T17:46:10Z</time>
      </trkpt>
      <trkpt lat="40.3670060" lon="-3.6575370">
        <ele>604.0</ele>
        <time>2021-05-08T17:46:12Z</time>
      </trkpt>
      <trkpt lat="40.3669870" lon="-3.6574040">
        <ele>604.2</ele>
        <time>2021-05-08T17:46:14Z</time>
      </trkpt>
      <trkpt lat="40.3669730" lon="-3.6573350">
        <ele>604.3</ele>
        <time>2021-05-08T17:46:15Z</time>
      </trkpt>
      <trkpt lat="40.3669590" lon="-3.6572650">
        <ele>604.3</ele>
        <time>2021-05-08T17:46:16Z</time>
      </trkpt>
      <trkpt lat="40.3669480" lon="-3.6571940">
        <ele>604.4</ele>
        <time>2021-05-08T17:46:17Z</time>
      </trkpt>
      <trkpt lat="40.3669340" lon="-3.6570520">
        <ele>604.7</ele>
        <time>2021-05-08T17:46:18Z</time>
      </trkpt>
      <trkpt lat="40.3669300" lon="-3.6569800">
        <ele>604.8</ele>
        <time>2021-05-08T17:46:20Z</time>
      </trkpt>
      <trkpt lat="40.3669230" lon="-3.6569100">
        <ele>604.9</ele>
        <time>2021-05-08T17:46:21Z</time>
      </trkpt>
      <trkpt lat="40.3669120" lon="-3.6567630">
        <ele>605.2</ele>
        <time>2021-05-08T17:46:23Z</time>
      </trkpt>
      <trkpt lat="40.3669030" lon="-3.6566150">
        <ele>605.5</ele>
        <time>2021-05-08T17:46:25Z</time>
      </trkpt>
      <trkpt lat="40.3668980" lon="-3.6565460">
        <ele>605.6</ele>
        <time>2021-05-08T17:46:26Z</time>
      </trkpt>
      <trkpt lat="40.3668910" lon="-3.6564080">
        <ele>605.9</ele>
        <time>2021-05-08T17:46:28Z</time>
      </trkpt>
      <trkpt lat="40.3668870" lon="-3.6562720">
        <ele>606.2</ele>
        <time>2021-05-08T17:46:30Z</time>
      </trkpt>
      <trkpt lat="40.3668810" lon="-3.6561340">
        <ele>606.5</ele>
        <time>2021-05-08T17:46:32Z</time>
      </trkpt>
      <trkpt lat="40.3668740" lon="-3.6560010">
        <ele>606.8</ele>
        <time>2021-05-08T17:46:34Z</time>
      </trkpt>
      <trkpt lat="40.3668710" lon="-3.6558790">
        <ele>607.1</ele>
        <time>2021-05-08T17:46:36Z</time>
      </trkpt>
      <trkpt lat="40.3668690" lon="-3.6557570">
        <ele>607.4</ele>
        <time>2021-05-08T17:46:38Z</time>
      </trkpt>
      <trkpt lat="40.3668630" lon="-3.6556340">
        <ele>607.7</ele>
        <time>2021-05-08T17:46:40Z</time>
      </trkpt>
      <trkpt lat="40.3668610" lon="-3.6555150">
        <ele>608.0</ele>
        <time>2021-05-08T17:46:41Z</time>
      </trkpt>
      <trkpt lat="40.3668580" lon="-3.6554540">
        <ele>608.2</ele>
        <time>2021-05-08T17:46:43Z</time>
      </trkpt>
      <trkpt lat="40.3668390" lon="-3.6553350">
        <ele>608.5</ele>
        <time>2021-05-08T17:46:45Z</time>
      </trkpt>
      <trkpt lat="40.3667950" lon="-3.6552230">
        <ele>608.8</ele>
        <time>2021-05-08T17:46:47Z</time>
      </trkpt>
      <trkpt lat="40.3667820" lon="-3.6551640">
        <ele>608.9</ele>
        <time>2021-05-08T17:46:48Z</time>
      </trkpt>
      <trkpt lat="40.3667800" lon="-3.6550570">
        <ele>609.1</ele>
        <time>2021-05-08T17:46:50Z</time>
      </trkpt>
      <trkpt lat="40.3667870" lon="-3.6549820">
        <ele>609.2</ele>
        <time>2021-05-08T17:46:51Z</time>
      </trkpt>
      <trkpt lat="40.3668260" lon="-3.6548620">
        <ele>609.4</ele>
        <time>2021-05-08T17:46:53Z</time>
      </trkpt>
      <trkpt lat="40.3668530" lon="-3.6548110">
        <ele>609.6</ele>
        <time>2021-05-08T17:46:54Z</time>
      </trkpt>
      <trkpt lat="40.3668800" lon="-3.6547620">
        <ele>609.8</ele>
        <time>2021-05-08T17:46:55Z</time>
      </trkpt>
      <trkpt lat="40.3669040" lon="-3.6547220">
        <ele>610.0</ele>
        <time>2021-05-08T17:46:56Z</time>
      </trkpt>
      <trkpt lat="40.3669350" lon="-3.6546290">
        <ele>610.3</ele>
        <time>2021-05-08T17:46:57Z</time>
      </trkpt>
      <trkpt lat="40.3669450" lon="-3.6545780">
        <ele>610.5</ele>
        <time>2021-05-08T17:46:59Z</time>
      </trkpt>
      <trkpt lat="40.3669530" lon="-3.6545170">
        <ele>610.7</ele>
        <time>2021-05-08T17:47:00Z</time>
      </trkpt>
      <trkpt lat="40.3669560" lon="-3.6544870">
        <ele>610.7</ele>
        <time>2021-05-08T17:47:01Z</time>
      </trkpt>
      <trkpt lat="40.3669570" lon="-3.6544600">
        <ele>610.8</ele>
        <time>2021-05-08T17:47:03Z</time>
      </trkpt>
      <trkpt lat="40.3669630" lon="-3.6543480">
        <ele>610.9</ele>
        <time>2021-05-08T17:47:05Z</time>
      </trkpt>
      <trkpt lat="40.3669590" lon="-3.6543300">
        <ele>610.9</ele>
        <time>2021-05-08T17:47:07Z</time>
      </trkpt>
      <trkpt lat="40.3669560" lon="-3.6543490">
        <ele>610.9</ele>
        <time>2021-05-08T17:47:08Z</time>
      </trkpt>
      <trkpt lat="40.3669440" lon="-3.6543660">
        <ele>610.9</ele>
        <time>2021-05-08T17:47:10Z</time>
      </trkpt>
      <trkpt lat="40.3669350" lon="-3.6543640">
        <ele>611.0</ele>
        <time>2021-05-08T17:47:11Z</time>
      </trkpt>
      <trkpt lat="40.3669320" lon="-3.6544010">
        <ele>611.0</ele>
        <time>2021-05-08T17:47:13Z</time>
      </trkpt>
      <trkpt lat="40.3669340" lon="-3.6544190">
        <ele>611.0</ele>
        <time>2021-05-08T17:47:14Z</time>
      </trkpt>
      <trkpt lat="40.3669350" lon="-3.6544620">
        <ele>611.1</ele>
        <time>2021-05-08T17:47:15Z</time>
      </trkpt>
      <trkpt lat="40.3669330" lon="-3.6545000">
        <ele>611.1</ele>
        <time>2021-05-08T17:47:17Z</time>
      </trkpt>
      <trkpt lat="40.3669290" lon="-3.6545110">
        <ele>611.1</ele>
        <time>2021-05-08T17:47:18Z</time>
      </trkpt>
      <trkpt lat="40.3669200" lon="-3.6545550">
        <ele>611.2</ele>
        <time>2021-05-08T17:47:20Z</time>
      </trkpt>
      <trkpt lat="40.3669220" lon="-3.6545740">
        <ele>611.2</ele>
        <time>2021-05-08T17:47:21Z</time>
      </trkpt>
      <trkpt lat="40.3669310" lon="-3.6545790">
        <ele>611.2</ele>
        <time>2021-05-08T17:47:23Z</time>
      </trkpt>
      <trkpt lat="40.3669410" lon="-3.6545700">
        <ele>611.2</ele>
        <time>2021-05-08T17:47:24Z</time>
      </trkpt>
      <trkpt lat="40.3669410" lon="-3.6545670">
        <ele>611.2</ele>
        <time>2021-05-08T17:47:25Z</time>
      </trkpt>
      <trkpt lat="40.3669400" lon="-3.6545660">
        <ele>611.2</ele>
        <time>2021-05-08T17:47:27Z</time>
      </trkpt>
      <trkpt lat="40.3669380" lon="-3.6545650">
        <ele>611.3</ele>
        <time>2021-05-08T17:47:29Z</time>
      </trkpt>
      <trkpt lat="40.3669370" lon="-3.6545640">
        <ele>611.3</ele>
        <time>2021-05-08T17:47:30Z</time>
      </trkpt>
      <trkpt lat="40.3669410" lon="-3.6545620">
        <ele>611.3</ele>
        <time>2021-05-08T17:47:31Z</time>
      </trkpt>
      <trkpt lat="40.3669670" lon="-3.6545700">
        <ele>611.3</ele>
        <time>2021-05-08T17:47:33Z</time>
      </trkpt>
      <trkpt lat="40.3670080" lon="-3.6545830">
        <ele>611.4</ele>
        <time>2021-05-08T17:47:34Z</time>
      </trkpt>
      <trkpt lat="40.3670430" lon="-3.6545990">
        <ele>611.4</ele>
        <time>2021-05-08T17:47:36Z</time>
      </trkpt>
      <trkpt lat="40.3670670" lon="-3.6546150">
        <ele>611.5</ele>
        <time>2021-05-08T17:47:37Z</time>
      </trkpt>
      <trkpt lat="40.3670970" lon="-3.6546380">
        <ele>611.5</ele>
        <time>2021-05-08T17:47:39Z</time>
      </trkpt>
      <trkpt lat="40.3670980" lon="-3.6546400">
        <ele>611.5</ele>
        <time>2021-05-08T17:47:40Z</time>
      </trkpt>
      <trkpt lat="40.3670950" lon="-3.6546340">
        <ele>611.6</ele>
        <time>2021-05-08T17:47:41Z</time>
      </trkpt>
      <trkpt lat="40.3670920" lon="-3.6546270">
        <ele>611.6</ele>
        <time>2021-05-08T17:47:44Z</time>
      </trkpt>
      <trkpt lat="40.3670890" lon="-3.6546210">
        <ele>611.6</ele>
        <time>2021-05-08T17:47:45Z</time>
      </trkpt>
      <trkpt lat="40.3670850" lon="-3.6546150">
        <ele>611.6</ele>
        <time>2021-05-08T17:47:46Z</time>
      </trkpt>
      <trkpt lat="40.3670820" lon="-3.6546090">
        <ele>611.6</ele>
        <time>2021-05-08T17:47:48Z</time>
      </trkpt>
      <trkpt lat="40.3670790" lon="-3.6546020">
        <ele>611.6</ele>
        <time>2021-05-08T17:47:50Z</time>
      </trkpt>
      <trkpt lat="40.3670760" lon="-3.6545960">
        <ele>611.6</ele>
        <time>2021-05-08T17:47:51Z</time>
      </trkpt>
      <trkpt lat="40.3670730" lon="-3.6545900">
        <ele>611.6</ele>
        <time>2021-05-08T17:47:52Z</time>
      </trkpt>
      <trkpt lat="40.3670470" lon="-3.6545570">
        <ele>611.7</ele>
        <time>2021-05-08T17:47:54Z</time>
      </trkpt>
      <trkpt lat="40.3670180" lon="-3.6544540">
        <ele>611.8</ele>
        <time>2021-05-08T17:47:56Z</time>
      </trkpt>
      <trkpt lat="40.3670070" lon="-3.6543480">
        <ele>612.0</ele>
        <time>2021-05-08T17:47:57Z</time>
      </trkpt>
      <trkpt lat="40.3670050" lon="-3.6542620">
        <ele>612.1</ele>
        <time>2021-05-08T17:47:59Z</time>
      </trkpt>
      <trkpt lat="40.3669990" lon="-3.6541010">
        <ele>612.3</ele>
        <time>2021-05-08T17:48:01Z</time>
      </trkpt>
      <trkpt lat="40.3670020" lon="-3.6540320">
        <ele>612.4</ele>
        <time>2021-05-08T17:48:02Z</time>
      </trkpt>
      <trkpt lat="40.3670090" lon="-3.6539010">
        <ele>612.6</ele>
        <time>2021-05-08T17:48:04Z</time>
      </trkpt>
      <trkpt lat="40.3670100" lon="-3.6538380">
        <ele>612.7</ele>
        <time>2021-05-08T17:48:05Z</time>
      </trkpt>
      <trkpt lat="40.3670120" lon="-3.6537130">
        <ele>612.8</ele>
        <time>2021-05-08T17:48:07Z</time>
      </trkpt>
      <trkpt lat="40.3670220" lon="-3.6535840">
        <ele>613.0</ele>
        <time>2021-05-08T17:48:09Z</time>
      </trkpt>
      <trkpt lat="40.3670260" lon="-3.6535210">
        <ele>613.0</ele>
        <time>2021-05-08T17:48:10Z</time>
      </trkpt>
      <trkpt lat="40.3670380" lon="-3.6533940">
        <ele>613.1</ele>
        <time>2021-05-08T17:48:12Z</time>
      </trkpt>
      <trkpt lat="40.3670450" lon="-3.6532700">
        <ele>613.2</ele>
        <time>2021-05-08T17:48:14Z</time>
      </trkpt>
      <trkpt lat="40.3670480" lon="-3.6531430">
        <ele>613.3</ele>
        <time>2021-05-08T17:48:16Z</time>
      </trkpt>
      <trkpt lat="40.3670520" lon="-3.6530830">
        <ele>613.3</ele>
        <time>2021-05-08T17:48:17Z</time>
      </trkpt>
      <trkpt lat="40.3670620" lon="-3.6529530">
        <ele>613.4</ele>
        <time>2021-05-08T17:48:19Z</time>
      </trkpt>
      <trkpt lat="40.3670660" lon="-3.6528880">
        <ele>613.5</ele>
        <time>2021-05-08T17:48:20Z</time>
      </trkpt>
      <trkpt lat="40.3670740" lon="-3.6527540">
        <ele>613.6</ele>
        <time>2021-05-08T17:48:22Z</time>
      </trkpt>
      <trkpt lat="40.3670810" lon="-3.6526200">
        <ele>613.6</ele>
        <time>2021-05-08T17:48:24Z</time>
      </trkpt>
      <trkpt lat="40.3670830" lon="-3.6525520">
        <ele>613.7</ele>
        <time>2021-05-08T17:48:25Z</time>
      </trkpt>
      <trkpt lat="40.3670890" lon="-3.6524840">
        <ele>613.7</ele>
        <time>2021-05-08T17:48:26Z</time>
      </trkpt>
      <trkpt lat="40.3671020" lon="-3.6523400">
        <ele>613.8</ele>
        <time>2021-05-08T17:48:28Z</time>
      </trkpt>
      <trkpt lat="40.3671240" lon="-3.6521970">
        <ele>613.8</ele>
        <time>2021-05-08T17:48:30Z</time>
      </trkpt>
      <trkpt lat="40.3671390" lon="-3.6520620">
        <ele>613.9</ele>
        <time>2021-05-08T17:48:32Z</time>
      </trkpt>
      <trkpt lat="40.3671560" lon="-3.6519210">
        <ele>613.9</ele>
        <time>2021-05-08T17:48:34Z</time>
      </trkpt>
      <trkpt lat="40.3671660" lon="-3.6518460">
        <ele>613.9</ele>
        <time>2021-05-08T17:48:35Z</time>
      </trkpt>
      <trkpt lat="40.3671810" lon="-3.6517020">
        <ele>613.8</ele>
        <time>2021-05-08T17:48:37Z</time>
      </trkpt>
      <trkpt lat="40.3671880" lon="-3.6516270">
        <ele>613.8</ele>
        <time>2021-05-08T17:48:38Z</time>
      </trkpt>
      <trkpt lat="40.3672080" lon="-3.6514740">
        <ele>613.7</ele>
        <time>2021-05-08T17:48:39Z</time>
      </trkpt>
      <trkpt lat="40.3672210" lon="-3.6513950">
        <ele>613.6</ele>
        <time>2021-05-08T17:48:41Z</time>
      </trkpt>
      <trkpt lat="40.3672340" lon="-3.6513140">
        <ele>613.5</ele>
        <time>2021-05-08T17:48:42Z</time>
      </trkpt>
      <trkpt lat="40.3672680" lon="-3.6511540">
        <ele>613.4</ele>
        <time>2021-05-08T17:48:44Z</time>
      </trkpt>
      <trkpt lat="40.3672860" lon="-3.6510730">
        <ele>613.3</ele>
        <time>2021-05-08T17:48:45Z</time>
      </trkpt>
      <trkpt lat="40.3673020" lon="-3.6509910">
        <ele>613.3</ele>
        <time>2021-05-08T17:48:46Z</time>
      </trkpt>
      <trkpt lat="40.3673480" lon="-3.6508230">
        <ele>613.2</ele>
        <time>2021-05-08T17:48:48Z</time>
      </trkpt>
      <trkpt lat="40.3673730" lon="-3.6507380">
        <ele>613.2</ele>
        <time>2021-05-08T17:48:49Z</time>
      </trkpt>
      <trkpt lat="40.3674300" lon="-3.6505780">
        <ele>613.2</ele>
        <time>2021-05-08T17:48:51Z</time>
      </trkpt>
      <trkpt lat="40.3674890" lon="-3.6504090">
        <ele>613.1</ele>
        <time>2021-05-08T17:48:53Z</time>
      </trkpt>
      <trkpt lat="40.3675410" lon="-3.6502390">
        <ele>613.0</ele>
        <time>2021-05-08T17:48:55Z</time>
      </trkpt>
      <trkpt lat="40.3675700" lon="-3.6501510">
        <ele>613.0</ele>
        <time>2021-05-08T17:48:56Z</time>
      </trkpt>
      <trkpt lat="40.3676010" lon="-3.6500670">
        <ele>613.1</ele>
        <time>2021-05-08T17:48:57Z</time>
      </trkpt>
      <trkpt lat="40.3676630" lon="-3.6499050">
        <ele>613.2</ele>
        <time>2021-05-08T17:48:59Z</time>
      </trkpt>
      <trkpt lat="40.3677250" lon="-3.6497430">
        <ele>613.3</ele>
        <time>2021-05-08T17:49:00Z</time>
      </trkpt>
      <trkpt lat="40.3677600" lon="-3.6496640">
        <ele>613.4</ele>
        <time>2021-05-08T17:49:01Z</time>
      </trkpt>
      <trkpt lat="40.3677990" lon="-3.6495870">
        <ele>613.5</ele>
        <time>2021-05-08T17:49:03Z</time>
      </trkpt>
      <trkpt lat="40.3678800" lon="-3.6494380">
        <ele>613.7</ele>
        <time>2021-05-08T17:49:05Z</time>
      </trkpt>
      <trkpt lat="40.3679250" lon="-3.6493700">
        <ele>613.8</ele>
        <time>2021-05-08T17:49:06Z</time>
      </trkpt>
      <trkpt lat="40.3679650" lon="-3.6493060">
        <ele>613.8</ele>
        <time>2021-05-08T17:49:07Z</time>
      </trkpt>
      <trkpt lat="40.3680840" lon="-3.6491330">
        <ele>613.9</ele>
        <time>2021-05-08T17:49:09Z</time>
      </trkpt>
      <trkpt lat="40.3681630" lon="-3.6490000">
        <ele>614.0</ele>
        <time>2021-05-08T17:49:12Z</time>
      </trkpt>
      <trkpt lat="40.3682000" lon="-3.6489370">
        <ele>614.1</ele>
        <time>2021-05-08T17:49:13Z</time>
      </trkpt>
      <trkpt lat="40.3682340" lon="-3.6488730">
        <ele>614.2</ele>
        <time>2021-05-08T17:49:14Z</time>
      </trkpt>
      <trkpt lat="40.3683030" lon="-3.6487240">
        <ele>614.4</ele>
        <time>2021-05-08T17:49:16Z</time>
      </trkpt>
      <trkpt lat="40.3683800" lon="-3.6485770">
        <ele>614.7</ele>
        <time>2021-05-08T17:49:18Z</time>
      </trkpt>
      <trkpt lat="40.3684200" lon="-3.6485070">
        <ele>614.9</ele>
        <time>2021-05-08T17:49:19Z</time>
      </trkpt>
      <trkpt lat="40.3685010" lon="-3.6483740">
        <ele>615.1</ele>
        <time>2021-05-08T17:49:21Z</time>
      </trkpt>
      <trkpt lat="40.3685430" lon="-3.6483090">
        <ele>615.3</ele>
        <time>2021-05-08T17:49:22Z</time>
      </trkpt>
      <trkpt lat="40.3686250" lon="-3.6481790">
        <ele>615.5</ele>
        <time>2021-05-08T17:49:24Z</time>
      </trkpt>
      <trkpt lat="40.3687080" lon="-3.6480480">
        <ele>615.8</ele>
        <time>2021-05-08T17:49:26Z</time>
      </trkpt>
      <trkpt lat="40.3687490" lon="-3.6479810">
        <ele>615.9</ele>
        <time>2021-05-08T17:49:27Z</time>
      </trkpt>
      <trkpt lat="40.3687890" lon="-3.6479130">
        <ele>616.1</ele>
        <time>2021-05-08T17:49:28Z</time>
      </trkpt>
      <trkpt lat="40.3688280" lon="-3.6478460">
        <ele>616.2</ele>
        <time>2021-05-08T17:49:29Z</time>
      </trkpt>
      <trkpt lat="40.3688670" lon="-3.6477790">
        <ele>616.3</ele>
        <time>2021-05-08T17:49:30Z</time>
      </trkpt>
      <trkpt lat="40.3689460" lon="-3.6476520">
        <ele>616.6</ele>
        <time>2021-05-08T17:49:32Z</time>
      </trkpt>
      <trkpt lat="40.3689830" lon="-3.6475860">
        <ele>616.7</ele>
        <time>2021-05-08T17:49:33Z</time>
      </trkpt>
      <trkpt lat="40.3690570" lon="-3.6474500">
        <ele>616.9</ele>
        <time>2021-05-08T17:49:35Z</time>
      </trkpt>
      <trkpt lat="40.3690930" lon="-3.6473860">
        <ele>617.0</ele>
        <time>2021-05-08T17:49:36Z</time>
      </trkpt>
      <trkpt lat="40.3691650" lon="-3.6472460">
        <ele>617.1</ele>
        <time>2021-05-08T17:49:38Z</time>
      </trkpt>
      <trkpt lat="40.3692350" lon="-3.6470980">
        <ele>617.0</ele>
        <time>2021-05-08T17:49:40Z</time>
      </trkpt>
      <trkpt lat="40.3693020" lon="-3.6469430">
        <ele>616.8</ele>
        <time>2021-05-08T17:49:41Z</time>
      </trkpt>
      <trkpt lat="40.3693360" lon="-3.6468590">
        <ele>616.7</ele>
        <time>2021-05-08T17:49:43Z</time>
      </trkpt>
      <trkpt lat="40.3693690" lon="-3.6467730">
        <ele>616.6</ele>
        <time>2021-05-08T17:49:44Z</time>
      </trkpt>
      <trkpt lat="40.3694020" lon="-3.6466860">
        <ele>616.4</ele>
        <time>2021-05-08T17:49:45Z</time>
      </trkpt>
      <trkpt lat="40.3694330" lon="-3.6465990">
        <ele>616.3</ele>
        <time>2021-05-08T17:49:46Z</time>
      </trkpt>
      <trkpt lat="40.3694610" lon="-3.6465130">
        <ele>616.1</ele>
        <time>2021-05-08T17:49:47Z</time>
      </trkpt>
      <trkpt lat="40.3694920" lon="-3.6464240">
        <ele>616.0</ele>
        <time>2021-05-08T17:49:48Z</time>
      </trkpt>
      <trkpt lat="40.3695520" lon="-3.6462340">
        <ele>615.7</ele>
        <time>2021-05-08T17:49:50Z</time>
      </trkpt>
      <trkpt lat="40.3695770" lon="-3.6461380">
        <ele>615.5</ele>
        <time>2021-05-08T17:49:51Z</time>
      </trkpt>
      <trkpt lat="40.3695890" lon="-3.6459360">
        <ele>615.2</ele>
        <time>2021-05-08T17:49:53Z</time>
      </trkpt>
      <trkpt lat="40.3695670" lon="-3.6458350">
        <ele>615.0</ele>
        <time>2021-05-08T17:49:54Z</time>
      </trkpt>
      <trkpt lat="40.3695050" lon="-3.6456500">
        <ele>614.7</ele>
        <time>2021-05-08T17:49:56Z</time>
      </trkpt>
      <trkpt lat="40.3694870" lon="-3.6454570">
        <ele>614.4</ele>
        <time>2021-05-08T17:49:57Z</time>
      </trkpt>
      <trkpt lat="40.3695080" lon="-3.6453630">
        <ele>614.3</ele>
        <time>2021-05-08T17:49:59Z</time>
      </trkpt>
      <trkpt lat="40.3695990" lon="-3.6452070">
        <ele>614.0</ele>
        <time>2021-05-08T17:50:00Z</time>
      </trkpt>
      <trkpt lat="40.3696650" lon="-3.6451520">
        <ele>614.0</ele>
        <time>2021-05-08T17:50:01Z</time>
      </trkpt>
      <trkpt lat="40.3698060" lon="-3.6450880">
        <ele>614.1</ele>
        <time>2021-05-08T17:50:04Z</time>
      </trkpt>
      <trkpt lat="40.3698720" lon="-3.6450610">
        <ele>614.1</ele>
        <time>2021-05-08T17:50:05Z</time>
      </trkpt>
      <trkpt lat="40.3699790" lon="-3.6449640">
        <ele>614.2</ele>
        <time>2021-05-08T17:50:06Z</time>
      </trkpt>
      <trkpt lat="40.3700150" lon="-3.6448830">
        <ele>614.2</ele>
        <time>2021-05-08T17:50:07Z</time>
      </trkpt>
      <trkpt lat="40.3700480" lon="-3.6447970">
        <ele>614.2</ele>
        <time>2021-05-08T17:50:09Z</time>
      </trkpt>
      <trkpt lat="40.3700820" lon="-3.6447090">
        <ele>614.2</ele>
        <time>2021-05-08T17:50:10Z</time>
      </trkpt>
      <trkpt lat="40.3701140" lon="-3.6446200">
        <ele>614.2</ele>
        <time>2021-05-08T17:50:11Z</time>
      </trkpt>
      <trkpt lat="40.3701630" lon="-3.6444450">
        <ele>614.2</ele>
        <time>2021-05-08T17:50:12Z</time>
      </trkpt>
      <trkpt lat="40.3701870" lon="-3.6443540">
        <ele>614.2</ele>
        <time>2021-05-08T17:50:14Z</time>
      </trkpt>
      <trkpt lat="40.3702140" lon="-3.6442680">
        <ele>614.3</ele>
        <time>2021-05-08T17:50:15Z</time>
      </trkpt>
      <trkpt lat="40.3702780" lon="-3.6441010">
        <ele>614.3</ele>
        <time>2021-05-08T17:50:17Z</time>
      </trkpt>
      <trkpt lat="40.3703460" lon="-3.6439390">
        <ele>614.3</ele>
        <time>2021-05-08T17:50:19Z</time>
      </trkpt>
      <trkpt lat="40.3704190" lon="-3.6437710">
        <ele>614.3</ele>
        <time>2021-05-08T17:50:21Z</time>
      </trkpt>
      <trkpt lat="40.3704960" lon="-3.6435990">
        <ele>614.4</ele>
        <time>2021-05-08T17:50:22Z</time>
      </trkpt>
      <trkpt lat="40.3705340" lon="-3.6435090">
        <ele>614.4</ele>
        <time>2021-05-08T17:50:24Z</time>
      </trkpt>
      <trkpt lat="40.3705710" lon="-3.6434190">
        <ele>614.4</ele>
        <time>2021-05-08T17:50:25Z</time>
      </trkpt>
      <trkpt lat="40.3706050" lon="-3.6433320">
        <ele>614.5</ele>
        <time>2021-05-08T17:50:26Z</time>
      </trkpt>
      <trkpt lat="40.3706730" lon="-3.6431680">
        <ele>614.6</ele>
        <time>2021-05-08T17:50:28Z</time>
      </trkpt>
      <trkpt lat="40.3707470" lon="-3.6430040">
        <ele>614.6</ele>
        <time>2021-05-08T17:50:30Z</time>
      </trkpt>
      <trkpt lat="40.3707820" lon="-3.6429190">
        <ele>614.6</ele>
        <time>2021-05-08T17:50:31Z</time>
      </trkpt>
      <trkpt lat="40.3708540" lon="-3.6427460">
        <ele>614.5</ele>
        <time>2021-05-08T17:50:33Z</time>
      </trkpt>
      <trkpt lat="40.3708940" lon="-3.6426610">
        <ele>614.4</ele>
        <time>2021-05-08T17:50:34Z</time>
      </trkpt>
      <trkpt lat="40.3709330" lon="-3.6425780">
        <ele>614.3</ele>
        <time>2021-05-08T17:50:35Z</time>
      </trkpt>
      <trkpt lat="40.3710050" lon="-3.6424100">
        <ele>614.3</ele>
        <time>2021-05-08T17:50:37Z</time>
      </trkpt>
      <trkpt lat="40.3710780" lon="-3.6422400">
        <ele>614.3</ele>
        <time>2021-05-08T17:50:39Z</time>
      </trkpt>
      <trkpt lat="40.3711510" lon="-3.6420720">
        <ele>614.3</ele>
        <time>2021-05-08T17:50:41Z</time>
      </trkpt>
      <trkpt lat="40.3712200" lon="-3.6419060">
        <ele>614.4</ele>
        <time>2021-05-08T17:50:43Z</time>
      </trkpt>
      <trkpt lat="40.3712560" lon="-3.6418260">
        <ele>614.5</ele>
        <time>2021-05-08T17:50:44Z</time>
      </trkpt>
      <trkpt lat="40.3713230" lon="-3.6416680">
        <ele>614.6</ele>
        <time>2021-05-08T17:50:46Z</time>
      </trkpt>
      <trkpt lat="40.3713870" lon="-3.6415200">
        <ele>614.7</ele>
        <time>2021-05-08T17:50:47Z</time>
      </trkpt>
      <trkpt lat="40.3714490" lon="-3.6413680">
        <ele>614.8</ele>
        <time>2021-05-08T17:50:50Z</time>
      </trkpt>
      <trkpt lat="40.3715080" lon="-3.6412240">
        <ele>614.9</ele>
        <time>2021-05-08T17:50:52Z</time>
      </trkpt>
      <trkpt lat="40.3715430" lon="-3.6411570">
        <ele>614.9</ele>
        <time>2021-05-08T17:50:53Z</time>
      </trkpt>
      <trkpt lat="40.3716070" lon="-3.6410160">
        <ele>615.0</ele>
        <time>2021-05-08T17:50:55Z</time>
      </trkpt>
      <trkpt lat="40.3716620" lon="-3.6408750">
        <ele>615.0</ele>
        <time>2021-05-08T17:50:57Z</time>
      </trkpt>
      <trkpt lat="40.3716970" lon="-3.6407130">
        <ele>615.1</ele>
        <time>2021-05-08T17:50:59Z</time>
      </trkpt>
      <trkpt lat="40.3717060" lon="-3.6405360">
        <ele>615.2</ele>
        <time>2021-05-08T17:51:01Z</time>
      </trkpt>
      <trkpt lat="40.3717310" lon="-3.6404590">
        <ele>615.2</ele>
        <time>2021-05-08T17:51:02Z</time>
      </trkpt>
      <trkpt lat="40.3717690" lon="-3.6403890">
        <ele>615.3</ele>
        <time>2021-05-08T17:51:03Z</time>
      </trkpt>
      <trkpt lat="40.3718690" lon="-3.6402830">
        <ele>615.2</ele>
        <time>2021-05-08T17:51:05Z</time>
      </trkpt>
      <trkpt lat="40.3719670" lon="-3.6401570">
        <ele>615.2</ele>
        <time>2021-05-08T17:51:07Z</time>
      </trkpt>
      <trkpt lat="40.3720280" lon="-3.6400010">
        <ele>615.1</ele>
        <time>2021-05-08T17:51:08Z</time>
      </trkpt>
      <trkpt lat="40.3720960" lon="-3.6398410">
        <ele>615.1</ele>
        <time>2021-05-08T17:51:10Z</time>
      </trkpt>
      <trkpt lat="40.3721310" lon="-3.6397550">
        <ele>615.0</ele>
        <time>2021-05-08T17:51:12Z</time>
      </trkpt>
      <trkpt lat="40.3722000" lon="-3.6395920">
        <ele>615.0</ele>
        <time>2021-05-08T17:51:14Z</time>
      </trkpt>
      <trkpt lat="40.3722370" lon="-3.6395090">
        <ele>615.0</ele>
        <time>2021-05-08T17:51:15Z</time>
      </trkpt>
      <trkpt lat="40.3723120" lon="-3.6393350">
        <ele>614.9</ele>
        <time>2021-05-08T17:51:16Z</time>
      </trkpt>
      <trkpt lat="40.3723500" lon="-3.6392510">
        <ele>614.9</ele>
        <time>2021-05-08T17:51:17Z</time>
      </trkpt>
      <trkpt lat="40.3723870" lon="-3.6391690">
        <ele>614.9</ele>
        <time>2021-05-08T17:51:19Z</time>
      </trkpt>
      <trkpt lat="40.3724210" lon="-3.6390880">
        <ele>614.9</ele>
        <time>2021-05-08T17:51:20Z</time>
      </trkpt>
      <trkpt lat="40.3724840" lon="-3.6389250">
        <ele>614.9</ele>
        <time>2021-05-08T17:51:22Z</time>
      </trkpt>
      <trkpt lat="40.3725470" lon="-3.6387670">
        <ele>615.0</ele>
        <time>2021-05-08T17:51:24Z</time>
      </trkpt>
      <trkpt lat="40.3726090" lon="-3.6386180">
        <ele>615.1</ele>
        <time>2021-05-08T17:51:26Z</time>
      </trkpt>
      <trkpt lat="40.3726700" lon="-3.6384700">
        <ele>615.2</ele>
        <time>2021-05-08T17:51:28Z</time>
      </trkpt>
      <trkpt lat="40.3727270" lon="-3.6383290">
        <ele>615.3</ele>
        <time>2021-05-08T17:51:30Z</time>
      </trkpt>
      <trkpt lat="40.3727840" lon="-3.6381870">
        <ele>615.5</ele>
        <time>2021-05-08T17:51:32Z</time>
      </trkpt>
      <trkpt lat="40.3728410" lon="-3.6380580">
        <ele>615.6</ele>
        <time>2021-05-08T17:51:34Z</time>
      </trkpt>
      <trkpt lat="40.3728700" lon="-3.6379960">
        <ele>615.7</ele>
        <time>2021-05-08T17:51:35Z</time>
      </trkpt>
      <trkpt lat="40.3728980" lon="-3.6379350">
        <ele>615.8</ele>
        <time>2021-05-08T17:51:36Z</time>
      </trkpt>
      <trkpt lat="40.3729550" lon="-3.6378110">
        <ele>616.0</ele>
        <time>2021-05-08T17:51:38Z</time>
      </trkpt>
      <trkpt lat="40.3729820" lon="-3.6377510">
        <ele>616.2</ele>
        <time>2021-05-08T17:51:39Z</time>
      </trkpt>
      <trkpt lat="40.3730230" lon="-3.6376250">
        <ele>616.5</ele>
        <time>2021-05-08T17:51:41Z</time>
      </trkpt>
      <trkpt lat="40.3730430" lon="-3.6374860">
        <ele>616.7</ele>
        <time>2021-05-08T17:51:42Z</time>
      </trkpt>
      <trkpt lat="40.3730550" lon="-3.6374120">
        <ele>616.5</ele>
        <time>2021-05-08T17:51:44Z</time>
      </trkpt>
      <trkpt lat="40.3730780" lon="-3.6373370">
        <ele>616.3</ele>
        <time>2021-05-08T17:51:45Z</time>
      </trkpt>
      <trkpt lat="40.3731630" lon="-3.6372330">
        <ele>616.2</ele>
        <time>2021-05-08T17:51:47Z</time>
      </trkpt>
      <trkpt lat="40.3732730" lon="-3.6371700">
        <ele>616.4</ele>
        <time>2021-05-08T17:51:49Z</time>
      </trkpt>
      <trkpt lat="40.3733220" lon="-3.6371390">
        <ele>616.4</ele>
        <time>2021-05-08T17:51:50Z</time>
      </trkpt>
      <trkpt lat="40.3733650" lon="-3.6370930">
        <ele>616.5</ele>
        <time>2021-05-08T17:51:51Z</time>
      </trkpt>
      <trkpt lat="40.3734270" lon="-3.6369620">
        <ele>616.6</ele>
        <time>2021-05-08T17:51:53Z</time>
      </trkpt>
      <trkpt lat="40.3734530" lon="-3.6368950">
        <ele>616.7</ele>
        <time>2021-05-08T17:51:54Z</time>
      </trkpt>
      <trkpt lat="40.3735060" lon="-3.6367610">
        <ele>616.8</ele>
        <time>2021-05-08T17:51:55Z</time>
      </trkpt>
      <trkpt lat="40.3735300" lon="-3.6366940">
        <ele>616.9</ele>
        <time>2021-05-08T17:51:57Z</time>
      </trkpt>
      <trkpt lat="40.3735850" lon="-3.6365660">
        <ele>617.1</ele>
        <time>2021-05-08T17:51:59Z</time>
      </trkpt>
      <trkpt lat="40.3736330" lon="-3.6364440">
        <ele>617.2</ele>
        <time>2021-05-08T17:52:00Z</time>
      </trkpt>
      <trkpt lat="40.3736590" lon="-3.6363820">
        <ele>617.3</ele>
        <time>2021-05-08T17:52:02Z</time>
      </trkpt>
      <trkpt lat="40.3736860" lon="-3.6363170">
        <ele>617.3</ele>
        <time>2021-05-08T17:52:03Z</time>
      </trkpt>
      <trkpt lat="40.3737430" lon="-3.6361870">
        <ele>617.5</ele>
        <time>2021-05-08T17:52:04Z</time>
      </trkpt>
      <trkpt lat="40.3737950" lon="-3.6360530">
        <ele>617.6</ele>
        <time>2021-05-08T17:52:06Z</time>
      </trkpt>
      <trkpt lat="40.3738210" lon="-3.6359850">
        <ele>617.6</ele>
        <time>2021-05-08T17:52:08Z</time>
      </trkpt>
      <trkpt lat="40.3738780" lon="-3.6358510">
        <ele>617.7</ele>
        <time>2021-05-08T17:52:10Z</time>
      </trkpt>
      <trkpt lat="40.3739090" lon="-3.6357850">
        <ele>617.8</ele>
        <time>2021-05-08T17:52:11Z</time>
      </trkpt>
      <trkpt lat="40.3739650" lon="-3.6356560">
        <ele>617.9</ele>
        <time>2021-05-08T17:52:13Z</time>
      </trkpt>
      <trkpt lat="40.3740240" lon="-3.6355310">
        <ele>618.1</ele>
        <time>2021-05-08T17:52:15Z</time>
      </trkpt>
      <trkpt lat="40.3740820" lon="-3.6353990">
        <ele>618.2</ele>
        <time>2021-05-08T17:52:16Z</time>
      </trkpt>
      <trkpt lat="40.3741060" lon="-3.6353330">
        <ele>618.3</ele>
        <time>2021-05-08T17:52:18Z</time>
      </trkpt>
      <trkpt lat="40.3741510" lon="-3.6352050">
        <ele>618.5</ele>
        <time>2021-05-08T17:52:19Z</time>
      </trkpt>
      <trkpt lat="40.3741800" lon="-3.6351360">
        <ele>618.6</ele>
        <time>2021-05-08T17:52:21Z</time>
      </trkpt>
      <trkpt lat="40.3742450" lon="-3.6350030">
        <ele>618.8</ele>
        <time>2021-05-08T17:52:23Z</time>
      </trkpt>
      <trkpt lat="40.3743010" lon="-3.6348700">
        <ele>619.0</ele>
        <time>2021-05-08T17:52:25Z</time>
      </trkpt>
      <trkpt lat="40.3743570" lon="-3.6347350">
        <ele>619.2</ele>
        <time>2021-05-08T17:52:27Z</time>
      </trkpt>
      <trkpt lat="40.3743870" lon="-3.6346650">
        <ele>619.3</ele>
        <time>2021-05-08T17:52:28Z</time>
      </trkpt>
      <trkpt lat="40.3744180" lon="-3.6345970">
        <ele>619.4</ele>
        <time>2021-05-08T17:52:29Z</time>
      </trkpt>
      <trkpt lat="40.3744810" lon="-3.6344630">
        <ele>619.6</ele>
        <time>2021-05-08T17:52:31Z</time>
      </trkpt>
      <trkpt lat="40.3745110" lon="-3.6343920">
        <ele>619.7</ele>
        <time>2021-05-08T17:52:32Z</time>
      </trkpt>
      <trkpt lat="40.3745700" lon="-3.6342560">
        <ele>619.9</ele>
        <time>2021-05-08T17:52:34Z</time>
      </trkpt>
      <trkpt lat="40.3745980" lon="-3.6341900">
        <ele>620.0</ele>
        <time>2021-05-08T17:52:35Z</time>
      </trkpt>
      <trkpt lat="40.3746610" lon="-3.6340570">
        <ele>620.2</ele>
        <time>2021-05-08T17:52:36Z</time>
      </trkpt>
      <trkpt lat="40.3747180" lon="-3.6339260">
        <ele>620.3</ele>
        <time>2021-05-08T17:52:39Z</time>
      </trkpt>
      <trkpt lat="40.3747630" lon="-3.6337920">
        <ele>620.4</ele>
        <time>2021-05-08T17:52:41Z</time>
      </trkpt>
      <trkpt lat="40.3747870" lon="-3.6337270">
        <ele>620.4</ele>
        <time>2021-05-08T17:52:42Z</time>
      </trkpt>
      <trkpt lat="40.3748510" lon="-3.6335920">
        <ele>620.6</ele>
        <time>2021-05-08T17:52:44Z</time>
      </trkpt>
      <trkpt lat="40.3749090" lon="-3.6334600">
        <ele>620.7</ele>
        <time>2021-05-08T17:52:46Z</time>
      </trkpt>
      <trkpt lat="40.3749600" lon="-3.6333280">
        <ele>620.9</ele>
        <time>2021-05-08T17:52:48Z</time>
      </trkpt>
      <trkpt lat="40.3750130" lon="-3.6331920">
        <ele>621.1</ele>
        <time>2021-05-08T17:52:50Z</time>
      </trkpt>
      <trkpt lat="40.3750390" lon="-3.6331270">
        <ele>621.1</ele>
        <time>2021-05-08T17:52:51Z</time>
      </trkpt>
      <trkpt lat="40.3750680" lon="-3.6330610">
        <ele>621.2</ele>
        <time>2021-05-08T17:52:52Z</time>
      </trkpt>
      <trkpt lat="40.3751000" lon="-3.6329960">
        <ele>621.3</ele>
        <time>2021-05-08T17:52:53Z</time>
      </trkpt>
      <trkpt lat="40.3751640" lon="-3.6328670">
        <ele>621.4</ele>
        <time>2021-05-08T17:52:54Z</time>
      </trkpt>
      <trkpt lat="40.3751950" lon="-3.6328040">
        <ele>621.4</ele>
        <time>2021-05-08T17:52:56Z</time>
      </trkpt>
      <trkpt lat="40.3752550" lon="-3.6326810">
        <ele>621.5</ele>
        <time>2021-05-08T17:52:58Z</time>
      </trkpt>
      <trkpt lat="40.3752840" lon="-3.6326200">
        <ele>621.6</ele>
        <time>2021-05-08T17:52:59Z</time>
      </trkpt>
      <trkpt lat="40.3753400" lon="-3.6325030">
        <ele>621.7</ele>
        <time>2021-05-08T17:53:01Z</time>
      </trkpt>
      <trkpt lat="40.3753700" lon="-3.6324440">
        <ele>621.8</ele>
        <time>2021-05-08T17:53:02Z</time>
      </trkpt>
      <trkpt lat="40.3754660" lon="-3.6322710">
        <ele>622.2</ele>
        <time>2021-05-08T17:53:04Z</time>
      </trkpt>
      <trkpt lat="40.3754990" lon="-3.6322150">
        <ele>622.3</ele>
        <time>2021-05-08T17:53:06Z</time>
      </trkpt>
      <trkpt lat="40.3755320" lon="-3.6321560">
        <ele>622.4</ele>
        <time>2021-05-08T17:53:07Z</time>
      </trkpt>
      <trkpt lat="40.3755990" lon="-3.6320460">
        <ele>622.6</ele>
        <time>2021-05-08T17:53:09Z</time>
      </trkpt>
      <trkpt lat="40.3756320" lon="-3.6319910">
        <ele>622.7</ele>
        <time>2021-05-08T17:53:10Z</time>
      </trkpt>
      <trkpt lat="40.3757040" lon="-3.6318820">
        <ele>623.0</ele>
        <time>2021-05-08T17:53:12Z</time>
      </trkpt>
      <trkpt lat="40.3757420" lon="-3.6318260">
        <ele>623.1</ele>
        <time>2021-05-08T17:53:13Z</time>
      </trkpt>
      <trkpt lat="40.3758150" lon="-3.6317180">
        <ele>623.3</ele>
        <time>2021-05-08T17:53:15Z</time>
      </trkpt>
      <trkpt lat="40.3758880" lon="-3.6316070">
        <ele>623.5</ele>
        <time>2021-05-08T17:53:17Z</time>
      </trkpt>
      <trkpt lat="40.3759620" lon="-3.6314990">
        <ele>623.8</ele>
        <time>2021-05-08T17:53:18Z</time>
      </trkpt>
      <trkpt lat="40.3759990" lon="-3.6314460">
        <ele>623.9</ele>
        <time>2021-05-08T17:53:20Z</time>
      </trkpt>
      <trkpt lat="40.3760360" lon="-3.6313910">
        <ele>624.0</ele>
        <time>2021-05-08T17:53:21Z</time>
      </trkpt>
      <trkpt lat="40.3761140" lon="-3.6312860">
        <ele>624.3</ele>
        <time>2021-05-08T17:53:22Z</time>
      </trkpt>
      <trkpt lat="40.3761530" lon="-3.6312320">
        <ele>624.4</ele>
        <time>2021-05-08T17:53:24Z</time>
      </trkpt>
      <trkpt lat="40.3762270" lon="-3.6311280">
        <ele>624.7</ele>
        <time>2021-05-08T17:53:26Z</time>
      </trkpt>
      <trkpt lat="40.3763000" lon="-3.6310230">
        <ele>624.9</ele>
        <time>2021-05-08T17:53:28Z</time>
      </trkpt>
      <trkpt lat="40.3763350" lon="-3.6309700">
        <ele>625.0</ele>
        <time>2021-05-08T17:53:29Z</time>
      </trkpt>
      <trkpt lat="40.3763700" lon="-3.6309180">
        <ele>625.2</ele>
        <time>2021-05-08T17:53:30Z</time>
      </trkpt>
      <trkpt lat="40.3764040" lon="-3.6308670">
        <ele>625.3</ele>
        <time>2021-05-08T17:53:31Z</time>
      </trkpt>
      <trkpt lat="40.3764720" lon="-3.6307610">
        <ele>625.5</ele>
        <time>2021-05-08T17:53:33Z</time>
      </trkpt>
      <trkpt lat="40.3765080" lon="-3.6307090">
        <ele>625.7</ele>
        <time>2021-05-08T17:53:34Z</time>
      </trkpt>
      <trkpt lat="40.3765480" lon="-3.6306600">
        <ele>625.8</ele>
        <time>2021-05-08T17:53:35Z</time>
      </trkpt>
      <trkpt lat="40.3765840" lon="-3.6306110">
        <ele>625.9</ele>
        <time>2021-05-08T17:53:36Z</time>
      </trkpt>
      <trkpt lat="40.3766370" lon="-3.6305010">
        <ele>626.1</ele>
        <time>2021-05-08T17:53:38Z</time>
      </trkpt>
      <trkpt lat="40.3766510" lon="-3.6303540">
        <ele>626.2</ele>
        <time>2021-05-08T17:53:40Z</time>
      </trkpt>
      <trkpt lat="40.3766530" lon="-3.6302830">
        <ele>626.2</ele>
        <time>2021-05-08T17:53:41Z</time>
      </trkpt>
      <trkpt lat="40.3766590" lon="-3.6302070">
        <ele>626.2</ele>
        <time>2021-05-08T17:53:42Z</time>
      </trkpt>
      <trkpt lat="40.3767100" lon="-3.6300570">
        <ele>626.2</ele>
        <time>2021-05-08T17:53:44Z</time>
      </trkpt>
      <trkpt lat="40.3768320" lon="-3.6299690">
        <ele>626.4</ele>
        <time>2021-05-08T17:53:46Z</time>
      </trkpt>
      <trkpt lat="40.3769620" lon="-3.6299620">
        <ele>626.6</ele>
        <time>2021-05-08T17:53:48Z</time>
      </trkpt>
      <trkpt lat="40.3770170" lon="-3.6299750">
        <ele>626.7</ele>
        <time>2021-05-08T17:53:49Z</time>
      </trkpt>
      <trkpt lat="40.3770670" lon="-3.6299930">
        <ele>626.8</ele>
        <time>2021-05-08T17:53:50Z</time>
      </trkpt>
      <trkpt lat="40.3771710" lon="-3.6300380">
        <ele>627.3</ele>
        <time>2021-05-08T17:53:52Z</time>
      </trkpt>
      <trkpt lat="40.3772240" lon="-3.6300490">
        <ele>627.7</ele>
        <time>2021-05-08T17:53:53Z</time>
      </trkpt>
      <trkpt lat="40.3773050" lon="-3.6300220">
        <ele>628.3</ele>
        <time>2021-05-08T17:53:55Z</time>
      </trkpt>
      <trkpt lat="40.3773760" lon="-3.6299470">
        <ele>628.4</ele>
        <time>2021-05-08T17:53:56Z</time>
      </trkpt>
      <trkpt lat="40.3774130" lon="-3.6299060">
        <ele>628.4</ele>
        <time>2021-05-08T17:53:58Z</time>
      </trkpt>
      <trkpt lat="40.3774850" lon="-3.6298250">
        <ele>628.6</ele>
        <time>2021-05-08T17:54:00Z</time>
      </trkpt>
      <trkpt lat="40.3775190" lon="-3.6297790">
        <ele>628.6</ele>
        <time>2021-05-08T17:54:01Z</time>
      </trkpt>
      <trkpt lat="40.3775550" lon="-3.6297310">
        <ele>628.7</ele>
        <time>2021-05-08T17:54:02Z</time>
      </trkpt>
      <trkpt lat="40.3776290" lon="-3.6296390">
        <ele>628.8</ele>
        <time>2021-05-08T17:54:04Z</time>
      </trkpt>
      <trkpt lat="40.3776680" lon="-3.6295930">
        <ele>628.9</ele>
        <time>2021-05-08T17:54:05Z</time>
      </trkpt>
      <trkpt lat="40.3777050" lon="-3.6295460">
        <ele>629.0</ele>
        <time>2021-05-08T17:54:06Z</time>
      </trkpt>
      <trkpt lat="40.3777730" lon="-3.6294490">
        <ele>629.1</ele>
        <time>2021-05-08T17:54:08Z</time>
      </trkpt>
      <trkpt lat="40.3778510" lon="-3.6293530">
        <ele>629.2</ele>
        <time>2021-05-08T17:54:10Z</time>
      </trkpt>
      <trkpt lat="40.3779260" lon="-3.6292520">
        <ele>629.4</ele>
        <time>2021-05-08T17:54:12Z</time>
      </trkpt>
      <trkpt lat="40.3779610" lon="-3.6291970">
        <ele>629.5</ele>
        <time>2021-05-08T17:54:13Z</time>
      </trkpt>
      <trkpt lat="40.3780020" lon="-3.6291480">
        <ele>629.6</ele>
        <time>2021-05-08T17:54:14Z</time>
      </trkpt>
      <trkpt lat="40.3780970" lon="-3.6290590">
        <ele>629.8</ele>
        <time>2021-05-08T17:54:16Z</time>
      </trkpt>
      <trkpt lat="40.3781850" lon="-3.6289680">
        <ele>630.1</ele>
        <time>2021-05-08T17:54:18Z</time>
      </trkpt>
      <trkpt lat="40.3782260" lon="-3.6289170">
        <ele>630.2</ele>
        <time>2021-05-08T17:54:19Z</time>
      </trkpt>
      <trkpt lat="40.3782680" lon="-3.6288700">
        <ele>630.3</ele>
        <time>2021-05-08T17:54:20Z</time>
      </trkpt>
      <trkpt lat="40.3783530" lon="-3.6287760">
        <ele>630.6</ele>
        <time>2021-05-08T17:54:21Z</time>
      </trkpt>
      <trkpt lat="40.3783940" lon="-3.6287260">
        <ele>630.8</ele>
        <time>2021-05-08T17:54:23Z</time>
      </trkpt>
      <trkpt lat="40.3784320" lon="-3.6286790">
        <ele>630.9</ele>
        <time>2021-05-08T17:54:24Z</time>
      </trkpt>
      <trkpt lat="40.3785060" lon="-3.6285830">
        <ele>631.2</ele>
        <time>2021-05-08T17:54:25Z</time>
      </trkpt>
      <trkpt lat="40.3785410" lon="-3.6285330">
        <ele>631.3</ele>
        <time>2021-05-08T17:54:26Z</time>
      </trkpt>
      <trkpt lat="40.3785730" lon="-3.6284860">
        <ele>631.5</ele>
        <time>2021-05-08T17:54:27Z</time>
      </trkpt>
      <trkpt lat="40.3786060" lon="-3.6284400">
        <ele>631.6</ele>
        <time>2021-05-08T17:54:29Z</time>
      </trkpt>
      <trkpt lat="40.3786670" lon="-3.6283480">
        <ele>631.8</ele>
        <time>2021-05-08T17:54:31Z</time>
      </trkpt>
      <trkpt lat="40.3787250" lon="-3.6282650">
        <ele>632.0</ele>
        <time>2021-05-08T17:54:33Z</time>
      </trkpt>
      <trkpt lat="40.3787420" lon="-3.6282410">
        <ele>632.0</ele>
        <time>2021-05-08T17:54:34Z</time>
      </trkpt>
      <trkpt lat="40.3788020" lon="-3.6281660">
        <ele>632.3</ele>
        <time>2021-05-08T17:54:36Z</time>
      </trkpt>
      <trkpt lat="40.3788510" lon="-3.6281160">
        <ele>632.5</ele>
        <time>2021-05-08T17:54:38Z</time>
      </trkpt>
      <trkpt lat="40.3788810" lon="-3.6280670">
        <ele>632.7</ele>
        <time>2021-05-08T17:54:39Z</time>
      </trkpt>
      <trkpt lat="40.3789000" lon="-3.6280180">
        <ele>632.8</ele>
        <time>2021-05-08T17:54:40Z</time>
      </trkpt>
      <trkpt lat="40.3789600" lon="-3.6279940">
        <ele>633.0</ele>
        <time>2021-05-08T17:54:41Z</time>
      </trkpt>
      <trkpt lat="40.3790280" lon="-3.6279240">
        <ele>633.3</ele>
        <time>2021-05-08T17:54:43Z</time>
      </trkpt>
      <trkpt lat="40.3790700" lon="-3.6278760">
        <ele>633.5</ele>
        <time>2021-05-08T17:54:44Z</time>
      </trkpt>
      <trkpt lat="40.3791490" lon="-3.6277810">
        <ele>633.8</ele>
        <time>2021-05-08T17:54:46Z</time>
      </trkpt>
      <trkpt lat="40.3791850" lon="-3.6277320">
        <ele>633.9</ele>
        <time>2021-05-08T17:54:47Z</time>
      </trkpt>
      <trkpt lat="40.3792620" lon="-3.6276310">
        <ele>634.2</ele>
        <time>2021-05-08T17:54:49Z</time>
      </trkpt>
      <trkpt lat="40.3793350" lon="-3.6275350">
        <ele>634.4</ele>
        <time>2021-05-08T17:54:51Z</time>
      </trkpt>
      <trkpt lat="40.3794210" lon="-3.6274450">
        <ele>634.7</ele>
        <time>2021-05-08T17:54:53Z</time>
      </trkpt>
      <trkpt lat="40.3795030" lon="-3.6273480">
        <ele>635.0</ele>
        <time>2021-05-08T17:54:54Z</time>
      </trkpt>
      <trkpt lat="40.3795430" lon="-3.6273020">
        <ele>635.1</ele>
        <time>2021-05-08T17:54:56Z</time>
      </trkpt>
      <trkpt lat="40.3796210" lon="-3.6272080">
        <ele>635.4</ele>
        <time>2021-05-08T17:54:58Z</time>
      </trkpt>
      <trkpt lat="40.3796880" lon="-3.6271130">
        <ele>635.6</ele>
        <time>2021-05-08T17:55:00Z</time>
      </trkpt>
      <trkpt lat="40.3797560" lon="-3.6270130">
        <ele>635.8</ele>
        <time>2021-05-08T17:55:02Z</time>
      </trkpt>
      <trkpt lat="40.3798350" lon="-3.6269180">
        <ele>636.0</ele>
        <time>2021-05-08T17:55:04Z</time>
      </trkpt>
      <trkpt lat="40.3799040" lon="-3.6268230">
        <ele>636.3</ele>
        <time>2021-05-08T17:55:06Z</time>
      </trkpt>
      <trkpt lat="40.3799730" lon="-3.6267310">
        <ele>636.4</ele>
        <time>2021-05-08T17:55:08Z</time>
      </trkpt>
      <trkpt lat="40.3800470" lon="-3.6266430">
        <ele>636.6</ele>
        <time>2021-05-08T17:55:10Z</time>
      </trkpt>
      <trkpt lat="40.3800850" lon="-3.6265990">
        <ele>636.6</ele>
        <time>2021-05-08T17:55:11Z</time>
      </trkpt>
      <trkpt lat="40.3801590" lon="-3.6265020">
        <ele>636.6</ele>
        <time>2021-05-08T17:55:13Z</time>
      </trkpt>
      <trkpt lat="40.3802230" lon="-3.6263990">
        <ele>636.6</ele>
        <time>2021-05-08T17:55:14Z</time>
      </trkpt>
      <trkpt lat="40.3802520" lon="-3.6263500">
        <ele>636.6</ele>
        <time>2021-05-08T17:55:16Z</time>
      </trkpt>
      <trkpt lat="40.3803130" lon="-3.6262530">
        <ele>636.5</ele>
        <time>2021-05-08T17:55:18Z</time>
      </trkpt>
      <trkpt lat="40.3803910" lon="-3.6261660">
        <ele>636.4</ele>
        <time>2021-05-08T17:55:20Z</time>
      </trkpt>
      <trkpt lat="40.3804270" lon="-3.6261190">
        <ele>636.5</ele>
        <time>2021-05-08T17:55:21Z</time>
      </trkpt>
      <trkpt lat="40.3805000" lon="-3.6260140">
        <ele>636.5</ele>
        <time>2021-05-08T17:55:23Z</time>
      </trkpt>
      <trkpt lat="40.3805640" lon="-3.6259060">
        <ele>636.4</ele>
        <time>2021-05-08T17:55:25Z</time>
      </trkpt>
      <trkpt lat="40.3806000" lon="-3.6258550">
        <ele>636.4</ele>
        <time>2021-05-08T17:55:26Z</time>
      </trkpt>
      <trkpt lat="40.3806650" lon="-3.6257530">
        <ele>636.3</ele>
        <time>2021-05-08T17:55:28Z</time>
      </trkpt>
      <trkpt lat="40.3807250" lon="-3.6256440">
        <ele>636.2</ele>
        <time>2021-05-08T17:55:30Z</time>
      </trkpt>
      <trkpt lat="40.3807320" lon="-3.6255700">
        <ele>636.1</ele>
        <time>2021-05-08T17:55:31Z</time>
      </trkpt>
      <trkpt lat="40.3807370" lon="-3.6254120">
        <ele>635.9</ele>
        <time>2021-05-08T17:55:33Z</time>
      </trkpt>
      <trkpt lat="40.3807430" lon="-3.6253320">
        <ele>635.8</ele>
        <time>2021-05-08T17:55:34Z</time>
      </trkpt>
      <trkpt lat="40.3807650" lon="-3.6252590">
        <ele>635.6</ele>
        <time>2021-05-08T17:55:35Z</time>
      </trkpt>
      <trkpt lat="40.3808710" lon="-3.6251320">
        <ele>635.2</ele>
        <time>2021-05-08T17:55:37Z</time>
      </trkpt>
      <trkpt lat="40.3809960" lon="-3.6250290">
        <ele>634.7</ele>
        <time>2021-05-08T17:55:39Z</time>
      </trkpt>
      <trkpt lat="40.3810890" lon="-3.6249020">
        <ele>634.4</ele>
        <time>2021-05-08T17:55:41Z</time>
      </trkpt>
      <trkpt lat="40.3811300" lon="-3.6248350">
        <ele>634.2</ele>
        <time>2021-05-08T17:55:42Z</time>
      </trkpt>
      <trkpt lat="40.3812010" lon="-3.6246900">
        <ele>633.9</ele>
        <time>2021-05-08T17:55:44Z</time>
      </trkpt>
      <trkpt lat="40.3812420" lon="-3.6246060">
        <ele>633.7</ele>
        <time>2021-05-08T17:55:46Z</time>
      </trkpt>
      <trkpt lat="40.3812660" lon="-3.6245680">
        <ele>633.6</ele>
        <time>2021-05-08T17:55:47Z</time>
      </trkpt>
      <trkpt lat="40.3812960" lon="-3.6245190">
        <ele>633.5</ele>
        <time>2021-05-08T17:55:49Z</time>
      </trkpt>
      <trkpt lat="40.3813190" lon="-3.6244580">
        <ele>633.4</ele>
        <time>2021-05-08T17:55:51Z</time>
      </trkpt>
      <trkpt lat="40.3812890" lon="-3.6244910">
        <ele>633.3</ele>
        <time>2021-05-08T17:55:52Z</time>
      </trkpt>
      <trkpt lat="40.3813230" lon="-3.6244200">
        <ele>633.2</ele>
        <time>2021-05-08T17:55:53Z</time>
      </trkpt>
      <trkpt lat="40.3814140" lon="-3.6242740">
        <ele>632.9</ele>
        <time>2021-05-08T17:55:55Z</time>
      </trkpt>
      <trkpt lat="40.3814460" lon="-3.6242000">
        <ele>632.8</ele>
        <time>2021-05-08T17:55:56Z</time>
      </trkpt>
      <trkpt lat="40.3815090" lon="-3.6240760">
        <ele>632.3</ele>
        <time>2021-05-08T17:55:58Z</time>
      </trkpt>
      <trkpt lat="40.3815510" lon="-3.6240360">
        <ele>632.1</ele>
        <time>2021-05-08T17:55:59Z</time>
      </trkpt>
      <trkpt lat="40.3816000" lon="-3.6240180">
        <ele>632.0</ele>
        <time>2021-05-08T17:56:00Z</time>
      </trkpt>
      <trkpt lat="40.3817090" lon="-3.6239840">
        <ele>632.0</ele>
        <time>2021-05-08T17:56:02Z</time>
      </trkpt>
      <trkpt lat="40.3817920" lon="-3.6238790">
        <ele>632.0</ele>
        <time>2021-05-08T17:56:04Z</time>
      </trkpt>
      <trkpt lat="40.3818700" lon="-3.6237600">
        <ele>632.0</ele>
        <time>2021-05-08T17:56:06Z</time>
      </trkpt>
      <trkpt lat="40.3819460" lon="-3.6236280">
        <ele>632.1</ele>
        <time>2021-05-08T17:56:08Z</time>
      </trkpt>
      <trkpt lat="40.3819890" lon="-3.6235640">
        <ele>632.2</ele>
        <time>2021-05-08T17:56:09Z</time>
      </trkpt>
      <trkpt lat="40.3820300" lon="-3.6235010">
        <ele>632.3</ele>
        <time>2021-05-08T17:56:10Z</time>
      </trkpt>
      <trkpt lat="40.3821030" lon="-3.6233690">
        <ele>632.4</ele>
        <time>2021-05-08T17:56:12Z</time>
      </trkpt>
      <trkpt lat="40.3821370" lon="-3.6233040">
        <ele>632.5</ele>
        <time>2021-05-08T17:56:13Z</time>
      </trkpt>
      <trkpt lat="40.3821990" lon="-3.6231690">
        <ele>632.7</ele>
        <time>2021-05-08T17:56:15Z</time>
      </trkpt>
      <trkpt lat="40.3822170" lon="-3.6230960">
        <ele>632.8</ele>
        <time>2021-05-08T17:56:16Z</time>
      </trkpt>
      <trkpt lat="40.3822360" lon="-3.6229410">
        <ele>633.1</ele>
        <time>2021-05-08T17:56:18Z</time>
      </trkpt>
      <trkpt lat="40.3822630" lon="-3.6228030">
        <ele>633.6</ele>
        <time>2021-05-08T17:56:20Z</time>
      </trkpt>
      <trkpt lat="40.3822800" lon="-3.6227400">
        <ele>633.9</ele>
        <time>2021-05-08T17:56:21Z</time>
      </trkpt>
      <trkpt lat="40.3822960" lon="-3.6226810">
        <ele>634.2</ele>
        <time>2021-05-08T17:56:22Z</time>
      </trkpt>
      <trkpt lat="40.3823240" lon="-3.6225740">
        <ele>634.8</ele>
        <time>2021-05-08T17:56:24Z</time>
      </trkpt>
      <trkpt lat="40.3823440" lon="-3.6224810">
        <ele>635.3</ele>
        <time>2021-05-08T17:56:26Z</time>
      </trkpt>
      <trkpt lat="40.3823600" lon="-3.6223740">
        <ele>635.8</ele>
        <time>2021-05-08T17:56:27Z</time>
      </trkpt>
      <trkpt lat="40.3823670" lon="-3.6223180">
        <ele>636.0</ele>
        <time>2021-05-08T17:56:29Z</time>
      </trkpt>
      <trkpt lat="40.3823710" lon="-3.6222670">
        <ele>636.2</ele>
        <time>2021-05-08T17:56:30Z</time>
      </trkpt>
      <trkpt lat="40.3823660" lon="-3.6222210">
        <ele>636.3</ele>
        <time>2021-05-08T17:56:31Z</time>
      </trkpt>
      <trkpt lat="40.3823620" lon="-3.6221980">
        <ele>636.4</ele>
        <time>2021-05-08T17:56:32Z</time>
      </trkpt>
      <trkpt lat="40.3823710" lon="-3.6221170">
        <ele>636.5</ele>
        <time>2021-05-08T17:56:34Z</time>
      </trkpt>
      <trkpt lat="40.3823920" lon="-3.6220320">
        <ele>636.6</ele>
        <time>2021-05-08T17:56:35Z</time>
      </trkpt>
      <trkpt lat="40.3824070" lon="-3.6219710">
        <ele>636.6</ele>
        <time>2021-05-08T17:56:37Z</time>
      </trkpt>
      <trkpt lat="40.3824180" lon="-3.6219240">
        <ele>636.6</ele>
        <time>2021-05-08T17:56:38Z</time>
      </trkpt>
      <trkpt lat="40.3824390" lon="-3.6218410">
        <ele>636.6</ele>
        <time>2021-05-08T17:56:39Z</time>
      </trkpt>
      <trkpt lat="40.3824640" lon="-3.6217490">
        <ele>636.6</ele>
        <time>2021-05-08T17:56:40Z</time>
      </trkpt>
      <trkpt lat="40.3824830" lon="-3.6216810">
        <ele>636.7</ele>
        <time>2021-05-08T17:56:42Z</time>
      </trkpt>
      <trkpt lat="40.3825210" lon="-3.6215480">
        <ele>636.7</ele>
        <time>2021-05-08T17:56:44Z</time>
      </trkpt>
      <trkpt lat="40.3825350" lon="-3.6214800">
        <ele>636.7</ele>
        <time>2021-05-08T17:56:45Z</time>
      </trkpt>
      <trkpt lat="40.3825600" lon="-3.6213400">
        <ele>636.7</ele>
        <time>2021-05-08T17:56:47Z</time>
      </trkpt>
      <trkpt lat="40.3825770" lon="-3.6212740">
        <ele>636.7</ele>
        <time>2021-05-08T17:56:48Z</time>
      </trkpt>
      <trkpt lat="40.3826060" lon="-3.6211530">
        <ele>636.8</ele>
        <time>2021-05-08T17:56:50Z</time>
      </trkpt>
      <trkpt lat="40.3826340" lon="-3.6210320">
        <ele>636.8</ele>
        <time>2021-05-08T17:56:52Z</time>
      </trkpt>
      <trkpt lat="40.3826620" lon="-3.6208920">
        <ele>636.7</ele>
        <time>2021-05-08T17:56:54Z</time>
      </trkpt>
      <trkpt lat="40.3826930" lon="-3.6207490">
        <ele>636.6</ele>
        <time>2021-05-08T17:56:55Z</time>
      </trkpt>
      <trkpt lat="40.3826840" lon="-3.6206000">
        <ele>636.6</ele>
        <time>2021-05-08T17:56:58Z</time>
      </trkpt>
      <trkpt lat="40.3826700" lon="-3.6205210">
        <ele>636.6</ele>
        <time>2021-05-08T17:56:59Z</time>
      </trkpt>
      <trkpt lat="40.3826810" lon="-3.6204500">
        <ele>636.6</ele>
        <time>2021-05-08T17:57:00Z</time>
      </trkpt>
      <trkpt lat="40.3827550" lon="-3.6203230">
        <ele>636.6</ele>
        <time>2021-05-08T17:57:02Z</time>
      </trkpt>
      <trkpt lat="40.3827990" lon="-3.6202690">
        <ele>636.7</ele>
        <time>2021-05-08T17:57:03Z</time>
      </trkpt>
      <trkpt lat="40.3828620" lon="-3.6201340">
        <ele>636.7</ele>
        <time>2021-05-08T17:57:05Z</time>
      </trkpt>
      <trkpt lat="40.3829060" lon="-3.6199850">
        <ele>636.7</ele>
        <time>2021-05-08T17:57:06Z</time>
      </trkpt>
      <trkpt lat="40.3829370" lon="-3.6198380">
        <ele>636.7</ele>
        <time>2021-05-08T17:57:08Z</time>
      </trkpt>
      <trkpt lat="40.3829520" lon="-3.6197650">
        <ele>636.7</ele>
        <time>2021-05-08T17:57:10Z</time>
      </trkpt>
      <trkpt lat="40.3829690" lon="-3.6196870">
        <ele>636.7</ele>
        <time>2021-05-08T17:57:11Z</time>
      </trkpt>
      <trkpt lat="40.3830010" lon="-3.6195360">
        <ele>636.7</ele>
        <time>2021-05-08T17:57:13Z</time>
      </trkpt>
      <trkpt lat="40.3830170" lon="-3.6194590">
        <ele>636.6</ele>
        <time>2021-05-08T17:57:14Z</time>
      </trkpt>
      <trkpt lat="40.3830320" lon="-3.6193800">
        <ele>636.6</ele>
        <time>2021-05-08T17:57:15Z</time>
      </trkpt>
      <trkpt lat="40.3830650" lon="-3.6192170">
        <ele>636.6</ele>
        <time>2021-05-08T17:57:17Z</time>
      </trkpt>
      <trkpt lat="40.3831010" lon="-3.6190520">
        <ele>636.6</ele>
        <time>2021-05-08T17:57:19Z</time>
      </trkpt>
      <trkpt lat="40.3831380" lon="-3.6188880">
        <ele>636.7</ele>
        <time>2021-05-08T17:57:21Z</time>
      </trkpt>
      <trkpt lat="40.3831770" lon="-3.6187300">
        <ele>636.9</ele>
        <time>2021-05-08T17:57:23Z</time>
      </trkpt>
      <trkpt lat="40.3831960" lon="-3.6186500">
        <ele>637.0</ele>
        <time>2021-05-08T17:57:24Z</time>
      </trkpt>
      <trkpt lat="40.3832330" lon="-3.6184920">
        <ele>637.2</ele>
        <time>2021-05-08T17:57:26Z</time>
      </trkpt>
      <trkpt lat="40.3832500" lon="-3.6184110">
        <ele>637.3</ele>
        <time>2021-05-08T17:57:27Z</time>
      </trkpt>
      <trkpt lat="40.3832840" lon="-3.6182580">
        <ele>637.6</ele>
        <time>2021-05-08T17:57:29Z</time>
      </trkpt>
      <trkpt lat="40.3833020" lon="-3.6181790">
        <ele>637.7</ele>
        <time>2021-05-08T17:57:30Z</time>
      </trkpt>
      <trkpt lat="40.3833340" lon="-3.6180280">
        <ele>637.9</ele>
        <time>2021-05-08T17:57:32Z</time>
      </trkpt>
      <trkpt lat="40.3833630" lon="-3.6178860">
        <ele>638.2</ele>
        <time>2021-05-08T17:57:33Z</time>
      </trkpt>
      <trkpt lat="40.3833790" lon="-3.6178120">
        <ele>638.3</ele>
        <time>2021-05-08T17:57:35Z</time>
      </trkpt>
      <trkpt lat="40.3833970" lon="-3.6177400">
        <ele>638.4</ele>
        <time>2021-05-08T17:57:36Z</time>
      </trkpt>
      <trkpt lat="40.3834130" lon="-3.6176660">
        <ele>638.5</ele>
        <time>2021-05-08T17:57:37Z</time>
      </trkpt>
      <trkpt lat="40.3834430" lon="-3.6175230">
        <ele>638.8</ele>
        <time>2021-05-08T17:57:39Z</time>
      </trkpt>
      <trkpt lat="40.3834720" lon="-3.6173780">
        <ele>639.0</ele>
        <time>2021-05-08T17:57:41Z</time>
      </trkpt>
      <trkpt lat="40.3835050" lon="-3.6172300">
        <ele>639.2</ele>
        <time>2021-05-08T17:57:43Z</time>
      </trkpt>
      <trkpt lat="40.3835280" lon="-3.6171540">
        <ele>639.3</ele>
        <time>2021-05-08T17:57:44Z</time>
      </trkpt>
      <trkpt lat="40.3835530" lon="-3.6170810">
        <ele>639.4</ele>
        <time>2021-05-08T17:57:45Z</time>
      </trkpt>
      <trkpt lat="40.3835920" lon="-3.6169430">
        <ele>639.6</ele>
        <time>2021-05-08T17:57:47Z</time>
      </trkpt>
      <trkpt lat="40.3836070" lon="-3.6168720">
        <ele>639.6</ele>
        <time>2021-05-08T17:57:48Z</time>
      </trkpt>
      <trkpt lat="40.3836320" lon="-3.6167250">
        <ele>639.8</ele>
        <time>2021-05-08T17:57:49Z</time>
      </trkpt>
      <trkpt lat="40.3836450" lon="-3.6166550">
        <ele>639.8</ele>
        <time>2021-05-08T17:57:51Z</time>
      </trkpt>
      <trkpt lat="40.3836680" lon="-3.6165160">
        <ele>639.9</ele>
        <time>2021-05-08T17:57:53Z</time>
      </trkpt>
      <trkpt lat="40.3836770" lon="-3.6164470">
        <ele>640.0</ele>
        <time>2021-05-08T17:57:54Z</time>
      </trkpt>
      <trkpt lat="40.3836870" lon="-3.6163780">
        <ele>640.0</ele>
        <time>2021-05-08T17:57:55Z</time>
      </trkpt>
      <trkpt lat="40.3837130" lon="-3.6162370">
        <ele>640.1</ele>
        <time>2021-05-08T17:57:56Z</time>
      </trkpt>
      <trkpt lat="40.3837420" lon="-3.6160950">
        <ele>640.2</ele>
        <time>2021-05-08T17:57:58Z</time>
      </trkpt>
      <trkpt lat="40.3837590" lon="-3.6160270">
        <ele>640.3</ele>
        <time>2021-05-08T17:58:00Z</time>
      </trkpt>
      <trkpt lat="40.3837890" lon="-3.6159000">
        <ele>640.4</ele>
        <time>2021-05-08T17:58:01Z</time>
      </trkpt>
      <trkpt lat="40.3838000" lon="-3.6158380">
        <ele>640.5</ele>
        <time>2021-05-08T17:58:03Z</time>
      </trkpt>
      <trkpt lat="40.3838060" lon="-3.6157750">
        <ele>640.5</ele>
        <time>2021-05-08T17:58:04Z</time>
      </trkpt>
      <trkpt lat="40.3838160" lon="-3.6157180">
        <ele>640.6</ele>
        <time>2021-05-08T17:58:05Z</time>
      </trkpt>
      <trkpt lat="40.3838330" lon="-3.6156340">
        <ele>640.7</ele>
        <time>2021-05-08T17:58:06Z</time>
      </trkpt>
      <trkpt lat="40.3838370" lon="-3.6155950">
        <ele>640.7</ele>
        <time>2021-05-08T17:58:08Z</time>
      </trkpt>
      <trkpt lat="40.3838380" lon="-3.6155670">
        <ele>640.7</ele>
        <time>2021-05-08T17:58:10Z</time>
      </trkpt>
      <trkpt lat="40.3838390" lon="-3.6155700">
        <ele>640.7</ele>
        <time>2021-05-08T17:58:11Z</time>
      </trkpt>
      <trkpt lat="40.3838330" lon="-3.6155710">
        <ele>640.7</ele>
        <time>2021-05-08T17:58:12Z</time>
      </trkpt>
      <trkpt lat="40.3838340" lon="-3.6155720">
        <ele>640.7</ele>
        <time>2021-05-08T17:58:14Z</time>
      </trkpt>
      <trkpt lat="40.3838360" lon="-3.6155750">
        <ele>640.7</ele>
        <time>2021-05-08T17:58:15Z</time>
      </trkpt>
      <trkpt lat="40.3838390" lon="-3.6155770">
        <ele>640.7</ele>
        <time>2021-05-08T17:58:16Z</time>
      </trkpt>
      <trkpt lat="40.3838430" lon="-3.6155780">
        <ele>640.7</ele>
        <time>2021-05-08T17:58:18Z</time>
      </trkpt>
      <trkpt lat="40.3838450" lon="-3.6155780">
        <ele>640.7</ele>
        <time>2021-05-08T17:58:20Z</time>
      </trkpt>
      <trkpt lat="40.3838610" lon="-3.6155780">
        <ele>640.7</ele>
        <time>2021-05-08T17:58:27Z</time>
      </trkpt>
      <trkpt lat="40.3838680" lon="-3.6155360">
        <ele>640.7</ele>
        <time>2021-05-08T17:58:28Z</time>
      </trkpt>
      <trkpt lat="40.3838820" lon="-3.6154580">
        <ele>640.8</ele>
        <time>2021-05-08T17:58:30Z</time>
      </trkpt>
      <trkpt lat="40.3838980" lon="-3.6154100">
        <ele>640.9</ele>
        <time>2021-05-08T17:58:31Z</time>
      </trkpt>
      <trkpt lat="40.3839220" lon="-3.6153370">
        <ele>641.1</ele>
        <time>2021-05-08T17:58:33Z</time>
      </trkpt>
      <trkpt lat="40.3839490" lon="-3.6152730">
        <ele>641.2</ele>
        <time>2021-05-08T17:58:34Z</time>
      </trkpt>
      <trkpt lat="40.3839730" lon="-3.6152220">
        <ele>641.3</ele>
        <time>2021-05-08T17:58:35Z</time>
      </trkpt>
      <trkpt lat="40.3840090" lon="-3.6151360">
        <ele>641.6</ele>
        <time>2021-05-08T17:58:36Z</time>
      </trkpt>
      <trkpt lat="40.3840300" lon="-3.6150780">
        <ele>641.7</ele>
        <time>2021-05-08T17:58:38Z</time>
      </trkpt>
      <trkpt lat="40.3840480" lon="-3.6150120">
        <ele>641.9</ele>
        <time>2021-05-08T17:58:39Z</time>
      </trkpt>
      <trkpt lat="40.3840780" lon="-3.6148230">
        <ele>642.4</ele>
        <time>2021-05-08T17:58:41Z</time>
      </trkpt>
      <trkpt lat="40.3841040" lon="-3.6147070">
        <ele>642.7</ele>
        <time>2021-05-08T17:58:44Z</time>
      </trkpt>
      <trkpt lat="40.3841300" lon="-3.6145880">
        <ele>643.1</ele>
        <time>2021-05-08T17:58:46Z</time>
      </trkpt>
      <trkpt lat="40.3841530" lon="-3.6144620">
        <ele>643.5</ele>
        <time>2021-05-08T17:58:47Z</time>
      </trkpt>
      <trkpt lat="40.3841670" lon="-3.6144010">
        <ele>643.7</ele>
        <time>2021-05-08T17:58:48Z</time>
      </trkpt>
      <trkpt lat="40.3841810" lon="-3.6143390">
        <ele>643.9</ele>
        <time>2021-05-08T17:58:50Z</time>
      </trkpt>
      <trkpt lat="40.3842130" lon="-3.6142130">
        <ele>644.3</ele>
        <time>2021-05-08T17:58:51Z</time>
      </trkpt>
      <trkpt lat="40.3842270" lon="-3.6141510">
        <ele>644.5</ele>
        <time>2021-05-08T17:58:52Z</time>
      </trkpt>
      <trkpt lat="40.3842550" lon="-3.6140230">
        <ele>644.9</ele>
        <time>2021-05-08T17:58:54Z</time>
      </trkpt>
      <trkpt lat="40.3842700" lon="-3.6139560">
        <ele>645.1</ele>
        <time>2021-05-08T17:58:55Z</time>
      </trkpt>
      <trkpt lat="40.3842830" lon="-3.6138270">
        <ele>645.5</ele>
        <time>2021-05-08T17:58:57Z</time>
      </trkpt>
      <trkpt lat="40.3842630" lon="-3.6137130">
        <ele>645.9</ele>
        <time>2021-05-08T17:58:59Z</time>
      </trkpt>
      <trkpt lat="40.3842320" lon="-3.6135940">
        <ele>646.2</ele>
        <time>2021-05-08T17:59:01Z</time>
      </trkpt>
      <trkpt lat="40.3842100" lon="-3.6134730">
        <ele>646.3</ele>
        <time>2021-05-08T17:59:03Z</time>
      </trkpt>
      <trkpt lat="40.3842050" lon="-3.6134120">
        <ele>646.4</ele>
        <time>2021-05-08T17:59:04Z</time>
      </trkpt>
      <trkpt lat="40.3842010" lon="-3.6132960">
        <ele>646.5</ele>
        <time>2021-05-08T17:59:06Z</time>
      </trkpt>
      <trkpt lat="40.3841650" lon="-3.6131840">
        <ele>646.6</ele>
        <time>2021-05-08T17:59:08Z</time>
      </trkpt>
      <trkpt lat="40.3841320" lon="-3.6131350">
        <ele>646.6</ele>
        <time>2021-05-08T17:59:09Z</time>
      </trkpt>
      <trkpt lat="40.3840550" lon="-3.6130450">
        <ele>646.5</ele>
        <time>2021-05-08T17:59:11Z</time>
      </trkpt>
      <trkpt lat="40.3840120" lon="-3.6130040">
        <ele>646.5</ele>
        <time>2021-05-08T17:59:12Z</time>
      </trkpt>
      <trkpt lat="40.3839290" lon="-3.6129130">
        <ele>646.4</ele>
        <time>2021-05-08T17:59:14Z</time>
      </trkpt>
      <trkpt lat="40.3838910" lon="-3.6128600">
        <ele>646.4</ele>
        <time>2021-05-08T17:59:15Z</time>
      </trkpt>
      <trkpt lat="40.3838060" lon="-3.6127770">
        <ele>646.3</ele>
        <time>2021-05-08T17:59:18Z</time>
      </trkpt>
      <trkpt lat="40.3837320" lon="-3.6126900">
        <ele>646.2</ele>
        <time>2021-05-08T17:59:20Z</time>
      </trkpt>
      <trkpt lat="40.3836600" lon="-3.6125760">
        <ele>646.1</ele>
        <time>2021-05-08T17:59:21Z</time>
      </trkpt>
      <trkpt lat="40.3835640" lon="-3.6123760">
        <ele>645.9</ele>
        <time>2021-05-08T17:59:24Z</time>
      </trkpt>
      <trkpt lat="40.3834960" lon="-3.6122350">
        <ele>645.9</ele>
        <time>2021-05-08T17:59:26Z</time>
      </trkpt>
      <trkpt lat="40.3834290" lon="-3.6120970">
        <ele>645.8</ele>
        <time>2021-05-08T17:59:28Z</time>
      </trkpt>
      <trkpt lat="40.3833630" lon="-3.6119570">
        <ele>645.8</ele>
        <time>2021-05-08T17:59:30Z</time>
      </trkpt>
      <trkpt lat="40.3833310" lon="-3.6118830">
        <ele>645.7</ele>
        <time>2021-05-08T17:59:31Z</time>
      </trkpt>
      <trkpt lat="40.3832600" lon="-3.6117350">
        <ele>645.7</ele>
        <time>2021-05-08T17:59:33Z</time>
      </trkpt>
      <trkpt lat="40.3831940" lon="-3.6115910">
        <ele>645.6</ele>
        <time>2021-05-08T17:59:36Z</time>
      </trkpt>
      <trkpt lat="40.3831820" lon="-3.6114610">
        <ele>645.6</ele>
        <time>2021-05-08T17:59:37Z</time>
      </trkpt>
      <trkpt lat="40.3832030" lon="-3.6114020">
        <ele>645.7</ele>
        <time>2021-05-08T17:59:38Z</time>
      </trkpt>
      <trkpt lat="40.3832800" lon="-3.6112900">
        <ele>646.0</ele>
        <time>2021-05-08T17:59:40Z</time>
      </trkpt>
      <trkpt lat="40.3833200" lon="-3.6112320">
        <ele>646.1</ele>
        <time>2021-05-08T17:59:41Z</time>
      </trkpt>
      <trkpt lat="40.3833930" lon="-3.6111140">
        <ele>646.5</ele>
        <time>2021-05-08T17:59:43Z</time>
      </trkpt>
      <trkpt lat="40.3834620" lon="-3.6110010">
        <ele>646.9</ele>
        <time>2021-05-08T17:59:45Z</time>
      </trkpt>
      <trkpt lat="40.3835310" lon="-3.6108830">
        <ele>647.3</ele>
        <time>2021-05-08T17:59:47Z</time>
      </trkpt>
      <trkpt lat="40.3835600" lon="-3.6108190">
        <ele>647.4</ele>
        <time>2021-05-08T17:59:48Z</time>
      </trkpt>
      <trkpt lat="40.3836170" lon="-3.6106960">
        <ele>647.8</ele>
        <time>2021-05-08T17:59:50Z</time>
      </trkpt>
      <trkpt lat="40.3836720" lon="-3.6105800">
        <ele>648.1</ele>
        <time>2021-05-08T17:59:52Z</time>
      </trkpt>
      <trkpt lat="40.3837310" lon="-3.6104700">
        <ele>648.4</ele>
        <time>2021-05-08T17:59:54Z</time>
      </trkpt>
      <trkpt lat="40.3837620" lon="-3.6104210">
        <ele>648.6</ele>
        <time>2021-05-08T17:59:55Z</time>
      </trkpt>
      <trkpt lat="40.3838320" lon="-3.6103180">
        <ele>648.9</ele>
        <time>2021-05-08T17:59:57Z</time>
      </trkpt>
      <trkpt lat="40.3838700" lon="-3.6102670">
        <ele>649.1</ele>
        <time>2021-05-08T17:59:58Z</time>
      </trkpt>
      <trkpt lat="40.3839030" lon="-3.6102190">
        <ele>649.3</ele>
        <time>2021-05-08T17:59:59Z</time>
      </trkpt>
      <trkpt lat="40.3839670" lon="-3.6101100">
        <ele>649.6</ele>
        <time>2021-05-08T18:00:02Z</time>
      </trkpt>
      <trkpt lat="40.3840380" lon="-3.6099800">
        <ele>650.0</ele>
        <time>2021-05-08T18:00:03Z</time>
      </trkpt>
      <trkpt lat="40.3840790" lon="-3.6099260">
        <ele>650.2</ele>
        <time>2021-05-08T18:00:04Z</time>
      </trkpt>
      <trkpt lat="40.3841520" lon="-3.6098290">
        <ele>650.5</ele>
        <time>2021-05-08T18:00:06Z</time>
      </trkpt>
      <trkpt lat="40.3841830" lon="-3.6097800">
        <ele>650.6</ele>
        <time>2021-05-08T18:00:07Z</time>
      </trkpt>
      <trkpt lat="40.3842140" lon="-3.6097310">
        <ele>650.7</ele>
        <time>2021-05-08T18:00:08Z</time>
      </trkpt>
      <trkpt lat="40.3842420" lon="-3.6096760">
        <ele>650.8</ele>
        <time>2021-05-08T18:00:09Z</time>
      </trkpt>
      <trkpt lat="40.3842730" lon="-3.6096110">
        <ele>650.9</ele>
        <time>2021-05-08T18:00:10Z</time>
      </trkpt>
      <trkpt lat="40.3843320" lon="-3.6094880">
        <ele>651.2</ele>
        <time>2021-05-08T18:00:12Z</time>
      </trkpt>
      <trkpt lat="40.3843580" lon="-3.6094350">
        <ele>651.3</ele>
        <time>2021-05-08T18:00:14Z</time>
      </trkpt>
      <trkpt lat="40.3843970" lon="-3.6093260">
        <ele>651.6</ele>
        <time>2021-05-08T18:00:16Z</time>
      </trkpt>
      <trkpt lat="40.3844470" lon="-3.6092520">
        <ele>651.8</ele>
        <time>2021-05-08T18:00:17Z</time>
      </trkpt>
      <trkpt lat="40.3844680" lon="-3.6092230">
        <ele>651.9</ele>
        <time>2021-05-08T18:00:19Z</time>
      </trkpt>
      <trkpt lat="40.3844750" lon="-3.6092070">
        <ele>651.9</ele>
        <time>2021-05-08T18:00:20Z</time>
      </trkpt>
      <trkpt lat="40.3844420" lon="-3.6091850">
        <ele>654.1</ele>
        <time>2021-05-08T18:00:21Z</time>
      </trkpt>
      <trkpt lat="40.3844260" lon="-3.6091560">
        <ele>654.9</ele>
        <time>2021-05-08T18:00:22Z</time>
      </trkpt>
      <trkpt lat="40.3843880" lon="-3.6090650">
        <ele>657.3</ele>
        <time>2021-05-08T18:00:24Z</time>
      </trkpt>
      <trkpt lat="40.3842920" lon="-3.6089710">
        <ele>658.6</ele>
        <time>2021-05-08T18:00:25Z</time>
      </trkpt>
      <trkpt lat="40.3841960" lon="-3.6088720">
        <ele>659.8</ele>
        <time>2021-05-08T18:00:27Z</time>
      </trkpt>
      <trkpt lat="40.3841020" lon="-3.6087890">
        <ele>661.0</ele>
        <time>2021-05-08T18:00:29Z</time>
      </trkpt>
      <trkpt lat="40.3840100" lon="-3.6087230">
        <ele>662.0</ele>
        <time>2021-05-08T18:00:32Z</time>
      </trkpt>
      <trkpt lat="40.3839350" lon="-3.6086440">
        <ele>663.1</ele>
        <time>2021-05-08T18:00:33Z</time>
      </trkpt>
      <trkpt lat="40.3839090" lon="-3.6085740">
        <ele>662.8</ele>
        <time>2021-05-08T18:00:35Z</time>
      </trkpt>
      <trkpt lat="40.3839390" lon="-3.6085200">
        <ele>662.5</ele>
        <time>2021-05-08T18:00:37Z</time>
      </trkpt>
      <trkpt lat="40.3839770" lon="-3.6084690">
        <ele>662.2</ele>
        <time>2021-05-08T18:00:38Z</time>
      </trkpt>
      <trkpt lat="40.3840160" lon="-3.6084730">
        <ele>662.0</ele>
        <time>2021-05-08T18:00:40Z</time>
      </trkpt>
      <trkpt lat="40.3840520" lon="-3.6084800">
        <ele>661.8</ele>
        <time>2021-05-08T18:00:41Z</time>
      </trkpt>
      <trkpt lat="40.3840690" lon="-3.6084840">
        <ele>661.8</ele>
        <time>2021-05-08T18:00:43Z</time>
      </trkpt>
      <trkpt lat="40.3840690" lon="-3.6084880">
        <ele>661.7</ele>
        <time>2021-05-08T18:00:45Z</time>
      </trkpt>
      <trkpt lat="40.3840680" lon="-3.6084890">
        <ele>661.7</ele>
        <time>2021-05-08T18:00:46Z</time>
      </trkpt>
      <trkpt lat="40.3840660" lon="-3.6084880">
        <ele>661.7</ele>
        <time>2021-05-08T18:00:47Z</time>
      </trkpt>
      <trkpt lat="40.3840650" lon="-3.6084860">
        <ele>661.7</ele>
        <time>2021-05-08T18:00:49Z</time>
      </trkpt>
      <trkpt lat="40.3840670" lon="-3.6084840">
        <ele>661.7</ele>
        <time>2021-05-08T18:00:50Z</time>
      </trkpt>
    </trkseg>
  </trk>
</gpx>
